﻿<?xml version="1.0" encoding="utf-8"?><gpx creator="Garmin Desktop App" version="1.1" xsi:schemaLocation="http://www.topografix.com/GPX/1/1 http://www.topografix.com/GPX/1/1/gpx.xsd http://www.garmin.com/xmlschemas/WaypointExtension/v1 http://www8.garmin.com/xmlschemas/WaypointExtensionv1.xsd http://www.garmin.com/xmlschemas/TrackPointExtension/v1 http://www.garmin.com/xmlschemas/TrackPointExtensionv1.xsd http://www.garmin.com/xmlschemas/GpxExtensions/v3 http://www8.garmin.com/xmlschemas/GpxExtensionsv3.xsd http://www.garmin.com/xmlschemas/ActivityExtension/v1 http://www8.garmin.com/xmlschemas/ActivityExtensionv1.xsd http://www.garmin.com/xmlschemas/AdventuresExtensions/v1 http://www8.garmin.com/xmlschemas/AdventuresExtensionv1.xsd http://www.garmin.com/xmlschemas/PressureExtension/v1 http://www.garmin.com/xmlschemas/PressureExtensionv1.xsd http://www.garmin.com/xmlschemas/TripExtensions/v1 http://www.garmin.com/xmlschemas/TripExtensionsv1.xsd http://www.garmin.com/xmlschemas/TripMetaDataExtensions/v1 http://www.garmin.com/xmlschemas/TripMetaDataExtensionsv1.xsd http://www.garmin.com/xmlschemas/ViaPointTransportationModeExtensions/v1 http://www.garmin.com/xmlschemas/ViaPointTransportationModeExtensionsv1.xsd http://www.garmin.com/xmlschemas/CreationTimeExtension/v1 http://www.garmin.com/xmlschemas/CreationTimeExtensionsv1.xsd http://www.garmin.com/xmlschemas/AccelerationExtension/v1 http://www.garmin.com/xmlschemas/AccelerationExtensionv1.xsd http://www.garmin.com/xmlschemas/PowerExtension/v1 http://www.garmin.com/xmlschemas/PowerExtensionv1.xsd http://www.garmin.com/xmlschemas/VideoExtension/v1 http://www.garmin.com/xmlschemas/VideoExtensionv1.xsd" xmlns="http://www.topografix.com/GPX/1/1" xmlns:xsi="http://www.w3.org/2001/XMLSchema-instance" xmlns:wptx1="http://www.garmin.com/xmlschemas/WaypointExtension/v1" xmlns:gpxtrx="http://www.garmin.com/xmlschemas/GpxExtensions/v3" xmlns:gpxtpx="http://www.garmin.com/xmlschemas/TrackPointExtension/v1" xmlns:gpxx="http://www.garmin.com/xmlschemas/GpxExtensions/v3" xmlns:trp="http://www.garmin.com/xmlschemas/TripExtensions/v1" xmlns:adv="http://www.garmin.com/xmlschemas/AdventuresExtensions/v1" xmlns:prs="http://www.garmin.com/xmlschemas/PressureExtension/v1" xmlns:tmd="http://www.garmin.com/xmlschemas/TripMetaDataExtensions/v1" xmlns:vptm="http://www.garmin.com/xmlschemas/ViaPointTransportationModeExtensions/v1" xmlns:ctx="http://www.garmin.com/xmlschemas/CreationTimeExtension/v1" xmlns:gpxacc="http://www.garmin.com/xmlschemas/AccelerationExtension/v1" xmlns:gpxpx="http://www.garmin.com/xmlschemas/PowerExtension/v1" xmlns:vidx1="http://www.garmin.com/xmlschemas/VideoExtension/v1">

  <metadata>
    <link href="http://www.garmin.com">
      <text>Garmin International</text>
    </link>
    <time>2018-07-02T20:04:35Z</time>
    <bounds maxlat="51.256081033498049" maxlon="3.229438997805119" minlat="49.757647030055523" minlon="0.372398989275098" />
  </metadata>

  <trk>
    <name>Track vom: 2018-07-02 08:31</name>
    <extensions>
      <gpxx:TrackExtension>
        <gpxx:DisplayColor>DarkGray</gpxx:DisplayColor>
      </gpxx:TrackExtension>
    </extensions>
    <trkseg>
      <trkpt lat="51.209904039278626" lon="3.229323998093605">
        <ele>24.170000000000002</ele>
        <time>2018-07-02T06:31:56Z</time>
      </trkpt>
      <trkpt lat="51.209904039278626" lon="3.229323998093605">
        <ele>23.690000000000001</ele>
        <time>2018-07-02T06:32:44Z</time>
      </trkpt>
      <trkpt lat="51.209902027621865" lon="3.229320980608463">
        <ele>23.690000000000001</ele>
        <time>2018-07-02T06:33:33Z</time>
      </trkpt>
      <trkpt lat="51.209902027621865" lon="3.229320980608463">
        <ele>23.690000000000001</ele>
        <time>2018-07-02T06:33:53Z</time>
      </trkpt>
      <trkpt lat="51.209742017090321" lon="3.229438997805119">
        <ele>16.48</ele>
        <time>2018-07-02T06:34:02Z</time>
      </trkpt>
      <trkpt lat="51.209700023755431" lon="3.229403961449862">
        <ele>14.56</ele>
        <time>2018-07-02T06:34:04Z</time>
      </trkpt>
      <trkpt lat="51.20946298353374" lon="3.228744976222515">
        <ele>8.789999999999999</ele>
        <time>2018-07-02T06:34:16Z</time>
      </trkpt>
      <trkpt lat="51.209172969684005" lon="3.228021031245589">
        <ele>3.5</ele>
        <time>2018-07-02T06:34:30Z</time>
      </trkpt>
      <trkpt lat="51.209033997729421" lon="3.227708972990513">
        <ele>2.54</ele>
        <time>2018-07-02T06:34:39Z</time>
      </trkpt>
      <trkpt lat="51.208864012733102" lon="3.227232964709401">
        <ele>2.06</ele>
        <time>2018-07-02T06:34:50Z</time>
      </trkpt>
      <trkpt lat="51.208844985812902" lon="3.227183008566499">
        <ele>2.06</ele>
        <time>2018-07-02T06:34:57Z</time>
      </trkpt>
      <trkpt lat="51.209210017696023" lon="3.226837003603578">
        <ele>5.91</ele>
        <time>2018-07-02T06:35:07Z</time>
      </trkpt>
      <trkpt lat="51.209241030737758" lon="3.226799033582211">
        <ele>6.39</ele>
        <time>2018-07-02T06:35:08Z</time>
      </trkpt>
      <trkpt lat="51.209270032122731" lon="3.226762991398573">
        <ele>7.35</ele>
        <time>2018-07-02T06:35:09Z</time>
      </trkpt>
      <trkpt lat="51.209271959960461" lon="3.226761985570192">
        <ele>8.310000000000001</ele>
        <time>2018-07-02T06:35:10Z</time>
      </trkpt>
      <trkpt lat="51.209271959960461" lon="3.226747987791896">
        <ele>9.27</ele>
        <time>2018-07-02T06:35:11Z</time>
      </trkpt>
      <trkpt lat="51.209271959960461" lon="3.226699959486723">
        <ele>9.75</ele>
        <time>2018-07-02T06:35:12Z</time>
      </trkpt>
      <trkpt lat="51.209271959960461" lon="3.226700965315104">
        <ele>10.23</ele>
        <time>2018-07-02T06:35:13Z</time>
      </trkpt>
      <trkpt lat="51.209359969943762" lon="3.226439030840993">
        <ele>10.710000000000001</ele>
        <time>2018-07-02T06:35:15Z</time>
      </trkpt>
      <trkpt lat="51.209386037662625" lon="3.226426038891077">
        <ele>11.19</ele>
        <time>2018-07-02T06:35:16Z</time>
      </trkpt>
      <trkpt lat="51.209572032094002" lon="3.226332999765873">
        <ele>15.039999999999999</ele>
        <time>2018-07-02T06:35:24Z</time>
      </trkpt>
      <trkpt lat="51.209565997123718" lon="3.226253036409617">
        <ele>15.52</ele>
        <time>2018-07-02T06:35:25Z</time>
      </trkpt>
      <trkpt lat="51.209561973810196" lon="3.22619796730578">
        <ele>15.52</ele>
        <time>2018-07-02T06:35:26Z</time>
      </trkpt>
      <trkpt lat="51.209557028487325" lon="3.226139964535832">
        <ele>15.52</ele>
        <time>2018-07-02T06:35:27Z</time>
      </trkpt>
      <trkpt lat="51.209551999345422" lon="3.226075004786253">
        <ele>16</ele>
        <time>2018-07-02T06:35:28Z</time>
      </trkpt>
      <trkpt lat="51.209544036537409" lon="3.226009961217642">
        <ele>16</ele>
        <time>2018-07-02T06:35:29Z</time>
      </trkpt>
      <trkpt lat="51.209533978253603" lon="3.225941983982921">
        <ele>16.48</ele>
        <time>2018-07-02T06:35:30Z</time>
      </trkpt>
      <trkpt lat="51.209524003788829" lon="3.225873000919819">
        <ele>16.48</ele>
        <time>2018-07-02T06:35:31Z</time>
      </trkpt>
      <trkpt lat="51.209514029324055" lon="3.225805023685098">
        <ele>16.48</ele>
        <time>2018-07-02T06:35:32Z</time>
      </trkpt>
      <trkpt lat="51.209503971040249" lon="3.225737968459725">
        <ele>16.48</ele>
        <time>2018-07-02T06:35:33Z</time>
      </trkpt>
      <trkpt lat="51.209492990747094" lon="3.225667979568243">
        <ele>16.48</ele>
        <time>2018-07-02T06:35:34Z</time>
      </trkpt>
      <trkpt lat="51.20948301628232" lon="3.225597990676761">
        <ele>16.48</ele>
        <time>2018-07-02T06:35:35Z</time>
      </trkpt>
      <trkpt lat="51.209473041817546" lon="3.225528001785278">
        <ele>16.960000000000001</ele>
        <time>2018-07-02T06:35:36Z</time>
      </trkpt>
      <trkpt lat="51.209461977705359" lon="3.225448960438371">
        <ele>16.960000000000001</ele>
        <time>2018-07-02T06:35:37Z</time>
      </trkpt>
      <trkpt lat="51.209456026554108" lon="3.22538098320365">
        <ele>16.960000000000001</ele>
        <time>2018-07-02T06:35:38Z</time>
      </trkpt>
      <trkpt lat="51.209424007683992" lon="3.225012011826038">
        <ele>16.48</ele>
        <time>2018-07-02T06:35:43Z</time>
      </trkpt>
      <trkpt lat="51.209417972713709" lon="3.22495099157095">
        <ele>16</ele>
        <time>2018-07-02T06:35:44Z</time>
      </trkpt>
      <trkpt lat="51.209414033219218" lon="3.224898017942905">
        <ele>16</ele>
        <time>2018-07-02T06:35:45Z</time>
      </trkpt>
      <trkpt lat="51.209410009905696" lon="3.224848983809352">
        <ele>16</ele>
        <time>2018-07-02T06:35:46Z</time>
      </trkpt>
      <trkpt lat="51.209405986592174" lon="3.224810007959604">
        <ele>15.52</ele>
        <time>2018-07-02T06:35:47Z</time>
      </trkpt>
      <trkpt lat="51.209402969107032" lon="3.224772037938237">
        <ele>15.52</ele>
        <time>2018-07-02T06:35:48Z</time>
      </trkpt>
      <trkpt lat="51.209400035440922" lon="3.224744964390993">
        <ele>15.039999999999999</ele>
        <time>2018-07-02T06:35:49Z</time>
      </trkpt>
      <trkpt lat="51.209400035440922" lon="3.224744964390993">
        <ele>15.039999999999999</ele>
        <time>2018-07-02T06:35:50Z</time>
      </trkpt>
      <trkpt lat="51.209418978542089" lon="3.224740019068122">
        <ele>15.52</ele>
        <time>2018-07-02T06:35:51Z</time>
      </trkpt>
      <trkpt lat="51.209438005462289" lon="3.224734989926219">
        <ele>15.52</ele>
        <time>2018-07-02T06:35:52Z</time>
      </trkpt>
      <trkpt lat="51.209452003240585" lon="3.224731972441077">
        <ele>15.52</ele>
        <time>2018-07-02T06:35:53Z</time>
      </trkpt>
      <trkpt lat="51.209461977705359" lon="3.224729038774967">
        <ele>16</ele>
        <time>2018-07-02T06:35:54Z</time>
      </trkpt>
      <trkpt lat="51.209484022110701" lon="3.224723003804684">
        <ele>16</ele>
        <time>2018-07-02T06:35:55Z</time>
      </trkpt>
      <trkpt lat="51.209514029324055" lon="3.22471596300602">
        <ele>16.48</ele>
        <time>2018-07-02T06:35:56Z</time>
      </trkpt>
      <trkpt lat="51.209550993517041" lon="3.224705988541246">
        <ele>16.960000000000001</ele>
        <time>2018-07-02T06:35:57Z</time>
      </trkpt>
      <trkpt lat="51.209593992680311" lon="3.224695008248091">
        <ele>17.440000000000001</ele>
        <time>2018-07-02T06:35:58Z</time>
      </trkpt>
      <trkpt lat="51.209832960739732" lon="3.224632982164621">
        <ele>19.84</ele>
        <time>2018-07-02T06:36:03Z</time>
      </trkpt>
      <trkpt lat="51.209893980994821" lon="3.224616972729564">
        <ele>20.32</ele>
        <time>2018-07-02T06:36:04Z</time>
      </trkpt>
      <trkpt lat="51.209947960451245" lon="3.224602974951267">
        <ele>20.32</ele>
        <time>2018-07-02T06:36:05Z</time>
      </trkpt>
      <trkpt lat="51.209993977099657" lon="3.224591994658113">
        <ele>20.809999999999999</ele>
        <time>2018-07-02T06:36:06Z</time>
      </trkpt>
      <trkpt lat="51.210031025111675" lon="3.224582020193338">
        <ele>20.809999999999999</ele>
        <time>2018-07-02T06:36:07Z</time>
      </trkpt>
      <trkpt lat="51.21006497181952" lon="3.224572967737913">
        <ele>21.289999999999999</ele>
        <time>2018-07-02T06:36:08Z</time>
      </trkpt>
      <trkpt lat="51.210089027881622" lon="3.224567016586661">
        <ele>21.77</ele>
        <time>2018-07-02T06:36:09Z</time>
      </trkpt>
      <trkpt lat="51.210123980417848" lon="3.224556958302856">
        <ele>22.25</ele>
        <time>2018-07-02T06:36:10Z</time>
      </trkpt>
      <trkpt lat="51.210241997614503" lon="3.224524017423391">
        <ele>23.210000000000001</ele>
        <time>2018-07-02T06:36:13Z</time>
      </trkpt>
      <trkpt lat="51.210556989535689" lon="3.224430978298187">
        <ele>22.73</ele>
        <time>2018-07-02T06:36:19Z</time>
      </trkpt>
      <trkpt lat="51.210598982870579" lon="3.224408011883497">
        <ele>22.25</ele>
        <time>2018-07-02T06:36:20Z</time>
      </trkpt>
      <trkpt lat="51.210640976205468" lon="3.224384961649776">
        <ele>22.25</ele>
        <time>2018-07-02T06:36:21Z</time>
      </trkpt>
      <trkpt lat="51.210677018389106" lon="3.224365012720227">
        <ele>21.77</ele>
        <time>2018-07-02T06:36:22Z</time>
      </trkpt>
      <trkpt lat="51.210714988410473" lon="3.224343974143267">
        <ele>21.77</ele>
        <time>2018-07-02T06:36:23Z</time>
      </trkpt>
      <trkpt lat="51.21075103059411" lon="3.224323019385338">
        <ele>21.77</ele>
        <time>2018-07-02T06:36:24Z</time>
      </trkpt>
      <trkpt lat="51.210882039740682" lon="3.224251018837094">
        <ele>21.77</ele>
        <time>2018-07-02T06:36:28Z</time>
      </trkpt>
      <trkpt lat="51.210907017812133" lon="3.224241966381669">
        <ele>21.77</ele>
        <time>2018-07-02T06:36:29Z</time>
      </trkpt>
      <trkpt lat="51.211053030565381" lon="3.224188992753625">
        <ele>19.84</ele>
        <time>2018-07-02T06:36:34Z</time>
      </trkpt>
      <trkpt lat="51.21111698448658" lon="3.224165020510554">
        <ele>19.359999999999999</ele>
        <time>2018-07-02T06:36:35Z</time>
      </trkpt>
      <trkpt lat="51.211136011406779" lon="3.224174994975328">
        <ele>18.879999999999999</ele>
        <time>2018-07-02T06:36:36Z</time>
      </trkpt>
      <trkpt lat="51.21115998364985" lon="3.224186981096864">
        <ele>18.399999999999999</ele>
        <time>2018-07-02T06:36:37Z</time>
      </trkpt>
      <trkpt lat="51.211173981428146" lon="3.224174994975328">
        <ele>17.920000000000002</ele>
        <time>2018-07-02T06:36:38Z</time>
      </trkpt>
      <trkpt lat="51.211201976984739" lon="3.224152028560638">
        <ele>17.440000000000001</ele>
        <time>2018-07-02T06:36:39Z</time>
      </trkpt>
      <trkpt lat="51.211227960884571" lon="3.224130989983678">
        <ele>16.960000000000001</ele>
        <time>2018-07-02T06:36:40Z</time>
      </trkpt>
      <trkpt lat="51.211256040260196" lon="3.224108023568988">
        <ele>16.48</ele>
        <time>2018-07-02T06:36:41Z</time>
      </trkpt>
      <trkpt lat="51.211578994989395" lon="3.223842987790704">
        <ele>9.27</ele>
        <time>2018-07-02T06:36:49Z</time>
      </trkpt>
      <trkpt lat="51.211626017466187" lon="3.223804011940956">
        <ele>8.789999999999999</ele>
        <time>2018-07-02T06:36:50Z</time>
      </trkpt>
      <trkpt lat="51.211760966107249" lon="3.223693035542965">
        <ele>7.83</ele>
        <time>2018-07-02T06:36:51Z</time>
      </trkpt>
      <trkpt lat="51.211780998855829" lon="3.223674008622766">
        <ele>6.87</ele>
        <time>2018-07-02T06:36:53Z</time>
      </trkpt>
      <trkpt lat="51.211823998019099" lon="3.223630003631115">
        <ele>6.39</ele>
        <time>2018-07-02T06:36:54Z</time>
      </trkpt>
      <trkpt lat="51.211960958316922" lon="3.223451972007752">
        <ele>4.46</ele>
        <time>2018-07-02T06:36:57Z</time>
      </trkpt>
      <trkpt lat="51.212056009098887" lon="3.223315011709929">
        <ele>3.98</ele>
        <time>2018-07-02T06:36:59Z</time>
      </trkpt>
      <trkpt lat="51.212104959413409" lon="3.223245022818446">
        <ele>3.5</ele>
        <time>2018-07-02T06:37:00Z</time>
      </trkpt>
      <trkpt lat="51.212159022688866" lon="3.223166987299919">
        <ele>3.98</ele>
        <time>2018-07-02T06:37:01Z</time>
      </trkpt>
      <trkpt lat="51.212209984660149" lon="3.223093980923295">
        <ele>5.42</ele>
        <time>2018-07-02T06:37:02Z</time>
      </trkpt>
      <trkpt lat="51.212237980216742" lon="3.22299599647522">
        <ele>6.39</ele>
        <time>2018-07-02T06:37:03Z</time>
      </trkpt>
      <trkpt lat="51.212274022400379" lon="3.222917038947344">
        <ele>7.35</ele>
        <time>2018-07-02T06:37:04Z</time>
      </trkpt>
      <trkpt lat="51.212306963279843" lon="3.22284696623683">
        <ele>8.310000000000001</ele>
        <time>2018-07-02T06:37:05Z</time>
      </trkpt>
      <trkpt lat="51.212337976321578" lon="3.22278100065887">
        <ele>9.27</ele>
        <time>2018-07-02T06:37:06Z</time>
      </trkpt>
      <trkpt lat="51.212369995191693" lon="3.222713023424149">
        <ele>10.23</ele>
        <time>2018-07-02T06:37:07Z</time>
      </trkpt>
      <trkpt lat="51.21240402571857" lon="3.222642028704286">
        <ele>12.15</ele>
        <time>2018-07-02T06:37:09Z</time>
      </trkpt>
      <trkpt lat="51.212425986304879" lon="3.222577990964055">
        <ele>12.630000000000001</ele>
        <time>2018-07-02T06:37:10Z</time>
      </trkpt>
      <trkpt lat="51.212460016831756" lon="3.22248000651598">
        <ele>13.119999999999999</ele>
        <time>2018-07-02T06:37:11Z</time>
      </trkpt>
      <trkpt lat="51.212486000731587" lon="3.222404988482595">
        <ele>13.6</ele>
        <time>2018-07-02T06:37:12Z</time>
      </trkpt>
      <trkpt lat="51.21251399628818" lon="3.222323013469577">
        <ele>14.56</ele>
        <time>2018-07-02T06:37:13Z</time>
      </trkpt>
      <trkpt lat="51.212768973782659" lon="3.221848011016846">
        <ele>19.359999999999999</ele>
        <time>2018-07-02T06:37:20Z</time>
      </trkpt>
      <trkpt lat="51.212852960452437" lon="3.22181498631835">
        <ele>19.84</ele>
        <time>2018-07-02T06:37:21Z</time>
      </trkpt>
      <trkpt lat="51.21289998292923" lon="3.22179595939815">
        <ele>19.84</ele>
        <time>2018-07-02T06:37:22Z</time>
      </trkpt>
      <trkpt lat="51.213240036740899" lon="3.22172898799181">
        <ele>22.73</ele>
        <time>2018-07-02T06:37:28Z</time>
      </trkpt>
      <trkpt lat="51.213303990662098" lon="3.221721025183797">
        <ele>23.210000000000001</ele>
        <time>2018-07-02T06:37:29Z</time>
      </trkpt>
      <trkpt lat="51.213370962068439" lon="3.221711972728372">
        <ele>23.210000000000001</ele>
        <time>2018-07-02T06:37:30Z</time>
      </trkpt>
      <trkpt lat="51.213440028950572" lon="3.221703004091978">
        <ele>23.690000000000001</ele>
        <time>2018-07-02T06:37:31Z</time>
      </trkpt>
      <trkpt lat="51.213509012013674" lon="3.221694035455585">
        <ele>23.690000000000001</ele>
        <time>2018-07-02T06:37:32Z</time>
      </trkpt>
      <trkpt lat="51.213582018390298" lon="3.221684983000159">
        <ele>24.170000000000002</ele>
        <time>2018-07-02T06:37:33Z</time>
      </trkpt>
      <trkpt lat="51.213656030595303" lon="3.221675008535385">
        <ele>23.690000000000001</ele>
        <time>2018-07-02T06:37:34Z</time>
      </trkpt>
      <trkpt lat="51.213725013658404" lon="3.221666039898992">
        <ele>23.690000000000001</ele>
        <time>2018-07-02T06:37:35Z</time>
      </trkpt>
      <trkpt lat="51.213791985064745" lon="3.221657993271947">
        <ele>23.210000000000001</ele>
        <time>2018-07-02T06:37:36Z</time>
      </trkpt>
      <trkpt lat="51.213862979784608" lon="3.221648018807173">
        <ele>23.210000000000001</ele>
        <time>2018-07-02T06:37:37Z</time>
      </trkpt>
      <trkpt lat="51.21393296867609" lon="3.221638966351748">
        <ele>22.73</ele>
        <time>2018-07-02T06:37:38Z</time>
      </trkpt>
      <trkpt lat="51.214049980044365" lon="3.221623962745071">
        <ele>22.25</ele>
        <time>2018-07-02T06:37:40Z</time>
      </trkpt>
      <trkpt lat="51.214109994471073" lon="3.221615999937058">
        <ele>22.25</ele>
        <time>2018-07-02T06:37:41Z</time>
      </trkpt>
      <trkpt lat="51.214176965877414" lon="3.221597978845239">
        <ele>22.25</ele>
        <time>2018-07-02T06:37:42Z</time>
      </trkpt>
      <trkpt lat="51.214239997789264" lon="3.221573000773788">
        <ele>22.25</ele>
        <time>2018-07-02T06:37:43Z</time>
      </trkpt>
      <trkpt lat="51.21429598890245" lon="3.221551040187478">
        <ele>22.73</ele>
        <time>2018-07-02T06:37:44Z</time>
      </trkpt>
      <trkpt lat="51.214356003329158" lon="3.221527989953756">
        <ele>22.73</ele>
        <time>2018-07-02T06:37:45Z</time>
      </trkpt>
      <trkpt lat="51.214417023584247" lon="3.221504017710686">
        <ele>22.73</ele>
        <time>2018-07-02T06:37:46Z</time>
      </trkpt>
      <trkpt lat="51.214477038010955" lon="3.221480967476964">
        <ele>22.73</ele>
        <time>2018-07-02T06:37:47Z</time>
      </trkpt>
      <trkpt lat="51.215022029355168" lon="3.221268989145756">
        <ele>22.73</ele>
        <time>2018-07-02T06:37:57Z</time>
      </trkpt>
      <trkpt lat="51.215150021016598" lon="3.221225989982486">
        <ele>22.73</ele>
        <time>2018-07-02T06:37:58Z</time>
      </trkpt>
      <trkpt lat="51.215252028778195" lon="3.221195982769132">
        <ele>22.25</ele>
        <time>2018-07-02T06:37:59Z</time>
      </trkpt>
      <trkpt lat="51.215299973264337" lon="3.221186008304358">
        <ele>22.25</ele>
        <time>2018-07-02T06:38:00Z</time>
      </trkpt>
      <trkpt lat="51.21534800156951" lon="3.221175028011203">
        <ele>22.73</ele>
        <time>2018-07-02T06:38:01Z</time>
      </trkpt>
      <trkpt lat="51.215394018217921" lon="3.221164969727397">
        <ele>22.73</ele>
        <time>2018-07-02T06:38:02Z</time>
      </trkpt>
      <trkpt lat="51.215538019314408" lon="3.221133034676313">
        <ele>23.690000000000001</ele>
        <time>2018-07-02T06:38:05Z</time>
      </trkpt>
      <trkpt lat="51.215580012649298" lon="3.221122976392508">
        <ele>23.690000000000001</ele>
        <time>2018-07-02T06:38:06Z</time>
      </trkpt>
      <trkpt lat="51.215601973235607" lon="3.220989033579826">
        <ele>24.649999999999999</ele>
        <time>2018-07-02T06:38:09Z</time>
      </trkpt>
      <trkpt lat="51.215601973235607" lon="3.22093497030437">
        <ele>25.129999999999999</ele>
        <time>2018-07-02T06:38:10Z</time>
      </trkpt>
      <trkpt lat="51.215601973235607" lon="3.220873028039932">
        <ele>24.649999999999999</ele>
        <time>2018-07-02T06:38:11Z</time>
      </trkpt>
      <trkpt lat="51.215601973235607" lon="3.220840003341436">
        <ele>24.649999999999999</ele>
        <time>2018-07-02T06:38:12Z</time>
      </trkpt>
      <trkpt lat="51.215578000992537" lon="3.220743024721742">
        <ele>23.690000000000001</ele>
        <time>2018-07-02T06:38:13Z</time>
      </trkpt>
      <trkpt lat="51.215557968243957" lon="3.220659038051963">
        <ele>23.210000000000001</ele>
        <time>2018-07-02T06:38:14Z</time>
      </trkpt>
      <trkpt lat="51.21554103679955" lon="3.220588965341449">
        <ele>22.73</ele>
        <time>2018-07-02T06:38:15Z</time>
      </trkpt>
      <trkpt lat="51.215526033192873" lon="3.220524005591869">
        <ele>21.77</ele>
        <time>2018-07-02T06:38:16Z</time>
      </trkpt>
      <trkpt lat="51.21549803763628" lon="3.220406994223595">
        <ele>20.809999999999999</ele>
        <time>2018-07-02T06:38:18Z</time>
      </trkpt>
      <trkpt lat="51.215487979352474" lon="3.220367012545466">
        <ele>20.32</ele>
        <time>2018-07-02T06:38:19Z</time>
      </trkpt>
      <trkpt lat="51.215481022372842" lon="3.220337005332112">
        <ele>20.32</ele>
        <time>2018-07-02T06:38:20Z</time>
      </trkpt>
      <trkpt lat="51.215775981545448" lon="3.220132989808917">
        <ele>20.809999999999999</ele>
        <time>2018-07-02T06:38:26Z</time>
      </trkpt>
      <trkpt lat="51.216029031202197" lon="3.220022013410926">
        <ele>22.25</ele>
        <time>2018-07-02T06:38:31Z</time>
      </trkpt>
      <trkpt lat="51.216146964579821" lon="3.218946028500795">
        <ele>21.77</ele>
        <time>2018-07-02T06:38:39Z</time>
      </trkpt>
      <trkpt lat="51.216238997876644" lon="3.218873022124171">
        <ele>20.809999999999999</ele>
        <time>2018-07-02T06:38:41Z</time>
      </trkpt>
      <trkpt lat="51.216284008696675" lon="3.218837985768914">
        <ele>20.809999999999999</ele>
        <time>2018-07-02T06:38:42Z</time>
      </trkpt>
      <trkpt lat="51.216326002031565" lon="3.218804961070418">
        <ele>20.32</ele>
        <time>2018-07-02T06:38:43Z</time>
      </trkpt>
      <trkpt lat="51.216402025893331" lon="3.218744024634361">
        <ele>19.359999999999999</ele>
        <time>2018-07-02T06:38:45Z</time>
      </trkpt>
      <trkpt lat="51.216437984257936" lon="3.218715023249388">
        <ele>19.359999999999999</ele>
        <time>2018-07-02T06:38:46Z</time>
      </trkpt>
      <trkpt lat="51.216437984257936" lon="3.218715023249388">
        <ele>18.879999999999999</ele>
        <time>2018-07-02T06:38:47Z</time>
      </trkpt>
      <trkpt lat="51.216437984257936" lon="3.218715023249388">
        <ele>18.399999999999999</ele>
        <time>2018-07-02T06:38:48Z</time>
      </trkpt>
      <trkpt lat="51.216437984257936" lon="3.218715023249388">
        <ele>17.440000000000001</ele>
        <time>2018-07-02T06:38:49Z</time>
      </trkpt>
      <trkpt lat="51.216437984257936" lon="3.218715023249388">
        <ele>16.960000000000001</ele>
        <time>2018-07-02T06:38:50Z</time>
      </trkpt>
      <trkpt lat="51.216437984257936" lon="3.218715023249388">
        <ele>16.48</ele>
        <time>2018-07-02T06:38:51Z</time>
      </trkpt>
      <trkpt lat="51.216519037261605" lon="3.218536991626024">
        <ele>15.52</ele>
        <time>2018-07-02T06:38:53Z</time>
      </trkpt>
      <trkpt lat="51.216763034462929" lon="3.218356026336551">
        <ele>15.039999999999999</ele>
        <time>2018-07-02T06:38:54Z</time>
      </trkpt>
      <trkpt lat="51.216806033626199" lon="3.218319984152913">
        <ele>14.56</ele>
        <time>2018-07-02T06:38:55Z</time>
      </trkpt>
      <trkpt lat="51.216842997819185" lon="3.218288971111178">
        <ele>14.08</ele>
        <time>2018-07-02T06:38:56Z</time>
      </trkpt>
      <trkpt lat="51.216623978689313" lon="3.218301963061094">
        <ele>14.08</ele>
        <time>2018-07-02T06:38:57Z</time>
      </trkpt>
      <trkpt lat="51.217034021392465" lon="3.218815019354224">
        <ele>13.119999999999999</ele>
        <time>2018-07-02T06:38:58Z</time>
      </trkpt>
      <trkpt lat="51.217058999463916" lon="3.218847960233688">
        <ele>12.630000000000001</ele>
        <time>2018-07-02T06:38:59Z</time>
      </trkpt>
      <trkpt lat="51.217090012505651" lon="3.218890959396958">
        <ele>11.67</ele>
        <time>2018-07-02T06:39:00Z</time>
      </trkpt>
      <trkpt lat="51.217343984171748" lon="3.219225984066725">
        <ele>7.83</ele>
        <time>2018-07-02T06:39:05Z</time>
      </trkpt>
      <trkpt lat="51.217406010255218" lon="3.219306031242013">
        <ele>6.87</ele>
        <time>2018-07-02T06:39:06Z</time>
      </trkpt>
      <trkpt lat="51.21779702603817" lon="3.219807017594576">
        <ele>-0.82</ele>
        <time>2018-07-02T06:39:13Z</time>
      </trkpt>
      <trkpt lat="51.217845976352692" lon="3.219868959859014">
        <ele>-1.3</ele>
        <time>2018-07-02T06:39:14Z</time>
      </trkpt>
      <trkpt lat="51.217889981344342" lon="3.219926962628961">
        <ele>-1.79</ele>
        <time>2018-07-02T06:39:15Z</time>
      </trkpt>
      <trkpt lat="51.21792702935636" lon="3.219972979277372">
        <ele>-1.79</ele>
        <time>2018-07-02T06:39:16Z</time>
      </trkpt>
      <trkpt lat="51.217952007427812" lon="3.220006003975868">
        <ele>-2.27</ele>
        <time>2018-07-02T06:39:17Z</time>
      </trkpt>
      <trkpt lat="51.218133978545666" lon="3.220239020884037">
        <ele>-3.23</ele>
        <time>2018-07-02T06:39:18Z</time>
      </trkpt>
      <trkpt lat="51.218064995482564" lon="3.219844987615943">
        <ele>-3.71</ele>
        <time>2018-07-02T06:39:19Z</time>
      </trkpt>
      <trkpt lat="51.218045968562365" lon="3.219821015372872">
        <ele>-3.71</ele>
        <time>2018-07-02T06:39:20Z</time>
      </trkpt>
      <trkpt lat="51.218017973005772" lon="3.219784973189235">
        <ele>-3.71</ele>
        <time>2018-07-02T06:39:21Z</time>
      </trkpt>
      <trkpt lat="51.217986037954688" lon="3.219743985682726">
        <ele>-3.71</ele>
        <time>2018-07-02T06:39:22Z</time>
      </trkpt>
      <trkpt lat="51.217482034116983" lon="3.219100004062057">
        <ele>-5.63</ele>
        <time>2018-07-02T06:39:31Z</time>
      </trkpt>
      <trkpt lat="51.216518031433225" lon="3.217822015285492">
        <ele>-3.23</ele>
        <time>2018-07-02T06:39:44Z</time>
      </trkpt>
      <trkpt lat="51.216026013717055" lon="3.217159006744623">
        <ele>-3.23</ele>
        <time>2018-07-02T06:39:52Z</time>
      </trkpt>
      <trkpt lat="51.215752009302378" lon="3.216762961819768">
        <ele>-5.15</ele>
        <time>2018-07-02T06:40:02Z</time>
      </trkpt>
      <trkpt lat="51.215725019574165" lon="3.216639999300242">
        <ele>-5.63</ele>
        <time>2018-07-02T06:40:03Z</time>
      </trkpt>
      <trkpt lat="51.215710015967488" lon="3.216573027893901">
        <ele>-6.11</ele>
        <time>2018-07-02T06:40:04Z</time>
      </trkpt>
      <trkpt lat="51.215689983218908" lon="3.21648602373898">
        <ele>-6.11</ele>
        <time>2018-07-02T06:40:05Z</time>
      </trkpt>
      <trkpt lat="51.215671040117741" lon="3.21639901958406">
        <ele>-6.59</ele>
        <time>2018-07-02T06:40:06Z</time>
      </trkpt>
      <trkpt lat="51.215666010975838" lon="3.216375969350338">
        <ele>-6.59</ele>
        <time>2018-07-02T06:40:07Z</time>
      </trkpt>
      <trkpt lat="51.215685959905386" lon="3.216289971023798">
        <ele>-7.07</ele>
        <time>2018-07-02T06:40:08Z</time>
      </trkpt>
      <trkpt lat="51.215709010139108" lon="3.216190980747342">
        <ele>-7.07</ele>
        <time>2018-07-02T06:40:09Z</time>
      </trkpt>
      <trkpt lat="51.215729964897037" lon="3.216097019612789">
        <ele>-7.07</ele>
        <time>2018-07-02T06:40:10Z</time>
      </trkpt>
      <trkpt lat="51.215766007080674" lon="3.21601303294301">
        <ele>-6.59</ele>
        <time>2018-07-02T06:40:11Z</time>
      </trkpt>
      <trkpt lat="51.215833984315395" lon="3.215764006599784">
        <ele>-6.59</ele>
        <time>2018-07-02T06:40:13Z</time>
      </trkpt>
      <trkpt lat="51.215829038992524" lon="3.215650012716651">
        <ele>-6.59</ele>
        <time>2018-07-02T06:40:14Z</time>
      </trkpt>
      <trkpt lat="51.215823004022241" lon="3.215529983863235">
        <ele>-6.59</ele>
        <time>2018-07-02T06:40:15Z</time>
      </trkpt>
      <trkpt lat="51.215815963223577" lon="3.215166963636875">
        <ele>-6.59</ele>
        <time>2018-07-02T06:40:18Z</time>
      </trkpt>
      <trkpt lat="51.215817974880338" lon="3.215040983632207">
        <ele>-6.59</ele>
        <time>2018-07-02T06:40:19Z</time>
      </trkpt>
      <trkpt lat="51.215854017063975" lon="3.214933024719358">
        <ele>-6.59</ele>
        <time>2018-07-02T06:40:20Z</time>
      </trkpt>
      <trkpt lat="51.215890981256962" lon="3.214820958673954">
        <ele>-6.59</ele>
        <time>2018-07-02T06:40:21Z</time>
      </trkpt>
      <trkpt lat="51.215936997905374" lon="3.214719034731388">
        <ele>-6.11</ele>
        <time>2018-07-02T06:40:22Z</time>
      </trkpt>
      <trkpt lat="51.215986032038927" lon="3.214620966464281">
        <ele>-5.63</ele>
        <time>2018-07-02T06:40:23Z</time>
      </trkpt>
      <trkpt lat="51.216790024191141" lon="3.213183972984552">
        <ele>-0.34</ele>
        <time>2018-07-02T06:40:37Z</time>
      </trkpt>
      <trkpt lat="51.217651013284922" lon="3.211946971714497">
        <ele>-1.3</ele>
        <time>2018-07-02T06:40:50Z</time>
      </trkpt>
      <trkpt lat="51.218562964349985" lon="3.210419034585357">
        <ele>0.62</ele>
        <time>2018-07-02T06:41:04Z</time>
      </trkpt>
      <trkpt lat="51.218785000964999" lon="3.210046961903572">
        <ele>1.1</ele>
        <time>2018-07-02T06:41:08Z</time>
      </trkpt>
      <trkpt lat="51.219083983451128" lon="3.209662986919284">
        <ele>3.5</ele>
        <time>2018-07-02T06:41:16Z</time>
      </trkpt>
      <trkpt lat="51.219083983451128" lon="3.209662986919284">
        <ele>3.98</ele>
        <time>2018-07-02T06:41:17Z</time>
      </trkpt>
      <trkpt lat="51.219083983451128" lon="3.209662986919284">
        <ele>4.94</ele>
        <time>2018-07-02T06:41:23Z</time>
      </trkpt>
      <trkpt lat="51.219380032271147" lon="3.209303990006447">
        <ele>6.39</ele>
        <time>2018-07-02T06:41:30Z</time>
      </trkpt>
      <trkpt lat="51.21958002448082" lon="3.209182033315301">
        <ele>5.91</ele>
        <time>2018-07-02T06:41:33Z</time>
      </trkpt>
      <trkpt lat="51.219726959243417" lon="3.209049012511969">
        <ele>5.42</ele>
        <time>2018-07-02T06:41:35Z</time>
      </trkpt>
      <trkpt lat="51.219807006418705" lon="3.208977011963725">
        <ele>4.94</ele>
        <time>2018-07-02T06:41:36Z</time>
      </trkpt>
      <trkpt lat="51.21988202445209" lon="3.208909034729004">
        <ele>4.46</ele>
        <time>2018-07-02T06:41:37Z</time>
      </trkpt>
      <trkpt lat="51.219955030828714" lon="3.208843991160393">
        <ele>3.98</ele>
        <time>2018-07-02T06:41:38Z</time>
      </trkpt>
      <trkpt lat="51.220024013891816" lon="3.208780959248543">
        <ele>3.5</ele>
        <time>2018-07-02T06:41:39Z</time>
      </trkpt>
      <trkpt lat="51.220085034146905" lon="3.208725973963738">
        <ele>3.02</ele>
        <time>2018-07-02T06:41:40Z</time>
      </trkpt>
      <trkpt lat="51.220141025260091" lon="3.208676017820835">
        <ele>3.02</ele>
        <time>2018-07-02T06:41:41Z</time>
      </trkpt>
      <trkpt lat="51.220196010544896" lon="3.208625977858901">
        <ele>2.54</ele>
        <time>2018-07-02T06:41:42Z</time>
      </trkpt>
      <trkpt lat="51.220245966687799" lon="3.208561018109322">
        <ele>2.54</ele>
        <time>2018-07-02T06:41:43Z</time>
      </trkpt>
      <trkpt lat="51.220293994992971" lon="3.208490023389459">
        <ele>2.06</ele>
        <time>2018-07-02T06:41:44Z</time>
      </trkpt>
      <trkpt lat="51.220346968621016" lon="3.208411987870932">
        <ele>2.06</ele>
        <time>2018-07-02T06:41:45Z</time>
      </trkpt>
      <trkpt lat="51.220396002754569" lon="3.208359014242888">
        <ele>1.58</ele>
        <time>2018-07-02T06:41:46Z</time>
      </trkpt>
      <trkpt lat="51.220491975545883" lon="3.208252983167768">
        <ele>0.14</ele>
        <time>2018-07-02T06:41:50Z</time>
      </trkpt>
      <trkpt lat="51.220509996637702" lon="3.2082340400666">
        <ele>0.14</ele>
        <time>2018-07-02T06:41:51Z</time>
      </trkpt>
      <trkpt lat="51.220525000244379" lon="3.208217024803162">
        <ele>-0.34</ele>
        <time>2018-07-02T06:41:52Z</time>
      </trkpt>
      <trkpt lat="51.220525000244379" lon="3.208217024803162">
        <ele>-1.3</ele>
        <time>2018-07-02T06:42:03Z</time>
      </trkpt>
    </trkseg>
  </trk>

  <trk>
    <name>Track vom: 2018-07-02 08:43</name>
    <extensions>
      <gpxx:TrackExtension>
        <gpxx:DisplayColor>DarkGray</gpxx:DisplayColor>
      </gpxx:TrackExtension>
    </extensions>
    <trkseg>
      <trkpt lat="51.220525000244379" lon="3.208217024803162">
        <ele>-1.3</ele>
        <time>2018-07-02T06:43:05Z</time>
      </trkpt>
      <trkpt lat="51.220525000244379" lon="3.208217024803162">
        <ele>-2.27</ele>
        <time>2018-07-02T06:43:59Z</time>
      </trkpt>
      <trkpt lat="51.220525000244379" lon="3.208217024803162">
        <ele>-1.79</ele>
        <time>2018-07-02T06:44:43Z</time>
      </trkpt>
      <trkpt lat="51.220525000244379" lon="3.208217024803162">
        <ele>-2.27</ele>
        <time>2018-07-02T06:45:25Z</time>
      </trkpt>
      <trkpt lat="51.220525000244379" lon="3.208217024803162">
        <ele>-2.27</ele>
        <time>2018-07-02T06:46:12Z</time>
      </trkpt>
      <trkpt lat="51.220525000244379" lon="3.208217024803162">
        <ele>-2.27</ele>
        <time>2018-07-02T06:47:00Z</time>
      </trkpt>
    </trkseg>
  </trk>

  <trk>
    <name>Track vom: 2018-07-02 08:47</name>
    <extensions>
      <gpxx:TrackExtension>
        <gpxx:DisplayColor>DarkGray</gpxx:DisplayColor>
      </gpxx:TrackExtension>
    </extensions>
    <trkseg>
      <trkpt lat="51.220525000244379" lon="3.208217024803162">
        <ele>-2.27</ele>
        <time>2018-07-02T06:47:44Z</time>
      </trkpt>
      <trkpt lat="51.220687022432685" lon="3.208115017041564">
        <ele>-2.75</ele>
        <time>2018-07-02T06:47:58Z</time>
      </trkpt>
      <trkpt lat="51.220687022432685" lon="3.208115017041564">
        <ele>-3.71</ele>
        <time>2018-07-02T06:48:06Z</time>
      </trkpt>
      <trkpt lat="51.220704959705472" lon="3.208008985966444">
        <ele>-3.71</ele>
        <time>2018-07-02T06:48:07Z</time>
      </trkpt>
      <trkpt lat="51.220707977190614" lon="3.207986019551754">
        <ele>-3.23</ele>
        <time>2018-07-02T06:48:08Z</time>
      </trkpt>
      <trkpt lat="51.220707977190614" lon="3.207986019551754">
        <ele>-3.23</ele>
        <time>2018-07-02T06:48:09Z</time>
      </trkpt>
      <trkpt lat="51.220687022432685" lon="3.207878982648253">
        <ele>-3.23</ele>
        <time>2018-07-02T06:48:10Z</time>
      </trkpt>
      <trkpt lat="51.220687022432685" lon="3.207878982648253">
        <ele>-3.23</ele>
        <time>2018-07-02T06:48:11Z</time>
      </trkpt>
      <trkpt lat="51.220601024106145" lon="3.207835983484983">
        <ele>-3.23</ele>
        <time>2018-07-02T06:48:17Z</time>
      </trkpt>
      <trkpt lat="51.220556013286114" lon="3.20787001401186">
        <ele>-3.23</ele>
        <time>2018-07-02T06:48:18Z</time>
      </trkpt>
      <trkpt lat="51.220515025779605" lon="3.207901027053595">
        <ele>-3.23</ele>
        <time>2018-07-02T06:48:19Z</time>
      </trkpt>
      <trkpt lat="51.220503961667418" lon="3.207970010116696">
        <ele>-3.23</ele>
        <time>2018-07-02T06:48:20Z</time>
      </trkpt>
      <trkpt lat="51.220493987202644" lon="3.208029018715024">
        <ele>-3.71</ele>
        <time>2018-07-02T06:48:21Z</time>
      </trkpt>
      <trkpt lat="51.220518965274096" lon="3.208066988736391">
        <ele>-3.71</ele>
        <time>2018-07-02T06:48:22Z</time>
      </trkpt>
      <trkpt lat="51.220579985529184" lon="3.208158016204834">
        <ele>-3.71</ele>
        <time>2018-07-02T06:48:23Z</time>
      </trkpt>
      <trkpt lat="51.220581997185946" lon="3.208157010376453">
        <ele>-4.19</ele>
        <time>2018-07-02T06:48:24Z</time>
      </trkpt>
      <trkpt lat="51.220629019662738" lon="3.208137983456254">
        <ele>-4.19</ele>
        <time>2018-07-02T06:48:25Z</time>
      </trkpt>
      <trkpt lat="51.220680987462401" lon="3.208118034526706">
        <ele>-3.71</ele>
        <time>2018-07-02T06:48:26Z</time>
      </trkpt>
      <trkpt lat="51.220687022432685" lon="3.208115017041564">
        <ele>-3.71</ele>
        <time>2018-07-02T06:48:27Z</time>
      </trkpt>
      <trkpt lat="51.220816019922495" lon="3.207986019551754">
        <ele>-3.71</ele>
        <time>2018-07-02T06:48:28Z</time>
      </trkpt>
      <trkpt lat="51.220860024914145" lon="3.207970010116696">
        <ele>-3.71</ele>
        <time>2018-07-02T06:48:29Z</time>
      </trkpt>
      <trkpt lat="51.221014000475407" lon="3.207914019003511">
        <ele>-4.19</ele>
        <time>2018-07-02T06:48:31Z</time>
      </trkpt>
      <trkpt lat="51.221931986510754" lon="3.207607995718718">
        <ele>-3.23</ele>
        <time>2018-07-02T06:48:41Z</time>
      </trkpt>
      <trkpt lat="51.223179968073964" lon="3.207168029621244">
        <ele>-1.79</ele>
        <time>2018-07-02T06:48:55Z</time>
      </trkpt>
      <trkpt lat="51.223810035735369" lon="3.206925960257649">
        <ele>0.14</ele>
        <time>2018-07-02T06:49:04Z</time>
      </trkpt>
      <trkpt lat="51.223853034898639" lon="3.206911040470004">
        <ele>0.62</ele>
        <time>2018-07-02T06:49:05Z</time>
      </trkpt>
      <trkpt lat="51.223889999091625" lon="3.206809032708406">
        <ele>0.62</ele>
        <time>2018-07-02T06:49:06Z</time>
      </trkpt>
      <trkpt lat="51.22387901879847" lon="3.206746000796557">
        <ele>0.62</ele>
        <time>2018-07-02T06:49:07Z</time>
      </trkpt>
      <trkpt lat="51.223865021020174" lon="3.206669976934791">
        <ele>1.1</ele>
        <time>2018-07-02T06:49:08Z</time>
      </trkpt>
      <trkpt lat="51.223850017413497" lon="3.206591019406915">
        <ele>1.1</ele>
        <time>2018-07-02T06:49:09Z</time>
      </trkpt>
      <trkpt lat="51.22383501380682" lon="3.206510972231627">
        <ele>1.58</ele>
        <time>2018-07-02T06:49:10Z</time>
      </trkpt>
      <trkpt lat="51.223820010200143" lon="3.206424973905087">
        <ele>1.58</ele>
        <time>2018-07-02T06:49:11Z</time>
      </trkpt>
      <trkpt lat="51.223734011873603" lon="3.205960029736161">
        <ele>3.02</ele>
        <time>2018-07-02T06:49:16Z</time>
      </trkpt>
      <trkpt lat="51.223648013547063" lon="3.205497013404965">
        <ele>3.02</ele>
        <time>2018-07-02T06:49:21Z</time>
      </trkpt>
      <trkpt lat="51.223490014672279" lon="3.204994015395641">
        <ele>3.5</ele>
        <time>2018-07-02T06:49:28Z</time>
      </trkpt>
      <trkpt lat="51.223223973065615" lon="3.204448018223047">
        <ele>3.5</ele>
        <time>2018-07-02T06:49:35Z</time>
      </trkpt>
      <trkpt lat="51.223167981952429" lon="3.204386997967959">
        <ele>3.5</ele>
        <time>2018-07-02T06:49:36Z</time>
      </trkpt>
      <trkpt lat="51.223114002496004" lon="3.204327989369631">
        <ele>3.5</ele>
        <time>2018-07-02T06:49:37Z</time>
      </trkpt>
      <trkpt lat="51.223062034696341" lon="3.204273004084826">
        <ele>3.5</ele>
        <time>2018-07-02T06:49:38Z</time>
      </trkpt>
      <trkpt lat="51.223017023876309" lon="3.204223969951272">
        <ele>3.5</ele>
        <time>2018-07-02T06:49:39Z</time>
      </trkpt>
      <trkpt lat="51.222976036369801" lon="3.204178959131241">
        <ele>3.5</ele>
        <time>2018-07-02T06:49:40Z</time>
      </trkpt>
      <trkpt lat="51.222935970872641" lon="3.204135959967971">
        <ele>3.5</ele>
        <time>2018-07-02T06:49:41Z</time>
      </trkpt>
      <trkpt lat="51.222790963947773" lon="3.203977961093187">
        <ele>2.54</ele>
        <time>2018-07-02T06:49:50Z</time>
      </trkpt>
      <trkpt lat="51.222769003361464" lon="3.203954994678497">
        <ele>2.54</ele>
        <time>2018-07-02T06:50:02Z</time>
      </trkpt>
      <trkpt lat="51.222703959792852" lon="3.204017020761967">
        <ele>2.54</ele>
        <time>2018-07-02T06:50:03Z</time>
      </trkpt>
      <trkpt lat="51.222670013085008" lon="3.20411098189652">
        <ele>2.54</ele>
        <time>2018-07-02T06:50:04Z</time>
      </trkpt>
      <trkpt lat="51.222631959244609" lon="3.204215001314879">
        <ele>2.54</ele>
        <time>2018-07-02T06:50:05Z</time>
      </trkpt>
      <trkpt lat="51.222588960081339" lon="3.204322960227728">
        <ele>2.54</ele>
        <time>2018-07-02T06:50:06Z</time>
      </trkpt>
      <trkpt lat="51.222072970122099" lon="3.205551998689771">
        <ele>2.06</ele>
        <time>2018-07-02T06:50:17Z</time>
      </trkpt>
      <trkpt lat="51.221834002062678" lon="3.206002023071051">
        <ele>3.02</ele>
        <time>2018-07-02T06:50:21Z</time>
      </trkpt>
      <trkpt lat="51.220902018249035" lon="3.207207005470991">
        <ele>3.98</ele>
        <time>2018-07-02T06:50:33Z</time>
      </trkpt>
      <trkpt lat="51.220724992454052" lon="3.207472963258624">
        <ele>4.94</ele>
        <time>2018-07-02T06:50:36Z</time>
      </trkpt>
      <trkpt lat="51.220690961927176" lon="3.207566002383828">
        <ele>4.94</ele>
        <time>2018-07-02T06:50:37Z</time>
      </trkpt>
      <trkpt lat="51.220661038532853" lon="3.207656024023891">
        <ele>4.94</ele>
        <time>2018-07-02T06:50:38Z</time>
      </trkpt>
      <trkpt lat="51.220609992742538" lon="3.207811005413532">
        <ele>5.42</ele>
        <time>2018-07-02T06:50:40Z</time>
      </trkpt>
      <trkpt lat="51.220541009679437" lon="3.207880994305015">
        <ele>4.94</ele>
        <time>2018-07-02T06:50:41Z</time>
      </trkpt>
      <trkpt lat="51.220515025779605" lon="3.207901027053595">
        <ele>4.94</ele>
        <time>2018-07-02T06:50:42Z</time>
      </trkpt>
      <trkpt lat="51.22050303965807" lon="3.207973027601838">
        <ele>5.42</ele>
        <time>2018-07-02T06:50:43Z</time>
      </trkpt>
      <trkpt lat="51.220493987202644" lon="3.208029018715024">
        <ele>4.94</ele>
        <time>2018-07-02T06:50:44Z</time>
      </trkpt>
      <trkpt lat="51.220508990809321" lon="3.208051985129714">
        <ele>4.94</ele>
        <time>2018-07-02T06:50:45Z</time>
      </trkpt>
      <trkpt lat="51.220541009679437" lon="3.208099007606506">
        <ele>4.94</ele>
        <time>2018-07-02T06:50:46Z</time>
      </trkpt>
      <trkpt lat="51.220579985529184" lon="3.208158016204834">
        <ele>4.46</ele>
        <time>2018-07-02T06:50:47Z</time>
      </trkpt>
      <trkpt lat="51.220617033541203" lon="3.208143012598157">
        <ele>4.46</ele>
        <time>2018-07-02T06:50:48Z</time>
      </trkpt>
      <trkpt lat="51.220679981634021" lon="3.208118034526706">
        <ele>4.46</ele>
        <time>2018-07-02T06:50:49Z</time>
      </trkpt>
      <trkpt lat="51.220687022432685" lon="3.208115017041564">
        <ele>4.46</ele>
        <time>2018-07-02T06:50:50Z</time>
      </trkpt>
      <trkpt lat="51.220816019922495" lon="3.207986019551754">
        <ele>3.98</ele>
        <time>2018-07-02T06:50:51Z</time>
      </trkpt>
      <trkpt lat="51.221731994301081" lon="3.2076779846102">
        <ele>0.14</ele>
        <time>2018-07-02T06:51:01Z</time>
      </trkpt>
      <trkpt lat="51.222958015277982" lon="3.207252016291022">
        <ele>0.62</ele>
        <time>2018-07-02T06:51:14Z</time>
      </trkpt>
      <trkpt lat="51.223404016345739" lon="3.207073984667659">
        <ele>-0.34</ele>
        <time>2018-07-02T06:51:22Z</time>
      </trkpt>
      <trkpt lat="51.22409300878644" lon="3.206824036315084">
        <ele>0.14</ele>
        <time>2018-07-02T06:51:31Z</time>
      </trkpt>
      <trkpt lat="51.225289022549987" lon="3.206460010260344">
        <ele>0.62</ele>
        <time>2018-07-02T06:51:43Z</time>
      </trkpt>
      <trkpt lat="51.226331982761621" lon="3.20630201138556">
        <ele>-0.34</ele>
        <time>2018-07-02T06:51:54Z</time>
      </trkpt>
      <trkpt lat="51.227044025436044" lon="3.206326989457011">
        <ele>0.62</ele>
        <time>2018-07-02T06:52:03Z</time>
      </trkpt>
      <trkpt lat="51.227329010143876" lon="3.206291031092405">
        <ele>0.62</ele>
        <time>2018-07-02T06:52:09Z</time>
      </trkpt>
      <trkpt lat="51.227323981001973" lon="3.206291031092405">
        <ele>0.62</ele>
        <time>2018-07-02T06:52:12Z</time>
      </trkpt>
      <trkpt lat="51.227297997102141" lon="3.206291031092405">
        <ele>0.62</ele>
        <time>2018-07-02T06:52:13Z</time>
      </trkpt>
      <trkpt lat="51.227258015424013" lon="3.206287007778883">
        <ele>0.62</ele>
        <time>2018-07-02T06:52:14Z</time>
      </trkpt>
      <trkpt lat="51.227227002382278" lon="3.206278961151838">
        <ele>0.14</ele>
        <time>2018-07-02T06:52:15Z</time>
      </trkpt>
      <trkpt lat="51.227201018482447" lon="3.206273010000587">
        <ele>0.14</ele>
        <time>2018-07-02T06:52:16Z</time>
      </trkpt>
      <trkpt lat="51.227178974077106" lon="3.206267980858684">
        <ele>0.14</ele>
        <time>2018-07-02T06:52:17Z</time>
      </trkpt>
      <trkpt lat="51.226989962160587" lon="3.206248031929135">
        <ele>0.62</ele>
        <time>2018-07-02T06:52:26Z</time>
      </trkpt>
      <trkpt lat="51.226730039343238" lon="3.206278039142489">
        <ele>0.62</ele>
        <time>2018-07-02T06:52:31Z</time>
      </trkpt>
      <trkpt lat="51.226687962189317" lon="3.206284996122122">
        <ele>0.14</ele>
        <time>2018-07-02T06:52:32Z</time>
      </trkpt>
      <trkpt lat="51.226658960804343" lon="3.206290025264025">
        <ele>0.14</ele>
        <time>2018-07-02T06:52:33Z</time>
      </trkpt>
      <trkpt lat="51.226652003824711" lon="3.206291031092405">
        <ele>0.14</ele>
        <time>2018-07-02T06:52:34Z</time>
      </trkpt>
      <trkpt lat="51.226652003824711" lon="3.206291031092405">
        <ele>0.14</ele>
        <time>2018-07-02T06:52:35Z</time>
      </trkpt>
      <trkpt lat="51.226621996611357" lon="3.206393038854003">
        <ele>0.14</ele>
        <time>2018-07-02T06:52:36Z</time>
      </trkpt>
      <trkpt lat="51.226621996611357" lon="3.206460010260344">
        <ele>0.62</ele>
        <time>2018-07-02T06:52:38Z</time>
      </trkpt>
      <trkpt lat="51.226658960804343" lon="3.206292036920786">
        <ele>1.1</ele>
        <time>2018-07-02T06:52:40Z</time>
      </trkpt>
      <trkpt lat="51.226696008816361" lon="3.206298993900418">
        <ele>1.58</ele>
        <time>2018-07-02T06:52:42Z</time>
      </trkpt>
      <trkpt lat="51.22671402990818" lon="3.20630201138556">
        <ele>1.58</ele>
        <time>2018-07-02T06:52:43Z</time>
      </trkpt>
      <trkpt lat="51.226738002151251" lon="3.206307040527463">
        <ele>2.06</ele>
        <time>2018-07-02T06:52:44Z</time>
      </trkpt>
      <trkpt lat="51.226888038218021" lon="3.206334030255675">
        <ele>3.02</ele>
        <time>2018-07-02T06:52:50Z</time>
      </trkpt>
      <trkpt lat="51.226888038218021" lon="3.206334030255675">
        <ele>3.02</ele>
        <time>2018-07-02T06:52:51Z</time>
      </trkpt>
      <trkpt lat="51.226888038218021" lon="3.206334030255675">
        <ele>3.5</ele>
        <time>2018-07-02T06:53:05Z</time>
      </trkpt>
      <trkpt lat="51.226877979934216" lon="3.206511978060007">
        <ele>4.94</ele>
        <time>2018-07-02T07:10:59Z</time>
      </trkpt>
      <trkpt lat="51.226872028782964" lon="3.206522036343813">
        <ele>4.94</ele>
        <time>2018-07-02T07:11:32Z</time>
      </trkpt>
      <trkpt lat="51.227204035967588" lon="3.20630201138556">
        <ele>1.58</ele>
        <time>2018-07-02T07:11:43Z</time>
      </trkpt>
      <trkpt lat="51.227352982386947" lon="3.206291031092405">
        <ele>1.1</ele>
        <time>2018-07-02T07:11:50Z</time>
      </trkpt>
      <trkpt lat="51.227378966286778" lon="3.206291031092405">
        <ele>1.1</ele>
        <time>2018-07-02T07:11:53Z</time>
      </trkpt>
      <trkpt lat="51.22740101069212" lon="3.206291031092405">
        <ele>1.58</ele>
        <time>2018-07-02T07:11:54Z</time>
      </trkpt>
      <trkpt lat="51.227436969056726" lon="3.206291031092405">
        <ele>1.58</ele>
        <time>2018-07-02T07:11:55Z</time>
      </trkpt>
      <trkpt lat="51.22748801484704" lon="3.206291031092405">
        <ele>1.58</ele>
        <time>2018-07-02T07:11:56Z</time>
      </trkpt>
      <trkpt lat="51.227548029273748" lon="3.206291031092405">
        <ele>1.58</ele>
        <time>2018-07-02T07:11:57Z</time>
      </trkpt>
      <trkpt lat="51.228016996756196" lon="3.206278039142489">
        <ele>3.5</ele>
        <time>2018-07-02T07:12:03Z</time>
      </trkpt>
      <trkpt lat="51.228666007518768" lon="3.206165973097086">
        <ele>5.42</ele>
        <time>2018-07-02T07:12:13Z</time>
      </trkpt>
      <trkpt lat="51.228902963921428" lon="3.206117022782564">
        <ele>7.35</ele>
        <time>2018-07-02T07:12:21Z</time>
      </trkpt>
      <trkpt lat="51.229071021080017" lon="3.206081986427307">
        <ele>6.87</ele>
        <time>2018-07-02T07:12:45Z</time>
      </trkpt>
      <trkpt lat="51.229825979098678" lon="3.205792978405953">
        <ele>5.91</ele>
        <time>2018-07-02T07:12:55Z</time>
      </trkpt>
      <trkpt lat="51.230767015367746" lon="3.205236000940204">
        <ele>4.94</ele>
        <time>2018-07-02T07:13:06Z</time>
      </trkpt>
      <trkpt lat="51.23167896643281" lon="3.20471003651619">
        <ele>2.54</ele>
        <time>2018-07-02T07:13:17Z</time>
      </trkpt>
      <trkpt lat="51.231909971684217" lon="3.204576009884477">
        <ele>-1.3</ele>
        <time>2018-07-02T07:13:20Z</time>
      </trkpt>
      <trkpt lat="51.23197803273797" lon="3.204537034034729">
        <ele>-2.27</ele>
        <time>2018-07-02T07:13:21Z</time>
      </trkpt>
      <trkpt lat="51.232037041336298" lon="3.204503003507853">
        <ele>-3.23</ele>
        <time>2018-07-02T07:13:22Z</time>
      </trkpt>
      <trkpt lat="51.232100995257497" lon="3.204466039314866">
        <ele>-4.19</ele>
        <time>2018-07-02T07:13:23Z</time>
      </trkpt>
      <trkpt lat="51.232176013290882" lon="3.204422034323216">
        <ele>-4.67</ele>
        <time>2018-07-02T07:13:24Z</time>
      </trkpt>
      <trkpt lat="51.23316197656095" lon="3.203828008845449">
        <ele>-4.19</ele>
        <time>2018-07-02T07:13:34Z</time>
      </trkpt>
      <trkpt lat="51.23429998755455" lon="3.203157959505916">
        <ele>-3.71</ele>
        <time>2018-07-02T07:13:44Z</time>
      </trkpt>
      <trkpt lat="51.235932027921081" lon="3.2021330203861">
        <ele>-1.79</ele>
        <time>2018-07-02T07:13:57Z</time>
      </trkpt>
      <trkpt lat="51.237102979794145" lon="3.201390970498323">
        <ele>-1.3</ele>
        <time>2018-07-02T07:14:07Z</time>
      </trkpt>
      <trkpt lat="51.238313997164369" lon="3.200610028579831">
        <ele>1.1</ele>
        <time>2018-07-02T07:14:17Z</time>
      </trkpt>
      <trkpt lat="51.239674966782331" lon="3.199735041707754">
        <ele>0.14</ele>
        <time>2018-07-02T07:14:27Z</time>
      </trkpt>
      <trkpt lat="51.241105003282428" lon="3.198838010430336">
        <ele>0.14</ele>
        <time>2018-07-02T07:14:37Z</time>
      </trkpt>
      <trkpt lat="51.241482021287084" lon="3.19858998991549">
        <ele>0.62</ele>
        <time>2018-07-02T07:14:43Z</time>
      </trkpt>
      <trkpt lat="51.241520997136831" lon="3.198565011844039">
        <ele>0.62</ele>
        <time>2018-07-02T07:14:45Z</time>
      </trkpt>
      <trkpt lat="51.241536000743508" lon="3.198555959388614">
        <ele>1.1</ele>
        <time>2018-07-02T07:14:46Z</time>
      </trkpt>
      <trkpt lat="51.241557039320469" lon="3.198541961610317">
        <ele>1.1</ele>
        <time>2018-07-02T07:14:47Z</time>
      </trkpt>
      <trkpt lat="51.241589980199933" lon="3.198520001024008">
        <ele>1.1</ele>
        <time>2018-07-02T07:14:48Z</time>
      </trkpt>
      <trkpt lat="51.241632979363203" lon="3.198492005467415">
        <ele>1.1</ele>
        <time>2018-07-02T07:14:49Z</time>
      </trkpt>
      <trkpt lat="51.242218958213925" lon="3.198138037696481">
        <ele>0.62</ele>
        <time>2018-07-02T07:14:57Z</time>
      </trkpt>
      <trkpt lat="51.243257978931069" lon="3.197482991963625">
        <ele>0.14</ele>
        <time>2018-07-02T07:15:06Z</time>
      </trkpt>
      <trkpt lat="51.244818018749356" lon="3.196501974016428">
        <ele>-0.34</ele>
        <time>2018-07-02T07:15:17Z</time>
      </trkpt>
      <trkpt lat="51.246791034936905" lon="3.195297997444868">
        <ele>0.14</ele>
        <time>2018-07-02T07:15:31Z</time>
      </trkpt>
      <trkpt lat="51.24764003790915" lon="3.194813020527363">
        <ele>1.58</ele>
        <time>2018-07-02T07:15:38Z</time>
      </trkpt>
      <trkpt lat="51.248818030580878" lon="3.194059990346432">
        <ele>0.62</ele>
        <time>2018-07-02T07:15:48Z</time>
      </trkpt>
      <trkpt lat="51.249668961390853" lon="3.193591022863984">
        <ele>0.62</ele>
        <time>2018-07-02T07:15:55Z</time>
      </trkpt>
      <trkpt lat="51.24976996332407" lon="3.193565038964152">
        <ele>0.62</ele>
        <time>2018-07-02T07:15:56Z</time>
      </trkpt>
      <trkpt lat="51.249863002449274" lon="3.193560009822249">
        <ele>0.62</ele>
        <time>2018-07-02T07:15:57Z</time>
      </trkpt>
      <trkpt lat="51.249937014654279" lon="3.193554980680347">
        <ele>0.62</ele>
        <time>2018-07-02T07:15:58Z</time>
      </trkpt>
      <trkpt lat="51.250000968575478" lon="3.193551963195205">
        <ele>0.62</ele>
        <time>2018-07-02T07:15:59Z</time>
      </trkpt>
      <trkpt lat="51.250062994658947" lon="3.193548023700714">
        <ele>0.62</ele>
        <time>2018-07-02T07:16:00Z</time>
      </trkpt>
      <trkpt lat="51.250141030177474" lon="3.193588005378842">
        <ele>0.62</ele>
        <time>2018-07-02T07:16:01Z</time>
      </trkpt>
      <trkpt lat="51.250213030725718" lon="3.193674003705382">
        <ele>0.62</ele>
        <time>2018-07-02T07:16:02Z</time>
      </trkpt>
      <trkpt lat="51.250249994918704" lon="3.193660005927086">
        <ele>0.62</ele>
        <time>2018-07-02T07:16:03Z</time>
      </trkpt>
      <trkpt lat="51.250328030437231" lon="3.1936040148139">
        <ele>1.1</ele>
        <time>2018-07-02T07:16:04Z</time>
      </trkpt>
      <trkpt lat="51.250355020165443" lon="3.193507958203554">
        <ele>1.1</ele>
        <time>2018-07-02T07:16:05Z</time>
      </trkpt>
      <trkpt lat="51.250362982973456" lon="3.193480968475342">
        <ele>1.1</ele>
        <time>2018-07-02T07:16:06Z</time>
      </trkpt>
      <trkpt lat="51.250415034592152" lon="3.193302014842629">
        <ele>0.62</ele>
        <time>2018-07-02T07:16:07Z</time>
      </trkpt>
      <trkpt lat="51.250474965199828" lon="3.193219034001231">
        <ele>0.62</ele>
        <time>2018-07-02T07:16:08Z</time>
      </trkpt>
      <trkpt lat="51.250540008768439" lon="3.193128006532788">
        <ele>1.1</ele>
        <time>2018-07-02T07:16:09Z</time>
      </trkpt>
      <trkpt lat="51.250608991831541" lon="3.193033039569855">
        <ele>1.1</ele>
        <time>2018-07-02T07:16:10Z</time>
      </trkpt>
      <trkpt lat="51.2506939843297" lon="3.19295902736485">
        <ele>1.1</ele>
        <time>2018-07-02T07:16:11Z</time>
      </trkpt>
      <trkpt lat="51.250786017626524" lon="3.192906975746155">
        <ele>1.1</ele>
        <time>2018-07-02T07:16:12Z</time>
      </trkpt>
      <trkpt lat="51.250882996246219" lon="3.192857019603252">
        <ele>1.1</ele>
        <time>2018-07-02T07:16:13Z</time>
      </trkpt>
      <trkpt lat="51.251390017569065" lon="3.192592989653349">
        <ele>0.62</ele>
        <time>2018-07-02T07:16:20Z</time>
      </trkpt>
      <trkpt lat="51.251625968143344" lon="3.192481007426977">
        <ele>0.14</ele>
        <time>2018-07-02T07:16:29Z</time>
      </trkpt>
      <trkpt lat="51.251918999478221" lon="3.192283026874065">
        <ele>-0.34</ele>
        <time>2018-07-02T07:16:37Z</time>
      </trkpt>
      <trkpt lat="51.251955963671207" lon="3.192248996347189">
        <ele>-0.34</ele>
        <time>2018-07-02T07:16:38Z</time>
      </trkpt>
      <trkpt lat="51.251988988369703" lon="3.19218697026372">
        <ele>-0.34</ele>
        <time>2018-07-02T07:16:39Z</time>
      </trkpt>
      <trkpt lat="51.252020001411438" lon="3.192129973322153">
        <ele>0.14</ele>
        <time>2018-07-02T07:16:40Z</time>
      </trkpt>
      <trkpt lat="51.252229968085885" lon="3.192085968330503">
        <ele>0.14</ele>
        <time>2018-07-02T07:16:41Z</time>
      </trkpt>
      <trkpt lat="51.252229968085885" lon="3.192085968330503">
        <ele>0.14</ele>
        <time>2018-07-02T07:16:42Z</time>
      </trkpt>
      <trkpt lat="51.252229968085885" lon="3.192085968330503">
        <ele>0.14</ele>
        <time>2018-07-02T07:16:43Z</time>
      </trkpt>
      <trkpt lat="51.252289982512593" lon="3.19207901135087">
        <ele>0.14</ele>
        <time>2018-07-02T07:16:44Z</time>
      </trkpt>
      <trkpt lat="51.252354020252824" lon="3.192070964723826">
        <ele>0.14</ele>
        <time>2018-07-02T07:16:45Z</time>
      </trkpt>
      <trkpt lat="51.252400958910584" lon="3.192065013572574">
        <ele>-0.34</ele>
        <time>2018-07-02T07:16:46Z</time>
      </trkpt>
      <trkpt lat="51.252434989437461" lon="3.191997958347201">
        <ele>0.14</ele>
        <time>2018-07-02T07:16:47Z</time>
      </trkpt>
      <trkpt lat="51.252470025792718" lon="3.191926963627338">
        <ele>-0.34</ele>
        <time>2018-07-02T07:16:48Z</time>
      </trkpt>
      <trkpt lat="51.252502966672182" lon="3.19186300970614">
        <ele>-0.34</ele>
        <time>2018-07-02T07:16:49Z</time>
      </trkpt>
      <trkpt lat="51.252509001642466" lon="3.191850017756224">
        <ele>-0.34</ele>
        <time>2018-07-02T07:16:50Z</time>
      </trkpt>
      <trkpt lat="51.252509001642466" lon="3.191850017756224">
        <ele>-0.34</ele>
        <time>2018-07-02T07:16:51Z</time>
      </trkpt>
      <trkpt lat="51.252663983032107" lon="3.191667040809989">
        <ele>-0.82</ele>
        <time>2018-07-02T07:16:52Z</time>
      </trkpt>
      <trkpt lat="51.252737995237112" lon="3.191672991961241">
        <ele>-0.82</ele>
        <time>2018-07-02T07:16:53Z</time>
      </trkpt>
      <trkpt lat="51.25281997025013" lon="3.191679026931524">
        <ele>-0.82</ele>
        <time>2018-07-02T07:16:54Z</time>
      </trkpt>
      <trkpt lat="51.252910997718573" lon="3.191679026931524">
        <ele>-0.82</ele>
        <time>2018-07-02T07:16:55Z</time>
      </trkpt>
      <trkpt lat="51.25421597622335" lon="3.191638961434364">
        <ele>3.02</ele>
        <time>2018-07-02T07:17:07Z</time>
      </trkpt>
      <trkpt lat="51.255349963903427" lon="3.191235959529877">
        <ele>7.35</ele>
        <time>2018-07-02T07:17:17Z</time>
      </trkpt>
      <trkpt lat="51.255702003836632" lon="3.190989028662443">
        <ele>8.789999999999999</ele>
        <time>2018-07-02T07:17:23Z</time>
      </trkpt>
      <trkpt lat="51.255812980234623" lon="3.190905964002013">
        <ele>9.27</ele>
        <time>2018-07-02T07:17:28Z</time>
      </trkpt>
      <trkpt lat="51.255806023254991" lon="3.190911998972297">
        <ele>9.27</ele>
        <time>2018-07-02T07:17:35Z</time>
      </trkpt>
      <trkpt lat="51.255961004644632" lon="3.190807979553938">
        <ele>9.75</ele>
        <time>2018-07-02T07:17:39Z</time>
      </trkpt>
      <trkpt lat="51.256010960787535" lon="3.190774032846093">
        <ele>9.75</ele>
        <time>2018-07-02T07:17:40Z</time>
      </trkpt>
      <trkpt lat="51.256052032113075" lon="3.1907460372895">
        <ele>9.75</ele>
        <time>2018-07-02T07:17:41Z</time>
      </trkpt>
      <trkpt lat="51.256081033498049" lon="3.190420987084508">
        <ele>9.75</ele>
        <time>2018-07-02T07:17:42Z</time>
      </trkpt>
      <trkpt lat="51.256070975214243" lon="3.190413024276495">
        <ele>9.75</ele>
        <time>2018-07-02T07:17:43Z</time>
      </trkpt>
      <trkpt lat="51.255978019908071" lon="3.190374970436096">
        <ele>9.75</ele>
        <time>2018-07-02T07:17:44Z</time>
      </trkpt>
      <trkpt lat="51.255898978561163" lon="3.190342029556632">
        <ele>9.75</ele>
        <time>2018-07-02T07:17:45Z</time>
      </trkpt>
      <trkpt lat="51.255792025476694" lon="3.190298024564982">
        <ele>9.27</ele>
        <time>2018-07-02T07:17:46Z</time>
      </trkpt>
      <trkpt lat="51.255668979138136" lon="3.190247984603047">
        <ele>8.789999999999999</ele>
        <time>2018-07-02T07:17:47Z</time>
      </trkpt>
      <trkpt lat="51.254490986466408" lon="3.189597968012095">
        <ele>3.02</ele>
        <time>2018-07-02T07:17:55Z</time>
      </trkpt>
      <trkpt lat="51.252766996622086" lon="3.188676964491606">
        <ele>3.02</ele>
        <time>2018-07-02T07:18:04Z</time>
      </trkpt>
      <trkpt lat="51.250544032081962" lon="3.187084989622235">
        <ele>4.94</ele>
        <time>2018-07-02T07:18:15Z</time>
      </trkpt>
      <trkpt lat="51.248877961188555" lon="3.185974974185228">
        <ele>4.46</ele>
        <time>2018-07-02T07:18:23Z</time>
      </trkpt>
      <trkpt lat="51.246775025501847" lon="3.185193026438355">
        <ele>3.02</ele>
        <time>2018-07-02T07:18:31Z</time>
      </trkpt>
      <trkpt lat="51.245094034820795" lon="3.18505103699863">
        <ele>2.54</ele>
        <time>2018-07-02T07:18:38Z</time>
      </trkpt>
      <trkpt lat="51.242741988971829" lon="3.185550011694431">
        <ele>2.54</ele>
        <time>2018-07-02T07:18:48Z</time>
      </trkpt>
      <trkpt lat="51.240814989432693" lon="3.186477972194552">
        <ele>3.5</ele>
        <time>2018-07-02T07:18:57Z</time>
      </trkpt>
      <trkpt lat="51.237697005271912" lon="3.187816981226206">
        <ele>3.5</ele>
        <time>2018-07-02T07:19:12Z</time>
      </trkpt>
      <trkpt lat="51.234582960605621" lon="3.188548972830176">
        <ele>4.46</ele>
        <time>2018-07-02T07:19:27Z</time>
      </trkpt>
      <trkpt lat="51.232055984437466" lon="3.188537992537022">
        <ele>7.83</ele>
        <time>2018-07-02T07:19:39Z</time>
      </trkpt>
      <trkpt lat="51.230976982042193" lon="3.188312016427517">
        <ele>7.83</ele>
        <time>2018-07-02T07:19:46Z</time>
      </trkpt>
      <trkpt lat="51.230526035651565" lon="3.188224006444216">
        <ele>5.91</ele>
        <time>2018-07-02T07:19:52Z</time>
      </trkpt>
      <trkpt lat="51.230336017906666" lon="3.188224006444216">
        <ele>4.94</ele>
        <time>2018-07-02T07:19:56Z</time>
      </trkpt>
      <trkpt lat="51.230293018743396" lon="3.188224006444216">
        <ele>4.94</ele>
        <time>2018-07-02T07:19:57Z</time>
      </trkpt>
      <trkpt lat="51.230213977396488" lon="3.188224006444216">
        <ele>4.94</ele>
        <time>2018-07-02T07:19:59Z</time>
      </trkpt>
      <trkpt lat="51.230165027081966" lon="3.188199028372765">
        <ele>4.94</ele>
        <time>2018-07-02T07:20:00Z</time>
      </trkpt>
      <trkpt lat="51.230124961584806" lon="3.188178995624185">
        <ele>4.94</ele>
        <time>2018-07-02T07:20:01Z</time>
      </trkpt>
      <trkpt lat="51.230077017098665" lon="3.188131973147392">
        <ele>4.94</ele>
        <time>2018-07-02T07:20:02Z</time>
      </trkpt>
      <trkpt lat="51.230052039027214" lon="3.188048992305994">
        <ele>4.94</ele>
        <time>2018-07-02T07:20:03Z</time>
      </trkpt>
      <trkpt lat="51.230037035420537" lon="3.187904991209507">
        <ele>4.94</ele>
        <time>2018-07-02T07:20:04Z</time>
      </trkpt>
      <trkpt lat="51.230073999613523" lon="3.187809018418193">
        <ele>4.46</ele>
        <time>2018-07-02T07:20:05Z</time>
      </trkpt>
      <trkpt lat="51.230116998776793" lon="3.18769795820117">
        <ele>4.94</ele>
        <time>2018-07-02T07:20:06Z</time>
      </trkpt>
      <trkpt lat="51.230162009596825" lon="3.187583964318037">
        <ele>4.46</ele>
        <time>2018-07-02T07:20:07Z</time>
      </trkpt>
      <trkpt lat="51.230758968740702" lon="3.185956031084061">
        <ele>3.98</ele>
        <time>2018-07-02T07:20:18Z</time>
      </trkpt>
      <trkpt lat="51.231099022552371" lon="3.185281958431006">
        <ele>3.5</ele>
        <time>2018-07-02T07:20:23Z</time>
      </trkpt>
      <trkpt lat="51.231196001172066" lon="3.185158995911479">
        <ele>3.5</ele>
        <time>2018-07-02T07:20:24Z</time>
      </trkpt>
      <trkpt lat="51.231297003105283" lon="3.18503100425005">
        <ele>3.98</ele>
        <time>2018-07-02T07:20:25Z</time>
      </trkpt>
      <trkpt lat="51.232484970241785" lon="3.184245033189654">
        <ele>3.02</ele>
        <time>2018-07-02T07:20:34Z</time>
      </trkpt>
      <trkpt lat="51.23372096568346" lon="3.183447998017073">
        <ele>2.06</ele>
        <time>2018-07-02T07:20:44Z</time>
      </trkpt>
      <trkpt lat="51.234598970040679" lon="3.182244021445513">
        <ele>2.06</ele>
        <time>2018-07-02T07:20:52Z</time>
      </trkpt>
      <trkpt lat="51.235131975263357" lon="3.180815996602178">
        <ele>1.58</ele>
        <time>2018-07-02T07:21:00Z</time>
      </trkpt>
      <trkpt lat="51.235560039058328" lon="3.1785439979285">
        <ele>1.1</ele>
        <time>2018-07-02T07:21:12Z</time>
      </trkpt>
      <trkpt lat="51.235965974628925" lon="3.176357997581363">
        <ele>0.62</ele>
        <time>2018-07-02T07:21:25Z</time>
      </trkpt>
      <trkpt lat="51.236305022612214" lon="3.174531999975443">
        <ele>0.14</ele>
        <time>2018-07-02T07:21:35Z</time>
      </trkpt>
      <trkpt lat="51.236450029537082" lon="3.17375298589468">
        <ele>0.62</ele>
        <time>2018-07-02T07:21:41Z</time>
      </trkpt>
      <trkpt lat="51.236460004001856" lon="3.173694983124733">
        <ele>0.62</ele>
        <time>2018-07-02T07:21:42Z</time>
      </trkpt>
      <trkpt lat="51.236466038972139" lon="3.173661958426237">
        <ele>0.62</ele>
        <time>2018-07-02T07:21:43Z</time>
      </trkpt>
      <trkpt lat="51.236453969031572" lon="3.173570008948445">
        <ele>1.1</ele>
        <time>2018-07-02T07:21:47Z</time>
      </trkpt>
      <trkpt lat="51.236423039808869" lon="3.173546958714724">
        <ele>1.1</ele>
        <time>2018-07-02T07:21:48Z</time>
      </trkpt>
      <trkpt lat="51.236374005675316" lon="3.173508988693357">
        <ele>1.1</ele>
        <time>2018-07-02T07:21:49Z</time>
      </trkpt>
      <trkpt lat="51.236308962106705" lon="3.173460038378835">
        <ele>1.1</ele>
        <time>2018-07-02T07:21:50Z</time>
      </trkpt>
      <trkpt lat="51.236236961558461" lon="3.173404969274998">
        <ele>1.58</ele>
        <time>2018-07-02T07:21:51Z</time>
      </trkpt>
      <trkpt lat="51.235441016033292" lon="3.172799041494727">
        <ele>1.1</ele>
        <time>2018-07-02T07:21:58Z</time>
      </trkpt>
      <trkpt lat="51.23509400524199" lon="3.172535011544824">
        <ele>0.62</ele>
        <time>2018-07-02T07:22:01Z</time>
      </trkpt>
      <trkpt lat="51.234995014965534" lon="3.17239897325635">
        <ele>0.62</ele>
        <time>2018-07-02T07:22:02Z</time>
      </trkpt>
      <trkpt lat="51.234831986948848" lon="3.172067971900106">
        <ele>0.62</ele>
        <time>2018-07-02T07:22:04Z</time>
      </trkpt>
      <trkpt lat="51.234570974484086" lon="3.171535972505808">
        <ele>0.14</ele>
        <time>2018-07-02T07:22:07Z</time>
      </trkpt>
      <trkpt lat="51.234463015571237" lon="3.171315025538206">
        <ele>-0.34</ele>
        <time>2018-07-02T07:22:08Z</time>
      </trkpt>
      <trkpt lat="51.234353967010975" lon="3.171204971149564">
        <ele>-0.34</ele>
        <time>2018-07-02T07:22:09Z</time>
      </trkpt>
      <trkpt lat="51.234219018369913" lon="3.17106700502336">
        <ele>-0.34</ele>
        <time>2018-07-02T07:22:10Z</time>
      </trkpt>
      <trkpt lat="51.234079962596297" lon="3.170926021412015">
        <ele>-0.34</ele>
        <time>2018-07-02T07:22:11Z</time>
      </trkpt>
      <trkpt lat="51.232899036258459" lon="3.169838972389698">
        <ele>-0.34</ele>
        <time>2018-07-02T07:22:19Z</time>
      </trkpt>
      <trkpt lat="51.232661996036768" lon="3.169576032087207">
        <ele>-0.34</ele>
        <time>2018-07-02T07:22:21Z</time>
      </trkpt>
      <trkpt lat="51.232557976618409" lon="3.169445022940636">
        <ele>-0.82</ele>
        <time>2018-07-02T07:22:22Z</time>
      </trkpt>
      <trkpt lat="51.232477007433772" lon="3.169331029057503">
        <ele>-0.82</ele>
        <time>2018-07-02T07:22:23Z</time>
      </trkpt>
      <trkpt lat="51.232402995228767" lon="3.169212006032467">
        <ele>-0.82</ele>
        <time>2018-07-02T07:22:24Z</time>
      </trkpt>
      <trkpt lat="51.232412969693542" lon="3.16908803768456">
        <ele>-0.82</ele>
        <time>2018-07-02T07:22:25Z</time>
      </trkpt>
      <trkpt lat="51.232423027977347" lon="3.168955016881228">
        <ele>-0.34</ele>
        <time>2018-07-02T07:22:26Z</time>
      </trkpt>
      <trkpt lat="51.232434008270502" lon="3.168813027441502">
        <ele>-0.34</ele>
        <time>2018-07-02T07:22:27Z</time>
      </trkpt>
      <trkpt lat="51.232425961643457" lon="3.167337980121374">
        <ele>0.14</ele>
        <time>2018-07-02T07:22:35Z</time>
      </trkpt>
      <trkpt lat="51.232324037700891" lon="3.166971020400524">
        <ele>0.62</ele>
        <time>2018-07-02T07:22:37Z</time>
      </trkpt>
      <trkpt lat="51.232275003567338" lon="3.1667909771204">
        <ele>0.62</ele>
        <time>2018-07-02T07:22:38Z</time>
      </trkpt>
      <trkpt lat="51.232028994709253" lon="3.1659119669348">
        <ele>0.14</ele>
        <time>2018-07-02T07:22:43Z</time>
      </trkpt>
      <trkpt lat="51.231988007202744" lon="3.165765032172203">
        <ele>0.14</ele>
        <time>2018-07-02T07:22:44Z</time>
      </trkpt>
      <trkpt lat="51.231981972232461" lon="3.165666963905096">
        <ele>-0.34</ele>
        <time>2018-07-02T07:22:45Z</time>
      </trkpt>
      <trkpt lat="51.232006028294563" lon="3.165540983900428">
        <ele>-0.34</ele>
        <time>2018-07-02T07:22:46Z</time>
      </trkpt>
      <trkpt lat="51.232031006366014" lon="3.165405029430986">
        <ele>-0.82</ele>
        <time>2018-07-02T07:22:47Z</time>
      </trkpt>
      <trkpt lat="51.232059001922607" lon="3.165250970050693">
        <ele>-0.82</ele>
        <time>2018-07-02T07:22:48Z</time>
      </trkpt>
      <trkpt lat="51.232090014964342" lon="3.165080985054374">
        <ele>-0.82</ele>
        <time>2018-07-02T07:22:49Z</time>
      </trkpt>
      <trkpt lat="51.23221498914063" lon="3.163583977147937">
        <ele>-2.27</ele>
        <time>2018-07-02T07:22:56Z</time>
      </trkpt>
      <trkpt lat="51.23219302855432" lon="3.162801023572683">
        <ele>-1.79</ele>
        <time>2018-07-02T07:23:00Z</time>
      </trkpt>
      <trkpt lat="51.232161009684205" lon="3.162678983062506">
        <ele>-1.79</ele>
        <time>2018-07-02T07:23:01Z</time>
      </trkpt>
      <trkpt lat="51.232110969722271" lon="3.162487037479878">
        <ele>-1.79</ele>
        <time>2018-07-02T07:23:03Z</time>
      </trkpt>
      <trkpt lat="51.232093032449484" lon="3.162418976426125">
        <ele>-1.79</ele>
        <time>2018-07-02T07:23:04Z</time>
      </trkpt>
      <trkpt lat="51.232069982215762" lon="3.162330966442823">
        <ele>-1.79</ele>
        <time>2018-07-02T07:23:12Z</time>
      </trkpt>
      <trkpt lat="51.232053972780704" lon="3.162270030006766">
        <ele>-1.79</ele>
        <time>2018-07-02T07:24:01Z</time>
      </trkpt>
      <trkpt lat="51.232008039951324" lon="3.162095015868545">
        <ele>-1.79</ele>
        <time>2018-07-02T07:24:03Z</time>
      </trkpt>
      <trkpt lat="51.231996975839138" lon="3.161964006721973">
        <ele>-1.79</ele>
        <time>2018-07-02T07:24:04Z</time>
      </trkpt>
      <trkpt lat="51.23200099915266" lon="3.16182604059577">
        <ele>-1.79</ele>
        <time>2018-07-02T07:24:05Z</time>
      </trkpt>
      <trkpt lat="51.232006028294563" lon="3.161672987043858">
        <ele>-1.79</ele>
        <time>2018-07-02T07:24:06Z</time>
      </trkpt>
      <trkpt lat="51.232010973617435" lon="3.161507025361061">
        <ele>-1.79</ele>
        <time>2018-07-02T07:24:07Z</time>
      </trkpt>
      <trkpt lat="51.232036035507917" lon="3.160630026832223">
        <ele>-2.27</ele>
        <time>2018-07-02T07:24:12Z</time>
      </trkpt>
      <trkpt lat="51.232010973617435" lon="3.160446966066957">
        <ele>-2.27</ele>
        <time>2018-07-02T07:24:13Z</time>
      </trkpt>
      <trkpt lat="51.231966968625784" lon="3.160288967192173">
        <ele>-2.27</ele>
        <time>2018-07-02T07:24:14Z</time>
      </trkpt>
      <trkpt lat="51.231922963634133" lon="3.160132979974151">
        <ele>-2.27</ele>
        <time>2018-07-02T07:24:15Z</time>
      </trkpt>
      <trkpt lat="51.231877030804753" lon="3.159970035776496">
        <ele>-1.79</ele>
        <time>2018-07-02T07:24:16Z</time>
      </trkpt>
      <trkpt lat="51.231474028900266" lon="3.158215032890439">
        <ele>-0.82</ele>
        <time>2018-07-02T07:24:26Z</time>
      </trkpt>
      <trkpt lat="51.231422983109951" lon="3.157943040132523">
        <ele>-0.34</ele>
        <time>2018-07-02T07:24:28Z</time>
      </trkpt>
      <trkpt lat="51.231380989775062" lon="3.157833991572261">
        <ele>0.14</ele>
        <time>2018-07-02T07:24:29Z</time>
      </trkpt>
      <trkpt lat="51.231333967298269" lon="3.157741036266089">
        <ele>0.62</ele>
        <time>2018-07-02T07:24:30Z</time>
      </trkpt>
      <trkpt lat="51.231286022812128" lon="3.157643973827362">
        <ele>1.1</ele>
        <time>2018-07-02T07:24:31Z</time>
      </trkpt>
      <trkpt lat="51.231232965365052" lon="3.157539032399654">
        <ele>1.1</ele>
        <time>2018-07-02T07:24:32Z</time>
      </trkpt>
      <trkpt lat="51.230645980685949" lon="3.156213015317917">
        <ele>1.1</ele>
        <time>2018-07-02T07:24:42Z</time>
      </trkpt>
      <trkpt lat="51.230598958209157" lon="3.156050993129611">
        <ele>1.1</ele>
        <time>2018-07-02T07:24:43Z</time>
      </trkpt>
      <trkpt lat="51.230576997622848" lon="3.155881008133292">
        <ele>1.58</ele>
        <time>2018-07-02T07:24:44Z</time>
      </trkpt>
      <trkpt lat="51.230556964874268" lon="3.155698031187058">
        <ele>1.58</ele>
        <time>2018-07-02T07:24:45Z</time>
      </trkpt>
      <trkpt lat="51.230554031208158" lon="3.155516982078552">
        <ele>1.58</ele>
        <time>2018-07-02T07:24:46Z</time>
      </trkpt>
      <trkpt lat="51.230570962652564" lon="3.152874000370503">
        <ele>2.06</ele>
        <time>2018-07-02T07:24:59Z</time>
      </trkpt>
      <trkpt lat="51.230758968740702" lon="3.150042006745935">
        <ele>3.02</ele>
        <time>2018-07-02T07:25:11Z</time>
      </trkpt>
      <trkpt lat="51.230849996209145" lon="3.149167019873858">
        <ele>2.54</ele>
        <time>2018-07-02T07:25:15Z</time>
      </trkpt>
      <trkpt lat="51.23084002174437" lon="3.148961998522282">
        <ele>2.54</ele>
        <time>2018-07-02T07:25:16Z</time>
      </trkpt>
      <trkpt lat="51.230829963460565" lon="3.148755971342325">
        <ele>2.54</ele>
        <time>2018-07-02T07:25:17Z</time>
      </trkpt>
      <trkpt lat="51.23081898316741" lon="3.14854902215302">
        <ele>2.54</ele>
        <time>2018-07-02T07:25:18Z</time>
      </trkpt>
      <trkpt lat="51.230809008702636" lon="3.148341989144683">
        <ele>2.06</ele>
        <time>2018-07-02T07:25:19Z</time>
      </trkpt>
      <trkpt lat="51.230799034237862" lon="3.148133028298616">
        <ele>2.06</ele>
        <time>2018-07-02T07:25:20Z</time>
      </trkpt>
      <trkpt lat="51.230788975954056" lon="3.147923983633518">
        <ele>2.06</ele>
        <time>2018-07-02T07:25:21Z</time>
      </trkpt>
      <trkpt lat="51.230780007317662" lon="3.147718040272594">
        <ele>1.58</ele>
        <time>2018-07-02T07:25:22Z</time>
      </trkpt>
      <trkpt lat="51.230783024802804" lon="3.147503966465592">
        <ele>1.58</ele>
        <time>2018-07-02T07:25:23Z</time>
      </trkpt>
      <trkpt lat="51.230820994824171" lon="3.14730397425592">
        <ele>2.06</ele>
        <time>2018-07-02T07:25:24Z</time>
      </trkpt>
      <trkpt lat="51.230857959017158" lon="3.147111022844911">
        <ele>2.06</ele>
        <time>2018-07-02T07:25:25Z</time>
      </trkpt>
      <trkpt lat="51.230912022292614" lon="3.146914970129728">
        <ele>2.06</ele>
        <time>2018-07-02T07:25:26Z</time>
      </trkpt>
      <trkpt lat="51.231539994478226" lon="3.144959975033999">
        <ele>1.58</ele>
        <time>2018-07-02T07:25:37Z</time>
      </trkpt>
      <trkpt lat="51.23182900249958" lon="3.144438033923507">
        <ele>1.1</ele>
        <time>2018-07-02T07:25:41Z</time>
      </trkpt>
      <trkpt lat="51.231918018311262" lon="3.14433703199029">
        <ele>1.1</ele>
        <time>2018-07-02T07:25:42Z</time>
      </trkpt>
      <trkpt lat="51.232841033488512" lon="3.14328602515161">
        <ele>-0.34</ele>
        <time>2018-07-02T07:25:52Z</time>
      </trkpt>
      <trkpt lat="51.233008000999689" lon="3.143096007406712">
        <ele>-0.34</ele>
        <time>2018-07-02T07:25:55Z</time>
      </trkpt>
      <trkpt lat="51.233042031526566" lon="3.143057031556964">
        <ele>0.14</ele>
        <time>2018-07-02T07:25:56Z</time>
      </trkpt>
      <trkpt lat="51.233072960749269" lon="3.143021995201707">
        <ele>0.14</ele>
        <time>2018-07-02T07:25:57Z</time>
      </trkpt>
      <trkpt lat="51.233102967962623" lon="3.14298695884645">
        <ele>0.14</ele>
        <time>2018-07-02T07:25:58Z</time>
      </trkpt>
      <trkpt lat="51.233104979619384" lon="3.142784032970667">
        <ele>0.14</ele>
        <time>2018-07-02T07:25:59Z</time>
      </trkpt>
      <trkpt lat="51.233068015426397" lon="3.142722006887198">
        <ele>0.14</ele>
        <time>2018-07-02T07:26:00Z</time>
      </trkpt>
      <trkpt lat="51.233021998777986" lon="3.142643971368671">
        <ele>0.14</ele>
        <time>2018-07-02T07:26:01Z</time>
      </trkpt>
      <trkpt lat="51.232968019321561" lon="3.142551016062498">
        <ele>0.14</ele>
        <time>2018-07-02T07:26:02Z</time>
      </trkpt>
      <trkpt lat="51.232467032968998" lon="3.141424991190434">
        <ele>0.14</ele>
        <time>2018-07-02T07:26:10Z</time>
      </trkpt>
      <trkpt lat="51.232183976098895" lon="3.139840979129076">
        <ele>-1.3</ele>
        <time>2018-07-02T07:26:19Z</time>
      </trkpt>
      <trkpt lat="51.232162015512586" lon="3.13974098302424">
        <ele>-1.3</ele>
        <time>2018-07-02T07:26:20Z</time>
      </trkpt>
      <trkpt lat="51.232145000249147" lon="3.139664959162474">
        <ele>-1.3</ele>
        <time>2018-07-02T07:26:21Z</time>
      </trkpt>
      <trkpt lat="51.232145000249147" lon="3.139601005241275">
        <ele>-0.82</ele>
        <time>2018-07-02T07:26:22Z</time>
      </trkpt>
      <trkpt lat="51.23214902356267" lon="3.139531016349793">
        <ele>-0.82</ele>
        <time>2018-07-02T07:26:23Z</time>
      </trkpt>
      <trkpt lat="51.232184981927276" lon="3.13948298804462">
        <ele>-0.34</ele>
        <time>2018-07-02T07:26:24Z</time>
      </trkpt>
      <trkpt lat="51.232230998575687" lon="3.139445018023253">
        <ele>-0.34</ele>
        <time>2018-07-02T07:26:25Z</time>
      </trkpt>
      <trkpt lat="51.232286989688873" lon="3.139430014416575">
        <ele>0.14</ele>
        <time>2018-07-02T07:26:26Z</time>
      </trkpt>
      <trkpt lat="51.232348009943962" lon="3.139414004981518">
        <ele>0.14</ele>
        <time>2018-07-02T07:26:27Z</time>
      </trkpt>
      <trkpt lat="51.232410036027431" lon="3.13939698971808">
        <ele>0.14</ele>
        <time>2018-07-02T07:26:28Z</time>
      </trkpt>
      <trkpt lat="51.232476001605392" lon="3.139379974454641">
        <ele>0.14</ele>
        <time>2018-07-02T07:26:29Z</time>
      </trkpt>
      <trkpt lat="51.232534004375339" lon="3.139362037181854">
        <ele>0.14</ele>
        <time>2018-07-02T07:26:30Z</time>
      </trkpt>
      <trkpt lat="51.232588989660144" lon="3.139295987784863">
        <ele>0.14</ele>
        <time>2018-07-02T07:26:31Z</time>
      </trkpt>
      <trkpt lat="51.232643974944949" lon="3.139207977801561">
        <ele>0.62</ele>
        <time>2018-07-02T07:26:32Z</time>
      </trkpt>
      <trkpt lat="51.232668031007051" lon="3.139089038595557">
        <ele>0.62</ele>
        <time>2018-07-02T07:26:33Z</time>
      </trkpt>
      <trkpt lat="51.232693009078503" lon="3.138963980600238">
        <ele>1.1</ele>
        <time>2018-07-02T07:26:34Z</time>
      </trkpt>
      <trkpt lat="51.232694014906883" lon="3.138806987553835">
        <ele>1.1</ele>
        <time>2018-07-02T07:26:35Z</time>
      </trkpt>
      <trkpt lat="51.232681022956967" lon="3.138657035306096">
        <ele>1.58</ele>
        <time>2018-07-02T07:26:36Z</time>
      </trkpt>
      <trkpt lat="51.23266601935029" lon="3.138496018946171">
        <ele>1.58</ele>
        <time>2018-07-02T07:26:37Z</time>
      </trkpt>
      <trkpt lat="51.232401989400387" lon="3.137087021023035">
        <ele>2.54</ele>
        <time>2018-07-02T07:26:45Z</time>
      </trkpt>
      <trkpt lat="51.232352033257484" lon="3.136915024369955">
        <ele>2.54</ele>
        <time>2018-07-02T07:26:46Z</time>
      </trkpt>
      <trkpt lat="51.231878036633134" lon="3.134922981262207">
        <ele>1.58</ele>
        <time>2018-07-02T07:26:57Z</time>
      </trkpt>
      <trkpt lat="51.231615012511611" lon="3.132766988128424">
        <ele>2.54</ele>
        <time>2018-07-02T07:27:08Z</time>
      </trkpt>
      <trkpt lat="51.231744010001421" lon="3.130926992744207">
        <ele>2.06</ele>
        <time>2018-07-02T07:27:18Z</time>
      </trkpt>
      <trkpt lat="51.231759013608098" lon="3.13082498498261">
        <ele>2.06</ele>
        <time>2018-07-02T07:27:19Z</time>
      </trkpt>
      <trkpt lat="51.231811987236142" lon="3.13075901940465">
        <ele>2.06</ele>
        <time>2018-07-02T07:27:20Z</time>
      </trkpt>
      <trkpt lat="51.231867978349328" lon="3.130690958350897">
        <ele>1.58</ele>
        <time>2018-07-02T07:27:21Z</time>
      </trkpt>
      <trkpt lat="51.231928998604417" lon="3.130616024136543">
        <ele>1.58</ele>
        <time>2018-07-02T07:27:22Z</time>
      </trkpt>
      <trkpt lat="51.231988007202744" lon="3.130543017759919">
        <ele>1.58</ele>
        <time>2018-07-02T07:27:23Z</time>
      </trkpt>
      <trkpt lat="51.232037963345647" lon="3.13048099167645">
        <ele>1.58</ele>
        <time>2018-07-02T07:27:24Z</time>
      </trkpt>
      <trkpt lat="51.232065036892891" lon="3.130358029156923">
        <ele>1.1</ele>
        <time>2018-07-02T07:27:25Z</time>
      </trkpt>
      <trkpt lat="51.2320869974792" lon="3.130250992253423">
        <ele>1.1</ele>
        <time>2018-07-02T07:27:26Z</time>
      </trkpt>
      <trkpt lat="51.232103006914258" lon="3.13018100336194">
        <ele>1.1</ele>
        <time>2018-07-02T07:27:27Z</time>
      </trkpt>
      <trkpt lat="51.232041986659169" lon="3.130064997822046">
        <ele>0.62</ele>
        <time>2018-07-02T07:27:28Z</time>
      </trkpt>
      <trkpt lat="51.231983983889222" lon="3.129954021424055">
        <ele>0.62</ele>
        <time>2018-07-02T07:27:29Z</time>
      </trkpt>
      <trkpt lat="51.231920029968023" lon="3.129828963428736">
        <ele>0.62</ele>
        <time>2018-07-02T07:27:30Z</time>
      </trkpt>
      <trkpt lat="51.23185096308589" lon="3.129696026444435">
        <ele>0.62</ele>
        <time>2018-07-02T07:27:31Z</time>
      </trkpt>
      <trkpt lat="51.231069015339017" lon="3.127898024395108">
        <ele>-0.34</ele>
        <time>2018-07-02T07:27:42Z</time>
      </trkpt>
      <trkpt lat="51.23028296045959" lon="3.126176968216896">
        <ele>0.14</ele>
        <time>2018-07-02T07:27:54Z</time>
      </trkpt>
      <trkpt lat="51.23023996129632" lon="3.126083007082343">
        <ele>0.62</ele>
        <time>2018-07-02T07:27:55Z</time>
      </trkpt>
      <trkpt lat="51.230199979618192" lon="3.125996002927423">
        <ele>0.62</ele>
        <time>2018-07-02T07:27:56Z</time>
      </trkpt>
      <trkpt lat="51.230170978233218" lon="3.125899024307728">
        <ele>0.62</ele>
        <time>2018-07-02T07:27:57Z</time>
      </trkpt>
      <trkpt lat="51.230182964354753" lon="3.125763991847634">
        <ele>1.1</ele>
        <time>2018-07-02T07:27:58Z</time>
      </trkpt>
      <trkpt lat="51.230228981003165" lon="3.125691991299391">
        <ele>1.1</ele>
        <time>2018-07-02T07:27:59Z</time>
      </trkpt>
      <trkpt lat="51.230283966287971" lon="3.125608004629612">
        <ele>1.1</ele>
        <time>2018-07-02T07:28:00Z</time>
      </trkpt>
      <trkpt lat="51.23034599237144" lon="3.125512031838298">
        <ele>1.58</ele>
        <time>2018-07-02T07:28:01Z</time>
      </trkpt>
      <trkpt lat="51.23053902760148" lon="3.125211959704757">
        <ele>1.58</ele>
        <time>2018-07-02T07:28:04Z</time>
      </trkpt>
      <trkpt lat="51.230593007057905" lon="3.125127973034978">
        <ele>1.58</ele>
        <time>2018-07-02T07:28:05Z</time>
      </trkpt>
      <trkpt lat="51.230613961815834" lon="3.125011967495084">
        <ele>1.1</ele>
        <time>2018-07-02T07:28:06Z</time>
      </trkpt>
      <trkpt lat="51.230612033978105" lon="3.124897973611951">
        <ele>1.1</ele>
        <time>2018-07-02T07:28:07Z</time>
      </trkpt>
      <trkpt lat="51.230588983744383" lon="3.124779034405947">
        <ele>1.1</ele>
        <time>2018-07-02T07:28:08Z</time>
      </trkpt>
      <trkpt lat="51.230551013723016" lon="3.124661017209292">
        <ele>1.1</ele>
        <time>2018-07-02T07:28:09Z</time>
      </trkpt>
      <trkpt lat="51.230501979589462" lon="3.124543000012636">
        <ele>0.62</ele>
        <time>2018-07-02T07:28:10Z</time>
      </trkpt>
      <trkpt lat="51.230403995141387" lon="3.124302020296454">
        <ele>0.14</ele>
        <time>2018-07-02T07:28:12Z</time>
      </trkpt>
      <trkpt lat="51.23038899153471" lon="3.124128011986613">
        <ele>0.14</ele>
        <time>2018-07-02T07:28:13Z</time>
      </trkpt>
      <trkpt lat="51.230393014848232" lon="3.123964983969927">
        <ele>0.14</ele>
        <time>2018-07-02T07:28:14Z</time>
      </trkpt>
      <trkpt lat="51.230397038161755" lon="3.123789969831705">
        <ele>0.14</ele>
        <time>2018-07-02T07:28:15Z</time>
      </trkpt>
      <trkpt lat="51.230400977656245" lon="3.123601963743568">
        <ele>0.14</ele>
        <time>2018-07-02T07:28:16Z</time>
      </trkpt>
      <trkpt lat="51.230403995141387" lon="3.122156001627445">
        <ele>-0.34</ele>
        <time>2018-07-02T07:28:24Z</time>
      </trkpt>
      <trkpt lat="51.230387985706329" lon="3.121990961953998">
        <ele>-0.82</ele>
        <time>2018-07-02T07:28:25Z</time>
      </trkpt>
      <trkpt lat="51.230336017906666" lon="3.121818965300918">
        <ele>-0.82</ele>
        <time>2018-07-02T07:28:26Z</time>
      </trkpt>
      <trkpt lat="51.230281032621861" lon="3.121662978082895">
        <ele>-0.82</ele>
        <time>2018-07-02T07:28:27Z</time>
      </trkpt>
      <trkpt lat="51.230236021801829" lon="3.121532974764705">
        <ele>-1.3</ele>
        <time>2018-07-02T07:28:28Z</time>
      </trkpt>
      <trkpt lat="51.230171984061599" lon="3.121136007830501">
        <ele>-1.79</ele>
        <time>2018-07-02T07:28:30Z</time>
      </trkpt>
      <trkpt lat="51.229988001286983" lon="3.119981987401843">
        <ele>-3.23</ele>
        <time>2018-07-02T07:28:38Z</time>
      </trkpt>
      <trkpt lat="51.229946007952094" lon="3.11971896328032">
        <ele>-2.75</ele>
        <time>2018-07-02T07:28:41Z</time>
      </trkpt>
      <trkpt lat="51.22993603348732" lon="3.11965299770236">
        <ele>-2.27</ele>
        <time>2018-07-02T07:28:42Z</time>
      </trkpt>
      <trkpt lat="51.229969980195165" lon="3.119484018534422">
        <ele>-2.27</ele>
        <time>2018-07-02T07:28:43Z</time>
      </trkpt>
      <trkpt lat="51.230014991015196" lon="3.11945702880621">
        <ele>-1.79</ele>
        <time>2018-07-02T07:28:44Z</time>
      </trkpt>
      <trkpt lat="51.230068970471621" lon="3.119424004107714">
        <ele>-1.79</ele>
        <time>2018-07-02T07:28:45Z</time>
      </trkpt>
      <trkpt lat="51.230652015656233" lon="3.119080010801554">
        <ele>-0.82</ele>
        <time>2018-07-02T07:28:53Z</time>
      </trkpt>
      <trkpt lat="51.230759974569082" lon="3.119016978889704">
        <ele>-0.82</ele>
        <time>2018-07-02T07:28:55Z</time>
      </trkpt>
      <trkpt lat="51.230803979560733" lon="3.118990994989872">
        <ele>-0.82</ele>
        <time>2018-07-02T07:28:56Z</time>
      </trkpt>
      <trkpt lat="51.23083901591599" lon="3.118875995278359">
        <ele>-0.82</ele>
        <time>2018-07-02T07:28:57Z</time>
      </trkpt>
      <trkpt lat="51.23081998899579" lon="3.118796031922102">
        <ele>-0.82</ele>
        <time>2018-07-02T07:28:58Z</time>
      </trkpt>
      <trkpt lat="51.2307970225811" lon="3.118699975311756">
        <ele>-0.82</ele>
        <time>2018-07-02T07:28:59Z</time>
      </trkpt>
      <trkpt lat="51.230771038681269" lon="3.118587993085384">
        <ele>-0.82</ele>
        <time>2018-07-02T07:29:00Z</time>
      </trkpt>
      <trkpt lat="51.230458980426192" lon="3.117263987660408">
        <ele>-0.82</ele>
        <time>2018-07-02T07:29:08Z</time>
      </trkpt>
      <trkpt lat="51.230101995170116" lon="3.115906035527587">
        <ele>-0.82</ele>
        <time>2018-07-02T07:29:16Z</time>
      </trkpt>
      <trkpt lat="51.230035023763776" lon="3.115777960047126">
        <ele>-0.82</ele>
        <time>2018-07-02T07:29:17Z</time>
      </trkpt>
      <trkpt lat="51.229801001027226" lon="3.115280997008085">
        <ele>-0.82</ele>
        <time>2018-07-02T07:29:21Z</time>
      </trkpt>
      <trkpt lat="51.229752972722054" lon="3.115159040316939">
        <ele>-0.82</ele>
        <time>2018-07-02T07:29:22Z</time>
      </trkpt>
      <trkpt lat="51.229724977165461" lon="3.115026019513607">
        <ele>-0.34</ele>
        <time>2018-07-02T07:29:23Z</time>
      </trkpt>
      <trkpt lat="51.229737969115376" lon="3.114899033680558">
        <ele>-0.34</ele>
        <time>2018-07-02T07:29:24Z</time>
      </trkpt>
      <trkpt lat="51.229750039055943" lon="3.114770958200097">
        <ele>-0.34</ele>
        <time>2018-07-02T07:29:25Z</time>
      </trkpt>
      <trkpt lat="51.229763031005859" lon="3.114638021215797">
        <ele>-0.34</ele>
        <time>2018-07-02T07:29:26Z</time>
      </trkpt>
      <trkpt lat="51.229776022955775" lon="3.114507012069225">
        <ele>-0.34</ele>
        <time>2018-07-02T07:29:27Z</time>
      </trkpt>
      <trkpt lat="51.229776022955775" lon="3.114367034286261">
        <ele>0.14</ele>
        <time>2018-07-02T07:29:28Z</time>
      </trkpt>
      <trkpt lat="51.229746015742421" lon="3.114233007654548">
        <ele>0.14</ele>
        <time>2018-07-02T07:29:29Z</time>
      </trkpt>
      <trkpt lat="51.22952900826931" lon="3.113332958891988">
        <ele>0.14</ele>
        <time>2018-07-02T07:29:35Z</time>
      </trkpt>
      <trkpt lat="51.229476034641266" lon="3.113189041614533">
        <ele>0.62</ele>
        <time>2018-07-02T07:29:36Z</time>
      </trkpt>
      <trkpt lat="51.229002038016915" lon="3.111535040661693">
        <ele>0.14</ele>
        <time>2018-07-02T07:29:47Z</time>
      </trkpt>
      <trkpt lat="51.228935988619924" lon="3.111403025686741">
        <ele>0.62</ele>
        <time>2018-07-02T07:29:48Z</time>
      </trkpt>
      <trkpt lat="51.228731973096728" lon="3.11099499464035">
        <ele>0.14</ele>
        <time>2018-07-02T07:29:51Z</time>
      </trkpt>
      <trkpt lat="51.228375993669033" lon="3.109954968094826">
        <ele>-0.34</ele>
        <time>2018-07-02T07:30:00Z</time>
      </trkpt>
      <trkpt lat="51.228352021425962" lon="3.109881039708853">
        <ele>-0.34</ele>
        <time>2018-07-02T07:30:01Z</time>
      </trkpt>
      <trkpt lat="51.228334000334144" lon="3.109823036938906">
        <ele>-0.34</ele>
        <time>2018-07-02T07:30:02Z</time>
      </trkpt>
      <trkpt lat="51.228342968970537" lon="3.109709965065122">
        <ele>-0.34</ele>
        <time>2018-07-02T07:30:03Z</time>
      </trkpt>
      <trkpt lat="51.22837096452713" lon="3.109694039449096">
        <ele>-0.34</ele>
        <time>2018-07-02T07:30:04Z</time>
      </trkpt>
      <trkpt lat="51.228407006710768" lon="3.109673000872135">
        <ele>-0.34</ele>
        <time>2018-07-02T07:30:05Z</time>
      </trkpt>
      <trkpt lat="51.22845696285367" lon="3.109645005315542">
        <ele>-0.34</ele>
        <time>2018-07-02T07:30:06Z</time>
      </trkpt>
      <trkpt lat="51.22851898893714" lon="3.109608963131905">
        <ele>-0.34</ele>
        <time>2018-07-02T07:30:07Z</time>
      </trkpt>
      <trkpt lat="51.229364974424243" lon="3.109211996197701">
        <ele>-0.34</ele>
        <time>2018-07-02T07:30:16Z</time>
      </trkpt>
      <trkpt lat="51.230340041220188" lon="3.108706986531615">
        <ele>0.62</ele>
        <time>2018-07-02T07:30:24Z</time>
      </trkpt>
      <trkpt lat="51.230780007317662" lon="3.108251010999084">
        <ele>1.1</ele>
        <time>2018-07-02T07:30:28Z</time>
      </trkpt>
      <trkpt lat="51.230880003422499" lon="3.10811597853899">
        <ele>1.1</ele>
        <time>2018-07-02T07:30:29Z</time>
      </trkpt>
      <trkpt lat="51.230972036719322" lon="3.107952028512955">
        <ele>1.58</ele>
        <time>2018-07-02T07:30:30Z</time>
      </trkpt>
      <trkpt lat="51.231761025264859" lon="3.106272965669632">
        <ele>2.54</ele>
        <time>2018-07-02T07:30:41Z</time>
      </trkpt>
      <trkpt lat="51.232266034930944" lon="3.10549202375114">
        <ele>1.58</ele>
        <time>2018-07-02T07:30:49Z</time>
      </trkpt>
      <trkpt lat="51.233585011214018" lon="3.104186961427331">
        <ele>-0.82</ele>
        <time>2018-07-02T07:31:02Z</time>
      </trkpt>
      <trkpt lat="51.2352230027318" lon="3.102576965466142">
        <ele>0.14</ele>
        <time>2018-07-02T07:31:19Z</time>
      </trkpt>
      <trkpt lat="51.236067982390523" lon="3.101765010505915">
        <ele>-2.27</ele>
        <time>2018-07-02T07:31:29Z</time>
      </trkpt>
      <trkpt lat="51.237407997250557" lon="3.100677961483598">
        <ele>-2.27</ele>
        <time>2018-07-02T07:31:42Z</time>
      </trkpt>
      <trkpt lat="51.238269992172718" lon="3.100304966792464">
        <ele>-1.79</ele>
        <time>2018-07-02T07:31:52Z</time>
      </trkpt>
      <trkpt lat="51.238422961905599" lon="3.100270014256239">
        <ele>-0.82</ele>
        <time>2018-07-02T07:31:57Z</time>
      </trkpt>
      <trkpt lat="51.238512983545661" lon="3.100183010101318">
        <ele>-0.82</ele>
        <time>2018-07-02T07:31:58Z</time>
      </trkpt>
      <trkpt lat="51.238506026566029" lon="3.100084019824863">
        <ele>-0.34</ele>
        <time>2018-07-02T07:31:59Z</time>
      </trkpt>
      <trkpt lat="51.238495968282223" lon="3.099958039820194">
        <ele>-0.34</ele>
        <time>2018-07-02T07:32:00Z</time>
      </trkpt>
      <trkpt lat="51.238484987989068" lon="3.099818984046578">
        <ele>-0.34</ele>
        <time>2018-07-02T07:32:01Z</time>
      </trkpt>
      <trkpt lat="51.238406030461192" lon="3.09844602830708">
        <ele>0.14</ele>
        <time>2018-07-02T07:32:08Z</time>
      </trkpt>
      <trkpt lat="51.238268986344337" lon="3.095310023054481">
        <ele>2.06</ele>
        <time>2018-07-02T07:32:20Z</time>
      </trkpt>
      <trkpt lat="51.238140994682908" lon="3.092505019158125">
        <ele>3.98</ele>
        <time>2018-07-02T07:32:31Z</time>
      </trkpt>
      <trkpt lat="51.238095983862877" lon="3.089145971462131">
        <ele>4.46</ele>
        <time>2018-07-02T07:32:44Z</time>
      </trkpt>
      <trkpt lat="51.238449029624462" lon="3.086336022242904">
        <ele>3.02</ele>
        <time>2018-07-02T07:32:55Z</time>
      </trkpt>
      <trkpt lat="51.238442994654179" lon="3.086075009778142">
        <ele>3.5</ele>
        <time>2018-07-02T07:32:56Z</time>
      </trkpt>
      <trkpt lat="51.238430002704263" lon="3.085815003141761">
        <ele>3.02</ele>
        <time>2018-07-02T07:32:57Z</time>
      </trkpt>
      <trkpt lat="51.237941002473235" lon="3.082242971286178">
        <ele>2.06</ele>
        <time>2018-07-02T07:33:11Z</time>
      </trkpt>
      <trkpt lat="51.237593991681933" lon="3.081075036898255">
        <ele>1.58</ele>
        <time>2018-07-02T07:33:16Z</time>
      </trkpt>
      <trkpt lat="51.237491983920336" lon="3.080876972526312">
        <ele>1.58</ele>
        <time>2018-07-02T07:33:17Z</time>
      </trkpt>
      <trkpt lat="51.236083991825581" lon="3.078050008043647">
        <ele>1.58</ele>
        <time>2018-07-02T07:33:31Z</time>
      </trkpt>
      <trkpt lat="51.236023977398872" lon="3.077810034155846">
        <ele>1.58</ele>
        <time>2018-07-02T07:33:32Z</time>
      </trkpt>
      <trkpt lat="51.235745027661324" lon="3.075514985248447">
        <ele>3.5</ele>
        <time>2018-07-02T07:33:41Z</time>
      </trkpt>
      <trkpt lat="51.235229959711432" lon="3.07307300157845">
        <ele>4.46</ele>
        <time>2018-07-02T07:33:51Z</time>
      </trkpt>
      <trkpt lat="51.23449201695621" lon="3.070200020447373">
        <ele>3.5</ele>
        <time>2018-07-02T07:34:03Z</time>
      </trkpt>
      <trkpt lat="51.234400989487767" lon="3.067339025437832">
        <ele>3.02</ele>
        <time>2018-07-02T07:34:14Z</time>
      </trkpt>
      <trkpt lat="51.23406202532351" lon="3.065624004229903">
        <ele>2.06</ele>
        <time>2018-07-02T07:34:21Z</time>
      </trkpt>
      <trkpt lat="51.23277397826314" lon="3.062074016779661">
        <ele>1.1</ele>
        <time>2018-07-02T07:34:37Z</time>
      </trkpt>
      <trkpt lat="51.232552025467157" lon="3.061004988849163">
        <ele>1.58</ele>
        <time>2018-07-02T07:34:44Z</time>
      </trkpt>
      <trkpt lat="51.232574991881847" lon="3.060614978894591">
        <ele>1.1</ele>
        <time>2018-07-02T07:34:47Z</time>
      </trkpt>
      <trkpt lat="51.232577003538609" lon="3.060603998601437">
        <ele>1.1</ele>
        <time>2018-07-02T07:34:48Z</time>
      </trkpt>
      <trkpt lat="51.232597958296537" lon="3.060508025810123">
        <ele>1.58</ele>
        <time>2018-07-02T07:34:49Z</time>
      </trkpt>
      <trkpt lat="51.232597958296537" lon="3.060363018885255">
        <ele>1.58</ele>
        <time>2018-07-02T07:34:50Z</time>
      </trkpt>
      <trkpt lat="51.232596030458808" lon="3.060357989743352">
        <ele>1.58</ele>
        <time>2018-07-02T07:34:51Z</time>
      </trkpt>
      <trkpt lat="51.232484970241785" lon="3.06026503443718">
        <ele>1.1</ele>
        <time>2018-07-02T07:34:52Z</time>
      </trkpt>
      <trkpt lat="51.232413975521922" lon="3.060077028349042">
        <ele>1.1</ele>
        <time>2018-07-02T07:34:53Z</time>
      </trkpt>
      <trkpt lat="51.232405006885529" lon="3.05992104113102">
        <ele>1.58</ele>
        <time>2018-07-02T07:34:54Z</time>
      </trkpt>
      <trkpt lat="51.232394026592374" lon="3.059748038649559">
        <ele>1.58</ele>
        <time>2018-07-02T07:34:55Z</time>
      </trkpt>
      <trkpt lat="51.232371982187033" lon="3.059375965967774">
        <ele>2.06</ele>
        <time>2018-07-02T07:34:57Z</time>
      </trkpt>
      <trkpt lat="51.232359996065497" lon="3.059174967929721">
        <ele>2.06</ele>
        <time>2018-07-02T07:34:58Z</time>
      </trkpt>
      <trkpt lat="51.23214902356267" lon="3.056963989511132">
        <ele>1.58</ele>
        <time>2018-07-02T07:35:07Z</time>
      </trkpt>
      <trkpt lat="51.231821961700916" lon="3.053710972890258">
        <ele>2.54</ele>
        <time>2018-07-02T07:35:19Z</time>
      </trkpt>
      <trkpt lat="51.231243023648858" lon="3.04795696400106">
        <ele>2.54</ele>
        <time>2018-07-02T07:35:40Z</time>
      </trkpt>
      <trkpt lat="51.230631982907653" lon="3.041958035901189">
        <ele>3.02</ele>
        <time>2018-07-02T07:36:02Z</time>
      </trkpt>
      <trkpt lat="51.230190005153418" lon="3.037590980529785">
        <ele>3.02</ele>
        <time>2018-07-02T07:36:18Z</time>
      </trkpt>
      <trkpt lat="51.229600002989173" lon="3.031852981075645">
        <ele>3.02</ele>
        <time>2018-07-02T07:36:39Z</time>
      </trkpt>
      <trkpt lat="51.229075966402888" lon="3.026944035664201">
        <ele>4.46</ele>
        <time>2018-07-02T07:36:57Z</time>
      </trkpt>
      <trkpt lat="51.228724010288715" lon="3.024359978735447">
        <ele>4.94</ele>
        <time>2018-07-02T07:37:07Z</time>
      </trkpt>
      <trkpt lat="51.228394014760852" lon="3.021938027814031">
        <ele>5.42</ele>
        <time>2018-07-02T07:37:17Z</time>
      </trkpt>
      <trkpt lat="51.228041974827647" lon="3.019357994198799">
        <ele>4.46</ele>
        <time>2018-07-02T07:37:29Z</time>
      </trkpt>
      <trkpt lat="51.22794097289443" lon="3.018615022301674">
        <ele>4.94</ele>
        <time>2018-07-02T07:37:32Z</time>
      </trkpt>
      <trkpt lat="51.227905014529824" lon="3.01835099235177">
        <ele>4.94</ele>
        <time>2018-07-02T07:37:33Z</time>
      </trkpt>
      <trkpt lat="51.227482985705137" lon="3.015258992090821">
        <ele>4.46</ele>
        <time>2018-07-02T07:37:44Z</time>
      </trkpt>
      <trkpt lat="51.226859958842397" lon="3.010688005015254">
        <ele>3.02</ele>
        <time>2018-07-02T07:38:01Z</time>
      </trkpt>
      <trkpt lat="51.2261569686234" lon="3.005564985796809">
        <ele>3.02</ele>
        <time>2018-07-02T07:38:20Z</time>
      </trkpt>
      <trkpt lat="51.225369991734624" lon="2.99991499632597">
        <ele>3.98</ele>
        <time>2018-07-02T07:38:41Z</time>
      </trkpt>
      <trkpt lat="51.224918961524963" lon="2.996599031612277">
        <ele>3.98</ele>
        <time>2018-07-02T07:38:52Z</time>
      </trkpt>
      <trkpt lat="51.224620984867215" lon="2.99439299851656">
        <ele>4.94</ele>
        <time>2018-07-02T07:38:59Z</time>
      </trkpt>
      <trkpt lat="51.224336000159383" lon="2.992574041709304">
        <ele>4.94</ele>
        <time>2018-07-02T07:39:07Z</time>
      </trkpt>
      <trkpt lat="51.22407297603786" lon="2.991662006825209">
        <ele>4.94</ele>
        <time>2018-07-02T07:39:12Z</time>
      </trkpt>
      <trkpt lat="51.223310977220535" lon="2.99011898227036">
        <ele>5.91</ele>
        <time>2018-07-02T07:39:22Z</time>
      </trkpt>
      <trkpt lat="51.22325599193573" lon="2.989943968132138">
        <ele>5.91</ele>
        <time>2018-07-02T07:39:23Z</time>
      </trkpt>
      <trkpt lat="51.222933037206531" lon="2.988489037379623">
        <ele>4.46</ele>
        <time>2018-07-02T07:39:31Z</time>
      </trkpt>
      <trkpt lat="51.222587032243609" lon="2.986515015363693">
        <ele>7.35</ele>
        <time>2018-07-02T07:39:42Z</time>
      </trkpt>
      <trkpt lat="51.22224697843194" lon="2.984426999464631">
        <ele>7.83</ele>
        <time>2018-07-02T07:39:52Z</time>
      </trkpt>
      <trkpt lat="51.221677009016275" lon="2.980948006734252">
        <ele>7.35</ele>
        <time>2018-07-02T07:40:09Z</time>
      </trkpt>
      <trkpt lat="51.221113996580243" lon="2.977511007338762">
        <ele>8.310000000000001</ele>
        <time>2018-07-02T07:40:25Z</time>
      </trkpt>
      <trkpt lat="51.220662966370583" lon="2.974706003442407">
        <ele>10.23</ele>
        <time>2018-07-02T07:40:39Z</time>
      </trkpt>
      <trkpt lat="51.220214031636715" lon="2.971994038671255">
        <ele>8.310000000000001</ele>
        <time>2018-07-02T07:40:52Z</time>
      </trkpt>
      <trkpt lat="51.219761995598674" lon="2.969153998419642">
        <ele>6.39</ele>
        <time>2018-07-02T07:41:06Z</time>
      </trkpt>
      <trkpt lat="51.219307025894523" lon="2.966340025886893">
        <ele>6.87</ele>
        <time>2018-07-02T07:41:21Z</time>
      </trkpt>
      <trkpt lat="51.21932496316731" lon="2.964733969420195">
        <ele>8.310000000000001</ele>
        <time>2018-07-02T07:41:29Z</time>
      </trkpt>
      <trkpt lat="51.219598967581987" lon="2.963372999802232">
        <ele>9.27</ele>
        <time>2018-07-02T07:41:37Z</time>
      </trkpt>
      <trkpt lat="51.219631992280483" lon="2.963249031454325">
        <ele>8.789999999999999</ele>
        <time>2018-07-02T07:41:38Z</time>
      </trkpt>
      <trkpt lat="51.219939021393657" lon="2.961814971640706">
        <ele>8.310000000000001</ele>
        <time>2018-07-02T07:41:47Z</time>
      </trkpt>
      <trkpt lat="51.22039801441133" lon="2.959735002368689">
        <ele>9.27</ele>
        <time>2018-07-02T07:41:59Z</time>
      </trkpt>
      <trkpt lat="51.220512008294463" lon="2.959203002974391">
        <ele>9.27</ele>
        <time>2018-07-02T07:42:06Z</time>
      </trkpt>
      <trkpt lat="51.220512008294463" lon="2.959203002974391">
        <ele>9.27</ele>
        <time>2018-07-02T07:42:21Z</time>
      </trkpt>
      <trkpt lat="51.220544027164578" lon="2.959055984392762">
        <ele>8.789999999999999</ele>
        <time>2018-07-02T07:42:35Z</time>
      </trkpt>
      <trkpt lat="51.220730021595955" lon="2.958190971985459">
        <ele>6.87</ele>
        <time>2018-07-02T07:42:45Z</time>
      </trkpt>
      <trkpt lat="51.221094969660044" lon="2.956523979082704">
        <ele>7.83</ele>
        <time>2018-07-02T07:42:56Z</time>
      </trkpt>
      <trkpt lat="51.221553040668368" lon="2.954414002597332">
        <ele>7.35</ele>
        <time>2018-07-02T07:43:08Z</time>
      </trkpt>
      <trkpt lat="51.221974985674024" lon="2.952384995296598">
        <ele>8.789999999999999</ele>
        <time>2018-07-02T07:43:20Z</time>
      </trkpt>
      <trkpt lat="51.22237597592175" lon="2.950489008799195">
        <ele>9.75</ele>
        <time>2018-07-02T07:43:32Z</time>
      </trkpt>
      <trkpt lat="51.222468009218574" lon="2.94987696222961">
        <ele>10.710000000000001</ele>
        <time>2018-07-02T07:43:36Z</time>
      </trkpt>
      <trkpt lat="51.222436996176839" lon="2.94976900331676">
        <ele>11.19</ele>
        <time>2018-07-02T07:43:37Z</time>
      </trkpt>
      <trkpt lat="51.222399026155472" lon="2.94964000582695">
        <ele>11.67</ele>
        <time>2018-07-02T07:43:38Z</time>
      </trkpt>
      <trkpt lat="51.222359966486692" lon="2.949506985023618">
        <ele>11.67</ele>
        <time>2018-07-02T07:43:39Z</time>
      </trkpt>
      <trkpt lat="51.222320990636945" lon="2.949376981705427">
        <ele>11.67</ele>
        <time>2018-07-02T07:43:40Z</time>
      </trkpt>
      <trkpt lat="51.222280003130436" lon="2.949266005307436">
        <ele>11.67</ele>
        <time>2018-07-02T07:43:41Z</time>
      </trkpt>
      <trkpt lat="51.222219988703728" lon="2.949163997545838">
        <ele>11.67</ele>
        <time>2018-07-02T07:43:42Z</time>
      </trkpt>
      <trkpt lat="51.221997030079365" lon="2.948756972327828">
        <ele>10.710000000000001</ele>
        <time>2018-07-02T07:43:46Z</time>
      </trkpt>
      <trkpt lat="51.221955036744475" lon="2.948626969009638">
        <ele>10.710000000000001</ele>
        <time>2018-07-02T07:43:47Z</time>
      </trkpt>
      <trkpt lat="51.22192301787436" lon="2.948490008711815">
        <ele>10.23</ele>
        <time>2018-07-02T07:43:48Z</time>
      </trkpt>
      <trkpt lat="51.221917988732457" lon="2.948332009837031">
        <ele>10.23</ele>
        <time>2018-07-02T07:43:49Z</time>
      </trkpt>
      <trkpt lat="51.221929974853992" lon="2.94818096794188">
        <ele>9.75</ele>
        <time>2018-07-02T07:43:50Z</time>
      </trkpt>
      <trkpt lat="51.221952019259334" lon="2.948035961017013">
        <ele>9.75</ele>
        <time>2018-07-02T07:43:51Z</time>
      </trkpt>
      <trkpt lat="51.221976997330785" lon="2.947888020426035">
        <ele>9.27</ele>
        <time>2018-07-02T07:43:52Z</time>
      </trkpt>
      <trkpt lat="51.222442025318742" lon="2.94566698372364">
        <ele>9.75</ele>
        <time>2018-07-02T07:44:06Z</time>
      </trkpt>
      <trkpt lat="51.222964972257614" lon="2.942990977317095">
        <ele>10.23</ele>
        <time>2018-07-02T07:44:21Z</time>
      </trkpt>
      <trkpt lat="51.223177034407854" lon="2.941910969093442">
        <ele>9.75</ele>
        <time>2018-07-02T07:44:29Z</time>
      </trkpt>
      <trkpt lat="51.223193965852261" lon="2.941756993532181">
        <ele>9.75</ele>
        <time>2018-07-02T07:44:30Z</time>
      </trkpt>
      <trkpt lat="51.223183991387486" lon="2.941621961072087">
        <ele>10.23</ele>
        <time>2018-07-02T07:44:31Z</time>
      </trkpt>
      <trkpt lat="51.223174016922712" lon="2.941483994945884">
        <ele>10.23</ele>
        <time>2018-07-02T07:44:32Z</time>
      </trkpt>
      <trkpt lat="51.223163958638906" lon="2.941347034648061">
        <ele>10.23</ele>
        <time>2018-07-02T07:44:33Z</time>
      </trkpt>
      <trkpt lat="51.223168987780809" lon="2.941077975556254">
        <ele>9.75</ele>
        <time>2018-07-02T07:44:35Z</time>
      </trkpt>
      <trkpt lat="51.223176028579473" lon="2.940940009430051">
        <ele>9.75</ele>
        <time>2018-07-02T07:44:36Z</time>
      </trkpt>
      <trkpt lat="51.223119031637907" lon="2.940710010007024">
        <ele>9.75</ele>
        <time>2018-07-02T07:44:37Z</time>
      </trkpt>
      <trkpt lat="51.223048036918044" lon="2.94065703637898">
        <ele>9.75</ele>
        <time>2018-07-02T07:44:38Z</time>
      </trkpt>
      <trkpt lat="51.222973018884659" lon="2.940591992810369">
        <ele>9.27</ele>
        <time>2018-07-02T07:44:39Z</time>
      </trkpt>
      <trkpt lat="51.222888026386499" lon="2.940522003918886">
        <ele>9.27</ele>
        <time>2018-07-02T07:44:40Z</time>
      </trkpt>
      <trkpt lat="51.222801022231579" lon="2.940446985885501">
        <ele>9.27</ele>
        <time>2018-07-02T07:44:41Z</time>
      </trkpt>
      <trkpt lat="51.22153501957655" lon="2.939473008736968">
        <ele>7.35</ele>
        <time>2018-07-02T07:44:53Z</time>
      </trkpt>
      <trkpt lat="51.220425004139543" lon="2.938505988568068">
        <ele>3.5</ele>
        <time>2018-07-02T07:45:04Z</time>
      </trkpt>
      <trkpt lat="51.219577006995678" lon="2.937778020277619">
        <ele>-0.82</ele>
        <time>2018-07-02T07:45:14Z</time>
      </trkpt>
      <trkpt lat="51.219378020614386" lon="2.937620021402836">
        <ele>-3.71</ele>
        <time>2018-07-02T07:45:23Z</time>
      </trkpt>
      <trkpt lat="51.218530023470521" lon="2.937011998146772">
        <ele>-3.23</ele>
        <time>2018-07-02T07:45:44Z</time>
      </trkpt>
      <trkpt lat="51.21835702098906" lon="2.936891969293356">
        <ele>-0.82</ele>
        <time>2018-07-02T07:45:50Z</time>
      </trkpt>
      <trkpt lat="51.218261970207095" lon="2.936826003715396">
        <ele>-0.34</ele>
        <time>2018-07-02T07:45:51Z</time>
      </trkpt>
      <trkpt lat="51.21824998408556" lon="2.936744028702378">
        <ele>0.14</ele>
        <time>2018-07-02T07:45:52Z</time>
      </trkpt>
      <trkpt lat="51.218235986307263" lon="2.936654007062316">
        <ele>0.62</ele>
        <time>2018-07-02T07:45:53Z</time>
      </trkpt>
      <trkpt lat="51.218218971043825" lon="2.936546970158815">
        <ele>0.62</ele>
        <time>2018-07-02T07:45:54Z</time>
      </trkpt>
      <trkpt lat="51.218196004629135" lon="2.93653498403728">
        <ele>1.1</ele>
        <time>2018-07-02T07:45:55Z</time>
      </trkpt>
      <trkpt lat="51.218133978545666" lon="2.936503970995545">
        <ele>1.58</ele>
        <time>2018-07-02T07:45:56Z</time>
      </trkpt>
      <trkpt lat="51.218067007139325" lon="2.936471030116081">
        <ele>2.06</ele>
        <time>2018-07-02T07:45:57Z</time>
      </trkpt>
      <trkpt lat="51.218014033511281" lon="2.936330968514085">
        <ele>2.06</ele>
        <time>2018-07-02T07:45:58Z</time>
      </trkpt>
      <trkpt lat="51.217988971620798" lon="2.936236001551151">
        <ele>2.54</ele>
        <time>2018-07-02T07:45:59Z</time>
      </trkpt>
      <trkpt lat="51.217963993549347" lon="2.936141034588218">
        <ele>2.54</ele>
        <time>2018-07-02T07:46:00Z</time>
      </trkpt>
      <trkpt lat="51.217903979122639" lon="2.93591296300292">
        <ele>3.5</ele>
        <time>2018-07-02T07:46:07Z</time>
      </trkpt>
      <trkpt lat="51.217823009938002" lon="2.935603000223637">
        <ele>3.98</ele>
        <time>2018-07-02T07:46:17Z</time>
      </trkpt>
      <trkpt lat="51.217417996376753" lon="2.93447102420032">
        <ele>4.94</ele>
        <time>2018-07-02T07:46:25Z</time>
      </trkpt>
      <trkpt lat="51.216663960367441" lon="2.932785004377365">
        <ele>6.87</ele>
        <time>2018-07-02T07:46:36Z</time>
      </trkpt>
      <trkpt lat="51.216106982901692" lon="2.931373994797468">
        <ele>5.91</ele>
        <time>2018-07-02T07:46:45Z</time>
      </trkpt>
      <trkpt lat="51.215933980420232" lon="2.930072033777833">
        <ele>5.91</ele>
        <time>2018-07-02T07:46:54Z</time>
      </trkpt>
      <trkpt lat="51.215942027047276" lon="2.929791994392872">
        <ele>6.39</ele>
        <time>2018-07-02T07:46:56Z</time>
      </trkpt>
      <trkpt lat="51.215949989855289" lon="2.92965897358954">
        <ele>6.87</ele>
        <time>2018-07-02T07:46:57Z</time>
      </trkpt>
      <trkpt lat="51.216016039252281" lon="2.929381029680371">
        <ele>7.35</ele>
        <time>2018-07-02T07:46:59Z</time>
      </trkpt>
      <trkpt lat="51.216086028143764" lon="2.929084980860353">
        <ele>7.35</ele>
        <time>2018-07-02T07:47:01Z</time>
      </trkpt>
      <trkpt lat="51.21612299233675" lon="2.92892899364233">
        <ele>6.87</ele>
        <time>2018-07-02T07:47:02Z</time>
      </trkpt>
      <trkpt lat="51.216137995943427" lon="2.928749034181237">
        <ele>6.87</ele>
        <time>2018-07-02T07:47:03Z</time>
      </trkpt>
      <trkpt lat="51.216137995943427" lon="2.928577037528157">
        <ele>6.39</ele>
        <time>2018-07-02T07:47:04Z</time>
      </trkpt>
      <trkpt lat="51.216137995943427" lon="2.928406968712807">
        <ele>6.39</ele>
        <time>2018-07-02T07:47:05Z</time>
      </trkpt>
      <trkpt lat="51.216137995943427" lon="2.92824000120163">
        <ele>6.39</ele>
        <time>2018-07-02T07:47:06Z</time>
      </trkpt>
      <trkpt lat="51.216137995943427" lon="2.928074039518833">
        <ele>6.39</ele>
        <time>2018-07-02T07:47:07Z</time>
      </trkpt>
      <trkpt lat="51.216164985671639" lon="2.927927020937204">
        <ele>6.39</ele>
        <time>2018-07-02T07:47:08Z</time>
      </trkpt>
      <trkpt lat="51.216227011755109" lon="2.927792994305491">
        <ele>6.39</ele>
        <time>2018-07-02T07:47:09Z</time>
      </trkpt>
      <trkpt lat="51.216290965676308" lon="2.927656034007669">
        <ele>6.39</ele>
        <time>2018-07-02T07:47:10Z</time>
      </trkpt>
      <trkpt lat="51.216355003416538" lon="2.927516978234053">
        <ele>6.87</ele>
        <time>2018-07-02T07:47:11Z</time>
      </trkpt>
      <trkpt lat="51.217036033049226" lon="2.925854008644819">
        <ele>6.39</ele>
        <time>2018-07-02T07:47:21Z</time>
      </trkpt>
      <trkpt lat="51.217474993318319" lon="2.924096994102001">
        <ele>4.94</ele>
        <time>2018-07-02T07:47:31Z</time>
      </trkpt>
      <trkpt lat="51.218066001310945" lon="2.92170898988843">
        <ele>4.94</ele>
        <time>2018-07-02T07:47:44Z</time>
      </trkpt>
      <trkpt lat="51.218619039282203" lon="2.919918028637767">
        <ele>4.94</ele>
        <time>2018-07-02T07:47:54Z</time>
      </trkpt>
      <trkpt lat="51.219433005899191" lon="2.918680021539331">
        <ele>5.91</ele>
        <time>2018-07-02T07:48:03Z</time>
      </trkpt>
      <trkpt lat="51.220433972775936" lon="2.917974013835192">
        <ele>7.83</ele>
        <time>2018-07-02T07:48:12Z</time>
      </trkpt>
      <trkpt lat="51.221324969083071" lon="2.917763963341713">
        <ele>9.27</ele>
        <time>2018-07-02T07:48:21Z</time>
      </trkpt>
      <trkpt lat="51.22153501957655" lon="2.917757006362081">
        <ele>7.83</ele>
        <time>2018-07-02T07:48:28Z</time>
      </trkpt>
      <trkpt lat="51.221640966832638" lon="2.917752983048558">
        <ele>7.83</ele>
        <time>2018-07-02T07:48:41Z</time>
      </trkpt>
      <trkpt lat="51.222259970381856" lon="2.917871000245214">
        <ele>8.310000000000001</ele>
        <time>2018-07-02T07:48:47Z</time>
      </trkpt>
      <trkpt lat="51.223715990781784" lon="2.918509030714631">
        <ele>7.83</ele>
        <time>2018-07-02T07:48:57Z</time>
      </trkpt>
      <trkpt lat="51.224998002871871" lon="2.919151000678539">
        <ele>5.91</ele>
        <time>2018-07-02T07:49:07Z</time>
      </trkpt>
      <trkpt lat="51.225497983396053" lon="2.91943296790123">
        <ele>6.39</ele>
        <time>2018-07-02T07:49:14Z</time>
      </trkpt>
      <trkpt lat="51.225538970902562" lon="2.919483007863164">
        <ele>6.39</ele>
        <time>2018-07-02T07:49:15Z</time>
      </trkpt>
      <trkpt lat="51.225590016692877" lon="2.919564982876182">
        <ele>6.39</ele>
        <time>2018-07-02T07:49:16Z</time>
      </trkpt>
      <trkpt lat="51.225651036947966" lon="2.919762963429093">
        <ele>6.87</ele>
        <time>2018-07-02T07:49:18Z</time>
      </trkpt>
      <trkpt lat="51.225685989484191" lon="2.919831024482846">
        <ele>6.87</ele>
        <time>2018-07-02T07:49:19Z</time>
      </trkpt>
      <trkpt lat="51.225741980597377" lon="2.919886009767652">
        <ele>6.87</ele>
        <time>2018-07-02T07:49:20Z</time>
      </trkpt>
      <trkpt lat="51.225794032216072" lon="2.919938983395696">
        <ele>7.35</ele>
        <time>2018-07-02T07:49:21Z</time>
      </trkpt>
      <trkpt lat="51.225838959217072" lon="2.919934038072825">
        <ele>7.83</ele>
        <time>2018-07-02T07:49:22Z</time>
      </trkpt>
      <trkpt lat="51.22589897364378" lon="2.91992699727416">
        <ele>7.83</ele>
        <time>2018-07-02T07:49:23Z</time>
      </trkpt>
      <trkpt lat="51.225957982242107" lon="2.919920040294528">
        <ele>7.83</ele>
        <time>2018-07-02T07:49:24Z</time>
      </trkpt>
      <trkpt lat="51.225986983627081" lon="2.919917022809386">
        <ele>7.83</ele>
        <time>2018-07-02T07:49:25Z</time>
      </trkpt>
      <trkpt lat="51.225986983627081" lon="2.919917022809386">
        <ele>8.310000000000001</ele>
        <time>2018-07-02T07:49:26Z</time>
      </trkpt>
      <trkpt lat="51.225986983627081" lon="2.919917022809386">
        <ele>8.310000000000001</ele>
        <time>2018-07-02T07:49:27Z</time>
      </trkpt>
      <trkpt lat="51.226233998313546" lon="2.91994996368885">
        <ele>8.310000000000001</ele>
        <time>2018-07-02T07:49:28Z</time>
      </trkpt>
      <trkpt lat="51.226261993870139" lon="2.920018024742603">
        <ele>8.310000000000001</ele>
        <time>2018-07-02T07:49:29Z</time>
      </trkpt>
      <trkpt lat="51.226288983598351" lon="2.920080972835422">
        <ele>8.310000000000001</ele>
        <time>2018-07-02T07:49:30Z</time>
      </trkpt>
      <trkpt lat="51.226314967498183" lon="2.92014098726213">
        <ele>8.789999999999999</ele>
        <time>2018-07-02T07:49:31Z</time>
      </trkpt>
      <trkpt lat="51.226340029388666" lon="2.920201001688838">
        <ele>8.789999999999999</ele>
        <time>2018-07-02T07:49:32Z</time>
      </trkpt>
      <trkpt lat="51.226433990523219" lon="2.920421026647091">
        <ele>8.789999999999999</ele>
        <time>2018-07-02T07:49:41Z</time>
      </trkpt>
      <trkpt lat="51.226433990523219" lon="2.920421026647091">
        <ele>8.789999999999999</ele>
        <time>2018-07-02T07:50:05Z</time>
      </trkpt>
      <trkpt lat="51.226433990523219" lon="2.920421026647091">
        <ele>8.789999999999999</ele>
        <time>2018-07-02T07:50:42Z</time>
      </trkpt>
      <trkpt lat="51.226433990523219" lon="2.920421026647091">
        <ele>9.27</ele>
        <time>2018-07-02T07:51:11Z</time>
      </trkpt>
      <trkpt lat="51.226453017443419" lon="2.920466959476471">
        <ele>9.27</ele>
        <time>2018-07-02T07:51:12Z</time>
      </trkpt>
      <trkpt lat="51.22639300301671" lon="2.920324970036745">
        <ele>8.789999999999999</ele>
        <time>2018-07-02T07:51:15Z</time>
      </trkpt>
      <trkpt lat="51.22635000385344" lon="2.920222962275147">
        <ele>8.310000000000001</ele>
        <time>2018-07-02T07:51:16Z</time>
      </trkpt>
      <trkpt lat="51.226304993033409" lon="2.92011802084744">
        <ele>8.310000000000001</ele>
        <time>2018-07-02T07:51:17Z</time>
      </trkpt>
      <trkpt lat="51.226225029677153" lon="2.919930014759302">
        <ele>7.83</ele>
        <time>2018-07-02T07:51:19Z</time>
      </trkpt>
      <trkpt lat="51.226195022463799" lon="2.91986002586782">
        <ele>7.83</ele>
        <time>2018-07-02T07:51:20Z</time>
      </trkpt>
      <trkpt lat="51.226171972230077" lon="2.919805962592363">
        <ele>7.83</ele>
        <time>2018-07-02T07:51:21Z</time>
      </trkpt>
      <trkpt lat="51.226137019693851" lon="2.919723987579346">
        <ele>7.35</ele>
        <time>2018-07-02T07:51:22Z</time>
      </trkpt>
      <trkpt lat="51.226138025522232" lon="2.919713007286191">
        <ele>7.35</ele>
        <time>2018-07-02T07:51:23Z</time>
      </trkpt>
      <trkpt lat="51.226140959188342" lon="2.91966799646616">
        <ele>6.87</ele>
        <time>2018-07-02T07:51:24Z</time>
      </trkpt>
      <trkpt lat="51.226158980280161" lon="2.919423999264836">
        <ele>6.87</ele>
        <time>2018-07-02T07:51:35Z</time>
      </trkpt>
      <trkpt lat="51.226179013028741" lon="2.919354010373354">
        <ele>6.87</ele>
        <time>2018-07-02T07:51:39Z</time>
      </trkpt>
      <trkpt lat="51.226223018020391" lon="2.919209003448486">
        <ele>6.87</ele>
        <time>2018-07-02T07:51:42Z</time>
      </trkpt>
      <trkpt lat="51.226280014961958" lon="2.919129962101579">
        <ele>7.35</ele>
        <time>2018-07-02T07:51:43Z</time>
      </trkpt>
      <trkpt lat="51.226327959448099" lon="2.919063996523619">
        <ele>7.35</ele>
        <time>2018-07-02T07:51:44Z</time>
      </trkpt>
      <trkpt lat="51.226503979414701" lon="2.918819999322295">
        <ele>6.87</ele>
        <time>2018-07-02T07:51:48Z</time>
      </trkpt>
      <trkpt lat="51.226581009104848" lon="2.918728971853852">
        <ele>6.87</ele>
        <time>2018-07-02T07:51:50Z</time>
      </trkpt>
      <trkpt lat="51.226688968017697" lon="2.918595029041171">
        <ele>6.39</ele>
        <time>2018-07-02T07:51:58Z</time>
      </trkpt>
      <trkpt lat="51.226688968017697" lon="2.918595029041171">
        <ele>5.91</ele>
        <time>2018-07-02T07:52:37Z</time>
      </trkpt>
      <trkpt lat="51.226888038218021" lon="2.918351031839848">
        <ele>6.39</ele>
        <time>2018-07-02T07:52:45Z</time>
      </trkpt>
      <trkpt lat="51.227072020992637" lon="2.918109968304634">
        <ele>0.14</ele>
        <time>2018-07-02T07:52:56Z</time>
      </trkpt>
      <trkpt lat="51.227219039574265" lon="2.918193032965064">
        <ele>-0.34</ele>
        <time>2018-07-02T07:52:57Z</time>
      </trkpt>
      <trkpt lat="51.227235971018672" lon="2.918260004371405">
        <ele>-1.3</ele>
        <time>2018-07-02T07:52:58Z</time>
      </trkpt>
      <trkpt lat="51.227257009595633" lon="2.918341979384422">
        <ele>-1.79</ele>
        <time>2018-07-02T07:52:59Z</time>
      </trkpt>
      <trkpt lat="51.227281987667084" lon="2.918434012681246">
        <ele>-1.79</ele>
        <time>2018-07-02T07:53:00Z</time>
      </trkpt>
      <trkpt lat="51.227526990696788" lon="2.919348981231451">
        <ele>-5.15</ele>
        <time>2018-07-02T07:53:10Z</time>
      </trkpt>
      <trkpt lat="51.227570995688438" lon="2.919517960399389">
        <ele>-5.63</ele>
        <time>2018-07-02T07:53:12Z</time>
      </trkpt>
      <trkpt lat="51.227593962103128" lon="2.91960303671658">
        <ele>-6.11</ele>
        <time>2018-07-02T07:53:13Z</time>
      </trkpt>
      <trkpt lat="51.22761600650847" lon="2.919685011729598">
        <ele>-6.11</ele>
        <time>2018-07-02T07:53:14Z</time>
      </trkpt>
      <trkpt lat="51.227935021743178" lon="2.920877002179623">
        <ele>-6.59</ele>
        <time>2018-07-02T07:53:25Z</time>
      </trkpt>
      <trkpt lat="51.228357972577214" lon="2.922437964007258">
        <ele>-5.15</ele>
        <time>2018-07-02T07:53:38Z</time>
      </trkpt>
      <trkpt lat="51.228588977828622" lon="2.92310499586165">
        <ele>-4.19</ele>
        <time>2018-07-02T07:53:44Z</time>
      </trkpt>
      <trkpt lat="51.228624014183879" lon="2.923189988359809">
        <ele>-3.71</ele>
        <time>2018-07-02T07:53:45Z</time>
      </trkpt>
      <trkpt lat="51.228657038882375" lon="2.923270035535097">
        <ele>-3.71</ele>
        <time>2018-07-02T07:53:46Z</time>
      </trkpt>
      <trkpt lat="51.228690985590219" lon="2.923349998891354">
        <ele>-3.23</ele>
        <time>2018-07-02T07:53:47Z</time>
      </trkpt>
      <trkpt lat="51.228735996410251" lon="2.923376988619566">
        <ele>-2.27</ele>
        <time>2018-07-02T07:53:48Z</time>
      </trkpt>
      <trkpt lat="51.228791987523437" lon="2.923410013318062">
        <ele>-1.79</ele>
        <time>2018-07-02T07:53:49Z</time>
      </trkpt>
      <trkpt lat="51.228848984465003" lon="2.923443960025907">
        <ele>-1.79</ele>
        <time>2018-07-02T07:53:50Z</time>
      </trkpt>
      <trkpt lat="51.22890698723495" lon="2.923476984724402">
        <ele>-1.3</ele>
        <time>2018-07-02T07:53:51Z</time>
      </trkpt>
      <trkpt lat="51.228959960862994" lon="2.923509003594518">
        <ele>-1.3</ele>
        <time>2018-07-02T07:53:52Z</time>
      </trkpt>
      <trkpt lat="51.229008994996548" lon="2.923538004979491">
        <ele>-1.3</ele>
        <time>2018-07-02T07:53:53Z</time>
      </trkpt>
      <trkpt lat="51.229280987754464" lon="2.923655016347766">
        <ele>0.62</ele>
        <time>2018-07-02T07:54:01Z</time>
      </trkpt>
      <trkpt lat="51.229525990784168" lon="2.923745959997177">
        <ele>2.54</ele>
        <time>2018-07-02T07:54:07Z</time>
      </trkpt>
      <trkpt lat="51.229558009654284" lon="2.923759035766125">
        <ele>2.54</ele>
        <time>2018-07-02T07:54:08Z</time>
      </trkpt>
      <trkpt lat="51.229586005210876" lon="2.923769010230899">
        <ele>2.54</ele>
        <time>2018-07-02T07:54:09Z</time>
      </trkpt>
      <trkpt lat="51.229763031005859" lon="2.92379298247397">
        <ele>5.42</ele>
        <time>2018-07-02T07:54:17Z</time>
      </trkpt>
      <trkpt lat="51.229835031554103" lon="2.923710001632571">
        <ele>5.91</ele>
        <time>2018-07-02T07:54:18Z</time>
      </trkpt>
      <trkpt lat="51.2298300024122" lon="2.923682006075978">
        <ele>6.39</ele>
        <time>2018-07-02T07:54:19Z</time>
      </trkpt>
      <trkpt lat="51.229825979098678" lon="2.923654010519385">
        <ele>6.87</ele>
        <time>2018-07-02T07:54:20Z</time>
      </trkpt>
      <trkpt lat="51.229822039604187" lon="2.923629032447934">
        <ele>6.87</ele>
        <time>2018-07-02T07:54:21Z</time>
      </trkpt>
      <trkpt lat="51.229822039604187" lon="2.923629032447934">
        <ele>6.87</ele>
        <time>2018-07-02T07:54:22Z</time>
      </trkpt>
      <trkpt lat="51.229822039604187" lon="2.923629032447934">
        <ele>6.87</ele>
        <time>2018-07-02T07:54:23Z</time>
      </trkpt>
      <trkpt lat="51.229822039604187" lon="2.923629032447934">
        <ele>6.87</ele>
        <time>2018-07-02T07:54:44Z</time>
      </trkpt>
      <trkpt lat="51.229822039604187" lon="2.923629032447934">
        <ele>6.87</ele>
        <time>2018-07-02T07:55:34Z</time>
      </trkpt>
      <trkpt lat="51.229822039604187" lon="2.923629032447934">
        <ele>7.35</ele>
        <time>2018-07-02T07:56:22Z</time>
      </trkpt>
      <trkpt lat="51.229618024080992" lon="2.923779990524054">
        <ele>7.83</ele>
        <time>2018-07-02T07:56:28Z</time>
      </trkpt>
      <trkpt lat="51.229591034352779" lon="2.923583015799522">
        <ele>8.310000000000001</ele>
        <time>2018-07-02T07:56:29Z</time>
      </trkpt>
      <trkpt lat="51.229592962190509" lon="2.923603970557451">
        <ele>8.310000000000001</ele>
        <time>2018-07-02T07:56:30Z</time>
      </trkpt>
      <trkpt lat="51.229580976068974" lon="2.923766998574138">
        <ele>8.789999999999999</ele>
        <time>2018-07-02T07:56:40Z</time>
      </trkpt>
      <trkpt lat="51.229612994939089" lon="2.923779990524054">
        <ele>8.789999999999999</ele>
        <time>2018-07-02T07:56:41Z</time>
      </trkpt>
      <trkpt lat="51.229659011587501" lon="2.923783008009195">
        <ele>8.789999999999999</ele>
        <time>2018-07-02T07:56:42Z</time>
      </trkpt>
      <trkpt lat="51.229699999094009" lon="2.923787031322718">
        <ele>8.789999999999999</ele>
        <time>2018-07-02T07:56:43Z</time>
      </trkpt>
      <trkpt lat="51.229735035449266" lon="2.923789964988828">
        <ele>9.27</ele>
        <time>2018-07-02T07:56:44Z</time>
      </trkpt>
      <trkpt lat="51.229763031005859" lon="2.92379298247397">
        <ele>9.27</ele>
        <time>2018-07-02T07:56:45Z</time>
      </trkpt>
      <trkpt lat="51.230080034583807" lon="2.923696003854275">
        <ele>9.75</ele>
        <time>2018-07-02T07:56:56Z</time>
      </trkpt>
      <trkpt lat="51.230777995660901" lon="2.923332983627915">
        <ele>10.710000000000001</ele>
        <time>2018-07-02T07:57:08Z</time>
      </trkpt>
      <trkpt lat="51.230830969288945" lon="2.923302976414561">
        <ele>10.710000000000001</ele>
        <time>2018-07-02T07:57:11Z</time>
      </trkpt>
      <trkpt lat="51.230846978724003" lon="2.923294007778168">
        <ele>10.710000000000001</ele>
        <time>2018-07-02T07:57:12Z</time>
      </trkpt>
      <trkpt lat="51.230867011472583" lon="2.923283027485013">
        <ele>10.710000000000001</ele>
        <time>2018-07-02T07:57:13Z</time>
      </trkpt>
      <trkpt lat="51.231277976185083" lon="2.923065014183521">
        <ele>10.710000000000001</ele>
        <time>2018-07-02T07:57:21Z</time>
      </trkpt>
      <trkpt lat="51.232151035219431" lon="2.922585988417268">
        <ele>11.19</ele>
        <time>2018-07-02T07:57:35Z</time>
      </trkpt>
      <trkpt lat="51.232206020504236" lon="2.922557992860675">
        <ele>11.19</ele>
        <time>2018-07-02T07:57:36Z</time>
      </trkpt>
      <trkpt lat="51.233152002096176" lon="2.922085002064705">
        <ele>12.630000000000001</ele>
        <time>2018-07-02T07:57:51Z</time>
      </trkpt>
      <trkpt lat="51.233949959278107" lon="2.921657022088766">
        <ele>13.6</ele>
        <time>2018-07-02T07:58:03Z</time>
      </trkpt>
      <trkpt lat="51.234473995864391" lon="2.921359967440367">
        <ele>14.08</ele>
        <time>2018-07-02T07:58:12Z</time>
      </trkpt>
      <trkpt lat="51.234518000856042" lon="2.921329038217664">
        <ele>14.56</ele>
        <time>2018-07-02T07:58:13Z</time>
      </trkpt>
      <trkpt lat="51.234563011676073" lon="2.921297019347549">
        <ele>14.56</ele>
        <time>2018-07-02T07:58:14Z</time>
      </trkpt>
      <trkpt lat="51.234607016667724" lon="2.921266006305814">
        <ele>14.56</ele>
        <time>2018-07-02T07:58:15Z</time>
      </trkpt>
      <trkpt lat="51.234648004174232" lon="2.921226024627686">
        <ele>14.56</ele>
        <time>2018-07-02T07:58:16Z</time>
      </trkpt>
      <trkpt lat="51.2346859741956" lon="2.921165004372597">
        <ele>14.56</ele>
        <time>2018-07-02T07:58:17Z</time>
      </trkpt>
      <trkpt lat="51.234741965308785" lon="2.921075988560915">
        <ele>14.56</ele>
        <time>2018-07-02T07:58:18Z</time>
      </trkpt>
      <trkpt lat="51.234755041077733" lon="2.921028966084123">
        <ele>14.56</ele>
        <time>2018-07-02T07:58:19Z</time>
      </trkpt>
      <trkpt lat="51.234775995835662" lon="2.920954031869769">
        <ele>14.08</ele>
        <time>2018-07-02T07:58:20Z</time>
      </trkpt>
      <trkpt lat="51.234902981668711" lon="2.920501995831728">
        <ele>13.6</ele>
        <time>2018-07-02T07:58:26Z</time>
      </trkpt>
      <trkpt lat="51.234924020245671" lon="2.920426977798343">
        <ele>13.6</ele>
        <time>2018-07-02T07:58:27Z</time>
      </trkpt>
      <trkpt lat="51.234982023015618" lon="2.920216005295515">
        <ele>13.6</ele>
        <time>2018-07-02T07:58:30Z</time>
      </trkpt>
      <trkpt lat="51.235000966116786" lon="2.920150961726904">
        <ele>13.6</ele>
        <time>2018-07-02T07:58:31Z</time>
      </trkpt>
      <trkpt lat="51.235015969723463" lon="2.920096982270479">
        <ele>13.119999999999999</ele>
        <time>2018-07-02T07:58:32Z</time>
      </trkpt>
      <trkpt lat="51.235028961673379" lon="2.920049959793687">
        <ele>12.630000000000001</ele>
        <time>2018-07-02T07:58:33Z</time>
      </trkpt>
      <trkpt lat="51.235042037442327" lon="2.920003021135926">
        <ele>12.630000000000001</ele>
        <time>2018-07-02T07:58:34Z</time>
      </trkpt>
      <trkpt lat="51.23505000025034" lon="2.919975025579333">
        <ele>12.630000000000001</ele>
        <time>2018-07-02T07:58:35Z</time>
      </trkpt>
      <trkpt lat="51.235058968886733" lon="2.919936971738935">
        <ele>12.630000000000001</ele>
        <time>2018-07-02T07:58:36Z</time>
      </trkpt>
      <trkpt lat="51.235102973878384" lon="2.919768998399377">
        <ele>11.67</ele>
        <time>2018-07-02T07:58:47Z</time>
      </trkpt>
      <trkpt lat="51.235102973878384" lon="2.919768998399377">
        <ele>11.67</ele>
        <time>2018-07-02T07:59:28Z</time>
      </trkpt>
      <trkpt lat="51.235183021053672" lon="2.919466998428106">
        <ele>10.710000000000001</ele>
        <time>2018-07-02T07:59:45Z</time>
      </trkpt>
      <trkpt lat="51.235267007723451" lon="2.919145971536636">
        <ele>9.27</ele>
        <time>2018-07-02T07:59:49Z</time>
      </trkpt>
      <trkpt lat="51.235285028815269" lon="2.918913038447499">
        <ele>6.87</ele>
        <time>2018-07-02T07:59:52Z</time>
      </trkpt>
      <trkpt lat="51.235296009108424" lon="2.918586982414126">
        <ele>3.02</ele>
        <time>2018-07-02T07:59:56Z</time>
      </trkpt>
      <trkpt lat="51.235254015773535" lon="2.918398976325989">
        <ele>1.58</ele>
        <time>2018-07-02T07:59:59Z</time>
      </trkpt>
      <trkpt lat="51.235224008560181" lon="2.918343991041184">
        <ele>0.62</ele>
        <time>2018-07-02T08:00:00Z</time>
      </trkpt>
      <trkpt lat="51.235014041885734" lon="2.917996980249882">
        <ele>-2.27</ele>
        <time>2018-07-02T08:00:06Z</time>
      </trkpt>
      <trkpt lat="51.234972970560193" lon="2.917936965823174">
        <ele>-2.75</ele>
        <time>2018-07-02T08:00:07Z</time>
      </trkpt>
      <trkpt lat="51.234760992228985" lon="2.917618034407497">
        <ele>-4.19</ele>
        <time>2018-07-02T08:00:12Z</time>
      </trkpt>
      <trkpt lat="51.234734002500772" lon="2.917576963081956">
        <ele>-4.67</ele>
        <time>2018-07-02T08:00:13Z</time>
      </trkpt>
      <trkpt lat="51.234572986140847" lon="2.917335983365774">
        <ele>-5.15</ele>
        <time>2018-07-02T08:00:19Z</time>
      </trkpt>
      <trkpt lat="51.234056996181607" lon="2.916570967063308">
        <ele>-2.27</ele>
        <time>2018-07-02T08:00:31Z</time>
      </trkpt>
      <trkpt lat="51.233478980138898" lon="2.91573503986001">
        <ele>2.54</ele>
        <time>2018-07-02T08:00:43Z</time>
      </trkpt>
      <trkpt lat="51.233432963490486" lon="2.915668990463018">
        <ele>3.02</ele>
        <time>2018-07-02T08:00:44Z</time>
      </trkpt>
      <trkpt lat="51.232944969087839" lon="2.914927024394274">
        <ele>7.83</ele>
        <time>2018-07-02T08:00:55Z</time>
      </trkpt>
      <trkpt lat="51.232851007953286" lon="2.914785034954548">
        <ele>7.83</ele>
        <time>2018-07-02T08:00:57Z</time>
      </trkpt>
      <trkpt lat="51.2326879799366" lon="2.914536008611321">
        <ele>7.83</ele>
        <time>2018-07-02T08:01:01Z</time>
      </trkpt>
      <trkpt lat="51.23266501352191" lon="2.914500972256064">
        <ele>7.83</ele>
        <time>2018-07-02T08:01:02Z</time>
      </trkpt>
      <trkpt lat="51.232454041019082" lon="2.914179023355246">
        <ele>7.35</ele>
        <time>2018-07-02T08:01:11Z</time>
      </trkpt>
      <trkpt lat="51.232402995228767" lon="2.914101993665099">
        <ele>6.87</ele>
        <time>2018-07-02T08:01:12Z</time>
      </trkpt>
      <trkpt lat="51.231947019696236" lon="2.913488019257784">
        <ele>6.87</ele>
        <time>2018-07-02T08:01:22Z</time>
      </trkpt>
      <trkpt lat="51.231476962566376" lon="2.912927018478513">
        <ele>6.39</ele>
        <time>2018-07-02T08:01:31Z</time>
      </trkpt>
      <trkpt lat="51.231427006423473" lon="2.912874966859818">
        <ele>5.91</ele>
        <time>2018-07-02T08:01:32Z</time>
      </trkpt>
      <trkpt lat="51.231381995603442" lon="2.912827022373676">
        <ele>5.91</ele>
        <time>2018-07-02T08:01:33Z</time>
      </trkpt>
      <trkpt lat="51.231338996440172" lon="2.912783017382026">
        <ele>5.91</ele>
        <time>2018-07-02T08:01:34Z</time>
      </trkpt>
      <trkpt lat="51.231303960084915" lon="2.912745969370008">
        <ele>5.91</ele>
        <time>2018-07-02T08:01:35Z</time>
      </trkpt>
      <trkpt lat="51.231136992573738" lon="2.912600040435791">
        <ele>6.87</ele>
        <time>2018-07-02T08:01:40Z</time>
      </trkpt>
      <trkpt lat="51.231073038652539" lon="2.912541031837463">
        <ele>7.35</ele>
        <time>2018-07-02T08:01:41Z</time>
      </trkpt>
      <trkpt lat="51.230960972607136" lon="2.912437012419105">
        <ele>7.83</ele>
        <time>2018-07-02T08:01:43Z</time>
      </trkpt>
      <trkpt lat="51.230567023158073" lon="2.912093019112945">
        <ele>8.789999999999999</ele>
        <time>2018-07-02T08:01:49Z</time>
      </trkpt>
      <trkpt lat="51.230127979069948" lon="2.911720024421811">
        <ele>9.75</ele>
        <time>2018-07-02T08:01:57Z</time>
      </trkpt>
      <trkpt lat="51.23008799739182" lon="2.911691023036838">
        <ele>10.23</ele>
        <time>2018-07-02T08:01:58Z</time>
      </trkpt>
      <trkpt lat="51.23004499822855" lon="2.911661015823484">
        <ele>11.19</ele>
        <time>2018-07-02T08:01:59Z</time>
      </trkpt>
      <trkpt lat="51.229937961325049" lon="2.911583986133337">
        <ele>15.039999999999999</ele>
        <time>2018-07-02T08:02:08Z</time>
      </trkpt>
      <trkpt lat="51.229898985475302" lon="2.911556996405125">
        <ele>17.440000000000001</ele>
        <time>2018-07-02T08:03:00Z</time>
      </trkpt>
      <trkpt lat="51.229500006884336" lon="2.911291960626841">
        <ele>22.25</ele>
        <time>2018-07-02T08:03:07Z</time>
      </trkpt>
      <trkpt lat="51.229278976097703" lon="2.91115902364254">
        <ele>23.210000000000001</ele>
        <time>2018-07-02T08:03:10Z</time>
      </trkpt>
      <trkpt lat="51.228513037785888" lon="2.910720985382795">
        <ele>23.690000000000001</ele>
        <time>2018-07-02T08:03:20Z</time>
      </trkpt>
      <trkpt lat="51.228449000045657" lon="2.910684021189809">
        <ele>23.690000000000001</ele>
        <time>2018-07-02T08:03:21Z</time>
      </trkpt>
      <trkpt lat="51.228384040296078" lon="2.910646973177791">
        <ele>23.690000000000001</ele>
        <time>2018-07-02T08:03:22Z</time>
      </trkpt>
      <trkpt lat="51.228320002555847" lon="2.910610008984804">
        <ele>23.690000000000001</ele>
        <time>2018-07-02T08:03:23Z</time>
      </trkpt>
      <trkpt lat="51.2282619997859" lon="2.910576984286308">
        <ele>23.690000000000001</ele>
        <time>2018-07-02T08:03:24Z</time>
      </trkpt>
      <trkpt lat="51.228207014501095" lon="2.910545971244574">
        <ele>23.690000000000001</ele>
        <time>2018-07-02T08:03:25Z</time>
      </trkpt>
      <trkpt lat="51.228197040036321" lon="2.910411022603512">
        <ele>23.690000000000001</ele>
        <time>2018-07-02T08:03:26Z</time>
      </trkpt>
      <trkpt lat="51.22815202921629" lon="2.910355031490326">
        <ele>23.210000000000001</ele>
        <time>2018-07-02T08:03:27Z</time>
      </trkpt>
      <trkpt lat="51.22811196371913" lon="2.910304991528392">
        <ele>22.73</ele>
        <time>2018-07-02T08:03:28Z</time>
      </trkpt>
      <trkpt lat="51.228044992312789" lon="2.910284958779812">
        <ele>21.77</ele>
        <time>2018-07-02T08:03:29Z</time>
      </trkpt>
      <trkpt lat="51.227987995371222" lon="2.910269033163786">
        <ele>21.289999999999999</ele>
        <time>2018-07-02T08:03:30Z</time>
      </trkpt>
      <trkpt lat="51.22796100564301" lon="2.910260986536741">
        <ele>20.809999999999999</ele>
        <time>2018-07-02T08:03:31Z</time>
      </trkpt>
      <trkpt lat="51.227842988446355" lon="2.91030096821487">
        <ele>20.32</ele>
        <time>2018-07-02T08:03:32Z</time>
      </trkpt>
      <trkpt lat="51.227776017040014" lon="2.910270038992167">
        <ele>19.359999999999999</ele>
        <time>2018-07-02T08:03:33Z</time>
      </trkpt>
      <trkpt lat="51.227707033976912" lon="2.910238020122051">
        <ele>18.879999999999999</ele>
        <time>2018-07-02T08:03:34Z</time>
      </trkpt>
      <trkpt lat="51.22763603925705" lon="2.910204995423555">
        <ele>18.399999999999999</ele>
        <time>2018-07-02T08:03:35Z</time>
      </trkpt>
      <trkpt lat="51.227564960718155" lon="2.91017297655344">
        <ele>17.920000000000002</ele>
        <time>2018-07-02T08:03:36Z</time>
      </trkpt>
      <trkpt lat="51.227216022089124" lon="2.910011038184166">
        <ele>16</ele>
        <time>2018-07-02T08:03:41Z</time>
      </trkpt>
      <trkpt lat="51.22671696357429" lon="2.909786989912391">
        <ele>14.08</ele>
        <time>2018-07-02T08:03:48Z</time>
      </trkpt>
      <trkpt lat="51.22664999216795" lon="2.90976201184094">
        <ele>13.6</ele>
        <time>2018-07-02T08:03:49Z</time>
      </trkpt>
      <trkpt lat="51.226580003276467" lon="2.909736027941108">
        <ele>14.08</ele>
        <time>2018-07-02T08:03:50Z</time>
      </trkpt>
      <trkpt lat="51.226310022175312" lon="2.909637037664652">
        <ele>14.56</ele>
        <time>2018-07-02T08:03:55Z</time>
      </trkpt>
      <trkpt lat="51.226270040497184" lon="2.909623039886355">
        <ele>14.56</ele>
        <time>2018-07-02T08:03:56Z</time>
      </trkpt>
      <trkpt lat="51.226179013028741" lon="2.909589009359479">
        <ele>14.08</ele>
        <time>2018-07-02T08:03:58Z</time>
      </trkpt>
      <trkpt lat="51.225583981722593" lon="2.909369990229607">
        <ele>12.15</ele>
        <time>2018-07-02T08:04:07Z</time>
      </trkpt>
      <trkpt lat="51.224571028724313" lon="2.909102020785213">
        <ele>14.56</ele>
        <time>2018-07-02T08:04:20Z</time>
      </trkpt>
      <trkpt lat="51.22426500543952" lon="2.90903496555984">
        <ele>16</ele>
        <time>2018-07-02T08:04:28Z</time>
      </trkpt>
      <trkpt lat="51.22394397854805" lon="2.908953996375203">
        <ele>15.52</ele>
        <time>2018-07-02T08:04:35Z</time>
      </trkpt>
      <trkpt lat="51.223651031032205" lon="2.908876966685057">
        <ele>14.56</ele>
        <time>2018-07-02T08:04:43Z</time>
      </trkpt>
      <trkpt lat="51.222772020846605" lon="2.908643027767539">
        <ele>17.920000000000002</ele>
        <time>2018-07-02T08:04:55Z</time>
      </trkpt>
      <trkpt lat="51.222486030310392" lon="2.908569015562534">
        <ele>21.77</ele>
        <time>2018-07-02T08:04:59Z</time>
      </trkpt>
      <trkpt lat="51.222188975661993" lon="2.908479999750853">
        <ele>25.129999999999999</ele>
        <time>2018-07-02T08:05:03Z</time>
      </trkpt>
      <trkpt lat="51.222103983163834" lon="2.908456027507782">
        <ele>26.09</ele>
        <time>2018-07-02T08:05:04Z</time>
      </trkpt>
      <trkpt lat="51.222018990665674" lon="2.90843297727406">
        <ele>26.57</ele>
        <time>2018-07-02T08:05:05Z</time>
      </trkpt>
      <trkpt lat="51.221026992425323" lon="2.908168025314808">
        <ele>23.690000000000001</ele>
        <time>2018-07-02T08:05:17Z</time>
      </trkpt>
      <trkpt lat="51.220501028001308" lon="2.908028969541192">
        <ele>14.08</ele>
        <time>2018-07-02T08:05:25Z</time>
      </trkpt>
      <trkpt lat="51.220349986106157" lon="2.907990999519825">
        <ele>11.19</ele>
        <time>2018-07-02T08:05:28Z</time>
      </trkpt>
      <trkpt lat="51.220292989164591" lon="2.907975995913148">
        <ele>10.23</ele>
        <time>2018-07-02T08:05:29Z</time>
      </trkpt>
      <trkpt lat="51.220232974737883" lon="2.907960992306471">
        <ele>9.27</ele>
        <time>2018-07-02T08:05:30Z</time>
      </trkpt>
      <trkpt lat="51.220169020816684" lon="2.907943977043033">
        <ele>8.789999999999999</ele>
        <time>2018-07-02T08:05:31Z</time>
      </trkpt>
      <trkpt lat="51.220104983076453" lon="2.907927967607975">
        <ele>7.83</ele>
        <time>2018-07-02T08:05:32Z</time>
      </trkpt>
      <trkpt lat="51.220034994184971" lon="2.907910030335188">
        <ele>6.87</ele>
        <time>2018-07-02T08:05:33Z</time>
      </trkpt>
      <trkpt lat="51.219957964494824" lon="2.907886980101466">
        <ele>6.39</ele>
        <time>2018-07-02T08:05:34Z</time>
      </trkpt>
      <trkpt lat="51.219871966168284" lon="2.907857978716493">
        <ele>6.39</ele>
        <time>2018-07-02T08:05:35Z</time>
      </trkpt>
      <trkpt lat="51.219702987000346" lon="2.907817997038364">
        <ele>7.35</ele>
        <time>2018-07-02T08:05:37Z</time>
      </trkpt>
      <trkpt lat="51.219065962359309" lon="2.907656980678439">
        <ele>8.789999999999999</ele>
        <time>2018-07-02T08:05:44Z</time>
      </trkpt>
      <trkpt lat="51.218285020440817" lon="2.907457994297147">
        <ele>12.15</ele>
        <time>2018-07-02T08:05:54Z</time>
      </trkpt>
      <trkpt lat="51.21818502433598" lon="2.907432010397315">
        <ele>12.630000000000001</ele>
        <time>2018-07-02T08:06:02Z</time>
      </trkpt>
      <trkpt lat="51.218173038214445" lon="2.907428992912173">
        <ele>12.630000000000001</ele>
        <time>2018-07-02T08:06:13Z</time>
      </trkpt>
      <trkpt lat="51.218139007687569" lon="2.90742002427578">
        <ele>13.119999999999999</ele>
        <time>2018-07-02T08:06:14Z</time>
      </trkpt>
      <trkpt lat="51.218091985210776" lon="2.907408960163593">
        <ele>13.6</ele>
        <time>2018-07-02T08:06:15Z</time>
      </trkpt>
      <trkpt lat="51.217345995828509" lon="2.907223971560597">
        <ele>16.48</ele>
        <time>2018-07-02T08:06:26Z</time>
      </trkpt>
      <trkpt lat="51.216941988095641" lon="2.907121041789651">
        <ele>16.960000000000001</ele>
        <time>2018-07-02T08:06:32Z</time>
      </trkpt>
      <trkpt lat="51.216890020295978" lon="2.907107966020703">
        <ele>16.960000000000001</ele>
        <time>2018-07-02T08:06:33Z</time>
      </trkpt>
      <trkpt lat="51.216542003676295" lon="2.907021967694163">
        <ele>16</ele>
        <time>2018-07-02T08:06:39Z</time>
      </trkpt>
      <trkpt lat="51.21648701839149" lon="2.907007969915867">
        <ele>16</ele>
        <time>2018-07-02T08:06:40Z</time>
      </trkpt>
      <trkpt lat="51.215939009562135" lon="2.906875032931566">
        <ele>15.039999999999999</ele>
        <time>2018-07-02T08:06:50Z</time>
      </trkpt>
      <trkpt lat="51.215618988499045" lon="2.906794985756278">
        <ele>10.710000000000001</ele>
        <time>2018-07-02T08:06:58Z</time>
      </trkpt>
      <trkpt lat="51.214975006878376" lon="2.90662600658834">
        <ele>9.75</ele>
        <time>2018-07-02T08:07:07Z</time>
      </trkpt>
      <trkpt lat="51.214838968589902" lon="2.906586024910212">
        <ele>9.27</ele>
        <time>2018-07-02T08:07:09Z</time>
      </trkpt>
      <trkpt lat="51.214776020497084" lon="2.906568003818393">
        <ele>9.27</ele>
        <time>2018-07-02T08:07:10Z</time>
      </trkpt>
      <trkpt lat="51.214592037722468" lon="2.906521987169981">
        <ele>11.19</ele>
        <time>2018-07-02T08:07:18Z</time>
      </trkpt>
      <trkpt lat="51.214592037722468" lon="2.906521987169981">
        <ele>11.19</ele>
        <time>2018-07-02T08:07:50Z</time>
      </trkpt>
      <trkpt lat="51.21425298973918" lon="2.906439006328583">
        <ele>17.440000000000001</ele>
        <time>2018-07-02T08:08:06Z</time>
      </trkpt>
      <trkpt lat="51.214068001136184" lon="2.906402964144945">
        <ele>18.879999999999999</ele>
        <time>2018-07-02T08:08:09Z</time>
      </trkpt>
      <trkpt lat="51.213323017582297" lon="2.90619702078402">
        <ele>19.359999999999999</ele>
        <time>2018-07-02T08:08:19Z</time>
      </trkpt>
      <trkpt lat="51.212175032123923" lon="2.905886974185705">
        <ele>18.879999999999999</ele>
        <time>2018-07-02T08:08:33Z</time>
      </trkpt>
      <trkpt lat="51.210924033075571" lon="2.905562007799745">
        <ele>18.399999999999999</ele>
        <time>2018-07-02T08:08:46Z</time>
      </trkpt>
      <trkpt lat="51.209795996546745" lon="2.90527299977839">
        <ele>16.960000000000001</ele>
        <time>2018-07-02T08:08:57Z</time>
      </trkpt>
      <trkpt lat="51.209332980215549" lon="2.905140984803438">
        <ele>17.440000000000001</ele>
        <time>2018-07-02T08:09:01Z</time>
      </trkpt>
      <trkpt lat="51.209208006039262" lon="2.905105026438832">
        <ele>17.920000000000002</ele>
        <time>2018-07-02T08:09:02Z</time>
      </trkpt>
      <trkpt lat="51.208378029987216" lon="2.904885001480579">
        <ele>20.32</ele>
        <time>2018-07-02T08:09:10Z</time>
      </trkpt>
      <trkpt lat="51.206981018185616" lon="2.904530027881265">
        <ele>16.48</ele>
        <time>2018-07-02T08:09:25Z</time>
      </trkpt>
      <trkpt lat="51.205596998333931" lon="2.904157033190131">
        <ele>14.08</ele>
        <time>2018-07-02T08:09:40Z</time>
      </trkpt>
      <trkpt lat="51.204725028946996" lon="2.903910018503666">
        <ele>10.710000000000001</ele>
        <time>2018-07-02T08:09:51Z</time>
      </trkpt>
      <trkpt lat="51.204554960131645" lon="2.903857966884971">
        <ele>8.789999999999999</ele>
        <time>2018-07-02T08:09:54Z</time>
      </trkpt>
      <trkpt lat="51.204386986792088" lon="2.903773980215192">
        <ele>6.39</ele>
        <time>2018-07-02T08:10:02Z</time>
      </trkpt>
      <trkpt lat="51.204336024820805" lon="2.903587985783815">
        <ele>5.91</ele>
        <time>2018-07-02T08:10:04Z</time>
      </trkpt>
      <trkpt lat="51.204330995678902" lon="2.90357599966228">
        <ele>5.42</ele>
        <time>2018-07-02T08:10:05Z</time>
      </trkpt>
      <trkpt lat="51.204247009009123" lon="2.903372989967465">
        <ele>4.94</ele>
        <time>2018-07-02T08:10:08Z</time>
      </trkpt>
      <trkpt lat="51.204190012067556" lon="2.903329990804195">
        <ele>4.94</ele>
        <time>2018-07-02T08:10:09Z</time>
      </trkpt>
      <trkpt lat="51.204143995419145" lon="2.903329990804195">
        <ele>4.46</ele>
        <time>2018-07-02T08:10:10Z</time>
      </trkpt>
      <trkpt lat="51.204092027619481" lon="2.903329990804195">
        <ele>3.98</ele>
        <time>2018-07-02T08:10:11Z</time>
      </trkpt>
      <trkpt lat="51.204036958515644" lon="2.903329990804195">
        <ele>3.98</ele>
        <time>2018-07-02T08:10:12Z</time>
      </trkpt>
      <trkpt lat="51.203979039564729" lon="2.903392016887665">
        <ele>3.98</ele>
        <time>2018-07-02T08:10:13Z</time>
      </trkpt>
      <trkpt lat="51.203962024301291" lon="2.90346602909267">
        <ele>3.98</ele>
        <time>2018-07-02T08:10:14Z</time>
      </trkpt>
      <trkpt lat="51.203945009037852" lon="2.903540041297674">
        <ele>3.98</ele>
        <time>2018-07-02T08:10:15Z</time>
      </trkpt>
      <trkpt lat="51.203864961862564" lon="2.903593014925718">
        <ele>3.5</ele>
        <time>2018-07-02T08:10:16Z</time>
      </trkpt>
      <trkpt lat="51.203818023204803" lon="2.903583962470293">
        <ele>3.5</ele>
        <time>2018-07-02T08:10:17Z</time>
      </trkpt>
      <trkpt lat="51.203762032091618" lon="2.90357599966228">
        <ele>3.5</ele>
        <time>2018-07-02T08:10:18Z</time>
      </trkpt>
      <trkpt lat="51.203694976866245" lon="2.903565019369125">
        <ele>3.5</ele>
        <time>2018-07-02T08:10:19Z</time>
      </trkpt>
      <trkpt lat="51.203618030995131" lon="2.90355303324759">
        <ele>3.5</ele>
        <time>2018-07-02T08:10:20Z</time>
      </trkpt>
      <trkpt lat="51.203534966334701" lon="2.903540041297674">
        <ele>3.5</ele>
        <time>2018-07-02T08:10:21Z</time>
      </trkpt>
      <trkpt lat="51.202602982521057" lon="2.903328984975815">
        <ele>3.5</ele>
        <time>2018-07-02T08:10:32Z</time>
      </trkpt>
      <trkpt lat="51.201689019799232" lon="2.903110971674323">
        <ele>4.94</ele>
        <time>2018-07-02T08:10:44Z</time>
      </trkpt>
      <trkpt lat="51.200795006006956" lon="2.902880972251296">
        <ele>4.46</ele>
        <time>2018-07-02T08:10:56Z</time>
      </trkpt>
      <trkpt lat="51.200057985261083" lon="2.902687015011907">
        <ele>3.98</ele>
        <time>2018-07-02T08:11:07Z</time>
      </trkpt>
      <trkpt lat="51.199411991983652" lon="2.902517030015588">
        <ele>3.5</ele>
        <time>2018-07-02T08:11:17Z</time>
      </trkpt>
      <trkpt lat="51.198615040630102" lon="2.902305973693728">
        <ele>3.98</ele>
        <time>2018-07-02T08:11:29Z</time>
      </trkpt>
      <trkpt lat="51.197655983269215" lon="2.902053007856011">
        <ele>2.54</ele>
        <time>2018-07-02T08:11:39Z</time>
      </trkpt>
      <trkpt lat="51.196157969534397" lon="2.901656040921807">
        <ele>2.54</ele>
        <time>2018-07-02T08:11:53Z</time>
      </trkpt>
      <trkpt lat="51.194948963820934" lon="2.901339959353209">
        <ele>3.98</ele>
        <time>2018-07-02T08:12:05Z</time>
      </trkpt>
      <trkpt lat="51.193529991433024" lon="2.900981968268752">
        <ele>3.98</ele>
        <time>2018-07-02T08:12:17Z</time>
      </trkpt>
      <trkpt lat="51.191796027123928" lon="2.900530016049743">
        <ele>4.46</ele>
        <time>2018-07-02T08:12:30Z</time>
      </trkpt>
      <trkpt lat="51.189419003203511" lon="2.899912018328905">
        <ele>5.42</ele>
        <time>2018-07-02T08:12:44Z</time>
      </trkpt>
      <trkpt lat="51.18752796202898" lon="2.899413965642452">
        <ele>7.35</ele>
        <time>2018-07-02T08:12:56Z</time>
      </trkpt>
      <trkpt lat="51.185797015205026" lon="2.898995960131288">
        <ele>6.39</ele>
        <time>2018-07-02T08:13:10Z</time>
      </trkpt>
      <trkpt lat="51.184636959806085" lon="2.899032002314925">
        <ele>4.94</ele>
        <time>2018-07-02T08:13:19Z</time>
      </trkpt>
      <trkpt lat="51.183124026283622" lon="2.899744966998696">
        <ele>3.98</ele>
        <time>2018-07-02T08:13:30Z</time>
      </trkpt>
      <trkpt lat="51.182019961997867" lon="2.901013987138867">
        <ele>3.5</ele>
        <time>2018-07-02T08:13:38Z</time>
      </trkpt>
      <trkpt lat="51.18075798265636" lon="2.903018016368151">
        <ele>2.06</ele>
        <time>2018-07-02T08:13:49Z</time>
      </trkpt>
      <trkpt lat="51.178752025589347" lon="2.906281007453799">
        <ele>3.98</ele>
        <time>2018-07-02T08:14:09Z</time>
      </trkpt>
      <trkpt lat="51.176772974431515" lon="2.909523965790868">
        <ele>5.42</ele>
        <time>2018-07-02T08:14:28Z</time>
      </trkpt>
      <trkpt lat="51.174973966553807" lon="2.912456961348653">
        <ele>11.19</ele>
        <time>2018-07-02T08:14:45Z</time>
      </trkpt>
      <trkpt lat="51.173970988020301" lon="2.914094030857086">
        <ele>12.630000000000001</ele>
        <time>2018-07-02T08:14:56Z</time>
      </trkpt>
      <trkpt lat="51.173048978671432" lon="2.915593972429633">
        <ele>8.310000000000001</ele>
        <time>2018-07-02T08:15:05Z</time>
      </trkpt>
      <trkpt lat="51.172643965110183" lon="2.916252035647631">
        <ele>5.42</ele>
        <time>2018-07-02T08:15:11Z</time>
      </trkpt>
      <trkpt lat="51.172614963725209" lon="2.916297968477011">
        <ele>4.94</ele>
        <time>2018-07-02T08:15:12Z</time>
      </trkpt>
      <trkpt lat="51.172475991770625" lon="2.916228985413909">
        <ele>4.46</ele>
        <time>2018-07-02T08:15:13Z</time>
      </trkpt>
      <trkpt lat="51.17246501147747" lon="2.916163019835949">
        <ele>4.46</ele>
        <time>2018-07-02T08:15:14Z</time>
      </trkpt>
      <trkpt lat="51.172451013699174" lon="2.9160809610039">
        <ele>3.98</ele>
        <time>2018-07-02T08:15:15Z</time>
      </trkpt>
      <trkpt lat="51.172467023134232" lon="2.915983982384205">
        <ele>3.5</ele>
        <time>2018-07-02T08:15:16Z</time>
      </trkpt>
      <trkpt lat="51.172493007034063" lon="2.915839981287718">
        <ele>3.5</ele>
        <time>2018-07-02T08:15:17Z</time>
      </trkpt>
      <trkpt lat="51.172536006197333" lon="2.915781978517771">
        <ele>3.5</ele>
        <time>2018-07-02T08:15:18Z</time>
      </trkpt>
      <trkpt lat="51.172600965946913" lon="2.91569396853447">
        <ele>3.02</ele>
        <time>2018-07-02T08:15:19Z</time>
      </trkpt>
      <trkpt lat="51.173241008073092" lon="2.914824010804296">
        <ele>2.54</ele>
        <time>2018-07-02T08:15:26Z</time>
      </trkpt>
      <trkpt lat="51.17386101745069" lon="2.913719024509192">
        <ele>3.5</ele>
        <time>2018-07-02T08:15:34Z</time>
      </trkpt>
      <trkpt lat="51.174007030203938" lon="2.913448037579656">
        <ele>3.98</ele>
        <time>2018-07-02T08:15:37Z</time>
      </trkpt>
      <trkpt lat="51.174133010208607" lon="2.913214014843106">
        <ele>4.94</ele>
        <time>2018-07-02T08:15:42Z</time>
      </trkpt>
      <trkpt lat="51.174153964966536" lon="2.913175038993359">
        <ele>5.42</ele>
        <time>2018-07-02T08:15:43Z</time>
      </trkpt>
      <trkpt lat="51.174177015200257" lon="2.913132039830089">
        <ele>5.42</ele>
        <time>2018-07-02T08:15:44Z</time>
      </trkpt>
      <trkpt lat="51.174210039898753" lon="2.91307202540338">
        <ele>5.91</ele>
        <time>2018-07-02T08:15:45Z</time>
      </trkpt>
      <trkpt lat="51.174201993271708" lon="2.913023997098208">
        <ele>5.91</ele>
        <time>2018-07-02T08:15:46Z</time>
      </trkpt>
      <trkpt lat="51.174181960523129" lon="2.912904974073172">
        <ele>6.87</ele>
        <time>2018-07-02T08:15:54Z</time>
      </trkpt>
      <trkpt lat="51.174180032685399" lon="2.912892987951636">
        <ele>6.87</ele>
        <time>2018-07-02T08:16:24Z</time>
      </trkpt>
      <trkpt lat="51.174080036580563" lon="2.912275996059179">
        <ele>4.46</ele>
        <time>2018-07-02T08:16:32Z</time>
      </trkpt>
      <trkpt lat="51.173873003572226" lon="2.910916032269597">
        <ele>2.06</ele>
        <time>2018-07-02T08:16:41Z</time>
      </trkpt>
      <trkpt lat="51.173608973622322" lon="2.908731959760189">
        <ele>2.54</ele>
        <time>2018-07-02T08:16:51Z</time>
      </trkpt>
      <trkpt lat="51.173346033319831" lon="2.904758015647531">
        <ele>3.5</ele>
        <time>2018-07-02T08:17:06Z</time>
      </trkpt>
      <trkpt lat="51.173018971458077" lon="2.899798024445772">
        <ele>4.94</ele>
        <time>2018-07-02T08:17:24Z</time>
      </trkpt>
      <trkpt lat="51.172653017565608" lon="2.894289018586278">
        <ele>5.42</ele>
        <time>2018-07-02T08:17:44Z</time>
      </trkpt>
      <trkpt lat="51.172331990674138" lon="2.889612000435591">
        <ele>4.46</ele>
        <time>2018-07-02T08:18:01Z</time>
      </trkpt>
      <trkpt lat="51.171966958791018" lon="2.884205002337694">
        <ele>5.42</ele>
        <time>2018-07-02T08:18:21Z</time>
      </trkpt>
      <trkpt lat="51.171839972957969" lon="2.882360983639956">
        <ele>5.91</ele>
        <time>2018-07-02T08:18:31Z</time>
      </trkpt>
      <trkpt lat="51.17169102653861" lon="2.880270034074783">
        <ele>5.42</ele>
        <time>2018-07-02T08:18:43Z</time>
      </trkpt>
      <trkpt lat="51.171651966869831" lon="2.879733005538583">
        <ele>5.91</ele>
        <time>2018-07-02T08:18:50Z</time>
      </trkpt>
      <trkpt lat="51.171629000455141" lon="2.879402004182339">
        <ele>6.39</ele>
        <time>2018-07-02T08:18:58Z</time>
      </trkpt>
      <trkpt lat="51.171547025442123" lon="2.878259969875217">
        <ele>6.87</ele>
        <time>2018-07-02T08:19:07Z</time>
      </trkpt>
      <trkpt lat="51.171414004638791" lon="2.876404970884323">
        <ele>6.39</ele>
        <time>2018-07-02T08:19:17Z</time>
      </trkpt>
      <trkpt lat="51.171198002994061" lon="2.873294027522206">
        <ele>5.42</ele>
        <time>2018-07-02T08:19:33Z</time>
      </trkpt>
      <trkpt lat="51.171038998290896" lon="2.870972994714975">
        <ele>4.46</ele>
        <time>2018-07-02T08:19:42Z</time>
      </trkpt>
      <trkpt lat="51.170678995549679" lon="2.866021972149611">
        <ele>4.46</ele>
        <time>2018-07-02T08:20:00Z</time>
      </trkpt>
      <trkpt lat="51.170222014188766" lon="2.862511966377497">
        <ele>2.54</ele>
        <time>2018-07-02T08:20:13Z</time>
      </trkpt>
      <trkpt lat="51.169386003166437" lon="2.858009962365031">
        <ele>3.5</ele>
        <time>2018-07-02T08:20:30Z</time>
      </trkpt>
      <trkpt lat="51.168693993240595" lon="2.854295019060373">
        <ele>3.02</ele>
        <time>2018-07-02T08:20:44Z</time>
      </trkpt>
      <trkpt lat="51.167914979159832" lon="2.850068025290966">
        <ele>3.02</ele>
        <time>2018-07-02T08:21:00Z</time>
      </trkpt>
      <trkpt lat="51.16713797673583" lon="2.845841031521559">
        <ele>4.94</ele>
        <time>2018-07-02T08:21:16Z</time>
      </trkpt>
      <trkpt lat="51.166359968483448" lon="2.841600961983204">
        <ele>5.42</ele>
        <time>2018-07-02T08:21:32Z</time>
      </trkpt>
      <trkpt lat="51.165586989372969" lon="2.837377991527319">
        <ele>3.98</ele>
        <time>2018-07-02T08:21:48Z</time>
      </trkpt>
      <trkpt lat="51.164918029680848" lon="2.833698000758886">
        <ele>3.98</ele>
        <time>2018-07-02T08:22:02Z</time>
      </trkpt>
      <trkpt lat="51.164630027487874" lon="2.832192024216056">
        <ele>5.91</ele>
        <time>2018-07-02T08:22:10Z</time>
      </trkpt>
      <trkpt lat="51.164522990584373" lon="2.831767983734608">
        <ele>6.39</ele>
        <time>2018-07-02T08:22:13Z</time>
      </trkpt>
      <trkpt lat="51.164418971166015" lon="2.831466989591718">
        <ele>6.39</ele>
        <time>2018-07-02T08:22:16Z</time>
      </trkpt>
      <trkpt lat="51.164399022236466" lon="2.831410998478532">
        <ele>6.39</ele>
        <time>2018-07-02T08:22:17Z</time>
      </trkpt>
      <trkpt lat="51.164431041106582" lon="2.831302033737302">
        <ele>6.39</ele>
        <time>2018-07-02T08:22:18Z</time>
      </trkpt>
      <trkpt lat="51.164465993642807" lon="2.831260040402412">
        <ele>6.87</ele>
        <time>2018-07-02T08:22:19Z</time>
      </trkpt>
      <trkpt lat="51.164508992806077" lon="2.831210000440478">
        <ele>6.87</ele>
        <time>2018-07-02T08:22:20Z</time>
      </trkpt>
      <trkpt lat="51.165039986371994" lon="2.830656040459871">
        <ele>6.87</ele>
        <time>2018-07-02T08:22:27Z</time>
      </trkpt>
      <trkpt lat="51.166166011244059" lon="2.829826986417174">
        <ele>6.39</ele>
        <time>2018-07-02T08:22:36Z</time>
      </trkpt>
      <trkpt lat="51.16833901964128" lon="2.828518990427256">
        <ele>5.91</ele>
        <time>2018-07-02T08:22:50Z</time>
      </trkpt>
      <trkpt lat="51.168986018747091" lon="2.828124035149813">
        <ele>5.91</ele>
        <time>2018-07-02T08:22:54Z</time>
      </trkpt>
      <trkpt lat="51.16915600374341" lon="2.828069971874356">
        <ele>5.91</ele>
        <time>2018-07-02T08:22:55Z</time>
      </trkpt>
      <trkpt lat="51.16932699456811" lon="2.828062009066343">
        <ele>5.91</ele>
        <time>2018-07-02T08:22:56Z</time>
      </trkpt>
      <trkpt lat="51.171395983546972" lon="2.828388987109065">
        <ele>5.91</ele>
        <time>2018-07-02T08:23:08Z</time>
      </trkpt>
      <trkpt lat="51.173957996070385" lon="2.829079991206527">
        <ele>5.91</ele>
        <time>2018-07-02T08:23:23Z</time>
      </trkpt>
      <trkpt lat="51.17506499402225" lon="2.82942901365459">
        <ele>6.39</ele>
        <time>2018-07-02T08:23:31Z</time>
      </trkpt>
      <trkpt lat="51.175619959831238" lon="2.829680973663926">
        <ele>6.87</ele>
        <time>2018-07-02T08:23:36Z</time>
      </trkpt>
      <trkpt lat="51.175712998956442" lon="2.829681979492307">
        <ele>6.87</ele>
        <time>2018-07-02T08:23:37Z</time>
      </trkpt>
      <trkpt lat="51.175798997282982" lon="2.829629005864263">
        <ele>6.39</ele>
        <time>2018-07-02T08:23:38Z</time>
      </trkpt>
      <trkpt lat="51.175887007266283" lon="2.829575026407838">
        <ele>6.39</ele>
        <time>2018-07-02T08:23:39Z</time>
      </trkpt>
      <trkpt lat="51.175975017249584" lon="2.829511994495988">
        <ele>6.39</ele>
        <time>2018-07-02T08:23:40Z</time>
      </trkpt>
      <trkpt lat="51.176774986088276" lon="2.828759970143437">
        <ele>5.91</ele>
        <time>2018-07-02T08:23:50Z</time>
      </trkpt>
      <trkpt lat="51.176937008276582" lon="2.828608006238937">
        <ele>6.39</ele>
        <time>2018-07-02T08:23:57Z</time>
      </trkpt>
      <trkpt lat="51.177156027406454" lon="2.82839996740222">
        <ele>6.87</ele>
        <time>2018-07-02T08:24:07Z</time>
      </trkpt>
      <trkpt lat="51.17751301266253" lon="2.828061003237963">
        <ele>6.87</ele>
        <time>2018-07-02T08:24:15Z</time>
      </trkpt>
      <trkpt lat="51.17811500094831" lon="2.827484998852015">
        <ele>5.91</ele>
        <time>2018-07-02T08:24:25Z</time>
      </trkpt>
      <trkpt lat="51.178682958707213" lon="2.826942019164562">
        <ele>6.87</ele>
        <time>2018-07-02T08:24:37Z</time>
      </trkpt>
      <trkpt lat="51.178825031965971" lon="2.826806986704469">
        <ele>6.87</ele>
        <time>2018-07-02T08:24:45Z</time>
      </trkpt>
      <trkpt lat="51.179105993360281" lon="2.826538011431694">
        <ele>5.42</ele>
        <time>2018-07-02T08:24:57Z</time>
      </trkpt>
      <trkpt lat="51.179372034966946" lon="2.826283033937216">
        <ele>4.94</ele>
        <time>2018-07-02T08:25:12Z</time>
      </trkpt>
      <trkpt lat="51.179750980809331" lon="2.825921019539237">
        <ele>5.42</ele>
        <time>2018-07-02T08:25:29Z</time>
      </trkpt>
      <trkpt lat="51.179863968864083" lon="2.825812976807356">
        <ele>4.46</ele>
        <time>2018-07-02T08:25:42Z</time>
      </trkpt>
      <trkpt lat="51.180043006315827" lon="2.825641985982657">
        <ele>4.94</ele>
        <time>2018-07-02T08:26:04Z</time>
      </trkpt>
      <trkpt lat="51.180208967998624" lon="2.825482981279492">
        <ele>-0.82</ele>
        <time>2018-07-02T08:26:16Z</time>
      </trkpt>
      <trkpt lat="51.180208967998624" lon="2.825482981279492">
        <ele>-2.27</ele>
        <time>2018-07-02T08:26:27Z</time>
      </trkpt>
      <trkpt lat="51.180330002680421" lon="2.825366975739598">
        <ele>-3.23</ele>
        <time>2018-07-02T08:26:40Z</time>
      </trkpt>
      <trkpt lat="51.180669972673059" lon="2.825042009353638">
        <ele>-0.82</ele>
        <time>2018-07-02T08:26:55Z</time>
      </trkpt>
      <trkpt lat="51.181033998727798" lon="2.824693992733955">
        <ele>1.58</ele>
        <time>2018-07-02T08:27:07Z</time>
      </trkpt>
      <trkpt lat="51.181081021204591" lon="2.824648981913924">
        <ele>1.58</ele>
        <time>2018-07-02T08:27:08Z</time>
      </trkpt>
      <trkpt lat="51.181257963180542" lon="2.824480002745986">
        <ele>2.06</ele>
        <time>2018-07-02T08:27:11Z</time>
      </trkpt>
      <trkpt lat="51.181327030062675" lon="2.824414959177375">
        <ele>2.54</ele>
        <time>2018-07-02T08:27:12Z</time>
      </trkpt>
      <trkpt lat="51.18219799362123" lon="2.823593029752374">
        <ele>5.42</ele>
        <time>2018-07-02T08:27:24Z</time>
      </trkpt>
      <trkpt lat="51.183324018493295" lon="2.822530036792159">
        <ele>5.91</ele>
        <time>2018-07-02T08:27:38Z</time>
      </trkpt>
      <trkpt lat="51.183968000113964" lon="2.821925031021237">
        <ele>6.87</ele>
        <time>2018-07-02T08:27:46Z</time>
      </trkpt>
      <trkpt lat="51.184380976483226" lon="2.821518005803227">
        <ele>7.83</ele>
        <time>2018-07-02T08:27:53Z</time>
      </trkpt>
      <trkpt lat="51.184429004788399" lon="2.821471989154816">
        <ele>7.83</ele>
        <time>2018-07-02T08:27:54Z</time>
      </trkpt>
      <trkpt lat="51.184824965894222" lon="2.821117015555501">
        <ele>8.310000000000001</ele>
        <time>2018-07-02T08:28:02Z</time>
      </trkpt>
      <trkpt lat="51.184879029169679" lon="2.821075022220612">
        <ele>8.310000000000001</ele>
        <time>2018-07-02T08:28:03Z</time>
      </trkpt>
      <trkpt lat="51.18531103245914" lon="2.820709990337491">
        <ele>6.87</ele>
        <time>2018-07-02T08:28:11Z</time>
      </trkpt>
      <trkpt lat="51.185472970828414" lon="2.820548973977566">
        <ele>5.91</ele>
        <time>2018-07-02T08:28:17Z</time>
      </trkpt>
      <trkpt lat="51.185719985514879" lon="2.820312017574906">
        <ele>6.87</ele>
        <time>2018-07-02T08:28:27Z</time>
      </trkpt>
      <trkpt lat="51.185824004933238" lon="2.820215038955212">
        <ele>6.87</ele>
        <time>2018-07-02T08:28:29Z</time>
      </trkpt>
      <trkpt lat="51.185933975502849" lon="2.820113031193614">
        <ele>6.87</ele>
        <time>2018-07-02T08:28:31Z</time>
      </trkpt>
      <trkpt lat="51.185992984101176" lon="2.820057962089777">
        <ele>6.87</ele>
        <time>2018-07-02T08:28:32Z</time>
      </trkpt>
      <trkpt lat="51.186049981042743" lon="2.820004988461733">
        <ele>6.39</ele>
        <time>2018-07-02T08:28:33Z</time>
      </trkpt>
      <trkpt lat="51.186105972155929" lon="2.819953020662069">
        <ele>6.39</ele>
        <time>2018-07-02T08:28:34Z</time>
      </trkpt>
      <trkpt lat="51.186163974925876" lon="2.819899963214994">
        <ele>5.91</ele>
        <time>2018-07-02T08:28:35Z</time>
      </trkpt>
      <trkpt lat="51.186219966039062" lon="2.81984799541533">
        <ele>5.42</ele>
        <time>2018-07-02T08:28:36Z</time>
      </trkpt>
      <trkpt lat="51.186328008770943" lon="2.819747999310494">
        <ele>4.94</ele>
        <time>2018-07-02T08:28:38Z</time>
      </trkpt>
      <trkpt lat="51.186832012608647" lon="2.819283977150917">
        <ele>4.46</ele>
        <time>2018-07-02T08:28:47Z</time>
      </trkpt>
      <trkpt lat="51.186890015378594" lon="2.819229997694492">
        <ele>4.46</ele>
        <time>2018-07-02T08:28:48Z</time>
      </trkpt>
      <trkpt lat="51.186948018148541" lon="2.819177024066448">
        <ele>4.46</ele>
        <time>2018-07-02T08:28:49Z</time>
      </trkpt>
      <trkpt lat="51.187277007848024" lon="2.818873012438417">
        <ele>5.91</ele>
        <time>2018-07-02T08:28:56Z</time>
      </trkpt>
      <trkpt lat="51.187320007011294" lon="2.818830013275147">
        <ele>6.39</ele>
        <time>2018-07-02T08:28:57Z</time>
      </trkpt>
      <trkpt lat="51.18739795871079" lon="2.818760024383664">
        <ele>6.87</ele>
        <time>2018-07-02T08:28:59Z</time>
      </trkpt>
      <trkpt lat="51.187437018379569" lon="2.818724988028407">
        <ele>7.35</ele>
        <time>2018-07-02T08:29:00Z</time>
      </trkpt>
      <trkpt lat="51.187480017542839" lon="2.81868701800704">
        <ele>7.83</ele>
        <time>2018-07-02T08:29:01Z</time>
      </trkpt>
      <trkpt lat="51.187981003895402" lon="2.818240011110902">
        <ele>11.19</ele>
        <time>2018-07-02T08:29:12Z</time>
      </trkpt>
      <trkpt lat="51.188129028305411" lon="2.818110007792711">
        <ele>11.19</ele>
        <time>2018-07-02T08:29:15Z</time>
      </trkpt>
      <trkpt lat="51.188184013590217" lon="2.818060973659158">
        <ele>11.19</ele>
        <time>2018-07-02T08:29:16Z</time>
      </trkpt>
      <trkpt lat="51.188242016360164" lon="2.818010011687875">
        <ele>11.19</ele>
        <time>2018-07-02T08:29:17Z</time>
      </trkpt>
      <trkpt lat="51.188295995816588" lon="2.817961983382702">
        <ele>10.710000000000001</ele>
        <time>2018-07-02T08:29:18Z</time>
      </trkpt>
      <trkpt lat="51.188345029950142" lon="2.817918984219432">
        <ele>10.710000000000001</ele>
        <time>2018-07-02T08:29:19Z</time>
      </trkpt>
      <trkpt lat="51.188628003001213" lon="2.817670041695237">
        <ele>9.75</ele>
        <time>2018-07-02T08:29:28Z</time>
      </trkpt>
      <trkpt lat="51.188648035749793" lon="2.817652020603418">
        <ele>9.75</ele>
        <time>2018-07-02T08:29:29Z</time>
      </trkpt>
      <trkpt lat="51.18861903436482" lon="2.817575996741653">
        <ele>9.75</ele>
        <time>2018-07-02T08:29:31Z</time>
      </trkpt>
      <trkpt lat="51.188595984131098" lon="2.817521011456847">
        <ele>9.75</ele>
        <time>2018-07-02T08:29:32Z</time>
      </trkpt>
      <trkpt lat="51.188567988574505" lon="2.817455967888236">
        <ele>9.75</ele>
        <time>2018-07-02T08:29:33Z</time>
      </trkpt>
      <trkpt lat="51.18853596970439" lon="2.817379022017121">
        <ele>9.75</ele>
        <time>2018-07-02T08:29:34Z</time>
      </trkpt>
      <trkpt lat="51.188502022996545" lon="2.817298974841833">
        <ele>9.75</ele>
        <time>2018-07-02T08:29:35Z</time>
      </trkpt>
      <trkpt lat="51.188076976686716" lon="2.81630395911634">
        <ele>8.310000000000001</ele>
        <time>2018-07-02T08:29:45Z</time>
      </trkpt>
      <trkpt lat="51.187738012522459" lon="2.815518993884325">
        <ele>7.83</ele>
        <time>2018-07-02T08:29:52Z</time>
      </trkpt>
      <trkpt lat="51.187145998701453" lon="2.814086023718119">
        <ele>8.310000000000001</ele>
        <time>2018-07-02T08:30:04Z</time>
      </trkpt>
      <trkpt lat="51.186828995123506" lon="2.81333701685071">
        <ele>10.23</ele>
        <time>2018-07-02T08:30:10Z</time>
      </trkpt>
      <trkpt lat="51.186204962432384" lon="2.811813019216061">
        <ele>10.23</ele>
        <time>2018-07-02T08:30:23Z</time>
      </trkpt>
      <trkpt lat="51.185859963297844" lon="2.811041967943311">
        <ele>12.630000000000001</ele>
        <time>2018-07-02T08:30:29Z</time>
      </trkpt>
      <trkpt lat="51.185809001326561" lon="2.810919005423784">
        <ele>13.119999999999999</ele>
        <time>2018-07-02T08:30:30Z</time>
      </trkpt>
      <trkpt lat="51.185547988861799" lon="2.810293966904283">
        <ele>14.56</ele>
        <time>2018-07-02T08:30:35Z</time>
      </trkpt>
      <trkpt lat="51.185491997748613" lon="2.810160024091601">
        <ele>15.52</ele>
        <time>2018-07-02T08:30:36Z</time>
      </trkpt>
      <trkpt lat="51.185437012463808" lon="2.81002800911665">
        <ele>16.960000000000001</ele>
        <time>2018-07-02T08:30:37Z</time>
      </trkpt>
      <trkpt lat="51.184982964769006" lon="2.808943977579474">
        <ele>23.210000000000001</ele>
        <time>2018-07-02T08:30:45Z</time>
      </trkpt>
      <trkpt lat="51.184932002797723" lon="2.80882403254509">
        <ele>24.170000000000002</ele>
        <time>2018-07-02T08:30:46Z</time>
      </trkpt>
      <trkpt lat="51.18488397449255" lon="2.808709032833576">
        <ele>25.129999999999999</ele>
        <time>2018-07-02T08:30:47Z</time>
      </trkpt>
      <trkpt lat="51.184665961191058" lon="2.808188013732433">
        <ele>28.02</ele>
        <time>2018-07-02T08:30:53Z</time>
      </trkpt>
      <trkpt lat="51.184497987851501" lon="2.807790962979198">
        <ele>29.940000000000001</ele>
        <time>2018-07-02T08:30:57Z</time>
      </trkpt>
      <trkpt lat="51.184451971203089" lon="2.80768602155149">
        <ele>32.82</ele>
        <time>2018-07-02T08:30:58Z</time>
      </trkpt>
      <trkpt lat="51.184403020888567" lon="2.807574961334467">
        <ele>36.189999999999998</ele>
        <time>2018-07-02T08:30:59Z</time>
      </trkpt>
      <trkpt lat="51.184297995641828" lon="2.807333981618285">
        <ele>41.950000000000003</ele>
        <time>2018-07-02T08:31:01Z</time>
      </trkpt>
      <trkpt lat="51.183845959603786" lon="2.806274006143212">
        <ele>57.82</ele>
        <time>2018-07-02T08:31:09Z</time>
      </trkpt>
      <trkpt lat="51.183787034824491" lon="2.806136962026358">
        <ele>60.700000000000003</ele>
        <time>2018-07-02T08:31:10Z</time>
      </trkpt>
      <trkpt lat="51.183670023456216" lon="2.80586002394557">
        <ele>66.469999999999999</ele>
        <time>2018-07-02T08:31:12Z</time>
      </trkpt>
      <trkpt lat="51.183610009029508" lon="2.805719040334225">
        <ele>68.870000000000005</ele>
        <time>2018-07-02T08:31:13Z</time>
      </trkpt>
      <trkpt lat="51.182881034910679" lon="2.8041419852525">
        <ele>80.409999999999997</ele>
        <time>2018-07-02T08:31:25Z</time>
      </trkpt>
      <trkpt lat="51.182793024927378" lon="2.803960014134646">
        <ele>81.849999999999994</ele>
        <time>2018-07-02T08:31:28Z</time>
      </trkpt>
      <trkpt lat="51.182793024927378" lon="2.803960014134646">
        <ele>81.849999999999994</ele>
        <time>2018-07-02T08:31:29Z</time>
      </trkpt>
      <trkpt lat="51.182657992467284" lon="2.803968982771039">
        <ele>82.329999999999998</ele>
        <time>2018-07-02T08:31:30Z</time>
      </trkpt>
      <trkpt lat="51.182612981647253" lon="2.803972000256181">
        <ele>82.329999999999998</ele>
        <time>2018-07-02T08:31:31Z</time>
      </trkpt>
      <trkpt lat="51.18256201967597" lon="2.803975017741323">
        <ele>82.329999999999998</ele>
        <time>2018-07-02T08:31:32Z</time>
      </trkpt>
      <trkpt lat="51.182514997199178" lon="2.803978035226464">
        <ele>82.329999999999998</ele>
        <time>2018-07-02T08:31:33Z</time>
      </trkpt>
      <trkpt lat="51.182475015521049" lon="2.803980968892574">
        <ele>81.849999999999994</ele>
        <time>2018-07-02T08:31:34Z</time>
      </trkpt>
      <trkpt lat="51.182470992207527" lon="2.803980968892574">
        <ele>81.370000000000005</ele>
        <time>2018-07-02T08:31:35Z</time>
      </trkpt>
      <trkpt lat="51.182441990822554" lon="2.803747029975057">
        <ele>80.890000000000001</ele>
        <time>2018-07-02T08:31:36Z</time>
      </trkpt>
      <trkpt lat="51.182436039671302" lon="2.803703024983406">
        <ele>80.890000000000001</ele>
        <time>2018-07-02T08:31:37Z</time>
      </trkpt>
      <trkpt lat="51.182427993044257" lon="2.803636975586414">
        <ele>81.370000000000005</ele>
        <time>2018-07-02T08:31:38Z</time>
      </trkpt>
      <trkpt lat="51.182416006922722" lon="2.803543014451861">
        <ele>80.409999999999997</ele>
        <time>2018-07-02T08:31:39Z</time>
      </trkpt>
      <trkpt lat="51.182403014972806" lon="2.803444024175406">
        <ele>79.930000000000007</ele>
        <time>2018-07-02T08:31:40Z</time>
      </trkpt>
      <trkpt lat="51.182388011366129" lon="2.803335981443524">
        <ele>77.519999999999996</ele>
        <time>2018-07-02T08:31:41Z</time>
      </trkpt>
      <trkpt lat="51.182372001931071" lon="2.803221987560391">
        <ele>76.079999999999998</ele>
        <time>2018-07-02T08:31:42Z</time>
      </trkpt>
      <trkpt lat="51.182345012202859" lon="2.802845975384116">
        <ele>71.760000000000005</ele>
        <time>2018-07-02T08:31:45Z</time>
      </trkpt>
      <trkpt lat="51.182276029139757" lon="2.802615975961089">
        <ele>69.349999999999994</ele>
        <time>2018-07-02T08:31:47Z</time>
      </trkpt>
      <trkpt lat="51.182122975587845" lon="2.802252033725381">
        <ele>64.549999999999997</ele>
        <time>2018-07-02T08:31:50Z</time>
      </trkpt>
      <trkpt lat="51.181688960641623" lon="2.801289958879352">
        <ele>57.340000000000003</ele>
        <time>2018-07-02T08:31:57Z</time>
      </trkpt>
      <trkpt lat="51.181626012548804" lon="2.801148975268006">
        <ele>55.890000000000001</ele>
        <time>2018-07-02T08:31:58Z</time>
      </trkpt>
      <trkpt lat="51.181559963151813" lon="2.801003968343139">
        <ele>56.369999999999997</ele>
        <time>2018-07-02T08:31:59Z</time>
      </trkpt>
      <trkpt lat="51.181425014510751" lon="2.800695011392236">
        <ele>62.140000000000001</ele>
        <time>2018-07-02T08:32:01Z</time>
      </trkpt>
      <trkpt lat="51.180806010961533" lon="2.799274027347565">
        <ele>83.290000000000006</ele>
        <time>2018-07-02T08:32:11Z</time>
      </trkpt>
      <trkpt lat="51.179907973855734" lon="2.797254994511604">
        <ele>87.140000000000001</ele>
        <time>2018-07-02T08:32:24Z</time>
      </trkpt>
      <trkpt lat="51.179214958101511" lon="2.795695960521698">
        <ele>80.409999999999997</ele>
        <time>2018-07-02T08:32:35Z</time>
      </trkpt>
      <trkpt lat="51.178719000890851" lon="2.79455803334713">
        <ele>71.269999999999996</ele>
        <time>2018-07-02T08:32:45Z</time>
      </trkpt>
      <trkpt lat="51.178087005391717" lon="2.793125985190272">
        <ele>63.100000000000001</ele>
        <time>2018-07-02T08:32:57Z</time>
      </trkpt>
      <trkpt lat="51.177409999072552" lon="2.791585978120565">
        <ele>45.799999999999997</ele>
        <time>2018-07-02T08:33:10Z</time>
      </trkpt>
      <trkpt lat="51.176695022732019" lon="2.790000960230827">
        <ele>34.740000000000002</ele>
        <time>2018-07-02T08:33:22Z</time>
      </trkpt>
      <trkpt lat="51.175921959802508" lon="2.788303038105369">
        <ele>28.5</ele>
        <time>2018-07-02T08:33:34Z</time>
      </trkpt>
      <trkpt lat="51.175189968198538" lon="2.786763031035662">
        <ele>22.25</ele>
        <time>2018-07-02T08:33:45Z</time>
      </trkpt>
      <trkpt lat="51.174253961071372" lon="2.785619990900159">
        <ele>18.399999999999999</ele>
        <time>2018-07-02T08:33:57Z</time>
      </trkpt>
      <trkpt lat="51.173007991164923" lon="2.784540988504887">
        <ele>16.48</ele>
        <time>2018-07-02T08:34:10Z</time>
      </trkpt>
      <trkpt lat="51.172202993184328" lon="2.783617973327637">
        <ele>16.48</ele>
        <time>2018-07-02T08:34:19Z</time>
      </trkpt>
      <trkpt lat="51.171462032943964" lon="2.782240994274616">
        <ele>16</ele>
        <time>2018-07-02T08:34:29Z</time>
      </trkpt>
      <trkpt lat="51.170841017737985" lon="2.780409967526794">
        <ele>16.48</ele>
        <time>2018-07-02T08:34:40Z</time>
      </trkpt>
      <trkpt lat="51.170557960867882" lon="2.779553001746535">
        <ele>16.48</ele>
        <time>2018-07-02T08:34:48Z</time>
      </trkpt>
      <trkpt lat="51.170022021979094" lon="2.777867987751961">
        <ele>14.08</ele>
        <time>2018-07-02T08:34:59Z</time>
      </trkpt>
      <trkpt lat="51.169674005359411" lon="2.77683399617672">
        <ele>13.119999999999999</ele>
        <time>2018-07-02T08:35:07Z</time>
      </trkpt>
      <trkpt lat="51.169317020103335" lon="2.775780977681279">
        <ele>11.67</ele>
        <time>2018-07-02T08:35:16Z</time>
      </trkpt>
      <trkpt lat="51.169080985710025" lon="2.775120986625552">
        <ele>12.630000000000001</ele>
        <time>2018-07-02T08:35:21Z</time>
      </trkpt>
      <trkpt lat="51.169024994596839" lon="2.774953013285995">
        <ele>13.6</ele>
        <time>2018-07-02T08:35:22Z</time>
      </trkpt>
      <trkpt lat="51.168973026797175" lon="2.774812029674649">
        <ele>15.039999999999999</ele>
        <time>2018-07-02T08:35:23Z</time>
      </trkpt>
      <trkpt lat="51.168340025469661" lon="2.773073958232999">
        <ele>19.84</ele>
        <time>2018-07-02T08:35:34Z</time>
      </trkpt>
      <trkpt lat="51.167551036924124" lon="2.770889969542623">
        <ele>19.359999999999999</ele>
        <time>2018-07-02T08:35:47Z</time>
      </trkpt>
      <trkpt lat="51.166930021718144" lon="2.769440989941359">
        <ele>16</ele>
        <time>2018-07-02T08:35:57Z</time>
      </trkpt>
      <trkpt lat="51.166460970416665" lon="2.768577989190817">
        <ele>14.56</ele>
        <time>2018-07-02T08:36:07Z</time>
      </trkpt>
      <trkpt lat="51.165828974917531" lon="2.76742204092443">
        <ele>13.6</ele>
        <time>2018-07-02T08:36:16Z</time>
      </trkpt>
      <trkpt lat="51.164786014705896" lon="2.765436032786965">
        <ele>12.630000000000001</ele>
        <time>2018-07-02T08:36:30Z</time>
      </trkpt>
      <trkpt lat="51.164153013378382" lon="2.764220992103219">
        <ele>12.630000000000001</ele>
        <time>2018-07-02T08:36:41Z</time>
      </trkpt>
      <trkpt lat="51.163783958181739" lon="2.763361008837819">
        <ele>13.6</ele>
        <time>2018-07-02T08:36:50Z</time>
      </trkpt>
      <trkpt lat="51.163242990151048" lon="2.76198897510767">
        <ele>12.630000000000001</ele>
        <time>2018-07-02T08:36:59Z</time>
      </trkpt>
      <trkpt lat="51.162261972203851" lon="2.759587978944182">
        <ele>12.15</ele>
        <time>2018-07-02T08:37:11Z</time>
      </trkpt>
      <trkpt lat="51.161039974540472" lon="2.756551969796419">
        <ele>12.630000000000001</ele>
        <time>2018-07-02T08:37:25Z</time>
      </trkpt>
      <trkpt lat="51.159630976617336" lon="2.753070965409279">
        <ele>12.15</ele>
        <time>2018-07-02T08:37:41Z</time>
      </trkpt>
      <trkpt lat="51.158759007230401" lon="2.750926958397031">
        <ele>11.19</ele>
        <time>2018-07-02T08:37:51Z</time>
      </trkpt>
      <trkpt lat="51.158197000622749" lon="2.74967503733933">
        <ele>10.23</ele>
        <time>2018-07-02T08:37:58Z</time>
      </trkpt>
      <trkpt lat="51.157285971567035" lon="2.748708017170429">
        <ele>8.789999999999999</ele>
        <time>2018-07-02T08:38:06Z</time>
      </trkpt>
      <trkpt lat="51.156205041334033" lon="2.748357988893986">
        <ele>7.35</ele>
        <time>2018-07-02T08:38:14Z</time>
      </trkpt>
      <trkpt lat="51.155332988128066" lon="2.748552029952407">
        <ele>6.87</ele>
        <time>2018-07-02T08:38:22Z</time>
      </trkpt>
      <trkpt lat="51.154736028984189" lon="2.748727966099978">
        <ele>7.35</ele>
        <time>2018-07-02T08:38:30Z</time>
      </trkpt>
      <trkpt lat="51.154664028435946" lon="2.748749004676938">
        <ele>7.35</ele>
        <time>2018-07-02T08:38:31Z</time>
      </trkpt>
      <trkpt lat="51.154613988474011" lon="2.74888101965189">
        <ele>7.35</ele>
        <time>2018-07-02T08:38:32Z</time>
      </trkpt>
      <trkpt lat="51.154325986281037" lon="2.749460963532329">
        <ele>6.87</ele>
        <time>2018-07-02T08:38:37Z</time>
      </trkpt>
      <trkpt lat="51.153504978865385" lon="2.751029971987009">
        <ele>5.91</ele>
        <time>2018-07-02T08:38:49Z</time>
      </trkpt>
      <trkpt lat="51.152480961754918" lon="2.752959989011288">
        <ele>5.42</ele>
        <time>2018-07-02T08:39:03Z</time>
      </trkpt>
      <trkpt lat="51.15147496573627" lon="2.754931999370456">
        <ele>5.42</ele>
        <time>2018-07-02T08:39:18Z</time>
      </trkpt>
      <trkpt lat="51.150924023240805" lon="2.756061041727662">
        <ele>7.83</ele>
        <time>2018-07-02T08:39:28Z</time>
      </trkpt>
      <trkpt lat="51.150831989943981" lon="2.756249969825149">
        <ele>8.310000000000001</ele>
        <time>2018-07-02T08:39:30Z</time>
      </trkpt>
      <trkpt lat="51.150789996609092" lon="2.756336973980069">
        <ele>7.83</ele>
        <time>2018-07-02T08:39:31Z</time>
      </trkpt>
      <trkpt lat="51.150538036599755" lon="2.756884982809424">
        <ele>7.83</ele>
        <time>2018-07-02T08:39:39Z</time>
      </trkpt>
      <trkpt lat="51.150527978315949" lon="2.756909038871527">
        <ele>7.35</ele>
        <time>2018-07-02T08:39:40Z</time>
      </trkpt>
      <trkpt lat="51.150519009679556" lon="2.756927981972694">
        <ele>7.35</ele>
        <time>2018-07-02T08:39:41Z</time>
      </trkpt>
      <trkpt lat="51.150465030223131" lon="2.757049016654491">
        <ele>6.87</ele>
        <time>2018-07-02T08:39:53Z</time>
      </trkpt>
      <trkpt lat="51.150220027193427" lon="2.757182037457824">
        <ele>5.91</ele>
        <time>2018-07-02T08:39:58Z</time>
      </trkpt>
      <trkpt lat="51.150220027193427" lon="2.757182037457824">
        <ele>5.91</ele>
        <time>2018-07-02T08:39:59Z</time>
      </trkpt>
      <trkpt lat="51.150206029415131" lon="2.757171979174018">
        <ele>5.91</ele>
        <time>2018-07-02T08:40:00Z</time>
      </trkpt>
      <trkpt lat="51.150146014988422" lon="2.757130991667509">
        <ele>5.91</ele>
        <time>2018-07-02T08:40:01Z</time>
      </trkpt>
      <trkpt lat="51.150081977248192" lon="2.757086986675859">
        <ele>5.91</ele>
        <time>2018-07-02T08:40:02Z</time>
      </trkpt>
      <trkpt lat="51.149641005322337" lon="2.756860004737973">
        <ele>4.94</ele>
        <time>2018-07-02T08:40:10Z</time>
      </trkpt>
      <trkpt lat="51.149641005322337" lon="2.756860004737973">
        <ele>4.94</ele>
        <time>2018-07-02T08:40:23Z</time>
      </trkpt>
      <trkpt lat="51.149418968707323" lon="2.756860004737973">
        <ele>6.87</ele>
        <time>2018-07-02T08:40:41Z</time>
      </trkpt>
      <trkpt lat="51.149232974275947" lon="2.756881965324283">
        <ele>6.87</ele>
        <time>2018-07-02T08:40:47Z</time>
      </trkpt>
      <trkpt lat="51.149232974275947" lon="2.756881965324283">
        <ele>7.35</ele>
        <time>2018-07-02T08:40:48Z</time>
      </trkpt>
      <trkpt lat="51.149232974275947" lon="2.756881965324283">
        <ele>7.35</ele>
        <time>2018-07-02T08:40:49Z</time>
      </trkpt>
      <trkpt lat="51.149116968736053" lon="2.756948014721274">
        <ele>7.83</ele>
        <time>2018-07-02T08:40:50Z</time>
      </trkpt>
      <trkpt lat="51.149085033684969" lon="2.756935022771359">
        <ele>8.310000000000001</ele>
        <time>2018-07-02T08:40:51Z</time>
      </trkpt>
      <trkpt lat="51.149057960137725" lon="2.756923958659172">
        <ele>8.310000000000001</ele>
        <time>2018-07-02T08:40:52Z</time>
      </trkpt>
      <trkpt lat="51.149031976237893" lon="2.75691700167954">
        <ele>8.789999999999999</ele>
        <time>2018-07-02T08:40:53Z</time>
      </trkpt>
      <trkpt lat="51.149012027308345" lon="2.756911972537637">
        <ele>8.789999999999999</ele>
        <time>2018-07-02T08:40:54Z</time>
      </trkpt>
      <trkpt lat="51.148996017873287" lon="2.756907027214766">
        <ele>8.789999999999999</ele>
        <time>2018-07-02T08:40:55Z</time>
      </trkpt>
      <trkpt lat="51.148996017873287" lon="2.756907027214766">
        <ele>9.27</ele>
        <time>2018-07-02T08:41:10Z</time>
      </trkpt>
      <trkpt lat="51.148828966543078" lon="2.756863022223115">
        <ele>9.75</ele>
        <time>2018-07-02T08:41:37Z</time>
      </trkpt>
      <trkpt lat="51.148639032617211" lon="2.756808958947659">
        <ele>9.75</ele>
        <time>2018-07-02T08:41:40Z</time>
      </trkpt>
      <trkpt lat="51.148571977391839" lon="2.75678901001811">
        <ele>9.75</ele>
        <time>2018-07-02T08:41:41Z</time>
      </trkpt>
      <trkpt lat="51.147781983017921" lon="2.756593963131309">
        <ele>8.310000000000001</ele>
        <time>2018-07-02T08:41:51Z</time>
      </trkpt>
      <trkpt lat="51.146718990057707" lon="2.756319036707282">
        <ele>6.87</ele>
        <time>2018-07-02T08:42:03Z</time>
      </trkpt>
      <trkpt lat="51.145591959357262" lon="2.756196996197105">
        <ele>5.42</ele>
        <time>2018-07-02T08:42:15Z</time>
      </trkpt>
      <trkpt lat="51.145447958260775" lon="2.756189033389092">
        <ele>6.39</ele>
        <time>2018-07-02T08:42:20Z</time>
      </trkpt>
      <trkpt lat="51.145046968013048" lon="2.756161037832499">
        <ele>6.39</ele>
        <time>2018-07-02T08:42:27Z</time>
      </trkpt>
      <trkpt lat="51.144110038876534" lon="2.756099011749029">
        <ele>9.27</ele>
        <time>2018-07-02T08:42:36Z</time>
      </trkpt>
      <trkpt lat="51.143061965703964" lon="2.756023993715644">
        <ele>11.19</ele>
        <time>2018-07-02T08:42:44Z</time>
      </trkpt>
      <trkpt lat="51.14129195921123" lon="2.755894996225834">
        <ele>8.310000000000001</ele>
        <time>2018-07-02T08:42:57Z</time>
      </trkpt>
      <trkpt lat="51.138975033536553" lon="2.755726017057896">
        <ele>6.87</ele>
        <time>2018-07-02T08:43:14Z</time>
      </trkpt>
      <trkpt lat="51.137840962037444" lon="2.755653010681272">
        <ele>6.87</ele>
        <time>2018-07-02T08:43:24Z</time>
      </trkpt>
      <trkpt lat="51.137749012559652" lon="2.755642030388117">
        <ele>6.87</ele>
        <time>2018-07-02T08:43:25Z</time>
      </trkpt>
      <trkpt lat="51.137480959296227" lon="2.755469027906656">
        <ele>7.35</ele>
        <time>2018-07-02T08:43:29Z</time>
      </trkpt>
      <trkpt lat="51.137441983446479" lon="2.755440026521683">
        <ele>7.35</ele>
        <time>2018-07-02T08:43:30Z</time>
      </trkpt>
      <trkpt lat="51.137343998998404" lon="2.755475984886289">
        <ele>7.35</ele>
        <time>2018-07-02T08:43:31Z</time>
      </trkpt>
      <trkpt lat="51.137188011780381" lon="2.755667008459568">
        <ele>7.35</ele>
        <time>2018-07-02T08:43:34Z</time>
      </trkpt>
      <trkpt lat="51.136881988495588" lon="2.75588896125555">
        <ele>7.35</ele>
        <time>2018-07-02T08:43:39Z</time>
      </trkpt>
      <trkpt lat="51.136742010712624" lon="2.756077973172069">
        <ele>6.87</ele>
        <time>2018-07-02T08:43:42Z</time>
      </trkpt>
      <trkpt lat="51.136699011549354" lon="2.756137987598777">
        <ele>6.87</ele>
        <time>2018-07-02T08:43:43Z</time>
      </trkpt>
      <trkpt lat="51.136636985465884" lon="2.756258016452193">
        <ele>6.39</ele>
        <time>2018-07-02T08:43:45Z</time>
      </trkpt>
      <trkpt lat="51.136367004364729" lon="2.757035018876195">
        <ele>5.42</ele>
        <time>2018-07-02T08:43:56Z</time>
      </trkpt>
      <trkpt lat="51.136267008259892" lon="2.757344981655479">
        <ele>4.94</ele>
        <time>2018-07-02T08:43:59Z</time>
      </trkpt>
      <trkpt lat="51.136227026581764" lon="2.757436009123921">
        <ele>4.94</ele>
        <time>2018-07-02T08:44:00Z</time>
      </trkpt>
      <trkpt lat="51.135807009413838" lon="2.758132964372635">
        <ele>4.94</ele>
        <time>2018-07-02T08:44:08Z</time>
      </trkpt>
      <trkpt lat="51.135736014693975" lon="2.758212005719543">
        <ele>4.94</ele>
        <time>2018-07-02T08:44:09Z</time>
      </trkpt>
      <trkpt lat="51.135664014145732" lon="2.758246958255768">
        <ele>4.46</ele>
        <time>2018-07-02T08:44:10Z</time>
      </trkpt>
      <trkpt lat="51.135067977011204" lon="2.758536972105503">
        <ele>3.5</ele>
        <time>2018-07-02T08:44:17Z</time>
      </trkpt>
      <trkpt lat="51.134838983416557" lon="2.75863696821034">
        <ele>3.98</ele>
        <time>2018-07-02T08:44:20Z</time>
      </trkpt>
      <trkpt lat="51.134771006181836" lon="2.758663035929203">
        <ele>3.98</ele>
        <time>2018-07-02T08:44:21Z</time>
      </trkpt>
      <trkpt lat="51.134701017290354" lon="2.758650965988636">
        <ele>3.98</ele>
        <time>2018-07-02T08:44:22Z</time>
      </trkpt>
      <trkpt lat="51.134275970980525" lon="2.758519034832716">
        <ele>5.91</ele>
        <time>2018-07-02T08:44:28Z</time>
      </trkpt>
      <trkpt lat="51.134228026494384" lon="2.758477963507175">
        <ele>5.91</ele>
        <time>2018-07-02T08:44:29Z</time>
      </trkpt>
      <trkpt lat="51.134185027331114" lon="2.758423984050751">
        <ele>6.39</ele>
        <time>2018-07-02T08:44:30Z</time>
      </trkpt>
      <trkpt lat="51.134142028167844" lon="2.758370004594326">
        <ele>6.39</ele>
        <time>2018-07-02T08:44:31Z</time>
      </trkpt>
      <trkpt lat="51.134107997640967" lon="2.758328011259437">
        <ele>6.39</ele>
        <time>2018-07-02T08:44:32Z</time>
      </trkpt>
      <trkpt lat="51.13398696295917" lon="2.758417027071118">
        <ele>6.39</ele>
        <time>2018-07-02T08:44:33Z</time>
      </trkpt>
      <trkpt lat="51.13398402929306" lon="2.758477963507175">
        <ele>6.39</ele>
        <time>2018-07-02T08:44:34Z</time>
      </trkpt>
      <trkpt lat="51.133976988494396" lon="2.758640991523862">
        <ele>6.39</ele>
        <time>2018-07-02T08:44:35Z</time>
      </trkpt>
      <trkpt lat="51.133960979059339" lon="2.758690025657415">
        <ele>6.39</ele>
        <time>2018-07-02T08:44:36Z</time>
      </trkpt>
      <trkpt lat="51.133925020694733" lon="2.758801002055407">
        <ele>6.39</ele>
        <time>2018-07-02T08:44:37Z</time>
      </trkpt>
      <trkpt lat="51.133707007393241" lon="2.759466022253037">
        <ele>7.83</ele>
        <time>2018-07-02T08:44:42Z</time>
      </trkpt>
      <trkpt lat="51.133657973259687" lon="2.759617986157537">
        <ele>7.83</ele>
        <time>2018-07-02T08:44:43Z</time>
      </trkpt>
      <trkpt lat="51.133433002978563" lon="2.760042026638985">
        <ele>7.35</ele>
        <time>2018-07-02T08:44:46Z</time>
      </trkpt>
      <trkpt lat="51.133344992995262" lon="2.760174041613936">
        <ele>6.87</ele>
        <time>2018-07-02T08:44:47Z</time>
      </trkpt>
      <trkpt lat="51.133150029927492" lon="2.760367998853326">
        <ele>6.39</ele>
        <time>2018-07-02T08:44:49Z</time>
      </trkpt>
      <trkpt lat="51.133049027994275" lon="2.760457014665008">
        <ele>6.39</ele>
        <time>2018-07-02T08:44:50Z</time>
      </trkpt>
      <trkpt lat="51.132746022194624" lon="2.760672010481358">
        <ele>4.94</ele>
        <time>2018-07-02T08:44:53Z</time>
      </trkpt>
      <trkpt lat="51.132646026089787" lon="2.760744011029601">
        <ele>4.94</ele>
        <time>2018-07-02T08:44:54Z</time>
      </trkpt>
      <trkpt lat="51.132350983098149" lon="2.760954983532429">
        <ele>3.98</ele>
        <time>2018-07-02T08:44:57Z</time>
      </trkpt>
      <trkpt lat="51.132269008085132" lon="2.761062020435929">
        <ele>3.5</ele>
        <time>2018-07-02T08:44:58Z</time>
      </trkpt>
      <trkpt lat="51.131279021501541" lon="2.762573026120663">
        <ele>0.14</ele>
        <time>2018-07-02T08:45:10Z</time>
      </trkpt>
      <trkpt lat="51.130321975797415" lon="2.764129964634776">
        <ele>1.1</ele>
        <time>2018-07-02T08:45:21Z</time>
      </trkpt>
      <trkpt lat="51.129187988117337" lon="2.765984041616321">
        <ele>1.1</ele>
        <time>2018-07-02T08:45:32Z</time>
      </trkpt>
      <trkpt lat="51.128941979259253" lon="2.766406992450357">
        <ele>0.62</ele>
        <time>2018-07-02T08:45:35Z</time>
      </trkpt>
      <trkpt lat="51.128889005631208" lon="2.76656499132514">
        <ele>1.1</ele>
        <time>2018-07-02T08:45:36Z</time>
      </trkpt>
      <trkpt lat="51.128846006467938" lon="2.766737993806601">
        <ele>1.1</ele>
        <time>2018-07-02T08:45:37Z</time>
      </trkpt>
      <trkpt lat="51.128807030618191" lon="2.766920970752835">
        <ele>1.58</ele>
        <time>2018-07-02T08:45:38Z</time>
      </trkpt>
      <trkpt lat="51.128783980384469" lon="2.767121968790889">
        <ele>1.58</ele>
        <time>2018-07-02T08:45:39Z</time>
      </trkpt>
      <trkpt lat="51.128783980384469" lon="2.767322966828942">
        <ele>1.58</ele>
        <time>2018-07-02T08:45:40Z</time>
      </trkpt>
      <trkpt lat="51.128783980384469" lon="2.767517007887363">
        <ele>1.58</ele>
        <time>2018-07-02T08:45:41Z</time>
      </trkpt>
      <trkpt lat="51.128783980384469" lon="2.768228966742754">
        <ele>1.58</ele>
        <time>2018-07-02T08:45:46Z</time>
      </trkpt>
      <trkpt lat="51.128783980384469" lon="2.768323011696339">
        <ele>1.1</ele>
        <time>2018-07-02T08:45:47Z</time>
      </trkpt>
      <trkpt lat="51.128783980384469" lon="2.768398029729724">
        <ele>1.1</ele>
        <time>2018-07-02T08:45:48Z</time>
      </trkpt>
      <trkpt lat="51.128694964572787" lon="2.76845402084291">
        <ele>1.1</ele>
        <time>2018-07-02T08:45:49Z</time>
      </trkpt>
      <trkpt lat="51.128641990944743" lon="2.768457038328052">
        <ele>1.1</ele>
        <time>2018-07-02T08:45:50Z</time>
      </trkpt>
      <trkpt lat="51.128577031195164" lon="2.768461983650923">
        <ele>1.1</ele>
        <time>2018-07-02T08:45:51Z</time>
      </trkpt>
      <trkpt lat="51.128482986241579" lon="2.768469024449587">
        <ele>1.1</ele>
        <time>2018-07-02T08:45:52Z</time>
      </trkpt>
      <trkpt lat="51.128411991521716" lon="2.768443962559104">
        <ele>1.1</ele>
        <time>2018-07-02T08:45:53Z</time>
      </trkpt>
      <trkpt lat="51.127279009670019" lon="2.768054036423564">
        <ele>3.02</ele>
        <time>2018-07-02T08:46:03Z</time>
      </trkpt>
      <trkpt lat="51.125281015411019" lon="2.767364960163832">
        <ele>3.02</ele>
        <time>2018-07-02T08:46:18Z</time>
      </trkpt>
      <trkpt lat="51.122739035636187" lon="2.766491984948516">
        <ele>3.98</ele>
        <time>2018-07-02T08:46:34Z</time>
      </trkpt>
      <trkpt lat="51.120036039501429" lon="2.765580033883452">
        <ele>3.98</ele>
        <time>2018-07-02T08:46:50Z</time>
      </trkpt>
      <trkpt lat="51.118957037106156" lon="2.765207961201668">
        <ele>3.98</ele>
        <time>2018-07-02T08:46:58Z</time>
      </trkpt>
      <trkpt lat="51.118891993537545" lon="2.765186000615358">
        <ele>3.98</ele>
        <time>2018-07-02T08:46:59Z</time>
      </trkpt>
      <trkpt lat="51.118827033787966" lon="2.765164040029049">
        <ele>3.98</ele>
        <time>2018-07-02T08:47:00Z</time>
      </trkpt>
      <trkpt lat="51.118858968839049" lon="2.765036970376968">
        <ele>3.98</ele>
        <time>2018-07-02T08:47:01Z</time>
      </trkpt>
      <trkpt lat="51.118842037394643" lon="2.764960024505854">
        <ele>4.46</ele>
        <time>2018-07-02T08:47:02Z</time>
      </trkpt>
      <trkpt lat="51.118824016302824" lon="2.764875032007694">
        <ele>4.46</ele>
        <time>2018-07-02T08:47:03Z</time>
      </trkpt>
      <trkpt lat="51.118594016879797" lon="2.763828970491886">
        <ele>3.98</ele>
        <time>2018-07-02T08:47:11Z</time>
      </trkpt>
      <trkpt lat="51.118182968348265" lon="2.761955028399825">
        <ele>3.98</ele>
        <time>2018-07-02T08:47:21Z</time>
      </trkpt>
      <trkpt lat="51.118057994171977" lon="2.761383969336748">
        <ele>4.46</ele>
        <time>2018-07-02T08:47:27Z</time>
      </trkpt>
      <trkpt lat="51.1180429905653" lon="2.761311968788505">
        <ele>3.98</ele>
        <time>2018-07-02T08:47:39Z</time>
      </trkpt>
      <trkpt lat="51.117830006405711" lon="2.760653989389539">
        <ele>3.5</ele>
        <time>2018-07-02T08:47:46Z</time>
      </trkpt>
      <trkpt lat="51.117776026949286" lon="2.760499007999897">
        <ele>3.5</ele>
        <time>2018-07-02T08:47:48Z</time>
      </trkpt>
      <trkpt lat="51.117755994200706" lon="2.760443016886711">
        <ele>3.5</ele>
        <time>2018-07-02T08:47:49Z</time>
      </trkpt>
      <trkpt lat="51.117740990594029" lon="2.760399011895061">
        <ele>3.5</ele>
        <time>2018-07-02T08:47:50Z</time>
      </trkpt>
      <trkpt lat="51.117729004472494" lon="2.760364981368184">
        <ele>3.5</ele>
        <time>2018-07-02T08:47:51Z</time>
      </trkpt>
      <trkpt lat="51.117722969502211" lon="2.760346960276365">
        <ele>3.5</ele>
        <time>2018-07-02T08:47:52Z</time>
      </trkpt>
      <trkpt lat="51.117726992815733" lon="2.760359030216932">
        <ele>3.02</ele>
        <time>2018-07-02T08:47:54Z</time>
      </trkpt>
      <trkpt lat="51.117738978937268" lon="2.760391971096396">
        <ele>2.54</ele>
        <time>2018-07-02T08:47:55Z</time>
      </trkpt>
      <trkpt lat="51.117753982543945" lon="2.760434970259666">
        <ele>2.54</ele>
        <time>2018-07-02T08:47:56Z</time>
      </trkpt>
      <trkpt lat="51.117836041375995" lon="2.760668992996216">
        <ele>2.06</ele>
        <time>2018-07-02T08:47:59Z</time>
      </trkpt>
      <trkpt lat="51.118115996941924" lon="2.761646993458271">
        <ele>3.02</ele>
        <time>2018-07-02T08:48:07Z</time>
      </trkpt>
      <trkpt lat="51.118425959721208" lon="2.763063032180071">
        <ele>3.02</ele>
        <time>2018-07-02T08:48:14Z</time>
      </trkpt>
      <trkpt lat="51.118782022967935" lon="2.764687025919557">
        <ele>3.02</ele>
        <time>2018-07-02T08:48:22Z</time>
      </trkpt>
      <trkpt lat="51.11885704100132" lon="2.765025990083814">
        <ele>2.54</ele>
        <time>2018-07-02T08:48:26Z</time>
      </trkpt>
      <trkpt lat="51.118777999654412" lon="2.765148030593991">
        <ele>2.54</ele>
        <time>2018-07-02T08:48:27Z</time>
      </trkpt>
      <trkpt lat="51.118746986612678" lon="2.765137972310185">
        <ele>2.54</ele>
        <time>2018-07-02T08:48:28Z</time>
      </trkpt>
      <trkpt lat="51.118695018813014" lon="2.765120035037398">
        <ele>2.54</ele>
        <time>2018-07-02T08:48:29Z</time>
      </trkpt>
      <trkpt lat="51.118620000779629" lon="2.765094973146915">
        <ele>2.54</ele>
        <time>2018-07-02T08:48:30Z</time>
      </trkpt>
      <trkpt lat="51.117777032777667" lon="2.764814011752605">
        <ele>3.02</ele>
        <time>2018-07-02T08:48:37Z</time>
      </trkpt>
      <trkpt lat="51.116190003231168" lon="2.764280000701547">
        <ele>5.42</ele>
        <time>2018-07-02T08:48:47Z</time>
      </trkpt>
      <trkpt lat="51.115975007414818" lon="2.764142034575343">
        <ele>6.39</ele>
        <time>2018-07-02T08:48:49Z</time>
      </trkpt>
      <trkpt lat="51.115902001038194" lon="2.76405000127852">
        <ele>6.39</ele>
        <time>2018-07-02T08:48:50Z</time>
      </trkpt>
      <trkpt lat="51.115839974954724" lon="2.763926032930613">
        <ele>6.39</ele>
        <time>2018-07-02T08:48:51Z</time>
      </trkpt>
      <trkpt lat="51.11531300470233" lon="2.76254603639245">
        <ele>6.87</ele>
        <time>2018-07-02T08:48:58Z</time>
      </trkpt>
      <trkpt lat="51.114374985918403" lon="2.760202037170529">
        <ele>6.87</ele>
        <time>2018-07-02T08:49:07Z</time>
      </trkpt>
      <trkpt lat="51.112984009087086" lon="2.757064020261169">
        <ele>5.91</ele>
        <time>2018-07-02T08:49:21Z</time>
      </trkpt>
      <trkpt lat="51.112480005249381" lon="2.756033968180418">
        <ele>5.91</ele>
        <time>2018-07-02T08:49:26Z</time>
      </trkpt>
      <trkpt lat="51.112382020801306" lon="2.755899019539356">
        <ele>5.91</ele>
        <time>2018-07-02T08:49:27Z</time>
      </trkpt>
      <trkpt lat="51.112266015261412" lon="2.755825007334352">
        <ele>5.91</ele>
        <time>2018-07-02T08:49:28Z</time>
      </trkpt>
      <trkpt lat="51.112143974751234" lon="2.755784019827843">
        <ele>5.42</ele>
        <time>2018-07-02T08:49:29Z</time>
      </trkpt>
      <trkpt lat="51.11202503554523" lon="2.755744038149715">
        <ele>5.42</ele>
        <time>2018-07-02T08:49:30Z</time>
      </trkpt>
      <trkpt lat="51.111894026398659" lon="2.755805980414152">
        <ele>5.42</ele>
        <time>2018-07-02T08:49:31Z</time>
      </trkpt>
      <trkpt lat="51.111766034737229" lon="2.75586599484086">
        <ele>5.42</ele>
        <time>2018-07-02T08:49:32Z</time>
      </trkpt>
      <trkpt lat="51.111639970913529" lon="2.755954004824162">
        <ele>4.94</ele>
        <time>2018-07-02T08:49:33Z</time>
      </trkpt>
      <trkpt lat="51.111517008394003" lon="2.756066992878914">
        <ele>4.94</ele>
        <time>2018-07-02T08:49:34Z</time>
      </trkpt>
      <trkpt lat="51.110653001815081" lon="2.756880959495902">
        <ele>4.46</ele>
        <time>2018-07-02T08:49:43Z</time>
      </trkpt>
      <trkpt lat="51.110486034303904" lon="2.756953965872526">
        <ele>4.94</ele>
        <time>2018-07-02T08:49:48Z</time>
      </trkpt>
      <trkpt lat="51.110454015433788" lon="2.756949020549655">
        <ele>4.94</ele>
        <time>2018-07-02T08:49:49Z</time>
      </trkpt>
      <trkpt lat="51.110431971028447" lon="2.756866039708257">
        <ele>5.42</ele>
        <time>2018-07-02T08:49:50Z</time>
      </trkpt>
      <trkpt lat="51.110428031533957" lon="2.756798984482884">
        <ele>5.42</ele>
        <time>2018-07-02T08:49:51Z</time>
      </trkpt>
      <trkpt lat="51.110423002392054" lon="2.756726983934641">
        <ele>5.42</ele>
        <time>2018-07-02T08:49:52Z</time>
      </trkpt>
      <trkpt lat="51.110415039584041" lon="2.756621958687902">
        <ele>5.42</ele>
        <time>2018-07-02T08:49:53Z</time>
      </trkpt>
      <trkpt lat="51.110383020713925" lon="2.756559010595083">
        <ele>5.42</ele>
        <time>2018-07-02T08:49:54Z</time>
      </trkpt>
      <trkpt lat="51.110318982973695" lon="2.756486004218459">
        <ele>5.42</ele>
        <time>2018-07-02T08:49:55Z</time>
      </trkpt>
      <trkpt lat="51.110262991860509" lon="2.756469994783402">
        <ele>5.42</ele>
        <time>2018-07-02T08:49:56Z</time>
      </trkpt>
      <trkpt lat="51.110204989090562" lon="2.756453985348344">
        <ele>4.94</ele>
        <time>2018-07-02T08:49:57Z</time>
      </trkpt>
      <trkpt lat="51.110128965228796" lon="2.75651098228991">
        <ele>4.94</ele>
        <time>2018-07-02T08:49:58Z</time>
      </trkpt>
      <trkpt lat="51.110073979943991" lon="2.756597986444831">
        <ele>4.94</ele>
        <time>2018-07-02T08:49:59Z</time>
      </trkpt>
      <trkpt lat="51.110039027407765" lon="2.75670301169157">
        <ele>4.94</ele>
        <time>2018-07-02T08:50:00Z</time>
      </trkpt>
      <trkpt lat="51.110008014366031" lon="2.756795966997743">
        <ele>4.46</ele>
        <time>2018-07-02T08:50:01Z</time>
      </trkpt>
      <trkpt lat="51.109995022416115" lon="2.757044993340969">
        <ele>3.98</ele>
        <time>2018-07-02T08:50:02Z</time>
      </trkpt>
      <trkpt lat="51.109911035746336" lon="2.757128980010748">
        <ele>3.5</ele>
        <time>2018-07-02T08:50:03Z</time>
      </trkpt>
      <trkpt lat="51.109815984964371" lon="2.757224030792713">
        <ele>3.5</ele>
        <time>2018-07-02T08:50:04Z</time>
      </trkpt>
      <trkpt lat="51.109715988859534" lon="2.75732402689755">
        <ele>3.02</ele>
        <time>2018-07-02T08:50:05Z</time>
      </trkpt>
      <trkpt lat="51.108792973682284" lon="2.758281994611025">
        <ele>2.06</ele>
        <time>2018-07-02T08:50:13Z</time>
      </trkpt>
      <trkpt lat="51.108315959572792" lon="2.758626993745565">
        <ele>1.58</ele>
        <time>2018-07-02T08:50:19Z</time>
      </trkpt>
      <trkpt lat="51.108253011479974" lon="2.758620036765933">
        <ele>1.58</ele>
        <time>2018-07-02T08:50:20Z</time>
      </trkpt>
      <trkpt lat="51.108186962082982" lon="2.75861400179565">
        <ele>1.58</ele>
        <time>2018-07-02T08:50:21Z</time>
      </trkpt>
      <trkpt lat="51.108115967363119" lon="2.758606960996985">
        <ele>1.58</ele>
        <time>2018-07-02T08:50:22Z</time>
      </trkpt>
      <trkpt lat="51.108044972643256" lon="2.758598998188973">
        <ele>1.58</ele>
        <time>2018-07-02T08:50:23Z</time>
      </trkpt>
      <trkpt lat="51.107968026772141" lon="2.75859204120934">
        <ele>1.58</ele>
        <time>2018-07-02T08:50:24Z</time>
      </trkpt>
      <trkpt lat="51.107890997081995" lon="2.758583994582295">
        <ele>1.1</ele>
        <time>2018-07-02T08:50:25Z</time>
      </trkpt>
      <trkpt lat="51.107593020424247" lon="2.75868097320199">
        <ele>1.1</ele>
        <time>2018-07-02T08:50:28Z</time>
      </trkpt>
      <trkpt lat="51.107499981299043" lon="2.75872296653688">
        <ele>1.58</ele>
        <time>2018-07-02T08:50:29Z</time>
      </trkpt>
      <trkpt lat="51.10740702599287" lon="2.75876596570015">
        <ele>1.58</ele>
        <time>2018-07-02T08:50:30Z</time>
      </trkpt>
      <trkpt lat="51.106251999735832" lon="2.759592002257705">
        <ele>3.02</ele>
        <time>2018-07-02T08:50:42Z</time>
      </trkpt>
      <trkpt lat="51.105476003140211" lon="2.760164989158511">
        <ele>1.58</ele>
        <time>2018-07-02T08:50:49Z</time>
      </trkpt>
      <trkpt lat="51.105371983721852" lon="2.760242018848658">
        <ele>1.58</ele>
        <time>2018-07-02T08:50:50Z</time>
      </trkpt>
      <trkpt lat="51.105244997888803" lon="2.760335979983211">
        <ele>2.06</ele>
        <time>2018-07-02T08:50:51Z</time>
      </trkpt>
      <trkpt lat="51.105160005390644" lon="2.760346960276365">
        <ele>2.06</ele>
        <time>2018-07-02T08:50:52Z</time>
      </trkpt>
      <trkpt lat="51.10504399985075" lon="2.760347966104746">
        <ele>2.54</ele>
        <time>2018-07-02T08:50:53Z</time>
      </trkpt>
      <trkpt lat="51.10493503510952" lon="2.760309996083379">
        <ele>3.02</ele>
        <time>2018-07-02T08:50:54Z</time>
      </trkpt>
      <trkpt lat="51.104716015979648" lon="2.760233972221613">
        <ele>3.02</ele>
        <time>2018-07-02T08:50:56Z</time>
      </trkpt>
      <trkpt lat="51.104574026539922" lon="2.760189967229962">
        <ele>2.54</ele>
        <time>2018-07-02T08:50:57Z</time>
      </trkpt>
      <trkpt lat="51.104475036263466" lon="2.760260961949825">
        <ele>2.54</ele>
        <time>2018-07-02T08:50:58Z</time>
      </trkpt>
      <trkpt lat="51.104367999359965" lon="2.760344026610255">
        <ele>2.54</ele>
        <time>2018-07-02T08:50:59Z</time>
      </trkpt>
      <trkpt lat="51.104258028790355" lon="2.760432958602905">
        <ele>2.54</ele>
        <time>2018-07-02T08:51:00Z</time>
      </trkpt>
      <trkpt lat="51.103031001985073" lon="2.761434009298682">
        <ele>2.06</ele>
        <time>2018-07-02T08:51:10Z</time>
      </trkpt>
      <trkpt lat="51.102920025587082" lon="2.761524030938745">
        <ele>2.06</ele>
        <time>2018-07-02T08:51:11Z</time>
      </trkpt>
      <trkpt lat="51.102794967591763" lon="2.761630984023213">
        <ele>2.06</ele>
        <time>2018-07-02T08:51:12Z</time>
      </trkpt>
      <trkpt lat="51.102718021720648" lon="2.761784959584475">
        <ele>2.06</ele>
        <time>2018-07-02T08:51:13Z</time>
      </trkpt>
      <trkpt lat="51.102653983980417" lon="2.761960979551077">
        <ele>2.06</ele>
        <time>2018-07-02T08:51:14Z</time>
      </trkpt>
      <trkpt lat="51.102598998695612" lon="2.762143034487963">
        <ele>2.06</ele>
        <time>2018-07-02T08:51:15Z</time>
      </trkpt>
      <trkpt lat="51.102542001754045" lon="2.7623310405761">
        <ele>2.06</ele>
        <time>2018-07-02T08:51:16Z</time>
      </trkpt>
      <trkpt lat="51.101748989894986" lon="2.764590969309211">
        <ele>1.1</ele>
        <time>2018-07-02T08:51:28Z</time>
      </trkpt>
      <trkpt lat="51.101101990789175" lon="2.76572403497994">
        <ele>0.62</ele>
        <time>2018-07-02T08:51:36Z</time>
      </trkpt>
      <trkpt lat="51.101049017161131" lon="2.765836017206311">
        <ele>1.1</ele>
        <time>2018-07-02T08:51:37Z</time>
      </trkpt>
      <trkpt lat="51.100997971370816" lon="2.7659419644624">
        <ele>1.1</ele>
        <time>2018-07-02T08:51:38Z</time>
      </trkpt>
      <trkpt lat="51.100952038541436" lon="2.766038021072745">
        <ele>1.1</ele>
        <time>2018-07-02T08:51:39Z</time>
      </trkpt>
      <trkpt lat="51.100911973044276" lon="2.766123013570905">
        <ele>1.58</ele>
        <time>2018-07-02T08:51:40Z</time>
      </trkpt>
      <trkpt lat="51.100866962224245" lon="2.766215968877077">
        <ele>1.58</ele>
        <time>2018-07-02T08:51:41Z</time>
      </trkpt>
      <trkpt lat="51.100857993587852" lon="2.766308002173901">
        <ele>1.58</ele>
        <time>2018-07-02T08:51:42Z</time>
      </trkpt>
      <trkpt lat="51.100847013294697" lon="2.766414033249021">
        <ele>2.06</ele>
        <time>2018-07-02T08:51:43Z</time>
      </trkpt>
      <trkpt lat="51.100836033001542" lon="2.766514029353857">
        <ele>2.06</ele>
        <time>2018-07-02T08:51:44Z</time>
      </trkpt>
      <trkpt lat="51.100825974717736" lon="2.766606984660029">
        <ele>2.06</ele>
        <time>2018-07-02T08:51:45Z</time>
      </trkpt>
      <trkpt lat="51.100851958617568" lon="2.766704969108105">
        <ele>2.54</ele>
        <time>2018-07-02T08:51:46Z</time>
      </trkpt>
      <trkpt lat="51.100889006629586" lon="2.766817035153508">
        <ele>2.54</ele>
        <time>2018-07-02T08:51:47Z</time>
      </trkpt>
      <trkpt lat="51.100894035771489" lon="2.766846958547831">
        <ele>2.54</ele>
        <time>2018-07-02T08:51:48Z</time>
      </trkpt>
      <trkpt lat="51.100895963609219" lon="2.766976961866021">
        <ele>2.54</ele>
        <time>2018-07-02T08:51:49Z</time>
      </trkpt>
      <trkpt lat="51.100858999416232" lon="2.767060026526451">
        <ele>2.54</ele>
        <time>2018-07-02T08:51:50Z</time>
      </trkpt>
      <trkpt lat="51.100814994424582" lon="2.767159016802907">
        <ele>2.54</ele>
        <time>2018-07-02T08:51:51Z</time>
      </trkpt>
      <trkpt lat="51.100601004436612" lon="2.767640976235271">
        <ele>3.5</ele>
        <time>2018-07-02T08:51:55Z</time>
      </trkpt>
      <trkpt lat="51.100555993616581" lon="2.767742983996868">
        <ele>3.98</ele>
        <time>2018-07-02T08:51:56Z</time>
      </trkpt>
      <trkpt lat="51.100520035251975" lon="2.767824037000537">
        <ele>3.98</ele>
        <time>2018-07-02T08:51:57Z</time>
      </trkpt>
      <trkpt lat="51.100486004725099" lon="2.76793803088367">
        <ele>3.98</ele>
        <time>2018-07-02T08:51:58Z</time>
      </trkpt>
      <trkpt lat="51.100494973361492" lon="2.767992010340095">
        <ele>4.46</ele>
        <time>2018-07-02T08:51:59Z</time>
      </trkpt>
      <trkpt lat="51.100502014160156" lon="2.768037021160126">
        <ele>4.46</ele>
        <time>2018-07-02T08:52:00Z</time>
      </trkpt>
      <trkpt lat="51.10051098279655" lon="2.76809100061655">
        <ele>4.46</ele>
        <time>2018-07-02T08:52:01Z</time>
      </trkpt>
      <trkpt lat="51.100546019151807" lon="2.768297027796507">
        <ele>4.46</ele>
        <time>2018-07-02T08:52:02Z</time>
      </trkpt>
      <trkpt lat="51.100546019151807" lon="2.768297027796507">
        <ele>4.46</ele>
        <time>2018-07-02T08:52:03Z</time>
      </trkpt>
      <trkpt lat="51.100506959483027" lon="2.768393000587821">
        <ele>4.46</ele>
        <time>2018-07-02T08:52:04Z</time>
      </trkpt>
      <trkpt lat="51.100143017247319" lon="2.769364966079593">
        <ele>5.42</ele>
        <time>2018-07-02T08:52:10Z</time>
      </trkpt>
      <trkpt lat="51.09941303730011" lon="2.771607963368297">
        <ele>3.98</ele>
        <time>2018-07-02T08:52:19Z</time>
      </trkpt>
      <trkpt lat="51.098482981324196" lon="2.773682987317443">
        <ele>3.5</ele>
        <time>2018-07-02T08:52:27Z</time>
      </trkpt>
      <trkpt lat="51.096765026450157" lon="2.776385983452201">
        <ele>2.06</ele>
        <time>2018-07-02T08:52:41Z</time>
      </trkpt>
      <trkpt lat="51.095372037962079" lon="2.779022008180618">
        <ele>2.54</ele>
        <time>2018-07-02T08:52:54Z</time>
      </trkpt>
      <trkpt lat="51.094400994479656" lon="2.779802028089762">
        <ele>2.06</ele>
        <time>2018-07-02T08:53:01Z</time>
      </trkpt>
      <trkpt lat="51.092185992747545" lon="2.780779022723436">
        <ele>3.02</ele>
        <time>2018-07-02T08:53:14Z</time>
      </trkpt>
      <trkpt lat="51.091220984235406" lon="2.781218988820911">
        <ele>3.02</ele>
        <time>2018-07-02T08:53:22Z</time>
      </trkpt>
      <trkpt lat="51.091032978147268" lon="2.78130498714745">
        <ele>2.54</ele>
        <time>2018-07-02T08:53:25Z</time>
      </trkpt>
      <trkpt lat="51.090981010347605" lon="2.781259976327419">
        <ele>2.54</ele>
        <time>2018-07-02T08:53:26Z</time>
      </trkpt>
      <trkpt lat="51.090966006740928" lon="2.781200967729092">
        <ele>2.54</ele>
        <time>2018-07-02T08:53:27Z</time>
      </trkpt>
      <trkpt lat="51.090945973992348" lon="2.781119998544455">
        <ele>2.54</ele>
        <time>2018-07-02T08:53:28Z</time>
      </trkpt>
      <trkpt lat="51.090919990092516" lon="2.781018996611238">
        <ele>2.54</ele>
        <time>2018-07-02T08:53:29Z</time>
      </trkpt>
      <trkpt lat="51.090657971799374" lon="2.779986010864377">
        <ele>3.5</ele>
        <time>2018-07-02T08:53:35Z</time>
      </trkpt>
      <trkpt lat="51.090039974078536" lon="2.777772014960647">
        <ele>3.02</ele>
        <time>2018-07-02T08:53:44Z</time>
      </trkpt>
      <trkpt lat="51.088590994477272" lon="2.774043995887041">
        <ele>2.54</ele>
        <time>2018-07-02T08:54:00Z</time>
      </trkpt>
      <trkpt lat="51.086817970499396" lon="2.769646011292934">
        <ele>3.02</ele>
        <time>2018-07-02T08:54:19Z</time>
      </trkpt>
      <trkpt lat="51.086333999410272" lon="2.768359975889325">
        <ele>1.58</ele>
        <time>2018-07-02T08:54:25Z</time>
      </trkpt>
      <trkpt lat="51.086282031610608" lon="2.768190996721387">
        <ele>2.06</ele>
        <time>2018-07-02T08:54:26Z</time>
      </trkpt>
      <trkpt lat="51.086255041882396" lon="2.768011037260294">
        <ele>2.06</ele>
        <time>2018-07-02T08:54:27Z</time>
      </trkpt>
      <trkpt lat="51.086255041882396" lon="2.767829988151789">
        <ele>2.06</ele>
        <time>2018-07-02T08:54:28Z</time>
      </trkpt>
      <trkpt lat="51.086261998862028" lon="2.767632007598877">
        <ele>2.54</ele>
        <time>2018-07-02T08:54:29Z</time>
      </trkpt>
      <trkpt lat="51.086315978318453" lon="2.767476020380855">
        <ele>2.54</ele>
        <time>2018-07-02T08:54:30Z</time>
      </trkpt>
      <trkpt lat="51.086366018280387" lon="2.767327995970845">
        <ele>3.02</ele>
        <time>2018-07-02T08:54:31Z</time>
      </trkpt>
      <trkpt lat="51.086414968594909" lon="2.7671870123595">
        <ele>3.02</ele>
        <time>2018-07-02T08:54:32Z</time>
      </trkpt>
      <trkpt lat="51.086499039083719" lon="2.766900015994906">
        <ele>3.02</ele>
        <time>2018-07-02T08:54:34Z</time>
      </trkpt>
      <trkpt lat="51.086518988013268" lon="2.766743022948504">
        <ele>3.02</ele>
        <time>2018-07-02T08:54:35Z</time>
      </trkpt>
      <trkpt lat="51.086812019348145" lon="2.765117017552257">
        <ele>3.02</ele>
        <time>2018-07-02T08:54:45Z</time>
      </trkpt>
      <trkpt lat="51.087258020415902" lon="2.763850009068847">
        <ele>3.02</ele>
        <time>2018-07-02T08:54:52Z</time>
      </trkpt>
      <trkpt lat="51.087300013750792" lon="2.763668037950993">
        <ele>3.02</ele>
        <time>2018-07-02T08:54:53Z</time>
      </trkpt>
      <trkpt lat="51.087310994043946" lon="2.763473996892571">
        <ele>3.02</ele>
        <time>2018-07-02T08:54:54Z</time>
      </trkpt>
      <trkpt lat="51.08738299459219" lon="2.761103007942438">
        <ele>3.98</ele>
        <time>2018-07-02T08:55:04Z</time>
      </trkpt>
      <trkpt lat="51.087466981261969" lon="2.75910995900631">
        <ele>4.46</ele>
        <time>2018-07-02T08:55:12Z</time>
      </trkpt>
      <trkpt lat="51.087508974596858" lon="2.75889303535223">
        <ele>4.46</ele>
        <time>2018-07-02T08:55:13Z</time>
      </trkpt>
      <trkpt lat="51.087567983195186" lon="2.75868097320199">
        <ele>4.46</ele>
        <time>2018-07-02T08:55:14Z</time>
      </trkpt>
      <trkpt lat="51.088381027802825" lon="2.756591029465199">
        <ele>3.5</ele>
        <time>2018-07-02T08:55:23Z</time>
      </trkpt>
      <trkpt lat="51.089030038565397" lon="2.754935016855598">
        <ele>3.5</ele>
        <time>2018-07-02T08:55:31Z</time>
      </trkpt>
      <trkpt lat="51.089188037440181" lon="2.754648020491004">
        <ele>3.5</ele>
        <time>2018-07-02T08:55:33Z</time>
      </trkpt>
      <trkpt lat="51.089286021888256" lon="2.754538971930742">
        <ele>3.02</ele>
        <time>2018-07-02T08:55:34Z</time>
      </trkpt>
      <trkpt lat="51.089389035478234" lon="2.754434030503035">
        <ele>3.02</ele>
        <time>2018-07-02T08:55:35Z</time>
      </trkpt>
      <trkpt lat="51.090707005932927" lon="2.753360979259014">
        <ele>3.5</ele>
        <time>2018-07-02T08:55:46Z</time>
      </trkpt>
      <trkpt lat="51.090900963172317" lon="2.75317900814116">
        <ele>3.98</ele>
        <time>2018-07-02T08:55:48Z</time>
      </trkpt>
      <trkpt lat="51.090974975377321" lon="2.753104995936155">
        <ele>3.98</ele>
        <time>2018-07-02T08:55:49Z</time>
      </trkpt>
      <trkpt lat="51.091052005067468" lon="2.752949008718133">
        <ele>3.98</ele>
        <time>2018-07-02T08:55:50Z</time>
      </trkpt>
      <trkpt lat="51.091118976473808" lon="2.752810958772898">
        <ele>3.98</ele>
        <time>2018-07-02T08:55:51Z</time>
      </trkpt>
      <trkpt lat="51.09118795953691" lon="2.752671986818314">
        <ele>4.46</ele>
        <time>2018-07-02T08:55:52Z</time>
      </trkpt>
      <trkpt lat="51.091649970039725" lon="2.751497011631727">
        <ele>4.94</ele>
        <time>2018-07-02T08:55:59Z</time>
      </trkpt>
      <trkpt lat="51.091679977253079" lon="2.751281009986997">
        <ele>4.94</ele>
        <time>2018-07-02T08:56:00Z</time>
      </trkpt>
      <trkpt lat="51.091705039143562" lon="2.751058973371983">
        <ele>4.94</ele>
        <time>2018-07-02T08:56:01Z</time>
      </trkpt>
      <trkpt lat="51.091703027486801" lon="2.750829979777336">
        <ele>4.94</ele>
        <time>2018-07-02T08:56:02Z</time>
      </trkpt>
      <trkpt lat="51.09170101583004" lon="2.750595035031438">
        <ele>4.94</ele>
        <time>2018-07-02T08:56:03Z</time>
      </trkpt>
      <trkpt lat="51.091699004173279" lon="2.750355983152986">
        <ele>4.94</ele>
        <time>2018-07-02T08:56:04Z</time>
      </trkpt>
      <trkpt lat="51.091681988909841" lon="2.748396964743733">
        <ele>4.94</ele>
        <time>2018-07-02T08:56:12Z</time>
      </trkpt>
      <trkpt lat="51.091644018888474" lon="2.748153973370791">
        <ele>4.94</ele>
        <time>2018-07-02T08:56:13Z</time>
      </trkpt>
      <trkpt lat="51.091585010290146" lon="2.747903019189835">
        <ele>4.46</ele>
        <time>2018-07-02T08:56:14Z</time>
      </trkpt>
      <trkpt lat="51.091502029448748" lon="2.747671008110046">
        <ele>4.46</ele>
        <time>2018-07-02T08:56:15Z</time>
      </trkpt>
      <trkpt lat="51.091416031122208" lon="2.747432962059975">
        <ele>4.46</ele>
        <time>2018-07-02T08:56:16Z</time>
      </trkpt>
      <trkpt lat="51.090889982879162" lon="2.74585297331214">
        <ele>3.02</ele>
        <time>2018-07-02T08:56:23Z</time>
      </trkpt>
      <trkpt lat="51.090887971222401" lon="2.745588021352887">
        <ele>3.02</ele>
        <time>2018-07-02T08:56:24Z</time>
      </trkpt>
      <trkpt lat="51.090885959565639" lon="2.74533798918128">
        <ele>3.02</ele>
        <time>2018-07-02T08:56:25Z</time>
      </trkpt>
      <trkpt lat="51.090868022292852" lon="2.742762984707952">
        <ele>2.54</ele>
        <time>2018-07-02T08:56:35Z</time>
      </trkpt>
      <trkpt lat="51.09084103256464" lon="2.74254203774035">
        <ele>2.54</ele>
        <time>2018-07-02T08:56:36Z</time>
      </trkpt>
      <trkpt lat="51.090808007866144" lon="2.742323018610477">
        <ele>2.54</ele>
        <time>2018-07-02T08:56:37Z</time>
      </trkpt>
      <trkpt lat="51.090310961008072" lon="2.740170964971185">
        <ele>2.54</ele>
        <time>2018-07-02T08:56:47Z</time>
      </trkpt>
      <trkpt lat="51.089544016867876" lon="2.73689397610724">
        <ele>3.5</ele>
        <time>2018-07-02T08:57:01Z</time>
      </trkpt>
      <trkpt lat="51.089076977223158" lon="2.734897993505001">
        <ele>3.02</ele>
        <time>2018-07-02T08:57:11Z</time>
      </trkpt>
      <trkpt lat="51.088857958093286" lon="2.734053013846278">
        <ele>4.46</ele>
        <time>2018-07-02T08:57:17Z</time>
      </trkpt>
      <trkpt lat="51.08880297280848" lon="2.733956035226584">
        <ele>4.46</ele>
        <time>2018-07-02T08:57:18Z</time>
      </trkpt>
      <trkpt lat="51.088747987523675" lon="2.733859978616238">
        <ele>4.46</ele>
        <time>2018-07-02T08:57:19Z</time>
      </trkpt>
      <trkpt lat="51.088677998632193" lon="2.733782026916742">
        <ele>4.94</ele>
        <time>2018-07-02T08:57:20Z</time>
      </trkpt>
      <trkpt lat="51.088597029447556" lon="2.733721006661654">
        <ele>4.46</ele>
        <time>2018-07-02T08:57:21Z</time>
      </trkpt>
      <trkpt lat="51.088513964787126" lon="2.733658980578184">
        <ele>4.46</ele>
        <time>2018-07-02T08:57:22Z</time>
      </trkpt>
      <trkpt lat="51.088418997824192" lon="2.733614975586534">
        <ele>3.98</ele>
        <time>2018-07-02T08:57:23Z</time>
      </trkpt>
      <trkpt lat="51.088319001719356" lon="2.733599971979857">
        <ele>3.98</ele>
        <time>2018-07-02T08:57:24Z</time>
      </trkpt>
      <trkpt lat="51.088212970644236" lon="2.733583962544799">
        <ele>3.98</ele>
        <time>2018-07-02T08:57:25Z</time>
      </trkpt>
      <trkpt lat="51.087058028206229" lon="2.733290009200573">
        <ele>3.5</ele>
        <time>2018-07-02T08:57:34Z</time>
      </trkpt>
      <trkpt lat="51.085486002266407" lon="2.732215030118823">
        <ele>3.02</ele>
        <time>2018-07-02T08:57:45Z</time>
      </trkpt>
      <trkpt lat="51.083666039630771" lon="2.730377968400717">
        <ele>3.98</ele>
        <time>2018-07-02T08:57:59Z</time>
      </trkpt>
      <trkpt lat="51.082757022231817" lon="2.728983974084258">
        <ele>5.91</ele>
        <time>2018-07-02T08:58:07Z</time>
      </trkpt>
      <trkpt lat="51.081650024279952" lon="2.727222014218569">
        <ele>6.39</ele>
        <time>2018-07-02T08:58:17Z</time>
      </trkpt>
      <trkpt lat="51.081134034320712" lon="2.726092971861363">
        <ele>5.42</ele>
        <time>2018-07-02T08:58:23Z</time>
      </trkpt>
      <trkpt lat="51.081086006015539" lon="2.725858027115464">
        <ele>5.42</ele>
        <time>2018-07-02T08:58:24Z</time>
      </trkpt>
      <trkpt lat="51.081037977710366" lon="2.725620986893773">
        <ele>5.42</ele>
        <time>2018-07-02T08:58:25Z</time>
      </trkpt>
      <trkpt lat="51.080533973872662" lon="2.722712969407439">
        <ele>3.98</ele>
        <time>2018-07-02T08:58:37Z</time>
      </trkpt>
      <trkpt lat="51.080461973324418" lon="2.722503002732992">
        <ele>3.5</ele>
        <time>2018-07-02T08:58:38Z</time>
      </trkpt>
      <trkpt lat="51.08037899248302" lon="2.722285995259881">
        <ele>3.5</ele>
        <time>2018-07-02T08:58:39Z</time>
      </trkpt>
      <trkpt lat="51.080263992771506" lon="2.722107963636518">
        <ele>3.5</ele>
        <time>2018-07-02T08:58:40Z</time>
      </trkpt>
      <trkpt lat="51.080160979181528" lon="2.721948958933353">
        <ele>3.02</ele>
        <time>2018-07-02T08:58:41Z</time>
      </trkpt>
      <trkpt lat="51.078866980969906" lon="2.720211977139115">
        <ele>3.02</ele>
        <time>2018-07-02T08:58:51Z</time>
      </trkpt>
      <trkpt lat="51.077540963888168" lon="2.718339040875435">
        <ele>2.54</ele>
        <time>2018-07-02T08:59:02Z</time>
      </trkpt>
      <trkpt lat="51.077074008062482" lon="2.717102039605379">
        <ele>3.5</ele>
        <time>2018-07-02T08:59:09Z</time>
      </trkpt>
      <trkpt lat="51.076846020296216" lon="2.716463003307581">
        <ele>3.02</ele>
        <time>2018-07-02T08:59:16Z</time>
      </trkpt>
      <trkpt lat="51.076843002811074" lon="2.716454034671187">
        <ele>3.02</ele>
        <time>2018-07-02T08:59:21Z</time>
      </trkpt>
      <trkpt lat="51.07683596201241" lon="2.716434001922607">
        <ele>2.54</ele>
        <time>2018-07-02T08:59:22Z</time>
      </trkpt>
      <trkpt lat="51.076864041388035" lon="2.716314978897572">
        <ele>2.54</ele>
        <time>2018-07-02T08:59:23Z</time>
      </trkpt>
      <trkpt lat="51.076916009187698" lon="2.716257981956005">
        <ele>2.54</ele>
        <time>2018-07-02T08:59:24Z</time>
      </trkpt>
      <trkpt lat="51.076985998079181" lon="2.71618296392262">
        <ele>2.54</ele>
        <time>2018-07-02T08:59:25Z</time>
      </trkpt>
      <trkpt lat="51.077065039426088" lon="2.71609696559608">
        <ele>2.54</ele>
        <time>2018-07-02T08:59:26Z</time>
      </trkpt>
      <trkpt lat="51.077855033800006" lon="2.715243017300963">
        <ele>3.02</ele>
        <time>2018-07-02T08:59:33Z</time>
      </trkpt>
      <trkpt lat="51.079300995916128" lon="2.713606031611562">
        <ele>6.39</ele>
        <time>2018-07-02T08:59:43Z</time>
      </trkpt>
      <trkpt lat="51.080245971679687" lon="2.712505990639329">
        <ele>10.23</ele>
        <time>2018-07-02T08:59:51Z</time>
      </trkpt>
      <trkpt lat="51.081311982125044" lon="2.711312994360924">
        <ele>9.75</ele>
        <time>2018-07-02T09:00:00Z</time>
      </trkpt>
      <trkpt lat="51.082759033888578" lon="2.709624962881208">
        <ele>7.35</ele>
        <time>2018-07-02T09:00:10Z</time>
      </trkpt>
      <trkpt lat="51.083677019923925" lon="2.708577979356051">
        <ele>6.87</ele>
        <time>2018-07-02T09:00:18Z</time>
      </trkpt>
      <trkpt lat="51.085350969806314" lon="2.706829011440277">
        <ele>6.39</ele>
        <time>2018-07-02T09:00:31Z</time>
      </trkpt>
      <trkpt lat="51.087491037324071" lon="2.704695984721184">
        <ele>5.91</ele>
        <time>2018-07-02T09:00:44Z</time>
      </trkpt>
      <trkpt lat="51.090718992054462" lon="2.701638014987111">
        <ele>5.42</ele>
        <time>2018-07-02T09:01:02Z</time>
      </trkpt>
      <trkpt lat="51.093153012916446" lon="2.699375990778208">
        <ele>5.91</ele>
        <time>2018-07-02T09:01:15Z</time>
      </trkpt>
      <trkpt lat="51.096628988161683" lon="2.696224981918931">
        <ele>5.91</ele>
        <time>2018-07-02T09:01:33Z</time>
      </trkpt>
      <trkpt lat="51.098135970532894" lon="2.69491002894938">
        <ele>5.91</ele>
        <time>2018-07-02T09:01:42Z</time>
      </trkpt>
      <trkpt lat="51.099875969812274" lon="2.693580994382501">
        <ele>5.91</ele>
        <time>2018-07-02T09:01:54Z</time>
      </trkpt>
      <trkpt lat="51.100530009716749" lon="2.693134993314743">
        <ele>6.39</ele>
        <time>2018-07-02T09:02:02Z</time>
      </trkpt>
      <trkpt lat="51.100652972236276" lon="2.693281006067991">
        <ele>6.39</ele>
        <time>2018-07-02T09:02:03Z</time>
      </trkpt>
      <trkpt lat="51.10066101886332" lon="2.693283017724752">
        <ele>6.87</ele>
        <time>2018-07-02T09:02:04Z</time>
      </trkpt>
      <trkpt lat="51.100722039118409" lon="2.693295003846288">
        <ele>6.87</ele>
        <time>2018-07-02T09:02:05Z</time>
      </trkpt>
      <trkpt lat="51.100792028009892" lon="2.693296009674668">
        <ele>7.35</ele>
        <time>2018-07-02T09:02:06Z</time>
      </trkpt>
      <trkpt lat="51.100879032164812" lon="2.693260973319411">
        <ele>7.35</ele>
        <time>2018-07-02T09:02:07Z</time>
      </trkpt>
      <trkpt lat="51.100924964994192" lon="2.693181009963155">
        <ele>7.83</ele>
        <time>2018-07-02T09:02:08Z</time>
      </trkpt>
      <trkpt lat="51.100952960550785" lon="2.693130970001221">
        <ele>7.83</ele>
        <time>2018-07-02T09:02:09Z</time>
      </trkpt>
      <trkpt lat="51.100952960550785" lon="2.692985963076353">
        <ele>7.83</ele>
        <time>2018-07-02T09:02:10Z</time>
      </trkpt>
      <trkpt lat="51.100952960550785" lon="2.692919997498393">
        <ele>8.310000000000001</ele>
        <time>2018-07-02T09:02:11Z</time>
      </trkpt>
      <trkpt lat="51.100952960550785" lon="2.692876998335123">
        <ele>8.310000000000001</ele>
        <time>2018-07-02T09:02:12Z</time>
      </trkpt>
      <trkpt lat="51.100952960550785" lon="2.69284900277853">
        <ele>8.310000000000001</ele>
        <time>2018-07-02T09:02:13Z</time>
      </trkpt>
      <trkpt lat="51.100952960550785" lon="2.69284900277853">
        <ele>8.789999999999999</ele>
        <time>2018-07-02T09:02:24Z</time>
      </trkpt>
      <trkpt lat="51.101179020479321" lon="2.692640963941813">
        <ele>8.310000000000001</ele>
        <time>2018-07-02T09:02:43Z</time>
      </trkpt>
      <trkpt lat="51.10119603574276" lon="2.692628977820277">
        <ele>6.87</ele>
        <time>2018-07-02T09:02:56Z</time>
      </trkpt>
      <trkpt lat="51.101329978555441" lon="2.692528981715441">
        <ele>3.02</ele>
        <time>2018-07-02T09:03:24Z</time>
      </trkpt>
      <trkpt lat="51.101676989346743" lon="2.692271992564201">
        <ele>-0.34</ele>
        <time>2018-07-02T09:03:33Z</time>
      </trkpt>
      <trkpt lat="51.102462960407138" lon="2.69168802537024">
        <ele>0.62</ele>
        <time>2018-07-02T09:03:44Z</time>
      </trkpt>
      <trkpt lat="51.103363009169698" lon="2.691032979637384">
        <ele>5.42</ele>
        <time>2018-07-02T09:03:53Z</time>
      </trkpt>
      <trkpt lat="51.104850964620709" lon="2.690152963623405">
        <ele>1.58</ele>
        <time>2018-07-02T09:04:04Z</time>
      </trkpt>
      <trkpt lat="51.106270020827651" lon="2.689718026667833">
        <ele>0.62</ele>
        <time>2018-07-02T09:04:13Z</time>
      </trkpt>
      <trkpt lat="51.107532000169158" lon="2.689657006412745">
        <ele>0.62</ele>
        <time>2018-07-02T09:04:21Z</time>
      </trkpt>
      <trkpt lat="51.109057003632188" lon="2.689816011115909">
        <ele>0.62</ele>
        <time>2018-07-02T09:04:31Z</time>
      </trkpt>
      <trkpt lat="51.110313031822443" lon="2.689574025571346">
        <ele>1.58</ele>
        <time>2018-07-02T09:04:39Z</time>
      </trkpt>
      <trkpt lat="51.111564030870795" lon="2.688611028715968">
        <ele>2.06</ele>
        <time>2018-07-02T09:04:48Z</time>
      </trkpt>
      <trkpt lat="51.112569021061063" lon="2.687266990542412">
        <ele>3.5</ele>
        <time>2018-07-02T09:04:57Z</time>
      </trkpt>
      <trkpt lat="51.113962009549141" lon="2.685194984078407">
        <ele>6.39</ele>
        <time>2018-07-02T09:05:12Z</time>
      </trkpt>
      <trkpt lat="51.114555029198527" lon="2.684308011084795">
        <ele>6.87</ele>
        <time>2018-07-02T09:05:19Z</time>
      </trkpt>
      <trkpt lat="51.115115024149418" lon="2.683561015874147">
        <ele>5.91</ele>
        <time>2018-07-02T09:05:28Z</time>
      </trkpt>
      <trkpt lat="51.115498999133706" lon="2.683150973170996">
        <ele>6.39</ele>
        <time>2018-07-02T09:05:37Z</time>
      </trkpt>
      <trkpt lat="51.115498999133706" lon="2.683150973170996">
        <ele>6.87</ele>
        <time>2018-07-02T09:05:55Z</time>
      </trkpt>
      <trkpt lat="51.115669989958405" lon="2.682960033416748">
        <ele>5.42</ele>
        <time>2018-07-02T09:06:13Z</time>
      </trkpt>
      <trkpt lat="51.11580602824688" lon="2.682806979864836">
        <ele>3.5</ele>
        <time>2018-07-02T09:06:18Z</time>
      </trkpt>
      <trkpt lat="51.115789012983441" lon="2.682718969881535">
        <ele>3.02</ele>
        <time>2018-07-02T09:06:19Z</time>
      </trkpt>
      <trkpt lat="51.115761017426848" lon="2.682662978768349">
        <ele>2.54</ele>
        <time>2018-07-02T09:06:20Z</time>
      </trkpt>
      <trkpt lat="51.115737967193127" lon="2.682575974613428">
        <ele>1.58</ele>
        <time>2018-07-02T09:06:21Z</time>
      </trkpt>
      <trkpt lat="51.115737967193127" lon="2.682509003207088">
        <ele>1.1</ele>
        <time>2018-07-02T09:06:22Z</time>
      </trkpt>
      <trkpt lat="51.115757999941707" lon="2.68242702819407">
        <ele>0.62</ele>
        <time>2018-07-02T09:06:23Z</time>
      </trkpt>
      <trkpt lat="51.115776021033525" lon="2.682355027645826">
        <ele>0.14</ele>
        <time>2018-07-02T09:06:24Z</time>
      </trkpt>
      <trkpt lat="51.115808039903641" lon="2.682247990742326">
        <ele>-0.34</ele>
        <time>2018-07-02T09:06:25Z</time>
      </trkpt>
      <trkpt lat="51.115856990218163" lon="2.68221203237772">
        <ele>-0.82</ele>
        <time>2018-07-02T09:06:26Z</time>
      </trkpt>
      <trkpt lat="51.115907030180097" lon="2.682175990194082">
        <ele>-1.3</ele>
        <time>2018-07-02T09:06:27Z</time>
      </trkpt>
      <trkpt lat="51.115960003808141" lon="2.682138020172715">
        <ele>-1.79</ele>
        <time>2018-07-02T09:06:28Z</time>
      </trkpt>
      <trkpt lat="51.116192014887929" lon="2.681969963014126">
        <ele>-3.23</ele>
        <time>2018-07-02T09:06:32Z</time>
      </trkpt>
      <trkpt lat="51.116250017657876" lon="2.681931992992759">
        <ele>-3.23</ele>
        <time>2018-07-02T09:06:33Z</time>
      </trkpt>
      <trkpt lat="51.116835996508598" lon="2.681563021615148">
        <ele>-3.23</ele>
        <time>2018-07-02T09:06:42Z</time>
      </trkpt>
      <trkpt lat="51.117020985111594" lon="2.681462019681931">
        <ele>-2.75</ele>
        <time>2018-07-02T09:06:45Z</time>
      </trkpt>
      <trkpt lat="51.117072030901909" lon="2.681435029953718">
        <ele>-2.27</ele>
        <time>2018-07-02T09:06:46Z</time>
      </trkpt>
      <trkpt lat="51.117125004529953" lon="2.681408040225506">
        <ele>-1.79</ele>
        <time>2018-07-02T09:06:47Z</time>
      </trkpt>
      <trkpt lat="51.117233969271183" lon="2.681353976950049">
        <ele>-0.82</ele>
        <time>2018-07-02T09:06:49Z</time>
      </trkpt>
      <trkpt lat="51.117315022274852" lon="2.681355988606811">
        <ele>-0.34</ele>
        <time>2018-07-02T09:06:50Z</time>
      </trkpt>
      <trkpt lat="51.118187997490168" lon="2.680740002542734">
        <ele>4.46</ele>
        <time>2018-07-02T09:07:00Z</time>
      </trkpt>
      <trkpt lat="51.1192880384624" lon="2.680024020373821">
        <ele>5.42</ele>
        <time>2018-07-02T09:07:10Z</time>
      </trkpt>
      <trkpt lat="51.120260003954172" lon="2.679405016824603">
        <ele>5.91</ele>
        <time>2018-07-02T09:07:19Z</time>
      </trkpt>
      <trkpt lat="51.121319979429245" lon="2.678719041869044">
        <ele>4.94</ele>
        <time>2018-07-02T09:07:30Z</time>
      </trkpt>
      <trkpt lat="51.122225979343057" lon="2.678147982805967">
        <ele>4.94</ele>
        <time>2018-07-02T09:07:39Z</time>
      </trkpt>
      <trkpt lat="51.123469015583396" lon="2.677327981218696">
        <ele>4.46</ele>
        <time>2018-07-02T09:07:50Z</time>
      </trkpt>
      <trkpt lat="51.124198995530605" lon="2.676867982372642">
        <ele>4.46</ele>
        <time>2018-07-02T09:07:56Z</time>
      </trkpt>
      <trkpt lat="51.124320030212402" lon="2.676785001531243">
        <ele>3.98</ele>
        <time>2018-07-02T09:07:57Z</time>
      </trkpt>
      <trkpt lat="51.125394003465772" lon="2.676101038232446">
        <ele>5.42</ele>
        <time>2018-07-02T09:08:06Z</time>
      </trkpt>
      <trkpt lat="51.126512987539172" lon="2.675363011658192">
        <ele>4.46</ele>
        <time>2018-07-02T09:08:16Z</time>
      </trkpt>
      <trkpt lat="51.12794604152441" lon="2.674459023401141">
        <ele>7.35</ele>
        <time>2018-07-02T09:08:29Z</time>
      </trkpt>
      <trkpt lat="51.129180025309324" lon="2.673675986006856">
        <ele>7.35</ele>
        <time>2018-07-02T09:08:40Z</time>
      </trkpt>
      <trkpt lat="51.129832975566387" lon="2.673262003809214">
        <ele>6.87</ele>
        <time>2018-07-02T09:08:47Z</time>
      </trkpt>
      <trkpt lat="51.130651971325278" lon="2.672728998586536">
        <ele>4.94</ele>
        <time>2018-07-02T09:08:56Z</time>
      </trkpt>
      <trkpt lat="51.131060002371669" lon="2.672452982515097">
        <ele>5.91</ele>
        <time>2018-07-02T09:09:01Z</time>
      </trkpt>
      <trkpt lat="51.131658973172307" lon="2.672060038894415">
        <ele>6.87</ele>
        <time>2018-07-02T09:09:11Z</time>
      </trkpt>
      <trkpt lat="51.131733991205692" lon="2.672005975618959">
        <ele>9.27</ele>
        <time>2018-07-02T09:09:23Z</time>
      </trkpt>
      <trkpt lat="51.132070021703839" lon="2.671796008944511">
        <ele>11.19</ele>
        <time>2018-07-02T09:09:32Z</time>
      </trkpt>
      <trkpt lat="51.132130958139896" lon="2.671758960932493">
        <ele>11.67</ele>
        <time>2018-07-02T09:09:35Z</time>
      </trkpt>
      <trkpt lat="51.132105980068445" lon="2.671676985919476">
        <ele>11.67</ele>
        <time>2018-07-02T09:09:36Z</time>
      </trkpt>
      <trkpt lat="51.132088964805007" lon="2.671623006463051">
        <ele>11.19</ele>
        <time>2018-07-02T09:09:37Z</time>
      </trkpt>
      <trkpt lat="51.132068010047078" lon="2.671557040885091">
        <ele>11.19</ele>
        <time>2018-07-02T09:09:38Z</time>
      </trkpt>
      <trkpt lat="51.132043031975627" lon="2.671475987881422">
        <ele>10.710000000000001</ele>
        <time>2018-07-02T09:09:39Z</time>
      </trkpt>
      <trkpt lat="51.132013024762273" lon="2.671381020918489">
        <ele>10.23</ele>
        <time>2018-07-02T09:09:40Z</time>
      </trkpt>
      <trkpt lat="51.13183599896729" lon="2.670809039846063">
        <ele>8.310000000000001</ele>
        <time>2018-07-02T09:09:46Z</time>
      </trkpt>
      <trkpt lat="51.131787970662117" lon="2.670651962980628">
        <ele>5.91</ele>
        <time>2018-07-02T09:09:52Z</time>
      </trkpt>
      <trkpt lat="51.131787970662117" lon="2.670651962980628">
        <ele>5.91</ele>
        <time>2018-07-02T09:09:53Z</time>
      </trkpt>
      <trkpt lat="51.13177003338933" lon="2.67059002071619">
        <ele>5.42</ele>
        <time>2018-07-02T09:09:54Z</time>
      </trkpt>
      <trkpt lat="51.131760980933905" lon="2.670562025159597">
        <ele>4.94</ele>
        <time>2018-07-02T09:09:55Z</time>
      </trkpt>
      <trkpt lat="51.131747988983989" lon="2.670518020167947">
        <ele>4.94</ele>
        <time>2018-07-02T09:09:56Z</time>
      </trkpt>
      <trkpt lat="51.131728962063789" lon="2.670452976599336">
        <ele>4.46</ele>
        <time>2018-07-02T09:09:57Z</time>
      </trkpt>
      <trkpt lat="51.131708007305861" lon="2.670383993536234">
        <ele>4.46</ele>
        <time>2018-07-02T09:09:58Z</time>
      </trkpt>
      <trkpt lat="51.131676994264126" lon="2.670279974117875">
        <ele>3.98</ele>
        <time>2018-07-02T09:10:00Z</time>
      </trkpt>
      <trkpt lat="51.131665008142591" lon="2.670239992439747">
        <ele>3.5</ele>
        <time>2018-07-02T09:10:01Z</time>
      </trkpt>
      <trkpt lat="51.131652016192675" lon="2.670197999104857">
        <ele>3.5</ele>
        <time>2018-07-02T09:10:02Z</time>
      </trkpt>
      <trkpt lat="51.131563000380993" lon="2.669898010790348">
        <ele>3.5</ele>
        <time>2018-07-02T09:10:08Z</time>
      </trkpt>
      <trkpt lat="51.131268041208386" lon="2.668855972588062">
        <ele>3.5</ele>
        <time>2018-07-02T09:10:18Z</time>
      </trkpt>
      <trkpt lat="51.130746016278863" lon="2.667637998238206">
        <ele>5.91</ele>
        <time>2018-07-02T09:10:28Z</time>
      </trkpt>
      <trkpt lat="51.129900030791759" lon="2.66633402556181">
        <ele>7.83</ele>
        <time>2018-07-02T09:10:37Z</time>
      </trkpt>
      <trkpt lat="51.128498995676637" lon="2.664879010990262">
        <ele>9.27</ele>
        <time>2018-07-02T09:10:48Z</time>
      </trkpt>
      <trkpt lat="51.127081029117107" lon="2.663516029715538">
        <ele>8.310000000000001</ele>
        <time>2018-07-02T09:10:58Z</time>
      </trkpt>
      <trkpt lat="51.125693991780281" lon="2.66206000931561">
        <ele>9.75</ele>
        <time>2018-07-02T09:11:08Z</time>
      </trkpt>
      <trkpt lat="51.124899974092841" lon="2.660214984789491">
        <ele>8.789999999999999</ele>
        <time>2018-07-02T09:11:17Z</time>
      </trkpt>
      <trkpt lat="51.124511975795031" lon="2.658492000773549">
        <ele>8.310000000000001</ele>
        <time>2018-07-02T09:11:26Z</time>
      </trkpt>
      <trkpt lat="51.123976958915591" lon="2.656193012371659">
        <ele>8.789999999999999</ele>
        <time>2018-07-02T09:11:36Z</time>
      </trkpt>
      <trkpt lat="51.122936010360718" lon="2.652675965800881">
        <ele>7.83</ele>
        <time>2018-07-02T09:11:51Z</time>
      </trkpt>
      <trkpt lat="51.122289011254907" lon="2.650349987670779">
        <ele>7.83</ele>
        <time>2018-07-02T09:12:01Z</time>
      </trkpt>
      <trkpt lat="51.121753994375467" lon="2.647870033979416">
        <ele>6.87</ele>
        <time>2018-07-02T09:12:12Z</time>
      </trkpt>
      <trkpt lat="51.121392985805869" lon="2.645162008702755">
        <ele>9.27</ele>
        <time>2018-07-02T09:12:24Z</time>
      </trkpt>
      <trkpt lat="51.121338000521064" lon="2.643542038276792">
        <ele>10.710000000000001</ele>
        <time>2018-07-02T09:12:33Z</time>
      </trkpt>
      <trkpt lat="51.12135199829936" lon="2.642795965075493">
        <ele>9.75</ele>
        <time>2018-07-02T09:12:40Z</time>
      </trkpt>
      <trkpt lat="51.121354009956121" lon="2.642742991447449">
        <ele>9.27</ele>
        <time>2018-07-02T09:12:42Z</time>
      </trkpt>
      <trkpt lat="51.121355015784502" lon="2.642725976184011">
        <ele>9.27</ele>
        <time>2018-07-02T09:12:43Z</time>
      </trkpt>
      <trkpt lat="51.121355015784502" lon="2.642725976184011">
        <ele>9.27</ele>
        <time>2018-07-02T09:12:55Z</time>
      </trkpt>
      <trkpt lat="51.121357027441263" lon="2.642675014212728">
        <ele>9.27</ele>
        <time>2018-07-02T09:13:07Z</time>
      </trkpt>
      <trkpt lat="51.121358033269644" lon="2.642630003392696">
        <ele>9.27</ele>
        <time>2018-07-02T09:13:08Z</time>
      </trkpt>
      <trkpt lat="51.121410001069307" lon="2.641806984320283">
        <ele>8.789999999999999</ele>
        <time>2018-07-02T09:13:15Z</time>
      </trkpt>
      <trkpt lat="51.121555007994175" lon="2.640332020819187">
        <ele>9.27</ele>
        <time>2018-07-02T09:13:26Z</time>
      </trkpt>
      <trkpt lat="51.121579986065626" lon="2.640076959505677">
        <ele>9.75</ele>
        <time>2018-07-02T09:13:29Z</time>
      </trkpt>
      <trkpt lat="51.121588032692671" lon="2.63999599032104">
        <ele>9.75</ele>
        <time>2018-07-02T09:13:30Z</time>
      </trkpt>
      <trkpt lat="51.121597001329064" lon="2.639905968680978">
        <ele>9.75</ele>
        <time>2018-07-02T09:13:31Z</time>
      </trkpt>
      <trkpt lat="51.121605969965458" lon="2.639815025031567">
        <ele>9.75</ele>
        <time>2018-07-02T09:13:32Z</time>
      </trkpt>
      <trkpt lat="51.121617034077644" lon="2.639701031148434">
        <ele>9.75</ele>
        <time>2018-07-02T09:13:33Z</time>
      </trkpt>
      <trkpt lat="51.121615022420883" lon="2.639641016721726">
        <ele>10.23</ele>
        <time>2018-07-02T09:13:34Z</time>
      </trkpt>
      <trkpt lat="51.121612004935741" lon="2.639556024223566">
        <ele>10.23</ele>
        <time>2018-07-02T09:13:35Z</time>
      </trkpt>
      <trkpt lat="51.1216089874506" lon="2.639464996755123">
        <ele>10.23</ele>
        <time>2018-07-02T09:13:36Z</time>
      </trkpt>
      <trkpt lat="51.121605969965458" lon="2.639366006478667">
        <ele>10.23</ele>
        <time>2018-07-02T09:13:37Z</time>
      </trkpt>
      <trkpt lat="51.121520977467299" lon="2.63829899020493">
        <ele>12.15</ele>
        <time>2018-07-02T09:13:46Z</time>
      </trkpt>
      <trkpt lat="51.121412012726068" lon="2.637595999985933">
        <ele>11.67</ele>
        <time>2018-07-02T09:13:51Z</time>
      </trkpt>
      <trkpt lat="51.12113700248301" lon="2.636611964553595">
        <ele>10.710000000000001</ele>
        <time>2018-07-02T09:13:58Z</time>
      </trkpt>
      <trkpt lat="51.120854029431939" lon="2.635793974623084">
        <ele>8.789999999999999</ele>
        <time>2018-07-02T09:14:04Z</time>
      </trkpt>
      <trkpt lat="51.120807006955147" lon="2.635674029588699">
        <ele>8.310000000000001</ele>
        <time>2018-07-02T09:14:05Z</time>
      </trkpt>
      <trkpt lat="51.120764007791877" lon="2.635560035705566">
        <ele>8.310000000000001</ele>
        <time>2018-07-02T09:14:06Z</time>
      </trkpt>
      <trkpt lat="51.120715979486704" lon="2.635431038215756">
        <ele>7.83</ele>
        <time>2018-07-02T09:14:07Z</time>
      </trkpt>
      <trkpt lat="51.120682032778859" lon="2.635345961898565">
        <ele>7.83</ele>
        <time>2018-07-02T09:14:08Z</time>
      </trkpt>
      <trkpt lat="51.12025598064065" lon="2.634218009188771">
        <ele>4.94</ele>
        <time>2018-07-02T09:14:19Z</time>
      </trkpt>
      <trkpt lat="51.120176017284393" lon="2.633993038907647">
        <ele>4.46</ele>
        <time>2018-07-02T09:14:21Z</time>
      </trkpt>
      <trkpt lat="51.119983987882733" lon="2.633515018969774">
        <ele>4.46</ele>
        <time>2018-07-02T09:14:25Z</time>
      </trkpt>
      <trkpt lat="51.119931014254689" lon="2.633391972631216">
        <ele>3.98</ele>
        <time>2018-07-02T09:14:26Z</time>
      </trkpt>
      <trkpt lat="51.119878040626645" lon="2.63327001594007">
        <ele>3.98</ele>
        <time>2018-07-02T09:14:27Z</time>
      </trkpt>
      <trkpt lat="51.119824983179569" lon="2.633145041763783">
        <ele>3.98</ele>
        <time>2018-07-02T09:14:28Z</time>
      </trkpt>
      <trkpt lat="51.119792964309454" lon="2.632920993492007">
        <ele>3.98</ele>
        <time>2018-07-02T09:14:29Z</time>
      </trkpt>
      <trkpt lat="51.119752982631326" lon="2.632847987115383">
        <ele>3.98</ele>
        <time>2018-07-02T09:14:30Z</time>
      </trkpt>
      <trkpt lat="51.119685005396605" lon="2.632726030424237">
        <ele>4.46</ele>
        <time>2018-07-02T09:14:31Z</time>
      </trkpt>
      <trkpt lat="51.119442014023662" lon="2.632468035444617">
        <ele>5.42</ele>
        <time>2018-07-02T09:14:34Z</time>
      </trkpt>
      <trkpt lat="51.119355009868741" lon="2.632397040724754">
        <ele>5.42</ele>
        <time>2018-07-02T09:14:35Z</time>
      </trkpt>
      <trkpt lat="51.119263982400298" lon="2.63232403434813">
        <ele>5.42</ele>
        <time>2018-07-02T09:14:36Z</time>
      </trkpt>
      <trkpt lat="51.118371980264783" lon="2.631606962531805">
        <ele>6.39</ele>
        <time>2018-07-02T09:14:46Z</time>
      </trkpt>
      <trkpt lat="51.117542004212737" lon="2.630867008119822">
        <ele>8.310000000000001</ele>
        <time>2018-07-02T09:14:56Z</time>
      </trkpt>
      <trkpt lat="51.116112973541021" lon="2.62963998131454">
        <ele>9.27</ele>
        <time>2018-07-02T09:15:10Z</time>
      </trkpt>
      <trkpt lat="51.115305963903666" lon="2.628680001944304">
        <ele>7.83</ele>
        <time>2018-07-02T09:15:20Z</time>
      </trkpt>
      <trkpt lat="51.114388983696699" lon="2.62736102566123">
        <ele>9.27</ele>
        <time>2018-07-02T09:15:30Z</time>
      </trkpt>
      <trkpt lat="51.114294016733766" lon="2.627218030393124">
        <ele>9.27</ele>
        <time>2018-07-02T09:15:31Z</time>
      </trkpt>
      <trkpt lat="51.113277962431312" lon="2.625313997268677">
        <ele>10.23</ele>
        <time>2018-07-02T09:15:43Z</time>
      </trkpt>
      <trkpt lat="51.113016027957201" lon="2.624758025631309">
        <ele>10.23</ele>
        <time>2018-07-02T09:15:47Z</time>
      </trkpt>
      <trkpt lat="51.112970011308789" lon="2.624660041183233">
        <ele>10.710000000000001</ele>
        <time>2018-07-02T09:15:48Z</time>
      </trkpt>
      <trkpt lat="51.112926006317139" lon="2.624530037865043">
        <ele>10.710000000000001</ele>
        <time>2018-07-02T09:15:49Z</time>
      </trkpt>
      <trkpt lat="51.112815029919147" lon="2.624259972944856">
        <ele>10.710000000000001</ele>
        <time>2018-07-02T09:15:52Z</time>
      </trkpt>
      <trkpt lat="51.112761972472072" lon="2.624129969626665">
        <ele>11.19</ele>
        <time>2018-07-02T09:15:54Z</time>
      </trkpt>
      <trkpt lat="51.112697012722492" lon="2.623971970751882">
        <ele>11.19</ele>
        <time>2018-07-02T09:16:03Z</time>
      </trkpt>
      <trkpt lat="51.112679997459054" lon="2.623930983245373">
        <ele>10.710000000000001</ele>
        <time>2018-07-02T09:16:25Z</time>
      </trkpt>
      <trkpt lat="51.112432982772589" lon="2.623246014118195">
        <ele>11.19</ele>
        <time>2018-07-02T09:16:32Z</time>
      </trkpt>
      <trkpt lat="51.111842980608344" lon="2.62149696238339">
        <ele>9.75</ele>
        <time>2018-07-02T09:16:43Z</time>
      </trkpt>
      <trkpt lat="51.111514996737242" lon="2.619484970346093">
        <ele>9.75</ele>
        <time>2018-07-02T09:16:53Z</time>
      </trkpt>
      <trkpt lat="51.111370995640755" lon="2.617295030504465">
        <ele>8.789999999999999</ele>
        <time>2018-07-02T09:17:04Z</time>
      </trkpt>
      <trkpt lat="51.111341994255781" lon="2.616911977529526">
        <ele>9.27</ele>
        <time>2018-07-02T09:17:06Z</time>
      </trkpt>
      <trkpt lat="51.111335037276149" lon="2.616712991148233">
        <ele>9.27</ele>
        <time>2018-07-02T09:17:07Z</time>
      </trkpt>
      <trkpt lat="51.111309975385666" lon="2.615925008431077">
        <ele>10.23</ele>
        <time>2018-07-02T09:17:11Z</time>
      </trkpt>
      <trkpt lat="51.111293965950608" lon="2.615732979029417">
        <ele>10.23</ele>
        <time>2018-07-02T09:17:12Z</time>
      </trkpt>
      <trkpt lat="51.111280974000692" lon="2.615142976865172">
        <ele>10.710000000000001</ele>
        <time>2018-07-02T09:17:15Z</time>
      </trkpt>
      <trkpt lat="51.111290026456118" lon="2.614947007969022">
        <ele>11.19</ele>
        <time>2018-07-02T09:17:16Z</time>
      </trkpt>
      <trkpt lat="51.111297989264131" lon="2.614751039072871">
        <ele>11.19</ele>
        <time>2018-07-02T09:17:17Z</time>
      </trkpt>
      <trkpt lat="51.111268987879157" lon="2.612969968467951">
        <ele>10.710000000000001</ele>
        <time>2018-07-02T09:17:27Z</time>
      </trkpt>
      <trkpt lat="51.111148037016392" lon="2.61253796517849">
        <ele>10.710000000000001</ele>
        <time>2018-07-02T09:17:30Z</time>
      </trkpt>
      <trkpt lat="51.111108977347612" lon="2.612411985173821">
        <ele>10.710000000000001</ele>
        <time>2018-07-02T09:17:31Z</time>
      </trkpt>
      <trkpt lat="51.111080981791019" lon="2.61232104152441">
        <ele>10.23</ele>
        <time>2018-07-02T09:17:32Z</time>
      </trkpt>
      <trkpt lat="51.111013004556298" lon="2.612206963822246">
        <ele>10.23</ele>
        <time>2018-07-02T09:17:33Z</time>
      </trkpt>
      <trkpt lat="51.110953995957971" lon="2.61210897937417">
        <ele>9.75</ele>
        <time>2018-07-02T09:17:34Z</time>
      </trkpt>
      <trkpt lat="51.11086699180305" lon="2.61204200796783">
        <ele>9.27</ele>
        <time>2018-07-02T09:17:35Z</time>
      </trkpt>
      <trkpt lat="51.110666999593377" lon="2.611750988289714">
        <ele>7.35</ele>
        <time>2018-07-02T09:17:42Z</time>
      </trkpt>
      <trkpt lat="51.110666999593377" lon="2.611750988289714">
        <ele>7.35</ele>
        <time>2018-07-02T09:18:11Z</time>
      </trkpt>
      <trkpt lat="51.110472036525607" lon="2.611518977209926">
        <ele>5.91</ele>
        <time>2018-07-02T09:18:28Z</time>
      </trkpt>
      <trkpt lat="51.109945988282561" lon="2.610959988087416">
        <ele>5.42</ele>
        <time>2018-07-02T09:18:34Z</time>
      </trkpt>
      <trkpt lat="51.109121041372418" lon="2.609655009582639">
        <ele>4.46</ele>
        <time>2018-07-02T09:18:43Z</time>
      </trkpt>
      <trkpt lat="51.108543025329709" lon="2.607782995328307">
        <ele>2.54</ele>
        <time>2018-07-02T09:18:53Z</time>
      </trkpt>
      <trkpt lat="51.108136000111699" lon="2.605958003550768">
        <ele>1.58</ele>
        <time>2018-07-02T09:19:02Z</time>
      </trkpt>
      <trkpt lat="51.108066011220217" lon="2.605761028826237">
        <ele>1.58</ele>
        <time>2018-07-02T09:19:03Z</time>
      </trkpt>
      <trkpt lat="51.107980012893677" lon="2.605582997202873">
        <ele>1.58</ele>
        <time>2018-07-02T09:19:04Z</time>
      </trkpt>
      <trkpt lat="51.106983991339803" lon="2.603723974898458">
        <ele>3.02</ele>
        <time>2018-07-02T09:19:14Z</time>
      </trkpt>
      <trkpt lat="51.105945976451039" lon="2.601475026458502">
        <ele>3.5</ele>
        <time>2018-07-02T09:19:26Z</time>
      </trkpt>
      <trkpt lat="51.105454964563251" lon="2.600282030180097">
        <ele>3.5</ele>
        <time>2018-07-02T09:19:34Z</time>
      </trkpt>
      <trkpt lat="51.105395033955574" lon="2.600132999941707">
        <ele>3.5</ele>
        <time>2018-07-02T09:19:35Z</time>
      </trkpt>
      <trkpt lat="51.105367038398981" lon="2.599965026602149">
        <ele>3.5</ele>
        <time>2018-07-02T09:19:36Z</time>
      </trkpt>
      <trkpt lat="51.105338037014008" lon="2.59979403577745">
        <ele>3.5</ele>
        <time>2018-07-02T09:19:37Z</time>
      </trkpt>
      <trkpt lat="51.105310963466763" lon="2.599627990275621">
        <ele>3.5</ele>
        <time>2018-07-02T09:19:38Z</time>
      </trkpt>
      <trkpt lat="51.105309035629034" lon="2.599464040249586">
        <ele>3.02</ele>
        <time>2018-07-02T09:19:39Z</time>
      </trkpt>
      <trkpt lat="51.105309035629034" lon="2.599306963384152">
        <ele>3.02</ele>
        <time>2018-07-02T09:19:40Z</time>
      </trkpt>
      <trkpt lat="51.105330996215343" lon="2.598714027553797">
        <ele>3.98</ele>
        <time>2018-07-02T09:19:46Z</time>
      </trkpt>
      <trkpt lat="51.105330996215343" lon="2.59848696179688">
        <ele>4.46</ele>
        <time>2018-07-02T09:19:56Z</time>
      </trkpt>
      <trkpt lat="51.105328984558582" lon="2.598373973742127">
        <ele>4.94</ele>
        <time>2018-07-02T09:19:57Z</time>
      </trkpt>
      <trkpt lat="51.105325967073441" lon="2.598245982080698">
        <ele>4.94</ele>
        <time>2018-07-02T09:19:58Z</time>
      </trkpt>
      <trkpt lat="51.105311969295144" lon="2.597681041806936">
        <ele>5.42</ele>
        <time>2018-07-02T09:20:02Z</time>
      </trkpt>
      <trkpt lat="51.105018015950918" lon="2.596314959228039">
        <ele>8.789999999999999</ele>
        <time>2018-07-02T09:20:11Z</time>
      </trkpt>
      <trkpt lat="51.104809977114201" lon="2.595685981214047">
        <ele>9.75</ele>
        <time>2018-07-02T09:20:15Z</time>
      </trkpt>
      <trkpt lat="51.104753986001015" lon="2.595538040623069">
        <ele>9.75</ele>
        <time>2018-07-02T09:20:16Z</time>
      </trkpt>
      <trkpt lat="51.104121990501881" lon="2.59390901774168">
        <ele>9.75</ele>
        <time>2018-07-02T09:20:27Z</time>
      </trkpt>
      <trkpt lat="51.103407014161348" lon="2.592080002650619">
        <ele>7.35</ele>
        <time>2018-07-02T09:20:39Z</time>
      </trkpt>
      <trkpt lat="51.103161005303264" lon="2.591429986059666">
        <ele>6.39</ele>
        <time>2018-07-02T09:20:43Z</time>
      </trkpt>
      <trkpt lat="51.103103002533317" lon="2.591271987184882">
        <ele>6.39</ele>
        <time>2018-07-02T09:20:44Z</time>
      </trkpt>
      <trkpt lat="51.102703018113971" lon="2.590225003659725">
        <ele>4.94</ele>
        <time>2018-07-02T09:20:51Z</time>
      </trkpt>
      <trkpt lat="51.102641997858882" lon="2.590077985078096">
        <ele>4.46</ele>
        <time>2018-07-02T09:20:52Z</time>
      </trkpt>
      <trkpt lat="51.101944958791137" lon="2.588339997455478">
        <ele>3.5</ele>
        <time>2018-07-02T09:21:03Z</time>
      </trkpt>
      <trkpt lat="51.101343976333737" lon="2.586790015920997">
        <ele>2.06</ele>
        <time>2018-07-02T09:21:13Z</time>
      </trkpt>
      <trkpt lat="51.101289996877313" lon="2.586633022874594">
        <ele>2.06</ele>
        <time>2018-07-02T09:21:14Z</time>
      </trkpt>
      <trkpt lat="51.100976010784507" lon="2.585868006572127">
        <ele>2.06</ele>
        <time>2018-07-02T09:21:19Z</time>
      </trkpt>
      <trkpt lat="51.100524980574846" lon="2.585023026913405">
        <ele>2.54</ele>
        <time>2018-07-02T09:21:25Z</time>
      </trkpt>
      <trkpt lat="51.100436970591545" lon="2.584911966696382">
        <ele>3.02</ele>
        <time>2018-07-02T09:21:26Z</time>
      </trkpt>
      <trkpt lat="51.099974038079381" lon="2.584421960636973">
        <ele>3.5</ele>
        <time>2018-07-02T09:21:31Z</time>
      </trkpt>
      <trkpt lat="51.099885022267699" lon="2.584338979795575">
        <ele>3.02</ele>
        <time>2018-07-02T09:21:32Z</time>
      </trkpt>
      <trkpt lat="51.099088992923498" lon="2.583697009831667">
        <ele>1.58</ele>
        <time>2018-07-02T09:21:41Z</time>
      </trkpt>
      <trkpt lat="51.097971014678478" lon="2.583117987960577">
        <ele>2.54</ele>
        <time>2018-07-02T09:21:52Z</time>
      </trkpt>
      <trkpt lat="51.097572958096862" lon="2.582907015457749">
        <ele>2.06</ele>
        <time>2018-07-02T09:21:58Z</time>
      </trkpt>
      <trkpt lat="51.097530964761972" lon="2.582843983545899">
        <ele>1.58</ele>
        <time>2018-07-02T09:21:59Z</time>
      </trkpt>
      <trkpt lat="51.097499029710889" lon="2.582796039059758">
        <ele>1.58</ele>
        <time>2018-07-02T09:22:00Z</time>
      </trkpt>
      <trkpt lat="51.097504980862141" lon="2.582734012976289">
        <ele>1.58</ele>
        <time>2018-07-02T09:22:01Z</time>
      </trkpt>
      <trkpt lat="51.097514033317566" lon="2.582656983286142">
        <ele>1.58</ele>
        <time>2018-07-02T09:22:02Z</time>
      </trkpt>
      <trkpt lat="51.097509004175663" lon="2.582554975524545">
        <ele>1.58</ele>
        <time>2018-07-02T09:22:03Z</time>
      </trkpt>
      <trkpt lat="51.097489977255464" lon="2.582469983026385">
        <ele>1.58</ele>
        <time>2018-07-02T09:22:04Z</time>
      </trkpt>
      <trkpt lat="51.097458964213729" lon="2.582381973043084">
        <ele>2.06</ele>
        <time>2018-07-02T09:22:05Z</time>
      </trkpt>
      <trkpt lat="51.097412025555968" lon="2.582311984151602">
        <ele>2.06</ele>
        <time>2018-07-02T09:22:06Z</time>
      </trkpt>
      <trkpt lat="51.097347987815738" lon="2.582254987210035">
        <ele>2.54</ele>
        <time>2018-07-02T09:22:07Z</time>
      </trkpt>
      <trkpt lat="51.097290990874171" lon="2.58222003467381">
        <ele>2.54</ele>
        <time>2018-07-02T09:22:08Z</time>
      </trkpt>
      <trkpt lat="51.097225025296211" lon="2.582216011360288">
        <ele>3.02</ele>
        <time>2018-07-02T09:22:09Z</time>
      </trkpt>
      <trkpt lat="51.097219996154308" lon="2.582216011360288">
        <ele>3.02</ele>
        <time>2018-07-02T09:22:10Z</time>
      </trkpt>
      <trkpt lat="51.097098039463162" lon="2.582189021632075">
        <ele>3.02</ele>
        <time>2018-07-02T09:22:11Z</time>
      </trkpt>
      <trkpt lat="51.097052022814751" lon="2.582095982506871">
        <ele>3.02</ele>
        <time>2018-07-02T09:22:12Z</time>
      </trkpt>
      <trkpt lat="51.096700988709927" lon="2.581737991422415">
        <ele>4.46</ele>
        <time>2018-07-02T09:22:16Z</time>
      </trkpt>
      <trkpt lat="51.095707984641194" lon="2.581401038914919">
        <ele>4.94</ele>
        <time>2018-07-02T09:22:24Z</time>
      </trkpt>
      <trkpt lat="51.09449403360486" lon="2.581679988652468">
        <ele>9.27</ele>
        <time>2018-07-02T09:22:34Z</time>
      </trkpt>
      <trkpt lat="51.094246013090014" lon="2.581928009167314">
        <ele>9.75</ele>
        <time>2018-07-02T09:22:37Z</time>
      </trkpt>
      <trkpt lat="51.094097988680005" lon="2.582162031903863">
        <ele>9.27</ele>
        <time>2018-07-02T09:22:39Z</time>
      </trkpt>
      <trkpt lat="51.09402297064662" lon="2.582282982766628">
        <ele>9.27</ele>
        <time>2018-07-02T09:22:40Z</time>
      </trkpt>
      <trkpt lat="51.093890033662319" lon="2.58256402797997">
        <ele>9.27</ele>
        <time>2018-07-02T09:22:42Z</time>
      </trkpt>
      <trkpt lat="51.093716025352478" lon="2.583247991278768">
        <ele>8.789999999999999</ele>
        <time>2018-07-02T09:22:46Z</time>
      </trkpt>
      <trkpt lat="51.093692975118756" lon="2.58342401124537">
        <ele>8.789999999999999</ele>
        <time>2018-07-02T09:22:47Z</time>
      </trkpt>
      <trkpt lat="51.09367998316884" lon="2.583612017333508">
        <ele>8.789999999999999</ele>
        <time>2018-07-02T09:22:48Z</time>
      </trkpt>
      <trkpt lat="51.093667997047305" lon="2.583803962916136">
        <ele>8.789999999999999</ele>
        <time>2018-07-02T09:22:49Z</time>
      </trkpt>
      <trkpt lat="51.093655005097389" lon="2.583993980661035">
        <ele>9.27</ele>
        <time>2018-07-02T09:22:50Z</time>
      </trkpt>
      <trkpt lat="51.093675959855318" lon="2.586032962426543">
        <ele>9.27</ele>
        <time>2018-07-02T09:23:01Z</time>
      </trkpt>
      <trkpt lat="51.093494994565845" lon="2.588100023567677">
        <ele>7.83</ele>
        <time>2018-07-02T09:23:13Z</time>
      </trkpt>
      <trkpt lat="51.093387035652995" lon="2.588676027953625">
        <ele>7.83</ele>
        <time>2018-07-02T09:23:17Z</time>
      </trkpt>
      <trkpt lat="51.093254014849663" lon="2.589108031243086">
        <ele>7.35</ele>
        <time>2018-07-02T09:23:20Z</time>
      </trkpt>
      <trkpt lat="51.09320699237287" lon="2.589253038167954">
        <ele>7.35</ele>
        <time>2018-07-02T09:23:21Z</time>
      </trkpt>
      <trkpt lat="51.093144966289401" lon="2.589388992637396">
        <ele>7.35</ele>
        <time>2018-07-02T09:23:22Z</time>
      </trkpt>
      <trkpt lat="51.092410963028669" lon="2.590645020827651">
        <ele>5.91</ele>
        <time>2018-07-02T09:23:32Z</time>
      </trkpt>
      <trkpt lat="51.091661034151912" lon="2.591922003775835">
        <ele>3.5</ele>
        <time>2018-07-02T09:23:43Z</time>
      </trkpt>
      <trkpt lat="51.090978998690844" lon="2.593009974807501">
        <ele>2.54</ele>
        <time>2018-07-02T09:23:52Z</time>
      </trkpt>
      <trkpt lat="51.090057995170355" lon="2.594646038487554">
        <ele>2.54</ele>
        <time>2018-07-02T09:24:02Z</time>
      </trkpt>
      <trkpt lat="51.089965039864182" lon="2.594808982685208">
        <ele>2.54</ele>
        <time>2018-07-02T09:24:03Z</time>
      </trkpt>
      <trkpt lat="51.089868983253837" lon="2.594972010701895">
        <ele>2.54</ele>
        <time>2018-07-02T09:24:04Z</time>
      </trkpt>
      <trkpt lat="51.089768987149" lon="2.595140989869833">
        <ele>2.54</ele>
        <time>2018-07-02T09:24:05Z</time>
      </trkpt>
      <trkpt lat="51.088622007519007" lon="2.597090033814311">
        <ele>0.14</ele>
        <time>2018-07-02T09:24:16Z</time>
      </trkpt>
      <trkpt lat="51.087651969864964" lon="2.59874202311039">
        <ele>-1.3</ele>
        <time>2018-07-02T09:24:26Z</time>
      </trkpt>
      <trkpt lat="51.086706994101405" lon="2.600173987448216">
        <ele>-2.27</ele>
        <time>2018-07-02T09:24:36Z</time>
      </trkpt>
      <trkpt lat="51.086405999958515" lon="2.600496020168066">
        <ele>-1.79</ele>
        <time>2018-07-02T09:24:39Z</time>
      </trkpt>
      <trkpt lat="51.08630801551044" lon="2.600581012666225">
        <ele>-1.79</ele>
        <time>2018-07-02T09:24:40Z</time>
      </trkpt>
      <trkpt lat="51.08583502471447" lon="2.600819980725646">
        <ele>-1.3</ele>
        <time>2018-07-02T09:24:46Z</time>
      </trkpt>
      <trkpt lat="51.085734022781253" lon="2.600842025130987">
        <ele>-1.3</ele>
        <time>2018-07-02T09:24:48Z</time>
      </trkpt>
      <trkpt lat="51.085684988647699" lon="2.600842025130987">
        <ele>-1.3</ele>
        <time>2018-07-02T09:24:49Z</time>
      </trkpt>
      <trkpt lat="51.085623968392611" lon="2.600796008482575">
        <ele>-1.79</ele>
        <time>2018-07-02T09:24:50Z</time>
      </trkpt>
      <trkpt lat="51.085578035563231" lon="2.600727025419474">
        <ele>-1.79</ele>
        <time>2018-07-02T09:24:51Z</time>
      </trkpt>
      <trkpt lat="51.085545010864735" lon="2.600620994344354">
        <ele>-1.79</ele>
        <time>2018-07-02T09:24:52Z</time>
      </trkpt>
      <trkpt lat="51.085516009479761" lon="2.60050599463284">
        <ele>-1.79</ele>
        <time>2018-07-02T09:24:53Z</time>
      </trkpt>
      <trkpt lat="51.085481978952885" lon="2.600369034335017">
        <ele>-2.27</ele>
        <time>2018-07-02T09:24:54Z</time>
      </trkpt>
      <trkpt lat="51.085451971739531" lon="2.600239031016827">
        <ele>-2.27</ele>
        <time>2018-07-02T09:24:55Z</time>
      </trkpt>
      <trkpt lat="51.085012005642056" lon="2.598512023687363">
        <ele>-1.3</ele>
        <time>2018-07-02T09:25:05Z</time>
      </trkpt>
      <trkpt lat="51.084425020962954" lon="2.596292998641729">
        <ele>0.62</ele>
        <time>2018-07-02T09:25:16Z</time>
      </trkpt>
      <trkpt lat="51.083744997158647" lon="2.593626966699958">
        <ele>1.1</ele>
        <time>2018-07-02T09:25:30Z</time>
      </trkpt>
      <trkpt lat="51.083504017442465" lon="2.592737982049584">
        <ele>0.62</ele>
        <time>2018-07-02T09:25:35Z</time>
      </trkpt>
      <trkpt lat="51.082948967814445" lon="2.590973004698753">
        <ele>-0.82</ele>
        <time>2018-07-02T09:25:45Z</time>
      </trkpt>
      <trkpt lat="51.082593994215131" lon="2.588638979941607">
        <ele>-1.3</ele>
        <time>2018-07-02T09:25:57Z</time>
      </trkpt>
      <trkpt lat="51.082561975345016" lon="2.588432030752301">
        <ele>-1.3</ele>
        <time>2018-07-02T09:25:58Z</time>
      </trkpt>
      <trkpt lat="51.082530040293932" lon="2.588219968602061">
        <ele>-0.82</ele>
        <time>2018-07-02T09:25:59Z</time>
      </trkpt>
      <trkpt lat="51.082112034782767" lon="2.586084008216858">
        <ele>0.62</ele>
        <time>2018-07-02T09:26:09Z</time>
      </trkpt>
      <trkpt lat="51.081664022058249" lon="2.583734979853034">
        <ele>2.54</ele>
        <time>2018-07-02T09:26:21Z</time>
      </trkpt>
      <trkpt lat="51.081272000446916" lon="2.582422038540244">
        <ele>3.5</ele>
        <time>2018-07-02T09:26:27Z</time>
      </trkpt>
      <trkpt lat="51.080396007746458" lon="2.580166971310973">
        <ele>3.98</ele>
        <time>2018-07-02T09:26:38Z</time>
      </trkpt>
      <trkpt lat="51.080159973353148" lon="2.579560959711671">
        <ele>3.5</ele>
        <time>2018-07-02T09:26:41Z</time>
      </trkpt>
      <trkpt lat="51.079524960368872" lon="2.577529018744826">
        <ele>2.54</ele>
        <time>2018-07-02T09:26:50Z</time>
      </trkpt>
      <trkpt lat="51.079232012853026" lon="2.575303036719561">
        <ele>1.1</ele>
        <time>2018-07-02T09:26:59Z</time>
      </trkpt>
      <trkpt lat="51.079078037291765" lon="2.572846971452236">
        <ele>3.02</ele>
        <time>2018-07-02T09:27:09Z</time>
      </trkpt>
      <trkpt lat="51.078908974304795" lon="2.570086978375912">
        <ele>4.46</ele>
        <time>2018-07-02T09:27:20Z</time>
      </trkpt>
      <trkpt lat="51.078572021797299" lon="2.566992966458201">
        <ele>3.02</ele>
        <time>2018-07-02T09:27:32Z</time>
      </trkpt>
      <trkpt lat="51.07780197635293" lon="2.564305979758501">
        <ele>2.54</ele>
        <time>2018-07-02T09:27:43Z</time>
      </trkpt>
      <trkpt lat="51.076923971995711" lon="2.561604995280504">
        <ele>2.54</ele>
        <time>2018-07-02T09:27:55Z</time>
      </trkpt>
      <trkpt lat="51.076503032818437" lon="2.560190968215466">
        <ele>2.54</ele>
        <time>2018-07-02T09:28:05Z</time>
      </trkpt>
      <trkpt lat="51.07625300064683" lon="2.558659007772803">
        <ele>3.5</ele>
        <time>2018-07-02T09:28:16Z</time>
      </trkpt>
      <trkpt lat="51.076120985671878" lon="2.557142972946167">
        <ele>2.54</ele>
        <time>2018-07-02T09:28:26Z</time>
      </trkpt>
      <trkpt lat="51.07606197707355" lon="2.556446017697454">
        <ele>2.06</ele>
        <time>2018-07-02T09:28:34Z</time>
      </trkpt>
      <trkpt lat="51.076047979295254" lon="2.556378040462732">
        <ele>2.06</ele>
        <time>2018-07-02T09:28:35Z</time>
      </trkpt>
      <trkpt lat="51.076031969860196" lon="2.556305034086108">
        <ele>2.06</ele>
        <time>2018-07-02T09:28:36Z</time>
      </trkpt>
      <trkpt lat="51.07593197375536" lon="2.555803963914514">
        <ele>1.58</ele>
        <time>2018-07-02T09:28:45Z</time>
      </trkpt>
      <trkpt lat="51.075920993462205" lon="2.555743027478457">
        <ele>1.58</ele>
        <time>2018-07-02T09:28:46Z</time>
      </trkpt>
      <trkpt lat="51.07584304176271" lon="2.555274982005358">
        <ele>1.1</ele>
        <time>2018-07-02T09:28:53Z</time>
      </trkpt>
      <trkpt lat="51.075869025662541" lon="2.555256960913539">
        <ele>1.1</ele>
        <time>2018-07-02T09:28:54Z</time>
      </trkpt>
      <trkpt lat="51.075900960713625" lon="2.55523500032723">
        <ele>1.1</ele>
        <time>2018-07-02T09:28:55Z</time>
      </trkpt>
      <trkpt lat="51.075938008725643" lon="2.555210022255778">
        <ele>1.1</ele>
        <time>2018-07-02T09:28:56Z</time>
      </trkpt>
      <trkpt lat="51.07597597874701" lon="2.555183032527566">
        <ele>1.58</ele>
        <time>2018-07-02T09:28:57Z</time>
      </trkpt>
      <trkpt lat="51.076159961521626" lon="2.555056968703866">
        <ele>3.02</ele>
        <time>2018-07-02T09:29:02Z</time>
      </trkpt>
      <trkpt lat="51.07668299227953" lon="2.554686991497874">
        <ele>3.98</ele>
        <time>2018-07-02T09:29:11Z</time>
      </trkpt>
      <trkpt lat="51.076921038329601" lon="2.554513989016414">
        <ele>4.94</ele>
        <time>2018-07-02T09:29:19Z</time>
      </trkpt>
      <trkpt lat="51.076921038329601" lon="2.554513989016414">
        <ele>4.94</ele>
        <time>2018-07-02T09:29:33Z</time>
      </trkpt>
      <trkpt lat="51.076921038329601" lon="2.554513989016414">
        <ele>4.46</ele>
        <time>2018-07-02T09:29:48Z</time>
      </trkpt>
      <trkpt lat="51.076921038329601" lon="2.554513989016414">
        <ele>4.46</ele>
        <time>2018-07-02T09:30:15Z</time>
      </trkpt>
      <trkpt lat="51.076921038329601" lon="2.554513989016414">
        <ele>3.98</ele>
        <time>2018-07-02T09:31:02Z</time>
      </trkpt>
      <trkpt lat="51.076921038329601" lon="2.554513989016414">
        <ele>4.46</ele>
        <time>2018-07-02T09:31:41Z</time>
      </trkpt>
      <trkpt lat="51.077042995020747" lon="2.554430002346635">
        <ele>9.75</ele>
        <time>2018-07-02T09:32:44Z</time>
      </trkpt>
      <trkpt lat="51.076979963108897" lon="2.554486999288201">
        <ele>7.35</ele>
        <time>2018-07-02T09:32:47Z</time>
      </trkpt>
      <trkpt lat="51.07702799141407" lon="2.554450035095215">
        <ele>2.06</ele>
        <time>2018-07-02T09:32:51Z</time>
      </trkpt>
      <trkpt lat="51.076921038329601" lon="2.554513989016414">
        <ele>3.02</ele>
        <time>2018-07-02T09:32:52Z</time>
      </trkpt>
      <trkpt lat="51.076874015852809" lon="2.55454801954329">
        <ele>3.98</ele>
        <time>2018-07-02T09:32:53Z</time>
      </trkpt>
      <trkpt lat="51.076836967840791" lon="2.554575009271503">
        <ele>4.94</ele>
        <time>2018-07-02T09:32:54Z</time>
      </trkpt>
      <trkpt lat="51.07679296284914" lon="2.554606022313237">
        <ele>4.94</ele>
        <time>2018-07-02T09:32:55Z</time>
      </trkpt>
      <trkpt lat="51.076735965907574" lon="2.554648015648127">
        <ele>4.94</ele>
        <time>2018-07-02T09:32:56Z</time>
      </trkpt>
      <trkpt lat="51.076615015044808" lon="2.554736025631428">
        <ele>4.94</ele>
        <time>2018-07-02T09:32:58Z</time>
      </trkpt>
      <trkpt lat="51.076558018103242" lon="2.554777013137937">
        <ele>4.94</ele>
        <time>2018-07-02T09:32:59Z</time>
      </trkpt>
      <trkpt lat="51.076501021161675" lon="2.554818000644445">
        <ele>4.94</ele>
        <time>2018-07-02T09:33:00Z</time>
      </trkpt>
      <trkpt lat="51.076444024220109" lon="2.554859993979335">
        <ele>4.94</ele>
        <time>2018-07-02T09:33:01Z</time>
      </trkpt>
      <trkpt lat="51.076399013400078" lon="2.55489201284945">
        <ele>4.46</ele>
        <time>2018-07-02T09:33:02Z</time>
      </trkpt>
      <trkpt lat="51.076331958174706" lon="2.554940963163972">
        <ele>4.46</ele>
        <time>2018-07-02T09:33:04Z</time>
      </trkpt>
      <trkpt lat="51.076298011466861" lon="2.554965019226074">
        <ele>4.46</ele>
        <time>2018-07-02T09:33:05Z</time>
      </trkpt>
      <trkpt lat="51.076269010081887" lon="2.554983962327242">
        <ele>3.98</ele>
        <time>2018-07-02T09:33:06Z</time>
      </trkpt>
      <trkpt lat="51.076240008696914" lon="2.555003995075822">
        <ele>3.5</ele>
        <time>2018-07-02T09:33:14Z</time>
      </trkpt>
      <trkpt lat="51.076240008696914" lon="2.555003995075822">
        <ele>7.35</ele>
        <time>2018-07-02T09:33:48Z</time>
      </trkpt>
      <trkpt lat="51.076240008696914" lon="2.555003995075822">
        <ele>4.46</ele>
        <time>2018-07-02T09:34:25Z</time>
      </trkpt>
      <trkpt lat="51.076240008696914" lon="2.555003995075822">
        <ele>3.98</ele>
        <time>2018-07-02T09:35:09Z</time>
      </trkpt>
      <trkpt lat="51.076240008696914" lon="2.555003995075822">
        <ele>4.46</ele>
        <time>2018-07-02T09:35:54Z</time>
      </trkpt>
      <trkpt lat="51.076240008696914" lon="2.555003995075822">
        <ele>4.46</ele>
        <time>2018-07-02T09:36:37Z</time>
      </trkpt>
      <trkpt lat="51.076240008696914" lon="2.555003995075822">
        <ele>4.94</ele>
        <time>2018-07-02T09:37:18Z</time>
      </trkpt>
    </trkseg>
  </trk>

  <trk>
    <name>Track vom: 2018-07-02 11:43</name>
    <extensions>
      <gpxx:TrackExtension>
        <gpxx:DisplayColor>DarkGray</gpxx:DisplayColor>
      </gpxx:TrackExtension>
    </extensions>
    <trkseg>
      <trkpt lat="51.076240008696914" lon="2.555003995075822">
        <ele>6.39</ele>
        <time>2018-07-02T09:43:26Z</time>
      </trkpt>
      <trkpt lat="51.076058959588408" lon="2.555125029757619">
        <ele>6.39</ele>
        <time>2018-07-02T09:43:49Z</time>
      </trkpt>
      <trkpt lat="51.075926022604108" lon="2.555217985063791">
        <ele>6.39</ele>
        <time>2018-07-02T09:44:00Z</time>
      </trkpt>
      <trkpt lat="51.075815968215466" lon="2.555225025862455">
        <ele>5.91</ele>
        <time>2018-07-02T09:44:08Z</time>
      </trkpt>
      <trkpt lat="51.075813034549356" lon="2.555207004770637">
        <ele>5.91</ele>
        <time>2018-07-02T09:44:09Z</time>
      </trkpt>
      <trkpt lat="51.075808005407453" lon="2.555175991728902">
        <ele>5.91</ele>
        <time>2018-07-02T09:44:10Z</time>
      </trkpt>
      <trkpt lat="51.075798030942678" lon="2.555126035586">
        <ele>5.91</ele>
        <time>2018-07-02T09:44:11Z</time>
      </trkpt>
      <trkpt lat="51.075785961002111" lon="2.555066021159291">
        <ele>5.42</ele>
        <time>2018-07-02T09:44:12Z</time>
      </trkpt>
      <trkpt lat="51.075581023469567" lon="2.554080979898572">
        <ele>4.94</ele>
        <time>2018-07-02T09:44:22Z</time>
      </trkpt>
      <trkpt lat="51.075256979092956" lon="2.552447011694312">
        <ele>4.46</ele>
        <time>2018-07-02T09:44:33Z</time>
      </trkpt>
      <trkpt lat="51.074949027970433" lon="2.550656972452998">
        <ele>2.54</ele>
        <time>2018-07-02T09:44:44Z</time>
      </trkpt>
      <trkpt lat="51.07466303743422" lon="2.548977993428707">
        <ele>2.06</ele>
        <time>2018-07-02T09:44:55Z</time>
      </trkpt>
      <trkpt lat="51.074517024680972" lon="2.547642001882196">
        <ele>3.02</ele>
        <time>2018-07-02T09:45:05Z</time>
      </trkpt>
      <trkpt lat="51.074491962790489" lon="2.547419965267181">
        <ele>3.02</ele>
        <time>2018-07-02T09:45:07Z</time>
      </trkpt>
      <trkpt lat="51.074479976668954" lon="2.547295996919274">
        <ele>3.02</ele>
        <time>2018-07-02T09:45:08Z</time>
      </trkpt>
      <trkpt lat="51.074280990287662" lon="2.545389030128717">
        <ele>3.5</ele>
        <time>2018-07-02T09:45:20Z</time>
      </trkpt>
      <trkpt lat="51.074261963367462" lon="2.545218961313367">
        <ele>3.5</ele>
        <time>2018-07-02T09:45:21Z</time>
      </trkpt>
      <trkpt lat="51.073855021968484" lon="2.542815031483769">
        <ele>3.5</ele>
        <time>2018-07-02T09:45:35Z</time>
      </trkpt>
      <trkpt lat="51.073615970090032" lon="2.541047036647797">
        <ele>2.06</ele>
        <time>2018-07-02T09:45:46Z</time>
      </trkpt>
      <trkpt lat="51.073443973436952" lon="2.53946403041482">
        <ele>3.02</ele>
        <time>2018-07-02T09:45:56Z</time>
      </trkpt>
      <trkpt lat="51.073227971792221" lon="2.537700980901718">
        <ele>2.54</ele>
        <time>2018-07-02T09:46:07Z</time>
      </trkpt>
      <trkpt lat="51.073043989017606" lon="2.535699969157577">
        <ele>3.02</ele>
        <time>2018-07-02T09:46:19Z</time>
      </trkpt>
      <trkpt lat="51.073023034259677" lon="2.535368967801333">
        <ele>3.5</ele>
        <time>2018-07-02T09:46:21Z</time>
      </trkpt>
      <trkpt lat="51.073011970147491" lon="2.535200994461775">
        <ele>3.5</ele>
        <time>2018-07-02T09:46:22Z</time>
      </trkpt>
      <trkpt lat="51.072774007916451" lon="2.533313976600766">
        <ele>4.46</ele>
        <time>2018-07-02T09:46:33Z</time>
      </trkpt>
      <trkpt lat="51.072733020409942" lon="2.533151032403112">
        <ele>4.46</ele>
        <time>2018-07-02T09:46:34Z</time>
      </trkpt>
      <trkpt lat="51.072693038731813" lon="2.532989010214806">
        <ele>4.46</ele>
        <time>2018-07-02T09:46:35Z</time>
      </trkpt>
      <trkpt lat="51.072651967406273" lon="2.532822964712977">
        <ele>4.46</ele>
        <time>2018-07-02T09:46:36Z</time>
      </trkpt>
      <trkpt lat="51.072612991556525" lon="2.532659014686942">
        <ele>4.46</ele>
        <time>2018-07-02T09:46:37Z</time>
      </trkpt>
      <trkpt lat="51.072178976610303" lon="2.531052958220244">
        <ele>5.42</ele>
        <time>2018-07-02T09:46:47Z</time>
      </trkpt>
      <trkpt lat="51.071604983881116" lon="2.52876696176827">
        <ele>3.5</ele>
        <time>2018-07-02T09:47:01Z</time>
      </trkpt>
      <trkpt lat="51.071283034980297" lon="2.526786988601089">
        <ele>3.02</ele>
        <time>2018-07-02T09:47:13Z</time>
      </trkpt>
      <trkpt lat="51.071074996143579" lon="2.52567496150732">
        <ele>2.54</ele>
        <time>2018-07-02T09:47:20Z</time>
      </trkpt>
      <trkpt lat="51.070805015042424" lon="2.523358035832644">
        <ele>2.06</ele>
        <time>2018-07-02T09:47:35Z</time>
      </trkpt>
      <trkpt lat="51.070575015619397" lon="2.521259961649776">
        <ele>2.54</ele>
        <time>2018-07-02T09:47:48Z</time>
      </trkpt>
      <trkpt lat="51.070332024246454" lon="2.519446033984423">
        <ele>3.98</ele>
        <time>2018-07-02T09:47:59Z</time>
      </trkpt>
      <trkpt lat="51.070104036480188" lon="2.517712991684675">
        <ele>3.98</ele>
        <time>2018-07-02T09:48:10Z</time>
      </trkpt>
      <trkpt lat="51.069976966828108" lon="2.516813026741147">
        <ele>3.98</ele>
        <time>2018-07-02T09:48:18Z</time>
      </trkpt>
      <trkpt lat="51.069963974878192" lon="2.516718981787562">
        <ele>4.46</ele>
        <time>2018-07-02T09:48:28Z</time>
      </trkpt>
      <trkpt lat="51.069962969049811" lon="2.516711018979549">
        <ele>4.46</ele>
        <time>2018-07-02T09:48:41Z</time>
      </trkpt>
      <trkpt lat="51.06995701789856" lon="2.516670031473041">
        <ele>4.46</ele>
        <time>2018-07-02T09:48:42Z</time>
      </trkpt>
      <trkpt lat="51.069878982380033" lon="2.515995958819985">
        <ele>3.98</ele>
        <time>2018-07-02T09:48:49Z</time>
      </trkpt>
      <trkpt lat="51.069861967116594" lon="2.515735030174255">
        <ele>3.98</ele>
        <time>2018-07-02T09:48:51Z</time>
      </trkpt>
      <trkpt lat="51.069771023467183" lon="2.514401972293854">
        <ele>3.98</ele>
        <time>2018-07-02T09:49:00Z</time>
      </trkpt>
      <trkpt lat="51.069717966020107" lon="2.512691980227828">
        <ele>3.98</ele>
        <time>2018-07-02T09:49:10Z</time>
      </trkpt>
      <trkpt lat="51.069711009040475" lon="2.512478996068239">
        <ele>3.98</ele>
        <time>2018-07-02T09:49:11Z</time>
      </trkpt>
      <trkpt lat="51.069500036537647" lon="2.511451961472631">
        <ele>3.5</ele>
        <time>2018-07-02T09:49:17Z</time>
      </trkpt>
      <trkpt lat="51.06946399435401" lon="2.51127895899117">
        <ele>3.98</ele>
        <time>2018-07-02T09:49:18Z</time>
      </trkpt>
      <trkpt lat="51.069424012675881" lon="2.511091958731413">
        <ele>4.46</ele>
        <time>2018-07-02T09:49:19Z</time>
      </trkpt>
      <trkpt lat="51.06864801608026" lon="2.508475966751576">
        <ele>5.42</ele>
        <time>2018-07-02T09:49:34Z</time>
      </trkpt>
      <trkpt lat="51.067957011982799" lon="2.506232969462872">
        <ele>3.98</ele>
        <time>2018-07-02T09:49:47Z</time>
      </trkpt>
      <trkpt lat="51.067325016483665" lon="2.503569032996893">
        <ele>3.02</ele>
        <time>2018-07-02T09:50:02Z</time>
      </trkpt>
      <trkpt lat="51.066984962671995" lon="2.501341961324215">
        <ele>3.5</ele>
        <time>2018-07-02T09:50:14Z</time>
      </trkpt>
      <trkpt lat="51.06665002182126" lon="2.499101981520653">
        <ele>3.5</ele>
        <time>2018-07-02T09:50:26Z</time>
      </trkpt>
      <trkpt lat="51.066362019628286" lon="2.497033998370171">
        <ele>3.98</ele>
        <time>2018-07-02T09:50:36Z</time>
      </trkpt>
      <trkpt lat="51.066139983013272" lon="2.49552701599896">
        <ele>3.98</ele>
        <time>2018-07-02T09:50:46Z</time>
      </trkpt>
      <trkpt lat="51.065889028832316" lon="2.494104020297527">
        <ele>3.02</ele>
        <time>2018-07-02T09:50:56Z</time>
      </trkpt>
      <trkpt lat="51.065849969163537" lon="2.493986003100872">
        <ele>3.02</ele>
        <time>2018-07-02T09:50:57Z</time>
      </trkpt>
      <trkpt lat="51.065405979752541" lon="2.492749001830816">
        <ele>3.02</ele>
        <time>2018-07-02T09:51:09Z</time>
      </trkpt>
      <trkpt lat="51.064985040575266" lon="2.491613002493978">
        <ele>3.5</ele>
        <time>2018-07-02T09:51:20Z</time>
      </trkpt>
      <trkpt lat="51.064726961776614" lon="2.491010008379817">
        <ele>3.02</ele>
        <time>2018-07-02T09:51:26Z</time>
      </trkpt>
      <trkpt lat="51.064637023955584" lon="2.490817978978157">
        <ele>3.02</ele>
        <time>2018-07-02T09:51:28Z</time>
      </trkpt>
      <trkpt lat="51.064593018963933" lon="2.490726029500365">
        <ele>3.02</ele>
        <time>2018-07-02T09:51:29Z</time>
      </trkpt>
      <trkpt lat="51.064554965123534" lon="2.490644976496697">
        <ele>3.5</ele>
        <time>2018-07-02T09:51:30Z</time>
      </trkpt>
      <trkpt lat="51.064351033419371" lon="2.490223031491041">
        <ele>3.98</ele>
        <time>2018-07-02T09:51:36Z</time>
      </trkpt>
      <trkpt lat="51.064322032034397" lon="2.490170979872346">
        <ele>3.98</ele>
        <time>2018-07-02T09:51:37Z</time>
      </trkpt>
      <trkpt lat="51.064296970143914" lon="2.490124963223934">
        <ele>3.98</ele>
        <time>2018-07-02T09:51:38Z</time>
      </trkpt>
      <trkpt lat="51.064272997900844" lon="2.490080958232284">
        <ele>3.98</ele>
        <time>2018-07-02T09:51:39Z</time>
      </trkpt>
      <trkpt lat="51.064252965152264" lon="2.490046005696058">
        <ele>4.46</ele>
        <time>2018-07-02T09:51:40Z</time>
      </trkpt>
      <trkpt lat="51.064238967373967" lon="2.490022033452988">
        <ele>4.46</ele>
        <time>2018-07-02T09:51:41Z</time>
      </trkpt>
      <trkpt lat="51.064238967373967" lon="2.490022033452988">
        <ele>4.46</ele>
        <time>2018-07-02T09:51:51Z</time>
      </trkpt>
      <trkpt lat="51.064234022051096" lon="2.490011975169182">
        <ele>4.46</ele>
        <time>2018-07-02T09:51:53Z</time>
      </trkpt>
      <trkpt lat="51.064212983474135" lon="2.489975010976195">
        <ele>4.94</ele>
        <time>2018-07-02T09:51:54Z</time>
      </trkpt>
      <trkpt lat="51.064175013452768" lon="2.489905022084713">
        <ele>4.94</ele>
        <time>2018-07-02T09:51:55Z</time>
      </trkpt>
      <trkpt lat="51.064141988754272" lon="2.48983696103096">
        <ele>4.94</ele>
        <time>2018-07-02T09:51:56Z</time>
      </trkpt>
      <trkpt lat="51.064101001247764" lon="2.489751968532801">
        <ele>4.94</ele>
        <time>2018-07-02T09:51:57Z</time>
      </trkpt>
      <trkpt lat="51.063897991552949" lon="2.489333963021636">
        <ele>4.94</ele>
        <time>2018-07-02T09:52:01Z</time>
      </trkpt>
      <trkpt lat="51.063217967748642" lon="2.487933011725545">
        <ele>5.91</ele>
        <time>2018-07-02T09:52:14Z</time>
      </trkpt>
      <trkpt lat="51.062995009124279" lon="2.48757996596396">
        <ele>5.91</ele>
        <time>2018-07-02T09:52:17Z</time>
      </trkpt>
      <trkpt lat="51.062903981655836" lon="2.487468989565969">
        <ele>5.42</ele>
        <time>2018-07-02T09:52:18Z</time>
      </trkpt>
      <trkpt lat="51.062313979491591" lon="2.486602971330285">
        <ele>3.98</ele>
        <time>2018-07-02T09:52:25Z</time>
      </trkpt>
      <trkpt lat="51.062248013913631" lon="2.48644296079874">
        <ele>3.98</ele>
        <time>2018-07-02T09:52:26Z</time>
      </trkpt>
      <trkpt lat="51.061592968180776" lon="2.484590979292989">
        <ele>4.94</ele>
        <time>2018-07-02T09:52:37Z</time>
      </trkpt>
      <trkpt lat="51.06117001734674" lon="2.483656983822584">
        <ele>5.42</ele>
        <time>2018-07-02T09:52:43Z</time>
      </trkpt>
      <trkpt lat="51.061099022626877" lon="2.483505019918084">
        <ele>5.42</ele>
        <time>2018-07-02T09:52:44Z</time>
      </trkpt>
      <trkpt lat="51.060277009382844" lon="2.481826962903142">
        <ele>3.02</ele>
        <time>2018-07-02T09:52:55Z</time>
      </trkpt>
      <trkpt lat="51.059577958658338" lon="2.479954026639462">
        <ele>3.98</ele>
        <time>2018-07-02T09:53:04Z</time>
      </trkpt>
      <trkpt lat="51.058792993426323" lon="2.478218972682953">
        <ele>6.39</ele>
        <time>2018-07-02T09:53:12Z</time>
      </trkpt>
      <trkpt lat="51.058490993455052" lon="2.477515982463956">
        <ele>7.35</ele>
        <time>2018-07-02T09:53:15Z</time>
      </trkpt>
      <trkpt lat="51.058397032320499" lon="2.477269973605871">
        <ele>7.83</ele>
        <time>2018-07-02T09:53:16Z</time>
      </trkpt>
      <trkpt lat="51.057901997119188" lon="2.475184975191951">
        <ele>9.27</ele>
        <time>2018-07-02T09:53:24Z</time>
      </trkpt>
      <trkpt lat="51.057569989934564" lon="2.473274990916252">
        <ele>8.789999999999999</ele>
        <time>2018-07-02T09:53:32Z</time>
      </trkpt>
      <trkpt lat="51.057463958859444" lon="2.472622962668538">
        <ele>8.789999999999999</ele>
        <time>2018-07-02T09:53:35Z</time>
      </trkpt>
      <trkpt lat="51.057459013536572" lon="2.472394974902272">
        <ele>8.789999999999999</ele>
        <time>2018-07-02T09:53:36Z</time>
      </trkpt>
      <trkpt lat="51.057459013536572" lon="2.472223984077573">
        <ele>8.789999999999999</ele>
        <time>2018-07-02T09:53:37Z</time>
      </trkpt>
      <trkpt lat="51.057519027963281" lon="2.471975041553378">
        <ele>8.789999999999999</ele>
        <time>2018-07-02T09:53:38Z</time>
      </trkpt>
      <trkpt lat="51.057567978277802" lon="2.471775971353054">
        <ele>8.789999999999999</ele>
        <time>2018-07-02T09:53:39Z</time>
      </trkpt>
      <trkpt lat="51.057617012411356" lon="2.47157396748662">
        <ele>8.789999999999999</ele>
        <time>2018-07-02T09:53:40Z</time>
      </trkpt>
      <trkpt lat="51.057673003524542" lon="2.471385961398482">
        <ele>8.789999999999999</ele>
        <time>2018-07-02T09:53:41Z</time>
      </trkpt>
      <trkpt lat="51.057756990194321" lon="2.471212036907673">
        <ele>8.789999999999999</ele>
        <time>2018-07-02T09:53:42Z</time>
      </trkpt>
      <trkpt lat="51.05784198269248" lon="2.471036016941071">
        <ele>8.789999999999999</ele>
        <time>2018-07-02T09:53:43Z</time>
      </trkpt>
      <trkpt lat="51.057926975190639" lon="2.470858991146088">
        <ele>8.310000000000001</ele>
        <time>2018-07-02T09:53:44Z</time>
      </trkpt>
      <trkpt lat="51.058341963216662" lon="2.469927007332444">
        <ele>8.310000000000001</ele>
        <time>2018-07-02T09:53:49Z</time>
      </trkpt>
      <trkpt lat="51.058411030098796" lon="2.469736989587545">
        <ele>8.310000000000001</ele>
        <time>2018-07-02T09:53:50Z</time>
      </trkpt>
      <trkpt lat="51.058471966534853" lon="2.469555018469691">
        <ele>8.310000000000001</ele>
        <time>2018-07-02T09:53:51Z</time>
      </trkpt>
      <trkpt lat="51.058502979576588" lon="2.469367012381554">
        <ele>8.310000000000001</ele>
        <time>2018-07-02T09:53:52Z</time>
      </trkpt>
      <trkpt lat="51.058532986789942" lon="2.469171965494752">
        <ele>8.310000000000001</ele>
        <time>2018-07-02T09:53:53Z</time>
      </trkpt>
      <trkpt lat="51.058543967083097" lon="2.468965016305447">
        <ele>8.310000000000001</ele>
        <time>2018-07-02T09:53:54Z</time>
      </trkpt>
      <trkpt lat="51.058544972911477" lon="2.468753959983587">
        <ele>7.83</ele>
        <time>2018-07-02T09:53:55Z</time>
      </trkpt>
      <trkpt lat="51.058504991233349" lon="2.468550028279424">
        <ele>7.83</ele>
        <time>2018-07-02T09:53:56Z</time>
      </trkpt>
      <trkpt lat="51.058461992070079" lon="2.468337966129184">
        <ele>7.35</ele>
        <time>2018-07-02T09:53:57Z</time>
      </trkpt>
      <trkpt lat="51.058419998735189" lon="2.468123976141214">
        <ele>7.35</ele>
        <time>2018-07-02T09:53:58Z</time>
      </trkpt>
      <trkpt lat="51.058355960994959" lon="2.467907974496484">
        <ele>6.87</ele>
        <time>2018-07-02T09:53:59Z</time>
      </trkpt>
      <trkpt lat="51.058201985433698" lon="2.467473959550262">
        <ele>5.91</ele>
        <time>2018-07-02T09:54:01Z</time>
      </trkpt>
      <trkpt lat="51.058121016249061" lon="2.467246977612376">
        <ele>5.91</ele>
        <time>2018-07-02T09:54:02Z</time>
      </trkpt>
      <trkpt lat="51.057276036590338" lon="2.464874982833862">
        <ele>5.91</ele>
        <time>2018-07-02T09:54:12Z</time>
      </trkpt>
      <trkpt lat="51.056671030819416" lon="2.462622011080384">
        <ele>5.91</ele>
        <time>2018-07-02T09:54:21Z</time>
      </trkpt>
      <trkpt lat="51.056246990337968" lon="2.459979029372335">
        <ele>5.91</ele>
        <time>2018-07-02T09:54:31Z</time>
      </trkpt>
      <trkpt lat="51.055970974266529" lon="2.457293970510364">
        <ele>5.91</ele>
        <time>2018-07-02T09:54:41Z</time>
      </trkpt>
      <trkpt lat="51.055816998705268" lon="2.455797968432307">
        <ele>6.39</ele>
        <time>2018-07-02T09:54:48Z</time>
      </trkpt>
      <trkpt lat="51.055770982056856" lon="2.45565103366971">
        <ele>6.39</ele>
        <time>2018-07-02T09:54:49Z</time>
      </trkpt>
      <trkpt lat="51.055725971236825" lon="2.455508038401604">
        <ele>6.39</ele>
        <time>2018-07-02T09:54:50Z</time>
      </trkpt>
      <trkpt lat="51.055667968466878" lon="2.455376023426652">
        <ele>6.39</ele>
        <time>2018-07-02T09:54:51Z</time>
      </trkpt>
      <trkpt lat="51.055594962090254" lon="2.455267980694771">
        <ele>6.39</ele>
        <time>2018-07-02T09:54:52Z</time>
      </trkpt>
      <trkpt lat="51.055527990683913" lon="2.455165972933173">
        <ele>6.39</ele>
        <time>2018-07-02T09:54:53Z</time>
      </trkpt>
      <trkpt lat="51.055461019277573" lon="2.455065976828337">
        <ele>5.91</ele>
        <time>2018-07-02T09:54:54Z</time>
      </trkpt>
      <trkpt lat="51.054706983268261" lon="2.45389100164175">
        <ele>3.02</ele>
        <time>2018-07-02T09:55:06Z</time>
      </trkpt>
      <trkpt lat="51.054308004677296" lon="2.453208966180682">
        <ele>1.58</ele>
        <time>2018-07-02T09:55:13Z</time>
      </trkpt>
      <trkpt lat="51.054258970543742" lon="2.453118022531271">
        <ele>1.58</ele>
        <time>2018-07-02T09:55:14Z</time>
      </trkpt>
      <trkpt lat="51.053729988634586" lon="2.452158965170384">
        <ele>1.1</ele>
        <time>2018-07-02T09:55:24Z</time>
      </trkpt>
      <trkpt lat="51.053682966157794" lon="2.452072966843844">
        <ele>1.1</ele>
        <time>2018-07-02T09:55:25Z</time>
      </trkpt>
      <trkpt lat="51.053294967859983" lon="2.451368970796466">
        <ele>-0.34</ele>
        <time>2018-07-02T09:55:34Z</time>
      </trkpt>
      <trkpt lat="51.053059017285705" lon="2.450935039669275">
        <ele>0.14</ele>
        <time>2018-07-02T09:55:40Z</time>
      </trkpt>
      <trkpt lat="51.052987016737461" lon="2.450802018865943">
        <ele>0.14</ele>
        <time>2018-07-02T09:55:42Z</time>
      </trkpt>
      <trkpt lat="51.052945023402572" lon="2.450723983347416">
        <ele>0.62</ele>
        <time>2018-07-02T09:55:43Z</time>
      </trkpt>
      <trkpt lat="51.052894983440638" lon="2.450631028041244">
        <ele>0.62</ele>
        <time>2018-07-02T09:55:44Z</time>
      </trkpt>
      <trkpt lat="51.052713012322783" lon="2.450297009199858">
        <ele>0.62</ele>
        <time>2018-07-02T09:55:47Z</time>
      </trkpt>
      <trkpt lat="51.052415035665035" lon="2.449606005102396">
        <ele>1.1</ele>
        <time>2018-07-02T09:55:52Z</time>
      </trkpt>
      <trkpt lat="51.052003987133503" lon="2.447771960869432">
        <ele>1.1</ele>
        <time>2018-07-02T09:56:01Z</time>
      </trkpt>
      <trkpt lat="51.051861997693777" lon="2.446085019037128">
        <ele>2.06</ele>
        <time>2018-07-02T09:56:09Z</time>
      </trkpt>
      <trkpt lat="51.051957970485091" lon="2.445432990789414">
        <ele>2.54</ele>
        <time>2018-07-02T09:56:14Z</time>
      </trkpt>
      <trkpt lat="51.051978003233671" lon="2.445323020219803">
        <ele>2.54</ele>
        <time>2018-07-02T09:56:15Z</time>
      </trkpt>
      <trkpt lat="51.052056960761547" lon="2.444923035800457">
        <ele>2.06</ele>
        <time>2018-07-02T09:56:18Z</time>
      </trkpt>
      <trkpt lat="51.052072970196605" lon="2.444771993905306">
        <ele>2.06</ele>
        <time>2018-07-02T09:56:19Z</time>
      </trkpt>
      <trkpt lat="51.052118986845016" lon="2.443303987383843">
        <ele>1.58</ele>
        <time>2018-07-02T09:56:28Z</time>
      </trkpt>
      <trkpt lat="51.052024019882083" lon="2.441108012571931">
        <ele>0.14</ele>
        <time>2018-07-02T09:56:41Z</time>
      </trkpt>
      <trkpt lat="51.051971968263388" lon="2.439843015745282">
        <ele>0.14</ele>
        <time>2018-07-02T09:56:49Z</time>
      </trkpt>
      <trkpt lat="51.051916982978582" lon="2.438432006165385">
        <ele>2.06</ele>
        <time>2018-07-02T09:56:58Z</time>
      </trkpt>
      <trkpt lat="51.051896028220654" lon="2.438279958441854">
        <ele>2.54</ele>
        <time>2018-07-02T09:56:59Z</time>
      </trkpt>
      <trkpt lat="51.051874989643693" lon="2.438125982880592">
        <ele>2.54</ele>
        <time>2018-07-02T09:57:00Z</time>
      </trkpt>
      <trkpt lat="51.051851017400622" lon="2.437972007319331">
        <ele>3.02</ele>
        <time>2018-07-02T09:57:01Z</time>
      </trkpt>
      <trkpt lat="51.051812963560224" lon="2.437831023707986">
        <ele>3.02</ele>
        <time>2018-07-02T09:57:02Z</time>
      </trkpt>
      <trkpt lat="51.051541976630688" lon="2.436850005760789">
        <ele>2.06</ele>
        <time>2018-07-02T09:57:11Z</time>
      </trkpt>
      <trkpt lat="51.05115900747478" lon="2.435505967587233">
        <ele>2.54</ele>
        <time>2018-07-02T09:57:22Z</time>
      </trkpt>
      <trkpt lat="51.051089018583298" lon="2.435242021456361">
        <ele>2.54</ele>
        <time>2018-07-02T09:57:24Z</time>
      </trkpt>
      <trkpt lat="51.051021041348577" lon="2.434986960142851">
        <ele>2.54</ele>
        <time>2018-07-02T09:57:26Z</time>
      </trkpt>
      <trkpt lat="51.050988016650081" lon="2.434861985966563">
        <ele>2.54</ele>
        <time>2018-07-02T09:57:27Z</time>
      </trkpt>
      <trkpt lat="51.050954991951585" lon="2.434737011790276">
        <ele>2.54</ele>
        <time>2018-07-02T09:57:28Z</time>
      </trkpt>
      <trkpt lat="51.050821971148252" lon="2.434237031266093">
        <ele>1.1</ele>
        <time>2018-07-02T09:57:32Z</time>
      </trkpt>
      <trkpt lat="51.050356021150947" lon="2.432645978406072">
        <ele>0.14</ele>
        <time>2018-07-02T09:57:45Z</time>
      </trkpt>
      <trkpt lat="51.050298018381" lon="2.432436011731625">
        <ele>0.14</ele>
        <time>2018-07-02T09:57:47Z</time>
      </trkpt>
      <trkpt lat="51.0502789914608" lon="2.432348001748323">
        <ele>0.14</ele>
        <time>2018-07-02T09:57:48Z</time>
      </trkpt>
      <trkpt lat="51.050264993682504" lon="2.432281030341983">
        <ele>0.14</ele>
        <time>2018-07-02T09:57:49Z</time>
      </trkpt>
      <trkpt lat="51.050296006724238" lon="2.432157984003425">
        <ele>0.14</ele>
        <time>2018-07-02T09:57:50Z</time>
      </trkpt>
      <trkpt lat="51.050335988402367" lon="2.432118002325296">
        <ele>0.14</ele>
        <time>2018-07-02T09:57:51Z</time>
      </trkpt>
      <trkpt lat="51.050383010879159" lon="2.432071985676885">
        <ele>0.14</ele>
        <time>2018-07-02T09:57:52Z</time>
      </trkpt>
      <trkpt lat="51.050431961193681" lon="2.432023035362363">
        <ele>0.14</ele>
        <time>2018-07-02T09:57:53Z</time>
      </trkpt>
      <trkpt lat="51.050484012812376" lon="2.431969977915287">
        <ele>0.14</ele>
        <time>2018-07-02T09:57:54Z</time>
      </trkpt>
      <trkpt lat="51.050545033067465" lon="2.431935025379062">
        <ele>0.14</ele>
        <time>2018-07-02T09:57:55Z</time>
      </trkpt>
      <trkpt lat="51.050741001963615" lon="2.431790018454194">
        <ele>0.14</ele>
        <time>2018-07-02T09:57:58Z</time>
      </trkpt>
      <trkpt lat="51.051276018843055" lon="2.431584997102618">
        <ele>-0.34</ele>
        <time>2018-07-02T09:58:06Z</time>
      </trkpt>
      <trkpt lat="51.051328992471099" lon="2.431563036516309">
        <ele>-0.34</ele>
        <time>2018-07-02T09:58:07Z</time>
      </trkpt>
      <trkpt lat="51.051463019102812" lon="2.431669989600778">
        <ele>-0.82</ele>
        <time>2018-07-02T09:58:09Z</time>
      </trkpt>
      <trkpt lat="51.051513981074095" lon="2.431678036227822">
        <ele>-0.34</ele>
        <time>2018-07-02T09:58:10Z</time>
      </trkpt>
      <trkpt lat="51.051563015207648" lon="2.431649034842849">
        <ele>-0.34</ele>
        <time>2018-07-02T09:58:11Z</time>
      </trkpt>
      <trkpt lat="51.051600985229015" lon="2.431625984609127">
        <ele>-0.34</ele>
        <time>2018-07-02T09:58:12Z</time>
      </trkpt>
      <trkpt lat="51.051626969128847" lon="2.431420963257551">
        <ele>0.14</ele>
        <time>2018-07-02T09:58:13Z</time>
      </trkpt>
      <trkpt lat="51.051678014919162" lon="2.4313959851861">
        <ele>0.14</ele>
        <time>2018-07-02T09:58:14Z</time>
      </trkpt>
      <trkpt lat="51.051730988547206" lon="2.431370001286268">
        <ele>0.14</ele>
        <time>2018-07-02T09:58:15Z</time>
      </trkpt>
      <trkpt lat="51.051795026287436" lon="2.431338988244534">
        <ele>0.14</ele>
        <time>2018-07-02T09:58:16Z</time>
      </trkpt>
      <trkpt lat="51.052645035088062" lon="2.430901033803821">
        <ele>3.02</ele>
        <time>2018-07-02T09:58:26Z</time>
      </trkpt>
      <trkpt lat="51.052737990394235" lon="2.430850993841887">
        <ele>3.02</ele>
        <time>2018-07-02T09:58:27Z</time>
      </trkpt>
      <trkpt lat="51.0538259614259" lon="2.430287981405854">
        <ele>3.98</ele>
        <time>2018-07-02T09:58:38Z</time>
      </trkpt>
      <trkpt lat="51.054462986066937" lon="2.429923033341765">
        <ele>3.5</ele>
        <time>2018-07-02T09:58:45Z</time>
      </trkpt>
      <trkpt lat="51.05464001186192" lon="2.429822031408548">
        <ele>3.02</ele>
        <time>2018-07-02T09:58:47Z</time>
      </trkpt>
      <trkpt lat="51.05472500436008" lon="2.429772997274995">
        <ele>3.5</ele>
        <time>2018-07-02T09:58:48Z</time>
      </trkpt>
      <trkpt lat="51.054992973804474" lon="2.429608041420579">
        <ele>4.46</ele>
        <time>2018-07-02T09:58:51Z</time>
      </trkpt>
      <trkpt lat="51.055168993771076" lon="2.429493963718414">
        <ele>5.91</ele>
        <time>2018-07-02T09:58:53Z</time>
      </trkpt>
      <trkpt lat="51.055247029289603" lon="2.429444007575512">
        <ele>6.39</ele>
        <time>2018-07-02T09:58:54Z</time>
      </trkpt>
      <trkpt lat="51.055324980989099" lon="2.4293979909271">
        <ele>7.35</ele>
        <time>2018-07-02T09:58:55Z</time>
      </trkpt>
      <trkpt lat="51.055396981537342" lon="2.429357003420591">
        <ele>8.310000000000001</ele>
        <time>2018-07-02T09:58:56Z</time>
      </trkpt>
      <trkpt lat="51.055467976257205" lon="2.429317021742463">
        <ele>9.27</ele>
        <time>2018-07-02T09:58:57Z</time>
      </trkpt>
      <trkpt lat="51.055536037310958" lon="2.429278967902064">
        <ele>9.75</ele>
        <time>2018-07-02T09:58:58Z</time>
      </trkpt>
      <trkpt lat="51.055827978998423" lon="2.42911602370441">
        <ele>12.630000000000001</ele>
        <time>2018-07-02T09:59:05Z</time>
      </trkpt>
      <trkpt lat="51.055827978998423" lon="2.42911602370441">
        <ele>13.119999999999999</ele>
        <time>2018-07-02T09:59:06Z</time>
      </trkpt>
      <trkpt lat="51.055826973170042" lon="2.42911602370441">
        <ele>13.119999999999999</ele>
        <time>2018-07-02T09:59:07Z</time>
      </trkpt>
      <trkpt lat="51.055838959291577" lon="2.429109988734126">
        <ele>13.6</ele>
        <time>2018-07-02T09:59:08Z</time>
      </trkpt>
      <trkpt lat="51.055838959291577" lon="2.429109988734126">
        <ele>13.6</ele>
        <time>2018-07-02T09:59:09Z</time>
      </trkpt>
      <trkpt lat="51.055838959291577" lon="2.429109988734126">
        <ele>13.119999999999999</ele>
        <time>2018-07-02T09:59:10Z</time>
      </trkpt>
      <trkpt lat="51.055838959291577" lon="2.429109988734126">
        <ele>13.119999999999999</ele>
        <time>2018-07-02T09:59:11Z</time>
      </trkpt>
      <trkpt lat="51.055835019797087" lon="2.429112000390887">
        <ele>12.630000000000001</ele>
        <time>2018-07-02T09:59:12Z</time>
      </trkpt>
      <trkpt lat="51.05582102201879" lon="2.4291199631989">
        <ele>12.630000000000001</ele>
        <time>2018-07-02T09:59:13Z</time>
      </trkpt>
      <trkpt lat="51.055798977613449" lon="2.429132033139467">
        <ele>12.630000000000001</ele>
        <time>2018-07-02T09:59:14Z</time>
      </trkpt>
      <trkpt lat="51.055770982056856" lon="2.429147958755493">
        <ele>12.630000000000001</ele>
        <time>2018-07-02T09:59:15Z</time>
      </trkpt>
      <trkpt lat="51.055733012035489" lon="2.429168997332454">
        <ele>12.630000000000001</ele>
        <time>2018-07-02T09:59:16Z</time>
      </trkpt>
      <trkpt lat="51.055682972073555" lon="2.429196992889047">
        <ele>12.15</ele>
        <time>2018-07-02T09:59:17Z</time>
      </trkpt>
      <trkpt lat="51.055623963475227" lon="2.429230017587543">
        <ele>12.15</ele>
        <time>2018-07-02T09:59:18Z</time>
      </trkpt>
      <trkpt lat="51.055566966533661" lon="2.429262036457658">
        <ele>12.630000000000001</ele>
        <time>2018-07-02T09:59:19Z</time>
      </trkpt>
      <trkpt lat="51.055508041754365" lon="2.429294977337122">
        <ele>13.119999999999999</ele>
        <time>2018-07-02T09:59:20Z</time>
      </trkpt>
      <trkpt lat="51.055446015670896" lon="2.429329007863998">
        <ele>13.119999999999999</ele>
        <time>2018-07-02T09:59:21Z</time>
      </trkpt>
      <trkpt lat="51.055380972102284" lon="2.429365972056985">
        <ele>13.6</ele>
        <time>2018-07-02T09:59:22Z</time>
      </trkpt>
      <trkpt lat="51.055291034281254" lon="2.429416012018919">
        <ele>14.08</ele>
        <time>2018-07-02T09:59:23Z</time>
      </trkpt>
      <trkpt lat="51.055002026259899" lon="2.429602006450295">
        <ele>15.52</ele>
        <time>2018-07-02T09:59:27Z</time>
      </trkpt>
      <trkpt lat="51.054921979084611" lon="2.42965498007834">
        <ele>16</ele>
        <time>2018-07-02T09:59:28Z</time>
      </trkpt>
      <trkpt lat="51.053988989442587" lon="2.430201983079314">
        <ele>16.960000000000001</ele>
        <time>2018-07-02T09:59:39Z</time>
      </trkpt>
      <trkpt lat="51.053168987855315" lon="2.430623006075621">
        <ele>16.48</ele>
        <time>2018-07-02T09:59:48Z</time>
      </trkpt>
      <trkpt lat="51.052352003753185" lon="2.431068001314998">
        <ele>14.08</ele>
        <time>2018-07-02T09:59:58Z</time>
      </trkpt>
      <trkpt lat="51.052199034020305" lon="2.431142013520002">
        <ele>14.08</ele>
        <time>2018-07-02T10:00:00Z</time>
      </trkpt>
      <trkpt lat="51.052118986845016" lon="2.43118098936975">
        <ele>14.56</ele>
        <time>2018-07-02T10:00:01Z</time>
      </trkpt>
      <trkpt lat="51.05186996050179" lon="2.431302024051547">
        <ele>15.52</ele>
        <time>2018-07-02T10:00:05Z</time>
      </trkpt>
      <trkpt lat="51.051839031279087" lon="2.431317027658224">
        <ele>16</ele>
        <time>2018-07-02T10:00:06Z</time>
      </trkpt>
      <trkpt lat="51.051814975216985" lon="2.431329013779759">
        <ele>16</ele>
        <time>2018-07-02T10:00:07Z</time>
      </trkpt>
      <trkpt lat="51.051814975216985" lon="2.431329013779759">
        <ele>16.48</ele>
        <time>2018-07-02T10:00:08Z</time>
      </trkpt>
      <trkpt lat="51.051814975216985" lon="2.431329013779759">
        <ele>16.48</ele>
        <time>2018-07-02T10:00:26Z</time>
      </trkpt>
      <trkpt lat="51.051794020459056" lon="2.431338988244534">
        <ele>16.48</ele>
        <time>2018-07-02T10:00:27Z</time>
      </trkpt>
      <trkpt lat="51.051557986065745" lon="2.431347034871578">
        <ele>19.84</ele>
        <time>2018-07-02T10:00:35Z</time>
      </trkpt>
      <trkpt lat="51.051538959145546" lon="2.431257013231516">
        <ele>20.32</ele>
        <time>2018-07-02T10:00:36Z</time>
      </trkpt>
      <trkpt lat="51.051524961367249" lon="2.431186018511653">
        <ele>20.809999999999999</ele>
        <time>2018-07-02T10:00:37Z</time>
      </trkpt>
      <trkpt lat="51.051510041579604" lon="2.431114017963409">
        <ele>20.809999999999999</ele>
        <time>2018-07-02T10:00:38Z</time>
      </trkpt>
      <trkpt lat="51.051494032144547" lon="2.431036988273263">
        <ele>21.289999999999999</ele>
        <time>2018-07-02T10:00:39Z</time>
      </trkpt>
      <trkpt lat="51.051348019391298" lon="2.43019100278616">
        <ele>22.25</ele>
        <time>2018-07-02T10:00:46Z</time>
      </trkpt>
      <trkpt lat="51.05133100412786" lon="2.430052030831575">
        <ele>22.25</ele>
        <time>2018-07-02T10:00:47Z</time>
      </trkpt>
      <trkpt lat="51.05128800496459" lon="2.42974198423326">
        <ele>22.25</ele>
        <time>2018-07-02T10:00:49Z</time>
      </trkpt>
      <trkpt lat="51.0512650385499" lon="2.429580967873335">
        <ele>22.25</ele>
        <time>2018-07-02T10:00:50Z</time>
      </trkpt>
      <trkpt lat="51.050906963646412" lon="2.428184961900115">
        <ele>19.359999999999999</ele>
        <time>2018-07-02T10:01:00Z</time>
      </trkpt>
      <trkpt lat="51.050505973398685" lon="2.426584018394351">
        <ele>17.440000000000001</ele>
        <time>2018-07-02T10:01:10Z</time>
      </trkpt>
      <trkpt lat="51.050086040049791" lon="2.424884000793099">
        <ele>14.56</ele>
        <time>2018-07-02T10:01:21Z</time>
      </trkpt>
      <trkpt lat="51.04984799399972" lon="2.423908011987805">
        <ele>12.630000000000001</ele>
        <time>2018-07-02T10:01:28Z</time>
      </trkpt>
      <trkpt lat="51.04980600066483" lon="2.423761999234557">
        <ele>11.19</ele>
        <time>2018-07-02T10:01:36Z</time>
      </trkpt>
      <trkpt lat="51.049738023430109" lon="2.423538034781814">
        <ele>9.27</ele>
        <time>2018-07-02T10:02:09Z</time>
      </trkpt>
      <trkpt lat="51.049466030672193" lon="2.422437993809581">
        <ele>8.789999999999999</ele>
        <time>2018-07-02T10:02:17Z</time>
      </trkpt>
      <trkpt lat="51.048907041549683" lon="2.420258028432727">
        <ele>8.789999999999999</ele>
        <time>2018-07-02T10:02:30Z</time>
      </trkpt>
      <trkpt lat="51.048426004126668" lon="2.418305967003107">
        <ele>9.27</ele>
        <time>2018-07-02T10:02:41Z</time>
      </trkpt>
      <trkpt lat="51.048381999135017" lon="2.418128019198775">
        <ele>9.75</ele>
        <time>2018-07-02T10:02:42Z</time>
      </trkpt>
      <trkpt lat="51.048149988055229" lon="2.417243979871273">
        <ele>10.710000000000001</ele>
        <time>2018-07-02T10:02:49Z</time>
      </trkpt>
      <trkpt lat="51.048098020255566" lon="2.417056979611516">
        <ele>11.67</ele>
        <time>2018-07-02T10:02:56Z</time>
      </trkpt>
      <trkpt lat="51.048047980293632" lon="2.416876014322043">
        <ele>12.15</ele>
        <time>2018-07-02T10:03:24Z</time>
      </trkpt>
      <trkpt lat="51.047758972272277" lon="2.415620991960168">
        <ele>12.15</ele>
        <time>2018-07-02T10:03:34Z</time>
      </trkpt>
      <trkpt lat="51.04731498286128" lon="2.413844028487802">
        <ele>9.75</ele>
        <time>2018-07-02T10:03:45Z</time>
      </trkpt>
      <trkpt lat="51.046943999826908" lon="2.412390019744635">
        <ele>9.27</ele>
        <time>2018-07-02T10:03:56Z</time>
      </trkpt>
      <trkpt lat="51.046563964337111" lon="2.410860992968082">
        <ele>8.789999999999999</ele>
        <time>2018-07-02T10:04:06Z</time>
      </trkpt>
      <trkpt lat="51.046101031824946" lon="2.40896500647068">
        <ele>6.39</ele>
        <time>2018-07-02T10:04:18Z</time>
      </trkpt>
      <trkpt lat="51.045552017167211" lon="2.406826028600335">
        <ele>6.39</ele>
        <time>2018-07-02T10:04:31Z</time>
      </trkpt>
      <trkpt lat="51.045068968087435" lon="2.404924007132649">
        <ele>6.39</ele>
        <time>2018-07-02T10:04:42Z</time>
      </trkpt>
      <trkpt lat="51.044978024438024" lon="2.404565010219812">
        <ele>6.87</ele>
        <time>2018-07-02T10:04:45Z</time>
      </trkpt>
      <trkpt lat="51.044957991689444" lon="2.404486974701285">
        <ele>6.87</ele>
        <time>2018-07-02T10:04:46Z</time>
      </trkpt>
      <trkpt lat="51.044940976426005" lon="2.404421009123325">
        <ele>6.87</ele>
        <time>2018-07-02T10:04:47Z</time>
      </trkpt>
      <trkpt lat="51.044927984476089" lon="2.404369041323662">
        <ele>6.87</ele>
        <time>2018-07-02T10:04:48Z</time>
      </trkpt>
      <trkpt lat="51.044919015839696" lon="2.404331993311644">
        <ele>6.87</ele>
        <time>2018-07-02T10:04:49Z</time>
      </trkpt>
      <trkpt lat="51.044882973656058" lon="2.404192015528679">
        <ele>6.87</ele>
        <time>2018-07-02T10:04:57Z</time>
      </trkpt>
      <trkpt lat="51.044644005596638" lon="2.403244022279978">
        <ele>6.87</ele>
        <time>2018-07-02T10:05:06Z</time>
      </trkpt>
      <trkpt lat="51.044515008106828" lon="2.402719985693693">
        <ele>9.75</ele>
        <time>2018-07-02T10:05:10Z</time>
      </trkpt>
      <trkpt lat="51.044483995065093" lon="2.402594005689025">
        <ele>10.710000000000001</ele>
        <time>2018-07-02T10:05:11Z</time>
      </trkpt>
      <trkpt lat="51.044448036700487" lon="2.402445981279016">
        <ele>11.19</ele>
        <time>2018-07-02T10:05:12Z</time>
      </trkpt>
      <trkpt lat="51.044237986207008" lon="2.401564959436655">
        <ele>12.630000000000001</ele>
        <time>2018-07-02T10:05:20Z</time>
      </trkpt>
      <trkpt lat="51.044226000085473" lon="2.401517014950514">
        <ele>12.630000000000001</ele>
        <time>2018-07-02T10:05:22Z</time>
      </trkpt>
      <trkpt lat="51.044221976771951" lon="2.401498993858695">
        <ele>12.630000000000001</ele>
        <time>2018-07-02T10:05:23Z</time>
      </trkpt>
      <trkpt lat="51.044221976771951" lon="2.401498993858695">
        <ele>12.630000000000001</ele>
        <time>2018-07-02T10:05:37Z</time>
      </trkpt>
      <trkpt lat="51.044221976771951" lon="2.401498993858695">
        <ele>12.630000000000001</ele>
        <time>2018-07-02T10:05:49Z</time>
      </trkpt>
      <trkpt lat="51.044199010357261" lon="2.40140100941062">
        <ele>12.15</ele>
        <time>2018-07-02T10:05:51Z</time>
      </trkpt>
      <trkpt lat="51.04400304146111" lon="2.400613026693463">
        <ele>10.23</ele>
        <time>2018-07-02T10:05:59Z</time>
      </trkpt>
      <trkpt lat="51.043971022590995" lon="2.400489980354905">
        <ele>9.75</ele>
        <time>2018-07-02T10:06:00Z</time>
      </trkpt>
      <trkpt lat="51.043935986235738" lon="2.400358971208334">
        <ele>9.75</ele>
        <time>2018-07-02T10:06:01Z</time>
      </trkpt>
      <trkpt lat="51.043829033151269" lon="2.399954963475466">
        <ele>8.789999999999999</ele>
        <time>2018-07-02T10:06:04Z</time>
      </trkpt>
      <trkpt lat="51.04372400790453" lon="2.399556990712881">
        <ele>8.310000000000001</ele>
        <time>2018-07-02T10:06:07Z</time>
      </trkpt>
      <trkpt lat="51.043689977377653" lon="2.399424975737929">
        <ele>7.83</ele>
        <time>2018-07-02T10:06:08Z</time>
      </trkpt>
      <trkpt lat="51.043589981272817" lon="2.399005964398384">
        <ele>7.83</ele>
        <time>2018-07-02T10:06:11Z</time>
      </trkpt>
      <trkpt lat="51.043556034564972" lon="2.398870009928942">
        <ele>7.83</ele>
        <time>2018-07-02T10:06:12Z</time>
      </trkpt>
      <trkpt lat="51.043523009866476" lon="2.398734977468848">
        <ele>8.310000000000001</ele>
        <time>2018-07-02T10:06:13Z</time>
      </trkpt>
      <trkpt lat="51.043490990996361" lon="2.398607991635799">
        <ele>8.310000000000001</ele>
        <time>2018-07-02T10:06:14Z</time>
      </trkpt>
      <trkpt lat="51.043459977954626" lon="2.398484023287892">
        <ele>8.310000000000001</ele>
        <time>2018-07-02T10:06:15Z</time>
      </trkpt>
      <trkpt lat="51.043292004615068" lon="2.397848004475236">
        <ele>10.23</ele>
        <time>2018-07-02T10:06:23Z</time>
      </trkpt>
      <trkpt lat="51.043285969644785" lon="2.397825960069895">
        <ele>10.23</ele>
        <time>2018-07-02T10:06:24Z</time>
      </trkpt>
      <trkpt lat="51.043285969644785" lon="2.397825960069895">
        <ele>10.23</ele>
        <time>2018-07-02T10:06:40Z</time>
      </trkpt>
      <trkpt lat="51.043196031823754" lon="2.397488001734018">
        <ele>8.789999999999999</ele>
        <time>2018-07-02T10:06:57Z</time>
      </trkpt>
      <trkpt lat="51.042984975501895" lon="2.396627012640238">
        <ele>8.310000000000001</ele>
        <time>2018-07-02T10:07:04Z</time>
      </trkpt>
      <trkpt lat="51.042910041287541" lon="2.396336998790503">
        <ele>8.310000000000001</ele>
        <time>2018-07-02T10:07:06Z</time>
      </trkpt>
      <trkpt lat="51.042555989697576" lon="2.394932024180889">
        <ele>8.310000000000001</ele>
        <time>2018-07-02T10:07:15Z</time>
      </trkpt>
      <trkpt lat="51.042162962257862" lon="2.393381036818028">
        <ele>5.42</ele>
        <time>2018-07-02T10:07:24Z</time>
      </trkpt>
      <trkpt lat="51.041730958968401" lon="2.391598038375378">
        <ele>2.54</ele>
        <time>2018-07-02T10:07:34Z</time>
      </trkpt>
      <trkpt lat="51.041575977578759" lon="2.390928994864225">
        <ele>1.58</ele>
        <time>2018-07-02T10:07:40Z</time>
      </trkpt>
      <trkpt lat="51.041556028649211" lon="2.390866968780756">
        <ele>1.1</ele>
        <time>2018-07-02T10:07:41Z</time>
      </trkpt>
      <trkpt lat="51.041446980088949" lon="2.390430020168424">
        <ele>0.62</ele>
        <time>2018-07-02T10:07:48Z</time>
      </trkpt>
      <trkpt lat="51.04142602533102" lon="2.390334969386458">
        <ele>0.62</ele>
        <time>2018-07-02T10:07:49Z</time>
      </trkpt>
      <trkpt lat="51.041256040334702" lon="2.38941203802824">
        <ele>1.1</ele>
        <time>2018-07-02T10:07:57Z</time>
      </trkpt>
      <trkpt lat="51.04123299010098" lon="2.389149013906717">
        <ele>1.58</ele>
        <time>2018-07-02T10:07:59Z</time>
      </trkpt>
      <trkpt lat="51.041184039786458" lon="2.388566974550486">
        <ele>1.58</ele>
        <time>2018-07-02T10:08:03Z</time>
      </trkpt>
      <trkpt lat="51.041101980954409" lon="2.386737037450075">
        <ele>1.58</ele>
        <time>2018-07-02T10:08:14Z</time>
      </trkpt>
      <trkpt lat="51.041042972356081" lon="2.385280011221767">
        <ele>2.06</ele>
        <time>2018-07-02T10:08:24Z</time>
      </trkpt>
      <trkpt lat="51.041035009548068" lon="2.385126035660505">
        <ele>1.58</ele>
        <time>2018-07-02T10:08:25Z</time>
      </trkpt>
      <trkpt lat="51.040970971807837" lon="2.383082024753094">
        <ele>1.58</ele>
        <time>2018-07-02T10:08:38Z</time>
      </trkpt>
      <trkpt lat="51.041001984849572" lon="2.382769966498017">
        <ele>1.58</ele>
        <time>2018-07-02T10:08:40Z</time>
      </trkpt>
      <trkpt lat="51.041015982627869" lon="2.382634012028575">
        <ele>2.06</ele>
        <time>2018-07-02T10:08:41Z</time>
      </trkpt>
      <trkpt lat="51.041011959314346" lon="2.382534015923739">
        <ele>2.06</ele>
        <time>2018-07-02T10:08:42Z</time>
      </trkpt>
      <trkpt lat="51.040999973192811" lon="2.382484981790185">
        <ele>2.06</ele>
        <time>2018-07-02T10:08:43Z</time>
      </trkpt>
      <trkpt lat="51.040988992899656" lon="2.382440976798534">
        <ele>2.54</ele>
        <time>2018-07-02T10:08:44Z</time>
      </trkpt>
      <trkpt lat="51.040949011221528" lon="2.382331006228924">
        <ele>2.54</ele>
        <time>2018-07-02T10:08:46Z</time>
      </trkpt>
      <trkpt lat="51.04078397154808" lon="2.381935967132449">
        <ele>3.5</ele>
        <time>2018-07-02T10:08:50Z</time>
      </trkpt>
      <trkpt lat="51.040643993765116" lon="2.380471983924508">
        <ele>5.42</ele>
        <time>2018-07-02T10:09:01Z</time>
      </trkpt>
      <trkpt lat="51.040498986840248" lon="2.379499012604356">
        <ele>5.91</ele>
        <time>2018-07-02T10:09:08Z</time>
      </trkpt>
      <trkpt lat="51.040456993505359" lon="2.379376972094178">
        <ele>6.39</ele>
        <time>2018-07-02T10:09:09Z</time>
      </trkpt>
      <trkpt lat="51.040406031534076" lon="2.379261972382665">
        <ele>6.87</ele>
        <time>2018-07-02T10:09:10Z</time>
      </trkpt>
      <trkpt lat="51.04035397991538" lon="2.379144039005041">
        <ele>7.35</ele>
        <time>2018-07-02T10:09:11Z</time>
      </trkpt>
      <trkpt lat="51.040313998237252" lon="2.379055023193359">
        <ele>8.310000000000001</ele>
        <time>2018-07-02T10:09:12Z</time>
      </trkpt>
      <trkpt lat="51.040238980203867" lon="2.378955027088523">
        <ele>8.789999999999999</ele>
        <time>2018-07-02T10:09:13Z</time>
      </trkpt>
      <trkpt lat="51.040178965777159" lon="2.378875985741615">
        <ele>9.27</ele>
        <time>2018-07-02T10:09:14Z</time>
      </trkpt>
      <trkpt lat="51.039980985224247" lon="2.378674987703562">
        <ele>9.27</ele>
        <time>2018-07-02T10:09:18Z</time>
      </trkpt>
      <trkpt lat="51.039945026859641" lon="2.378642968833447">
        <ele>8.789999999999999</ele>
        <time>2018-07-02T10:09:19Z</time>
      </trkpt>
      <trkpt lat="51.039918959140778" lon="2.378617990761995">
        <ele>8.310000000000001</ele>
        <time>2018-07-02T10:09:20Z</time>
      </trkpt>
      <trkpt lat="51.039894986897707" lon="2.378594018518925">
        <ele>8.310000000000001</ele>
        <time>2018-07-02T10:09:21Z</time>
      </trkpt>
      <trkpt lat="51.039869002997875" lon="2.378565017133951">
        <ele>7.83</ele>
        <time>2018-07-02T10:09:22Z</time>
      </trkpt>
      <trkpt lat="51.039869002997875" lon="2.378565017133951">
        <ele>7.83</ele>
        <time>2018-07-02T10:09:23Z</time>
      </trkpt>
      <trkpt lat="51.039869002997875" lon="2.378565017133951">
        <ele>7.35</ele>
        <time>2018-07-02T10:09:36Z</time>
      </trkpt>
      <trkpt lat="51.039869002997875" lon="2.378565017133951">
        <ele>7.83</ele>
        <time>2018-07-02T10:10:09Z</time>
      </trkpt>
      <trkpt lat="51.039869002997875" lon="2.378565017133951">
        <ele>7.35</ele>
        <time>2018-07-02T10:10:51Z</time>
      </trkpt>
      <trkpt lat="51.039869002997875" lon="2.378565017133951">
        <ele>7.83</ele>
        <time>2018-07-02T10:11:29Z</time>
      </trkpt>
      <trkpt lat="51.039869002997875" lon="2.378565017133951">
        <ele>7.83</ele>
        <time>2018-07-02T10:11:30Z</time>
      </trkpt>
      <trkpt lat="51.039948966354132" lon="2.378646992146969">
        <ele>8.310000000000001</ele>
        <time>2018-07-02T10:11:33Z</time>
      </trkpt>
      <trkpt lat="51.039885012432933" lon="2.37858303822577">
        <ele>8.310000000000001</ele>
        <time>2018-07-02T10:11:34Z</time>
      </trkpt>
      <trkpt lat="51.039808988571167" lon="2.378496034070849">
        <ele>8.310000000000001</ele>
        <time>2018-07-02T10:11:35Z</time>
      </trkpt>
      <trkpt lat="51.039778981357813" lon="2.378462003543973">
        <ele>7.83</ele>
        <time>2018-07-02T10:11:36Z</time>
      </trkpt>
      <trkpt lat="51.03975098580122" lon="2.378429984673858">
        <ele>7.35</ele>
        <time>2018-07-02T10:11:37Z</time>
      </trkpt>
      <trkpt lat="51.039733970537782" lon="2.37841104157269">
        <ele>6.87</ele>
        <time>2018-07-02T10:11:38Z</time>
      </trkpt>
      <trkpt lat="51.039706980809569" lon="2.378390002995729">
        <ele>6.39</ele>
        <time>2018-07-02T10:11:39Z</time>
      </trkpt>
      <trkpt lat="51.039706980809569" lon="2.378390002995729">
        <ele>6.39</ele>
        <time>2018-07-02T10:11:40Z</time>
      </trkpt>
      <trkpt lat="51.039706980809569" lon="2.378390002995729">
        <ele>5.91</ele>
        <time>2018-07-02T10:11:54Z</time>
      </trkpt>
      <trkpt lat="51.039476981386542" lon="2.378185987472534">
        <ele>5.42</ele>
        <time>2018-07-02T10:12:02Z</time>
      </trkpt>
      <trkpt lat="51.038970965892076" lon="2.377651976421475">
        <ele>4.94</ele>
        <time>2018-07-02T10:12:10Z</time>
      </trkpt>
      <trkpt lat="51.0389110352844" lon="2.377542005851865">
        <ele>4.94</ele>
        <time>2018-07-02T10:12:11Z</time>
      </trkpt>
      <trkpt lat="51.038866024464369" lon="2.377430023625493">
        <ele>4.94</ele>
        <time>2018-07-02T10:12:12Z</time>
      </trkpt>
      <trkpt lat="51.038822019472718" lon="2.377320975065231">
        <ele>4.46</ele>
        <time>2018-07-02T10:12:13Z</time>
      </trkpt>
      <trkpt lat="51.038782959803939" lon="2.377217039465904">
        <ele>4.46</ele>
        <time>2018-07-02T10:12:14Z</time>
      </trkpt>
      <trkpt lat="51.038750018924475" lon="2.3771240003407">
        <ele>4.94</ele>
        <time>2018-07-02T10:12:15Z</time>
      </trkpt>
      <trkpt lat="51.038721017539501" lon="2.377044958993793">
        <ele>4.94</ele>
        <time>2018-07-02T10:12:16Z</time>
      </trkpt>
      <trkpt lat="51.038697967305779" lon="2.376982010900974">
        <ele>4.94</ele>
        <time>2018-07-02T10:12:17Z</time>
      </trkpt>
      <trkpt lat="51.038679024204612" lon="2.37693096511066">
        <ele>4.94</ele>
        <time>2018-07-02T10:12:18Z</time>
      </trkpt>
      <trkpt lat="51.038664020597935" lon="2.37688796594739">
        <ele>5.42</ele>
        <time>2018-07-02T10:12:19Z</time>
      </trkpt>
      <trkpt lat="51.038653962314129" lon="2.376860976219177">
        <ele>5.42</ele>
        <time>2018-07-02T10:12:20Z</time>
      </trkpt>
      <trkpt lat="51.038647005334496" lon="2.37684203311801">
        <ele>5.91</ele>
        <time>2018-07-02T10:12:21Z</time>
      </trkpt>
      <trkpt lat="51.038640970364213" lon="2.376827029511333">
        <ele>5.91</ele>
        <time>2018-07-02T10:12:22Z</time>
      </trkpt>
      <trkpt lat="51.038640970364213" lon="2.376827029511333">
        <ele>5.91</ele>
        <time>2018-07-02T10:12:33Z</time>
      </trkpt>
      <trkpt lat="51.038640970364213" lon="2.376827029511333">
        <ele>5.91</ele>
        <time>2018-07-02T10:13:03Z</time>
      </trkpt>
      <trkpt lat="51.038625966757536" lon="2.376785958185792">
        <ele>6.39</ele>
        <time>2018-07-02T10:13:25Z</time>
      </trkpt>
      <trkpt lat="51.03861297480762" lon="2.376747988164425">
        <ele>5.91</ele>
        <time>2018-07-02T10:13:26Z</time>
      </trkpt>
      <trkpt lat="51.038591014221311" lon="2.376688979566097">
        <ele>5.91</ele>
        <time>2018-07-02T10:13:27Z</time>
      </trkpt>
      <trkpt lat="51.038269987329841" lon="2.375869983807206">
        <ele>3.02</ele>
        <time>2018-07-02T10:13:35Z</time>
      </trkpt>
      <trkpt lat="51.037949966266751" lon="2.375235976651311">
        <ele>1.58</ele>
        <time>2018-07-02T10:13:41Z</time>
      </trkpt>
      <trkpt lat="51.037897998467088" lon="2.375144027173519">
        <ele>1.58</ele>
        <time>2018-07-02T10:13:42Z</time>
      </trkpt>
      <trkpt lat="51.037168018519878" lon="2.374059995636344">
        <ele>4.94</ele>
        <time>2018-07-02T10:13:53Z</time>
      </trkpt>
      <trkpt lat="51.036599976941943" lon="2.373529002070427">
        <ele>7.35</ele>
        <time>2018-07-02T10:14:01Z</time>
      </trkpt>
      <trkpt lat="51.036534011363983" lon="2.373476028442383">
        <ele>7.83</ele>
        <time>2018-07-02T10:14:09Z</time>
      </trkpt>
      <trkpt lat="51.036439966410398" lon="2.373400004580617">
        <ele>8.310000000000001</ele>
        <time>2018-07-02T10:14:31Z</time>
      </trkpt>
      <trkpt lat="51.035916013643146" lon="2.372892983257771">
        <ele>10.23</ele>
        <time>2018-07-02T10:14:41Z</time>
      </trkpt>
      <trkpt lat="51.035721972584724" lon="2.372682010754943">
        <ele>11.19</ele>
        <time>2018-07-02T10:14:47Z</time>
      </trkpt>
      <trkpt lat="51.035721972584724" lon="2.372682010754943">
        <ele>11.19</ele>
        <time>2018-07-02T10:15:01Z</time>
      </trkpt>
      <trkpt lat="51.035721972584724" lon="2.372682010754943">
        <ele>11.19</ele>
        <time>2018-07-02T10:15:25Z</time>
      </trkpt>
      <trkpt lat="51.035561040043831" lon="2.372586037963629">
        <ele>12.630000000000001</ele>
        <time>2018-07-02T10:15:40Z</time>
      </trkpt>
      <trkpt lat="51.035534972324967" lon="2.372399959713221">
        <ele>14.08</ele>
        <time>2018-07-02T10:15:44Z</time>
      </trkpt>
      <trkpt lat="51.03554000146687" lon="2.372373975813389">
        <ele>14.08</ele>
        <time>2018-07-02T10:15:45Z</time>
      </trkpt>
      <trkpt lat="51.035547964274883" lon="2.372327037155628">
        <ele>13.6</ele>
        <time>2018-07-02T10:15:46Z</time>
      </trkpt>
      <trkpt lat="51.035549975931644" lon="2.372316978871822">
        <ele>13.6</ele>
        <time>2018-07-02T10:15:47Z</time>
      </trkpt>
      <trkpt lat="51.035594986751676" lon="2.37220399081707">
        <ele>13.119999999999999</ele>
        <time>2018-07-02T10:15:48Z</time>
      </trkpt>
      <trkpt lat="51.035623988136649" lon="2.372134001925588">
        <ele>13.119999999999999</ele>
        <time>2018-07-02T10:15:49Z</time>
      </trkpt>
      <trkpt lat="51.035651983693242" lon="2.372062001377344">
        <ele>13.119999999999999</ele>
        <time>2018-07-02T10:15:50Z</time>
      </trkpt>
      <trkpt lat="51.035682996734977" lon="2.371984971687198">
        <ele>12.630000000000001</ele>
        <time>2018-07-02T10:15:51Z</time>
      </trkpt>
      <trkpt lat="51.035721972584724" lon="2.371887993067503">
        <ele>12.630000000000001</ele>
        <time>2018-07-02T10:15:52Z</time>
      </trkpt>
      <trkpt lat="51.03575499728322" lon="2.371828984469175">
        <ele>12.15</ele>
        <time>2018-07-02T10:15:53Z</time>
      </trkpt>
      <trkpt lat="51.035792967304587" lon="2.371763018891215">
        <ele>12.15</ele>
        <time>2018-07-02T10:15:54Z</time>
      </trkpt>
      <trkpt lat="51.036106031388044" lon="2.371233031153679">
        <ele>12.15</ele>
        <time>2018-07-02T10:16:01Z</time>
      </trkpt>
      <trkpt lat="51.036565024405718" lon="2.370604975149036">
        <ele>8.789999999999999</ele>
        <time>2018-07-02T10:16:10Z</time>
      </trkpt>
      <trkpt lat="51.036601988598704" lon="2.370558036491275">
        <ele>8.789999999999999</ele>
        <time>2018-07-02T10:16:11Z</time>
      </trkpt>
      <trkpt lat="51.036639958620071" lon="2.370475977659226">
        <ele>8.310000000000001</ele>
        <time>2018-07-02T10:16:12Z</time>
      </trkpt>
      <trkpt lat="51.036671977490187" lon="2.370409006252885">
        <ele>7.83</ele>
        <time>2018-07-02T10:16:13Z</time>
      </trkpt>
      <trkpt lat="51.03669997304678" lon="2.370348991826177">
        <ele>7.35</ele>
        <time>2018-07-02T10:16:14Z</time>
      </trkpt>
      <trkpt lat="51.036726040765643" lon="2.370294006541371">
        <ele>6.87</ele>
        <time>2018-07-02T10:16:15Z</time>
      </trkpt>
      <trkpt lat="51.03674397803843" lon="2.370256036520004">
        <ele>6.39</ele>
        <time>2018-07-02T10:16:16Z</time>
      </trkpt>
      <trkpt lat="51.03674397803843" lon="2.370256036520004">
        <ele>5.42</ele>
        <time>2018-07-02T10:16:26Z</time>
      </trkpt>
      <trkpt lat="51.036800974979997" lon="2.370113963261247">
        <ele>3.98</ele>
        <time>2018-07-02T10:16:52Z</time>
      </trkpt>
      <trkpt lat="51.036971965804696" lon="2.369931992143393">
        <ele>1.1</ele>
        <time>2018-07-02T10:16:58Z</time>
      </trkpt>
      <trkpt lat="51.037017982453108" lon="2.369952024891973">
        <ele>0.62</ele>
        <time>2018-07-02T10:16:59Z</time>
      </trkpt>
      <trkpt lat="51.037631034851074" lon="2.370216976851225">
        <ele>-4.19</ele>
        <time>2018-07-02T10:17:07Z</time>
      </trkpt>
      <trkpt lat="51.038166973739862" lon="2.370573040097952">
        <ele>-7.07</ele>
        <time>2018-07-02T10:17:14Z</time>
      </trkpt>
      <trkpt lat="51.038242997601628" lon="2.370639005675912">
        <ele>-7.07</ele>
        <time>2018-07-02T10:17:15Z</time>
      </trkpt>
      <trkpt lat="51.038484983146191" lon="2.37085098400712">
        <ele>-7.07</ele>
        <time>2018-07-02T10:17:18Z</time>
      </trkpt>
      <trkpt lat="51.038570981472731" lon="2.370926002040505">
        <ele>-7.55</ele>
        <time>2018-07-02T10:17:19Z</time>
      </trkpt>
      <trkpt lat="51.039483016356826" lon="2.371861003339291">
        <ele>-4.67</ele>
        <time>2018-07-02T10:17:31Z</time>
      </trkpt>
      <trkpt lat="51.039803959429264" lon="2.372194016352296">
        <ele>-1.79</ele>
        <time>2018-07-02T10:17:37Z</time>
      </trkpt>
      <trkpt lat="51.039856011047959" lon="2.372247995808721">
        <ele>-1.79</ele>
        <time>2018-07-02T10:17:38Z</time>
      </trkpt>
      <trkpt lat="51.040556989610195" lon="2.372978981584311">
        <ele>1.1</ele>
        <time>2018-07-02T10:17:48Z</time>
      </trkpt>
      <trkpt lat="51.040827976539731" lon="2.373261032626033">
        <ele>2.06</ele>
        <time>2018-07-02T10:17:55Z</time>
      </trkpt>
      <trkpt lat="51.04086603038013" lon="2.373297996819019">
        <ele>2.06</ele>
        <time>2018-07-02T10:17:57Z</time>
      </trkpt>
      <trkpt lat="51.040893020108342" lon="2.373325992375612">
        <ele>2.54</ele>
        <time>2018-07-02T10:17:58Z</time>
      </trkpt>
      <trkpt lat="51.040926966816187" lon="2.373411990702152">
        <ele>2.54</ele>
        <time>2018-07-02T10:17:59Z</time>
      </trkpt>
      <trkpt lat="51.040948005393147" lon="2.373552974313498">
        <ele>3.02</ele>
        <time>2018-07-02T10:18:01Z</time>
      </trkpt>
      <trkpt lat="51.04097499512136" lon="2.373617012053728">
        <ele>3.02</ele>
        <time>2018-07-02T10:18:02Z</time>
      </trkpt>
      <trkpt lat="51.040979018434882" lon="2.373625980690122">
        <ele>3.02</ele>
        <time>2018-07-02T10:18:03Z</time>
      </trkpt>
      <trkpt lat="51.041165012866259" lon="2.373721031472087">
        <ele>3.02</ele>
        <time>2018-07-02T10:18:05Z</time>
      </trkpt>
      <trkpt lat="51.041206000372767" lon="2.373805018141866">
        <ele>3.02</ele>
        <time>2018-07-02T10:18:06Z</time>
      </trkpt>
      <trkpt lat="51.041248999536037" lon="2.373893028125167">
        <ele>3.02</ele>
        <time>2018-07-02T10:18:07Z</time>
      </trkpt>
      <trkpt lat="51.041696006432176" lon="2.374774971976876">
        <ele>3.5</ele>
        <time>2018-07-02T10:18:17Z</time>
      </trkpt>
      <trkpt lat="51.041793990880251" lon="2.374957026913762">
        <ele>4.46</ele>
        <time>2018-07-02T10:18:22Z</time>
      </trkpt>
      <trkpt lat="51.041817041113973" lon="2.375002037733793">
        <ele>4.46</ele>
        <time>2018-07-02T10:18:23Z</time>
      </trkpt>
      <trkpt lat="51.04207101278007" lon="2.375594973564148">
        <ele>5.42</ele>
        <time>2018-07-02T10:18:31Z</time>
      </trkpt>
      <trkpt lat="51.042159022763371" lon="2.375729000195861">
        <ele>5.91</ele>
        <time>2018-07-02T10:18:33Z</time>
      </trkpt>
      <trkpt lat="51.042184000834823" lon="2.375777028501034">
        <ele>5.91</ele>
        <time>2018-07-02T10:18:34Z</time>
      </trkpt>
      <trkpt lat="51.042254995554686" lon="2.375911977142096">
        <ele>5.91</ele>
        <time>2018-07-02T10:18:36Z</time>
      </trkpt>
      <trkpt lat="51.042455993592739" lon="2.376299975439906">
        <ele>3.98</ele>
        <time>2018-07-02T10:18:46Z</time>
      </trkpt>
      <trkpt lat="51.04252296499908" lon="2.376434002071619">
        <ele>3.98</ele>
        <time>2018-07-02T10:18:51Z</time>
      </trkpt>
      <trkpt lat="51.042601000517607" lon="2.376477001234889">
        <ele>3.98</ele>
        <time>2018-07-02T10:18:52Z</time>
      </trkpt>
      <trkpt lat="51.042636036872864" lon="2.376427967101336">
        <ele>3.98</ele>
        <time>2018-07-02T10:18:53Z</time>
      </trkpt>
      <trkpt lat="51.042682975530624" lon="2.376363007351756">
        <ele>3.5</ele>
        <time>2018-07-02T10:18:54Z</time>
      </trkpt>
      <trkpt lat="51.04273796081543" lon="2.376287989318371">
        <ele>3.5</ele>
        <time>2018-07-02T10:18:55Z</time>
      </trkpt>
      <trkpt lat="51.042789006605744" lon="2.376218000426889">
        <ele>3.02</ele>
        <time>2018-07-02T10:18:56Z</time>
      </trkpt>
      <trkpt lat="51.043250011280179" lon="2.375626992434263">
        <ele>2.06</ele>
        <time>2018-07-02T10:19:05Z</time>
      </trkpt>
      <trkpt lat="51.043312037363648" lon="2.375546023249626">
        <ele>2.06</ele>
        <time>2018-07-02T10:19:06Z</time>
      </trkpt>
      <trkpt lat="51.043372973799706" lon="2.375467987731099">
        <ele>2.06</ele>
        <time>2018-07-02T10:19:07Z</time>
      </trkpt>
      <trkpt lat="51.043542958796024" lon="2.375771999359131">
        <ele>2.54</ele>
        <time>2018-07-02T10:19:08Z</time>
      </trkpt>
      <trkpt lat="51.043629040941596" lon="2.375740986317396">
        <ele>2.54</ele>
        <time>2018-07-02T10:19:09Z</time>
      </trkpt>
      <trkpt lat="51.044138995930552" lon="2.375583993270993">
        <ele>3.5</ele>
        <time>2018-07-02T10:19:18Z</time>
      </trkpt>
      <trkpt lat="51.04417503811419" lon="2.37553596496582">
        <ele>3.5</ele>
        <time>2018-07-02T10:19:19Z</time>
      </trkpt>
      <trkpt lat="51.044216025620699" lon="2.375481985509396">
        <ele>3.5</ele>
        <time>2018-07-02T10:19:20Z</time>
      </trkpt>
      <trkpt lat="51.04426103644073" lon="2.375423982739449">
        <ele>3.5</ele>
        <time>2018-07-02T10:19:21Z</time>
      </trkpt>
      <trkpt lat="51.04430596344173" lon="2.37536396831274">
        <ele>3.5</ele>
        <time>2018-07-02T10:19:22Z</time>
      </trkpt>
      <trkpt lat="51.044351980090141" lon="2.375304959714413">
        <ele>3.5</ele>
        <time>2018-07-02T10:19:23Z</time>
      </trkpt>
      <trkpt lat="51.044394979253411" lon="2.375247962772846">
        <ele>3.98</ele>
        <time>2018-07-02T10:19:24Z</time>
      </trkpt>
      <trkpt lat="51.044784989207983" lon="2.374756028875709">
        <ele>2.54</ele>
        <time>2018-07-02T10:19:33Z</time>
      </trkpt>
      <trkpt lat="51.044966960325837" lon="2.374498033896089">
        <ele>2.06</ele>
        <time>2018-07-02T10:19:36Z</time>
      </trkpt>
      <trkpt lat="51.045080032199621" lon="2.374339029192925">
        <ele>2.54</ele>
        <time>2018-07-02T10:19:38Z</time>
      </trkpt>
      <trkpt lat="51.045140968635678" lon="2.374261999502778">
        <ele>3.02</ele>
        <time>2018-07-02T10:19:39Z</time>
      </trkpt>
      <trkpt lat="51.045410027727485" lon="2.37394399009645">
        <ele>4.46</ele>
        <time>2018-07-02T10:19:44Z</time>
      </trkpt>
      <trkpt lat="51.045441962778568" lon="2.373905014246702">
        <ele>4.46</ele>
        <time>2018-07-02T10:19:45Z</time>
      </trkpt>
      <trkpt lat="51.045511029660702" lon="2.373917000368238">
        <ele>4.94</ele>
        <time>2018-07-02T10:19:46Z</time>
      </trkpt>
      <trkpt lat="51.045545982196927" lon="2.37392202951014">
        <ele>4.46</ele>
        <time>2018-07-02T10:19:47Z</time>
      </trkpt>
      <trkpt lat="51.045570960268378" lon="2.373926974833012">
        <ele>4.46</ele>
        <time>2018-07-02T10:19:48Z</time>
      </trkpt>
      <trkpt lat="51.045608008280396" lon="2.3739879950881">
        <ele>4.46</ele>
        <time>2018-07-02T10:19:49Z</time>
      </trkpt>
      <trkpt lat="51.045629968866706" lon="2.374024959281087">
        <ele>4.46</ele>
        <time>2018-07-02T10:19:50Z</time>
      </trkpt>
      <trkpt lat="51.045641032978892" lon="2.37407298758626">
        <ele>4.46</ele>
        <time>2018-07-02T10:19:51Z</time>
      </trkpt>
      <trkpt lat="51.045651007443666" lon="2.374133002012968">
        <ele>4.46</ele>
        <time>2018-07-02T10:19:52Z</time>
      </trkpt>
      <trkpt lat="51.045661987736821" lon="2.37420299090445">
        <ele>4.46</ele>
        <time>2018-07-02T10:19:53Z</time>
      </trkpt>
      <trkpt lat="51.045674979686737" lon="2.374286977574229">
        <ele>4.46</ele>
        <time>2018-07-02T10:19:54Z</time>
      </trkpt>
      <trkpt lat="51.045690989121795" lon="2.374384962022305">
        <ele>4.46</ele>
        <time>2018-07-02T10:19:55Z</time>
      </trkpt>
      <trkpt lat="51.045709010213614" lon="2.374499961733818">
        <ele>4.46</ele>
        <time>2018-07-02T10:19:56Z</time>
      </trkpt>
      <trkpt lat="51.045996006578207" lon="2.375913988798857">
        <ele>5.42</ele>
        <time>2018-07-02T10:20:06Z</time>
      </trkpt>
      <trkpt lat="51.046236986294389" lon="2.376964995637536">
        <ele>6.87</ele>
        <time>2018-07-02T10:20:15Z</time>
      </trkpt>
      <trkpt lat="51.046352991834283" lon="2.377547034993768">
        <ele>6.87</ele>
        <time>2018-07-02T10:20:20Z</time>
      </trkpt>
      <trkpt lat="51.046458017081022" lon="2.378131002187729">
        <ele>7.35</ele>
        <time>2018-07-02T10:20:27Z</time>
      </trkpt>
      <trkpt lat="51.046550972387195" lon="2.378536015748978">
        <ele>7.35</ele>
        <time>2018-07-02T10:20:31Z</time>
      </trkpt>
      <trkpt lat="51.046778038144112" lon="2.379695987328887">
        <ele>6.39</ele>
        <time>2018-07-02T10:20:39Z</time>
      </trkpt>
      <trkpt lat="51.046854984015226" lon="2.380089014768601">
        <ele>5.91</ele>
        <time>2018-07-02T10:20:43Z</time>
      </trkpt>
      <trkpt lat="51.046825982630253" lon="2.380164032801986">
        <ele>5.42</ele>
        <time>2018-07-02T10:20:44Z</time>
      </trkpt>
      <trkpt lat="51.046791030094028" lon="2.380225975066423">
        <ele>5.42</ele>
        <time>2018-07-02T10:20:45Z</time>
      </trkpt>
      <trkpt lat="51.046750964596868" lon="2.380296969786286">
        <ele>5.42</ele>
        <time>2018-07-02T10:20:46Z</time>
      </trkpt>
      <trkpt lat="51.046706037595868" lon="2.380377016961575">
        <ele>5.42</ele>
        <time>2018-07-02T10:20:47Z</time>
      </trkpt>
      <trkpt lat="51.046655997633934" lon="2.380459997802973">
        <ele>5.91</ele>
        <time>2018-07-02T10:20:48Z</time>
      </trkpt>
      <trkpt lat="51.046599000692368" lon="2.380515988916159">
        <ele>5.91</ele>
        <time>2018-07-02T10:20:49Z</time>
      </trkpt>
      <trkpt lat="51.046350980177522" lon="2.380764009431005">
        <ele>6.39</ele>
        <time>2018-07-02T10:20:54Z</time>
      </trkpt>
      <trkpt lat="51.046315021812916" lon="2.38079996779561">
        <ele>6.39</ele>
        <time>2018-07-02T10:20:55Z</time>
      </trkpt>
      <trkpt lat="51.046278979629278" lon="2.380836009979248">
        <ele>6.39</ele>
        <time>2018-07-02T10:20:56Z</time>
      </trkpt>
      <trkpt lat="51.046248972415924" lon="2.38086199387908">
        <ele>5.91</ele>
        <time>2018-07-02T10:20:57Z</time>
      </trkpt>
      <trkpt lat="51.046223994344473" lon="2.38088303245604">
        <ele>5.91</ele>
        <time>2018-07-02T10:20:58Z</time>
      </trkpt>
      <trkpt lat="51.046203039586544" lon="2.380900969728828">
        <ele>5.91</ele>
        <time>2018-07-02T10:20:59Z</time>
      </trkpt>
      <trkpt lat="51.046027019619942" lon="2.380997026339173">
        <ele>5.42</ele>
        <time>2018-07-02T10:21:11Z</time>
      </trkpt>
      <trkpt lat="51.046027019619942" lon="2.380997026339173">
        <ele>5.42</ele>
        <time>2018-07-02T10:21:39Z</time>
      </trkpt>
      <trkpt lat="51.045965999364853" lon="2.381016975268722">
        <ele>5.42</ele>
        <time>2018-07-02T10:22:23Z</time>
      </trkpt>
      <trkpt lat="51.0457459744066" lon="2.381085958331823">
        <ele>4.94</ele>
        <time>2018-07-02T10:22:27Z</time>
      </trkpt>
      <trkpt lat="51.045596022158861" lon="2.381134992465377">
        <ele>4.46</ele>
        <time>2018-07-02T10:22:30Z</time>
      </trkpt>
      <trkpt lat="51.044857995584607" lon="2.381382007151842">
        <ele>3.02</ele>
        <time>2018-07-02T10:22:40Z</time>
      </trkpt>
      <trkpt lat="51.044366983696818" lon="2.381688030436635">
        <ele>3.02</ele>
        <time>2018-07-02T10:22:47Z</time>
      </trkpt>
      <trkpt lat="51.044336976483464" lon="2.381714014336467">
        <ele>3.02</ele>
        <time>2018-07-02T10:22:48Z</time>
      </trkpt>
      <trkpt lat="51.044336976483464" lon="2.381714014336467">
        <ele>3.98</ele>
        <time>2018-07-02T10:22:59Z</time>
      </trkpt>
      <trkpt lat="51.044336976483464" lon="2.381714014336467">
        <ele>3.98</ele>
        <time>2018-07-02T10:23:05Z</time>
      </trkpt>
      <trkpt lat="51.044336976483464" lon="2.381714014336467">
        <ele>3.98</ele>
        <time>2018-07-02T10:23:06Z</time>
      </trkpt>
      <trkpt lat="51.044336976483464" lon="2.381714014336467">
        <ele>4.94</ele>
        <time>2018-07-02T10:23:25Z</time>
      </trkpt>
      <trkpt lat="51.044288026168942" lon="2.381756007671356">
        <ele>5.91</ele>
        <time>2018-07-02T10:23:48Z</time>
      </trkpt>
      <trkpt lat="51.044236980378628" lon="2.381800012663007">
        <ele>6.39</ele>
        <time>2018-07-02T10:23:50Z</time>
      </trkpt>
      <trkpt lat="51.044075964018703" lon="2.381819039583206">
        <ele>6.87</ele>
        <time>2018-07-02T10:23:51Z</time>
      </trkpt>
      <trkpt lat="51.044046962633729" lon="2.381747039034963">
        <ele>6.87</ele>
        <time>2018-07-02T10:23:52Z</time>
      </trkpt>
      <trkpt lat="51.044017039239407" lon="2.381677972152829">
        <ele>7.35</ele>
        <time>2018-07-02T10:23:53Z</time>
      </trkpt>
      <trkpt lat="51.043975967913866" lon="2.381597002968192">
        <ele>7.35</ele>
        <time>2018-07-02T10:23:54Z</time>
      </trkpt>
      <trkpt lat="51.043927017599344" lon="2.381503963842988">
        <ele>7.35</ele>
        <time>2018-07-02T10:23:55Z</time>
      </trkpt>
      <trkpt lat="51.043712021782994" lon="2.381088975816965">
        <ele>7.83</ele>
        <time>2018-07-02T10:23:59Z</time>
      </trkpt>
      <trkpt lat="51.043155966326594" lon="2.380016008391976">
        <ele>8.789999999999999</ele>
        <time>2018-07-02T10:24:09Z</time>
      </trkpt>
      <trkpt lat="51.04305999353528" lon="2.379848035052419">
        <ele>8.789999999999999</ele>
        <time>2018-07-02T10:24:11Z</time>
      </trkpt>
      <trkpt lat="51.043000984936953" lon="2.379690958186984">
        <ele>8.789999999999999</ele>
        <time>2018-07-02T10:24:12Z</time>
      </trkpt>
      <trkpt lat="51.043013976886868" lon="2.379577970132232">
        <ele>8.789999999999999</ele>
        <time>2018-07-02T10:24:13Z</time>
      </trkpt>
      <trkpt lat="51.043042978271842" lon="2.379313018172979">
        <ele>8.789999999999999</ele>
        <time>2018-07-02T10:24:15Z</time>
      </trkpt>
      <trkpt lat="51.043183961883187" lon="2.37800401635468">
        <ele>1.58</ele>
        <time>2018-07-02T10:24:24Z</time>
      </trkpt>
      <trkpt lat="51.043180022388697" lon="2.377893961966038">
        <ele>0.62</ele>
        <time>2018-07-02T10:24:25Z</time>
      </trkpt>
      <trkpt lat="51.043154038488865" lon="2.377782985568047">
        <ele>0.14</ele>
        <time>2018-07-02T10:24:26Z</time>
      </trkpt>
      <trkpt lat="51.043109027668834" lon="2.377692963927984">
        <ele>-0.82</ele>
        <time>2018-07-02T10:24:27Z</time>
      </trkpt>
      <trkpt lat="51.043056976050138" lon="2.377590034157038">
        <ele>-1.3</ele>
        <time>2018-07-02T10:24:28Z</time>
      </trkpt>
      <trkpt lat="51.043004002422094" lon="2.377484003081918">
        <ele>-2.27</ele>
        <time>2018-07-02T10:24:29Z</time>
      </trkpt>
      <trkpt lat="51.04295396246016" lon="2.377383001148701">
        <ele>-2.75</ele>
        <time>2018-07-02T10:24:30Z</time>
      </trkpt>
      <trkpt lat="51.0429070238024" lon="2.377289962023497">
        <ele>-3.23</ele>
        <time>2018-07-02T10:24:31Z</time>
      </trkpt>
      <trkpt lat="51.042863018810749" lon="2.37718996591866">
        <ele>-3.71</ele>
        <time>2018-07-02T10:24:32Z</time>
      </trkpt>
      <trkpt lat="51.04256696999073" lon="2.376523017883301">
        <ele>-4.19</ele>
        <time>2018-07-02T10:24:38Z</time>
      </trkpt>
      <trkpt lat="51.041874038055539" lon="2.375115025788546">
        <ele>1.1</ele>
        <time>2018-07-02T10:24:51Z</time>
      </trkpt>
      <trkpt lat="51.041417978703976" lon="2.374240960925818">
        <ele>3.98</ele>
        <time>2018-07-02T10:25:00Z</time>
      </trkpt>
      <trkpt lat="51.04121002368629" lon="2.37381499260664">
        <ele>3.98</ele>
        <time>2018-07-02T10:25:05Z</time>
      </trkpt>
      <trkpt lat="51.041182028129697" lon="2.373757995665073">
        <ele>3.98</ele>
        <time>2018-07-02T10:25:06Z</time>
      </trkpt>
      <trkpt lat="51.041156966239214" lon="2.373705022037029">
        <ele>3.98</ele>
        <time>2018-07-02T10:25:07Z</time>
      </trkpt>
      <trkpt lat="51.041116984561086" lon="2.373568983748555">
        <ele>3.5</ele>
        <time>2018-07-02T10:25:08Z</time>
      </trkpt>
      <trkpt lat="51.041137017309666" lon="2.373488014563918">
        <ele>3.5</ele>
        <time>2018-07-02T10:25:09Z</time>
      </trkpt>
      <trkpt lat="51.041123019531369" lon="2.373377960175276">
        <ele>3.98</ele>
        <time>2018-07-02T10:25:11Z</time>
      </trkpt>
      <trkpt lat="51.041094018146396" lon="2.373320041224361">
        <ele>3.98</ele>
        <time>2018-07-02T10:25:12Z</time>
      </trkpt>
      <trkpt lat="51.041085971519351" lon="2.373304031789303">
        <ele>3.98</ele>
        <time>2018-07-02T10:25:13Z</time>
      </trkpt>
      <trkpt lat="51.041054958477616" lon="2.373293973505497">
        <ele>3.98</ele>
        <time>2018-07-02T10:25:14Z</time>
      </trkpt>
      <trkpt lat="51.041022017598152" lon="2.373282993212342">
        <ele>3.98</ele>
        <time>2018-07-02T10:25:15Z</time>
      </trkpt>
      <trkpt lat="51.041008019819856" lon="2.373296990990639">
        <ele>3.98</ele>
        <time>2018-07-02T10:25:16Z</time>
      </trkpt>
      <trkpt lat="51.040936019271612" lon="2.373368991538882">
        <ele>4.46</ele>
        <time>2018-07-02T10:25:17Z</time>
      </trkpt>
      <trkpt lat="51.040936019271612" lon="2.373368991538882">
        <ele>4.46</ele>
        <time>2018-07-02T10:25:18Z</time>
      </trkpt>
      <trkpt lat="51.040921015664935" lon="2.373441997915506">
        <ele>4.46</ele>
        <time>2018-07-02T10:25:19Z</time>
      </trkpt>
      <trkpt lat="51.040914980694652" lon="2.373476028442383">
        <ele>4.46</ele>
        <time>2018-07-02T10:25:20Z</time>
      </trkpt>
      <trkpt lat="51.04095496237278" lon="2.373568983748555">
        <ele>4.46</ele>
        <time>2018-07-02T10:25:21Z</time>
      </trkpt>
      <trkpt lat="51.040978012606502" lon="2.373623969033361">
        <ele>4.46</ele>
        <time>2018-07-02T10:25:22Z</time>
      </trkpt>
      <trkpt lat="51.040979018434882" lon="2.373625980690122">
        <ele>4.46</ele>
        <time>2018-07-02T10:25:23Z</time>
      </trkpt>
      <trkpt lat="51.041014976799488" lon="2.37362002953887">
        <ele>4.46</ele>
        <time>2018-07-02T10:25:24Z</time>
      </trkpt>
      <trkpt lat="51.0410609934479" lon="2.373612988740206">
        <ele>4.94</ele>
        <time>2018-07-02T10:25:25Z</time>
      </trkpt>
      <trkpt lat="51.041108015924692" lon="2.373605025932193">
        <ele>4.94</ele>
        <time>2018-07-02T10:25:26Z</time>
      </trkpt>
      <trkpt lat="51.041120002046227" lon="2.373553980141878">
        <ele>4.94</ele>
        <time>2018-07-02T10:25:27Z</time>
      </trkpt>
      <trkpt lat="51.041140034794807" lon="2.373476028442383">
        <ele>4.46</ele>
        <time>2018-07-02T10:25:28Z</time>
      </trkpt>
      <trkpt lat="51.041151015087962" lon="2.373433029279113">
        <ele>4.46</ele>
        <time>2018-07-02T10:25:29Z</time>
      </trkpt>
      <trkpt lat="51.041106004267931" lon="2.373343007639051">
        <ele>4.46</ele>
        <time>2018-07-02T10:25:30Z</time>
      </trkpt>
      <trkpt lat="51.041085971519351" lon="2.373304031789303">
        <ele>4.46</ele>
        <time>2018-07-02T10:25:31Z</time>
      </trkpt>
      <trkpt lat="51.041066022589803" lon="2.373297996819019">
        <ele>3.98</ele>
        <time>2018-07-02T10:25:32Z</time>
      </trkpt>
      <trkpt lat="51.041022017598152" lon="2.373282993212342">
        <ele>3.98</ele>
        <time>2018-07-02T10:25:33Z</time>
      </trkpt>
      <trkpt lat="51.041022017598152" lon="2.373282993212342">
        <ele>3.98</ele>
        <time>2018-07-02T10:25:34Z</time>
      </trkpt>
      <trkpt lat="51.040864018723369" lon="2.373296990990639">
        <ele>3.98</ele>
        <time>2018-07-02T10:25:35Z</time>
      </trkpt>
      <trkpt lat="51.040810961276293" lon="2.373244017362595">
        <ele>3.98</ele>
        <time>2018-07-02T10:25:36Z</time>
      </trkpt>
      <trkpt lat="51.040764022618532" lon="2.373196994885802">
        <ele>3.98</ele>
        <time>2018-07-02T10:25:37Z</time>
      </trkpt>
      <trkpt lat="51.040689004585147" lon="2.373118037357926">
        <ele>3.98</ele>
        <time>2018-07-02T10:25:38Z</time>
      </trkpt>
      <trkpt lat="51.03990102186799" lon="2.372295018285513">
        <ele>4.94</ele>
        <time>2018-07-02T10:25:50Z</time>
      </trkpt>
      <trkpt lat="51.039025029167533" lon="2.37138600088656">
        <ele>4.94</ele>
        <time>2018-07-02T10:26:03Z</time>
      </trkpt>
      <trkpt lat="51.038797963410616" lon="2.37115097232163">
        <ele>4.94</ele>
        <time>2018-07-02T10:26:06Z</time>
      </trkpt>
      <trkpt lat="51.038576010614634" lon="2.370931031182408">
        <ele>4.46</ele>
        <time>2018-07-02T10:26:09Z</time>
      </trkpt>
      <trkpt lat="51.038511972874403" lon="2.370874034240842">
        <ele>3.02</ele>
        <time>2018-07-02T10:26:10Z</time>
      </trkpt>
      <trkpt lat="51.038448018953204" lon="2.370818965137005">
        <ele>2.06</ele>
        <time>2018-07-02T10:26:11Z</time>
      </trkpt>
      <trkpt lat="51.038380963727832" lon="2.370760962367058">
        <ele>1.1</ele>
        <time>2018-07-02T10:26:12Z</time>
      </trkpt>
      <trkpt lat="51.038308041170239" lon="2.370696002617478">
        <ele>-0.34</ele>
        <time>2018-07-02T10:26:13Z</time>
      </trkpt>
      <trkpt lat="51.038155993446708" lon="2.370562981814146">
        <ele>-2.75</ele>
        <time>2018-07-02T10:26:15Z</time>
      </trkpt>
      <trkpt lat="51.038082987070084" lon="2.370507996529341">
        <ele>-4.19</ele>
        <time>2018-07-02T10:26:16Z</time>
      </trkpt>
      <trkpt lat="51.037848964333534" lon="2.370352009311318">
        <ele>-9</ele>
        <time>2018-07-02T10:26:19Z</time>
      </trkpt>
      <trkpt lat="51.0377730242908" lon="2.370301969349384">
        <ele>-10.44</ele>
        <time>2018-07-02T10:26:20Z</time>
      </trkpt>
      <trkpt lat="51.037635980173945" lon="2.370218988507986">
        <ele>-12.359999999999999</ele>
        <time>2018-07-02T10:26:22Z</time>
      </trkpt>
      <trkpt lat="51.037563979625702" lon="2.370187975466251">
        <ele>-13.800000000000001</ele>
        <time>2018-07-02T10:26:23Z</time>
      </trkpt>
      <trkpt lat="51.037242030724883" lon="2.370049003511667">
        <ele>-23.41</ele>
        <time>2018-07-02T10:26:31Z</time>
      </trkpt>
      <trkpt lat="51.037033991888165" lon="2.369958981871605">
        <ele>-26.300000000000001</ele>
        <time>2018-07-02T10:26:38Z</time>
      </trkpt>
      <trkpt lat="51.036879010498524" lon="2.369896033778787">
        <ele>-26.300000000000001</ele>
        <time>2018-07-02T10:26:39Z</time>
      </trkpt>
      <trkpt lat="51.036852020770311" lon="2.369971973821521">
        <ele>-26.780000000000001</ele>
        <time>2018-07-02T10:26:40Z</time>
      </trkpt>
      <trkpt lat="51.036821007728577" lon="2.370059983804822">
        <ele>-26.300000000000001</ele>
        <time>2018-07-02T10:26:41Z</time>
      </trkpt>
      <trkpt lat="51.036788988858461" lon="2.370148999616504">
        <ele>-26.300000000000001</ele>
        <time>2018-07-02T10:26:42Z</time>
      </trkpt>
      <trkpt lat="51.036759987473488" lon="2.370222005993128">
        <ele>-26.300000000000001</ele>
        <time>2018-07-02T10:26:43Z</time>
      </trkpt>
      <trkpt lat="51.036717994138598" lon="2.37031102180481">
        <ele>-26.300000000000001</ele>
        <time>2018-07-02T10:26:44Z</time>
      </trkpt>
      <trkpt lat="51.036674994975328" lon="2.370401965454221">
        <ele>-25.82</ele>
        <time>2018-07-02T10:26:45Z</time>
      </trkpt>
      <trkpt lat="51.036633001640439" lon="2.370490981265903">
        <ele>-25.34</ele>
        <time>2018-07-02T10:26:46Z</time>
      </trkpt>
      <trkpt lat="51.036601988598704" lon="2.370558036491275">
        <ele>-24.379999999999999</ele>
        <time>2018-07-02T10:26:47Z</time>
      </trkpt>
      <trkpt lat="51.036559995263815" lon="2.370611010119319">
        <ele>-23.41</ele>
        <time>2018-07-02T10:26:48Z</time>
      </trkpt>
      <trkpt lat="51.036509033292532" lon="2.370675969868898">
        <ele>-21.969999999999999</ele>
        <time>2018-07-02T10:26:49Z</time>
      </trkpt>
      <trkpt lat="51.036451030522585" lon="2.370750987902284">
        <ele>-20.530000000000001</ele>
        <time>2018-07-02T10:26:50Z</time>
      </trkpt>
      <trkpt lat="51.036412976682186" lon="2.370798010379076">
        <ele>-18.609999999999999</ele>
        <time>2018-07-02T10:26:51Z</time>
      </trkpt>
      <trkpt lat="51.036156993359327" lon="2.371154995635152">
        <ele>-13.32</ele>
        <time>2018-07-02T10:27:00Z</time>
      </trkpt>
      <trkpt lat="51.036123968660831" lon="2.371206041425467">
        <ele>-11.880000000000001</ele>
        <time>2018-07-02T10:27:03Z</time>
      </trkpt>
      <trkpt lat="51.036123968660831" lon="2.371206041425467">
        <ele>-11.4</ele>
        <time>2018-07-02T10:27:04Z</time>
      </trkpt>
      <trkpt lat="51.036123968660831" lon="2.371206041425467">
        <ele>-10.92</ele>
        <time>2018-07-02T10:27:21Z</time>
      </trkpt>
      <trkpt lat="51.035955995321274" lon="2.37147300504148">
        <ele>-12.84</ele>
        <time>2018-07-02T10:27:32Z</time>
      </trkpt>
      <trkpt lat="51.035721972584724" lon="2.371887993067503">
        <ele>-9.960000000000001</ele>
        <time>2018-07-02T10:27:41Z</time>
      </trkpt>
      <trkpt lat="51.035699006170034" lon="2.371944990009069">
        <ele>-8.029999999999999</ele>
        <time>2018-07-02T10:28:08Z</time>
      </trkpt>
      <trkpt lat="51.035699006170034" lon="2.371944990009069">
        <ele>-8.029999999999999</ele>
        <time>2018-07-02T10:28:38Z</time>
      </trkpt>
      <trkpt lat="51.035634968429804" lon="2.372105000540614">
        <ele>-6.11</ele>
        <time>2018-07-02T10:28:47Z</time>
      </trkpt>
      <trkpt lat="51.035612002015114" lon="2.372163003310561">
        <ele>-5.63</ele>
        <time>2018-07-02T10:28:48Z</time>
      </trkpt>
      <trkpt lat="51.035590041428804" lon="2.372216982766986">
        <ele>-5.15</ele>
        <time>2018-07-02T10:28:49Z</time>
      </trkpt>
      <trkpt lat="51.035549975931644" lon="2.372316978871822">
        <ele>-4.19</ele>
        <time>2018-07-02T10:28:50Z</time>
      </trkpt>
      <trkpt lat="51.035549975931644" lon="2.372316978871822">
        <ele>-3.71</ele>
        <time>2018-07-02T10:28:51Z</time>
      </trkpt>
      <trkpt lat="51.035542013123631" lon="2.372362995520234">
        <ele>-2.75</ele>
        <time>2018-07-02T10:28:52Z</time>
      </trkpt>
      <trkpt lat="51.035512005910277" lon="2.372526023536921">
        <ele>-1.3</ele>
        <time>2018-07-02T10:28:55Z</time>
      </trkpt>
      <trkpt lat="51.035441011190414" lon="2.372532980516553">
        <ele>-0.82</ele>
        <time>2018-07-02T10:28:56Z</time>
      </trkpt>
      <trkpt lat="51.035400023683906" lon="2.372519988566637">
        <ele>-0.34</ele>
        <time>2018-07-02T10:28:57Z</time>
      </trkpt>
      <trkpt lat="51.035345960408449" lon="2.372503979131579">
        <ele>0.14</ele>
        <time>2018-07-02T10:28:58Z</time>
      </trkpt>
      <trkpt lat="51.035288041457534" lon="2.372486041858792">
        <ele>0.14</ele>
        <time>2018-07-02T10:28:59Z</time>
      </trkpt>
      <trkpt lat="51.034951005131006" lon="2.372374981641769">
        <ele>1.1</ele>
        <time>2018-07-02T10:29:04Z</time>
      </trkpt>
      <trkpt lat="51.034260001033545" lon="2.372139031067491">
        <ele>1.1</ele>
        <time>2018-07-02T10:29:14Z</time>
      </trkpt>
      <trkpt lat="51.033940985798836" lon="2.372045991942287">
        <ele>0.62</ele>
        <time>2018-07-02T10:29:19Z</time>
      </trkpt>
      <trkpt lat="51.033879965543747" lon="2.372026965022087">
        <ele>0.62</ele>
        <time>2018-07-02T10:29:20Z</time>
      </trkpt>
      <trkpt lat="51.033809976652265" lon="2.372003998607397">
        <ele>0.14</ele>
        <time>2018-07-02T10:29:21Z</time>
      </trkpt>
      <trkpt lat="51.033730013296008" lon="2.371979020535946">
        <ele>0.14</ele>
        <time>2018-07-02T10:29:22Z</time>
      </trkpt>
      <trkpt lat="51.033640997484326" lon="2.371950019150972">
        <ele>-0.34</ele>
        <time>2018-07-02T10:29:23Z</time>
      </trkpt>
      <trkpt lat="51.032846979796886" lon="2.371695041656494">
        <ele>1.1</ele>
        <time>2018-07-02T10:29:32Z</time>
      </trkpt>
      <trkpt lat="51.032739020884037" lon="2.371588004752994">
        <ele>3.02</ele>
        <time>2018-07-02T10:29:40Z</time>
      </trkpt>
      <trkpt lat="51.032739020884037" lon="2.371588004752994">
        <ele>3.02</ele>
        <time>2018-07-02T10:30:03Z</time>
      </trkpt>
      <trkpt lat="51.032648999243975" lon="2.371419025585055">
        <ele>3.5</ele>
        <time>2018-07-02T10:30:11Z</time>
      </trkpt>
      <trkpt lat="51.031664963811636" lon="2.37183895893395">
        <ele>5.42</ele>
        <time>2018-07-02T10:30:23Z</time>
      </trkpt>
      <trkpt lat="51.031379979103804" lon="2.371910037472844">
        <ele>5.91</ele>
        <time>2018-07-02T10:30:27Z</time>
      </trkpt>
      <trkpt lat="51.031023999676108" lon="2.371808029711247">
        <ele>6.39</ele>
        <time>2018-07-02T10:30:33Z</time>
      </trkpt>
      <trkpt lat="51.030967002734542" lon="2.371530001983047">
        <ele>6.87</ele>
        <time>2018-07-02T10:30:36Z</time>
      </trkpt>
      <trkpt lat="51.030901037156582" lon="2.371221967041493">
        <ele>6.87</ele>
        <time>2018-07-02T10:30:38Z</time>
      </trkpt>
      <trkpt lat="51.030893996357918" lon="2.371222972869873">
        <ele>6.87</ele>
        <time>2018-07-02T10:30:39Z</time>
      </trkpt>
      <trkpt lat="51.030785031616688" lon="2.371251974254847">
        <ele>6.87</ele>
        <time>2018-07-02T10:30:40Z</time>
      </trkpt>
      <trkpt lat="51.030712025240064" lon="2.371272007003427">
        <ele>7.35</ele>
        <time>2018-07-02T10:30:41Z</time>
      </trkpt>
      <trkpt lat="51.030638013035059" lon="2.371292039752007">
        <ele>7.35</ele>
        <time>2018-07-02T10:30:42Z</time>
      </trkpt>
      <trkpt lat="51.030416982248425" lon="2.371351970359683">
        <ele>7.83</ele>
        <time>2018-07-02T10:30:45Z</time>
      </trkpt>
      <trkpt lat="51.02956797927618" lon="2.371647013351321">
        <ele>8.789999999999999</ele>
        <time>2018-07-02T10:30:56Z</time>
      </trkpt>
      <trkpt lat="51.029511988162994" lon="2.371668973937631">
        <ele>8.310000000000001</ele>
        <time>2018-07-02T10:30:57Z</time>
      </trkpt>
      <trkpt lat="51.02945901453495" lon="2.371690012514591">
        <ele>7.83</ele>
        <time>2018-07-02T10:30:58Z</time>
      </trkpt>
      <trkpt lat="51.029371004551649" lon="2.371552968397737">
        <ele>7.35</ele>
        <time>2018-07-02T10:30:59Z</time>
      </trkpt>
      <trkpt lat="51.029359018430114" lon="2.371463030576706">
        <ele>6.87</ele>
        <time>2018-07-02T10:31:00Z</time>
      </trkpt>
      <trkpt lat="51.029345020651817" lon="2.371350964531303">
        <ele>6.87</ele>
        <time>2018-07-02T10:31:01Z</time>
      </trkpt>
      <trkpt lat="51.02932901121676" lon="2.371225990355015">
        <ele>6.39</ele>
        <time>2018-07-02T10:31:02Z</time>
      </trkpt>
      <trkpt lat="51.029310990124941" lon="2.371088024228811">
        <ele>5.91</ele>
        <time>2018-07-02T10:31:03Z</time>
      </trkpt>
      <trkpt lat="51.029250975698233" lon="2.370924996212125">
        <ele>5.42</ele>
        <time>2018-07-02T10:31:04Z</time>
      </trkpt>
      <trkpt lat="51.029048971831799" lon="2.369807017967105">
        <ele>4.46</ele>
        <time>2018-07-02T10:31:13Z</time>
      </trkpt>
      <trkpt lat="51.029048971831799" lon="2.369807017967105">
        <ele>3.98</ele>
        <time>2018-07-02T10:31:14Z</time>
      </trkpt>
      <trkpt lat="51.028617974370718" lon="2.368823988363147">
        <ele>3.5</ele>
        <time>2018-07-02T10:31:17Z</time>
      </trkpt>
      <trkpt lat="51.028314968571067" lon="2.367551028728485">
        <ele>4.94</ele>
        <time>2018-07-02T10:31:24Z</time>
      </trkpt>
      <trkpt lat="51.02808597497642" lon="2.365332003682852">
        <ele>7.35</ele>
        <time>2018-07-02T10:31:35Z</time>
      </trkpt>
      <trkpt lat="51.027832003310323" lon="2.363815968856216">
        <ele>5.91</ele>
        <time>2018-07-02T10:31:43Z</time>
      </trkpt>
      <trkpt lat="51.027578031644225" lon="2.361829038709402">
        <ele>2.06</ele>
        <time>2018-07-02T10:31:53Z</time>
      </trkpt>
      <trkpt lat="51.02711602114141" lon="2.359834983944893">
        <ele>1.1</ele>
        <time>2018-07-02T10:32:03Z</time>
      </trkpt>
      <trkpt lat="51.026879986748099" lon="2.358740977942944">
        <ele>2.54</ele>
        <time>2018-07-02T10:32:10Z</time>
      </trkpt>
      <trkpt lat="51.026754006743431" lon="2.358188023790717">
        <ele>2.06</ele>
        <time>2018-07-02T10:32:13Z</time>
      </trkpt>
      <trkpt lat="51.026710001751781" lon="2.357994988560677">
        <ele>2.54</ele>
        <time>2018-07-02T10:32:14Z</time>
      </trkpt>
      <trkpt lat="51.02666599676013" lon="2.357797008007765">
        <ele>3.02</ele>
        <time>2018-07-02T10:32:15Z</time>
      </trkpt>
      <trkpt lat="51.026619980111718" lon="2.357596009969711">
        <ele>3.5</ele>
        <time>2018-07-02T10:32:16Z</time>
      </trkpt>
      <trkpt lat="51.026573041453958" lon="2.357389982789755">
        <ele>3.98</ele>
        <time>2018-07-02T10:32:17Z</time>
      </trkpt>
      <trkpt lat="51.026061996817589" lon="2.355140028521419">
        <ele>4.94</ele>
        <time>2018-07-02T10:32:28Z</time>
      </trkpt>
      <trkpt lat="51.025610966607928" lon="2.353154020383954">
        <ele>3.98</ele>
        <time>2018-07-02T10:32:40Z</time>
      </trkpt>
      <trkpt lat="51.025413991883397" lon="2.352299988269806">
        <ele>2.54</ele>
        <time>2018-07-02T10:32:45Z</time>
      </trkpt>
      <trkpt lat="51.025380967184901" lon="2.352146012708545">
        <ele>2.06</ele>
        <time>2018-07-02T10:32:46Z</time>
      </trkpt>
      <trkpt lat="51.024957010522485" lon="2.350176014006138">
        <ele>2.06</ele>
        <time>2018-07-02T10:32:58Z</time>
      </trkpt>
      <trkpt lat="51.024398021399975" lon="2.347758002579212">
        <ele>-1.3</ele>
        <time>2018-07-02T10:33:11Z</time>
      </trkpt>
      <trkpt lat="51.024277992546558" lon="2.347231032326818">
        <ele>-2.27</ele>
        <time>2018-07-02T10:33:14Z</time>
      </trkpt>
      <trkpt lat="51.024242034181952" lon="2.347061969339848">
        <ele>-2.75</ele>
        <time>2018-07-02T10:33:15Z</time>
      </trkpt>
      <trkpt lat="51.024200040847063" lon="2.346891984343529">
        <ele>-2.75</ele>
        <time>2018-07-02T10:33:16Z</time>
      </trkpt>
      <trkpt lat="51.024122005328536" lon="2.346552014350891">
        <ele>-2.75</ele>
        <time>2018-07-02T10:33:18Z</time>
      </trkpt>
      <trkpt lat="51.024084035307169" lon="2.346377000212669">
        <ele>-2.75</ele>
        <time>2018-07-02T10:33:19Z</time>
      </trkpt>
      <trkpt lat="51.023482969030738" lon="2.343655982986093">
        <ele>-0.82</ele>
        <time>2018-07-02T10:33:34Z</time>
      </trkpt>
      <trkpt lat="51.022887015715241" lon="2.340979976579547">
        <ele>-0.82</ele>
        <time>2018-07-02T10:33:49Z</time>
      </trkpt>
      <trkpt lat="51.022324003279209" lon="2.338483007624745">
        <ele>-0.82</ele>
        <time>2018-07-02T10:34:03Z</time>
      </trkpt>
      <trkpt lat="51.02213398553431" lon="2.337582958862186">
        <ele>-0.82</ele>
        <time>2018-07-02T10:34:08Z</time>
      </trkpt>
      <trkpt lat="51.022097021341324" lon="2.337404005229473">
        <ele>-0.82</ele>
        <time>2018-07-02T10:34:09Z</time>
      </trkpt>
      <trkpt lat="51.02196198888123" lon="2.33647596091032">
        <ele>0.14</ele>
        <time>2018-07-02T10:34:14Z</time>
      </trkpt>
      <trkpt lat="51.022020997479558" lon="2.334774015471339">
        <ele>0.62</ele>
        <time>2018-07-02T10:34:23Z</time>
      </trkpt>
      <trkpt lat="51.02204798720777" lon="2.33458399772644">
        <ele>0.62</ele>
        <time>2018-07-02T10:34:24Z</time>
      </trkpt>
      <trkpt lat="51.022137003019452" lon="2.334439996629953">
        <ele>0.62</ele>
        <time>2018-07-02T10:34:25Z</time>
      </trkpt>
      <trkpt lat="51.023007966578007" lon="2.332882974296808">
        <ele>4.46</ele>
        <time>2018-07-02T10:34:37Z</time>
      </trkpt>
      <trkpt lat="51.0229910351336" lon="2.33232700265944">
        <ele>6.39</ele>
        <time>2018-07-02T10:34:44Z</time>
      </trkpt>
      <trkpt lat="51.023148028180003" lon="2.332273023203015">
        <ele>6.87</ele>
        <time>2018-07-02T10:35:21Z</time>
      </trkpt>
      <trkpt lat="51.023148028180003" lon="2.332105971872807">
        <ele>7.35</ele>
        <time>2018-07-02T10:35:23Z</time>
      </trkpt>
      <trkpt lat="51.023212987929583" lon="2.330426992848516">
        <ele>5.42</ele>
        <time>2018-07-02T10:35:33Z</time>
      </trkpt>
      <trkpt lat="51.023461008444428" lon="2.328494964167476">
        <ele>3.02</ele>
        <time>2018-07-02T10:35:44Z</time>
      </trkpt>
      <trkpt lat="51.023454973474145" lon="2.327945027500391">
        <ele>5.91</ele>
        <time>2018-07-02T10:35:51Z</time>
      </trkpt>
      <trkpt lat="51.023452039808035" lon="2.327867997810245">
        <ele>6.39</ele>
        <time>2018-07-02T10:36:04Z</time>
      </trkpt>
      <trkpt lat="51.023449022322893" lon="2.327763978391886">
        <ele>6.87</ele>
        <time>2018-07-02T10:36:05Z</time>
      </trkpt>
      <trkpt lat="51.023438964039087" lon="2.327658031135798">
        <ele>6.87</ele>
        <time>2018-07-02T10:36:06Z</time>
      </trkpt>
      <trkpt lat="51.023426977917552" lon="2.327534984797239">
        <ele>6.87</ele>
        <time>2018-07-02T10:36:07Z</time>
      </trkpt>
      <trkpt lat="51.02318499237299" lon="2.326179966330528">
        <ele>5.91</ele>
        <time>2018-07-02T10:36:15Z</time>
      </trkpt>
      <trkpt lat="51.023003021255136" lon="2.325436994433403">
        <ele>7.35</ele>
        <time>2018-07-02T10:36:19Z</time>
      </trkpt>
      <trkpt lat="51.022881986573339" lon="2.324606012552977">
        <ele>11.67</ele>
        <time>2018-07-02T10:36:25Z</time>
      </trkpt>
      <trkpt lat="51.022845022380352" lon="2.324434015899897">
        <ele>13.6</ele>
        <time>2018-07-02T10:36:33Z</time>
      </trkpt>
      <trkpt lat="51.022831024602056" lon="2.324370983988047">
        <ele>14.56</ele>
        <time>2018-07-02T10:36:45Z</time>
      </trkpt>
      <trkpt lat="51.022709989920259" lon="2.323592975735664">
        <ele>15.039999999999999</ele>
        <time>2018-07-02T10:36:51Z</time>
      </trkpt>
      <trkpt lat="51.022623991593719" lon="2.321870997548103">
        <ele>11.67</ele>
        <time>2018-07-02T10:37:00Z</time>
      </trkpt>
      <trkpt lat="51.02288500405848" lon="2.319964030757546">
        <ele>12.630000000000001</ele>
        <time>2018-07-02T10:37:09Z</time>
      </trkpt>
      <trkpt lat="51.02299396879971" lon="2.319460026919842">
        <ele>11.67</ele>
        <time>2018-07-02T10:37:12Z</time>
      </trkpt>
      <trkpt lat="51.023054989054799" lon="2.319363970309496">
        <ele>11.19</ele>
        <time>2018-07-02T10:37:13Z</time>
      </trkpt>
      <trkpt lat="51.023117015138268" lon="2.319274032488465">
        <ele>10.710000000000001</ele>
        <time>2018-07-02T10:37:14Z</time>
      </trkpt>
      <trkpt lat="51.023179041221738" lon="2.319187028333545">
        <ele>10.710000000000001</ele>
        <time>2018-07-02T10:37:15Z</time>
      </trkpt>
      <trkpt lat="51.023247018456459" lon="2.319088960066438">
        <ele>10.23</ele>
        <time>2018-07-02T10:37:16Z</time>
      </trkpt>
      <trkpt lat="51.023477017879486" lon="2.318780003115535">
        <ele>8.789999999999999</ele>
        <time>2018-07-02T10:37:19Z</time>
      </trkpt>
      <trkpt lat="51.023522028699517" lon="2.318673972040415">
        <ele>8.310000000000001</ele>
        <time>2018-07-02T10:37:20Z</time>
      </trkpt>
      <trkpt lat="51.023567961528897" lon="2.318546986207366">
        <ele>8.310000000000001</ele>
        <time>2018-07-02T10:37:21Z</time>
      </trkpt>
      <trkpt lat="51.023577013984323" lon="2.31842402368784">
        <ele>7.83</ele>
        <time>2018-07-02T10:37:22Z</time>
      </trkpt>
      <trkpt lat="51.023577013984323" lon="2.318265018984675">
        <ele>7.35</ele>
        <time>2018-07-02T10:37:23Z</time>
      </trkpt>
      <trkpt lat="51.02355002425611" lon="2.318133004009724">
        <ele>7.35</ele>
        <time>2018-07-02T10:37:24Z</time>
      </trkpt>
      <trkpt lat="51.023559998720884" lon="2.317798985168338">
        <ele>6.87</ele>
        <time>2018-07-02T10:37:26Z</time>
      </trkpt>
      <trkpt lat="51.023575002327561" lon="2.317659007385373">
        <ele>6.39</ele>
        <time>2018-07-02T10:37:27Z</time>
      </trkpt>
      <trkpt lat="51.023597968742251" lon="2.317516012117267">
        <ele>6.39</ele>
        <time>2018-07-02T10:37:28Z</time>
      </trkpt>
      <trkpt lat="51.023659994825721" lon="2.317143017426133">
        <ele>6.39</ele>
        <time>2018-07-02T10:37:31Z</time>
      </trkpt>
      <trkpt lat="51.023677010089159" lon="2.317042015492916">
        <ele>6.39</ele>
        <time>2018-07-02T10:37:32Z</time>
      </trkpt>
      <trkpt lat="51.02370098233223" lon="2.316676983609796">
        <ele>6.39</ele>
        <time>2018-07-02T10:37:35Z</time>
      </trkpt>
      <trkpt lat="51.023683967068791" lon="2.315254993736744">
        <ele>8.310000000000001</ele>
        <time>2018-07-02T10:37:42Z</time>
      </trkpt>
      <trkpt lat="51.023594029247761" lon="2.313080979511142">
        <ele>7.83</ele>
        <time>2018-07-02T10:37:52Z</time>
      </trkpt>
      <trkpt lat="51.023534014821053" lon="2.311570979654789">
        <ele>8.310000000000001</ele>
        <time>2018-07-02T10:38:01Z</time>
      </trkpt>
      <trkpt lat="51.023401999846101" lon="2.309525040909648">
        <ele>5.42</ele>
        <time>2018-07-02T10:38:10Z</time>
      </trkpt>
      <trkpt lat="51.023015007376671" lon="2.306809974834323">
        <ele>3.98</ele>
        <time>2018-07-02T10:38:20Z</time>
      </trkpt>
      <trkpt lat="51.022119987756014" lon="2.303759967908263">
        <ele>2.06</ele>
        <time>2018-07-02T10:38:32Z</time>
      </trkpt>
      <trkpt lat="51.020766980946064" lon="2.299572033807635">
        <ele>2.06</ele>
        <time>2018-07-02T10:38:49Z</time>
      </trkpt>
      <trkpt lat="51.020467998459935" lon="2.298622028902173">
        <ele>2.54</ele>
        <time>2018-07-02T10:38:55Z</time>
      </trkpt>
      <trkpt lat="51.020356016233563" lon="2.298312988132238">
        <ele>3.5</ele>
        <time>2018-07-02T10:39:01Z</time>
      </trkpt>
      <trkpt lat="51.020257025957108" lon="2.298040995374322">
        <ele>3.98</ele>
        <time>2018-07-02T10:39:14Z</time>
      </trkpt>
      <trkpt lat="51.019863998517394" lon="2.296916982159019">
        <ele>4.46</ele>
        <time>2018-07-02T10:39:23Z</time>
      </trkpt>
      <trkpt lat="51.019291011616588" lon="2.295167008414865">
        <ele>3.98</ele>
        <time>2018-07-02T10:39:31Z</time>
      </trkpt>
      <trkpt lat="51.018592966720462" lon="2.293018978089094">
        <ele>4.94</ele>
        <time>2018-07-02T10:39:41Z</time>
      </trkpt>
      <trkpt lat="51.017767013981938" lon="2.29047398082912">
        <ele>5.42</ele>
        <time>2018-07-02T10:39:53Z</time>
      </trkpt>
      <trkpt lat="51.017026975750923" lon="2.288252022117376">
        <ele>4.94</ele>
        <time>2018-07-02T10:40:04Z</time>
      </trkpt>
      <trkpt lat="51.0157710313797" lon="2.285262029618025">
        <ele>4.46</ele>
        <time>2018-07-02T10:40:18Z</time>
      </trkpt>
      <trkpt lat="51.014648023992777" lon="2.284047994762659">
        <ele>4.94</ele>
        <time>2018-07-02T10:40:26Z</time>
      </trkpt>
      <trkpt lat="51.013308009132743" lon="2.283571986481547">
        <ele>4.46</ele>
        <time>2018-07-02T10:40:35Z</time>
      </trkpt>
      <trkpt lat="51.012139990925789" lon="2.283375011757016">
        <ele>4.94</ele>
        <time>2018-07-02T10:40:44Z</time>
      </trkpt>
      <trkpt lat="51.01126198656857" lon="2.283236039802432">
        <ele>3.98</ele>
        <time>2018-07-02T10:40:52Z</time>
      </trkpt>
      <trkpt lat="51.010248027741909" lon="2.283179964870215">
        <ele>3.98</ele>
        <time>2018-07-02T10:41:01Z</time>
      </trkpt>
      <trkpt lat="51.010044012218714" lon="2.283166972920299">
        <ele>4.46</ele>
        <time>2018-07-02T10:41:05Z</time>
      </trkpt>
      <trkpt lat="51.010004030540586" lon="2.283164039254189">
        <ele>3.98</ele>
        <time>2018-07-02T10:41:06Z</time>
      </trkpt>
      <trkpt lat="51.009789034724236" lon="2.283139983192086">
        <ele>4.46</ele>
        <time>2018-07-02T10:41:15Z</time>
      </trkpt>
      <trkpt lat="51.009737988933921" lon="2.283133026212454">
        <ele>4.46</ele>
        <time>2018-07-02T10:41:17Z</time>
      </trkpt>
      <trkpt lat="51.009695995599031" lon="2.28312699124217">
        <ele>4.46</ele>
        <time>2018-07-02T10:41:18Z</time>
      </trkpt>
      <trkpt lat="51.009223004803061" lon="2.283064965158701">
        <ele>3.98</ele>
        <time>2018-07-02T10:41:24Z</time>
      </trkpt>
      <trkpt lat="51.009110016748309" lon="2.283026995137334">
        <ele>3.98</ele>
        <time>2018-07-02T10:41:25Z</time>
      </trkpt>
      <trkpt lat="51.009030975401402" lon="2.282948959618807">
        <ele>3.98</ele>
        <time>2018-07-02T10:41:26Z</time>
      </trkpt>
      <trkpt lat="51.008972972631454" lon="2.282771011814475">
        <ele>3.5</ele>
        <time>2018-07-02T10:41:27Z</time>
      </trkpt>
      <trkpt lat="51.00889996625483" lon="2.282537994906306">
        <ele>3.5</ele>
        <time>2018-07-02T10:41:28Z</time>
      </trkpt>
      <trkpt lat="51.008493024855852" lon="2.281799968332052">
        <ele>3.98</ele>
        <time>2018-07-02T10:41:34Z</time>
      </trkpt>
      <trkpt lat="51.008432004600763" lon="2.281640041619539">
        <ele>3.98</ele>
        <time>2018-07-02T10:41:35Z</time>
      </trkpt>
      <trkpt lat="51.007988015189767" lon="2.279798034578562">
        <ele>3.98</ele>
        <time>2018-07-02T10:41:45Z</time>
      </trkpt>
      <trkpt lat="51.007555006071925" lon="2.277845973148942">
        <ele>3.98</ele>
        <time>2018-07-02T10:41:57Z</time>
      </trkpt>
      <trkpt lat="51.007077991962433" lon="2.275714036077261">
        <ele>4.94</ele>
        <time>2018-07-02T10:42:07Z</time>
      </trkpt>
      <trkpt lat="51.006261007860303" lon="2.272023987025023">
        <ele>4.46</ele>
        <time>2018-07-02T10:42:21Z</time>
      </trkpt>
      <trkpt lat="51.005190974101424" lon="2.267944011837244">
        <ele>8.310000000000001</ele>
        <time>2018-07-02T10:42:37Z</time>
      </trkpt>
      <trkpt lat="51.004294026643038" lon="2.263740990310907">
        <ele>11.67</ele>
        <time>2018-07-02T10:42:53Z</time>
      </trkpt>
      <trkpt lat="51.003696983680129" lon="2.259971983730793">
        <ele>8.789999999999999</ele>
        <time>2018-07-02T10:43:07Z</time>
      </trkpt>
      <trkpt lat="51.003186022862792" lon="2.255888991057873">
        <ele>10.23</ele>
        <time>2018-07-02T10:43:22Z</time>
      </trkpt>
      <trkpt lat="51.002676989883184" lon="2.252370016649365">
        <ele>8.789999999999999</ele>
        <time>2018-07-02T10:43:35Z</time>
      </trkpt>
      <trkpt lat="51.00232302211225" lon="2.250516023486853">
        <ele>5.91</ele>
        <time>2018-07-02T10:43:43Z</time>
      </trkpt>
      <trkpt lat="51.00215395912528" lon="2.249729968607426">
        <ele>4.46</ele>
        <time>2018-07-02T10:43:49Z</time>
      </trkpt>
      <trkpt lat="51.001880038529634" lon="2.2488350328058">
        <ele>3.98</ele>
        <time>2018-07-02T10:43:56Z</time>
      </trkpt>
      <trkpt lat="51.001360025256872" lon="2.247496023774147">
        <ele>3.5</ele>
        <time>2018-07-02T10:44:04Z</time>
      </trkpt>
      <trkpt lat="51.000706991180778" lon="2.245341036468744">
        <ele>3.98</ele>
        <time>2018-07-02T10:44:13Z</time>
      </trkpt>
      <trkpt lat="50.999974999576807" lon="2.241909988224506">
        <ele>4.46</ele>
        <time>2018-07-02T10:44:26Z</time>
      </trkpt>
      <trkpt lat="50.999488011002541" lon="2.238654959946871">
        <ele>5.42</ele>
        <time>2018-07-02T10:44:38Z</time>
      </trkpt>
      <trkpt lat="50.999450040981174" lon="2.236249018460512">
        <ele>5.42</ele>
        <time>2018-07-02T10:44:47Z</time>
      </trkpt>
      <trkpt lat="50.999649027362466" lon="2.233144026249647">
        <ele>4.46</ele>
        <time>2018-07-02T10:44:59Z</time>
      </trkpt>
      <trkpt lat="51.000337013974786" lon="2.229308970272541">
        <ele>4.46</ele>
        <time>2018-07-02T10:45:13Z</time>
      </trkpt>
      <trkpt lat="51.000556033104658" lon="2.226621983572841">
        <ele>3.98</ele>
        <time>2018-07-02T10:45:22Z</time>
      </trkpt>
      <trkpt lat="51.000600038096309" lon="2.223541969433427">
        <ele>5.91</ele>
        <time>2018-07-02T10:45:32Z</time>
      </trkpt>
      <trkpt lat="51.000740015879273" lon="2.220882978290319">
        <ele>10.23</ele>
        <time>2018-07-02T10:45:41Z</time>
      </trkpt>
      <trkpt lat="51.00075501948595" lon="2.217908995226026">
        <ele>7.35</ele>
        <time>2018-07-02T10:45:51Z</time>
      </trkpt>
      <trkpt lat="51.000344976782799" lon="2.215360980480909">
        <ele>6.39</ele>
        <time>2018-07-02T10:46:00Z</time>
      </trkpt>
      <trkpt lat="50.999493040144444" lon="2.212451035156846">
        <ele>5.42</ele>
        <time>2018-07-02T10:46:11Z</time>
      </trkpt>
      <trkpt lat="50.998634984716773" lon="2.209515022113919">
        <ele>4.94</ele>
        <time>2018-07-02T10:46:22Z</time>
      </trkpt>
      <trkpt lat="50.997600993141532" lon="2.205931004136801">
        <ele>4.46</ele>
        <time>2018-07-02T10:46:36Z</time>
      </trkpt>
      <trkpt lat="50.996561972424388" lon="2.202831963077188">
        <ele>4.94</ele>
        <time>2018-07-02T10:46:49Z</time>
      </trkpt>
      <trkpt lat="50.995982028543949" lon="2.201922023668885">
        <ele>5.91</ele>
        <time>2018-07-02T10:46:56Z</time>
      </trkpt>
      <trkpt lat="50.995849007740617" lon="2.201550034806132">
        <ele>5.42</ele>
        <time>2018-07-02T10:46:59Z</time>
      </trkpt>
      <trkpt lat="50.99581497721374" lon="2.201452972367406">
        <ele>5.42</ele>
        <time>2018-07-02T10:47:00Z</time>
      </trkpt>
      <trkpt lat="50.99576803855598" lon="2.201321041211486">
        <ele>4.94</ele>
        <time>2018-07-02T10:47:01Z</time>
      </trkpt>
      <trkpt lat="50.99576803855598" lon="2.20128801651299">
        <ele>4.94</ele>
        <time>2018-07-02T10:47:02Z</time>
      </trkpt>
      <trkpt lat="50.99576803855598" lon="2.201177040114999">
        <ele>4.94</ele>
        <time>2018-07-02T10:47:03Z</time>
      </trkpt>
      <trkpt lat="50.99576803855598" lon="2.201020969077945">
        <ele>4.46</ele>
        <time>2018-07-02T10:47:04Z</time>
      </trkpt>
      <trkpt lat="50.995750017464161" lon="2.200914015993476">
        <ele>4.46</ele>
        <time>2018-07-02T10:47:05Z</time>
      </trkpt>
      <trkpt lat="50.995702994987369" lon="2.200785018503666">
        <ele>3.98</ele>
        <time>2018-07-02T10:47:06Z</time>
      </trkpt>
      <trkpt lat="50.995638035237789" lon="2.20066498965025">
        <ele>3.98</ele>
        <time>2018-07-02T10:47:07Z</time>
      </trkpt>
      <trkpt lat="50.99557600915432" lon="2.200552001595497">
        <ele>3.98</ele>
        <time>2018-07-02T10:47:08Z</time>
      </trkpt>
      <trkpt lat="50.995485987514257" lon="2.200489975512028">
        <ele>3.98</ele>
        <time>2018-07-02T10:47:09Z</time>
      </trkpt>
      <trkpt lat="50.995397977530956" lon="2.2004309669137">
        <ele>3.98</ele>
        <time>2018-07-02T10:47:10Z</time>
      </trkpt>
      <trkpt lat="50.995320025831461" lon="2.200297024101019">
        <ele>3.98</ele>
        <time>2018-07-02T10:47:11Z</time>
      </trkpt>
      <trkpt lat="50.99527602083981" lon="2.200164003297687">
        <ele>3.98</ele>
        <time>2018-07-02T10:47:12Z</time>
      </trkpt>
      <trkpt lat="50.995246013626456" lon="2.200039029121399">
        <ele>3.98</ele>
        <time>2018-07-02T10:47:13Z</time>
      </trkpt>
      <trkpt lat="50.995216006413102" lon="2.19991497695446">
        <ele>3.98</ele>
        <time>2018-07-02T10:47:14Z</time>
      </trkpt>
      <trkpt lat="50.995187005028129" lon="2.199774999171495">
        <ele>4.46</ele>
        <time>2018-07-02T10:47:15Z</time>
      </trkpt>
      <trkpt lat="50.99519002251327" lon="2.198502961546183">
        <ele>4.46</ele>
        <time>2018-07-02T10:47:22Z</time>
      </trkpt>
      <trkpt lat="50.995551031082869" lon="2.196988016366959">
        <ele>3.5</ele>
        <time>2018-07-02T10:47:29Z</time>
      </trkpt>
      <trkpt lat="50.995596963912249" lon="2.196741001680493">
        <ele>3.5</ele>
        <time>2018-07-02T10:47:30Z</time>
      </trkpt>
      <trkpt lat="50.995639963075519" lon="2.196491975337267">
        <ele>3.5</ele>
        <time>2018-07-02T10:47:31Z</time>
      </trkpt>
      <trkpt lat="50.995656978338957" lon="2.196228029206395">
        <ele>3.5</ele>
        <time>2018-07-02T10:47:32Z</time>
      </trkpt>
      <trkpt lat="50.995698971673846" lon="2.193180033937097">
        <ele>4.46</ele>
        <time>2018-07-02T10:47:43Z</time>
      </trkpt>
      <trkpt lat="50.995734008029103" lon="2.18981503508985">
        <ele>5.42</ele>
        <time>2018-07-02T10:47:55Z</time>
      </trkpt>
      <trkpt lat="50.995786981657147" lon="2.185354018583894">
        <ele>4.46</ele>
        <time>2018-07-02T10:48:11Z</time>
      </trkpt>
      <trkpt lat="50.995826963335276" lon="2.181739993393421">
        <ele>4.46</ele>
        <time>2018-07-02T10:48:23Z</time>
      </trkpt>
      <trkpt lat="50.995883038267493" lon="2.176449000835419">
        <ele>4.46</ele>
        <time>2018-07-02T10:48:40Z</time>
      </trkpt>
      <trkpt lat="50.995941963046789" lon="2.17054302804172">
        <ele>3.98</ele>
        <time>2018-07-02T10:48:59Z</time>
      </trkpt>
      <trkpt lat="50.996009018272161" lon="2.164960009977222">
        <ele>10.23</ele>
        <time>2018-07-02T10:49:17Z</time>
      </trkpt>
      <trkpt lat="50.996046988293529" lon="2.161882007494569">
        <ele>4.46</ele>
        <time>2018-07-02T10:49:28Z</time>
      </trkpt>
      <trkpt lat="50.996081018820405" lon="2.158546010032296">
        <ele>5.42</ele>
        <time>2018-07-02T10:49:42Z</time>
      </trkpt>
      <trkpt lat="50.996141033247113" lon="2.156979013234377">
        <ele>5.42</ele>
        <time>2018-07-02T10:49:51Z</time>
      </trkpt>
      <trkpt lat="50.996175985783339" lon="2.155315037816763">
        <ele>5.42</ele>
        <time>2018-07-02T10:50:00Z</time>
      </trkpt>
      <trkpt lat="50.996185960248113" lon="2.15468698181212">
        <ele>5.91</ele>
        <time>2018-07-02T10:50:06Z</time>
      </trkpt>
      <trkpt lat="50.996189983561635" lon="2.154481960460544">
        <ele>6.39</ele>
        <time>2018-07-02T10:50:15Z</time>
      </trkpt>
      <trkpt lat="50.996189983561635" lon="2.154481960460544">
        <ele>6.39</ele>
        <time>2018-07-02T10:51:01Z</time>
      </trkpt>
      <trkpt lat="50.996197024360299" lon="2.154035959392786">
        <ele>6.87</ele>
        <time>2018-07-02T10:51:17Z</time>
      </trkpt>
      <trkpt lat="50.996197024360299" lon="2.153857005760074">
        <ele>6.39</ele>
        <time>2018-07-02T10:51:19Z</time>
      </trkpt>
      <trkpt lat="50.996197024360299" lon="2.153771007433534">
        <ele>5.91</ele>
        <time>2018-07-02T10:51:20Z</time>
      </trkpt>
      <trkpt lat="50.996100967749953" lon="2.153583001345396">
        <ele>4.94</ele>
        <time>2018-07-02T10:51:21Z</time>
      </trkpt>
      <trkpt lat="50.996068026870489" lon="2.153577972203493">
        <ele>4.46</ele>
        <time>2018-07-02T10:51:22Z</time>
      </trkpt>
      <trkpt lat="50.995958978310227" lon="2.153614014387131">
        <ele>3.98</ele>
        <time>2018-07-02T10:51:23Z</time>
      </trkpt>
      <trkpt lat="50.995871974155307" lon="2.153643015772104">
        <ele>3.02</ele>
        <time>2018-07-02T10:51:24Z</time>
      </trkpt>
      <trkpt lat="50.995779018849134" lon="2.153674028813839">
        <ele>2.54</ele>
        <time>2018-07-02T10:51:25Z</time>
      </trkpt>
      <trkpt lat="50.995673993602395" lon="2.153708981350064">
        <ele>2.06</ele>
        <time>2018-07-02T10:51:26Z</time>
      </trkpt>
      <trkpt lat="50.995564023032784" lon="2.153746029362083">
        <ele>1.1</ele>
        <time>2018-07-02T10:51:27Z</time>
      </trkpt>
      <trkpt lat="50.994368009269238" lon="2.153916014358401">
        <ele>-2.27</ele>
        <time>2018-07-02T10:51:36Z</time>
      </trkpt>
      <trkpt lat="50.992479985579848" lon="2.15408599935472">
        <ele>0.14</ele>
        <time>2018-07-02T10:51:47Z</time>
      </trkpt>
      <trkpt lat="50.990322986617684" lon="2.154285991564393">
        <ele>0.14</ele>
        <time>2018-07-02T10:52:00Z</time>
      </trkpt>
      <trkpt lat="50.988865960389376" lon="2.153982985764742">
        <ele>0.14</ele>
        <time>2018-07-02T10:52:09Z</time>
      </trkpt>
      <trkpt lat="50.987616972997785" lon="2.153078997507691">
        <ele>0.62</ele>
        <time>2018-07-02T10:52:17Z</time>
      </trkpt>
      <trkpt lat="50.986143015325069" lon="2.151194997131825">
        <ele>2.06</ele>
        <time>2018-07-02T10:52:28Z</time>
      </trkpt>
      <trkpt lat="50.983614027500153" lon="2.147915996611118">
        <ele>2.06</ele>
        <time>2018-07-02T10:52:47Z</time>
      </trkpt>
      <trkpt lat="50.982426982372999" lon="2.146298037841916">
        <ele>-1.3</ele>
        <time>2018-07-02T10:52:57Z</time>
      </trkpt>
      <trkpt lat="50.982348024845123" lon="2.146184965968132">
        <ele>-1.3</ele>
        <time>2018-07-02T10:52:58Z</time>
      </trkpt>
      <trkpt lat="50.982152977958322" lon="2.145904004573822">
        <ele>-1.79</ele>
        <time>2018-07-02T10:53:03Z</time>
      </trkpt>
      <trkpt lat="50.982045019045472" lon="2.1457480173558">
        <ele>-1.79</ele>
        <time>2018-07-02T10:53:06Z</time>
      </trkpt>
      <trkpt lat="50.982006965205073" lon="2.145632011815906">
        <ele>-1.79</ele>
        <time>2018-07-02T10:53:07Z</time>
      </trkpt>
      <trkpt lat="50.981991961598396" lon="2.145466972142458">
        <ele>-2.27</ele>
        <time>2018-07-02T10:53:08Z</time>
      </trkpt>
      <trkpt lat="50.981948962435126" lon="2.145423972979188">
        <ele>-2.27</ele>
        <time>2018-07-02T10:53:09Z</time>
      </trkpt>
      <trkpt lat="50.981888025999069" lon="2.145363036543131">
        <ele>-2.75</ele>
        <time>2018-07-02T10:53:10Z</time>
      </trkpt>
      <trkpt lat="50.981813007965684" lon="2.14532095938921">
        <ele>-2.27</ele>
        <time>2018-07-02T10:53:11Z</time>
      </trkpt>
      <trkpt lat="50.981743019074202" lon="2.145331017673016">
        <ele>-2.27</ele>
        <time>2018-07-02T10:53:12Z</time>
      </trkpt>
      <trkpt lat="50.981690967455506" lon="2.145337974652648">
        <ele>-2.27</ele>
        <time>2018-07-02T10:53:13Z</time>
      </trkpt>
      <trkpt lat="50.98163103684783" lon="2.145250970497727">
        <ele>-1.79</ele>
        <time>2018-07-02T10:53:14Z</time>
      </trkpt>
      <trkpt lat="50.98158803768456" lon="2.145188022404909">
        <ele>-1.3</ele>
        <time>2018-07-02T10:53:15Z</time>
      </trkpt>
      <trkpt lat="50.981136001646519" lon="2.144605983048677">
        <ele>-0.82</ele>
        <time>2018-07-02T10:53:21Z</time>
      </trkpt>
      <trkpt lat="50.980133023113012" lon="2.143235960975289">
        <ele>0.14</ele>
        <time>2018-07-02T10:53:30Z</time>
      </trkpt>
      <trkpt lat="50.979081010445952" lon="2.141555976122618">
        <ele>0.62</ele>
        <time>2018-07-02T10:53:38Z</time>
      </trkpt>
      <trkpt lat="50.977952973917127" lon="2.139366958290339">
        <ele>2.54</ele>
        <time>2018-07-02T10:53:48Z</time>
      </trkpt>
      <trkpt lat="50.976861985400319" lon="2.136760018765926">
        <ele>6.87</ele>
        <time>2018-07-02T10:53:58Z</time>
      </trkpt>
      <trkpt lat="50.975866969674826" lon="2.133612027391791">
        <ele>8.789999999999999</ele>
        <time>2018-07-02T10:54:10Z</time>
      </trkpt>
      <trkpt lat="50.975043028593063" lon="2.130076959729195">
        <ele>5.42</ele>
        <time>2018-07-02T10:54:24Z</time>
      </trkpt>
      <trkpt lat="50.974439028650522" lon="2.126935003325343">
        <ele>1.1</ele>
        <time>2018-07-02T10:54:37Z</time>
      </trkpt>
      <trkpt lat="50.973997972905636" lon="2.124665016308427">
        <ele>-1.79</ele>
        <time>2018-07-02T10:54:46Z</time>
      </trkpt>
      <trkpt lat="50.973624978214502" lon="2.122748997062445">
        <ele>-0.82</ele>
        <time>2018-07-02T10:54:54Z</time>
      </trkpt>
      <trkpt lat="50.973547026515007" lon="2.122349012643099">
        <ele>-0.82</ele>
        <time>2018-07-02T10:54:58Z</time>
      </trkpt>
      <trkpt lat="50.973540991544724" lon="2.122312970459461">
        <ele>-0.82</ele>
        <time>2018-07-02T10:55:07Z</time>
      </trkpt>
      <trkpt lat="50.973462034016848" lon="2.121916003525257">
        <ele>-1.3</ele>
        <time>2018-07-02T10:55:20Z</time>
      </trkpt>
      <trkpt lat="50.973385004326701" lon="2.120478004217148">
        <ele>-1.79</ele>
        <time>2018-07-02T10:55:27Z</time>
      </trkpt>
      <trkpt lat="50.973633024841547" lon="2.118298038840294">
        <ele>-0.34</ele>
        <time>2018-07-02T10:55:35Z</time>
      </trkpt>
      <trkpt lat="50.974174998700619" lon="2.116554016247392">
        <ele>1.1</ele>
        <time>2018-07-02T10:55:42Z</time>
      </trkpt>
      <trkpt lat="50.975241009145975" lon="2.114780992269516">
        <ele>3.5</ele>
        <time>2018-07-02T10:55:51Z</time>
      </trkpt>
      <trkpt lat="50.976633997634053" lon="2.113699978217483">
        <ele>7.83</ele>
        <time>2018-07-02T10:56:00Z</time>
      </trkpt>
      <trkpt lat="50.978982020169497" lon="2.112733963876963">
        <ele>10.710000000000001</ele>
        <time>2018-07-02T10:56:14Z</time>
      </trkpt>
      <trkpt lat="50.981506984680891" lon="2.111741965636611">
        <ele>5.42</ele>
        <time>2018-07-02T10:56:29Z</time>
      </trkpt>
      <trkpt lat="50.983809996396303" lon="2.110756002366543">
        <ele>2.54</ele>
        <time>2018-07-02T10:56:43Z</time>
      </trkpt>
      <trkpt lat="50.985112963244319" lon="2.10954699665308">
        <ele>1.58</ele>
        <time>2018-07-02T10:56:53Z</time>
      </trkpt>
      <trkpt lat="50.98582299426198" lon="2.108375960960984">
        <ele>3.02</ele>
        <time>2018-07-02T10:57:01Z</time>
      </trkpt>
      <trkpt lat="50.986477034166455" lon="2.106336979195476">
        <ele>2.54</ele>
        <time>2018-07-02T10:57:12Z</time>
      </trkpt>
      <trkpt lat="50.986707033589482" lon="2.104162964969873">
        <ele>1.58</ele>
        <time>2018-07-02T10:57:20Z</time>
      </trkpt>
      <trkpt lat="50.986477034166455" lon="2.101488970220089">
        <ele>0.62</ele>
        <time>2018-07-02T10:57:29Z</time>
      </trkpt>
      <trkpt lat="50.986027009785175" lon="2.098404010757804">
        <ele>0.14</ele>
        <time>2018-07-02T10:57:40Z</time>
      </trkpt>
      <trkpt lat="50.985380010679364" lon="2.093897983431816">
        <ele>-0.34</ele>
        <time>2018-07-02T10:57:57Z</time>
      </trkpt>
      <trkpt lat="50.985125033184886" lon="2.092123031616211">
        <ele>-0.34</ele>
        <time>2018-07-02T10:58:05Z</time>
      </trkpt>
      <trkpt lat="50.984906014055014" lon="2.090591993182898">
        <ele>0.62</ele>
        <time>2018-07-02T10:58:12Z</time>
      </trkpt>
      <trkpt lat="50.984548022970557" lon="2.088108016178012">
        <ele>1.1</ele>
        <time>2018-07-02T10:58:21Z</time>
      </trkpt>
      <trkpt lat="50.984004037454724" lon="2.084392989054322">
        <ele>2.54</ele>
        <time>2018-07-02T10:58:35Z</time>
      </trkpt>
      <trkpt lat="50.983358966186643" lon="2.079865001142025">
        <ele>1.1</ele>
        <time>2018-07-02T10:58:52Z</time>
      </trkpt>
      <trkpt lat="50.982739962637424" lon="2.075602971017361">
        <ele>1.58</ele>
        <time>2018-07-02T10:59:08Z</time>
      </trkpt>
      <trkpt lat="50.982043007388711" lon="2.070811036974192">
        <ele>1.58</ele>
        <time>2018-07-02T10:59:26Z</time>
      </trkpt>
      <trkpt lat="50.98150497302413" lon="2.067120987921953">
        <ele>3.02</ele>
        <time>2018-07-02T10:59:40Z</time>
      </trkpt>
      <trkpt lat="50.980692012235522" lon="2.061532018706203">
        <ele>2.54</ele>
        <time>2018-07-02T11:00:01Z</time>
      </trkpt>
      <trkpt lat="50.980046018958092" lon="2.057047029957175">
        <ele>2.06</ele>
        <time>2018-07-02T11:00:18Z</time>
      </trkpt>
      <trkpt lat="50.979695990681648" lon="2.054688027128577">
        <ele>4.46</ele>
        <time>2018-07-02T11:00:29Z</time>
      </trkpt>
      <trkpt lat="50.979394996538758" lon="2.05263102427125">
        <ele>4.94</ele>
        <time>2018-07-02T11:00:40Z</time>
      </trkpt>
      <trkpt lat="50.979060977697372" lon="2.05035500228405">
        <ele>3.98</ele>
        <time>2018-07-02T11:00:52Z</time>
      </trkpt>
      <trkpt lat="50.978671973571181" lon="2.047692993655801">
        <ele>2.06</ele>
        <time>2018-07-02T11:01:06Z</time>
      </trkpt>
      <trkpt lat="50.978295039385557" lon="2.044991003349423">
        <ele>1.1</ele>
        <time>2018-07-02T11:01:21Z</time>
      </trkpt>
      <trkpt lat="50.97811097279191" lon="2.043119994923472">
        <ele>0.62</ele>
        <time>2018-07-02T11:01:32Z</time>
      </trkpt>
      <trkpt lat="50.978092029690742" lon="2.041517039760947">
        <ele>1.58</ele>
        <time>2018-07-02T11:01:42Z</time>
      </trkpt>
      <trkpt lat="50.978121031075716" lon="2.040160009637475">
        <ele>1.58</ele>
        <time>2018-07-02T11:01:51Z</time>
      </trkpt>
      <trkpt lat="50.978065961971879" lon="2.039812998846173">
        <ele>2.06</ele>
        <time>2018-07-02T11:01:59Z</time>
      </trkpt>
      <trkpt lat="50.978049030527472" lon="2.039754996076226">
        <ele>2.54</ele>
        <time>2018-07-02T11:02:00Z</time>
      </trkpt>
      <trkpt lat="50.978008965030313" lon="2.039616024121642">
        <ele>3.02</ele>
        <time>2018-07-02T11:02:02Z</time>
      </trkpt>
      <trkpt lat="50.977962026372552" lon="2.039457019418478">
        <ele>3.02</ele>
        <time>2018-07-02T11:02:04Z</time>
      </trkpt>
      <trkpt lat="50.977840991690755" lon="2.039127023890615">
        <ele>3.02</ele>
        <time>2018-07-02T11:02:08Z</time>
      </trkpt>
      <trkpt lat="50.977793969213963" lon="2.03903297893703">
        <ele>3.5</ele>
        <time>2018-07-02T11:02:09Z</time>
      </trkpt>
      <trkpt lat="50.977683998644352" lon="2.038814965635538">
        <ele>3.02</ele>
        <time>2018-07-02T11:02:11Z</time>
      </trkpt>
      <trkpt lat="50.976995006203651" lon="2.037461958825588">
        <ele>3.5</ele>
        <time>2018-07-02T11:02:20Z</time>
      </trkpt>
      <trkpt lat="50.976277012377977" lon="2.035998981446028">
        <ele>3.98</ele>
        <time>2018-07-02T11:02:29Z</time>
      </trkpt>
      <trkpt lat="50.975764039903879" lon="2.034752005711198">
        <ele>4.94</ele>
        <time>2018-07-02T11:02:39Z</time>
      </trkpt>
      <trkpt lat="50.975152999162674" lon="2.033235970884562">
        <ele>5.91</ele>
        <time>2018-07-02T11:02:48Z</time>
      </trkpt>
      <trkpt lat="50.974187990650535" lon="2.030852995812893">
        <ele>5.91</ele>
        <time>2018-07-02T11:02:58Z</time>
      </trkpt>
      <trkpt lat="50.973477037623525" lon="2.02906203456223">
        <ele>3.5</ele>
        <time>2018-07-02T11:03:05Z</time>
      </trkpt>
      <trkpt lat="50.971999978646636" lon="2.02540903352201">
        <ele>3.98</ele>
        <time>2018-07-02T11:03:20Z</time>
      </trkpt>
      <trkpt lat="50.970080019906163" lon="2.020673006772995">
        <ele>3.98</ele>
        <time>2018-07-02T11:03:38Z</time>
      </trkpt>
      <trkpt lat="50.968486033380032" lon="2.016723034903407">
        <ele>0.14</ele>
        <time>2018-07-02T11:03:53Z</time>
      </trkpt>
      <trkpt lat="50.968273971229792" lon="2.016200004145503">
        <ele>0.14</ele>
        <time>2018-07-02T11:03:55Z</time>
      </trkpt>
      <trkpt lat="50.968170035630465" lon="2.015942009165883">
        <ele>0.14</ele>
        <time>2018-07-02T11:03:56Z</time>
      </trkpt>
      <trkpt lat="50.966042960062623" lon="2.010679012164474">
        <ele>1.58</ele>
        <time>2018-07-02T11:04:16Z</time>
      </trkpt>
      <trkpt lat="50.964555004611611" lon="2.006988963112235">
        <ele>1.1</ele>
        <time>2018-07-02T11:04:30Z</time>
      </trkpt>
      <trkpt lat="50.962533038109541" lon="2.001993013545871">
        <ele>1.58</ele>
        <time>2018-07-02T11:04:49Z</time>
      </trkpt>
      <trkpt lat="50.960415014997125" lon="1.996718030422926">
        <ele>3.5</ele>
        <time>2018-07-02T11:05:09Z</time>
      </trkpt>
      <trkpt lat="50.958296991884708" lon="1.991440029814839">
        <ele>1.1</ele>
        <time>2018-07-02T11:05:29Z</time>
      </trkpt>
      <trkpt lat="50.95628198236227" lon="1.986408038064838">
        <ele>0.62</ele>
        <time>2018-07-02T11:05:48Z</time>
      </trkpt>
      <trkpt lat="50.953937983140349" lon="1.980601977556944">
        <ele>0.62</ele>
        <time>2018-07-02T11:06:10Z</time>
      </trkpt>
      <trkpt lat="50.951923979446292" lon="1.975598987191916">
        <ele>0.62</ele>
        <time>2018-07-02T11:06:29Z</time>
      </trkpt>
      <trkpt lat="50.949912993237376" lon="1.970599014312029">
        <ele>1.58</ele>
        <time>2018-07-02T11:06:48Z</time>
      </trkpt>
      <trkpt lat="50.949288960546255" lon="1.96927098557353">
        <ele>1.58</ele>
        <time>2018-07-02T11:06:55Z</time>
      </trkpt>
      <trkpt lat="50.948339961469173" lon="1.967313978821039">
        <ele>2.54</ele>
        <time>2018-07-02T11:07:08Z</time>
      </trkpt>
      <trkpt lat="50.948216998949647" lon="1.96669296361506">
        <ele>2.06</ele>
        <time>2018-07-02T11:07:12Z</time>
      </trkpt>
      <trkpt lat="50.948195960372686" lon="1.966557009145618">
        <ele>2.06</ele>
        <time>2018-07-02T11:07:13Z</time>
      </trkpt>
      <trkpt lat="50.948175005614758" lon="1.966418037191033">
        <ele>2.06</ele>
        <time>2018-07-02T11:07:14Z</time>
      </trkpt>
      <trkpt lat="50.948184980079532" lon="1.966274958103895">
        <ele>2.54</ele>
        <time>2018-07-02T11:07:15Z</time>
      </trkpt>
      <trkpt lat="50.948195960372686" lon="1.966124000027776">
        <ele>2.54</ele>
        <time>2018-07-02T11:07:16Z</time>
      </trkpt>
      <trkpt lat="50.948166958987713" lon="1.965993996709585">
        <ele>3.02</ele>
        <time>2018-07-02T11:07:17Z</time>
      </trkpt>
      <trkpt lat="50.948110967874527" lon="1.965867010876536">
        <ele>3.02</ele>
        <time>2018-07-02T11:07:18Z</time>
      </trkpt>
      <trkpt lat="50.94802999868989" lon="1.965786041691899">
        <ele>3.02</ele>
        <time>2018-07-02T11:07:19Z</time>
      </trkpt>
      <trkpt lat="50.947942994534969" lon="1.965747987851501">
        <ele>3.02</ele>
        <time>2018-07-02T11:07:20Z</time>
      </trkpt>
      <trkpt lat="50.947868982329965" lon="1.965661989524961">
        <ele>3.02</ele>
        <time>2018-07-02T11:07:21Z</time>
      </trkpt>
      <trkpt lat="50.947811985388398" lon="1.965571967884898">
        <ele>3.02</ele>
        <time>2018-07-02T11:07:22Z</time>
      </trkpt>
      <trkpt lat="50.947752976790071" lon="1.965469038113952">
        <ele>3.02</ele>
        <time>2018-07-02T11:07:23Z</time>
      </trkpt>
      <trkpt lat="50.947698997333646" lon="1.965343980118632">
        <ele>2.54</ele>
        <time>2018-07-02T11:07:24Z</time>
      </trkpt>
      <trkpt lat="50.94764300622046" lon="1.9652109593153">
        <ele>2.54</ele>
        <time>2018-07-02T11:07:25Z</time>
      </trkpt>
      <trkpt lat="50.946942027658224" lon="1.963192010298371">
        <ele>2.06</ele>
        <time>2018-07-02T11:07:38Z</time>
      </trkpt>
      <trkpt lat="50.946853011846542" lon="1.96286503225565">
        <ele>2.06</ele>
        <time>2018-07-02T11:07:40Z</time>
      </trkpt>
      <trkpt lat="50.946815963834524" lon="1.96269697509706">
        <ele>1.58</ele>
        <time>2018-07-02T11:07:41Z</time>
      </trkpt>
      <trkpt lat="50.946797020733356" lon="1.962530007585883">
        <ele>2.06</ele>
        <time>2018-07-02T11:07:42Z</time>
      </trkpt>
      <trkpt lat="50.946780005469918" lon="1.962383994832635">
        <ele>2.06</ele>
        <time>2018-07-02T11:07:43Z</time>
      </trkpt>
      <trkpt lat="50.946766007691622" lon="1.962264971807599">
        <ele>2.54</ele>
        <time>2018-07-02T11:07:44Z</time>
      </trkpt>
      <trkpt lat="50.946710016578436" lon="1.960877012461424">
        <ele>3.5</ele>
        <time>2018-07-02T11:07:53Z</time>
      </trkpt>
      <trkpt lat="50.946683026850224" lon="1.959410011768341">
        <ele>3.02</ele>
        <time>2018-07-02T11:08:02Z</time>
      </trkpt>
      <trkpt lat="50.94674002379179" lon="1.959127960726619">
        <ele>3.02</ele>
        <time>2018-07-02T11:08:04Z</time>
      </trkpt>
      <trkpt lat="50.947030959650874" lon="1.958281975239515">
        <ele>2.54</ele>
        <time>2018-07-02T11:08:10Z</time>
      </trkpt>
      <trkpt lat="50.947064990177751" lon="1.958141997456551">
        <ele>3.02</ele>
        <time>2018-07-02T11:08:11Z</time>
      </trkpt>
      <trkpt lat="50.947087034583092" lon="1.957985004410148">
        <ele>3.5</ele>
        <time>2018-07-02T11:08:12Z</time>
      </trkpt>
      <trkpt lat="50.947337988764048" lon="1.956175016239286">
        <ele>3.98</ele>
        <time>2018-07-02T11:08:23Z</time>
      </trkpt>
      <trkpt lat="50.947437984868884" lon="1.954242987558246">
        <ele>1.58</ele>
        <time>2018-07-02T11:08:35Z</time>
      </trkpt>
      <trkpt lat="50.94764300622046" lon="1.952529978007078">
        <ele>-0.34</ele>
        <time>2018-07-02T11:08:46Z</time>
      </trkpt>
      <trkpt lat="50.947734033688903" lon="1.951878033578396">
        <ele>-1.79</ele>
        <time>2018-07-02T11:08:52Z</time>
      </trkpt>
      <trkpt lat="50.947831012308598" lon="1.950786039233208">
        <ele>-0.34</ele>
        <time>2018-07-02T11:09:02Z</time>
      </trkpt>
      <trkpt lat="50.94781500287354" lon="1.948941014707089">
        <ele>3.5</ele>
        <time>2018-07-02T11:09:13Z</time>
      </trkpt>
      <trkpt lat="50.947722969576716" lon="1.945672994479537">
        <ele>4.94</ele>
        <time>2018-07-02T11:09:30Z</time>
      </trkpt>
      <trkpt lat="50.947652980685234" lon="1.943197986111045">
        <ele>4.94</ele>
        <time>2018-07-02T11:09:43Z</time>
      </trkpt>
      <trkpt lat="50.947583997622132" lon="1.940908972173929">
        <ele>4.46</ele>
        <time>2018-07-02T11:09:56Z</time>
      </trkpt>
      <trkpt lat="50.947574023157358" lon="1.940589034929872">
        <ele>4.46</ele>
        <time>2018-07-02T11:09:59Z</time>
      </trkpt>
      <trkpt lat="50.947616016492248" lon="1.940509993582964">
        <ele>4.46</ele>
        <time>2018-07-02T11:10:00Z</time>
      </trkpt>
      <trkpt lat="50.947645017877221" lon="1.940456014126539">
        <ele>4.46</ele>
        <time>2018-07-02T11:10:01Z</time>
      </trkpt>
      <trkpt lat="50.947672007605433" lon="1.940405974164605">
        <ele>3.98</ele>
        <time>2018-07-02T11:10:02Z</time>
      </trkpt>
      <trkpt lat="50.947681982070208" lon="1.940258033573628">
        <ele>3.98</ele>
        <time>2018-07-02T11:10:03Z</time>
      </trkpt>
      <trkpt lat="50.947651974856853" lon="1.940219979733229">
        <ele>3.98</ele>
        <time>2018-07-02T11:10:04Z</time>
      </trkpt>
      <trkpt lat="50.947611993178725" lon="1.940170023590326">
        <ele>3.98</ele>
        <time>2018-07-02T11:10:05Z</time>
      </trkpt>
      <trkpt lat="50.947574023157358" lon="1.939987968653441">
        <ele>3.98</ele>
        <time>2018-07-02T11:10:06Z</time>
      </trkpt>
      <trkpt lat="50.947563964873552" lon="1.939962990581989">
        <ele>3.5</ele>
        <time>2018-07-02T11:10:07Z</time>
      </trkpt>
      <trkpt lat="50.947508979588747" lon="1.939815972000361">
        <ele>3.5</ele>
        <time>2018-07-02T11:10:08Z</time>
      </trkpt>
      <trkpt lat="50.947517026215792" lon="1.939709018915892">
        <ele>3.5</ele>
        <time>2018-07-02T11:10:09Z</time>
      </trkpt>
      <trkpt lat="50.947524989023805" lon="1.93957700394094">
        <ele>3.02</ele>
        <time>2018-07-02T11:10:10Z</time>
      </trkpt>
      <trkpt lat="50.947531023994088" lon="1.939441971480846">
        <ele>3.02</ele>
        <time>2018-07-02T11:10:11Z</time>
      </trkpt>
      <trkpt lat="50.947508979588747" lon="1.937734996899962">
        <ele>0.62</ele>
        <time>2018-07-02T11:10:21Z</time>
      </trkpt>
      <trkpt lat="50.947442008182406" lon="1.935284966602922">
        <ele>0.62</ele>
        <time>2018-07-02T11:10:34Z</time>
      </trkpt>
      <trkpt lat="50.947340000420809" lon="1.93270199932158">
        <ele>2.06</ele>
        <time>2018-07-02T11:10:48Z</time>
      </trkpt>
      <trkpt lat="50.947313010692596" lon="1.930870972573757">
        <ele>3.02</ele>
        <time>2018-07-02T11:10:58Z</time>
      </trkpt>
      <trkpt lat="50.947251990437508" lon="1.928562009707093">
        <ele>2.54</ele>
        <time>2018-07-02T11:11:10Z</time>
      </trkpt>
      <trkpt lat="50.947251990437508" lon="1.927864970639348">
        <ele>2.54</ele>
        <time>2018-07-02T11:11:14Z</time>
      </trkpt>
      <trkpt lat="50.947251990437508" lon="1.927778972312808">
        <ele>2.54</ele>
        <time>2018-07-02T11:11:15Z</time>
      </trkpt>
      <trkpt lat="50.947247967123985" lon="1.927662966772914">
        <ele>2.54</ele>
        <time>2018-07-02T11:11:16Z</time>
      </trkpt>
      <trkpt lat="50.947238998487592" lon="1.927336994558573">
        <ele>2.54</ele>
        <time>2018-07-02T11:11:18Z</time>
      </trkpt>
      <trkpt lat="50.947232963517308" lon="1.927162986248732">
        <ele>2.54</ele>
        <time>2018-07-02T11:11:19Z</time>
      </trkpt>
      <trkpt lat="50.947161968797445" lon="1.924925018101931">
        <ele>2.54</ele>
        <time>2018-07-02T11:11:31Z</time>
      </trkpt>
      <trkpt lat="50.947113018482924" lon="1.92339900881052">
        <ele>1.58</ele>
        <time>2018-07-02T11:11:40Z</time>
      </trkpt>
      <trkpt lat="50.947079993784428" lon="1.922053964808583">
        <ele>-0.82</ele>
        <time>2018-07-02T11:11:49Z</time>
      </trkpt>
      <trkpt lat="50.947091979905963" lon="1.921923961490393">
        <ele>-1.3</ele>
        <time>2018-07-02T11:11:50Z</time>
      </trkpt>
      <trkpt lat="50.947133973240852" lon="1.921861013397574">
        <ele>-1.3</ele>
        <time>2018-07-02T11:11:51Z</time>
      </trkpt>
      <trkpt lat="50.947158029302955" lon="1.921754982322455">
        <ele>-1.3</ele>
        <time>2018-07-02T11:11:52Z</time>
      </trkpt>
      <trkpt lat="50.947145037353039" lon="1.921663032844663">
        <ele>-1.3</ele>
        <time>2018-07-02T11:11:53Z</time>
      </trkpt>
      <trkpt lat="50.947078987956047" lon="1.921564964577556">
        <ele>-1.79</ele>
        <time>2018-07-02T11:11:54Z</time>
      </trkpt>
      <trkpt lat="50.947074964642525" lon="1.921440996229649">
        <ele>-1.79</ele>
        <time>2018-07-02T11:11:55Z</time>
      </trkpt>
      <trkpt lat="50.947072030976415" lon="1.921299006789923">
        <ele>-1.79</ele>
        <time>2018-07-02T11:11:56Z</time>
      </trkpt>
      <trkpt lat="50.947067001834512" lon="1.921141007915139">
        <ele>-1.79</ele>
        <time>2018-07-02T11:11:57Z</time>
      </trkpt>
      <trkpt lat="50.947016039863229" lon="1.919323978945613">
        <ele>-2.27</ele>
        <time>2018-07-02T11:12:06Z</time>
      </trkpt>
      <trkpt lat="50.946952002122998" lon="1.917004035785794">
        <ele>-0.82</ele>
        <time>2018-07-02T11:12:17Z</time>
      </trkpt>
      <trkpt lat="50.946873966604471" lon="1.913921004161239">
        <ele>1.58</ele>
        <time>2018-07-02T11:12:33Z</time>
      </trkpt>
      <trkpt lat="50.946827027946711" lon="1.912100035697222">
        <ele>2.54</ele>
        <time>2018-07-02T11:12:43Z</time>
      </trkpt>
      <trkpt lat="50.946823004633188" lon="1.911942958831787">
        <ele>2.54</ele>
        <time>2018-07-02T11:12:45Z</time>
      </trkpt>
      <trkpt lat="50.946823004633188" lon="1.911718994379044">
        <ele>2.54</ele>
        <time>2018-07-02T11:12:46Z</time>
      </trkpt>
      <trkpt lat="50.946776987984776" lon="1.91005895845592">
        <ele>2.54</ele>
        <time>2018-07-02T11:12:57Z</time>
      </trkpt>
      <trkpt lat="50.946694007143378" lon="1.90750096924603">
        <ele>2.06</ele>
        <time>2018-07-02T11:13:11Z</time>
      </trkpt>
      <trkpt lat="50.946629969403148" lon="1.904668975621462">
        <ele>0.14</ele>
        <time>2018-07-02T11:13:26Z</time>
      </trkpt>
      <trkpt lat="50.946587976068258" lon="1.903276992961764">
        <ele>-0.82</ele>
        <time>2018-07-02T11:13:33Z</time>
      </trkpt>
      <trkpt lat="50.946512036025524" lon="1.900802990421653">
        <ele>-0.82</ele>
        <time>2018-07-02T11:13:46Z</time>
      </trkpt>
      <trkpt lat="50.946434000506997" lon="1.897758012637496">
        <ele>-2.27</ele>
        <time>2018-07-02T11:14:02Z</time>
      </trkpt>
      <trkpt lat="50.946369962766767" lon="1.895583998411894">
        <ele>1.58</ele>
        <time>2018-07-02T11:14:14Z</time>
      </trkpt>
      <trkpt lat="50.946351019665599" lon="1.893998980522156">
        <ele>1.58</ele>
        <time>2018-07-02T11:14:24Z</time>
      </trkpt>
      <trkpt lat="50.946365017443895" lon="1.893889009952545">
        <ele>1.58</ele>
        <time>2018-07-02T11:14:25Z</time>
      </trkpt>
      <trkpt lat="50.946383960545063" lon="1.893793037161231">
        <ele>2.06</ele>
        <time>2018-07-02T11:14:26Z</time>
      </trkpt>
      <trkpt lat="50.946500971913338" lon="1.893639983609319">
        <ele>2.06</ele>
        <time>2018-07-02T11:14:27Z</time>
      </trkpt>
      <trkpt lat="50.946500971913338" lon="1.893639983609319">
        <ele>2.54</ele>
        <time>2018-07-02T11:14:28Z</time>
      </trkpt>
      <trkpt lat="50.946535002440214" lon="1.893571000546217">
        <ele>2.54</ele>
        <time>2018-07-02T11:14:29Z</time>
      </trkpt>
      <trkpt lat="50.946565009653568" lon="1.893463041633368">
        <ele>2.54</ele>
        <time>2018-07-02T11:14:30Z</time>
      </trkpt>
      <trkpt lat="50.946535002440214" lon="1.893351981416345">
        <ele>3.02</ele>
        <time>2018-07-02T11:14:31Z</time>
      </trkpt>
      <trkpt lat="50.94648202881217" lon="1.89329800195992">
        <ele>3.02</ele>
        <time>2018-07-02T11:14:32Z</time>
      </trkpt>
      <trkpt lat="50.946479011327028" lon="1.893295990303159">
        <ele>3.02</ele>
        <time>2018-07-02T11:14:33Z</time>
      </trkpt>
      <trkpt lat="50.946367029100657" lon="1.893140003085136">
        <ele>3.02</ele>
        <time>2018-07-02T11:14:34Z</time>
      </trkpt>
      <trkpt lat="50.946341967210174" lon="1.893027015030384">
        <ele>3.5</ele>
        <time>2018-07-02T11:14:35Z</time>
      </trkpt>
      <trkpt lat="50.946320006623864" lon="1.892899023368955">
        <ele>3.5</ele>
        <time>2018-07-02T11:14:36Z</time>
      </trkpt>
      <trkpt lat="50.946305003017187" lon="1.892758039757609">
        <ele>3.98</ele>
        <time>2018-07-02T11:14:37Z</time>
      </trkpt>
      <trkpt lat="50.946298968046904" lon="1.892606997862458">
        <ele>3.98</ele>
        <time>2018-07-02T11:14:38Z</time>
      </trkpt>
      <trkpt lat="50.946293016895652" lon="1.892448998987675">
        <ele>3.98</ele>
        <time>2018-07-02T11:14:39Z</time>
      </trkpt>
      <trkpt lat="50.946227973327041" lon="1.890398031100631">
        <ele>3.02</ele>
        <time>2018-07-02T11:14:51Z</time>
      </trkpt>
      <trkpt lat="50.946177011355758" lon="1.888327030465007">
        <ele>0.62</ele>
        <time>2018-07-02T11:15:04Z</time>
      </trkpt>
      <trkpt lat="50.946107022464275" lon="1.885912036523223">
        <ele>1.1</ele>
        <time>2018-07-02T11:15:18Z</time>
      </trkpt>
      <trkpt lat="50.946080032736063" lon="1.884805038571358">
        <ele>1.58</ele>
        <time>2018-07-02T11:15:26Z</time>
      </trkpt>
      <trkpt lat="50.946067962795496" lon="1.884340010583401">
        <ele>2.06</ele>
        <time>2018-07-02T11:15:35Z</time>
      </trkpt>
      <trkpt lat="50.946043990552425" lon="1.883427975699306">
        <ele>3.5</ele>
        <time>2018-07-02T11:15:43Z</time>
      </trkpt>
      <trkpt lat="50.945985987782478" lon="1.881515979766846">
        <ele>4.94</ele>
        <time>2018-07-02T11:15:54Z</time>
      </trkpt>
      <trkpt lat="50.946022029966116" lon="1.881354041397572">
        <ele>4.94</ele>
        <time>2018-07-02T11:15:55Z</time>
      </trkpt>
      <trkpt lat="50.946071986109018" lon="1.880856994539499">
        <ele>5.42</ele>
        <time>2018-07-02T11:15:58Z</time>
      </trkpt>
      <trkpt lat="50.946021024137735" lon="1.879714960232377">
        <ele>4.46</ele>
        <time>2018-07-02T11:16:07Z</time>
      </trkpt>
      <trkpt lat="50.946013983339071" lon="1.879601972177625">
        <ele>4.46</ele>
        <time>2018-07-02T11:16:13Z</time>
      </trkpt>
      <trkpt lat="50.94596897251904" lon="1.879403991624713">
        <ele>4.46</ele>
        <time>2018-07-02T11:16:43Z</time>
      </trkpt>
      <trkpt lat="50.945899989455938" lon="1.878609973937273">
        <ele>2.54</ele>
        <time>2018-07-02T11:16:50Z</time>
      </trkpt>
      <trkpt lat="50.945952963083982" lon="1.878492962568998">
        <ele>2.06</ele>
        <time>2018-07-02T11:16:51Z</time>
      </trkpt>
      <trkpt lat="50.946012977510691" lon="1.87847200781107">
        <ele>2.06</ele>
        <time>2018-07-02T11:16:52Z</time>
      </trkpt>
      <trkpt lat="50.946083972230554" lon="1.878446023911238">
        <ele>1.58</ele>
        <time>2018-07-02T11:16:53Z</time>
      </trkpt>
      <trkpt lat="50.946168964728713" lon="1.878416016697884">
        <ele>1.58</ele>
        <time>2018-07-02T11:16:54Z</time>
      </trkpt>
      <trkpt lat="50.947266994044185" lon="1.878040004521608">
        <ele>0.62</ele>
        <time>2018-07-02T11:17:04Z</time>
      </trkpt>
      <trkpt lat="50.948721002787352" lon="1.877574976533651">
        <ele>-0.34</ele>
        <time>2018-07-02T11:17:16Z</time>
      </trkpt>
      <trkpt lat="50.950390007346869" lon="1.877041971310973">
        <ele>1.1</ele>
        <time>2018-07-02T11:17:30Z</time>
      </trkpt>
      <trkpt lat="50.95122903585434" lon="1.876768972724676">
        <ele>2.06</ele>
        <time>2018-07-02T11:17:39Z</time>
      </trkpt>
      <trkpt lat="50.951373036950827" lon="1.876722034066916">
        <ele>3.02</ele>
        <time>2018-07-02T11:17:46Z</time>
      </trkpt>
      <trkpt lat="50.951373036950827" lon="1.876722034066916">
        <ele>3.02</ele>
        <time>2018-07-02T11:18:14Z</time>
      </trkpt>
      <trkpt lat="50.951373036950827" lon="1.876722034066916">
        <ele>3.5</ele>
        <time>2018-07-02T11:18:54Z</time>
      </trkpt>
      <trkpt lat="50.951646035537124" lon="1.876636035740376">
        <ele>2.54</ele>
        <time>2018-07-02T11:19:08Z</time>
      </trkpt>
      <trkpt lat="50.952623030170798" lon="1.876337975263596">
        <ele>3.02</ele>
        <time>2018-07-02T11:19:17Z</time>
      </trkpt>
      <trkpt lat="50.954322963953018" lon="1.875817039981484">
        <ele>5.91</ele>
        <time>2018-07-02T11:19:31Z</time>
      </trkpt>
      <trkpt lat="50.955877974629402" lon="1.87538000755012">
        <ele>4.94</ele>
        <time>2018-07-02T11:19:44Z</time>
      </trkpt>
      <trkpt lat="50.957383029162884" lon="1.874998966231942">
        <ele>3.98</ele>
        <time>2018-07-02T11:19:57Z</time>
      </trkpt>
      <trkpt lat="50.957600036635995" lon="1.874939035624266">
        <ele>3.5</ele>
        <time>2018-07-02T11:20:03Z</time>
      </trkpt>
      <trkpt lat="50.957600036635995" lon="1.874939035624266">
        <ele>3.98</ele>
        <time>2018-07-02T11:20:21Z</time>
      </trkpt>
      <trkpt lat="50.957666002213955" lon="1.874923026189208">
        <ele>4.46</ele>
        <time>2018-07-02T11:21:05Z</time>
      </trkpt>
      <trkpt lat="50.957914022728801" lon="1.874868962913752">
        <ele>4.94</ele>
        <time>2018-07-02T11:21:09Z</time>
      </trkpt>
      <trkpt lat="50.957992980256677" lon="1.874847002327442">
        <ele>4.94</ele>
        <time>2018-07-02T11:21:10Z</time>
      </trkpt>
      <trkpt lat="50.958817005157471" lon="1.874597975984216">
        <ele>4.46</ele>
        <time>2018-07-02T11:21:18Z</time>
      </trkpt>
      <trkpt lat="50.960154002532363" lon="1.874223975464702">
        <ele>3.02</ele>
        <time>2018-07-02T11:21:29Z</time>
      </trkpt>
      <trkpt lat="50.961456969380379" lon="1.873820973560214">
        <ele>2.06</ele>
        <time>2018-07-02T11:21:41Z</time>
      </trkpt>
      <trkpt lat="50.961516983807087" lon="1.873803958296776">
        <ele>2.06</ele>
        <time>2018-07-02T11:21:42Z</time>
      </trkpt>
      <trkpt lat="50.961569035425782" lon="1.87378803268075">
        <ele>2.54</ele>
        <time>2018-07-02T11:21:43Z</time>
      </trkpt>
      <trkpt lat="50.961625026538968" lon="1.873677978292108">
        <ele>2.54</ele>
        <time>2018-07-02T11:21:44Z</time>
      </trkpt>
      <trkpt lat="50.961619997397065" lon="1.873579993844032">
        <ele>2.54</ele>
        <time>2018-07-02T11:21:45Z</time>
      </trkpt>
      <trkpt lat="50.961614968255162" lon="1.873468011617661">
        <ele>3.02</ele>
        <time>2018-07-02T11:21:46Z</time>
      </trkpt>
      <trkpt lat="50.961610022932291" lon="1.873347982764244">
        <ele>3.02</ele>
        <time>2018-07-02T11:21:47Z</time>
      </trkpt>
      <trkpt lat="50.961540034040809" lon="1.8717270065099">
        <ele>2.54</ele>
        <time>2018-07-02T11:21:57Z</time>
      </trkpt>
      <trkpt lat="50.961389997974038" lon="1.870607016608119">
        <ele>1.58</ele>
        <time>2018-07-02T11:22:04Z</time>
      </trkpt>
      <trkpt lat="50.961055979132652" lon="1.869288962334395">
        <ele>0.14</ele>
        <time>2018-07-02T11:22:14Z</time>
      </trkpt>
      <trkpt lat="50.960996970534325" lon="1.869015041738749">
        <ele>0.14</ele>
        <time>2018-07-02T11:22:19Z</time>
      </trkpt>
      <trkpt lat="50.960689019411802" lon="1.868181964382529">
        <ele>0.14</ele>
        <time>2018-07-02T11:22:26Z</time>
      </trkpt>
      <trkpt lat="50.960175041109324" lon="1.866799034178257">
        <ele>3.02</ele>
        <time>2018-07-02T11:22:36Z</time>
      </trkpt>
      <trkpt lat="50.959518989548087" lon="1.865085018798709">
        <ele>4.46</ele>
        <time>2018-07-02T11:22:48Z</time>
      </trkpt>
      <trkpt lat="50.959246996790171" lon="1.864364007487893">
        <ele>5.42</ele>
        <time>2018-07-02T11:22:56Z</time>
      </trkpt>
      <trkpt lat="50.959260994568467" lon="1.864285971969366">
        <ele>5.42</ele>
        <time>2018-07-02T11:23:00Z</time>
      </trkpt>
      <trkpt lat="50.959283960983157" lon="1.86427298001945">
        <ele>5.42</ele>
        <time>2018-07-02T11:23:01Z</time>
      </trkpt>
      <trkpt lat="50.959323020651937" lon="1.864251019433141">
        <ele>5.91</ele>
        <time>2018-07-02T11:23:02Z</time>
      </trkpt>
      <trkpt lat="50.959379011765122" lon="1.864217994734645">
        <ele>6.39</ele>
        <time>2018-07-02T11:23:03Z</time>
      </trkpt>
      <trkpt lat="50.959443971514702" lon="1.864180024713278">
        <ele>6.39</ele>
        <time>2018-07-02T11:23:04Z</time>
      </trkpt>
      <trkpt lat="50.960357012227178" lon="1.863656993955374">
        <ele>7.83</ele>
        <time>2018-07-02T11:23:14Z</time>
      </trkpt>
      <trkpt lat="50.961492005735636" lon="1.863033967092633">
        <ele>6.87</ele>
        <time>2018-07-02T11:23:24Z</time>
      </trkpt>
      <trkpt lat="50.961731979623437" lon="1.86291703954339">
        <ele>6.87</ele>
        <time>2018-07-02T11:23:26Z</time>
      </trkpt>
      <trkpt lat="50.961849996820092" lon="1.862865993753076">
        <ele>6.39</ele>
        <time>2018-07-02T11:23:27Z</time>
      </trkpt>
      <trkpt lat="50.962997982278466" lon="1.862385040149093">
        <ele>5.91</ele>
        <time>2018-07-02T11:23:37Z</time>
      </trkpt>
      <trkpt lat="50.96311298198998" lon="1.86233701184392">
        <ele>5.42</ele>
        <time>2018-07-02T11:23:38Z</time>
      </trkpt>
      <trkpt lat="50.964259961619973" lon="1.86182202771306">
        <ele>4.94</ele>
        <time>2018-07-02T11:23:49Z</time>
      </trkpt>
      <trkpt lat="50.964325005188584" lon="1.861781040206552">
        <ele>4.94</ele>
        <time>2018-07-02T11:23:50Z</time>
      </trkpt>
      <trkpt lat="50.964432964101434" lon="1.861663023009896">
        <ele>5.42</ele>
        <time>2018-07-02T11:23:52Z</time>
      </trkpt>
      <trkpt lat="50.964475963264704" lon="1.861616000533104">
        <ele>5.42</ele>
        <time>2018-07-02T11:23:53Z</time>
      </trkpt>
      <trkpt lat="50.964513011276722" lon="1.861576018854976">
        <ele>5.91</ele>
        <time>2018-07-02T11:23:54Z</time>
      </trkpt>
      <trkpt lat="50.964564979076385" lon="1.861545005813241">
        <ele>5.91</ele>
        <time>2018-07-02T11:23:55Z</time>
      </trkpt>
      <trkpt lat="50.964606972411275" lon="1.861559003591538">
        <ele>5.91</ele>
        <time>2018-07-02T11:23:56Z</time>
      </trkpt>
      <trkpt lat="50.964655000716448" lon="1.861618012189865">
        <ele>5.91</ele>
        <time>2018-07-02T11:23:57Z</time>
      </trkpt>
      <trkpt lat="50.964705040678382" lon="1.861682971939445">
        <ele>5.42</ele>
        <time>2018-07-02T11:23:58Z</time>
      </trkpt>
      <trkpt lat="50.964762959629297" lon="1.86175899580121">
        <ele>5.42</ele>
        <time>2018-07-02T11:23:59Z</time>
      </trkpt>
      <trkpt lat="50.964824985712767" lon="1.861839964985848">
        <ele>5.42</ele>
        <time>2018-07-02T11:24:00Z</time>
      </trkpt>
      <trkpt lat="50.964902015402913" lon="1.86199402436614">
        <ele>5.42</ele>
        <time>2018-07-02T11:24:01Z</time>
      </trkpt>
      <trkpt lat="50.964933028444648" lon="1.862137019634247">
        <ele>4.94</ele>
        <time>2018-07-02T11:24:02Z</time>
      </trkpt>
      <trkpt lat="50.964975021779537" lon="1.862296024337411">
        <ele>4.94</ele>
        <time>2018-07-02T11:24:03Z</time>
      </trkpt>
      <trkpt lat="50.965021038427949" lon="1.862473972141743">
        <ele>4.94</ele>
        <time>2018-07-02T11:24:04Z</time>
      </trkpt>
      <trkpt lat="50.965050961822271" lon="1.86266197822988">
        <ele>4.94</ele>
        <time>2018-07-02T11:24:05Z</time>
      </trkpt>
      <trkpt lat="50.965427979826927" lon="1.86493800021708">
        <ele>4.46</ele>
        <time>2018-07-02T11:24:15Z</time>
      </trkpt>
      <trkpt lat="50.965753030031919" lon="1.866886960342526">
        <ele>4.46</ele>
        <time>2018-07-02T11:24:24Z</time>
      </trkpt>
      <trkpt lat="50.966340014711022" lon="1.870410041883588">
        <ele>5.42</ele>
        <time>2018-07-02T11:24:43Z</time>
      </trkpt>
      <trkpt lat="50.966606978327036" lon="1.872653961181641">
        <ele>4.94</ele>
        <time>2018-07-02T11:24:56Z</time>
      </trkpt>
      <trkpt lat="50.966601027175784" lon="1.872753035277128">
        <ele>4.94</ele>
        <time>2018-07-02T11:24:57Z</time>
      </trkpt>
      <trkpt lat="50.966585017740726" lon="1.872889995574951">
        <ele>5.42</ele>
        <time>2018-07-02T11:24:58Z</time>
      </trkpt>
      <trkpt lat="50.966612007468939" lon="1.872952021658421">
        <ele>5.42</ele>
        <time>2018-07-02T11:24:59Z</time>
      </trkpt>
      <trkpt lat="50.966643020510674" lon="1.873025028035045">
        <ele>5.42</ele>
        <time>2018-07-02T11:25:00Z</time>
      </trkpt>
      <trkpt lat="50.96670001745224" lon="1.873078001663089">
        <ele>5.42</ele>
        <time>2018-07-02T11:25:01Z</time>
      </trkpt>
      <trkpt lat="50.966762965545058" lon="1.873104991391301">
        <ele>5.42</ele>
        <time>2018-07-02T11:25:02Z</time>
      </trkpt>
      <trkpt lat="50.966837983578444" lon="1.873074984177947">
        <ele>5.42</ele>
        <time>2018-07-02T11:25:03Z</time>
      </trkpt>
      <trkpt lat="50.966881988570094" lon="1.872998960316181">
        <ele>5.42</ele>
        <time>2018-07-02T11:25:04Z</time>
      </trkpt>
      <trkpt lat="50.966914007440209" lon="1.872897036373615">
        <ele>5.42</ele>
        <time>2018-07-02T11:25:05Z</time>
      </trkpt>
      <trkpt lat="50.966926999390125" lon="1.872794022783637">
        <ele>5.42</ele>
        <time>2018-07-02T11:25:06Z</time>
      </trkpt>
      <trkpt lat="50.966878971084952" lon="1.872683968394995">
        <ele>5.42</ele>
        <time>2018-07-02T11:25:07Z</time>
      </trkpt>
      <trkpt lat="50.966824991628528" lon="1.872595036402345">
        <ele>5.42</ele>
        <time>2018-07-02T11:25:08Z</time>
      </trkpt>
      <trkpt lat="50.966777969151735" lon="1.872466960921884">
        <ele>4.94</ele>
        <time>2018-07-02T11:25:09Z</time>
      </trkpt>
      <trkpt lat="50.966731030493975" lon="1.872333018109202">
        <ele>4.94</ele>
        <time>2018-07-02T11:25:10Z</time>
      </trkpt>
      <trkpt lat="50.966678978875279" lon="1.872192034497857">
        <ele>4.46</ele>
        <time>2018-07-02T11:25:11Z</time>
      </trkpt>
      <trkpt lat="50.966617958620191" lon="1.872037975117564">
        <ele>4.46</ele>
        <time>2018-07-02T11:25:12Z</time>
      </trkpt>
      <trkpt lat="50.966240018606186" lon="1.869807969778776">
        <ele>4.46</ele>
        <time>2018-07-02T11:25:22Z</time>
      </trkpt>
      <trkpt lat="50.965524958446622" lon="1.865520039573312">
        <ele>6.39</ele>
        <time>2018-07-02T11:25:39Z</time>
      </trkpt>
      <trkpt lat="50.965251037850976" lon="1.863879030570388">
        <ele>6.87</ele>
        <time>2018-07-02T11:25:47Z</time>
      </trkpt>
      <trkpt lat="50.964825991541147" lon="1.861680038273335">
        <ele>5.91</ele>
        <time>2018-07-02T11:26:00Z</time>
      </trkpt>
      <trkpt lat="50.964801013469696" lon="1.861581970006228">
        <ele>5.91</ele>
        <time>2018-07-02T11:26:01Z</time>
      </trkpt>
      <trkpt lat="50.964777041226625" lon="1.861493038013578">
        <ele>5.91</ele>
        <time>2018-07-02T11:26:02Z</time>
      </trkpt>
      <trkpt lat="50.964761031791568" lon="1.861388012766838">
        <ele>5.91</ele>
        <time>2018-07-02T11:26:03Z</time>
      </trkpt>
      <trkpt lat="50.964761031791568" lon="1.86128499917686">
        <ele>6.39</ele>
        <time>2018-07-02T11:26:04Z</time>
      </trkpt>
      <trkpt lat="50.964761031791568" lon="1.86117896810174">
        <ele>6.39</ele>
        <time>2018-07-02T11:26:05Z</time>
      </trkpt>
      <trkpt lat="50.964718032628298" lon="1.861076038330793">
        <ele>6.39</ele>
        <time>2018-07-02T11:26:06Z</time>
      </trkpt>
      <trkpt lat="50.964707974344492" lon="1.860955003648996">
        <ele>6.39</ele>
        <time>2018-07-02T11:26:07Z</time>
      </trkpt>
      <trkpt lat="50.964696994051337" lon="1.860820977017283">
        <ele>6.87</ele>
        <time>2018-07-02T11:26:08Z</time>
      </trkpt>
      <trkpt lat="50.964686013758183" lon="1.860677981749177">
        <ele>6.87</ele>
        <time>2018-07-02T11:26:09Z</time>
      </trkpt>
      <trkpt lat="50.964627005159855" lon="1.860214965417981">
        <ele>5.91</ele>
        <time>2018-07-02T11:26:12Z</time>
      </trkpt>
      <trkpt lat="50.964464982971549" lon="1.859245011582971">
        <ele>5.42</ele>
        <time>2018-07-02T11:26:18Z</time>
      </trkpt>
      <trkpt lat="50.964331040158868" lon="1.858608992770314">
        <ele>4.94</ele>
        <time>2018-07-02T11:26:22Z</time>
      </trkpt>
      <trkpt lat="50.964279994368553" lon="1.858464991673827">
        <ele>4.94</ele>
        <time>2018-07-02T11:26:23Z</time>
      </trkpt>
      <trkpt lat="50.964203970506787" lon="1.858344040811062">
        <ele>4.94</ele>
        <time>2018-07-02T11:26:24Z</time>
      </trkpt>
      <trkpt lat="50.964126018807292" lon="1.858220994472504">
        <ele>4.94</ele>
        <time>2018-07-02T11:26:25Z</time>
      </trkpt>
      <trkpt lat="50.964046977460384" lon="1.858100965619087">
        <ele>5.42</ele>
        <time>2018-07-02T11:26:26Z</time>
      </trkpt>
      <trkpt lat="50.963947987183928" lon="1.858017984777689">
        <ele>5.42</ele>
        <time>2018-07-02T11:26:27Z</time>
      </trkpt>
      <trkpt lat="50.963850002735853" lon="1.857936009764671">
        <ele>5.42</ele>
        <time>2018-07-02T11:26:28Z</time>
      </trkpt>
      <trkpt lat="50.963751012459397" lon="1.857854034751654">
        <ele>5.42</ele>
        <time>2018-07-02T11:26:29Z</time>
      </trkpt>
      <trkpt lat="50.963036958128214" lon="1.857340978458524">
        <ele>6.39</ele>
        <time>2018-07-02T11:26:38Z</time>
      </trkpt>
      <trkpt lat="50.962300021201372" lon="1.856827000156045">
        <ele>3.5</ele>
        <time>2018-07-02T11:26:48Z</time>
      </trkpt>
      <trkpt lat="50.961512960493565" lon="1.856246972456574">
        <ele>2.54</ele>
        <time>2018-07-02T11:27:00Z</time>
      </trkpt>
      <trkpt lat="50.961456969380379" lon="1.856210008263588">
        <ele>2.06</ele>
        <time>2018-07-02T11:27:01Z</time>
      </trkpt>
      <trkpt lat="50.961401984095573" lon="1.856100959703326">
        <ele>2.06</ele>
        <time>2018-07-02T11:27:02Z</time>
      </trkpt>
      <trkpt lat="50.961374994367361" lon="1.856028037145734">
        <ele>2.06</ele>
        <time>2018-07-02T11:27:03Z</time>
      </trkpt>
      <trkpt lat="50.961327971890569" lon="1.855896022170782">
        <ele>1.58</ele>
        <time>2018-07-02T11:27:04Z</time>
      </trkpt>
      <trkpt lat="50.961312968283892" lon="1.855885041877627">
        <ele>1.58</ele>
        <time>2018-07-02T11:27:05Z</time>
      </trkpt>
      <trkpt lat="50.961261000484228" lon="1.855847993865609">
        <ele>1.58</ele>
        <time>2018-07-02T11:27:06Z</time>
      </trkpt>
      <trkpt lat="50.961103001609445" lon="1.855733999982476">
        <ele>1.1</ele>
        <time>2018-07-02T11:27:09Z</time>
      </trkpt>
      <trkpt lat="50.961012979969382" lon="1.855617994442582">
        <ele>1.1</ele>
        <time>2018-07-02T11:27:11Z</time>
      </trkpt>
      <trkpt lat="50.960996970534325" lon="1.855544988065958">
        <ele>1.1</ele>
        <time>2018-07-02T11:27:12Z</time>
      </trkpt>
      <trkpt lat="50.960978027433157" lon="1.855461001396179">
        <ele>0.62</ele>
        <time>2018-07-02T11:27:13Z</time>
      </trkpt>
      <trkpt lat="50.960959000512958" lon="1.855372991412878">
        <ele>0.62</ele>
        <time>2018-07-02T11:27:14Z</time>
      </trkpt>
      <trkpt lat="50.960939973592758" lon="1.855287998914719">
        <ele>0.62</ele>
        <time>2018-07-02T11:27:15Z</time>
      </trkpt>
      <trkpt lat="50.96089999191463" lon="1.855113990604878">
        <ele>0.62</ele>
        <time>2018-07-02T11:27:17Z</time>
      </trkpt>
      <trkpt lat="50.960880964994431" lon="1.855026986449957">
        <ele>0.62</ele>
        <time>2018-07-02T11:27:18Z</time>
      </trkpt>
      <trkpt lat="50.960861016064882" lon="1.854939982295036">
        <ele>0.14</ele>
        <time>2018-07-02T11:27:19Z</time>
      </trkpt>
      <trkpt lat="50.960840983316302" lon="1.854850966483355">
        <ele>0.14</ele>
        <time>2018-07-02T11:27:20Z</time>
      </trkpt>
      <trkpt lat="50.960822040215135" lon="1.854763040319085">
        <ele>0.62</ele>
        <time>2018-07-02T11:27:21Z</time>
      </trkpt>
      <trkpt lat="50.960623975843191" lon="1.853941027075052">
        <ele>1.58</ele>
        <time>2018-07-02T11:27:32Z</time>
      </trkpt>
      <trkpt lat="50.960575025528669" lon="1.853696024045348">
        <ele>1.58</ele>
        <time>2018-07-02T11:27:35Z</time>
      </trkpt>
      <trkpt lat="50.960557004436851" lon="1.853604996576905">
        <ele>1.58</ele>
        <time>2018-07-02T11:27:36Z</time>
      </trkpt>
      <trkpt lat="50.960397999733686" lon="1.85292799025774">
        <ele>1.58</ele>
        <time>2018-07-02T11:27:43Z</time>
      </trkpt>
      <trkpt lat="50.960152996703982" lon="1.851771958172321">
        <ele>1.1</ele>
        <time>2018-07-02T11:27:55Z</time>
      </trkpt>
      <trkpt lat="50.960136987268925" lon="1.851701969280839">
        <ele>0.62</ele>
        <time>2018-07-02T11:27:56Z</time>
      </trkpt>
      <trkpt lat="50.960123995319009" lon="1.85163801535964">
        <ele>0.62</ele>
        <time>2018-07-02T11:27:57Z</time>
      </trkpt>
      <trkpt lat="50.960109997540712" lon="1.851576995104551">
        <ele>0.62</ele>
        <time>2018-07-02T11:27:58Z</time>
      </trkpt>
      <trkpt lat="50.960098011419177" lon="1.851521003991365">
        <ele>0.62</ele>
        <time>2018-07-02T11:27:59Z</time>
      </trkpt>
      <trkpt lat="50.960084013640881" lon="1.851454032585025">
        <ele>0.62</ele>
        <time>2018-07-02T11:28:00Z</time>
      </trkpt>
      <trkpt lat="50.960051994770765" lon="1.85133702121675">
        <ele>0.62</ele>
        <time>2018-07-02T11:28:03Z</time>
      </trkpt>
      <trkpt lat="50.960055012255907" lon="1.851197965443134">
        <ele>0.14</ele>
        <time>2018-07-02T11:28:04Z</time>
      </trkpt>
      <trkpt lat="50.960084013640881" lon="1.851182961836457">
        <ele>0.14</ele>
        <time>2018-07-02T11:28:05Z</time>
      </trkpt>
      <trkpt lat="50.960173029452562" lon="1.851135017350316">
        <ele>-0.82</ele>
        <time>2018-07-02T11:28:07Z</time>
      </trkpt>
      <trkpt lat="50.960636967793107" lon="1.85088599100709">
        <ele>-0.82</ele>
        <time>2018-07-02T11:28:16Z</time>
      </trkpt>
      <trkpt lat="50.960676027461886" lon="1.850865036249161">
        <ele>-0.82</ele>
        <time>2018-07-02T11:28:17Z</time>
      </trkpt>
      <trkpt lat="50.960708968341351" lon="1.850848020985723">
        <ele>-0.82</ele>
        <time>2018-07-02T11:28:18Z</time>
      </trkpt>
      <trkpt lat="50.960742998868227" lon="1.850829999893904">
        <ele>-0.82</ele>
        <time>2018-07-02T11:28:19Z</time>
      </trkpt>
      <trkpt lat="50.960775017738342" lon="1.850811978802085">
        <ele>0.14</ele>
        <time>2018-07-02T11:28:20Z</time>
      </trkpt>
      <trkpt lat="50.960841989144683" lon="1.850776020437479">
        <ele>2.54</ele>
        <time>2018-07-02T11:28:29Z</time>
      </trkpt>
      <trkpt lat="50.960906026884913" lon="1.850471002981067">
        <ele>3.98</ele>
        <time>2018-07-02T11:28:35Z</time>
      </trkpt>
      <trkpt lat="50.960934022441506" lon="1.850462034344673">
        <ele>4.46</ele>
        <time>2018-07-02T11:28:36Z</time>
      </trkpt>
      <trkpt lat="50.960966963320971" lon="1.850450970232487">
        <ele>3.98</ele>
        <time>2018-07-02T11:28:37Z</time>
      </trkpt>
      <trkpt lat="50.961008034646511" lon="1.850437978282571">
        <ele>3.98</ele>
        <time>2018-07-02T11:28:38Z</time>
      </trkpt>
      <trkpt lat="50.961055979132652" lon="1.850421968847513">
        <ele>3.98</ele>
        <time>2018-07-02T11:28:39Z</time>
      </trkpt>
      <trkpt lat="50.961521007120609" lon="1.850343011319637">
        <ele>1.58</ele>
        <time>2018-07-02T11:28:50Z</time>
      </trkpt>
      <trkpt lat="50.96156501211226" lon="1.850345022976399">
        <ele>1.58</ele>
        <time>2018-07-02T11:28:51Z</time>
      </trkpt>
      <trkpt lat="50.961602982133627" lon="1.85034703463316">
        <ele>1.58</ele>
        <time>2018-07-02T11:28:52Z</time>
      </trkpt>
      <trkpt lat="50.961636006832123" lon="1.850348962470889">
        <ele>1.58</ele>
        <time>2018-07-02T11:28:53Z</time>
      </trkpt>
      <trkpt lat="50.961945969611406" lon="1.850419035181403">
        <ele>2.06</ele>
        <time>2018-07-02T11:29:03Z</time>
      </trkpt>
      <trkpt lat="50.96214797347784" lon="1.850517019629479">
        <ele>3.5</ele>
        <time>2018-07-02T11:29:09Z</time>
      </trkpt>
      <trkpt lat="50.962161971256137" lon="1.85052297078073">
        <ele>3.98</ele>
        <time>2018-07-02T11:29:10Z</time>
      </trkpt>
      <trkpt lat="50.962161971256137" lon="1.85052297078073">
        <ele>4.46</ele>
        <time>2018-07-02T11:29:11Z</time>
      </trkpt>
      <trkpt lat="50.96214503981173" lon="1.850515007972717">
        <ele>4.46</ele>
        <time>2018-07-02T11:29:12Z</time>
      </trkpt>
      <trkpt lat="50.962117966264486" lon="1.850502016022801">
        <ele>4.46</ele>
        <time>2018-07-02T11:29:13Z</time>
      </trkpt>
      <trkpt lat="50.9620810020715" lon="1.850485000759363">
        <ele>4.46</ele>
        <time>2018-07-02T11:29:14Z</time>
      </trkpt>
      <trkpt lat="50.962040014564991" lon="1.850464968010783">
        <ele>4.46</ele>
        <time>2018-07-02T11:29:15Z</time>
      </trkpt>
      <trkpt lat="50.961998021230102" lon="1.850444013252854">
        <ele>4.46</ele>
        <time>2018-07-02T11:29:16Z</time>
      </trkpt>
      <trkpt lat="50.961961979046464" lon="1.850426997989416">
        <ele>4.94</ele>
        <time>2018-07-02T11:29:17Z</time>
      </trkpt>
      <trkpt lat="50.96193297766149" lon="1.85041300021112">
        <ele>4.94</ele>
        <time>2018-07-02T11:29:18Z</time>
      </trkpt>
      <trkpt lat="50.961907999590039" lon="1.850401014089584">
        <ele>5.42</ele>
        <time>2018-07-02T11:29:19Z</time>
      </trkpt>
      <trkpt lat="50.961872041225433" lon="1.850383998826146">
        <ele>5.91</ele>
        <time>2018-07-02T11:29:29Z</time>
      </trkpt>
      <trkpt lat="50.961872041225433" lon="1.850383998826146">
        <ele>5.91</ele>
        <time>2018-07-02T11:30:00Z</time>
      </trkpt>
      <trkpt lat="50.961872041225433" lon="1.850383998826146">
        <ele>5.42</ele>
        <time>2018-07-02T11:31:01Z</time>
      </trkpt>
      <trkpt lat="50.961872041225433" lon="1.850383998826146">
        <ele>5.91</ele>
        <time>2018-07-02T11:31:56Z</time>
      </trkpt>
      <trkpt lat="50.961872041225433" lon="1.850383998826146">
        <ele>5.42</ele>
        <time>2018-07-02T11:32:43Z</time>
      </trkpt>
      <trkpt lat="50.961872041225433" lon="1.850383998826146">
        <ele>5.42</ele>
        <time>2018-07-02T11:33:38Z</time>
      </trkpt>
    </trkseg>
  </trk>

  <trk>
    <name>Track vom: 2018-07-02 13:34</name>
    <extensions>
      <gpxx:TrackExtension>
        <gpxx:DisplayColor>DarkGray</gpxx:DisplayColor>
      </gpxx:TrackExtension>
    </extensions>
    <trkseg>
      <trkpt lat="50.961872041225433" lon="1.850383998826146">
        <ele>5.42</ele>
        <time>2018-07-02T11:34:17Z</time>
      </trkpt>
      <trkpt lat="50.961854020133615" lon="1.850375030189753">
        <ele>5.91</ele>
        <time>2018-07-02T11:35:10Z</time>
      </trkpt>
      <trkpt lat="50.961822001263499" lon="1.850359020754695">
        <ele>5.91</ele>
        <time>2018-07-02T11:35:11Z</time>
      </trkpt>
      <trkpt lat="50.961822001263499" lon="1.850359020754695">
        <ele>5.91</ele>
        <time>2018-07-02T11:35:12Z</time>
      </trkpt>
      <trkpt lat="50.961730973795056" lon="1.850354997441173">
        <ele>5.42</ele>
        <time>2018-07-02T11:35:14Z</time>
      </trkpt>
      <trkpt lat="50.961662996560335" lon="1.85035097412765">
        <ele>5.42</ele>
        <time>2018-07-02T11:35:15Z</time>
      </trkpt>
      <trkpt lat="50.961594013497233" lon="1.85034703463316">
        <ele>5.42</ele>
        <time>2018-07-02T11:35:16Z</time>
      </trkpt>
      <trkpt lat="50.961173996329308" lon="1.85039003379643">
        <ele>4.46</ele>
        <time>2018-07-02T11:35:23Z</time>
      </trkpt>
      <trkpt lat="50.961113981902599" lon="1.850402019917965">
        <ele>3.98</ele>
        <time>2018-07-02T11:35:25Z</time>
      </trkpt>
      <trkpt lat="50.961066037416458" lon="1.85026103630662">
        <ele>3.98</ele>
        <time>2018-07-02T11:35:26Z</time>
      </trkpt>
      <trkpt lat="50.96104902215302" lon="1.850208984687924">
        <ele>4.46</ele>
        <time>2018-07-02T11:35:27Z</time>
      </trkpt>
      <trkpt lat="50.961035024374723" lon="1.850099014118314">
        <ele>4.46</ele>
        <time>2018-07-02T11:35:28Z</time>
      </trkpt>
      <trkpt lat="50.961020020768046" lon="1.849988037720323">
        <ele>4.94</ele>
        <time>2018-07-02T11:35:29Z</time>
      </trkpt>
      <trkpt lat="50.961004011332989" lon="1.849869014695287">
        <ele>4.94</ele>
        <time>2018-07-02T11:35:30Z</time>
      </trkpt>
      <trkpt lat="50.960844000801444" lon="1.848649028688669">
        <ele>5.42</ele>
        <time>2018-07-02T11:35:39Z</time>
      </trkpt>
      <trkpt lat="50.960796978324652" lon="1.848299000412226">
        <ele>6.39</ele>
        <time>2018-07-02T11:35:43Z</time>
      </trkpt>
      <trkpt lat="50.960792033001781" lon="1.848150976002216">
        <ele>6.39</ele>
        <time>2018-07-02T11:35:51Z</time>
      </trkpt>
      <trkpt lat="50.960792033001781" lon="1.848150976002216">
        <ele>6.39</ele>
        <time>2018-07-02T11:35:52Z</time>
      </trkpt>
      <trkpt lat="50.960792033001781" lon="1.847999012097716">
        <ele>6.87</ele>
        <time>2018-07-02T11:35:53Z</time>
      </trkpt>
      <trkpt lat="50.960808964446187" lon="1.847989959642291">
        <ele>7.35</ele>
        <time>2018-07-02T11:35:54Z</time>
      </trkpt>
      <trkpt lat="50.960863027721643" lon="1.847962969914079">
        <ele>7.83</ele>
        <time>2018-07-02T11:35:55Z</time>
      </trkpt>
      <trkpt lat="50.960927987471223" lon="1.847931034862995">
        <ele>7.83</ele>
        <time>2018-07-02T11:35:56Z</time>
      </trkpt>
      <trkpt lat="50.96165201626718" lon="1.847572959959507">
        <ele>6.39</ele>
        <time>2018-07-02T11:36:04Z</time>
      </trkpt>
      <trkpt lat="50.9627699945122" lon="1.847064010798931">
        <ele>5.91</ele>
        <time>2018-07-02T11:36:18Z</time>
      </trkpt>
      <trkpt lat="50.962843000888824" lon="1.847026962786913">
        <ele>5.91</ele>
        <time>2018-07-02T11:36:19Z</time>
      </trkpt>
      <trkpt lat="50.963486982509494" lon="1.84667500667274">
        <ele>6.39</ele>
        <time>2018-07-02T11:36:28Z</time>
      </trkpt>
      <trkpt lat="50.963554959744215" lon="1.846621027216315">
        <ele>6.39</ele>
        <time>2018-07-02T11:36:29Z</time>
      </trkpt>
      <trkpt lat="50.963620003312826" lon="1.846570987254381">
        <ele>6.87</ele>
        <time>2018-07-02T11:36:30Z</time>
      </trkpt>
      <trkpt lat="50.963809015229344" lon="1.846206039190292">
        <ele>7.35</ele>
        <time>2018-07-02T11:36:34Z</time>
      </trkpt>
      <trkpt lat="50.963816978037357" lon="1.846134960651398">
        <ele>7.35</ele>
        <time>2018-07-02T11:36:35Z</time>
      </trkpt>
      <trkpt lat="50.963781019672751" lon="1.846050973981619">
        <ele>7.35</ele>
        <time>2018-07-02T11:36:36Z</time>
      </trkpt>
      <trkpt lat="50.963730979710817" lon="1.845938991755247">
        <ele>7.83</ele>
        <time>2018-07-02T11:36:37Z</time>
      </trkpt>
      <trkpt lat="50.963710024952888" lon="1.845918036997318">
        <ele>7.83</ele>
        <time>2018-07-02T11:36:39Z</time>
      </trkpt>
      <trkpt lat="50.963645987212658" lon="1.845852993428707">
        <ele>7.83</ele>
        <time>2018-07-02T11:36:40Z</time>
      </trkpt>
      <trkpt lat="50.963645987212658" lon="1.845852993428707">
        <ele>7.35</ele>
        <time>2018-07-02T11:36:41Z</time>
      </trkpt>
      <trkpt lat="50.963598964735866" lon="1.845749979838729">
        <ele>7.35</ele>
        <time>2018-07-02T11:36:42Z</time>
      </trkpt>
      <trkpt lat="50.963538028299809" lon="1.845616959035397">
        <ele>7.35</ele>
        <time>2018-07-02T11:36:43Z</time>
      </trkpt>
      <trkpt lat="50.963538028299809" lon="1.845616959035397">
        <ele>7.35</ele>
        <time>2018-07-02T11:36:44Z</time>
      </trkpt>
      <trkpt lat="50.963513972237706" lon="1.84553598985076">
        <ele>7.35</ele>
        <time>2018-07-02T11:36:45Z</time>
      </trkpt>
      <trkpt lat="50.963170984759927" lon="1.844279961660504">
        <ele>5.91</ele>
        <time>2018-07-02T11:36:54Z</time>
      </trkpt>
      <trkpt lat="50.962521973997355" lon="1.841653995215893">
        <ele>5.91</ele>
        <time>2018-07-02T11:37:09Z</time>
      </trkpt>
      <trkpt lat="50.96186600625515" lon="1.838974971324205">
        <ele>6.39</ele>
        <time>2018-07-02T11:37:24Z</time>
      </trkpt>
      <trkpt lat="50.961126973852515" lon="1.83593200519681">
        <ele>4.94</ele>
        <time>2018-07-02T11:37:41Z</time>
      </trkpt>
      <trkpt lat="50.960522973909974" lon="1.833635028451681">
        <ele>3.5</ele>
        <time>2018-07-02T11:37:54Z</time>
      </trkpt>
      <trkpt lat="50.960160959511995" lon="1.832779990509152">
        <ele>3.98</ele>
        <time>2018-07-02T11:38:00Z</time>
      </trkpt>
      <trkpt lat="50.960190966725349" lon="1.832571029663086">
        <ele>3.98</ele>
        <time>2018-07-02T11:38:01Z</time>
      </trkpt>
      <trkpt lat="50.960190966725349" lon="1.832497017458081">
        <ele>3.5</ele>
        <time>2018-07-02T11:38:02Z</time>
      </trkpt>
      <trkpt lat="50.960178980603814" lon="1.832371037453413">
        <ele>3.5</ele>
        <time>2018-07-02T11:38:03Z</time>
      </trkpt>
      <trkpt lat="50.960142016410828" lon="1.832285039126873">
        <ele>3.5</ele>
        <time>2018-07-02T11:38:04Z</time>
      </trkpt>
      <trkpt lat="50.960064986720681" lon="1.832233993336558">
        <ele>3.5</ele>
        <time>2018-07-02T11:38:05Z</time>
      </trkpt>
      <trkpt lat="50.959996003657579" lon="1.832265006378293">
        <ele>3.5</ele>
        <time>2018-07-02T11:38:06Z</time>
      </trkpt>
      <trkpt lat="50.959936995059252" lon="1.832314040511847">
        <ele>3.5</ele>
        <time>2018-07-02T11:38:07Z</time>
      </trkpt>
      <trkpt lat="50.959912016987801" lon="1.832334995269775">
        <ele>3.02</ele>
        <time>2018-07-02T11:38:08Z</time>
      </trkpt>
      <trkpt lat="50.959912016987801" lon="1.832486959174275">
        <ele>2.54</ele>
        <time>2018-07-02T11:38:09Z</time>
      </trkpt>
      <trkpt lat="50.959806991741061" lon="1.832631966099143">
        <ele>2.54</ele>
        <time>2018-07-02T11:38:10Z</time>
      </trkpt>
      <trkpt lat="50.959729040041566" lon="1.832676976919174">
        <ele>2.06</ele>
        <time>2018-07-02T11:38:11Z</time>
      </trkpt>
      <trkpt lat="50.959637006744742" lon="1.83273003436625">
        <ele>1.58</ele>
        <time>2018-07-02T11:38:12Z</time>
      </trkpt>
      <trkpt lat="50.959141971543431" lon="1.833024993538857">
        <ele>0.62</ele>
        <time>2018-07-02T11:38:19Z</time>
      </trkpt>
      <trkpt lat="50.959075000137091" lon="1.833064975216985">
        <ele>0.62</ele>
        <time>2018-07-02T11:38:28Z</time>
      </trkpt>
      <trkpt lat="50.959020014852285" lon="1.833097999915481">
        <ele>0.14</ele>
        <time>2018-07-02T11:38:36Z</time>
      </trkpt>
      <trkpt lat="50.958966035395861" lon="1.833130018785596">
        <ele>0.14</ele>
        <time>2018-07-02T11:38:37Z</time>
      </trkpt>
      <trkpt lat="50.958899985998869" lon="1.833170000463724">
        <ele>0.14</ele>
        <time>2018-07-02T11:38:38Z</time>
      </trkpt>
      <trkpt lat="50.957951992750168" lon="1.833749022334814">
        <ele>1.1</ele>
        <time>2018-07-02T11:38:48Z</time>
      </trkpt>
      <trkpt lat="50.95731002278626" lon="1.834125034511089">
        <ele>1.58</ele>
        <time>2018-07-02T11:38:56Z</time>
      </trkpt>
      <trkpt lat="50.95724799670279" lon="1.834145989269018">
        <ele>1.1</ele>
        <time>2018-07-02T11:38:57Z</time>
      </trkpt>
      <trkpt lat="50.957143977284431" lon="1.834180019795895">
        <ele>1.1</ele>
        <time>2018-07-02T11:38:58Z</time>
      </trkpt>
      <trkpt lat="50.957130985334516" lon="1.83417197316885">
        <ele>0.62</ele>
        <time>2018-07-02T11:38:59Z</time>
      </trkpt>
      <trkpt lat="50.957080023363233" lon="1.834137020632625">
        <ele>0.62</ele>
        <time>2018-07-02T11:39:00Z</time>
      </trkpt>
      <trkpt lat="50.957007016986609" lon="1.834161998704076">
        <ele>0.62</ele>
        <time>2018-07-02T11:39:01Z</time>
      </trkpt>
      <trkpt lat="50.956951025873423" lon="1.834180019795895">
        <ele>0.62</ele>
        <time>2018-07-02T11:39:02Z</time>
      </trkpt>
      <trkpt lat="50.956919007003307" lon="1.834298959001899">
        <ele>0.62</ele>
        <time>2018-07-02T11:39:03Z</time>
      </trkpt>
      <trkpt lat="50.956812975928187" lon="1.834443965926766">
        <ele>0.14</ele>
        <time>2018-07-02T11:39:04Z</time>
      </trkpt>
      <trkpt lat="50.956714991480112" lon="1.834481013938785">
        <ele>0.14</ele>
        <time>2018-07-02T11:39:05Z</time>
      </trkpt>
      <trkpt lat="50.956633016467094" lon="1.834526024758816">
        <ele>0.62</ele>
        <time>2018-07-02T11:39:06Z</time>
      </trkpt>
      <trkpt lat="50.956531008705497" lon="1.834583021700382">
        <ele>0.62</ele>
        <time>2018-07-02T11:39:07Z</time>
      </trkpt>
      <trkpt lat="50.955231981351972" lon="1.835279976949096">
        <ele>0.14</ele>
        <time>2018-07-02T11:39:18Z</time>
      </trkpt>
      <trkpt lat="50.954089025035501" lon="1.835894035175443">
        <ele>1.1</ele>
        <time>2018-07-02T11:39:28Z</time>
      </trkpt>
      <trkpt lat="50.953282015398145" lon="1.836326038464904">
        <ele>1.1</ele>
        <time>2018-07-02T11:39:37Z</time>
      </trkpt>
      <trkpt lat="50.953225018456578" lon="1.836317991837859">
        <ele>1.1</ele>
        <time>2018-07-02T11:39:38Z</time>
      </trkpt>
      <trkpt lat="50.953188976272941" lon="1.836312962695956">
        <ele>1.1</ele>
        <time>2018-07-02T11:39:39Z</time>
      </trkpt>
      <trkpt lat="50.953157963231206" lon="1.836309023201466">
        <ele>1.1</ele>
        <time>2018-07-02T11:39:40Z</time>
      </trkpt>
      <trkpt lat="50.953124016523361" lon="1.836295025423169">
        <ele>1.58</ele>
        <time>2018-07-02T11:39:41Z</time>
      </trkpt>
      <trkpt lat="50.953087974339724" lon="1.836244985461235">
        <ele>1.58</ele>
        <time>2018-07-02T11:39:42Z</time>
      </trkpt>
      <trkpt lat="50.953043969348073" lon="1.836184971034527">
        <ele>1.58</ele>
        <time>2018-07-02T11:39:43Z</time>
      </trkpt>
      <trkpt lat="50.952997030690312" lon="1.836120011284947">
        <ele>1.58</ele>
        <time>2018-07-02T11:39:44Z</time>
      </trkpt>
      <trkpt lat="50.952949002385139" lon="1.836020015180111">
        <ele>1.58</ele>
        <time>2018-07-02T11:39:45Z</time>
      </trkpt>
      <trkpt lat="50.952922012656927" lon="1.835897974669933">
        <ele>1.58</ele>
        <time>2018-07-02T11:39:46Z</time>
      </trkpt>
      <trkpt lat="50.952514987438917" lon="1.834259983152151">
        <ele>3.02</ele>
        <time>2018-07-02T11:39:57Z</time>
      </trkpt>
      <trkpt lat="50.95213302411139" lon="1.832899013534188">
        <ele>2.06</ele>
        <time>2018-07-02T11:40:07Z</time>
      </trkpt>
      <trkpt lat="50.952086001634598" lon="1.832737997174263">
        <ele>1.58</ele>
        <time>2018-07-02T11:40:09Z</time>
      </trkpt>
      <trkpt lat="50.95206999219954" lon="1.832683011889458">
        <ele>1.1</ele>
        <time>2018-07-02T11:40:15Z</time>
      </trkpt>
      <trkpt lat="50.952054988592863" lon="1.832630960270762">
        <ele>1.1</ele>
        <time>2018-07-02T11:40:17Z</time>
      </trkpt>
      <trkpt lat="50.952076027169824" lon="1.832510009407997">
        <ele>0.62</ele>
        <time>2018-07-02T11:40:18Z</time>
      </trkpt>
      <trkpt lat="50.952182980254292" lon="1.832309011369944">
        <ele>1.1</ele>
        <time>2018-07-02T11:40:20Z</time>
      </trkpt>
      <trkpt lat="50.952164037153125" lon="1.832196023315191">
        <ele>1.1</ele>
        <time>2018-07-02T11:40:21Z</time>
      </trkpt>
      <trkpt lat="50.952126989141107" lon="1.832056967541575">
        <ele>1.1</ele>
        <time>2018-07-02T11:40:22Z</time>
      </trkpt>
      <trkpt lat="50.952066974714398" lon="1.831987984478474">
        <ele>1.1</ele>
        <time>2018-07-02T11:40:23Z</time>
      </trkpt>
      <trkpt lat="50.951981982216239" lon="1.831931993365288">
        <ele>0.62</ele>
        <time>2018-07-02T11:40:24Z</time>
      </trkpt>
      <trkpt lat="50.951905958354473" lon="1.831942973658443">
        <ele>0.62</ele>
        <time>2018-07-02T11:40:25Z</time>
      </trkpt>
      <trkpt lat="50.951834041625261" lon="1.832025032490492">
        <ele>0.62</ele>
        <time>2018-07-02T11:40:26Z</time>
      </trkpt>
      <trkpt lat="50.951792970299721" lon="1.832121005281806">
        <ele>0.62</ele>
        <time>2018-07-02T11:40:27Z</time>
      </trkpt>
      <trkpt lat="50.951758017763495" lon="1.832205997779965">
        <ele>0.62</ele>
        <time>2018-07-02T11:40:28Z</time>
      </trkpt>
      <trkpt lat="50.951778972521424" lon="1.832319991663098">
        <ele>0.62</ele>
        <time>2018-07-02T11:40:29Z</time>
      </trkpt>
      <trkpt lat="50.951766986399889" lon="1.832520989701152">
        <ele>1.1</ele>
        <time>2018-07-02T11:40:30Z</time>
      </trkpt>
      <trkpt lat="50.951718958094716" lon="1.832632971927524">
        <ele>1.1</ele>
        <time>2018-07-02T11:40:31Z</time>
      </trkpt>
      <trkpt lat="50.951667996123433" lon="1.83275199495256">
        <ele>1.1</ele>
        <time>2018-07-02T11:40:32Z</time>
      </trkpt>
      <trkpt lat="50.951087968423963" lon="1.834123022854328">
        <ele>2.06</ele>
        <time>2018-07-02T11:40:41Z</time>
      </trkpt>
      <trkpt lat="50.950529985129833" lon="1.83539598248899">
        <ele>2.06</ele>
        <time>2018-07-02T11:40:50Z</time>
      </trkpt>
      <trkpt lat="50.950323035940528" lon="1.835805019363761">
        <ele>2.06</ele>
        <time>2018-07-02T11:40:53Z</time>
      </trkpt>
      <trkpt lat="50.950250029563904" lon="1.835941979661584">
        <ele>2.06</ele>
        <time>2018-07-02T11:40:54Z</time>
      </trkpt>
      <trkpt lat="50.949433967471123" lon="1.837391965091229">
        <ele>1.1</ele>
        <time>2018-07-02T11:41:05Z</time>
      </trkpt>
      <trkpt lat="50.949351992458105" lon="1.837497996166349">
        <ele>1.1</ele>
        <time>2018-07-02T11:41:06Z</time>
      </trkpt>
      <trkpt lat="50.949268005788326" lon="1.83760603889823">
        <ele>1.1</ele>
        <time>2018-07-02T11:41:07Z</time>
      </trkpt>
      <trkpt lat="50.948883024975657" lon="1.837942991405726">
        <ele>0.14</ele>
        <time>2018-07-02T11:41:11Z</time>
      </trkpt>
      <trkpt lat="50.948774982243776" lon="1.838021026924253">
        <ele>0.14</ele>
        <time>2018-07-02T11:41:12Z</time>
      </trkpt>
      <trkpt lat="50.94867599196732" lon="1.83803896419704">
        <ele>-0.34</ele>
        <time>2018-07-02T11:41:13Z</time>
      </trkpt>
      <trkpt lat="50.948574990034103" lon="1.838056985288858">
        <ele>-0.34</ele>
        <time>2018-07-02T11:41:14Z</time>
      </trkpt>
      <trkpt lat="50.948473988100886" lon="1.838075006380677">
        <ele>0.62</ele>
        <time>2018-07-02T11:41:15Z</time>
      </trkpt>
      <trkpt lat="50.948368962854147" lon="1.838094033300877">
        <ele>1.1</ele>
        <time>2018-07-02T11:41:16Z</time>
      </trkpt>
      <trkpt lat="50.946987960487604" lon="1.838162010535598">
        <ele>5.42</ele>
        <time>2018-07-02T11:41:29Z</time>
      </trkpt>
      <trkpt lat="50.946565009653568" lon="1.838171985000372">
        <ele>6.87</ele>
        <time>2018-07-02T11:41:34Z</time>
      </trkpt>
      <trkpt lat="50.946495020762086" lon="1.838105013594031">
        <ele>6.87</ele>
        <time>2018-07-02T11:41:35Z</time>
      </trkpt>
      <trkpt lat="50.946426037698984" lon="1.838040975853801">
        <ele>6.87</ele>
        <time>2018-07-02T11:41:36Z</time>
      </trkpt>
      <trkpt lat="50.946361999958754" lon="1.837980961427093">
        <ele>6.39</ele>
        <time>2018-07-02T11:41:37Z</time>
      </trkpt>
      <trkpt lat="50.946306008845568" lon="1.837927987799048">
        <ele>6.39</ele>
        <time>2018-07-02T11:41:38Z</time>
      </trkpt>
      <trkpt lat="50.946254963055253" lon="1.837880965322256">
        <ele>6.39</ele>
        <time>2018-07-02T11:41:39Z</time>
      </trkpt>
      <trkpt lat="50.946207018569112" lon="1.837805025279522">
        <ele>6.39</ele>
        <time>2018-07-02T11:41:40Z</time>
      </trkpt>
      <trkpt lat="50.946169970557094" lon="1.837707962840796">
        <ele>6.39</ele>
        <time>2018-07-02T11:41:41Z</time>
      </trkpt>
      <trkpt lat="50.946115991100669" lon="1.837633028626442">
        <ele>6.39</ele>
        <time>2018-07-02T11:41:42Z</time>
      </trkpt>
      <trkpt lat="50.946024963632226" lon="1.837571002542973">
        <ele>6.39</ele>
        <time>2018-07-02T11:41:43Z</time>
      </trkpt>
      <trkpt lat="50.945907030254602" lon="1.837589023634791">
        <ele>5.91</ele>
        <time>2018-07-02T11:41:44Z</time>
      </trkpt>
      <trkpt lat="50.945840980857611" lon="1.837670998647809">
        <ele>5.91</ele>
        <time>2018-07-02T11:41:45Z</time>
      </trkpt>
      <trkpt lat="50.945770991966128" lon="1.837870990857482">
        <ele>5.91</ele>
        <time>2018-07-02T11:41:46Z</time>
      </trkpt>
      <trkpt lat="50.945732016116381" lon="1.837920024991036">
        <ele>5.42</ele>
        <time>2018-07-02T11:41:47Z</time>
      </trkpt>
      <trkpt lat="50.945653980597854" lon="1.83801700361073">
        <ele>4.94</ele>
        <time>2018-07-02T11:41:48Z</time>
      </trkpt>
      <trkpt lat="50.945570999756455" lon="1.838097972795367">
        <ele>4.46</ele>
        <time>2018-07-02T11:41:49Z</time>
      </trkpt>
      <trkpt lat="50.945462035015225" lon="1.83814499527216">
        <ele>3.98</ele>
        <time>2018-07-02T11:41:50Z</time>
      </trkpt>
      <trkpt lat="50.945346029475331" lon="1.83816796168685">
        <ele>3.98</ele>
        <time>2018-07-02T11:41:51Z</time>
      </trkpt>
      <trkpt lat="50.945221977308393" lon="1.83818900026381">
        <ele>3.98</ele>
        <time>2018-07-02T11:41:52Z</time>
      </trkpt>
      <trkpt lat="50.943923033773899" lon="1.83831699192524">
        <ele>2.54</ele>
        <time>2018-07-02T11:42:02Z</time>
      </trkpt>
      <trkpt lat="50.943417018279433" lon="1.838350016623735">
        <ele>1.58</ele>
        <time>2018-07-02T11:42:07Z</time>
      </trkpt>
      <trkpt lat="50.943349963054061" lon="1.838354039937258">
        <ele>1.58</ele>
        <time>2018-07-02T11:42:08Z</time>
      </trkpt>
      <trkpt lat="50.943305036053061" lon="1.838356973603368">
        <ele>1.58</ele>
        <time>2018-07-02T11:42:09Z</time>
      </trkpt>
      <trkpt lat="50.943171009421349" lon="1.838226970285177">
        <ele>1.58</ele>
        <time>2018-07-02T11:42:10Z</time>
      </trkpt>
      <trkpt lat="50.943162040784955" lon="1.838172990828753">
        <ele>1.58</ele>
        <time>2018-07-02T11:42:11Z</time>
      </trkpt>
      <trkpt lat="50.94315298832953" lon="1.838128985837102">
        <ele>2.06</ele>
        <time>2018-07-02T11:42:14Z</time>
      </trkpt>
      <trkpt lat="50.94315298832953" lon="1.838128985837102">
        <ele>2.06</ele>
        <time>2018-07-02T11:42:15Z</time>
      </trkpt>
      <trkpt lat="50.943135973066092" lon="1.838128985837102">
        <ele>2.54</ele>
        <time>2018-07-02T11:42:16Z</time>
      </trkpt>
      <trkpt lat="50.94311099499464" lon="1.838129991665483">
        <ele>3.02</ele>
        <time>2018-07-02T11:42:17Z</time>
      </trkpt>
      <trkpt lat="50.94315298832953" lon="1.838128985837102">
        <ele>3.02</ele>
        <time>2018-07-02T11:42:18Z</time>
      </trkpt>
      <trkpt lat="50.943157011643052" lon="1.83814600110054">
        <ele>3.5</ele>
        <time>2018-07-02T11:42:19Z</time>
      </trkpt>
      <trkpt lat="50.943162040784955" lon="1.838178019970655">
        <ele>3.5</ele>
        <time>2018-07-02T11:42:20Z</time>
      </trkpt>
      <trkpt lat="50.943170003592968" lon="1.838216995820403">
        <ele>3.5</ele>
        <time>2018-07-02T11:42:21Z</time>
      </trkpt>
      <trkpt lat="50.943175032734871" lon="1.838248008862138">
        <ele>3.5</ele>
        <time>2018-07-02T11:42:22Z</time>
      </trkpt>
      <trkpt lat="50.9431959874928" lon="1.838365020230413">
        <ele>3.5</ele>
        <time>2018-07-02T11:42:23Z</time>
      </trkpt>
      <trkpt lat="50.9431959874928" lon="1.838365020230413">
        <ele>3.98</ele>
        <time>2018-07-02T11:42:33Z</time>
      </trkpt>
      <trkpt lat="50.9431959874928" lon="1.838365020230413">
        <ele>3.98</ele>
        <time>2018-07-02T11:42:34Z</time>
      </trkpt>
      <trkpt lat="50.943032959476113" lon="1.838371977210045">
        <ele>3.5</ele>
        <time>2018-07-02T11:42:35Z</time>
      </trkpt>
      <trkpt lat="50.94295802526176" lon="1.838374994695187">
        <ele>3.5</ele>
        <time>2018-07-02T11:42:36Z</time>
      </trkpt>
      <trkpt lat="50.942868003621697" lon="1.838379018008709">
        <ele>3.02</ele>
        <time>2018-07-02T11:42:37Z</time>
      </trkpt>
      <trkpt lat="50.942763984203339" lon="1.83838396333158">
        <ele>3.02</ele>
        <time>2018-07-02T11:42:38Z</time>
      </trkpt>
      <trkpt lat="50.941847003996372" lon="1.83823199942708">
        <ele>1.58</ele>
        <time>2018-07-02T11:42:46Z</time>
      </trkpt>
      <trkpt lat="50.941744996234775" lon="1.838182965293527">
        <ele>1.58</ele>
        <time>2018-07-02T11:42:47Z</time>
      </trkpt>
      <trkpt lat="50.941483983770013" lon="1.837998982518911">
        <ele>1.1</ele>
        <time>2018-07-02T11:42:50Z</time>
      </trkpt>
      <trkpt lat="50.941413994878531" lon="1.83788800612092">
        <ele>1.58</ele>
        <time>2018-07-02T11:42:51Z</time>
      </trkpt>
      <trkpt lat="50.941376024857163" lon="1.837773006409407">
        <ele>1.1</ele>
        <time>2018-07-02T11:42:52Z</time>
      </trkpt>
      <trkpt lat="50.941312992945313" lon="1.837667981162667">
        <ele>1.1</ele>
        <time>2018-07-02T11:42:53Z</time>
      </trkpt>
      <trkpt lat="50.941209979355335" lon="1.837595980614424">
        <ele>0.62</ele>
        <time>2018-07-02T11:42:54Z</time>
      </trkpt>
      <trkpt lat="50.941120963543653" lon="1.837620958685875">
        <ele>0.62</ele>
        <time>2018-07-02T11:42:55Z</time>
      </trkpt>
      <trkpt lat="50.941072013229132" lon="1.837635040283203">
        <ele>0.14</ele>
        <time>2018-07-02T11:42:56Z</time>
      </trkpt>
      <trkpt lat="50.940948966890574" lon="1.83782497420907">
        <ele>-0.34</ele>
        <time>2018-07-02T11:42:57Z</time>
      </trkpt>
      <trkpt lat="50.940865986049175" lon="1.837817011401057">
        <ele>-0.82</ele>
        <time>2018-07-02T11:42:58Z</time>
      </trkpt>
      <trkpt lat="50.940778981894255" lon="1.837808964774013">
        <ele>-0.82</ele>
        <time>2018-07-02T11:42:59Z</time>
      </trkpt>
      <trkpt lat="50.940683009102941" lon="1.837798990309238">
        <ele>-0.82</ele>
        <time>2018-07-02T11:43:00Z</time>
      </trkpt>
      <trkpt lat="50.940581001341343" lon="1.837790021672845">
        <ele>-0.82</ele>
        <time>2018-07-02T11:43:01Z</time>
      </trkpt>
      <trkpt lat="50.940477987751365" lon="1.837764037773013">
        <ele>-1.3</ele>
        <time>2018-07-02T11:43:02Z</time>
      </trkpt>
      <trkpt lat="50.939652035012841" lon="1.837210999801755">
        <ele>-0.34</ele>
        <time>2018-07-02T11:43:11Z</time>
      </trkpt>
      <trkpt lat="50.939601995050907" lon="1.837143022567034">
        <ele>-0.34</ele>
        <time>2018-07-02T11:43:12Z</time>
      </trkpt>
      <trkpt lat="50.939561007544398" lon="1.837042020633817">
        <ele>0.14</ele>
        <time>2018-07-02T11:43:13Z</time>
      </trkpt>
      <trkpt lat="50.939542986452579" lon="1.836936995387077">
        <ele>0.14</ele>
        <time>2018-07-02T11:43:14Z</time>
      </trkpt>
      <trkpt lat="50.93952395953238" lon="1.836820989847183">
        <ele>0.14</ele>
        <time>2018-07-02T11:43:15Z</time>
      </trkpt>
      <trkpt lat="50.939494036138058" lon="1.836694004014134">
        <ele>0.14</ele>
        <time>2018-07-02T11:43:16Z</time>
      </trkpt>
      <trkpt lat="50.939434021711349" lon="1.83659702539444">
        <ele>0.14</ele>
        <time>2018-07-02T11:43:17Z</time>
      </trkpt>
      <trkpt lat="50.939369983971119" lon="1.836495017632842">
        <ele>0.14</ele>
        <time>2018-07-02T11:43:18Z</time>
      </trkpt>
      <trkpt lat="50.939304018393159" lon="1.836388986557722">
        <ele>0.62</ele>
        <time>2018-07-02T11:43:19Z</time>
      </trkpt>
      <trkpt lat="50.939291026443243" lon="1.836369037628174">
        <ele>1.1</ele>
        <time>2018-07-02T11:43:20Z</time>
      </trkpt>
      <trkpt lat="50.939141996204853" lon="1.836304999887943">
        <ele>1.1</ele>
        <time>2018-07-02T11:43:21Z</time>
      </trkpt>
      <trkpt lat="50.939031019806862" lon="1.836304999887943">
        <ele>1.58</ele>
        <time>2018-07-02T11:43:22Z</time>
      </trkpt>
      <trkpt lat="50.93891903758049" lon="1.836304999887943">
        <ele>1.58</ele>
        <time>2018-07-02T11:43:23Z</time>
      </trkpt>
      <trkpt lat="50.938817029818892" lon="1.836370965465903">
        <ele>1.58</ele>
        <time>2018-07-02T11:43:24Z</time>
      </trkpt>
      <trkpt lat="50.938722984865308" lon="1.836465010419488">
        <ele>1.1</ele>
        <time>2018-07-02T11:43:25Z</time>
      </trkpt>
      <trkpt lat="50.938650984317064" lon="1.83657799847424">
        <ele>1.1</ele>
        <time>2018-07-02T11:43:26Z</time>
      </trkpt>
      <trkpt lat="50.938584012910724" lon="1.836689980700612">
        <ele>1.1</ele>
        <time>2018-07-02T11:43:27Z</time>
      </trkpt>
      <trkpt lat="50.938480999320745" lon="1.836735997349024">
        <ele>1.1</ele>
        <time>2018-07-02T11:43:28Z</time>
      </trkpt>
      <trkpt lat="50.938399024307728" lon="1.83677296154201">
        <ele>1.1</ele>
        <time>2018-07-02T11:43:29Z</time>
      </trkpt>
      <trkpt lat="50.938311014324427" lon="1.83674999512732">
        <ele>1.1</ele>
        <time>2018-07-02T11:43:30Z</time>
      </trkpt>
      <trkpt lat="50.938197020441294" lon="1.836712025105953">
        <ele>1.58</ele>
        <time>2018-07-02T11:43:31Z</time>
      </trkpt>
      <trkpt lat="50.938130971044302" lon="1.836665002629161">
        <ele>1.1</ele>
        <time>2018-07-02T11:43:32Z</time>
      </trkpt>
      <trkpt lat="50.937275011092424" lon="1.836052034050226">
        <ele>0.14</ele>
        <time>2018-07-02T11:43:41Z</time>
      </trkpt>
      <trkpt lat="50.937206028029323" lon="1.836001994088292">
        <ele>0.14</ele>
        <time>2018-07-02T11:43:42Z</time>
      </trkpt>
      <trkpt lat="50.937146013602614" lon="1.835958994925022">
        <ele>-0.34</ele>
        <time>2018-07-02T11:43:43Z</time>
      </trkpt>
      <trkpt lat="50.937078036367893" lon="1.835765959694982">
        <ele>-0.34</ele>
        <time>2018-07-02T11:43:44Z</time>
      </trkpt>
      <trkpt lat="50.937102008610964" lon="1.835596980527043">
        <ele>-0.34</ele>
        <time>2018-07-02T11:43:45Z</time>
      </trkpt>
      <trkpt lat="50.937093961983919" lon="1.835504025220871">
        <ele>-0.34</ele>
        <time>2018-07-02T11:43:46Z</time>
      </trkpt>
      <trkpt lat="50.937078958377242" lon="1.835358012467623">
        <ele>-0.34</ele>
        <time>2018-07-02T11:43:47Z</time>
      </trkpt>
      <trkpt lat="50.937021961435676" lon="1.835264973342419">
        <ele>0.14</ele>
        <time>2018-07-02T11:43:48Z</time>
      </trkpt>
      <trkpt lat="50.936955995857716" lon="1.835179980844259">
        <ele>0.14</ele>
        <time>2018-07-02T11:43:49Z</time>
      </trkpt>
      <trkpt lat="50.936875026673079" lon="1.835139999166131">
        <ele>-0.34</ele>
        <time>2018-07-02T11:43:50Z</time>
      </trkpt>
      <trkpt lat="50.936785005033016" lon="1.835113009437919">
        <ele>-1.3</ele>
        <time>2018-07-02T11:43:51Z</time>
      </trkpt>
      <trkpt lat="50.936702024191618" lon="1.83515902608633">
        <ele>-1.79</ele>
        <time>2018-07-02T11:43:52Z</time>
      </trkpt>
      <trkpt lat="50.936615020036697" lon="1.835205964744091">
        <ele>-2.27</ele>
        <time>2018-07-02T11:43:53Z</time>
      </trkpt>
      <trkpt lat="50.936566991731524" lon="1.835342003032565">
        <ele>-2.75</ele>
        <time>2018-07-02T11:43:54Z</time>
      </trkpt>
      <trkpt lat="50.936541007831693" lon="1.835426995530725">
        <ele>-3.23</ele>
        <time>2018-07-02T11:43:55Z</time>
      </trkpt>
      <trkpt lat="50.936529021710157" lon="1.835464965552092">
        <ele>-3.23</ele>
        <time>2018-07-02T11:43:56Z</time>
      </trkpt>
      <trkpt lat="50.936520975083113" lon="1.835489021614194">
        <ele>-3.71</ele>
        <time>2018-07-02T11:43:57Z</time>
      </trkpt>
      <trkpt lat="50.936479987576604" lon="1.835618019104004">
        <ele>-3.23</ele>
        <time>2018-07-02T11:44:02Z</time>
      </trkpt>
      <trkpt lat="50.936391977593303" lon="1.835803007707">
        <ele>-3.23</ele>
        <time>2018-07-02T11:44:04Z</time>
      </trkpt>
      <trkpt lat="50.936337998136878" lon="1.835914989933372">
        <ele>-3.71</ele>
        <time>2018-07-02T11:44:05Z</time>
      </trkpt>
      <trkpt lat="50.936244037002325" lon="1.836111964657903">
        <ele>-3.23</ele>
        <time>2018-07-02T11:44:06Z</time>
      </trkpt>
      <trkpt lat="50.935368966311216" lon="1.836929032579064">
        <ele>-3.23</ele>
        <time>2018-07-02T11:44:14Z</time>
      </trkpt>
      <trkpt lat="50.933952005580068" lon="1.838108031079173">
        <ele>-0.82</ele>
        <time>2018-07-02T11:44:25Z</time>
      </trkpt>
      <trkpt lat="50.93384999781847" lon="1.83812202885747">
        <ele>-0.82</ele>
        <time>2018-07-02T11:44:26Z</time>
      </trkpt>
      <trkpt lat="50.933733992278576" lon="1.838107025250793">
        <ele>-0.34</ele>
        <time>2018-07-02T11:44:27Z</time>
      </trkpt>
      <trkpt lat="50.933669032528996" lon="1.838150024414063">
        <ele>-0.34</ele>
        <time>2018-07-02T11:44:28Z</time>
      </trkpt>
      <trkpt lat="50.933551015332341" lon="1.838283967226744">
        <ele>-0.82</ele>
        <time>2018-07-02T11:44:29Z</time>
      </trkpt>
      <trkpt lat="50.933435009792447" lon="1.838341969996691">
        <ele>-0.82</ele>
        <time>2018-07-02T11:44:30Z</time>
      </trkpt>
      <trkpt lat="50.933309029787779" lon="1.838405001908541">
        <ele>-1.3</ele>
        <time>2018-07-02T11:44:31Z</time>
      </trkpt>
      <trkpt lat="50.933161005377769" lon="1.838453030213714">
        <ele>-1.3</ele>
        <time>2018-07-02T11:44:32Z</time>
      </trkpt>
      <trkpt lat="50.9317019674927" lon="1.838511032983661">
        <ele>-2.27</ele>
        <time>2018-07-02T11:44:40Z</time>
      </trkpt>
      <trkpt lat="50.929299965500832" lon="1.838831976056099">
        <ele>5.91</ele>
        <time>2018-07-02T11:44:52Z</time>
      </trkpt>
      <trkpt lat="50.927013969048858" lon="1.839150991290808">
        <ele>0.14</ele>
        <time>2018-07-02T11:45:04Z</time>
      </trkpt>
      <trkpt lat="50.92516802251339" lon="1.83909198269248">
        <ele>-2.75</ele>
        <time>2018-07-02T11:45:14Z</time>
      </trkpt>
      <trkpt lat="50.9237099904567" lon="1.83823199942708">
        <ele>-3.71</ele>
        <time>2018-07-02T11:45:22Z</time>
      </trkpt>
      <trkpt lat="50.92317396774888" lon="1.83795003220439">
        <ele>-3.71</ele>
        <time>2018-07-02T11:45:25Z</time>
      </trkpt>
      <trkpt lat="50.922995014116168" lon="1.837921030819416">
        <ele>-3.71</ele>
        <time>2018-07-02T11:45:26Z</time>
      </trkpt>
      <trkpt lat="50.922814970836043" lon="1.837900998070836">
        <ele>-3.71</ele>
        <time>2018-07-02T11:45:27Z</time>
      </trkpt>
      <trkpt lat="50.922636017203331" lon="1.837881971150637">
        <ele>-3.71</ele>
        <time>2018-07-02T11:45:28Z</time>
      </trkpt>
      <trkpt lat="50.92246200889349" lon="1.837894963100553">
        <ele>-3.71</ele>
        <time>2018-07-02T11:45:29Z</time>
      </trkpt>
      <trkpt lat="50.922295041382313" lon="1.8379529658705">
        <ele>-4.19</ele>
        <time>2018-07-02T11:45:30Z</time>
      </trkpt>
      <trkpt lat="50.922135030850768" lon="1.838008034974337">
        <ele>-4.19</ele>
        <time>2018-07-02T11:45:31Z</time>
      </trkpt>
      <trkpt lat="50.921984994783998" lon="1.838060002774">
        <ele>-4.19</ele>
        <time>2018-07-02T11:45:32Z</time>
      </trkpt>
      <trkpt lat="50.921846022829413" lon="1.838143989443779">
        <ele>-4.19</ele>
        <time>2018-07-02T11:45:33Z</time>
      </trkpt>
      <trkpt lat="50.921719036996365" lon="1.838258989155293">
        <ele>-4.19</ele>
        <time>2018-07-02T11:45:34Z</time>
      </trkpt>
      <trkpt lat="50.921592973172665" lon="1.838373988866806">
        <ele>-4.19</ele>
        <time>2018-07-02T11:45:35Z</time>
      </trkpt>
      <trkpt lat="50.921199023723602" lon="1.83883398771286">
        <ele>-3.71</ele>
        <time>2018-07-02T11:45:39Z</time>
      </trkpt>
      <trkpt lat="50.921133980154991" lon="1.838920991867781">
        <ele>-3.71</ele>
        <time>2018-07-02T11:45:40Z</time>
      </trkpt>
      <trkpt lat="50.920944968238473" lon="1.838814960792661">
        <ele>-3.23</ele>
        <time>2018-07-02T11:45:41Z</time>
      </trkpt>
      <trkpt lat="50.920944968238473" lon="1.838814960792661">
        <ele>-3.23</ele>
        <time>2018-07-02T11:45:42Z</time>
      </trkpt>
      <trkpt lat="50.920944968238473" lon="1.838814960792661">
        <ele>-3.23</ele>
        <time>2018-07-02T11:45:43Z</time>
      </trkpt>
      <trkpt lat="50.920709017664194" lon="1.838751006871462">
        <ele>-3.71</ele>
        <time>2018-07-02T11:45:44Z</time>
      </trkpt>
      <trkpt lat="50.920630982145667" lon="1.838611029088497">
        <ele>-3.71</ele>
        <time>2018-07-02T11:45:45Z</time>
      </trkpt>
      <trkpt lat="50.920541966333985" lon="1.838453030213714">
        <ele>-4.19</ele>
        <time>2018-07-02T11:45:46Z</time>
      </trkpt>
      <trkpt lat="50.920449011027813" lon="1.838285978883505">
        <ele>-4.19</ele>
        <time>2018-07-02T11:45:47Z</time>
      </trkpt>
      <trkpt lat="50.919501017779112" lon="1.836575986817479">
        <ele>-4.19</ele>
        <time>2018-07-02T11:45:55Z</time>
      </trkpt>
      <trkpt lat="50.917936032637954" lon="1.834245985373855">
        <ele>-2.27</ele>
        <time>2018-07-02T11:46:05Z</time>
      </trkpt>
      <trkpt lat="50.915971985086799" lon="1.832074988633394">
        <ele>-1.79</ele>
        <time>2018-07-02T11:46:17Z</time>
      </trkpt>
      <trkpt lat="50.913707027211785" lon="1.82959696277976">
        <ele>1.1</ele>
        <time>2018-07-02T11:46:31Z</time>
      </trkpt>
      <trkpt lat="50.910651991143823" lon="1.826301030814648">
        <ele>7.35</ele>
        <time>2018-07-02T11:46:50Z</time>
      </trkpt>
      <trkpt lat="50.907486984506249" lon="1.822838969528675">
        <ele>14.08</ele>
        <time>2018-07-02T11:47:11Z</time>
      </trkpt>
      <trkpt lat="50.905080959200859" lon="1.820151982828975">
        <ele>17.440000000000001</ele>
        <time>2018-07-02T11:47:27Z</time>
      </trkpt>
      <trkpt lat="50.903858039528131" lon="1.818880029022694">
        <ele>18.399999999999999</ele>
        <time>2018-07-02T11:47:36Z</time>
      </trkpt>
      <trkpt lat="50.903441961854696" lon="1.818469986319542">
        <ele>18.879999999999999</ele>
        <time>2018-07-02T11:47:40Z</time>
      </trkpt>
      <trkpt lat="50.903358981013298" lon="1.818351969122887">
        <ele>18.879999999999999</ele>
        <time>2018-07-02T11:47:41Z</time>
      </trkpt>
      <trkpt lat="50.903282035142183" lon="1.818243004381657">
        <ele>18.879999999999999</ele>
        <time>2018-07-02T11:47:42Z</time>
      </trkpt>
      <trkpt lat="50.903207017108798" lon="1.818137979134917">
        <ele>19.359999999999999</ele>
        <time>2018-07-02T11:47:43Z</time>
      </trkpt>
      <trkpt lat="50.903138034045696" lon="1.818039994686842">
        <ele>19.359999999999999</ele>
        <time>2018-07-02T11:47:44Z</time>
      </trkpt>
      <trkpt lat="50.903076007962227" lon="1.817952990531921">
        <ele>19.359999999999999</ele>
        <time>2018-07-02T11:47:45Z</time>
      </trkpt>
      <trkpt lat="50.903092017397285" lon="1.817615032196045">
        <ele>19.359999999999999</ele>
        <time>2018-07-02T11:47:46Z</time>
      </trkpt>
      <trkpt lat="50.903087994083762" lon="1.817602040246129">
        <ele>19.359999999999999</ele>
        <time>2018-07-02T11:47:47Z</time>
      </trkpt>
      <trkpt lat="50.903054969385266" lon="1.817490980029106">
        <ele>19.84</ele>
        <time>2018-07-02T11:47:48Z</time>
      </trkpt>
      <trkpt lat="50.902983974665403" lon="1.81736801750958">
        <ele>19.84</ele>
        <time>2018-07-02T11:47:49Z</time>
      </trkpt>
      <trkpt lat="50.902941981330514" lon="1.817335998639464">
        <ele>20.32</ele>
        <time>2018-07-02T11:47:50Z</time>
      </trkpt>
      <trkpt lat="50.902724973857403" lon="1.817441023886204">
        <ele>20.32</ele>
        <time>2018-07-02T11:47:51Z</time>
      </trkpt>
      <trkpt lat="50.902650961652398" lon="1.817333986982703">
        <ele>20.32</ele>
        <time>2018-07-02T11:47:52Z</time>
      </trkpt>
      <trkpt lat="50.902565969154239" lon="1.817213958129287">
        <ele>19.84</ele>
        <time>2018-07-02T11:47:53Z</time>
      </trkpt>
      <trkpt lat="50.902473013848066" lon="1.817080015316606">
        <ele>19.84</ele>
        <time>2018-07-02T11:47:54Z</time>
      </trkpt>
      <trkpt lat="50.901570031419396" lon="1.816065972670913">
        <ele>21.289999999999999</ele>
        <time>2018-07-02T11:48:01Z</time>
      </trkpt>
      <trkpt lat="50.899962969124317" lon="1.815104987472296">
        <ele>22.73</ele>
        <time>2018-07-02T11:48:10Z</time>
      </trkpt>
      <trkpt lat="50.899777980521321" lon="1.815066011622548">
        <ele>22.73</ele>
        <time>2018-07-02T11:48:11Z</time>
      </trkpt>
      <trkpt lat="50.899588968604803" lon="1.815056959167123">
        <ele>22.73</ele>
        <time>2018-07-02T11:48:12Z</time>
      </trkpt>
      <trkpt lat="50.899404985830188" lon="1.815099958330393">
        <ele>22.73</ele>
        <time>2018-07-02T11:48:13Z</time>
      </trkpt>
      <trkpt lat="50.899221003055573" lon="1.815143963322043">
        <ele>23.210000000000001</ele>
        <time>2018-07-02T11:48:14Z</time>
      </trkpt>
      <trkpt lat="50.899038026109338" lon="1.815186962485313">
        <ele>23.210000000000001</ele>
        <time>2018-07-02T11:48:15Z</time>
      </trkpt>
      <trkpt lat="50.898842979222536" lon="1.815232979133725">
        <ele>23.210000000000001</ele>
        <time>2018-07-02T11:48:16Z</time>
      </trkpt>
      <trkpt lat="50.89867701753974" lon="1.815325012430549">
        <ele>23.690000000000001</ele>
        <time>2018-07-02T11:48:17Z</time>
      </trkpt>
      <trkpt lat="50.896170996129513" lon="1.816700985655189">
        <ele>28.98</ele>
        <time>2018-07-02T11:48:31Z</time>
      </trkpt>
      <trkpt lat="50.893380995839834" lon="1.81820604018867">
        <ele>29.460000000000001</ele>
        <time>2018-07-02T11:48:47Z</time>
      </trkpt>
      <trkpt lat="50.8910739608109" lon="1.819264004006982">
        <ele>17.440000000000001</ele>
        <time>2018-07-02T11:49:00Z</time>
      </trkpt>
      <trkpt lat="50.888742031529546" lon="1.819644961506128">
        <ele>20.809999999999999</ele>
        <time>2018-07-02T11:49:13Z</time>
      </trkpt>
      <trkpt lat="50.886748982593417" lon="1.820300007238984">
        <ele>25.129999999999999</ele>
        <time>2018-07-02T11:49:24Z</time>
      </trkpt>
      <trkpt lat="50.884277997538447" lon="1.8214510101825">
        <ele>27.530000000000001</ele>
        <time>2018-07-02T11:49:38Z</time>
      </trkpt>
      <trkpt lat="50.882315961644053" lon="1.822273023426533">
        <ele>27.530000000000001</ele>
        <time>2018-07-02T11:49:49Z</time>
      </trkpt>
      <trkpt lat="50.879799965769053" lon="1.823155973106623">
        <ele>20.809999999999999</ele>
        <time>2018-07-02T11:50:03Z</time>
      </trkpt>
      <trkpt lat="50.877016000449657" lon="1.824626997113228">
        <ele>17.920000000000002</ele>
        <time>2018-07-02T11:50:19Z</time>
      </trkpt>
      <trkpt lat="50.874987998977304" lon="1.825980003923178">
        <ele>20.32</ele>
        <time>2018-07-02T11:50:31Z</time>
      </trkpt>
      <trkpt lat="50.872352980077267" lon="1.827991995960474">
        <ele>23.210000000000001</ele>
        <time>2018-07-02T11:50:47Z</time>
      </trkpt>
      <trkpt lat="50.87190899066627" lon="1.828458029776812">
        <ele>26.09</ele>
        <time>2018-07-02T11:50:50Z</time>
      </trkpt>
      <trkpt lat="50.871784016489983" lon="1.828658021986485">
        <ele>27.050000000000001</ele>
        <time>2018-07-02T11:50:51Z</time>
      </trkpt>
      <trkpt lat="50.871658036485314" lon="1.828857008367777">
        <ele>28.02</ele>
        <time>2018-07-02T11:50:52Z</time>
      </trkpt>
      <trkpt lat="50.871538007631898" lon="1.82905800640583">
        <ele>28.5</ele>
        <time>2018-07-02T11:50:53Z</time>
      </trkpt>
      <trkpt lat="50.871449997648597" lon="1.829281970858574">
        <ele>29.460000000000001</ele>
        <time>2018-07-02T11:50:54Z</time>
      </trkpt>
      <trkpt lat="50.87136902846396" lon="1.829485986381769">
        <ele>30.899999999999999</ele>
        <time>2018-07-02T11:50:55Z</time>
      </trkpt>
      <trkpt lat="50.871164007112384" lon="1.83000298216939">
        <ele>32.82</ele>
        <time>2018-07-02T11:50:58Z</time>
      </trkpt>
      <trkpt lat="50.871098963543773" lon="1.830137008801103">
        <ele>33.780000000000001</ele>
        <time>2018-07-02T11:50:59Z</time>
      </trkpt>
      <trkpt lat="50.870977006852627" lon="1.830359967425466">
        <ele>34.740000000000002</ele>
        <time>2018-07-02T11:51:01Z</time>
      </trkpt>
      <trkpt lat="50.870925039052963" lon="1.830455018207431">
        <ele>35.229999999999997</ele>
        <time>2018-07-02T11:51:02Z</time>
      </trkpt>
      <trkpt lat="50.870831999927759" lon="1.83062500320375">
        <ele>35.710000000000001</ele>
        <time>2018-07-02T11:51:04Z</time>
      </trkpt>
      <trkpt lat="50.870626978576183" lon="1.830574963241816">
        <ele>35.710000000000001</ele>
        <time>2018-07-02T11:51:05Z</time>
      </trkpt>
      <trkpt lat="50.870626978576183" lon="1.830574963241816">
        <ele>36.189999999999998</ele>
        <time>2018-07-02T11:51:06Z</time>
      </trkpt>
      <trkpt lat="50.870592026039958" lon="1.830479996278882">
        <ele>36.670000000000002</ele>
        <time>2018-07-02T11:51:07Z</time>
      </trkpt>
      <trkpt lat="50.87055598385632" lon="1.830383017659187">
        <ele>36.670000000000002</ele>
        <time>2018-07-02T11:51:08Z</time>
      </trkpt>
      <trkpt lat="50.870519019663334" lon="1.830278998240829">
        <ele>36.189999999999998</ele>
        <time>2018-07-02T11:51:09Z</time>
      </trkpt>
      <trkpt lat="50.870478032156825" lon="1.830168021842837">
        <ele>36.189999999999998</ele>
        <time>2018-07-02T11:51:10Z</time>
      </trkpt>
      <trkpt lat="50.870450958609581" lon="1.830036006867886">
        <ele>36.189999999999998</ele>
        <time>2018-07-02T11:51:11Z</time>
      </trkpt>
      <trkpt lat="50.870442995801568" lon="1.829881025478244">
        <ele>36.189999999999998</ele>
        <time>2018-07-02T11:51:12Z</time>
      </trkpt>
      <trkpt lat="50.870433021336794" lon="1.829716991633177">
        <ele>36.189999999999998</ele>
        <time>2018-07-02T11:51:13Z</time>
      </trkpt>
      <trkpt lat="50.87040301412344" lon="1.828129962086678">
        <ele>34.259999999999998</ele>
        <time>2018-07-02T11:51:23Z</time>
      </trkpt>
      <trkpt lat="50.870407037436962" lon="1.828029965981841">
        <ele>33.780000000000001</ele>
        <time>2018-07-02T11:51:24Z</time>
      </trkpt>
      <trkpt lat="50.870331013575196" lon="1.827905997633934">
        <ele>33.780000000000001</ele>
        <time>2018-07-02T11:51:25Z</time>
      </trkpt>
      <trkpt lat="50.870272004976869" lon="1.827914966270328">
        <ele>33.299999999999997</ele>
        <time>2018-07-02T11:51:26Z</time>
      </trkpt>
      <trkpt lat="50.870197992771864" lon="1.827927036210895">
        <ele>32.82</ele>
        <time>2018-07-02T11:51:27Z</time>
      </trkpt>
      <trkpt lat="50.870110988616943" lon="1.827941033989191">
        <ele>32.340000000000003</ele>
        <time>2018-07-02T11:51:28Z</time>
      </trkpt>
      <trkpt lat="50.870004035532475" lon="1.827957965433598">
        <ele>32.340000000000003</ele>
        <time>2018-07-02T11:51:29Z</time>
      </trkpt>
      <trkpt lat="50.869915019720793" lon="1.828028960153461">
        <ele>31.859999999999999</ele>
        <time>2018-07-02T11:51:30Z</time>
      </trkpt>
      <trkpt lat="50.869813011959195" lon="1.828112024813891">
        <ele>31.859999999999999</ele>
        <time>2018-07-02T11:51:31Z</time>
      </trkpt>
      <trkpt lat="50.869107004255056" lon="1.828647963702679">
        <ele>34.740000000000002</ele>
        <time>2018-07-02T11:51:37Z</time>
      </trkpt>
      <trkpt lat="50.868979012593627" lon="1.828709989786148">
        <ele>35.710000000000001</ele>
        <time>2018-07-02T11:51:38Z</time>
      </trkpt>
      <trkpt lat="50.868844985961914" lon="1.828720970079303">
        <ele>36.670000000000002</ele>
        <time>2018-07-02T11:51:39Z</time>
      </trkpt>
      <trkpt lat="50.868715988472104" lon="1.828725999221206">
        <ele>37.630000000000003</ele>
        <time>2018-07-02T11:51:40Z</time>
      </trkpt>
      <trkpt lat="50.868584979325533" lon="1.828704960644245">
        <ele>38.109999999999999</ele>
        <time>2018-07-02T11:51:41Z</time>
      </trkpt>
      <trkpt lat="50.868457993492484" lon="1.828672019764781">
        <ele>39.07</ele>
        <time>2018-07-02T11:51:42Z</time>
      </trkpt>
      <trkpt lat="50.868338970467448" lon="1.828589038923383">
        <ele>39.549999999999997</ele>
        <time>2018-07-02T11:51:43Z</time>
      </trkpt>
      <trkpt lat="50.868218019604683" lon="1.828506980091333">
        <ele>40.030000000000001</ele>
        <time>2018-07-02T11:51:44Z</time>
      </trkpt>
      <trkpt lat="50.868100002408028" lon="1.828402038663626">
        <ele>40.509999999999998</ele>
        <time>2018-07-02T11:51:45Z</time>
      </trkpt>
      <trkpt lat="50.867994977161288" lon="1.828261977061629">
        <ele>40.990000000000002</ele>
        <time>2018-07-02T11:51:46Z</time>
      </trkpt>
      <trkpt lat="50.867886012420058" lon="1.828118981793523">
        <ele>41.469999999999999</ele>
        <time>2018-07-02T11:51:47Z</time>
      </trkpt>
      <trkpt lat="50.866930978372693" lon="1.827098987996578">
        <ele>44.359999999999999</ele>
        <time>2018-07-02T11:51:54Z</time>
      </trkpt>
      <trkpt lat="50.865095006301999" lon="1.825709016993642">
        <ele>48.68</ele>
        <time>2018-07-02T11:52:04Z</time>
      </trkpt>
      <trkpt lat="50.862689986824989" lon="1.824690029025078">
        <ele>52.530000000000001</ele>
        <time>2018-07-02T11:52:15Z</time>
      </trkpt>
      <trkpt lat="50.860624015331268" lon="1.824012016877532">
        <ele>55.890000000000001</ele>
        <time>2018-07-02T11:52:25Z</time>
      </trkpt>
      <trkpt lat="50.860452018678188" lon="1.824019979685545">
        <ele>56.369999999999997</ele>
        <time>2018-07-02T11:52:26Z</time>
      </trkpt>
      <trkpt lat="50.86028303951025" lon="1.824027020484209">
        <ele>56.369999999999997</ele>
        <time>2018-07-02T11:52:27Z</time>
      </trkpt>
      <trkpt lat="50.860116994008422" lon="1.824065996333957">
        <ele>56.369999999999997</ele>
        <time>2018-07-02T11:52:28Z</time>
      </trkpt>
      <trkpt lat="50.859951032325625" lon="1.8241379968822">
        <ele>56.369999999999997</ele>
        <time>2018-07-02T11:52:29Z</time>
      </trkpt>
      <trkpt lat="50.858400966972113" lon="1.824689023196697">
        <ele>60.219999999999999</ele>
        <time>2018-07-02T11:52:39Z</time>
      </trkpt>
      <trkpt lat="50.857865028083324" lon="1.824822966009378">
        <ele>62.140000000000001</ele>
        <time>2018-07-02T11:52:45Z</time>
      </trkpt>
      <trkpt lat="50.857707029208541" lon="1.824885997921228">
        <ele>63.579999999999998</ele>
        <time>2018-07-02T11:52:53Z</time>
      </trkpt>
      <trkpt lat="50.857666041702032" lon="1.82491097599268">
        <ele>63.579999999999998</ele>
        <time>2018-07-02T11:52:55Z</time>
      </trkpt>
      <trkpt lat="50.85764198563993" lon="1.824880968779326">
        <ele>63.579999999999998</ele>
        <time>2018-07-02T11:52:56Z</time>
      </trkpt>
      <trkpt lat="50.857603009790182" lon="1.824831012636423">
        <ele>63.579999999999998</ele>
        <time>2018-07-02T11:52:57Z</time>
      </trkpt>
      <trkpt lat="50.857548024505377" lon="1.824763035401702">
        <ele>64.069999999999993</ele>
        <time>2018-07-02T11:52:58Z</time>
      </trkpt>
      <trkpt lat="50.857482980936766" lon="1.824681982398033">
        <ele>64.069999999999993</ele>
        <time>2018-07-02T11:52:59Z</time>
      </trkpt>
      <trkpt lat="50.857407040894032" lon="1.8245870154351">
        <ele>64.069999999999993</ele>
        <time>2018-07-02T11:53:00Z</time>
      </trkpt>
      <trkpt lat="50.856562983244658" lon="1.823498960584402">
        <ele>64.549999999999997</ele>
        <time>2018-07-02T11:53:08Z</time>
      </trkpt>
      <trkpt lat="50.855364035815001" lon="1.821480011567473">
        <ele>60.700000000000003</ele>
        <time>2018-07-02T11:53:19Z</time>
      </trkpt>
      <trkpt lat="50.854316968470812" lon="1.819644961506128">
        <ele>58.780000000000001</ele>
        <time>2018-07-02T11:53:27Z</time>
      </trkpt>
      <trkpt lat="50.852445038035512" lon="1.816094974055886">
        <ele>73.200000000000003</ele>
        <time>2018-07-02T11:53:39Z</time>
      </trkpt>
      <trkpt lat="50.851597040891647" lon="1.814495958387852">
        <ele>80.890000000000001</ele>
        <time>2018-07-02T11:53:46Z</time>
      </trkpt>
      <trkpt lat="50.851027993485332" lon="1.81339499540627">
        <ele>86.180000000000007</ele>
        <time>2018-07-02T11:53:53Z</time>
      </trkpt>
      <trkpt lat="50.850473027676344" lon="1.81236301548779">
        <ele>89.060000000000002</ele>
        <time>2018-07-02T11:54:04Z</time>
      </trkpt>
      <trkpt lat="50.850350987166166" lon="1.812109965831041">
        <ele>90.019999999999996</ele>
        <time>2018-07-02T11:54:07Z</time>
      </trkpt>
      <trkpt lat="50.850313017144799" lon="1.812032014131546">
        <ele>90.5</ele>
        <time>2018-07-02T11:54:08Z</time>
      </trkpt>
      <trkpt lat="50.85027102380991" lon="1.81195599026978">
        <ele>90.980000000000004</ele>
        <time>2018-07-02T11:54:09Z</time>
      </trkpt>
      <trkpt lat="50.850219978019595" lon="1.811864040791988">
        <ele>90.980000000000004</ele>
        <time>2018-07-02T11:54:10Z</time>
      </trkpt>
      <trkpt lat="50.850190976634622" lon="1.811806038022041">
        <ele>90.980000000000004</ele>
        <time>2018-07-02T11:54:11Z</time>
      </trkpt>
      <trkpt lat="50.850155018270016" lon="1.811735965311527">
        <ele>91.459999999999994</ele>
        <time>2018-07-02T11:54:12Z</time>
      </trkpt>
      <trkpt lat="50.849965000525117" lon="1.811381997540593">
        <ele>91.939999999999998</ele>
        <time>2018-07-02T11:54:16Z</time>
      </trkpt>
      <trkpt lat="50.849398970603943" lon="1.810326967388392">
        <ele>91.459999999999994</ele>
        <time>2018-07-02T11:54:23Z</time>
      </trkpt>
      <trkpt lat="50.848369002342224" lon="1.808377001434565">
        <ele>98.189999999999998</ele>
        <time>2018-07-02T11:54:31Z</time>
      </trkpt>
      <trkpt lat="50.847387984395027" lon="1.806505993008614">
        <ele>106.84</ele>
        <time>2018-07-02T11:54:39Z</time>
      </trkpt>
      <trkpt lat="50.846136985346675" lon="1.80402796715498">
        <ele>110.69</ele>
        <time>2018-07-02T11:54:49Z</time>
      </trkpt>
      <trkpt lat="50.846065990626812" lon="1.803733007982373">
        <ele>110.69</ele>
        <time>2018-07-02T11:54:50Z</time>
      </trkpt>
      <trkpt lat="50.845992984250188" lon="1.803424973040819">
        <ele>110.69</ele>
        <time>2018-07-02T11:54:51Z</time>
      </trkpt>
      <trkpt lat="50.845980998128653" lon="1.803114004433155">
        <ele>110.69</ele>
        <time>2018-07-02T11:54:52Z</time>
      </trkpt>
      <trkpt lat="50.845978986471891" lon="1.802793983370066">
        <ele>111.17</ele>
        <time>2018-07-02T11:54:53Z</time>
      </trkpt>
      <trkpt lat="50.84601704031229" lon="1.802486032247543">
        <ele>111.65000000000001</ele>
        <time>2018-07-02T11:54:54Z</time>
      </trkpt>
      <trkpt lat="50.846418030560017" lon="1.79930099286139">
        <ele>114.53</ele>
        <time>2018-07-02T11:55:03Z</time>
      </trkpt>
      <trkpt lat="50.84726401604712" lon="1.792497988790274">
        <ele>116.94</ele>
        <time>2018-07-02T11:55:21Z</time>
      </trkpt>
      <trkpt lat="50.847528968006372" lon="1.790380971506238">
        <ele>117.42</ele>
        <time>2018-07-02T11:55:28Z</time>
      </trkpt>
      <trkpt lat="50.847641034051776" lon="1.789142964407802">
        <ele>117.90000000000001</ele>
        <time>2018-07-02T11:55:33Z</time>
      </trkpt>
      <trkpt lat="50.847636004909873" lon="1.788908019661903">
        <ele>117.90000000000001</ele>
        <time>2018-07-02T11:55:34Z</time>
      </trkpt>
      <trkpt lat="50.847381027415395" lon="1.787261981517077">
        <ele>115.98</ele>
        <time>2018-07-02T11:55:41Z</time>
      </trkpt>
      <trkpt lat="50.847324030473828" lon="1.787015972658992">
        <ele>115.5</ele>
        <time>2018-07-02T11:55:42Z</time>
      </trkpt>
      <trkpt lat="50.846544010564685" lon="1.785591971129179">
        <ele>110.20999999999999</ele>
        <time>2018-07-02T11:55:49Z</time>
      </trkpt>
      <trkpt lat="50.845080027356744" lon="1.78387401625514">
        <ele>105.88</ele>
        <time>2018-07-02T11:56:00Z</time>
      </trkpt>
      <trkpt lat="50.843837996944785" lon="1.782409027218819">
        <ele>109.73</ele>
        <time>2018-07-02T11:56:13Z</time>
      </trkpt>
      <trkpt lat="50.842620022594929" lon="1.780815962702036">
        <ele>112.61</ele>
        <time>2018-07-02T11:56:26Z</time>
      </trkpt>
      <trkpt lat="50.842395974323153" lon="1.780266026034951">
        <ele>113.56999999999999</ele>
        <time>2018-07-02T11:56:32Z</time>
      </trkpt>
      <trkpt lat="50.842319028452039" lon="1.780047006905079">
        <ele>114.05</ele>
        <time>2018-07-02T11:56:41Z</time>
      </trkpt>
      <trkpt lat="50.842305030673742" lon="1.780008031055331">
        <ele>113.56999999999999</ele>
        <time>2018-07-02T11:56:46Z</time>
      </trkpt>
      <trkpt lat="50.842292960733175" lon="1.779972994700074">
        <ele>113.56999999999999</ele>
        <time>2018-07-02T11:56:47Z</time>
      </trkpt>
      <trkpt lat="50.84227804094553" lon="1.779931001365185">
        <ele>113.56999999999999</ele>
        <time>2018-07-02T11:56:48Z</time>
      </trkpt>
      <trkpt lat="50.842212997376919" lon="1.779745006933808">
        <ele>114.53</ele>
        <time>2018-07-02T11:56:52Z</time>
      </trkpt>
      <trkpt lat="50.842180978506804" lon="1.779655991122127">
        <ele>114.53</ele>
        <time>2018-07-02T11:56:53Z</time>
      </trkpt>
      <trkpt lat="50.842139991000295" lon="1.779537973925471">
        <ele>114.53</ele>
        <time>2018-07-02T11:56:54Z</time>
      </trkpt>
      <trkpt lat="50.842042006552219" lon="1.779262041673064">
        <ele>114.05</ele>
        <time>2018-07-02T11:56:56Z</time>
      </trkpt>
      <trkpt lat="50.841541020199656" lon="1.777838040143251">
        <ele>113.56999999999999</ele>
        <time>2018-07-02T11:57:04Z</time>
      </trkpt>
      <trkpt lat="50.840822020545602" lon="1.775900982320309">
        <ele>113.56999999999999</ele>
        <time>2018-07-02T11:57:14Z</time>
      </trkpt>
      <trkpt lat="50.840749014168978" lon="1.77579402923584">
        <ele>113.56999999999999</ele>
        <time>2018-07-02T11:57:15Z</time>
      </trkpt>
      <trkpt lat="50.840677013620734" lon="1.77568799816072">
        <ele>113.56999999999999</ele>
        <time>2018-07-02T11:57:16Z</time>
      </trkpt>
      <trkpt lat="50.840609036386013" lon="1.775588002055883">
        <ele>113.56999999999999</ele>
        <time>2018-07-02T11:57:17Z</time>
      </trkpt>
      <trkpt lat="50.840546004474163" lon="1.775494962930679">
        <ele>113.56999999999999</ele>
        <time>2018-07-02T11:57:18Z</time>
      </trkpt>
      <trkpt lat="50.840456988662481" lon="1.775364959612489">
        <ele>114.05</ele>
        <time>2018-07-02T11:57:20Z</time>
      </trkpt>
      <trkpt lat="50.840409966185689" lon="1.775107970461249">
        <ele>114.53</ele>
        <time>2018-07-02T11:57:24Z</time>
      </trkpt>
      <trkpt lat="50.840380964800715" lon="1.774947037920356">
        <ele>115.01000000000001</ele>
        <time>2018-07-02T11:57:26Z</time>
      </trkpt>
      <trkpt lat="50.840265965089202" lon="1.774284029379487">
        <ele>115.5</ele>
        <time>2018-07-02T11:57:33Z</time>
      </trkpt>
      <trkpt lat="50.840250039473176" lon="1.774229966104031">
        <ele>115.5</ele>
        <time>2018-07-02T11:57:34Z</time>
      </trkpt>
      <trkpt lat="50.840230006724596" lon="1.774169029667974">
        <ele>115.5</ele>
        <time>2018-07-02T11:57:35Z</time>
      </trkpt>
      <trkpt lat="50.840211985632777" lon="1.774114966392517">
        <ele>115.5</ele>
        <time>2018-07-02T11:57:36Z</time>
      </trkpt>
      <trkpt lat="50.8401969820261" lon="1.774070961400867">
        <ele>115.5</ele>
        <time>2018-07-02T11:57:37Z</time>
      </trkpt>
      <trkpt lat="50.840186001732945" lon="1.774035003036261">
        <ele>115.98</ele>
        <time>2018-07-02T11:57:38Z</time>
      </trkpt>
      <trkpt lat="50.840176027268171" lon="1.774006001651287">
        <ele>115.98</ele>
        <time>2018-07-02T11:57:39Z</time>
      </trkpt>
      <trkpt lat="50.840168986469507" lon="1.773986974731088">
        <ele>116.45999999999999</ele>
        <time>2018-07-02T11:57:40Z</time>
      </trkpt>
      <trkpt lat="50.840160017833114" lon="1.773959985002875">
        <ele>115.98</ele>
        <time>2018-07-02T11:57:42Z</time>
      </trkpt>
      <trkpt lat="50.839979974552989" lon="1.774064004421234">
        <ele>115.98</ele>
        <time>2018-07-02T11:57:45Z</time>
      </trkpt>
      <trkpt lat="50.839914008975029" lon="1.774121001362801">
        <ele>116.94</ele>
        <time>2018-07-02T11:57:56Z</time>
      </trkpt>
      <trkpt lat="50.839910991489887" lon="1.77411999553442">
        <ele>116.94</ele>
        <time>2018-07-02T11:58:32Z</time>
      </trkpt>
      <trkpt lat="50.839855000376701" lon="1.774228038266301">
        <ele>103.95999999999999</ele>
        <time>2018-07-02T12:02:10Z</time>
      </trkpt>
      <trkpt lat="50.839859023690224" lon="1.774234995245934">
        <ele>112.13</ele>
        <time>2018-07-02T12:02:49Z</time>
      </trkpt>
      <trkpt lat="50.839882995933294" lon="1.774229966104031">
        <ele>109.73</ele>
        <time>2018-07-02T12:03:28Z</time>
      </trkpt>
      <trkpt lat="50.840012999251485" lon="1.774578988552094">
        <ele>114.53</ele>
        <time>2018-07-02T12:03:37Z</time>
      </trkpt>
      <trkpt lat="50.839991960674524" lon="1.77469901740551">
        <ele>115.5</ele>
        <time>2018-07-02T12:03:39Z</time>
      </trkpt>
      <trkpt lat="50.839932030066848" lon="1.774935973808169">
        <ele>116.45999999999999</ele>
        <time>2018-07-02T12:03:50Z</time>
      </trkpt>
      <trkpt lat="50.839932030066848" lon="1.774935973808169">
        <ele>116.45999999999999</ele>
        <time>2018-07-02T12:03:59Z</time>
      </trkpt>
      <trkpt lat="50.839917026460171" lon="1.775091039016843">
        <ele>116.94</ele>
        <time>2018-07-02T12:04:02Z</time>
      </trkpt>
      <trkpt lat="50.83993898704648" lon="1.775097995996475">
        <ele>116.94</ele>
        <time>2018-07-02T12:04:03Z</time>
      </trkpt>
      <trkpt lat="50.839975029230118" lon="1.77510897628963">
        <ele>116.94</ele>
        <time>2018-07-02T12:04:04Z</time>
      </trkpt>
      <trkpt lat="50.840017022565007" lon="1.775121968239546">
        <ele>116.94</ele>
        <time>2018-07-02T12:04:05Z</time>
      </trkpt>
      <trkpt lat="50.84006798453629" lon="1.775137977674604">
        <ele>116.94</ele>
        <time>2018-07-02T12:04:06Z</time>
      </trkpt>
      <trkpt lat="50.840120958164334" lon="1.775154992938042">
        <ele>117.42</ele>
        <time>2018-07-02T12:04:07Z</time>
      </trkpt>
      <trkpt lat="50.840327991172671" lon="1.775262029841542">
        <ele>118.86</ele>
        <time>2018-07-02T12:04:15Z</time>
      </trkpt>
      <trkpt lat="50.840341988950968" lon="1.775273010134697">
        <ele>119.34</ele>
        <time>2018-07-02T12:04:16Z</time>
      </trkpt>
      <trkpt lat="50.840456988662481" lon="1.775364959612489">
        <ele>119.34</ele>
        <time>2018-07-02T12:04:17Z</time>
      </trkpt>
      <trkpt lat="50.840456988662481" lon="1.775364959612489">
        <ele>119.81999999999999</ele>
        <time>2018-07-02T12:04:18Z</time>
      </trkpt>
      <trkpt lat="50.840456988662481" lon="1.775364959612489">
        <ele>119.81999999999999</ele>
        <time>2018-07-02T12:04:19Z</time>
      </trkpt>
      <trkpt lat="50.840330002829432" lon="1.775263035669923">
        <ele>120.3</ele>
        <time>2018-07-02T12:04:20Z</time>
      </trkpt>
      <trkpt lat="50.840313993394375" lon="1.775249959900975">
        <ele>120.3</ele>
        <time>2018-07-02T12:04:21Z</time>
      </trkpt>
      <trkpt lat="50.840296978130937" lon="1.775236967951059">
        <ele>120.3</ele>
        <time>2018-07-02T12:04:22Z</time>
      </trkpt>
      <trkpt lat="50.84028197452426" lon="1.775224981829524">
        <ele>120.3</ele>
        <time>2018-07-02T12:04:23Z</time>
      </trkpt>
      <trkpt lat="50.840273005887866" lon="1.775217019021511">
        <ele>120.3</ele>
        <time>2018-07-02T12:04:24Z</time>
      </trkpt>
      <trkpt lat="50.840242998674512" lon="1.775192962959409">
        <ele>120.3</ele>
        <time>2018-07-02T12:04:25Z</time>
      </trkpt>
      <trkpt lat="50.840242998674512" lon="1.775192962959409">
        <ele>119.81999999999999</ele>
        <time>2018-07-02T12:04:26Z</time>
      </trkpt>
      <trkpt lat="50.840242998674512" lon="1.775192962959409">
        <ele>119.81999999999999</ele>
        <time>2018-07-02T12:04:27Z</time>
      </trkpt>
      <trkpt lat="50.840223971754313" lon="1.775188017636538">
        <ele>119.81999999999999</ele>
        <time>2018-07-02T12:04:28Z</time>
      </trkpt>
      <trkpt lat="50.840179966762662" lon="1.775174019858241">
        <ele>119.81999999999999</ele>
        <time>2018-07-02T12:04:29Z</time>
      </trkpt>
      <trkpt lat="50.840122969821095" lon="1.775155998766422">
        <ele>119.81999999999999</ele>
        <time>2018-07-02T12:04:30Z</time>
      </trkpt>
      <trkpt lat="50.839332975447178" lon="1.774907978251576">
        <ele>119.34</ele>
        <time>2018-07-02T12:04:39Z</time>
      </trkpt>
      <trkpt lat="50.83783202804625" lon="1.774501036852598">
        <ele>116.94</ele>
        <time>2018-07-02T12:04:52Z</time>
      </trkpt>
      <trkpt lat="50.837603034451604" lon="1.774488966912031">
        <ele>116.94</ele>
        <time>2018-07-02T12:04:54Z</time>
      </trkpt>
      <trkpt lat="50.837499015033245" lon="1.77454998716712">
        <ele>116.94</ele>
        <time>2018-07-02T12:04:55Z</time>
      </trkpt>
      <trkpt lat="50.837399018928409" lon="1.774608995765448">
        <ele>116.94</ele>
        <time>2018-07-02T12:04:56Z</time>
      </trkpt>
      <trkpt lat="50.837324000895023" lon="1.774653000757098">
        <ele>116.94</ele>
        <time>2018-07-02T12:04:57Z</time>
      </trkpt>
      <trkpt lat="50.837281001731753" lon="1.774677978828549">
        <ele>116.94</ele>
        <time>2018-07-02T12:04:58Z</time>
      </trkpt>
      <trkpt lat="50.83723003976047" lon="1.774623999372125">
        <ele>116.94</ele>
        <time>2018-07-02T12:04:59Z</time>
      </trkpt>
      <trkpt lat="50.837191985920072" lon="1.774584017693996">
        <ele>116.94</ele>
        <time>2018-07-02T12:05:00Z</time>
      </trkpt>
      <trkpt lat="50.837148986756802" lon="1.774538001045585">
        <ele>116.45999999999999</ele>
        <time>2018-07-02T12:05:01Z</time>
      </trkpt>
      <trkpt lat="50.837099030613899" lon="1.774485027417541">
        <ele>116.45999999999999</ele>
        <time>2018-07-02T12:05:02Z</time>
      </trkpt>
      <trkpt lat="50.836441973224282" lon="1.773877004161477">
        <ele>112.61</ele>
        <time>2018-07-02T12:05:10Z</time>
      </trkpt>
      <trkpt lat="50.835493979975581" lon="1.773201003670692">
        <ele>108.77</ele>
        <time>2018-07-02T12:05:20Z</time>
      </trkpt>
      <trkpt lat="50.834680013358593" lon="1.772807976230979">
        <ele>110.69</ele>
        <time>2018-07-02T12:05:29Z</time>
      </trkpt>
      <trkpt lat="50.834608012810349" lon="1.77282901480794">
        <ele>111.17</ele>
        <time>2018-07-02T12:05:30Z</time>
      </trkpt>
      <trkpt lat="50.834560990333557" lon="1.772881988435984">
        <ele>111.17</ele>
        <time>2018-07-02T12:05:31Z</time>
      </trkpt>
      <trkpt lat="50.834506005048752" lon="1.772946026176214">
        <ele>111.65000000000001</ele>
        <time>2018-07-02T12:05:32Z</time>
      </trkpt>
      <trkpt lat="50.834450013935566" lon="1.773009980097413">
        <ele>112.13</ele>
        <time>2018-07-02T12:05:33Z</time>
      </trkpt>
      <trkpt lat="50.834392011165619" lon="1.773076029494405">
        <ele>112.13</ele>
        <time>2018-07-02T12:05:34Z</time>
      </trkpt>
      <trkpt lat="50.834326967597008" lon="1.77313101477921">
        <ele>112.13</ele>
        <time>2018-07-02T12:05:35Z</time>
      </trkpt>
      <trkpt lat="50.834259996190667" lon="1.773122968152165">
        <ele>111.65000000000001</ele>
        <time>2018-07-02T12:05:36Z</time>
      </trkpt>
      <trkpt lat="50.834169974550605" lon="1.773111987859011">
        <ele>111.17</ele>
        <time>2018-07-02T12:05:37Z</time>
      </trkpt>
      <trkpt lat="50.834120018407702" lon="1.773069994524121">
        <ele>111.17</ele>
        <time>2018-07-02T12:05:38Z</time>
      </trkpt>
      <trkpt lat="50.83405002951622" lon="1.773010985925794">
        <ele>111.17</ele>
        <time>2018-07-02T12:05:39Z</time>
      </trkpt>
      <trkpt lat="50.83379496820271" lon="1.772798001766205">
        <ele>109.73</ele>
        <time>2018-07-02T12:05:46Z</time>
      </trkpt>
      <trkpt lat="50.833721961826086" lon="1.772736981511116">
        <ele>108.29000000000001</ele>
        <time>2018-07-02T12:06:00Z</time>
      </trkpt>
      <trkpt lat="50.833088038489223" lon="1.772205987945199">
        <ele>104.92</ele>
        <time>2018-07-02T12:06:10Z</time>
      </trkpt>
      <trkpt lat="50.8323759958148" lon="1.771610034629703">
        <ele>103.95999999999999</ele>
        <time>2018-07-02T12:06:19Z</time>
      </trkpt>
      <trkpt lat="50.832295026630163" lon="1.771550020202994">
        <ele>103.95999999999999</ele>
        <time>2018-07-02T12:06:20Z</time>
      </trkpt>
      <trkpt lat="50.832205004990101" lon="1.771500986069441">
        <ele>103.95999999999999</ele>
        <time>2018-07-02T12:06:21Z</time>
      </trkpt>
      <trkpt lat="50.832009958103299" lon="1.771392021328211">
        <ele>103.48</ele>
        <time>2018-07-02T12:06:23Z</time>
      </trkpt>
      <trkpt lat="50.831897975876927" lon="1.77134701050818">
        <ele>103.48</ele>
        <time>2018-07-02T12:06:24Z</time>
      </trkpt>
      <trkpt lat="50.831411993131042" lon="1.771282972767949">
        <ele>102.52</ele>
        <time>2018-07-02T12:06:28Z</time>
      </trkpt>
      <trkpt lat="50.831187022849917" lon="1.771189011633396">
        <ele>100.59999999999999</ele>
        <time>2018-07-02T12:06:30Z</time>
      </trkpt>
      <trkpt lat="50.831099012866616" lon="1.77111298777163">
        <ele>100.59999999999999</ele>
        <time>2018-07-02T12:06:31Z</time>
      </trkpt>
      <trkpt lat="50.831032041460276" lon="1.77104702219367">
        <ele>100.11</ele>
        <time>2018-07-02T12:06:32Z</time>
      </trkpt>
      <trkpt lat="50.830980995669961" lon="1.770926993340254">
        <ele>99.629999999999995</ele>
        <time>2018-07-02T12:06:33Z</time>
      </trkpt>
      <trkpt lat="50.830944031476974" lon="1.770814005285502">
        <ele>99.629999999999995</ele>
        <time>2018-07-02T12:06:34Z</time>
      </trkpt>
      <trkpt lat="50.830904971808195" lon="1.770697999745607">
        <ele>99.629999999999995</ele>
        <time>2018-07-02T12:06:35Z</time>
      </trkpt>
      <trkpt lat="50.830430975183845" lon="1.769352033734322">
        <ele>97.230000000000004</ele>
        <time>2018-07-02T12:06:44Z</time>
      </trkpt>
      <trkpt lat="50.829801997169852" lon="1.767356973141432">
        <ele>98.189999999999998</ele>
        <time>2018-07-02T12:06:55Z</time>
      </trkpt>
      <trkpt lat="50.829357001930475" lon="1.765809003263712">
        <ele>95.310000000000002</ele>
        <time>2018-07-02T12:07:04Z</time>
      </trkpt>
      <trkpt lat="50.829289024695754" lon="1.765680005773902">
        <ele>94.829999999999998</ele>
        <time>2018-07-02T12:07:05Z</time>
      </trkpt>
      <trkpt lat="50.828613024204969" lon="1.764770988374949">
        <ele>90.019999999999996</ele>
        <time>2018-07-02T12:07:14Z</time>
      </trkpt>
      <trkpt lat="50.828555021435022" lon="1.764697981998324">
        <ele>88.099999999999994</ele>
        <time>2018-07-02T12:07:19Z</time>
      </trkpt>
      <trkpt lat="50.828497018665075" lon="1.764652971178293">
        <ele>88.099999999999994</ele>
        <time>2018-07-02T12:07:20Z</time>
      </trkpt>
      <trkpt lat="50.828467011451721" lon="1.764714997261763">
        <ele>87.620000000000005</ele>
        <time>2018-07-02T12:07:21Z</time>
      </trkpt>
      <trkpt lat="50.828427029773593" lon="1.76479697227478">
        <ele>87.620000000000005</ele>
        <time>2018-07-02T12:07:22Z</time>
      </trkpt>
      <trkpt lat="50.828382018953562" lon="1.764887999743223">
        <ele>87.140000000000001</ele>
        <time>2018-07-02T12:07:23Z</time>
      </trkpt>
      <trkpt lat="50.827950015664101" lon="1.765698026865721">
        <ele>88.099999999999994</ele>
        <time>2018-07-02T12:07:31Z</time>
      </trkpt>
      <trkpt lat="50.827923025935888" lon="1.765733985230327">
        <ele>88.099999999999994</ele>
        <time>2018-07-02T12:07:32Z</time>
      </trkpt>
      <trkpt lat="50.827909028157592" lon="1.765752006322146">
        <ele>88.579999999999998</ele>
        <time>2018-07-02T12:07:33Z</time>
      </trkpt>
      <trkpt lat="50.827890001237392" lon="1.765883015468717">
        <ele>89.540000000000006</ele>
        <time>2018-07-02T12:07:37Z</time>
      </trkpt>
      <trkpt lat="50.827925959601998" lon="1.765965996310115">
        <ele>90.019999999999996</ele>
        <time>2018-07-02T12:07:38Z</time>
      </trkpt>
      <trkpt lat="50.827955966815352" lon="1.766058029606938">
        <ele>90.5</ele>
        <time>2018-07-02T12:07:39Z</time>
      </trkpt>
      <trkpt lat="50.828338013961911" lon="1.767216995358467">
        <ele>93.390000000000001</ele>
        <time>2018-07-02T12:07:46Z</time>
      </trkpt>
      <trkpt lat="50.828748978674412" lon="1.769023966044188">
        <ele>96.269999999999996</ele>
        <time>2018-07-02T12:07:54Z</time>
      </trkpt>
      <trkpt lat="50.828640013933182" lon="1.770979966968298">
        <ele>95.310000000000002</ele>
        <time>2018-07-02T12:08:01Z</time>
      </trkpt>
      <trkpt lat="50.828115977346897" lon="1.772602032870054">
        <ele>94.349999999999994</ele>
        <time>2018-07-02T12:08:08Z</time>
      </trkpt>
      <trkpt lat="50.827330006286502" lon="1.773821013048291">
        <ele>92.900000000000006</ele>
        <time>2018-07-02T12:08:16Z</time>
      </trkpt>
      <trkpt lat="50.827069999650121" lon="1.774083031341434">
        <ele>92.900000000000006</ele>
        <time>2018-07-02T12:08:18Z</time>
      </trkpt>
      <trkpt lat="50.826923986896873" lon="1.774180009961128">
        <ele>92.420000000000002</ele>
        <time>2018-07-02T12:08:19Z</time>
      </trkpt>
      <trkpt lat="50.826773028820753" lon="1.774281011894345">
        <ele>92.420000000000002</ele>
        <time>2018-07-02T12:08:20Z</time>
      </trkpt>
      <trkpt lat="50.826617041602731" lon="1.774385031312704">
        <ele>92.420000000000002</ele>
        <time>2018-07-02T12:08:21Z</time>
      </trkpt>
      <trkpt lat="50.826439009979367" lon="1.774448985233903">
        <ele>92.420000000000002</ele>
        <time>2018-07-02T12:08:22Z</time>
      </trkpt>
      <trkpt lat="50.826259972527623" lon="1.774504976347089">
        <ele>92.420000000000002</ele>
        <time>2018-07-02T12:08:23Z</time>
      </trkpt>
      <trkpt lat="50.826070960611105" lon="1.774536995217204">
        <ele>91.939999999999998</ele>
        <time>2018-07-02T12:08:24Z</time>
      </trkpt>
      <trkpt lat="50.825696038082242" lon="1.774567002430558">
        <ele>91.459999999999994</ele>
        <time>2018-07-02T12:08:26Z</time>
      </trkpt>
      <trkpt lat="50.825497973710299" lon="1.774530038237572">
        <ele>90.980000000000004</ele>
        <time>2018-07-02T12:08:27Z</time>
      </trkpt>
      <trkpt lat="50.823300993070006" lon="1.773869041353464">
        <ele>87.140000000000001</ele>
        <time>2018-07-02T12:08:38Z</time>
      </trkpt>
      <trkpt lat="50.821919990703464" lon="1.773403007537127">
        <ele>86.180000000000007</ele>
        <time>2018-07-02T12:08:46Z</time>
      </trkpt>
      <trkpt lat="50.820576036348939" lon="1.772383013740182">
        <ele>85.209999999999994</ele>
        <time>2018-07-02T12:08:56Z</time>
      </trkpt>
      <trkpt lat="50.819513965398073" lon="1.771495034918189">
        <ele>84.25</ele>
        <time>2018-07-02T12:09:06Z</time>
      </trkpt>
      <trkpt lat="50.819282038137317" lon="1.77141398191452">
        <ele>84.25</ele>
        <time>2018-07-02T12:09:08Z</time>
      </trkpt>
      <trkpt lat="50.819165026769042" lon="1.771372994408011">
        <ele>84.25</ele>
        <time>2018-07-02T12:09:09Z</time>
      </trkpt>
      <trkpt lat="50.819041980430484" lon="1.771331001073122">
        <ele>83.769999999999996</ele>
        <time>2018-07-02T12:09:10Z</time>
      </trkpt>
      <trkpt lat="50.818936033174396" lon="1.771331001073122">
        <ele>83.290000000000006</ele>
        <time>2018-07-02T12:09:11Z</time>
      </trkpt>
      <trkpt lat="50.818821033462882" lon="1.771333012729883">
        <ele>83.290000000000006</ele>
        <time>2018-07-02T12:09:12Z</time>
      </trkpt>
      <trkpt lat="50.818593967705965" lon="1.771410964429379">
        <ele>82.810000000000002</ele>
        <time>2018-07-02T12:09:14Z</time>
      </trkpt>
      <trkpt lat="50.818478967994452" lon="1.771451029926539">
        <ele>82.329999999999998</ele>
        <time>2018-07-02T12:09:15Z</time>
      </trkpt>
      <trkpt lat="50.818144027143717" lon="1.771593019366264">
        <ele>81.370000000000005</ele>
        <time>2018-07-02T12:09:18Z</time>
      </trkpt>
      <trkpt lat="50.817840015515685" lon="1.771860988810659">
        <ele>79.930000000000007</ele>
        <time>2018-07-02T12:09:21Z</time>
      </trkpt>
      <trkpt lat="50.817746976390481" lon="1.771974982693791">
        <ele>79.450000000000003</ele>
        <time>2018-07-02T12:09:22Z</time>
      </trkpt>
      <trkpt lat="50.817666007205844" lon="1.77209802903235">
        <ele>78.969999999999999</ele>
        <time>2018-07-02T12:09:23Z</time>
      </trkpt>
      <trkpt lat="50.817587971687317" lon="1.772233983501792">
        <ele>78.480000000000004</ele>
        <time>2018-07-02T12:09:24Z</time>
      </trkpt>
      <trkpt lat="50.817510019987822" lon="1.772370021790266">
        <ele>78</ele>
        <time>2018-07-02T12:09:25Z</time>
      </trkpt>
      <trkpt lat="50.817435001954436" lon="1.772506982088089">
        <ele>77.519999999999996</ele>
        <time>2018-07-02T12:09:26Z</time>
      </trkpt>
      <trkpt lat="50.817370964214206" lon="1.772652994841337">
        <ele>77.519999999999996</ele>
        <time>2018-07-02T12:09:27Z</time>
      </trkpt>
      <trkpt lat="50.817237021401525" lon="1.773138977587223">
        <ele>76.560000000000002</ele>
        <time>2018-07-02T12:09:30Z</time>
      </trkpt>
      <trkpt lat="50.817071981728077" lon="1.773836016654968">
        <ele>73.680000000000007</ele>
        <time>2018-07-02T12:09:34Z</time>
      </trkpt>
      <trkpt lat="50.81647602841258" lon="1.775633012875915">
        <ele>66.950000000000003</ele>
        <time>2018-07-02T12:09:45Z</time>
      </trkpt>
      <trkpt lat="50.816096998751163" lon="1.776230977848172">
        <ele>65.510000000000005</ele>
        <time>2018-07-02T12:09:49Z</time>
      </trkpt>
      <trkpt lat="50.815111035481095" lon="1.777703007683158">
        <ele>61.18</ele>
        <time>2018-07-02T12:09:59Z</time>
      </trkpt>
      <trkpt lat="50.81422096118331" lon="1.778918970376253">
        <ele>65.510000000000005</ele>
        <time>2018-07-02T12:10:09Z</time>
      </trkpt>
      <trkpt lat="50.814103027805686" lon="1.779002035036683">
        <ele>66.469999999999999</ele>
        <time>2018-07-02T12:10:10Z</time>
      </trkpt>
      <trkpt lat="50.813000975176692" lon="1.779497992247343">
        <ele>73.200000000000003</ele>
        <time>2018-07-02T12:10:19Z</time>
      </trkpt>
      <trkpt lat="50.811919961124659" lon="1.779345022514463">
        <ele>73.680000000000007</ele>
        <time>2018-07-02T12:10:26Z</time>
      </trkpt>
      <trkpt lat="50.810021962970495" lon="1.778879994526506">
        <ele>69.829999999999998</ele>
        <time>2018-07-02T12:10:37Z</time>
      </trkpt>
      <trkpt lat="50.809388961642981" lon="1.778612025082111">
        <ele>68.870000000000005</ele>
        <time>2018-07-02T12:10:43Z</time>
      </trkpt>
      <trkpt lat="50.808519003912807" lon="1.777909034863114">
        <ele>67.909999999999997</ele>
        <time>2018-07-02T12:10:50Z</time>
      </trkpt>
      <trkpt lat="50.807475037872791" lon="1.776572959497571">
        <ele>66.950000000000003</ele>
        <time>2018-07-02T12:10:57Z</time>
      </trkpt>
      <trkpt lat="50.805677035823464" lon="1.774132987484336">
        <ele>61.18</ele>
        <time>2018-07-02T12:11:07Z</time>
      </trkpt>
      <trkpt lat="50.802697017788887" lon="1.770075978711247">
        <ele>49.649999999999999</ele>
        <time>2018-07-02T12:11:24Z</time>
      </trkpt>
      <trkpt lat="50.800731964409351" lon="1.767400978133082">
        <ele>38.590000000000003</ele>
        <time>2018-07-02T12:11:36Z</time>
      </trkpt>
      <trkpt lat="50.799335036426783" lon="1.765598030760884">
        <ele>31.859999999999999</ele>
        <time>2018-07-02T12:11:46Z</time>
      </trkpt>
      <trkpt lat="50.798039026558399" lon="1.764682978391647">
        <ele>26.57</ele>
        <time>2018-07-02T12:11:54Z</time>
      </trkpt>
      <trkpt lat="50.796720972284675" lon="1.764342002570629">
        <ele>22.25</ele>
        <time>2018-07-02T12:12:02Z</time>
      </trkpt>
      <trkpt lat="50.794824985787272" lon="1.76436304114759">
        <ele>20.32</ele>
        <time>2018-07-02T12:12:13Z</time>
      </trkpt>
      <trkpt lat="50.793999033048749" lon="1.76453897729516">
        <ele>24.170000000000002</ele>
        <time>2018-07-02T12:12:19Z</time>
      </trkpt>
      <trkpt lat="50.793888978660107" lon="1.764578958973289">
        <ele>27.050000000000001</ele>
        <time>2018-07-02T12:12:26Z</time>
      </trkpt>
      <trkpt lat="50.793868023902178" lon="1.764585999771953">
        <ele>27.050000000000001</ele>
        <time>2018-07-02T12:12:32Z</time>
      </trkpt>
      <trkpt lat="50.793844973668456" lon="1.764594968408346">
        <ele>27.050000000000001</ele>
        <time>2018-07-02T12:12:33Z</time>
      </trkpt>
      <trkpt lat="50.793375000357628" lon="1.764821028336883">
        <ele>29.460000000000001</ele>
        <time>2018-07-02T12:12:39Z</time>
      </trkpt>
      <trkpt lat="50.79239297658205" lon="1.765643963590264">
        <ele>33.780000000000001</ele>
        <time>2018-07-02T12:12:46Z</time>
      </trkpt>
      <trkpt lat="50.791272986680269" lon="1.767420005053282">
        <ele>41.469999999999999</ele>
        <time>2018-07-02T12:12:54Z</time>
      </trkpt>
      <trkpt lat="50.790212005376816" lon="1.770154014229775">
        <ele>45.799999999999997</ele>
        <time>2018-07-02T12:13:04Z</time>
      </trkpt>
      <trkpt lat="50.788896968588233" lon="1.773581961169839">
        <ele>37.630000000000003</ele>
        <time>2018-07-02T12:13:17Z</time>
      </trkpt>
      <trkpt lat="50.788105968385935" lon="1.774797001853585">
        <ele>35.229999999999997</ele>
        <time>2018-07-02T12:13:23Z</time>
      </trkpt>
      <trkpt lat="50.787784019485116" lon="1.775045022368431">
        <ele>34.259999999999998</ele>
        <time>2018-07-02T12:13:25Z</time>
      </trkpt>
      <trkpt lat="50.787630965933204" lon="1.775153987109661">
        <ele>33.780000000000001</ele>
        <time>2018-07-02T12:13:26Z</time>
      </trkpt>
      <trkpt lat="50.787479002028704" lon="1.775229005143046">
        <ele>33.299999999999997</ele>
        <time>2018-07-02T12:13:27Z</time>
      </trkpt>
      <trkpt lat="50.787330977618694" lon="1.775290025398135">
        <ele>33.299999999999997</ele>
        <time>2018-07-02T12:13:28Z</time>
      </trkpt>
      <trkpt lat="50.78719200566411" lon="1.775345010682941">
        <ele>33.299999999999997</ele>
        <time>2018-07-02T12:13:29Z</time>
      </trkpt>
      <trkpt lat="50.787056973204017" lon="1.775376023724675">
        <ele>32.82</ele>
        <time>2018-07-02T12:13:30Z</time>
      </trkpt>
      <trkpt lat="50.786232026293874" lon="1.775517007336021">
        <ele>34.259999999999998</ele>
        <time>2018-07-02T12:13:36Z</time>
      </trkpt>
      <trkpt lat="50.786090036854148" lon="1.77553603425622">
        <ele>34.740000000000002</ele>
        <time>2018-07-02T12:13:37Z</time>
      </trkpt>
      <trkpt lat="50.785049004480243" lon="1.775522036477923">
        <ele>37.630000000000003</ele>
        <time>2018-07-02T12:13:43Z</time>
      </trkpt>
      <trkpt lat="50.784843983128667" lon="1.77553603425622">
        <ele>38.109999999999999</ele>
        <time>2018-07-02T12:13:44Z</time>
      </trkpt>
      <trkpt lat="50.784638039767742" lon="1.775594959035516">
        <ele>39.07</ele>
        <time>2018-07-02T12:13:45Z</time>
      </trkpt>
      <trkpt lat="50.784446010366082" lon="1.775694033131003">
        <ele>39.549999999999997</ele>
        <time>2018-07-02T12:13:46Z</time>
      </trkpt>
      <trkpt lat="50.783364996314049" lon="1.776471035555005">
        <ele>43.880000000000003</ele>
        <time>2018-07-02T12:13:53Z</time>
      </trkpt>
      <trkpt lat="50.783105995506048" lon="1.776859033852816">
        <ele>44.840000000000003</ele>
        <time>2018-07-02T12:13:55Z</time>
      </trkpt>
      <trkpt lat="50.782993007451296" lon="1.777081992477179">
        <ele>44.840000000000003</ele>
        <time>2018-07-02T12:13:56Z</time>
      </trkpt>
      <trkpt lat="50.782880019396544" lon="1.777308974415064">
        <ele>45.32</ele>
        <time>2018-07-02T12:13:57Z</time>
      </trkpt>
      <trkpt lat="50.782786980271339" lon="1.777550959959626">
        <ele>45.799999999999997</ele>
        <time>2018-07-02T12:13:58Z</time>
      </trkpt>
      <trkpt lat="50.782702993601561" lon="1.777800992131233">
        <ele>45.799999999999997</ele>
        <time>2018-07-02T12:13:59Z</time>
      </trkpt>
      <trkpt lat="50.782622024416924" lon="1.778045995160937">
        <ele>46.280000000000001</ele>
        <time>2018-07-02T12:14:00Z</time>
      </trkpt>
      <trkpt lat="50.781899001449347" lon="1.779737966135144">
        <ele>47.240000000000002</ele>
        <time>2018-07-02T12:14:08Z</time>
      </trkpt>
      <trkpt lat="50.781809985637665" lon="1.779950028285384">
        <ele>47.719999999999999</ele>
        <time>2018-07-02T12:14:09Z</time>
      </trkpt>
      <trkpt lat="50.781401032581925" lon="1.780921993777156">
        <ele>49.159999999999997</ele>
        <time>2018-07-02T12:14:14Z</time>
      </trkpt>
      <trkpt lat="50.781317967921495" lon="1.781117962673307">
        <ele>49.159999999999997</ele>
        <time>2018-07-02T12:14:15Z</time>
      </trkpt>
      <trkpt lat="50.780870961025357" lon="1.781692961230874">
        <ele>49.649999999999999</ele>
        <time>2018-07-02T12:14:19Z</time>
      </trkpt>
      <trkpt lat="50.780743975192308" lon="1.781783988699317">
        <ele>49.159999999999997</ele>
        <time>2018-07-02T12:14:20Z</time>
      </trkpt>
      <trkpt lat="50.78061698935926" lon="1.78187501616776">
        <ele>48.68</ele>
        <time>2018-07-02T12:14:21Z</time>
      </trkpt>
      <trkpt lat="50.780476005747914" lon="1.781936958432198">
        <ele>48.200000000000003</ele>
        <time>2018-07-02T12:14:22Z</time>
      </trkpt>
      <trkpt lat="50.780329992994666" lon="1.781980963423848">
        <ele>48.200000000000003</ele>
        <time>2018-07-02T12:14:23Z</time>
      </trkpt>
      <trkpt lat="50.780179034918547" lon="1.782025974243879">
        <ele>48.200000000000003</ele>
        <time>2018-07-02T12:14:24Z</time>
      </trkpt>
      <trkpt lat="50.780024975538254" lon="1.782036032527685">
        <ele>47.719999999999999</ele>
        <time>2018-07-02T12:14:25Z</time>
      </trkpt>
      <trkpt lat="50.779864965006709" lon="1.782032009214163">
        <ele>47.719999999999999</ele>
        <time>2018-07-02T12:14:26Z</time>
      </trkpt>
      <trkpt lat="50.779697997495532" lon="1.782027985900641">
        <ele>48.200000000000003</ele>
        <time>2018-07-02T12:14:27Z</time>
      </trkpt>
      <trkpt lat="50.778388995677233" lon="1.78237097337842">
        <ele>49.159999999999997</ele>
        <time>2018-07-02T12:14:35Z</time>
      </trkpt>
      <trkpt lat="50.776956025511026" lon="1.783297006040812">
        <ele>49.649999999999999</ele>
        <time>2018-07-02T12:14:44Z</time>
      </trkpt>
      <trkpt lat="50.775237986817956" lon="1.784184984862804">
        <ele>46.759999999999998</ele>
        <time>2018-07-02T12:14:54Z</time>
      </trkpt>
      <trkpt lat="50.773843992501497" lon="1.784664010629058">
        <ele>46.280000000000001</ele>
        <time>2018-07-02T12:15:02Z</time>
      </trkpt>
      <trkpt lat="50.77187399379909" lon="1.78516399115324">
        <ele>47.240000000000002</ele>
        <time>2018-07-02T12:15:13Z</time>
      </trkpt>
      <trkpt lat="50.769618004560471" lon="1.785503961145878">
        <ele>46.759999999999998</ele>
        <time>2018-07-02T12:15:27Z</time>
      </trkpt>
      <trkpt lat="50.768209006637335" lon="1.785572022199631">
        <ele>46.280000000000001</ele>
        <time>2018-07-02T12:15:36Z</time>
      </trkpt>
      <trkpt lat="50.767178032547235" lon="1.78537798114121">
        <ele>44.840000000000003</ele>
        <time>2018-07-02T12:15:44Z</time>
      </trkpt>
      <trkpt lat="50.766733037307858" lon="1.785293994471431">
        <ele>44.359999999999999</ele>
        <time>2018-07-02T12:15:51Z</time>
      </trkpt>
      <trkpt lat="50.76660898514092" lon="1.785271028056741">
        <ele>43.880000000000003</ele>
        <time>2018-07-02T12:15:56Z</time>
      </trkpt>
      <trkpt lat="50.766578977927566" lon="1.785359038040042">
        <ele>43.399999999999999</ele>
        <time>2018-07-02T12:15:59Z</time>
      </trkpt>
      <trkpt lat="50.76658601872623" lon="1.785375969484448">
        <ele>43.399999999999999</ele>
        <time>2018-07-02T12:16:00Z</time>
      </trkpt>
      <trkpt lat="50.766595993191004" lon="1.78539801388979">
        <ele>43.399999999999999</ele>
        <time>2018-07-02T12:16:01Z</time>
      </trkpt>
      <trkpt lat="50.766604039818048" lon="1.785412011668086">
        <ele>42.920000000000002</ele>
        <time>2018-07-02T12:16:02Z</time>
      </trkpt>
      <trkpt lat="50.766617031767964" lon="1.785430032759905">
        <ele>42.920000000000002</ele>
        <time>2018-07-02T12:16:03Z</time>
      </trkpt>
      <trkpt lat="50.766631029546261" lon="1.785448975861073">
        <ele>42.920000000000002</ele>
        <time>2018-07-02T12:16:04Z</time>
      </trkpt>
      <trkpt lat="50.766881983727217" lon="1.785789029672742">
        <ele>41.950000000000003</ele>
        <time>2018-07-02T12:16:12Z</time>
      </trkpt>
      <trkpt lat="50.766917020082474" lon="1.785835968330503">
        <ele>41.950000000000003</ele>
        <time>2018-07-02T12:16:21Z</time>
      </trkpt>
      <trkpt lat="50.766917020082474" lon="1.785835968330503">
        <ele>41.950000000000003</ele>
        <time>2018-07-02T12:16:31Z</time>
      </trkpt>
      <trkpt lat="50.766871003434062" lon="1.785774026066065">
        <ele>41.469999999999999</ele>
        <time>2018-07-02T12:16:34Z</time>
      </trkpt>
      <trkpt lat="50.766837978735566" lon="1.785730021074414">
        <ele>41.469999999999999</ele>
        <time>2018-07-02T12:16:35Z</time>
      </trkpt>
      <trkpt lat="50.766692971810699" lon="1.785533968359232">
        <ele>39.549999999999997</ele>
        <time>2018-07-02T12:16:45Z</time>
      </trkpt>
      <trkpt lat="50.766692971810699" lon="1.785533968359232">
        <ele>39.549999999999997</ele>
        <time>2018-07-02T12:17:11Z</time>
      </trkpt>
      <trkpt lat="50.766581995412707" lon="1.785670006647706">
        <ele>40.990000000000002</ele>
        <time>2018-07-02T12:36:45Z</time>
      </trkpt>
      <trkpt lat="50.766692971810699" lon="1.785474037751555">
        <ele>38.590000000000003</ele>
        <time>2018-07-02T12:37:26Z</time>
      </trkpt>
      <trkpt lat="50.766690960153937" lon="1.785474959760904">
        <ele>40.990000000000002</ele>
        <time>2018-07-02T12:38:07Z</time>
      </trkpt>
      <trkpt lat="50.766688026487827" lon="1.785462973639369">
        <ele>40.509999999999998</ele>
        <time>2018-07-02T12:38:48Z</time>
      </trkpt>
      <trkpt lat="50.766618037596345" lon="1.785431960597634">
        <ele>40.990000000000002</ele>
        <time>2018-07-02T12:39:15Z</time>
      </trkpt>
      <trkpt lat="50.76654402539134" lon="1.785258958116174">
        <ele>39.07</ele>
        <time>2018-07-02T12:39:22Z</time>
      </trkpt>
      <trkpt lat="50.766466995701194" lon="1.785245966166258">
        <ele>38.109999999999999</ele>
        <time>2018-07-02T12:39:23Z</time>
      </trkpt>
      <trkpt lat="50.765654034912586" lon="1.785117974504829">
        <ele>35.229999999999997</ele>
        <time>2018-07-02T12:39:29Z</time>
      </trkpt>
      <trkpt lat="50.763852009549737" lon="1.785047985613346">
        <ele>40.030000000000001</ele>
        <time>2018-07-02T12:39:39Z</time>
      </trkpt>
      <trkpt lat="50.763653023168445" lon="1.785102970898151">
        <ele>40.990000000000002</ele>
        <time>2018-07-02T12:39:40Z</time>
      </trkpt>
      <trkpt lat="50.763449007645249" lon="1.785158040001988">
        <ele>41.469999999999999</ele>
        <time>2018-07-02T12:39:41Z</time>
      </trkpt>
      <trkpt lat="50.763251027092338" lon="1.785285025835037">
        <ele>42.439999999999998</ele>
        <time>2018-07-02T12:39:42Z</time>
      </trkpt>
      <trkpt lat="50.763057991862297" lon="1.785429026931524">
        <ele>43.399999999999999</ele>
        <time>2018-07-02T12:39:43Z</time>
      </trkpt>
      <trkpt lat="50.761631978675723" lon="1.786339972168207">
        <ele>48.200000000000003</ele>
        <time>2018-07-02T12:39:50Z</time>
      </trkpt>
      <trkpt lat="50.761427963152528" lon="1.786500988528132">
        <ele>49.159999999999997</ele>
        <time>2018-07-02T12:39:51Z</time>
      </trkpt>
      <trkpt lat="50.761255966499448" lon="1.786738028749824">
        <ele>49.649999999999999</ele>
        <time>2018-07-02T12:39:52Z</time>
      </trkpt>
      <trkpt lat="50.761083969846368" lon="1.786971967667341">
        <ele>50.130000000000003</ele>
        <time>2018-07-02T12:39:53Z</time>
      </trkpt>
      <trkpt lat="50.760925970971584" lon="1.787223005667329">
        <ele>51.090000000000003</ele>
        <time>2018-07-02T12:39:54Z</time>
      </trkpt>
      <trkpt lat="50.760774007067084" lon="1.787488041445613">
        <ele>51.57</ele>
        <time>2018-07-02T12:39:55Z</time>
      </trkpt>
      <trkpt lat="50.75870200060308" lon="1.790933003649116">
        <ele>53.969999999999999</ele>
        <time>2018-07-02T12:40:08Z</time>
      </trkpt>
      <trkpt lat="50.757095022127032" lon="1.793245989829302">
        <ele>61.18</ele>
        <time>2018-07-02T12:40:18Z</time>
      </trkpt>
      <trkpt lat="50.756294969469309" lon="1.794620035216212">
        <ele>64.549999999999997</ele>
        <time>2018-07-02T12:40:24Z</time>
      </trkpt>
      <trkpt lat="50.756152980029583" lon="1.794778034090996">
        <ele>65.030000000000001</ele>
        <time>2018-07-02T12:40:25Z</time>
      </trkpt>
      <trkpt lat="50.756024988368154" lon="1.794921029359102">
        <ele>65.510000000000005</ele>
        <time>2018-07-02T12:40:26Z</time>
      </trkpt>
      <trkpt lat="50.755916023626924" lon="1.795041980221868">
        <ele>65.510000000000005</ele>
        <time>2018-07-02T12:40:27Z</time>
      </trkpt>
      <trkpt lat="50.755826001986861" lon="1.795141976326704">
        <ele>65.510000000000005</ele>
        <time>2018-07-02T12:40:28Z</time>
      </trkpt>
      <trkpt lat="50.755735980346799" lon="1.79523803293705">
        <ele>65.510000000000005</ele>
        <time>2018-07-02T12:40:29Z</time>
      </trkpt>
      <trkpt lat="50.755528025329113" lon="1.795126972720027">
        <ele>65.510000000000005</ele>
        <time>2018-07-02T12:40:30Z</time>
      </trkpt>
      <trkpt lat="50.755528025329113" lon="1.795126972720027">
        <ele>65.030000000000001</ele>
        <time>2018-07-02T12:40:31Z</time>
      </trkpt>
      <trkpt lat="50.755431968718767" lon="1.795126972720027">
        <ele>65.030000000000001</ele>
        <time>2018-07-02T12:40:32Z</time>
      </trkpt>
      <trkpt lat="50.755303977057338" lon="1.795028988271952">
        <ele>65.030000000000001</ele>
        <time>2018-07-02T12:40:33Z</time>
      </trkpt>
      <trkpt lat="50.755208004266024" lon="1.794897979125381">
        <ele>64.549999999999997</ele>
        <time>2018-07-02T12:40:34Z</time>
      </trkpt>
      <trkpt lat="50.755099961534142" lon="1.794751966372132">
        <ele>64.549999999999997</ele>
        <time>2018-07-02T12:40:35Z</time>
      </trkpt>
      <trkpt lat="50.754980016499758" lon="1.794591033831239">
        <ele>64.069999999999993</ele>
        <time>2018-07-02T12:40:36Z</time>
      </trkpt>
      <trkpt lat="50.754002016037703" lon="1.793413041159511">
        <ele>59.740000000000002</ele>
        <time>2018-07-02T12:40:42Z</time>
      </trkpt>
      <trkpt lat="50.752528980374336" lon="1.792674008756876">
        <ele>51.57</ele>
        <time>2018-07-02T12:40:48Z</time>
      </trkpt>
      <trkpt lat="50.751115037128329" lon="1.792901996523142">
        <ele>46.280000000000001</ele>
        <time>2018-07-02T12:40:54Z</time>
      </trkpt>
      <trkpt lat="50.74963403865695" lon="1.793819982558489">
        <ele>45.32</ele>
        <time>2018-07-02T12:41:02Z</time>
      </trkpt>
      <trkpt lat="50.747464969754219" lon="1.795435007661581">
        <ele>47.719999999999999</ele>
        <time>2018-07-02T12:41:16Z</time>
      </trkpt>
      <trkpt lat="50.74651999399066" lon="1.797037040814757">
        <ele>49.649999999999999</ele>
        <time>2018-07-02T12:41:24Z</time>
      </trkpt>
      <trkpt lat="50.746326958760619" lon="1.797607010230422">
        <ele>50.130000000000003</ele>
        <time>2018-07-02T12:41:26Z</time>
      </trkpt>
      <trkpt lat="50.745740979909897" lon="1.799862999469042">
        <ele>52.530000000000001</ele>
        <time>2018-07-02T12:41:34Z</time>
      </trkpt>
      <trkpt lat="50.745214009657502" lon="1.802305988967419">
        <ele>55.409999999999997</ele>
        <time>2018-07-02T12:41:44Z</time>
      </trkpt>
      <trkpt lat="50.745090041309595" lon="1.802999004721642">
        <ele>57.340000000000003</ele>
        <time>2018-07-02T12:41:48Z</time>
      </trkpt>
      <trkpt lat="50.74505802243948" lon="1.803119033575058">
        <ele>57.82</ele>
        <time>2018-07-02T12:41:49Z</time>
      </trkpt>
      <trkpt lat="50.74501502327621" lon="1.803234033286572">
        <ele>58.299999999999997</ele>
        <time>2018-07-02T12:41:50Z</time>
      </trkpt>
      <trkpt lat="50.745013011619449" lon="1.803237972781062">
        <ele>58.299999999999997</ele>
        <time>2018-07-02T12:41:51Z</time>
      </trkpt>
      <trkpt lat="50.744874039664865" lon="1.803325982764363">
        <ele>58.780000000000001</ele>
        <time>2018-07-02T12:41:52Z</time>
      </trkpt>
      <trkpt lat="50.744790975004435" lon="1.803377028554678">
        <ele>58.780000000000001</ele>
        <time>2018-07-02T12:41:53Z</time>
      </trkpt>
      <trkpt lat="50.744703970849514" lon="1.803432013839483">
        <ele>58.780000000000001</ele>
        <time>2018-07-02T12:41:54Z</time>
      </trkpt>
      <trkpt lat="50.744601963087916" lon="1.803510971367359">
        <ele>59.259999999999998</ele>
        <time>2018-07-02T12:41:55Z</time>
      </trkpt>
      <trkpt lat="50.744211031123996" lon="1.803842978551984">
        <ele>61.18</ele>
        <time>2018-07-02T12:41:59Z</time>
      </trkpt>
      <trkpt lat="50.743866031989455" lon="1.804137015715241">
        <ele>62.619999999999997</ele>
        <time>2018-07-02T12:42:03Z</time>
      </trkpt>
      <trkpt lat="50.743812974542379" lon="1.804182026535273">
        <ele>62.619999999999997</ele>
        <time>2018-07-02T12:42:04Z</time>
      </trkpt>
      <trkpt lat="50.743772992864251" lon="1.804215973243117">
        <ele>63.100000000000001</ele>
        <time>2018-07-02T12:42:05Z</time>
      </trkpt>
      <trkpt lat="50.743639972060919" lon="1.804182026535273">
        <ele>63.100000000000001</ele>
        <time>2018-07-02T12:42:06Z</time>
      </trkpt>
      <trkpt lat="50.743629997596145" lon="1.804123017936945">
        <ele>63.100000000000001</ele>
        <time>2018-07-02T12:42:07Z</time>
      </trkpt>
      <trkpt lat="50.743615999817848" lon="1.804038025438786">
        <ele>63.100000000000001</ele>
        <time>2018-07-02T12:42:08Z</time>
      </trkpt>
      <trkpt lat="50.743599990382791" lon="1.80394004099071">
        <ele>63.100000000000001</ele>
        <time>2018-07-02T12:42:09Z</time>
      </trkpt>
      <trkpt lat="50.743582975119352" lon="1.803839961066842">
        <ele>63.100000000000001</ele>
        <time>2018-07-02T12:42:10Z</time>
      </trkpt>
      <trkpt lat="50.743567971512675" lon="1.80374801158905">
        <ele>63.100000000000001</ele>
        <time>2018-07-02T12:42:11Z</time>
      </trkpt>
      <trkpt lat="50.743554979562759" lon="1.803669976070523">
        <ele>63.100000000000001</ele>
        <time>2018-07-02T12:42:12Z</time>
      </trkpt>
      <trkpt lat="50.743475016206503" lon="1.803557993844152">
        <ele>63.579999999999998</ele>
        <time>2018-07-02T12:42:13Z</time>
      </trkpt>
      <trkpt lat="50.743412990123034" lon="1.803579032421112">
        <ele>63.579999999999998</ele>
        <time>2018-07-02T12:42:14Z</time>
      </trkpt>
      <trkpt lat="50.74334098957479" lon="1.803603004664183">
        <ele>63.579999999999998</ele>
        <time>2018-07-02T12:42:15Z</time>
      </trkpt>
      <trkpt lat="50.743261026218534" lon="1.803628988564014">
        <ele>63.100000000000001</ele>
        <time>2018-07-02T12:42:16Z</time>
      </trkpt>
      <trkpt lat="50.742313032969832" lon="1.803944986313582">
        <ele>57.82</ele>
        <time>2018-07-02T12:42:25Z</time>
      </trkpt>
      <trkpt lat="50.741828978061676" lon="1.804106002673507">
        <ele>54.450000000000003</ele>
        <time>2018-07-02T12:42:30Z</time>
      </trkpt>
      <trkpt lat="50.741782039403915" lon="1.804122012108564">
        <ele>53.969999999999999</ele>
        <time>2018-07-02T12:42:31Z</time>
      </trkpt>
      <trkpt lat="50.741711966693401" lon="1.804108014330268">
        <ele>53.009999999999998</ele>
        <time>2018-07-02T12:42:32Z</time>
      </trkpt>
      <trkpt lat="50.741670979186893" lon="1.804035007953644">
        <ele>53.009999999999998</ele>
        <time>2018-07-02T12:42:33Z</time>
      </trkpt>
      <trkpt lat="50.741629991680384" lon="1.803931994363666">
        <ele>52.049999999999997</ele>
        <time>2018-07-02T12:42:34Z</time>
      </trkpt>
      <trkpt lat="50.74159998446703" lon="1.803818000480533">
        <ele>51.57</ele>
        <time>2018-07-02T12:42:35Z</time>
      </trkpt>
      <trkpt lat="50.741566037759185" lon="1.80368397384882">
        <ele>51.090000000000003</ele>
        <time>2018-07-02T12:42:36Z</time>
      </trkpt>
      <trkpt lat="50.741239981725812" lon="1.802411014214158">
        <ele>49.649999999999999</ele>
        <time>2018-07-02T12:42:43Z</time>
      </trkpt>
      <trkpt lat="50.740636987611651" lon="1.800045976415277">
        <ele>46.280000000000001</ele>
        <time>2018-07-02T12:42:53Z</time>
      </trkpt>
      <trkpt lat="50.740077998489141" lon="1.797825023531914">
        <ele>41.469999999999999</ele>
        <time>2018-07-02T12:43:02Z</time>
      </trkpt>
      <trkpt lat="50.739565026015043" lon="1.795640029013157">
        <ele>38.590000000000003</ele>
        <time>2018-07-02T12:43:11Z</time>
      </trkpt>
      <trkpt lat="50.73928096331656" lon="1.794187026098371">
        <ele>41.469999999999999</ele>
        <time>2018-07-02T12:43:18Z</time>
      </trkpt>
      <trkpt lat="50.73906596750021" lon="1.791512025520206">
        <ele>40.990000000000002</ele>
        <time>2018-07-02T12:43:29Z</time>
      </trkpt>
      <trkpt lat="50.738856000825763" lon="1.788906008005142">
        <ele>42.920000000000002</ele>
        <time>2018-07-02T12:43:39Z</time>
      </trkpt>
      <trkpt lat="50.738781988620758" lon="1.787808984518051">
        <ele>43.880000000000003</ele>
        <time>2018-07-02T12:43:44Z</time>
      </trkpt>
      <trkpt lat="50.738776037469506" lon="1.787626007571816">
        <ele>44.359999999999999</ele>
        <time>2018-07-02T12:43:45Z</time>
      </trkpt>
      <trkpt lat="50.738768996670842" lon="1.787402965128422">
        <ele>44.840000000000003</ele>
        <time>2018-07-02T12:43:46Z</time>
      </trkpt>
      <trkpt lat="50.738801015540957" lon="1.787272039800882">
        <ele>45.32</ele>
        <time>2018-07-02T12:43:47Z</time>
      </trkpt>
      <trkpt lat="50.738840997219086" lon="1.787103982642293">
        <ele>46.280000000000001</ele>
        <time>2018-07-02T12:43:48Z</time>
      </trkpt>
      <trkpt lat="50.739048030227423" lon="1.786251040175557">
        <ele>49.159999999999997</ele>
        <time>2018-07-02T12:43:53Z</time>
      </trkpt>
      <trkpt lat="50.739076025784016" lon="1.786133022978902">
        <ele>49.649999999999999</ele>
        <time>2018-07-02T12:43:54Z</time>
      </trkpt>
      <trkpt lat="50.739081976935267" lon="1.786029003560543">
        <ele>49.649999999999999</ele>
        <time>2018-07-02T12:43:55Z</time>
      </trkpt>
      <trkpt lat="50.73906697332859" lon="1.785951973870397">
        <ele>50.130000000000003</ele>
        <time>2018-07-02T12:43:56Z</time>
      </trkpt>
      <trkpt lat="50.739055993035436" lon="1.785897994413972">
        <ele>50.130000000000003</ele>
        <time>2018-07-02T12:43:57Z</time>
      </trkpt>
      <trkpt lat="50.739049036055803" lon="1.785863041877747">
        <ele>50.609999999999999</ele>
        <time>2018-07-02T12:43:58Z</time>
      </trkpt>
      <trkpt lat="50.73897703550756" lon="1.785766985267401">
        <ele>51.090000000000003</ele>
        <time>2018-07-02T12:43:59Z</time>
      </trkpt>
      <trkpt lat="50.738934958353639" lon="1.785780983045697">
        <ele>51.57</ele>
        <time>2018-07-02T12:44:00Z</time>
      </trkpt>
      <trkpt lat="50.738877961412072" lon="1.785800009965897">
        <ele>52.049999999999997</ele>
        <time>2018-07-02T12:44:01Z</time>
      </trkpt>
      <trkpt lat="50.738813001662493" lon="1.785821970552206">
        <ele>52.530000000000001</ele>
        <time>2018-07-02T12:44:02Z</time>
      </trkpt>
      <trkpt lat="50.738733960315585" lon="1.78584803827107">
        <ele>53.009999999999998</ele>
        <time>2018-07-02T12:44:03Z</time>
      </trkpt>
      <trkpt lat="50.738172959536314" lon="1.785939987748861">
        <ele>56.859999999999999</ele>
        <time>2018-07-02T12:44:10Z</time>
      </trkpt>
      <trkpt lat="50.738121997565031" lon="1.785944011062384">
        <ele>56.859999999999999</ele>
        <time>2018-07-02T12:44:11Z</time>
      </trkpt>
      <trkpt lat="50.738080004230142" lon="1.785944011062384">
        <ele>57.340000000000003</ele>
        <time>2018-07-02T12:44:12Z</time>
      </trkpt>
      <trkpt lat="50.738042034208775" lon="1.785944011062384">
        <ele>57.340000000000003</ele>
        <time>2018-07-02T12:44:13Z</time>
      </trkpt>
      <trkpt lat="50.737974978983402" lon="1.78580797277391">
        <ele>57.340000000000003</ele>
        <time>2018-07-02T12:44:14Z</time>
      </trkpt>
      <trkpt lat="50.737974978983402" lon="1.785731026902795">
        <ele>57.82</ele>
        <time>2018-07-02T12:44:15Z</time>
      </trkpt>
      <trkpt lat="50.737974978983402" lon="1.785616027191281">
        <ele>57.82</ele>
        <time>2018-07-02T12:44:16Z</time>
      </trkpt>
      <trkpt lat="50.737974978983402" lon="1.78546397946775">
        <ele>57.82</ele>
        <time>2018-07-02T12:44:17Z</time>
      </trkpt>
      <trkpt lat="50.737998029217124" lon="1.785295000299811">
        <ele>57.82</ele>
        <time>2018-07-02T12:44:18Z</time>
      </trkpt>
      <trkpt lat="50.73805402033031" lon="1.784915970638394">
        <ele>57.82</ele>
        <time>2018-07-02T12:44:20Z</time>
      </trkpt>
      <trkpt lat="50.738085033372045" lon="1.78471002727747">
        <ele>57.82</ele>
        <time>2018-07-02T12:44:21Z</time>
      </trkpt>
      <trkpt lat="50.738116968423128" lon="1.784492013975978">
        <ele>58.299999999999997</ele>
        <time>2018-07-02T12:44:22Z</time>
      </trkpt>
      <trkpt lat="50.738144963979721" lon="1.784256985411048">
        <ele>58.299999999999997</ele>
        <time>2018-07-02T12:44:23Z</time>
      </trkpt>
      <trkpt lat="50.738131972029805" lon="1.783996978774667">
        <ele>58.780000000000001</ele>
        <time>2018-07-02T12:44:24Z</time>
      </trkpt>
      <trkpt lat="50.737976990640163" lon="1.781772002577782">
        <ele>63.579999999999998</ele>
        <time>2018-07-02T12:44:32Z</time>
      </trkpt>
      <trkpt lat="50.737897027283907" lon="1.781176971271634">
        <ele>65.989999999999995</ele>
        <time>2018-07-02T12:44:35Z</time>
      </trkpt>
      <trkpt lat="50.737868025898933" lon="1.781050991266966">
        <ele>65.989999999999995</ele>
        <time>2018-07-02T12:44:36Z</time>
      </trkpt>
      <trkpt lat="50.737807005643845" lon="1.781007992103696">
        <ele>66.469999999999999</ele>
        <time>2018-07-02T12:44:37Z</time>
      </trkpt>
      <trkpt lat="50.737745985388756" lon="1.780963987112045">
        <ele>66.950000000000003</ele>
        <time>2018-07-02T12:44:38Z</time>
      </trkpt>
      <trkpt lat="50.737691000103951" lon="1.780942026525736">
        <ele>66.950000000000003</ele>
        <time>2018-07-02T12:44:39Z</time>
      </trkpt>
      <trkpt lat="50.73762402869761" lon="1.780938003212214">
        <ele>67.430000000000007</ele>
        <time>2018-07-02T12:44:40Z</time>
      </trkpt>
      <trkpt lat="50.736731020733714" lon="1.781073035672307">
        <ele>74.640000000000001</ele>
        <time>2018-07-02T12:44:50Z</time>
      </trkpt>
      <trkpt lat="50.735794007778168" lon="1.781293982639909">
        <ele>81.849999999999994</ele>
        <time>2018-07-02T12:44:58Z</time>
      </trkpt>
      <trkpt lat="50.735676996409893" lon="1.781348967924714">
        <ele>82.810000000000002</ele>
        <time>2018-07-02T12:44:59Z</time>
      </trkpt>
      <trkpt lat="50.735339960083365" lon="1.781479977071285">
        <ele>84.730000000000004</ele>
        <time>2018-07-02T12:45:02Z</time>
      </trkpt>
      <trkpt lat="50.735232001170516" lon="1.781479977071285">
        <ele>84.730000000000004</ele>
        <time>2018-07-02T12:45:03Z</time>
      </trkpt>
      <trkpt lat="50.734908040612936" lon="1.781479977071285">
        <ele>86.180000000000007</ele>
        <time>2018-07-02T12:45:06Z</time>
      </trkpt>
      <trkpt lat="50.734799997881055" lon="1.781496992334724">
        <ele>86.659999999999997</ele>
        <time>2018-07-02T12:45:07Z</time>
      </trkpt>
      <trkpt lat="50.734700001776218" lon="1.781534962356091">
        <ele>86.659999999999997</ele>
        <time>2018-07-02T12:45:08Z</time>
      </trkpt>
      <trkpt lat="50.734283002093434" lon="1.781631018966436">
        <ele>88.579999999999998</ele>
        <time>2018-07-02T12:45:14Z</time>
      </trkpt>
      <trkpt lat="50.734235979616642" lon="1.781693967059255">
        <ele>89.060000000000002</ele>
        <time>2018-07-02T12:45:15Z</time>
      </trkpt>
      <trkpt lat="50.734201027080417" lon="1.781775020062923">
        <ele>89.060000000000002</ele>
        <time>2018-07-02T12:45:16Z</time>
      </trkpt>
      <trkpt lat="50.733743961900473" lon="1.782716978341341">
        <ele>90.980000000000004</ele>
        <time>2018-07-02T12:45:24Z</time>
      </trkpt>
      <trkpt lat="50.733680007979274" lon="1.782825021073222">
        <ele>90.980000000000004</ele>
        <time>2018-07-02T12:45:25Z</time>
      </trkpt>
      <trkpt lat="50.733615970239043" lon="1.782933985814452">
        <ele>91.939999999999998</ele>
        <time>2018-07-02T12:45:26Z</time>
      </trkpt>
      <trkpt lat="50.733552016317844" lon="1.783044040203095">
        <ele>92.420000000000002</ele>
        <time>2018-07-02T12:45:27Z</time>
      </trkpt>
      <trkpt lat="50.733488984405994" lon="1.783157028257847">
        <ele>92.900000000000006</ele>
        <time>2018-07-02T12:45:28Z</time>
      </trkpt>
      <trkpt lat="50.732693038880825" lon="1.784758977591991">
        <ele>93.390000000000001</ele>
        <time>2018-07-02T12:45:39Z</time>
      </trkpt>
      <trkpt lat="50.731941014528275" lon="1.786269983276725">
        <ele>92.900000000000006</ele>
        <time>2018-07-02T12:45:49Z</time>
      </trkpt>
      <trkpt lat="50.731189996004105" lon="1.788227995857596">
        <ele>99.150000000000006</ele>
        <time>2018-07-02T12:46:01Z</time>
      </trkpt>
      <trkpt lat="50.73094398714602" lon="1.789318984374404">
        <ele>100.11</ele>
        <time>2018-07-02T12:46:07Z</time>
      </trkpt>
      <trkpt lat="50.730923032388091" lon="1.789507996290922">
        <ele>100.59999999999999</ele>
        <time>2018-07-02T12:46:08Z</time>
      </trkpt>
      <trkpt lat="50.730961002409458" lon="1.790625974535942">
        <ele>100.59999999999999</ele>
        <time>2018-07-02T12:46:14Z</time>
      </trkpt>
      <trkpt lat="50.730999978259206" lon="1.790803000330925">
        <ele>100.59999999999999</ele>
        <time>2018-07-02T12:46:15Z</time>
      </trkpt>
      <trkpt lat="50.731038032099605" lon="1.790980026125908">
        <ele>100.59999999999999</ele>
        <time>2018-07-02T12:46:16Z</time>
      </trkpt>
      <trkpt lat="50.731215979903936" lon="1.792480973526835">
        <ele>100.59999999999999</ele>
        <time>2018-07-02T12:46:23Z</time>
      </trkpt>
      <trkpt lat="50.731209022924304" lon="1.792735029011965">
        <ele>100.59999999999999</ele>
        <time>2018-07-02T12:46:24Z</time>
      </trkpt>
      <trkpt lat="50.731178009882569" lon="1.792990006506443">
        <ele>100.59999999999999</ele>
        <time>2018-07-02T12:46:25Z</time>
      </trkpt>
      <trkpt lat="50.731084970757365" lon="1.794582987204194">
        <ele>98.670000000000002</ele>
        <time>2018-07-02T12:46:31Z</time>
      </trkpt>
      <trkpt lat="50.731041971594095" lon="1.794843999668956">
        <ele>98.189999999999998</ele>
        <time>2018-07-02T12:46:32Z</time>
      </trkpt>
      <trkpt lat="50.730983968824148" lon="1.795096965506673">
        <ele>97.709999999999994</ele>
        <time>2018-07-02T12:46:33Z</time>
      </trkpt>
      <trkpt lat="50.730912974104285" lon="1.795351020991802">
        <ele>97.709999999999994</ele>
        <time>2018-07-02T12:46:34Z</time>
      </trkpt>
      <trkpt lat="50.730841979384422" lon="1.795610021799803">
        <ele>97.709999999999994</ele>
        <time>2018-07-02T12:46:35Z</time>
      </trkpt>
      <trkpt lat="50.730300005525351" lon="1.797743970528245">
        <ele>98.670000000000002</ele>
        <time>2018-07-02T12:46:44Z</time>
      </trkpt>
      <trkpt lat="50.730230016633868" lon="1.797940023243427">
        <ele>98.670000000000002</ele>
        <time>2018-07-02T12:46:45Z</time>
      </trkpt>
      <trkpt lat="50.730160027742386" lon="1.798135992139578">
        <ele>98.670000000000002</ele>
        <time>2018-07-02T12:46:46Z</time>
      </trkpt>
      <trkpt lat="50.730081992223859" lon="1.798330033197999">
        <ele>98.670000000000002</ele>
        <time>2018-07-02T12:46:47Z</time>
      </trkpt>
      <trkpt lat="50.729974033311009" lon="1.798486020416021">
        <ele>98.670000000000002</ele>
        <time>2018-07-02T12:46:48Z</time>
      </trkpt>
      <trkpt lat="50.729864984750748" lon="1.798644019290805">
        <ele>98.670000000000002</ele>
        <time>2018-07-02T12:46:49Z</time>
      </trkpt>
      <trkpt lat="50.729639008641243" lon="1.799030005931854">
        <ele>99.150000000000006</ele>
        <time>2018-07-02T12:46:52Z</time>
      </trkpt>
      <trkpt lat="50.729613024741411" lon="1.799114998430014">
        <ele>99.150000000000006</ele>
        <time>2018-07-02T12:46:53Z</time>
      </trkpt>
      <trkpt lat="50.729592991992831" lon="1.799180964007974">
        <ele>99.150000000000006</ele>
        <time>2018-07-02T12:46:54Z</time>
      </trkpt>
      <trkpt lat="50.729593997821212" lon="1.799228992313147">
        <ele>99.150000000000006</ele>
        <time>2018-07-02T12:46:55Z</time>
      </trkpt>
      <trkpt lat="50.729615036398172" lon="1.799295041710138">
        <ele>99.150000000000006</ele>
        <time>2018-07-02T12:46:56Z</time>
      </trkpt>
      <trkpt lat="50.729650994762778" lon="1.799358995631337">
        <ele>99.150000000000006</ele>
        <time>2018-07-02T12:46:57Z</time>
      </trkpt>
      <trkpt lat="50.729715032503009" lon="1.799433007836342">
        <ele>99.629999999999995</ele>
        <time>2018-07-02T12:46:58Z</time>
      </trkpt>
      <trkpt lat="50.729790972545743" lon="1.799521017819643">
        <ele>99.629999999999995</ele>
        <time>2018-07-02T12:46:59Z</time>
      </trkpt>
      <trkpt lat="50.730024995282292" lon="1.799867022782564">
        <ele>99.629999999999995</ele>
        <time>2018-07-02T12:47:02Z</time>
      </trkpt>
      <trkpt lat="50.730622038245201" lon="1.801020037382841">
        <ele>97.709999999999994</ele>
        <time>2018-07-02T12:47:11Z</time>
      </trkpt>
      <trkpt lat="50.730966031551361" lon="1.802138015627861">
        <ele>97.230000000000004</ele>
        <time>2018-07-02T12:47:20Z</time>
      </trkpt>
      <trkpt lat="50.730979023501277" lon="1.802188977599144">
        <ele>97.230000000000004</ele>
        <time>2018-07-02T12:47:21Z</time>
      </trkpt>
      <trkpt lat="50.730990003794432" lon="1.802229965105653">
        <ele>97.230000000000004</ele>
        <time>2018-07-02T12:47:22Z</time>
      </trkpt>
      <trkpt lat="50.730977011844516" lon="1.802301965653896">
        <ele>97.230000000000004</ele>
        <time>2018-07-02T12:47:23Z</time>
      </trkpt>
      <trkpt lat="50.730950022116303" lon="1.802332978695631">
        <ele>97.230000000000004</ele>
        <time>2018-07-02T12:47:24Z</time>
      </trkpt>
      <trkpt lat="50.730916997417808" lon="1.80237203836441">
        <ele>97.230000000000004</ele>
        <time>2018-07-02T12:47:25Z</time>
      </trkpt>
      <trkpt lat="50.730869974941015" lon="1.802427023649216">
        <ele>97.230000000000004</ele>
        <time>2018-07-02T12:47:26Z</time>
      </trkpt>
      <trkpt lat="50.730813983827829" lon="1.802492989227176">
        <ele>97.709999999999994</ele>
        <time>2018-07-02T12:47:27Z</time>
      </trkpt>
      <trkpt lat="50.7302560005337" lon="1.803216012194753">
        <ele>99.629999999999995</ele>
        <time>2018-07-02T12:47:34Z</time>
      </trkpt>
      <trkpt lat="50.729403980076313" lon="1.804462987929583">
        <ele>102.04000000000001</ele>
        <time>2018-07-02T12:47:42Z</time>
      </trkpt>
      <trkpt lat="50.728177037090063" lon="1.805807026103139">
        <ele>105.88</ele>
        <time>2018-07-02T12:47:50Z</time>
      </trkpt>
      <trkpt lat="50.727574964985251" lon="1.806297032162547">
        <ele>106.84</ele>
        <time>2018-07-02T12:47:54Z</time>
      </trkpt>
      <trkpt lat="50.727458037436008" lon="1.806402979418635">
        <ele>106.84</ele>
        <time>2018-07-02T12:47:55Z</time>
      </trkpt>
      <trkpt lat="50.727349994704127" lon="1.806530971080065">
        <ele>106.84</ele>
        <time>2018-07-02T12:47:56Z</time>
      </trkpt>
      <trkpt lat="50.727255027741194" lon="1.806729035452008">
        <ele>106.84</ele>
        <time>2018-07-02T12:47:57Z</time>
      </trkpt>
      <trkpt lat="50.727154025807977" lon="1.806942019611597">
        <ele>106.84</ele>
        <time>2018-07-02T12:47:58Z</time>
      </trkpt>
      <trkpt lat="50.72632597759366" lon="1.808700039982796">
        <ele>107.31999999999999</ele>
        <time>2018-07-02T12:48:05Z</time>
      </trkpt>
      <trkpt lat="50.726212989538908" lon="1.808938002213836">
        <ele>107.31999999999999</ele>
        <time>2018-07-02T12:48:06Z</time>
      </trkpt>
      <trkpt lat="50.726074017584324" lon="1.809131959453225">
        <ele>107.81</ele>
        <time>2018-07-02T12:48:07Z</time>
      </trkpt>
      <trkpt lat="50.72578601539135" lon="1.809522975236177">
        <ele>108.77</ele>
        <time>2018-07-02T12:48:09Z</time>
      </trkpt>
      <trkpt lat="50.72561401873827" lon="1.809667982161045">
        <ele>109.73</ele>
        <time>2018-07-02T12:48:10Z</time>
      </trkpt>
      <trkpt lat="50.72544302791357" lon="1.809811983257532">
        <ele>110.69</ele>
        <time>2018-07-02T12:48:11Z</time>
      </trkpt>
      <trkpt lat="50.725259967148304" lon="1.809918014332652">
        <ele>111.65000000000001</ele>
        <time>2018-07-02T12:48:12Z</time>
      </trkpt>
      <trkpt lat="50.725069027394056" lon="1.810012981295586">
        <ele>112.61</ele>
        <time>2018-07-02T12:48:13Z</time>
      </trkpt>
      <trkpt lat="50.723474035039544" lon="1.810944965109229">
        <ele>113.56999999999999</ele>
        <time>2018-07-02T12:48:21Z</time>
      </trkpt>
      <trkpt lat="50.721872001886368" lon="1.812112983316183">
        <ele>108.29000000000001</ele>
        <time>2018-07-02T12:48:29Z</time>
      </trkpt>
      <trkpt lat="50.720527041703463" lon="1.814018022269011">
        <ele>102.04000000000001</ele>
        <time>2018-07-02T12:48:37Z</time>
      </trkpt>
      <trkpt lat="50.72005002759397" lon="1.814553961157799">
        <ele>101.56</ele>
        <time>2018-07-02T12:48:40Z</time>
      </trkpt>
      <trkpt lat="50.719880964607" lon="1.814672984182835">
        <ele>101.56</ele>
        <time>2018-07-02T12:48:41Z</time>
      </trkpt>
      <trkpt lat="50.719709973782301" lon="1.814792007207871">
        <ele>101.56</ele>
        <time>2018-07-02T12:48:42Z</time>
      </trkpt>
      <trkpt lat="50.719519034028053" lon="1.814838023856282">
        <ele>101.08</ele>
        <time>2018-07-02T12:48:43Z</time>
      </trkpt>
      <trkpt lat="50.719324992969632" lon="1.814874988049269">
        <ele>101.08</ele>
        <time>2018-07-02T12:48:44Z</time>
      </trkpt>
      <trkpt lat="50.719128018245101" lon="1.814910024404526">
        <ele>101.08</ele>
        <time>2018-07-02T12:48:45Z</time>
      </trkpt>
      <trkpt lat="50.71893498301506" lon="1.814864007756114">
        <ele>100.59999999999999</ele>
        <time>2018-07-02T12:48:46Z</time>
      </trkpt>
      <trkpt lat="50.718743037432432" lon="1.814810028299689">
        <ele>100.11</ele>
        <time>2018-07-02T12:48:47Z</time>
      </trkpt>
      <trkpt lat="50.718555031344295" lon="1.814703997224569">
        <ele>99.629999999999995</ele>
        <time>2018-07-02T12:48:48Z</time>
      </trkpt>
      <trkpt lat="50.718367025256157" lon="1.814572988077998">
        <ele>99.150000000000006</ele>
        <time>2018-07-02T12:48:49Z</time>
      </trkpt>
      <trkpt lat="50.718191005289555" lon="1.814396968111396">
        <ele>99.150000000000006</ele>
        <time>2018-07-02T12:48:50Z</time>
      </trkpt>
      <trkpt lat="50.718018002808094" lon="1.814203010872006">
        <ele>98.670000000000002</ele>
        <time>2018-07-02T12:48:51Z</time>
      </trkpt>
      <trkpt lat="50.717847011983395" lon="1.813991032540798">
        <ele>98.189999999999998</ele>
        <time>2018-07-02T12:48:52Z</time>
      </trkpt>
      <trkpt lat="50.716170966625214" lon="1.812107032164931">
        <ele>92.900000000000006</ele>
        <time>2018-07-02T12:49:01Z</time>
      </trkpt>
      <trkpt lat="50.715979021042585" lon="1.811979040503502">
        <ele>92.420000000000002</ele>
        <time>2018-07-02T12:49:02Z</time>
      </trkpt>
      <trkpt lat="50.715781040489674" lon="1.811899999156594">
        <ele>91.939999999999998</ele>
        <time>2018-07-02T12:49:03Z</time>
      </trkpt>
      <trkpt lat="50.715584987774491" lon="1.811843002215028">
        <ele>91.459999999999994</ele>
        <time>2018-07-02T12:49:04Z</time>
      </trkpt>
      <trkpt lat="50.715386001393199" lon="1.811843002215028">
        <ele>90.980000000000004</ele>
        <time>2018-07-02T12:49:05Z</time>
      </trkpt>
      <trkpt lat="50.715189026668668" lon="1.811843002215028">
        <ele>90.980000000000004</ele>
        <time>2018-07-02T12:49:06Z</time>
      </trkpt>
      <trkpt lat="50.714998003095388" lon="1.811894970014691">
        <ele>90.5</ele>
        <time>2018-07-02T12:49:07Z</time>
      </trkpt>
      <trkpt lat="50.71480899117887" lon="1.811989014968276">
        <ele>90.5</ele>
        <time>2018-07-02T12:49:08Z</time>
      </trkpt>
      <trkpt lat="50.714620985090733" lon="1.812082976102829">
        <ele>90.5</ele>
        <time>2018-07-02T12:49:09Z</time>
      </trkpt>
      <trkpt lat="50.714451000094414" lon="1.812241980805993">
        <ele>90.019999999999996</ele>
        <time>2018-07-02T12:49:10Z</time>
      </trkpt>
      <trkpt lat="50.714285038411617" lon="1.812415989115834">
        <ele>90.019999999999996</ele>
        <time>2018-07-02T12:49:11Z</time>
      </trkpt>
      <trkpt lat="50.714116981253028" lon="1.812592009082437">
        <ele>89.540000000000006</ele>
        <time>2018-07-02T12:49:12Z</time>
      </trkpt>
      <trkpt lat="50.712629025802016" lon="1.814135033637285">
        <ele>80.409999999999997</ele>
        <time>2018-07-02T12:49:22Z</time>
      </trkpt>
      <trkpt lat="50.712481001392007" lon="1.814217008650303">
        <ele>79.450000000000003</ele>
        <time>2018-07-02T12:49:23Z</time>
      </trkpt>
      <trkpt lat="50.712329959496856" lon="1.814261013641954">
        <ele>78</ele>
        <time>2018-07-02T12:49:24Z</time>
      </trkpt>
      <trkpt lat="50.711706010624766" lon="1.814405014738441">
        <ele>73.200000000000003</ele>
        <time>2018-07-02T12:49:29Z</time>
      </trkpt>
      <trkpt lat="50.711584975942969" lon="1.814412977546454">
        <ele>71.760000000000005</ele>
        <time>2018-07-02T12:49:30Z</time>
      </trkpt>
      <trkpt lat="50.711466036736965" lon="1.814380036666989">
        <ele>70.310000000000002</ele>
        <time>2018-07-02T12:49:31Z</time>
      </trkpt>
      <trkpt lat="50.710423998534679" lon="1.814052974805236">
        <ele>60.700000000000003</ele>
        <time>2018-07-02T12:49:39Z</time>
      </trkpt>
      <trkpt lat="50.710301036015153" lon="1.8140600156039">
        <ele>59.259999999999998</ele>
        <time>2018-07-02T12:49:40Z</time>
      </trkpt>
      <trkpt lat="50.710157034918666" lon="1.814067978411913">
        <ele>57.82</ele>
        <time>2018-07-02T12:49:41Z</time>
      </trkpt>
      <trkpt lat="50.710004987195134" lon="1.81408298201859">
        <ele>56.859999999999999</ele>
        <time>2018-07-02T12:49:42Z</time>
      </trkpt>
      <trkpt lat="50.70984598249197" lon="1.814127992838621">
        <ele>55.409999999999997</ele>
        <time>2018-07-02T12:49:43Z</time>
      </trkpt>
      <trkpt lat="50.709691001102328" lon="1.814209967851639">
        <ele>53.969999999999999</ele>
        <time>2018-07-02T12:49:44Z</time>
      </trkpt>
      <trkpt lat="50.709530990570784" lon="1.814294038340449">
        <ele>52.530000000000001</ele>
        <time>2018-07-02T12:49:45Z</time>
      </trkpt>
      <trkpt lat="50.709381038323045" lon="1.814422030001879">
        <ele>51.57</ele>
        <time>2018-07-02T12:49:46Z</time>
      </trkpt>
      <trkpt lat="50.709237037226558" lon="1.814556978642941">
        <ele>50.130000000000003</ele>
        <time>2018-07-02T12:49:47Z</time>
      </trkpt>
      <trkpt lat="50.709104016423225" lon="1.814721012488008">
        <ele>48.68</ele>
        <time>2018-07-02T12:49:48Z</time>
      </trkpt>
      <trkpt lat="50.708978036418557" lon="1.814903989434242">
        <ele>47.240000000000002</ele>
        <time>2018-07-02T12:49:49Z</time>
      </trkpt>
      <trkpt lat="50.708853984251618" lon="1.815103981643915">
        <ele>45.799999999999997</ele>
        <time>2018-07-02T12:49:50Z</time>
      </trkpt>
      <trkpt lat="50.708738984540105" lon="1.815317971631885">
        <ele>44.359999999999999</ele>
        <time>2018-07-02T12:49:51Z</time>
      </trkpt>
      <trkpt lat="50.708259958773851" lon="1.816119030117989">
        <ele>40.030000000000001</ele>
        <time>2018-07-02T12:49:55Z</time>
      </trkpt>
      <trkpt lat="50.708130039274693" lon="1.816289015114307">
        <ele>39.07</ele>
        <time>2018-07-02T12:49:56Z</time>
      </trkpt>
      <trkpt lat="50.707983020693064" lon="1.816411977633834">
        <ele>38.590000000000003</ele>
        <time>2018-07-02T12:49:57Z</time>
      </trkpt>
      <trkpt lat="50.707826027646661" lon="1.81650904007256">
        <ele>38.109999999999999</ele>
        <time>2018-07-02T12:49:58Z</time>
      </trkpt>
      <trkpt lat="50.707664005458355" lon="1.816609958186746">
        <ele>37.630000000000003</ele>
        <time>2018-07-02T12:49:59Z</time>
      </trkpt>
      <trkpt lat="50.707500977441669" lon="1.816710960119963">
        <ele>37.149999999999999</ele>
        <time>2018-07-02T12:50:00Z</time>
      </trkpt>
      <trkpt lat="50.707327974960208" lon="1.816750019788742">
        <ele>37.149999999999999</ele>
        <time>2018-07-02T12:50:01Z</time>
      </trkpt>
      <trkpt lat="50.707151032984257" lon="1.816770974546671">
        <ele>37.149999999999999</ele>
        <time>2018-07-02T12:50:02Z</time>
      </trkpt>
      <trkpt lat="50.706491963937879" lon="1.816851021721959">
        <ele>38.109999999999999</ele>
        <time>2018-07-02T12:50:06Z</time>
      </trkpt>
      <trkpt lat="50.706352991983294" lon="1.816869964823127">
        <ele>38.109999999999999</ele>
        <time>2018-07-02T12:50:07Z</time>
      </trkpt>
      <trkpt lat="50.706038000062108" lon="1.816912963986397">
        <ele>38.109999999999999</ele>
        <time>2018-07-02T12:50:10Z</time>
      </trkpt>
      <trkpt lat="50.705968011170626" lon="1.816922016441822">
        <ele>38.590000000000003</ele>
        <time>2018-07-02T12:50:11Z</time>
      </trkpt>
      <trkpt lat="50.70591595955193" lon="1.816928973421454">
        <ele>38.590000000000003</ele>
        <time>2018-07-02T12:50:12Z</time>
      </trkpt>
      <trkpt lat="50.70578696206212" lon="1.816754965111613">
        <ele>38.590000000000003</ele>
        <time>2018-07-02T12:50:13Z</time>
      </trkpt>
      <trkpt lat="50.705795008689165" lon="1.816672990098596">
        <ele>38.590000000000003</ele>
        <time>2018-07-02T12:50:14Z</time>
      </trkpt>
      <trkpt lat="50.7058069948107" lon="1.816549021750689">
        <ele>38.590000000000003</ele>
        <time>2018-07-02T12:50:15Z</time>
      </trkpt>
      <trkpt lat="50.705823004245758" lon="1.816388005390763">
        <ele>38.109999999999999</ele>
        <time>2018-07-02T12:50:16Z</time>
      </trkpt>
      <trkpt lat="50.705842031165957" lon="1.816205028444529">
        <ele>37.630000000000003</ele>
        <time>2018-07-02T12:50:17Z</time>
      </trkpt>
      <trkpt lat="50.705877989530563" lon="1.816006964072585">
        <ele>37.630000000000003</ele>
        <time>2018-07-02T12:50:18Z</time>
      </trkpt>
      <trkpt lat="50.705940015614033" lon="1.815799009054899">
        <ele>37.630000000000003</ele>
        <time>2018-07-02T12:50:19Z</time>
      </trkpt>
      <trkpt lat="50.706007992848754" lon="1.815572027117014">
        <ele>37.630000000000003</ele>
        <time>2018-07-02T12:50:20Z</time>
      </trkpt>
      <trkpt lat="50.706547033041716" lon="1.813328023999929">
        <ele>38.109999999999999</ele>
        <time>2018-07-02T12:50:28Z</time>
      </trkpt>
      <trkpt lat="50.706735961139202" lon="1.812168974429369">
        <ele>37.630000000000003</ele>
        <time>2018-07-02T12:50:33Z</time>
      </trkpt>
      <trkpt lat="50.706744007766247" lon="1.810572976246476">
        <ele>37.630000000000003</ele>
        <time>2018-07-02T12:50:41Z</time>
      </trkpt>
      <trkpt lat="50.706671001389623" lon="1.80959003046155">
        <ele>37.149999999999999</ele>
        <time>2018-07-02T12:50:46Z</time>
      </trkpt>
      <trkpt lat="50.706620961427689" lon="1.809422979131341">
        <ele>37.149999999999999</ele>
        <time>2018-07-02T12:50:47Z</time>
      </trkpt>
      <trkpt lat="50.706474026665092" lon="1.8088189791888">
        <ele>36.670000000000002</ele>
        <time>2018-07-02T12:50:50Z</time>
      </trkpt>
      <trkpt lat="50.706125004217029" lon="1.806865995749831">
        <ele>35.710000000000001</ele>
        <time>2018-07-02T12:50:57Z</time>
      </trkpt>
      <trkpt lat="50.70550600066781" lon="1.80422100238502">
        <ele>37.149999999999999</ele>
        <time>2018-07-02T12:51:06Z</time>
      </trkpt>
      <trkpt lat="50.705082966014743" lon="1.801882032305002">
        <ele>36.189999999999998</ele>
        <time>2018-07-02T12:51:14Z</time>
      </trkpt>
      <trkpt lat="50.704964026808739" lon="1.801457991823554">
        <ele>35.710000000000001</ele>
        <time>2018-07-02T12:51:16Z</time>
      </trkpt>
      <trkpt lat="50.704870987683535" lon="1.801303010433912">
        <ele>36.189999999999998</ele>
        <time>2018-07-02T12:51:17Z</time>
      </trkpt>
      <trkpt lat="50.704764034599066" lon="1.801154986023903">
        <ele>36.189999999999998</ele>
        <time>2018-07-02T12:51:18Z</time>
      </trkpt>
      <trkpt lat="50.704526994377375" lon="1.800828007981181">
        <ele>36.670000000000002</ele>
        <time>2018-07-02T12:51:20Z</time>
      </trkpt>
      <trkpt lat="50.704414006322622" lon="1.800627009943128">
        <ele>37.149999999999999</ele>
        <time>2018-07-02T12:51:21Z</time>
      </trkpt>
      <trkpt lat="50.704287020489573" lon="1.800385024398565">
        <ele>37.630000000000003</ele>
        <time>2018-07-02T12:51:22Z</time>
      </trkpt>
      <trkpt lat="50.703088995069265" lon="1.798207992687821">
        <ele>41.950000000000003</ele>
        <time>2018-07-02T12:51:32Z</time>
      </trkpt>
      <trkpt lat="50.702256001532078" lon="1.796763958409429">
        <ele>43.880000000000003</ele>
        <time>2018-07-02T12:51:40Z</time>
      </trkpt>
      <trkpt lat="50.702178971841931" lon="1.796536976471543">
        <ele>43.880000000000003</ele>
        <time>2018-07-02T12:51:41Z</time>
      </trkpt>
      <trkpt lat="50.701404986903071" lon="1.794280987232924">
        <ele>39.549999999999997</ele>
        <time>2018-07-02T12:51:50Z</time>
      </trkpt>
      <trkpt lat="50.701088989153504" lon="1.793454028666019">
        <ele>36.189999999999998</ele>
        <time>2018-07-02T12:51:54Z</time>
      </trkpt>
      <trkpt lat="50.700955968350172" lon="1.793265016749501">
        <ele>35.710000000000001</ele>
        <time>2018-07-02T12:51:55Z</time>
      </trkpt>
      <trkpt lat="50.700832000002265" lon="1.793088996782899">
        <ele>35.229999999999997</ele>
        <time>2018-07-02T12:51:56Z</time>
      </trkpt>
      <trkpt lat="50.699987020343542" lon="1.792196994647384">
        <ele>32.82</ele>
        <time>2018-07-02T12:52:02Z</time>
      </trkpt>
      <trkpt lat="50.699821980670094" lon="1.79210202768445">
        <ele>32.82</ele>
        <time>2018-07-02T12:52:03Z</time>
      </trkpt>
      <trkpt lat="50.698191029950976" lon="1.791140958666802">
        <ele>31.859999999999999</ele>
        <time>2018-07-02T12:52:13Z</time>
      </trkpt>
      <trkpt lat="50.697621982544661" lon="1.790647013112903">
        <ele>31.379999999999999</ele>
        <time>2018-07-02T12:52:18Z</time>
      </trkpt>
      <trkpt lat="50.696844980120659" lon="1.789779989048839">
        <ele>31.859999999999999</ele>
        <time>2018-07-02T12:52:26Z</time>
      </trkpt>
      <trkpt lat="50.696698967367411" lon="1.789581002667546">
        <ele>31.379999999999999</ele>
        <time>2018-07-02T12:52:28Z</time>
      </trkpt>
      <trkpt lat="50.696596037596464" lon="1.789357960224152">
        <ele>31.379999999999999</ele>
        <time>2018-07-02T12:52:30Z</time>
      </trkpt>
      <trkpt lat="50.696543985977769" lon="1.78924698382616">
        <ele>31.859999999999999</ele>
        <time>2018-07-02T12:52:31Z</time>
      </trkpt>
      <trkpt lat="50.696291020140052" lon="1.788511974737048">
        <ele>31.379999999999999</ele>
        <time>2018-07-02T12:52:39Z</time>
      </trkpt>
      <trkpt lat="50.696262018755078" lon="1.788506023585796">
        <ele>30.899999999999999</ele>
        <time>2018-07-02T12:52:40Z</time>
      </trkpt>
      <trkpt lat="50.696211978793144" lon="1.788495965301991">
        <ele>30.899999999999999</ele>
        <time>2018-07-02T12:52:41Z</time>
      </trkpt>
      <trkpt lat="50.695520974695683" lon="1.788212992250919">
        <ele>31.379999999999999</ele>
        <time>2018-07-02T12:52:48Z</time>
      </trkpt>
      <trkpt lat="50.694063026458025" lon="1.787536991760135">
        <ele>34.259999999999998</ele>
        <time>2018-07-02T12:52:59Z</time>
      </trkpt>
      <trkpt lat="50.693935034796596" lon="1.787479994818568">
        <ele>34.740000000000002</ele>
        <time>2018-07-02T12:53:00Z</time>
      </trkpt>
      <trkpt lat="50.693807965144515" lon="1.787422997877002">
        <ele>35.229999999999997</ele>
        <time>2018-07-02T12:53:01Z</time>
      </trkpt>
      <trkpt lat="50.692342976108193" lon="1.786532001569867">
        <ele>33.780000000000001</ele>
        <time>2018-07-02T12:53:13Z</time>
      </trkpt>
      <trkpt lat="50.692041981965303" lon="1.786358999088407">
        <ele>34.259999999999998</ele>
        <time>2018-07-02T12:53:16Z</time>
      </trkpt>
      <trkpt lat="50.691965958103538" lon="1.786282975226641">
        <ele>34.259999999999998</ele>
        <time>2018-07-02T12:53:17Z</time>
      </trkpt>
      <trkpt lat="50.691910972818732" lon="1.786177027970552">
        <ele>35.229999999999997</ele>
        <time>2018-07-02T12:53:18Z</time>
      </trkpt>
      <trkpt lat="50.69184198975563" lon="1.786048030480743">
        <ele>36.189999999999998</ele>
        <time>2018-07-02T12:53:19Z</time>
      </trkpt>
      <trkpt lat="50.691765965893865" lon="1.785903023555875">
        <ele>37.149999999999999</ele>
        <time>2018-07-02T12:53:20Z</time>
      </trkpt>
      <trkpt lat="50.691688014194369" lon="1.785757010802627">
        <ele>37.149999999999999</ele>
        <time>2018-07-02T12:53:21Z</time>
      </trkpt>
      <trkpt lat="50.691605033352971" lon="1.785600017756224">
        <ele>37.149999999999999</ele>
        <time>2018-07-02T12:53:22Z</time>
      </trkpt>
      <trkpt lat="50.691500008106232" lon="1.785494992509484">
        <ele>37.630000000000003</ele>
        <time>2018-07-02T12:53:23Z</time>
      </trkpt>
      <trkpt lat="50.690412037074566" lon="1.784450020641089">
        <ele>36.189999999999998</ele>
        <time>2018-07-02T12:53:31Z</time>
      </trkpt>
      <trkpt lat="50.689654983580112" lon="1.783816013485193">
        <ele>34.740000000000002</ele>
        <time>2018-07-02T12:53:36Z</time>
      </trkpt>
      <trkpt lat="50.68949899636209" lon="1.783775025978684">
        <ele>34.740000000000002</ele>
        <time>2018-07-02T12:53:37Z</time>
      </trkpt>
      <trkpt lat="50.689335968345404" lon="1.78376697935164">
        <ele>34.259999999999998</ele>
        <time>2018-07-02T12:53:38Z</time>
      </trkpt>
      <trkpt lat="50.688313962891698" lon="1.783710988238454">
        <ele>34.740000000000002</ele>
        <time>2018-07-02T12:53:44Z</time>
      </trkpt>
      <trkpt lat="50.68786502815783" lon="1.783602023497224">
        <ele>36.189999999999998</ele>
        <time>2018-07-02T12:53:48Z</time>
      </trkpt>
      <trkpt lat="50.687729995697737" lon="1.783568998798728">
        <ele>36.670000000000002</ele>
        <time>2018-07-02T12:53:50Z</time>
      </trkpt>
      <trkpt lat="50.687678027898073" lon="1.783574027940631">
        <ele>36.670000000000002</ele>
        <time>2018-07-02T12:53:51Z</time>
      </trkpt>
      <trkpt lat="50.687612984329462" lon="1.783610992133617">
        <ele>36.670000000000002</ele>
        <time>2018-07-02T12:53:52Z</time>
      </trkpt>
      <trkpt lat="50.687550036236644" lon="1.783648040145636">
        <ele>37.149999999999999</ele>
        <time>2018-07-02T12:53:53Z</time>
      </trkpt>
      <trkpt lat="50.687479041516781" lon="1.783748958259821">
        <ele>37.149999999999999</ele>
        <time>2018-07-02T12:53:54Z</time>
      </trkpt>
      <trkpt lat="50.687400000169873" lon="1.783862030133605">
        <ele>37.630000000000003</ele>
        <time>2018-07-02T12:53:55Z</time>
      </trkpt>
      <trkpt lat="50.687335962429643" lon="1.783987004309893">
        <ele>38.109999999999999</ele>
        <time>2018-07-02T12:53:56Z</time>
      </trkpt>
      <trkpt lat="50.687275025993586" lon="1.784105021506548">
        <ele>38.590000000000003</ele>
        <time>2018-07-02T12:53:57Z</time>
      </trkpt>
      <trkpt lat="50.687225991860032" lon="1.784200994297862">
        <ele>38.590000000000003</ele>
        <time>2018-07-02T12:53:58Z</time>
      </trkpt>
      <trkpt lat="50.687190033495426" lon="1.784271989017725">
        <ele>39.07</ele>
        <time>2018-07-02T12:53:59Z</time>
      </trkpt>
      <trkpt lat="50.687152985483408" lon="1.784343989565969">
        <ele>39.07</ele>
        <time>2018-07-02T12:54:05Z</time>
      </trkpt>
      <trkpt lat="50.687152985483408" lon="1.784343989565969">
        <ele>39.07</ele>
        <time>2018-07-02T12:54:57Z</time>
      </trkpt>
      <trkpt lat="50.687152985483408" lon="1.784343989565969">
        <ele>39.07</ele>
        <time>2018-07-02T12:55:49Z</time>
      </trkpt>
      <trkpt lat="50.687152985483408" lon="1.784343989565969">
        <ele>39.549999999999997</ele>
        <time>2018-07-02T12:56:40Z</time>
      </trkpt>
      <trkpt lat="50.687152985483408" lon="1.784343989565969">
        <ele>40.030000000000001</ele>
        <time>2018-07-02T12:57:32Z</time>
      </trkpt>
      <trkpt lat="50.687152985483408" lon="1.784343989565969">
        <ele>40.030000000000001</ele>
        <time>2018-07-02T12:58:21Z</time>
      </trkpt>
      <trkpt lat="50.687152985483408" lon="1.784343989565969">
        <ele>39.549999999999997</ele>
        <time>2018-07-02T12:59:03Z</time>
      </trkpt>
      <trkpt lat="50.687152985483408" lon="1.784343989565969">
        <ele>40.030000000000001</ele>
        <time>2018-07-02T13:00:03Z</time>
      </trkpt>
      <trkpt lat="50.687152985483408" lon="1.784343989565969">
        <ele>40.030000000000001</ele>
        <time>2018-07-02T13:00:52Z</time>
      </trkpt>
      <trkpt lat="50.687152985483408" lon="1.784343989565969">
        <ele>40.030000000000001</ele>
        <time>2018-07-02T13:01:42Z</time>
      </trkpt>
      <trkpt lat="50.687152985483408" lon="1.784343989565969">
        <ele>40.030000000000001</ele>
        <time>2018-07-02T13:02:37Z</time>
      </trkpt>
      <trkpt lat="50.687152985483408" lon="1.784343989565969">
        <ele>40.030000000000001</ele>
        <time>2018-07-02T13:03:34Z</time>
      </trkpt>
      <trkpt lat="50.687152985483408" lon="1.784343989565969">
        <ele>40.030000000000001</ele>
        <time>2018-07-02T13:04:22Z</time>
      </trkpt>
      <trkpt lat="50.687152985483408" lon="1.784343989565969">
        <ele>40.030000000000001</ele>
        <time>2018-07-02T13:05:08Z</time>
      </trkpt>
      <trkpt lat="50.687152985483408" lon="1.784343989565969">
        <ele>40.030000000000001</ele>
        <time>2018-07-02T13:05:59Z</time>
      </trkpt>
      <trkpt lat="50.687152985483408" lon="1.784343989565969">
        <ele>40.030000000000001</ele>
        <time>2018-07-02T13:06:47Z</time>
      </trkpt>
      <trkpt lat="50.687152985483408" lon="1.784343989565969">
        <ele>40.030000000000001</ele>
        <time>2018-07-02T13:07:34Z</time>
      </trkpt>
      <trkpt lat="50.687152985483408" lon="1.784343989565969">
        <ele>40.030000000000001</ele>
        <time>2018-07-02T13:08:17Z</time>
      </trkpt>
    </trkseg>
  </trk>

  <trk>
    <name>Track vom: 2018-07-02 15:13</name>
    <extensions>
      <gpxx:TrackExtension>
        <gpxx:DisplayColor>DarkGray</gpxx:DisplayColor>
      </gpxx:TrackExtension>
    </extensions>
    <trkseg>
      <trkpt lat="50.687152985483408" lon="1.784343989565969">
        <ele>39.549999999999997</ele>
        <time>2018-07-02T13:13:38Z</time>
      </trkpt>
      <trkpt lat="50.687123984098434" lon="1.784400986507535">
        <ele>39.549999999999997</ele>
        <time>2018-07-02T13:13:45Z</time>
      </trkpt>
      <trkpt lat="50.686887027695775" lon="1.784907002002001">
        <ele>39.07</ele>
        <time>2018-07-02T13:13:51Z</time>
      </trkpt>
      <trkpt lat="50.686866994947195" lon="1.78503499366343">
        <ele>38.590000000000003</ele>
        <time>2018-07-02T13:13:52Z</time>
      </trkpt>
      <trkpt lat="50.686876969411969" lon="1.785175977274776">
        <ele>38.590000000000003</ele>
        <time>2018-07-02T13:13:53Z</time>
      </trkpt>
      <trkpt lat="50.686906976625323" lon="1.785472026094794">
        <ele>38.590000000000003</ele>
        <time>2018-07-02T13:13:55Z</time>
      </trkpt>
      <trkpt lat="50.686924997717142" lon="1.785632958635688">
        <ele>38.590000000000003</ele>
        <time>2018-07-02T13:13:56Z</time>
      </trkpt>
      <trkpt lat="50.686948969960213" lon="1.785835968330503">
        <ele>38.590000000000003</ele>
        <time>2018-07-02T13:13:57Z</time>
      </trkpt>
      <trkpt lat="50.686932960525155" lon="1.78600000217557">
        <ele>38.590000000000003</ele>
        <time>2018-07-02T13:13:58Z</time>
      </trkpt>
      <trkpt lat="50.686913011595607" lon="1.786196976900101">
        <ele>38.109999999999999</ele>
        <time>2018-07-02T13:13:59Z</time>
      </trkpt>
      <trkpt lat="50.686676977202296" lon="1.788381971418858">
        <ele>38.590000000000003</ele>
        <time>2018-07-02T13:14:08Z</time>
      </trkpt>
      <trkpt lat="50.686304988339543" lon="1.790450038388372">
        <ele>37.149999999999999</ele>
        <time>2018-07-02T13:14:17Z</time>
      </trkpt>
      <trkpt lat="50.68623399361968" lon="1.790604013949633">
        <ele>37.149999999999999</ele>
        <time>2018-07-02T13:14:18Z</time>
      </trkpt>
      <trkpt lat="50.686175990849733" lon="1.79072898812592">
        <ele>36.670000000000002</ele>
        <time>2018-07-02T13:14:19Z</time>
      </trkpt>
      <trkpt lat="50.68610399030149" lon="1.790799982845783">
        <ele>36.670000000000002</ele>
        <time>2018-07-02T13:14:20Z</time>
      </trkpt>
      <trkpt lat="50.686031989753246" lon="1.790848011150956">
        <ele>36.670000000000002</ele>
        <time>2018-07-02T13:14:21Z</time>
      </trkpt>
      <trkpt lat="50.685940040275455" lon="1.790879024192691">
        <ele>36.670000000000002</ele>
        <time>2018-07-02T13:14:22Z</time>
      </trkpt>
      <trkpt lat="50.685850018635392" lon="1.790864020586014">
        <ele>37.149999999999999</ele>
        <time>2018-07-02T13:14:23Z</time>
      </trkpt>
      <trkpt lat="50.685741975903511" lon="1.790845999494195">
        <ele>37.630000000000003</ele>
        <time>2018-07-02T13:14:24Z</time>
      </trkpt>
      <trkpt lat="50.684987017884851" lon="1.790734017267823">
        <ele>40.030000000000001</ele>
        <time>2018-07-02T13:14:30Z</time>
      </trkpt>
      <trkpt lat="50.684884004294872" lon="1.790743991732597">
        <ele>40.509999999999998</ele>
        <time>2018-07-02T13:14:31Z</time>
      </trkpt>
      <trkpt lat="50.684788031503558" lon="1.790804006159306">
        <ele>40.990000000000002</ele>
        <time>2018-07-02T13:14:32Z</time>
      </trkpt>
      <trkpt lat="50.684738997370005" lon="1.790879024192691">
        <ele>40.990000000000002</ele>
        <time>2018-07-02T13:14:33Z</time>
      </trkpt>
      <trkpt lat="50.684678982943296" lon="1.791042974218726">
        <ele>41.469999999999999</ele>
        <time>2018-07-02T13:14:34Z</time>
      </trkpt>
      <trkpt lat="50.684623997658491" lon="1.791195021942258">
        <ele>41.950000000000003</ele>
        <time>2018-07-02T13:14:35Z</time>
      </trkpt>
      <trkpt lat="50.684462981298566" lon="1.791724003851414">
        <ele>42.439999999999998</ele>
        <time>2018-07-02T13:14:38Z</time>
      </trkpt>
      <trkpt lat="50.684438003227115" lon="1.791920978575945">
        <ele>42.439999999999998</ele>
        <time>2018-07-02T13:14:39Z</time>
      </trkpt>
      <trkpt lat="50.684417970478535" lon="1.792103033512831">
        <ele>42.439999999999998</ele>
        <time>2018-07-02T13:14:40Z</time>
      </trkpt>
      <trkpt lat="50.684432974085212" lon="1.792302019894123">
        <ele>42.439999999999998</ele>
        <time>2018-07-02T13:14:41Z</time>
      </trkpt>
      <trkpt lat="50.684446971863508" lon="1.792509974911809">
        <ele>42.439999999999998</ele>
        <time>2018-07-02T13:14:42Z</time>
      </trkpt>
      <trkpt lat="50.684443032369018" lon="1.792930997908115">
        <ele>42.439999999999998</ele>
        <time>2018-07-02T13:14:44Z</time>
      </trkpt>
      <trkpt lat="50.684430040419102" lon="1.793129984289408">
        <ele>42.439999999999998</ele>
        <time>2018-07-02T13:14:45Z</time>
      </trkpt>
      <trkpt lat="50.684415958821774" lon="1.793326959013939">
        <ele>42.439999999999998</ele>
        <time>2018-07-02T13:14:46Z</time>
      </trkpt>
      <trkpt lat="50.684364996850491" lon="1.793513959273696">
        <ele>41.950000000000003</ele>
        <time>2018-07-02T13:14:47Z</time>
      </trkpt>
      <trkpt lat="50.684311017394066" lon="1.793711017817259">
        <ele>41.950000000000003</ele>
        <time>2018-07-02T13:14:48Z</time>
      </trkpt>
      <trkpt lat="50.68425502628088" lon="1.793915033340454">
        <ele>42.439999999999998</ele>
        <time>2018-07-02T13:14:49Z</time>
      </trkpt>
      <trkpt lat="50.684091998264194" lon="1.79485104046762">
        <ele>40.990000000000002</ele>
        <time>2018-07-02T13:14:53Z</time>
      </trkpt>
      <trkpt lat="50.684058973565698" lon="1.795099982991815">
        <ele>40.509999999999998</ele>
        <time>2018-07-02T13:14:54Z</time>
      </trkpt>
      <trkpt lat="50.684132985770702" lon="1.796988006681204">
        <ele>41.950000000000003</ele>
        <time>2018-07-02T13:15:01Z</time>
      </trkpt>
      <trkpt lat="50.684100966900587" lon="1.798099027946591">
        <ele>44.840000000000003</ele>
        <time>2018-07-02T13:15:05Z</time>
      </trkpt>
      <trkpt lat="50.683666029945016" lon="1.800342025235295">
        <ele>48.200000000000003</ele>
        <time>2018-07-02T13:15:13Z</time>
      </trkpt>
      <trkpt lat="50.682829013094306" lon="1.802851986140013">
        <ele>53.009999999999998</ele>
        <time>2018-07-02T13:15:23Z</time>
      </trkpt>
      <trkpt lat="50.682703033089638" lon="1.803008979186416">
        <ele>53.490000000000002</ele>
        <time>2018-07-02T13:15:24Z</time>
      </trkpt>
      <trkpt lat="50.682570012286305" lon="1.803176030516625">
        <ele>53.969999999999999</ele>
        <time>2018-07-02T13:15:25Z</time>
      </trkpt>
      <trkpt lat="50.682435985654593" lon="1.803334029391408">
        <ele>54.450000000000003</ele>
        <time>2018-07-02T13:15:26Z</time>
      </trkpt>
      <trkpt lat="50.682305982336402" lon="1.803475013002753">
        <ele>54.93</ele>
        <time>2018-07-02T13:15:27Z</time>
      </trkpt>
      <trkpt lat="50.682186959311366" lon="1.803610967472196">
        <ele>55.409999999999997</ele>
        <time>2018-07-02T13:15:28Z</time>
      </trkpt>
      <trkpt lat="50.682082017883658" lon="1.803767960518599">
        <ele>55.890000000000001</ele>
        <time>2018-07-02T13:15:29Z</time>
      </trkpt>
      <trkpt lat="50.681975986808538" lon="1.803933000192046">
        <ele>56.369999999999997</ele>
        <time>2018-07-02T13:15:30Z</time>
      </trkpt>
      <trkpt lat="50.681166965514421" lon="1.805458003655076">
        <ele>53.009999999999998</ele>
        <time>2018-07-02T13:15:37Z</time>
      </trkpt>
      <trkpt lat="50.680772010236979" lon="1.806327039375901">
        <ele>50.609999999999999</ele>
        <time>2018-07-02T13:15:41Z</time>
      </trkpt>
      <trkpt lat="50.680649969726801" lon="1.80653901770711">
        <ele>49.649999999999999</ele>
        <time>2018-07-02T13:15:42Z</time>
      </trkpt>
      <trkpt lat="50.680290972813964" lon="1.807159027084708">
        <ele>47.719999999999999</ele>
        <time>2018-07-02T13:15:45Z</time>
      </trkpt>
      <trkpt lat="50.680210003629327" lon="1.807388020679355">
        <ele>47.240000000000002</ele>
        <time>2018-07-02T13:15:46Z</time>
      </trkpt>
      <trkpt lat="50.679772971197963" lon="1.809306973591447">
        <ele>48.68</ele>
        <time>2018-07-02T13:15:53Z</time>
      </trkpt>
      <trkpt lat="50.679370975121856" lon="1.811260040849447">
        <ele>52.530000000000001</ele>
        <time>2018-07-02T13:16:00Z</time>
      </trkpt>
      <trkpt lat="50.679294029250741" lon="1.811516024172306">
        <ele>52.530000000000001</ele>
        <time>2018-07-02T13:16:01Z</time>
      </trkpt>
      <trkpt lat="50.67852096632123" lon="1.813962031155825">
        <ele>54.93</ele>
        <time>2018-07-02T13:16:10Z</time>
      </trkpt>
      <trkpt lat="50.678362967446446" lon="1.81444700807333">
        <ele>55.890000000000001</ele>
        <time>2018-07-02T13:16:12Z</time>
      </trkpt>
      <trkpt lat="50.677506001666188" lon="1.816118024289608">
        <ele>60.219999999999999</ele>
        <time>2018-07-02T13:16:20Z</time>
      </trkpt>
      <trkpt lat="50.676310993731022" lon="1.81786498054862">
        <ele>65.989999999999995</ele>
        <time>2018-07-02T13:16:29Z</time>
      </trkpt>
      <trkpt lat="50.674963016062975" lon="1.819736994802952">
        <ele>72.239999999999995</ele>
        <time>2018-07-02T13:16:39Z</time>
      </trkpt>
      <trkpt lat="50.674117030575871" lon="1.821091007441282">
        <ele>78.480000000000004</ele>
        <time>2018-07-02T13:16:47Z</time>
      </trkpt>
      <trkpt lat="50.674075037240982" lon="1.821252023801208">
        <ele>79.450000000000003</ele>
        <time>2018-07-02T13:16:48Z</time>
      </trkpt>
      <trkpt lat="50.674033965915442" lon="1.821409016847611">
        <ele>79.450000000000003</ele>
        <time>2018-07-02T13:16:49Z</time>
      </trkpt>
      <trkpt lat="50.674005970358849" lon="1.821568021550775">
        <ele>79.450000000000003</ele>
        <time>2018-07-02T13:16:50Z</time>
      </trkpt>
      <trkpt lat="50.673993984237313" lon="1.821741024032235">
        <ele>79.450000000000003</ele>
        <time>2018-07-02T13:16:51Z</time>
      </trkpt>
      <trkpt lat="50.67396598868072" lon="1.822189958766103">
        <ele>79.450000000000003</ele>
        <time>2018-07-02T13:16:54Z</time>
      </trkpt>
      <trkpt lat="50.673959031701088" lon="1.822300013154745">
        <ele>79.450000000000003</ele>
        <time>2018-07-02T13:16:55Z</time>
      </trkpt>
      <trkpt lat="50.673955008387566" lon="1.822381988167763">
        <ele>79.450000000000003</ele>
        <time>2018-07-02T13:16:56Z</time>
      </trkpt>
      <trkpt lat="50.673951990902424" lon="1.82243999093771">
        <ele>79.450000000000003</ele>
        <time>2018-07-02T13:16:57Z</time>
      </trkpt>
      <trkpt lat="50.673854006454349" lon="1.822529006749392">
        <ele>79.450000000000003</ele>
        <time>2018-07-02T13:16:58Z</time>
      </trkpt>
      <trkpt lat="50.673773037269711" lon="1.822509979829192">
        <ele>79.450000000000003</ele>
        <time>2018-07-02T13:17:04Z</time>
      </trkpt>
      <trkpt lat="50.673701958730817" lon="1.822492964565754">
        <ele>79.450000000000003</ele>
        <time>2018-07-02T13:17:05Z</time>
      </trkpt>
      <trkpt lat="50.67299603484571" lon="1.822278974577785">
        <ele>83.290000000000006</ele>
        <time>2018-07-02T13:17:11Z</time>
      </trkpt>
      <trkpt lat="50.671960031613708" lon="1.821414967998862">
        <ele>89.540000000000006</ele>
        <time>2018-07-02T13:17:17Z</time>
      </trkpt>
      <trkpt lat="50.671778982505202" lon="1.821188991889358">
        <ele>90.5</ele>
        <time>2018-07-02T13:17:18Z</time>
      </trkpt>
      <trkpt lat="50.671625006943941" lon="1.820915993303061">
        <ele>90.980000000000004</ele>
        <time>2018-07-02T13:17:19Z</time>
      </trkpt>
      <trkpt lat="50.670812968164682" lon="1.819353019818664">
        <ele>92.900000000000006</ele>
        <time>2018-07-02T13:17:26Z</time>
      </trkpt>
      <trkpt lat="50.670595038682222" lon="1.818954041227698">
        <ele>91.939999999999998</ele>
        <time>2018-07-02T13:17:29Z</time>
      </trkpt>
      <trkpt lat="50.670534018427134" lon="1.818836024031043">
        <ele>91.459999999999994</ele>
        <time>2018-07-02T13:17:30Z</time>
      </trkpt>
      <trkpt lat="50.670521026477218" lon="1.818719012662768">
        <ele>91.459999999999994</ele>
        <time>2018-07-02T13:17:31Z</time>
      </trkpt>
      <trkpt lat="50.670480960980058" lon="1.818618010729551">
        <ele>91.459999999999994</ele>
        <time>2018-07-02T13:17:32Z</time>
      </trkpt>
      <trkpt lat="50.670414995402098" lon="1.818561013787985">
        <ele>91.459999999999994</ele>
        <time>2018-07-02T13:17:33Z</time>
      </trkpt>
      <trkpt lat="50.670336037874222" lon="1.81852899491787">
        <ele>91.939999999999998</ele>
        <time>2018-07-02T13:17:34Z</time>
      </trkpt>
      <trkpt lat="50.670266970992088" lon="1.818577023223043">
        <ele>91.939999999999998</ele>
        <time>2018-07-02T13:17:35Z</time>
      </trkpt>
      <trkpt lat="50.670223971828818" lon="1.818664027377963">
        <ele>92.420000000000002</ele>
        <time>2018-07-02T13:17:36Z</time>
      </trkpt>
      <trkpt lat="50.670194970443845" lon="1.818768968805671">
        <ele>92.900000000000006</ele>
        <time>2018-07-02T13:17:37Z</time>
      </trkpt>
      <trkpt lat="50.670207962393761" lon="1.818884974345565">
        <ele>92.900000000000006</ele>
        <time>2018-07-02T13:17:38Z</time>
      </trkpt>
      <trkpt lat="50.670211985707283" lon="1.818924034014344">
        <ele>93.390000000000001</ele>
        <time>2018-07-02T13:17:39Z</time>
      </trkpt>
      <trkpt lat="50.670299995690584" lon="1.81919502094388">
        <ele>93.390000000000001</ele>
        <time>2018-07-02T13:17:40Z</time>
      </trkpt>
      <trkpt lat="50.670278035104275" lon="1.819359976798296">
        <ele>93.870000000000005</ele>
        <time>2018-07-02T13:17:41Z</time>
      </trkpt>
      <trkpt lat="50.670229000970721" lon="1.819549994543195">
        <ele>94.349999999999994</ele>
        <time>2018-07-02T13:17:42Z</time>
      </trkpt>
      <trkpt lat="50.670158006250858" lon="1.819734983146191">
        <ele>94.829999999999998</ele>
        <time>2018-07-02T13:17:43Z</time>
      </trkpt>
      <trkpt lat="50.670076031237841" lon="1.819925000891089">
        <ele>94.829999999999998</ele>
        <time>2018-07-02T13:17:44Z</time>
      </trkpt>
      <trkpt lat="50.66999196074903" lon="1.820118958130479">
        <ele>95.310000000000002</ele>
        <time>2018-07-02T13:17:45Z</time>
      </trkpt>
      <trkpt lat="50.669413022696972" lon="1.821375992149115">
        <ele>100.59999999999999</ele>
        <time>2018-07-02T13:17:53Z</time>
      </trkpt>
      <trkpt lat="50.668995017185807" lon="1.822257013991475">
        <ele>101.56</ele>
        <time>2018-07-02T13:18:00Z</time>
      </trkpt>
      <trkpt lat="50.668927961960435" lon="1.822371007874608">
        <ele>101.08</ele>
        <time>2018-07-02T13:18:01Z</time>
      </trkpt>
      <trkpt lat="50.668852021917701" lon="1.822479972615838">
        <ele>100.11</ele>
        <time>2018-07-02T13:18:02Z</time>
      </trkpt>
      <trkpt lat="50.668150037527084" lon="1.823528967797756">
        <ele>95.790000000000006</ele>
        <time>2018-07-02T13:18:12Z</time>
      </trkpt>
      <trkpt lat="50.667556012049317" lon="1.824813997372985">
        <ele>93.390000000000001</ele>
        <time>2018-07-02T13:18:22Z</time>
      </trkpt>
      <trkpt lat="50.666733998805285" lon="1.826446037739515">
        <ele>91.939999999999998</ele>
        <time>2018-07-02T13:18:35Z</time>
      </trkpt>
      <trkpt lat="50.665988009423018" lon="1.827874984592199">
        <ele>94.829999999999998</ele>
        <time>2018-07-02T13:18:47Z</time>
      </trkpt>
      <trkpt lat="50.665634963661432" lon="1.828610999509692">
        <ele>95.310000000000002</ele>
        <time>2018-07-02T13:18:53Z</time>
      </trkpt>
      <trkpt lat="50.664789984002709" lon="1.830362984910607">
        <ele>97.230000000000004</ele>
        <time>2018-07-02T13:19:06Z</time>
      </trkpt>
      <trkpt lat="50.6637819763273" lon="1.832355028018355">
        <ele>99.629999999999995</ele>
        <time>2018-07-02T13:19:20Z</time>
      </trkpt>
      <trkpt lat="50.663105975836515" lon="1.833739969879389">
        <ele>104.92</ele>
        <time>2018-07-02T13:19:31Z</time>
      </trkpt>
      <trkpt lat="50.663010003045201" lon="1.833896962925792">
        <ele>106.84</ele>
        <time>2018-07-02T13:19:34Z</time>
      </trkpt>
      <trkpt lat="50.662981001660228" lon="1.833943985402584">
        <ele>107.31999999999999</ele>
        <time>2018-07-02T13:19:35Z</time>
      </trkpt>
      <trkpt lat="50.662903971970081" lon="1.834064014256001">
        <ele>107.31999999999999</ele>
        <time>2018-07-02T13:19:36Z</time>
      </trkpt>
      <trkpt lat="50.662177009508014" lon="1.834270041435957">
        <ele>111.65000000000001</ele>
        <time>2018-07-02T13:19:43Z</time>
      </trkpt>
      <trkpt lat="50.66098602488637" lon="1.834757030010223">
        <ele>115.5</ele>
        <time>2018-07-02T13:19:54Z</time>
      </trkpt>
      <trkpt lat="50.659958990290761" lon="1.835431018844247">
        <ele>115.98</ele>
        <time>2018-07-02T13:20:03Z</time>
      </trkpt>
      <trkpt lat="50.658874958753586" lon="1.836010962724686">
        <ele>110.20999999999999</ele>
        <time>2018-07-02T13:20:11Z</time>
      </trkpt>
      <trkpt lat="50.658143972977996" lon="1.836344981566072">
        <ele>107.81</ele>
        <time>2018-07-02T13:20:17Z</time>
      </trkpt>
      <trkpt lat="50.658045988529921" lon="1.836412036791444">
        <ele>107.31999999999999</ele>
        <time>2018-07-02T13:20:18Z</time>
      </trkpt>
      <trkpt lat="50.657954961061478" lon="1.836501974612474">
        <ele>106.84</ele>
        <time>2018-07-02T13:20:19Z</time>
      </trkpt>
      <trkpt lat="50.657852031290531" lon="1.836604988202453">
        <ele>106.36</ele>
        <time>2018-07-02T13:20:20Z</time>
      </trkpt>
      <trkpt lat="50.657790005207062" lon="1.83672996237874">
        <ele>106.36</ele>
        <time>2018-07-02T13:20:21Z</time>
      </trkpt>
      <trkpt lat="50.657724039629102" lon="1.836860971525312">
        <ele>106.36</ele>
        <time>2018-07-02T13:20:22Z</time>
      </trkpt>
      <trkpt lat="50.657658996060491" lon="1.836991980671883">
        <ele>106.84</ele>
        <time>2018-07-02T13:20:23Z</time>
      </trkpt>
      <trkpt lat="50.657235039398074" lon="1.837912984192371">
        <ele>112.13</ele>
        <time>2018-07-02T13:20:32Z</time>
      </trkpt>
      <trkpt lat="50.657212994992733" lon="1.837967969477177">
        <ele>113.09</ele>
        <time>2018-07-02T13:20:33Z</time>
      </trkpt>
      <trkpt lat="50.657193968072534" lon="1.838014991953969">
        <ele>113.56999999999999</ele>
        <time>2018-07-02T13:20:34Z</time>
      </trkpt>
      <trkpt lat="50.657176030799747" lon="1.83805899694562">
        <ele>114.05</ele>
        <time>2018-07-02T13:20:35Z</time>
      </trkpt>
      <trkpt lat="50.657165972515941" lon="1.838085986673832">
        <ele>115.01000000000001</ele>
        <time>2018-07-02T13:20:36Z</time>
      </trkpt>
      <trkpt lat="50.657050972804427" lon="1.838128985837102">
        <ele>115.5</ele>
        <time>2018-07-02T13:20:37Z</time>
      </trkpt>
      <trkpt lat="50.657021971419454" lon="1.838077018037438">
        <ele>116.45999999999999</ele>
        <time>2018-07-02T13:20:38Z</time>
      </trkpt>
      <trkpt lat="50.656981989741325" lon="1.838004011660814">
        <ele>116.94</ele>
        <time>2018-07-02T13:20:39Z</time>
      </trkpt>
      <trkpt lat="50.656934967264533" lon="1.837919019162655">
        <ele>117.42</ele>
        <time>2018-07-02T13:20:40Z</time>
      </trkpt>
      <trkpt lat="50.656880987808108" lon="1.83782204054296">
        <ele>117.90000000000001</ele>
        <time>2018-07-02T13:20:41Z</time>
      </trkpt>
      <trkpt lat="50.65681803971529" lon="1.837709974497557">
        <ele>118.38</ele>
        <time>2018-07-02T13:20:42Z</time>
      </trkpt>
      <trkpt lat="50.656748972833157" lon="1.837583994492889">
        <ele>118.86</ele>
        <time>2018-07-02T13:20:43Z</time>
      </trkpt>
      <trkpt lat="50.656388970091939" lon="1.837060041725636">
        <ele>119.81999999999999</ele>
        <time>2018-07-02T13:20:47Z</time>
      </trkpt>
      <trkpt lat="50.655706012621522" lon="1.836198968812823">
        <ele>122.70999999999999</ele>
        <time>2018-07-02T13:20:54Z</time>
      </trkpt>
      <trkpt lat="50.655618002638221" lon="1.836033007130027">
        <ele>122.22</ele>
        <time>2018-07-02T13:20:55Z</time>
      </trkpt>
      <trkpt lat="50.655539967119694" lon="1.835856987163425">
        <ele>121.73999999999999</ele>
        <time>2018-07-02T13:20:56Z</time>
      </trkpt>
      <trkpt lat="50.65548799932003" lon="1.835659006610513">
        <ele>121.73999999999999</ele>
        <time>2018-07-02T13:20:57Z</time>
      </trkpt>
      <trkpt lat="50.655440976843238" lon="1.83545901440084">
        <ele>121.26000000000001</ele>
        <time>2018-07-02T13:20:58Z</time>
      </trkpt>
      <trkpt lat="50.655409963801503" lon="1.835243012756109">
        <ele>120.78</ele>
        <time>2018-07-02T13:20:59Z</time>
      </trkpt>
      <trkpt lat="50.655149035155773" lon="1.832745959982276">
        <ele>119.81999999999999</ele>
        <time>2018-07-02T13:21:09Z</time>
      </trkpt>
      <trkpt lat="50.655043004080653" lon="1.830870006233454">
        <ele>120.78</ele>
        <time>2018-07-02T13:21:16Z</time>
      </trkpt>
      <trkpt lat="50.655002016574144" lon="1.830631960183382">
        <ele>120.78</ele>
        <time>2018-07-02T13:21:17Z</time>
      </trkpt>
      <trkpt lat="50.654926998540759" lon="1.830421993508935">
        <ele>121.26000000000001</ele>
        <time>2018-07-02T13:21:18Z</time>
      </trkpt>
      <trkpt lat="50.654837982729077" lon="1.830219989642501">
        <ele>121.73999999999999</ele>
        <time>2018-07-02T13:21:19Z</time>
      </trkpt>
      <trkpt lat="50.654745027422905" lon="1.830014968290925">
        <ele>122.22</ele>
        <time>2018-07-02T13:21:20Z</time>
      </trkpt>
      <trkpt lat="50.653907004743814" lon="1.828081011772156">
        <ele>127.03</ele>
        <time>2018-07-02T13:21:28Z</time>
      </trkpt>
      <trkpt lat="50.652992958202958" lon="1.82635098695755">
        <ele>127.03</ele>
        <time>2018-07-02T13:21:35Z</time>
      </trkpt>
      <trkpt lat="50.651961984112859" lon="1.824914999306202">
        <ele>125.59</ele>
        <time>2018-07-02T13:21:43Z</time>
      </trkpt>
      <trkpt lat="50.651080040261149" lon="1.823652014136314">
        <ele>127.03</ele>
        <time>2018-07-02T13:21:50Z</time>
      </trkpt>
      <trkpt lat="50.65067402087152" lon="1.823037033900619">
        <ele>126.55</ele>
        <time>2018-07-02T13:21:53Z</time>
      </trkpt>
      <trkpt lat="50.650620041415095" lon="1.822807034477592">
        <ele>126.55</ele>
        <time>2018-07-02T13:21:54Z</time>
      </trkpt>
      <trkpt lat="50.650577964261174" lon="1.822579968720675">
        <ele>126.55</ele>
        <time>2018-07-02T13:21:55Z</time>
      </trkpt>
      <trkpt lat="50.650543011724949" lon="1.82235499843955">
        <ele>127.03</ele>
        <time>2018-07-02T13:21:56Z</time>
      </trkpt>
      <trkpt lat="50.650508981198072" lon="1.822132039815188">
        <ele>127.51000000000001</ele>
        <time>2018-07-02T13:21:57Z</time>
      </trkpt>
      <trkpt lat="50.650473022833467" lon="1.82190204039216">
        <ele>127.98999999999999</ele>
        <time>2018-07-02T13:21:58Z</time>
      </trkpt>
      <trkpt lat="50.650398004800081" lon="1.821685032919049">
        <ele>127.98999999999999</ele>
        <time>2018-07-02T13:21:59Z</time>
      </trkpt>
      <trkpt lat="50.650315023958683" lon="1.821458972990513">
        <ele>128.47</ele>
        <time>2018-07-02T13:22:00Z</time>
      </trkpt>
      <trkpt lat="50.649739019572735" lon="1.819412028416991">
        <ele>130.88</ele>
        <time>2018-07-02T13:22:07Z</time>
      </trkpt>
      <trkpt lat="50.649004010483623" lon="1.816796958446503">
        <ele>135.19999999999999</ele>
        <time>2018-07-02T13:22:15Z</time>
      </trkpt>
      <trkpt lat="50.648879958316684" lon="1.816539969295263">
        <ele>135.68000000000001</ele>
        <time>2018-07-02T13:22:16Z</time>
      </trkpt>
      <trkpt lat="50.648747021332383" lon="1.816299995407462">
        <ele>136.63999999999999</ele>
        <time>2018-07-02T13:22:17Z</time>
      </trkpt>
      <trkpt lat="50.647941017523408" lon="1.814925028011203">
        <ele>140.97</ele>
        <time>2018-07-02T13:22:23Z</time>
      </trkpt>
      <trkpt lat="50.646861009299755" lon="1.812422024086118">
        <ele>139.05000000000001</ele>
        <time>2018-07-02T13:22:32Z</time>
      </trkpt>
      <trkpt lat="50.645894994959235" lon="1.810079030692577">
        <ele>139.05000000000001</ele>
        <time>2018-07-02T13:22:40Z</time>
      </trkpt>
      <trkpt lat="50.645727021619678" lon="1.80955097079277">
        <ele>139.53</ele>
        <time>2018-07-02T13:22:42Z</time>
      </trkpt>
      <trkpt lat="50.645682010799646" lon="1.809272021055222">
        <ele>139.53</ele>
        <time>2018-07-02T13:22:43Z</time>
      </trkpt>
      <trkpt lat="50.645646974444389" lon="1.808974966406822">
        <ele>139.05000000000001</ele>
        <time>2018-07-02T13:22:44Z</time>
      </trkpt>
      <trkpt lat="50.645339023321867" lon="1.806028978899121">
        <ele>127.51000000000001</ele>
        <time>2018-07-02T13:22:53Z</time>
      </trkpt>
      <trkpt lat="50.645325025543571" lon="1.805134965106845">
        <ele>123.67</ele>
        <time>2018-07-02T13:22:56Z</time>
      </trkpt>
      <trkpt lat="50.645316978916526" lon="1.804850986227393">
        <ele>122.70999999999999</ele>
        <time>2018-07-02T13:22:57Z</time>
      </trkpt>
      <trkpt lat="50.645253024995327" lon="1.804570024833083">
        <ele>121.73999999999999</ele>
        <time>2018-07-02T13:22:58Z</time>
      </trkpt>
      <trkpt lat="50.644762013107538" lon="1.802298026159406">
        <ele>115.5</ele>
        <time>2018-07-02T13:23:05Z</time>
      </trkpt>
      <trkpt lat="50.644047036767006" lon="1.799403000622988">
        <ele>121.26000000000001</ele>
        <time>2018-07-02T13:23:14Z</time>
      </trkpt>
      <trkpt lat="50.643936982378364" lon="1.799182975664735">
        <ele>121.26000000000001</ele>
        <time>2018-07-02T13:23:15Z</time>
      </trkpt>
      <trkpt lat="50.643832040950656" lon="1.798972003161907">
        <ele>121.26000000000001</ele>
        <time>2018-07-02T13:23:16Z</time>
      </trkpt>
      <trkpt lat="50.64369197934866" lon="1.798834037035704">
        <ele>121.73999999999999</ele>
        <time>2018-07-02T13:23:17Z</time>
      </trkpt>
      <trkpt lat="50.643545966595411" lon="1.798703027889133">
        <ele>122.70999999999999</ele>
        <time>2018-07-02T13:23:18Z</time>
      </trkpt>
      <trkpt lat="50.643396014347672" lon="1.79856900125742">
        <ele>123.19</ele>
        <time>2018-07-02T13:23:19Z</time>
      </trkpt>
      <trkpt lat="50.643243966624141" lon="1.798432962968946">
        <ele>123.67</ele>
        <time>2018-07-02T13:23:20Z</time>
      </trkpt>
      <trkpt lat="50.643109017983079" lon="1.798246968537569">
        <ele>124.15000000000001</ele>
        <time>2018-07-02T13:23:21Z</time>
      </trkpt>
      <trkpt lat="50.643000975251198" lon="1.798029961064458">
        <ele>125.11</ele>
        <time>2018-07-02T13:23:22Z</time>
      </trkpt>
      <trkpt lat="50.642911959439516" lon="1.797785963863134">
        <ele>126.06999999999999</ele>
        <time>2018-07-02T13:23:23Z</time>
      </trkpt>
      <trkpt lat="50.642820009961724" lon="1.797536015510559">
        <ele>127.51000000000001</ele>
        <time>2018-07-02T13:23:24Z</time>
      </trkpt>
      <trkpt lat="50.641837986186147" lon="1.795024964958429">
        <ele>128.47</ele>
        <time>2018-07-02T13:23:33Z</time>
      </trkpt>
      <trkpt lat="50.6416089925915" lon="1.794478967785835">
        <ele>127.98999999999999</ele>
        <time>2018-07-02T13:23:35Z</time>
      </trkpt>
      <trkpt lat="50.641467003151774" lon="1.794234970584512">
        <ele>127.98999999999999</ele>
        <time>2018-07-02T13:23:36Z</time>
      </trkpt>
      <trkpt lat="50.639930013567209" lon="1.792163969948888">
        <ele>122.70999999999999</ele>
        <time>2018-07-02T13:23:45Z</time>
      </trkpt>
      <trkpt lat="50.638802982866764" lon="1.79077198728919">
        <ele>122.22</ele>
        <time>2018-07-02T13:23:52Z</time>
      </trkpt>
      <trkpt lat="50.638010976836085" lon="1.788989994674921">
        <ele>120.78</ele>
        <time>2018-07-02T13:23:59Z</time>
      </trkpt>
      <trkpt lat="50.636998023837805" lon="1.786420019343495">
        <ele>116.45999999999999</ele>
        <time>2018-07-02T13:24:08Z</time>
      </trkpt>
      <trkpt lat="50.635663960129023" lon="1.783574027940631">
        <ele>117.90000000000001</ele>
        <time>2018-07-02T13:24:18Z</time>
      </trkpt>
      <trkpt lat="50.634684031829238" lon="1.781135983765125">
        <ele>122.22</ele>
        <time>2018-07-02T13:24:27Z</time>
      </trkpt>
      <trkpt lat="50.634659975767136" lon="1.780893998220563">
        <ele>122.22</ele>
        <time>2018-07-02T13:24:28Z</time>
      </trkpt>
      <trkpt lat="50.634641032665968" lon="1.780653018504381">
        <ele>122.22</ele>
        <time>2018-07-02T13:24:29Z</time>
      </trkpt>
      <trkpt lat="50.634658969938755" lon="1.780398963019252">
        <ele>121.73999999999999</ele>
        <time>2018-07-02T13:24:30Z</time>
      </trkpt>
      <trkpt lat="50.634695012122393" lon="1.780131999403238">
        <ele>120.78</ele>
        <time>2018-07-02T13:24:31Z</time>
      </trkpt>
      <trkpt lat="50.634745974093676" lon="1.779852965846658">
        <ele>119.81999999999999</ele>
        <time>2018-07-02T13:24:32Z</time>
      </trkpt>
      <trkpt lat="50.634829038754106" lon="1.77957502193749">
        <ele>118.38</ele>
        <time>2018-07-02T13:24:33Z</time>
      </trkpt>
      <trkpt lat="50.635619033128023" lon="1.776916030794382">
        <ele>103.95999999999999</ele>
        <time>2018-07-02T13:24:41Z</time>
      </trkpt>
      <trkpt lat="50.636951001361012" lon="1.772367004305124">
        <ele>94.349999999999994</ele>
        <time>2018-07-02T13:24:54Z</time>
      </trkpt>
      <trkpt lat="50.637777959927917" lon="1.769534004852176">
        <ele>90.019999999999996</ele>
        <time>2018-07-02T13:25:03Z</time>
      </trkpt>
      <trkpt lat="50.638102004304528" lon="1.768288034945726">
        <ele>86.659999999999997</ele>
        <time>2018-07-02T13:25:07Z</time>
      </trkpt>
      <trkpt lat="50.638502994552255" lon="1.765260994434357">
        <ele>79.930000000000007</ele>
        <time>2018-07-02T13:25:16Z</time>
      </trkpt>
      <trkpt lat="50.639048991724849" lon="1.761185964569449">
        <ele>73.200000000000003</ele>
        <time>2018-07-02T13:25:29Z</time>
      </trkpt>
      <trkpt lat="50.639230040833354" lon="1.759832035750151">
        <ele>70.790000000000006</ele>
        <time>2018-07-02T13:25:35Z</time>
      </trkpt>
      <trkpt lat="50.639508990570903" lon="1.757750976830721">
        <ele>71.760000000000005</ele>
        <time>2018-07-02T13:25:48Z</time>
      </trkpt>
      <trkpt lat="50.639733038842678" lon="1.756119020283222">
        <ele>68.390000000000001</ele>
        <time>2018-07-02T13:25:59Z</time>
      </trkpt>
      <trkpt lat="50.639794981107116" lon="1.755703026428819">
        <ele>66.469999999999999</ele>
        <time>2018-07-02T13:26:02Z</time>
      </trkpt>
      <trkpt lat="50.639810990542173" lon="1.755588026717305">
        <ele>65.989999999999995</ele>
        <time>2018-07-02T13:26:03Z</time>
      </trkpt>
      <trkpt lat="50.639828005805612" lon="1.755475960671902">
        <ele>66.469999999999999</ele>
        <time>2018-07-02T13:26:04Z</time>
      </trkpt>
      <trkpt lat="50.640030009672046" lon="1.753918016329408">
        <ele>62.140000000000001</ele>
        <time>2018-07-02T13:26:15Z</time>
      </trkpt>
      <trkpt lat="50.640265038236976" lon="1.752149015665054">
        <ele>59.259999999999998</ele>
        <time>2018-07-02T13:26:27Z</time>
      </trkpt>
      <trkpt lat="50.640466958284378" lon="1.750683020800352">
        <ele>65.030000000000001</ele>
        <time>2018-07-02T13:26:38Z</time>
      </trkpt>
      <trkpt lat="50.640562009066343" lon="1.749924961477518">
        <ele>68.870000000000005</ele>
        <time>2018-07-02T13:26:43Z</time>
      </trkpt>
      <trkpt lat="50.640565026551485" lon="1.749301012605429">
        <ele>73.200000000000003</ele>
        <time>2018-07-02T13:26:47Z</time>
      </trkpt>
      <trkpt lat="50.640479028224945" lon="1.748702963814139">
        <ele>76.079999999999998</ele>
        <time>2018-07-02T13:26:51Z</time>
      </trkpt>
      <trkpt lat="50.640440974384546" lon="1.748563991859555">
        <ele>77.040000000000006</ele>
        <time>2018-07-02T13:26:52Z</time>
      </trkpt>
      <trkpt lat="50.64014702104032" lon="1.747514996677637">
        <ele>80.890000000000001</ele>
        <time>2018-07-02T13:27:00Z</time>
      </trkpt>
      <trkpt lat="50.639864969998598" lon="1.746555017307401">
        <ele>79.930000000000007</ele>
        <time>2018-07-02T13:27:09Z</time>
      </trkpt>
      <trkpt lat="50.639831023290753" lon="1.746455021202564">
        <ele>79.450000000000003</ele>
        <time>2018-07-02T13:27:10Z</time>
      </trkpt>
      <trkpt lat="50.639797998592257" lon="1.746357958763838">
        <ele>78.969999999999999</ele>
        <time>2018-07-02T13:27:11Z</time>
      </trkpt>
      <trkpt lat="50.63954696059227" lon="1.745640970766544">
        <ele>77.040000000000006</ele>
        <time>2018-07-02T13:27:19Z</time>
      </trkpt>
      <trkpt lat="50.639517037197948" lon="1.74556695856154">
        <ele>76.560000000000002</ele>
        <time>2018-07-02T13:27:20Z</time>
      </trkpt>
      <trkpt lat="50.639454005286098" lon="1.745249032974243">
        <ele>75.599999999999994</ele>
        <time>2018-07-02T13:27:26Z</time>
      </trkpt>
      <trkpt lat="50.639475965872407" lon="1.74520100466907">
        <ele>75.120000000000005</ele>
        <time>2018-07-02T13:27:27Z</time>
      </trkpt>
      <trkpt lat="50.63950102776289" lon="1.745144007727504">
        <ele>74.640000000000001</ele>
        <time>2018-07-02T13:27:28Z</time>
      </trkpt>
      <trkpt lat="50.639531034976244" lon="1.745078964158893">
        <ele>75.120000000000005</ele>
        <time>2018-07-02T13:27:29Z</time>
      </trkpt>
      <trkpt lat="50.639562970027328" lon="1.74500796943903">
        <ele>75.120000000000005</ele>
        <time>2018-07-02T13:27:30Z</time>
      </trkpt>
      <trkpt lat="50.639597000554204" lon="1.744934041053057">
        <ele>75.120000000000005</ele>
        <time>2018-07-02T13:27:31Z</time>
      </trkpt>
      <trkpt lat="50.639699008315802" lon="1.744705969467759">
        <ele>75.599999999999994</ele>
        <time>2018-07-02T13:27:35Z</time>
      </trkpt>
      <trkpt lat="50.63971702940762" lon="1.744588036090136">
        <ele>75.599999999999994</ele>
        <time>2018-07-02T13:27:36Z</time>
      </trkpt>
      <trkpt lat="50.639713006094098" lon="1.744497008621693">
        <ele>75.599999999999994</ele>
        <time>2018-07-02T13:27:37Z</time>
      </trkpt>
      <trkpt lat="50.639704959467053" lon="1.744311014190316">
        <ele>75.120000000000005</ele>
        <time>2018-07-02T13:27:39Z</time>
      </trkpt>
      <trkpt lat="50.639701019972563" lon="1.744229039177299">
        <ele>74.640000000000001</ele>
        <time>2018-07-02T13:27:40Z</time>
      </trkpt>
      <trkpt lat="50.639681993052363" lon="1.743810027837753">
        <ele>73.680000000000007</ele>
        <time>2018-07-02T13:27:45Z</time>
      </trkpt>
      <trkpt lat="50.639684004709125" lon="1.743630990386009">
        <ele>73.200000000000003</ele>
        <time>2018-07-02T13:27:47Z</time>
      </trkpt>
      <trkpt lat="50.639689033851027" lon="1.743554966524243">
        <ele>72.719999999999999</ele>
        <time>2018-07-02T13:27:48Z</time>
      </trkpt>
      <trkpt lat="50.639724992215633" lon="1.7430529743433">
        <ele>69.829999999999998</ele>
        <time>2018-07-02T13:27:57Z</time>
      </trkpt>
      <trkpt lat="50.639732033014297" lon="1.742948032915592">
        <ele>68.390000000000001</ele>
        <time>2018-07-02T13:28:05Z</time>
      </trkpt>
      <trkpt lat="50.639736978337169" lon="1.742889024317265">
        <ele>68.390000000000001</ele>
        <time>2018-07-02T13:28:25Z</time>
      </trkpt>
      <trkpt lat="50.639692973345518" lon="1.74283797852695">
        <ele>68.390000000000001</ele>
        <time>2018-07-02T13:28:26Z</time>
      </trkpt>
      <trkpt lat="50.639649974182248" lon="1.742860022932291">
        <ele>68.390000000000001</ele>
        <time>2018-07-02T13:28:27Z</time>
      </trkpt>
      <trkpt lat="50.639597000554204" lon="1.742886006832123">
        <ele>67.909999999999997</ele>
        <time>2018-07-02T13:28:28Z</time>
      </trkpt>
      <trkpt lat="50.639550983905792" lon="1.742908973246813">
        <ele>67.909999999999997</ele>
        <time>2018-07-02T13:28:29Z</time>
      </trkpt>
      <trkpt lat="50.639512008056045" lon="1.742929005995393">
        <ele>67.909999999999997</ele>
        <time>2018-07-02T13:28:30Z</time>
      </trkpt>
      <trkpt lat="50.63948200084269" lon="1.74294400960207">
        <ele>67.909999999999997</ele>
        <time>2018-07-02T13:28:31Z</time>
      </trkpt>
      <trkpt lat="50.639188969507813" lon="1.743083987385035">
        <ele>61.18</ele>
        <time>2018-07-02T13:28:42Z</time>
      </trkpt>
      <trkpt lat="50.639170026406646" lon="1.743090022355318">
        <ele>60.219999999999999</ele>
        <time>2018-07-02T13:28:44Z</time>
      </trkpt>
      <trkpt lat="50.639170026406646" lon="1.743090022355318">
        <ele>59.740000000000002</ele>
        <time>2018-07-02T13:28:57Z</time>
      </trkpt>
      <trkpt lat="50.639152005314827" lon="1.74309597350657">
        <ele>59.740000000000002</ele>
        <time>2018-07-02T13:28:58Z</time>
      </trkpt>
      <trkpt lat="50.638999035581946" lon="1.743147019296885">
        <ele>57.340000000000003</ele>
        <time>2018-07-02T13:29:02Z</time>
      </trkpt>
      <trkpt lat="50.638951007276773" lon="1.743163028731942">
        <ele>57.340000000000003</ele>
        <time>2018-07-02T13:29:03Z</time>
      </trkpt>
      <trkpt lat="50.638894010335207" lon="1.74318197183311">
        <ele>56.859999999999999</ele>
        <time>2018-07-02T13:29:04Z</time>
      </trkpt>
      <trkpt lat="50.638827038928866" lon="1.743199992924929">
        <ele>56.369999999999997</ele>
        <time>2018-07-02T13:29:05Z</time>
      </trkpt>
      <trkpt lat="50.63875000923872" lon="1.743199992924929">
        <ele>56.369999999999997</ele>
        <time>2018-07-02T13:29:06Z</time>
      </trkpt>
      <trkpt lat="50.638669962063432" lon="1.743199992924929">
        <ele>55.890000000000001</ele>
        <time>2018-07-02T13:29:07Z</time>
      </trkpt>
      <trkpt lat="50.637647034600377" lon="1.743102008476853">
        <ele>53.009999999999998</ele>
        <time>2018-07-02T13:29:17Z</time>
      </trkpt>
      <trkpt lat="50.636293021962047" lon="1.742911990731955">
        <ele>48.200000000000003</ele>
        <time>2018-07-02T13:29:28Z</time>
      </trkpt>
      <trkpt lat="50.63552800565958" lon="1.742803025990725">
        <ele>44.359999999999999</ele>
        <time>2018-07-02T13:29:37Z</time>
      </trkpt>
      <trkpt lat="50.634917970746756" lon="1.74270898103714">
        <ele>41.469999999999999</ele>
        <time>2018-07-02T13:29:43Z</time>
      </trkpt>
      <trkpt lat="50.633344016969204" lon="1.742485016584396">
        <ele>42.439999999999998</ele>
        <time>2018-07-02T13:29:53Z</time>
      </trkpt>
      <trkpt lat="50.631526987999678" lon="1.742232972756028">
        <ele>53.969999999999999</ele>
        <time>2018-07-02T13:30:03Z</time>
      </trkpt>
      <trkpt lat="50.629524970427155" lon="1.741969026625156">
        <ele>57.340000000000003</ele>
        <time>2018-07-02T13:30:13Z</time>
      </trkpt>
      <trkpt lat="50.62688902951777" lon="1.7416110355407">
        <ele>42.439999999999998</ele>
        <time>2018-07-02T13:30:25Z</time>
      </trkpt>
      <trkpt lat="50.62469900585711" lon="1.741460999473929">
        <ele>43.399999999999999</ele>
        <time>2018-07-02T13:30:35Z</time>
      </trkpt>
      <trkpt lat="50.621870029717684" lon="1.741298977285624">
        <ele>53.490000000000002</ele>
        <time>2018-07-02T13:30:48Z</time>
      </trkpt>
      <trkpt lat="50.619265018031001" lon="1.741141984239221">
        <ele>54.93</ele>
        <time>2018-07-02T13:30:59Z</time>
      </trkpt>
      <trkpt lat="50.616780035197735" lon="1.740996977314353">
        <ele>63.579999999999998</ele>
        <time>2018-07-02T13:31:10Z</time>
      </trkpt>
      <trkpt lat="50.61344102025032" lon="1.740818023681641">
        <ele>68.870000000000005</ele>
        <time>2018-07-02T13:31:24Z</time>
      </trkpt>
      <trkpt lat="50.611603036522865" lon="1.740714004263282">
        <ele>79.450000000000003</ele>
        <time>2018-07-02T13:31:33Z</time>
      </trkpt>
      <trkpt lat="50.610107034444809" lon="1.740660024806857">
        <ele>93.870000000000005</ele>
        <time>2018-07-02T13:31:41Z</time>
      </trkpt>
      <trkpt lat="50.609969990327954" lon="1.740720039233565">
        <ele>95.310000000000002</ele>
        <time>2018-07-02T13:31:42Z</time>
      </trkpt>
      <trkpt lat="50.609835963696241" lon="1.740792961791158">
        <ele>96.75</ele>
        <time>2018-07-02T13:31:43Z</time>
      </trkpt>
      <trkpt lat="50.609753988683224" lon="1.740964958444238">
        <ele>97.709999999999994</ele>
        <time>2018-07-02T13:31:44Z</time>
      </trkpt>
      <trkpt lat="50.609671007841825" lon="1.741151036694646">
        <ele>99.150000000000006</ele>
        <time>2018-07-02T13:31:45Z</time>
      </trkpt>
      <trkpt lat="50.609611999243498" lon="1.741367960348725">
        <ele>100.59999999999999</ele>
        <time>2018-07-02T13:31:46Z</time>
      </trkpt>
      <trkpt lat="50.609570005908608" lon="1.741636013612151">
        <ele>102.04000000000001</ele>
        <time>2018-07-02T13:31:47Z</time>
      </trkpt>
      <trkpt lat="50.60955198481679" lon="1.741941031068564">
        <ele>103.48</ele>
        <time>2018-07-02T13:31:48Z</time>
      </trkpt>
      <trkpt lat="50.60946598649025" lon="1.742912996560335">
        <ele>107.81</ele>
        <time>2018-07-02T13:31:51Z</time>
      </trkpt>
      <trkpt lat="50.60940396040678" lon="1.743209967389703">
        <ele>109.73</ele>
        <time>2018-07-02T13:31:52Z</time>
      </trkpt>
      <trkpt lat="50.609323997050524" lon="1.74350299872458">
        <ele>111.65000000000001</ele>
        <time>2018-07-02T13:31:53Z</time>
      </trkpt>
      <trkpt lat="50.609206985682249" lon="1.74373802728951">
        <ele>113.56999999999999</ele>
        <time>2018-07-02T13:31:54Z</time>
      </trkpt>
      <trkpt lat="50.609064996242523" lon="1.743956040591002">
        <ele>115.5</ele>
        <time>2018-07-02T13:31:55Z</time>
      </trkpt>
      <trkpt lat="50.608910014852881" lon="1.744160978123546">
        <ele>117.90000000000001</ele>
        <time>2018-07-02T13:31:56Z</time>
      </trkpt>
      <trkpt lat="50.608745981007814" lon="1.744315959513187">
        <ele>119.34</ele>
        <time>2018-07-02T13:31:57Z</time>
      </trkpt>
      <trkpt lat="50.608596028760076" lon="1.744458032771945">
        <ele>121.26000000000001</ele>
        <time>2018-07-02T13:31:58Z</time>
      </trkpt>
      <trkpt lat="50.608438029885292" lon="1.744554005563259">
        <ele>122.70999999999999</ele>
        <time>2018-07-02T13:31:59Z</time>
      </trkpt>
      <trkpt lat="50.608270978555083" lon="1.744573032483459">
        <ele>124.15000000000001</ele>
        <time>2018-07-02T13:32:00Z</time>
      </trkpt>
      <trkpt lat="50.608109962195158" lon="1.744573032483459">
        <ele>125.59</ele>
        <time>2018-07-02T13:32:01Z</time>
      </trkpt>
      <trkpt lat="50.607956992462277" lon="1.744568003341556">
        <ele>127.03</ele>
        <time>2018-07-02T13:32:02Z</time>
      </trkpt>
      <trkpt lat="50.60781299136579" lon="1.744539001956582">
        <ele>128.47</ele>
        <time>2018-07-02T13:32:03Z</time>
      </trkpt>
      <trkpt lat="50.606755027547479" lon="1.744331968948245">
        <ele>133.28</ele>
        <time>2018-07-02T13:32:11Z</time>
      </trkpt>
      <trkpt lat="50.605317028239369" lon="1.744060982018709">
        <ele>136.16</ele>
        <time>2018-07-02T13:32:18Z</time>
      </trkpt>
      <trkpt lat="50.602428959682584" lon="1.743486989289522">
        <ele>136.63999999999999</ele>
        <time>2018-07-02T13:32:30Z</time>
      </trkpt>
      <trkpt lat="50.599994016811252" lon="1.743016010150313">
        <ele>130.88</ele>
        <time>2018-07-02T13:32:41Z</time>
      </trkpt>
      <trkpt lat="50.597300995141268" lon="1.742261974141002">
        <ele>140.00999999999999</ele>
        <time>2018-07-02T13:32:53Z</time>
      </trkpt>
      <trkpt lat="50.594496997073293" lon="1.741031007841229">
        <ele>136.16</ele>
        <time>2018-07-02T13:33:04Z</time>
      </trkpt>
      <trkpt lat="50.589880999177694" lon="1.739015998318791">
        <ele>129.43000000000001</ele>
        <time>2018-07-02T13:33:21Z</time>
      </trkpt>
      <trkpt lat="50.58858297765255" lon="1.738571003079414">
        <ele>132.31999999999999</ele>
        <time>2018-07-02T13:33:27Z</time>
      </trkpt>
      <trkpt lat="50.587782002985477" lon="1.738615008071065">
        <ele>132.31999999999999</ele>
        <time>2018-07-02T13:33:31Z</time>
      </trkpt>
      <trkpt lat="50.585935972630978" lon="1.73920601606369">
        <ele>125.11</ele>
        <time>2018-07-02T13:33:39Z</time>
      </trkpt>
      <trkpt lat="50.582862999290228" lon="1.740190973505378">
        <ele>120.78</ele>
        <time>2018-07-02T13:33:52Z</time>
      </trkpt>
      <trkpt lat="50.58091202750802" lon="1.740469001233578">
        <ele>112.61</ele>
        <time>2018-07-02T13:34:00Z</time>
      </trkpt>
      <trkpt lat="50.579235982149839" lon="1.740691037848592">
        <ele>103.48</ele>
        <time>2018-07-02T13:34:07Z</time>
      </trkpt>
      <trkpt lat="50.579024003818631" lon="1.740804025903344">
        <ele>102.04000000000001</ele>
        <time>2018-07-02T13:34:08Z</time>
      </trkpt>
      <trkpt lat="50.578810013830662" lon="1.740918019786477">
        <ele>100.59999999999999</ele>
        <time>2018-07-02T13:34:09Z</time>
      </trkpt>
      <trkpt lat="50.57861203327775" lon="1.741082975640893">
        <ele>99.150000000000006</ele>
        <time>2018-07-02T13:34:10Z</time>
      </trkpt>
      <trkpt lat="50.578416986390948" lon="1.741295037791133">
        <ele>97.709999999999994</ele>
        <time>2018-07-02T13:34:11Z</time>
      </trkpt>
      <trkpt lat="50.578219005838037" lon="1.741511039435864">
        <ele>96.269999999999996</ele>
        <time>2018-07-02T13:34:12Z</time>
      </trkpt>
      <trkpt lat="50.57644103653729" lon="1.743834000080824">
        <ele>83.769999999999996</ele>
        <time>2018-07-02T13:34:21Z</time>
      </trkpt>
      <trkpt lat="50.574848977848887" lon="1.746534984558821">
        <ele>69.829999999999998</ele>
        <time>2018-07-02T13:34:30Z</time>
      </trkpt>
      <trkpt lat="50.573073020204902" lon="1.748649990186095">
        <ele>60.700000000000003</ele>
        <time>2018-07-02T13:34:39Z</time>
      </trkpt>
      <trkpt lat="50.571172004565597" lon="1.750054964795709">
        <ele>68.870000000000005</ele>
        <time>2018-07-02T13:34:48Z</time>
      </trkpt>
      <trkpt lat="50.569278029724956" lon="1.750844037160277">
        <ele>77.519999999999996</ele>
        <time>2018-07-02T13:34:57Z</time>
      </trkpt>
      <trkpt lat="50.566712999716401" lon="1.75162497907877">
        <ele>79.930000000000007</ele>
        <time>2018-07-02T13:35:08Z</time>
      </trkpt>
      <trkpt lat="50.564791029319167" lon="1.752211963757873">
        <ele>82.810000000000002</ele>
        <time>2018-07-02T13:35:18Z</time>
      </trkpt>
      <trkpt lat="50.562210995703936" lon="1.753007993102074">
        <ele>90.980000000000004</ele>
        <time>2018-07-02T13:35:32Z</time>
      </trkpt>
      <trkpt lat="50.559757025912404" lon="1.753767980262637">
        <ele>96.75</ele>
        <time>2018-07-02T13:35:45Z</time>
      </trkpt>
      <trkpt lat="50.558416005223989" lon="1.754186991602182">
        <ele>96.75</ele>
        <time>2018-07-02T13:35:51Z</time>
      </trkpt>
      <trkpt lat="50.556346010416746" lon="1.754863997921348">
        <ele>97.230000000000004</ele>
        <time>2018-07-02T13:36:01Z</time>
      </trkpt>
      <trkpt lat="50.555412014946342" lon="1.75516901537776">
        <ele>96.75</ele>
        <time>2018-07-02T13:36:08Z</time>
      </trkpt>
      <trkpt lat="50.554211977869272" lon="1.755570005625486">
        <ele>94.829999999999998</ele>
        <time>2018-07-02T13:36:15Z</time>
      </trkpt>
      <trkpt lat="50.552789987996221" lon="1.75605003722012">
        <ele>93.390000000000001</ele>
        <time>2018-07-02T13:36:21Z</time>
      </trkpt>
      <trkpt lat="50.551088964566588" lon="1.756612965837121">
        <ele>94.829999999999998</ele>
        <time>2018-07-02T13:36:29Z</time>
      </trkpt>
      <trkpt lat="50.548666007816792" lon="1.757407989352942">
        <ele>97.230000000000004</ele>
        <time>2018-07-02T13:36:41Z</time>
      </trkpt>
      <trkpt lat="50.546872029080987" lon="1.757992962375283">
        <ele>99.150000000000006</ele>
        <time>2018-07-02T13:36:50Z</time>
      </trkpt>
      <trkpt lat="50.544490981847048" lon="1.758791003376246">
        <ele>104.92</ele>
        <time>2018-07-02T13:37:01Z</time>
      </trkpt>
      <trkpt lat="50.542257959023118" lon="1.759733967483044">
        <ele>113.56999999999999</ele>
        <time>2018-07-02T13:37:11Z</time>
      </trkpt>
      <trkpt lat="50.539597040042281" lon="1.761712012812495">
        <ele>111.17</ele>
        <time>2018-07-02T13:37:23Z</time>
      </trkpt>
      <trkpt lat="50.53695498034358" lon="1.763674970716238">
        <ele>103.48</ele>
        <time>2018-07-02T13:37:34Z</time>
      </trkpt>
      <trkpt lat="50.53452699445188" lon="1.765469033271074">
        <ele>98.670000000000002</ele>
        <time>2018-07-02T13:37:44Z</time>
      </trkpt>
      <trkpt lat="50.533025963231921" lon="1.765975970774889">
        <ele>97.230000000000004</ele>
        <time>2018-07-02T13:37:50Z</time>
      </trkpt>
      <trkpt lat="50.531502971425653" lon="1.765778996050358">
        <ele>97.230000000000004</ele>
        <time>2018-07-02T13:37:56Z</time>
      </trkpt>
      <trkpt lat="50.528029007837176" lon="1.76492596976459">
        <ele>94.829999999999998</ele>
        <time>2018-07-02T13:38:09Z</time>
      </trkpt>
      <trkpt lat="50.525610996410251" lon="1.764347031712532">
        <ele>93.390000000000001</ele>
        <time>2018-07-02T13:38:19Z</time>
      </trkpt>
      <trkpt lat="50.523565979674459" lon="1.763856019824743">
        <ele>90.980000000000004</ele>
        <time>2018-07-02T13:38:28Z</time>
      </trkpt>
      <trkpt lat="50.521099017933011" lon="1.763260988518596">
        <ele>86.180000000000007</ele>
        <time>2018-07-02T13:38:38Z</time>
      </trkpt>
      <trkpt lat="50.518952999264002" lon="1.762743992730975">
        <ele>85.689999999999998</ele>
        <time>2018-07-02T13:38:47Z</time>
      </trkpt>
      <trkpt lat="50.516677983105183" lon="1.762261027470231">
        <ele>91.939999999999998</ele>
        <time>2018-07-02T13:38:57Z</time>
      </trkpt>
      <trkpt lat="50.516228964552283" lon="1.762273013591766">
        <ele>92.420000000000002</ele>
        <time>2018-07-02T13:38:59Z</time>
      </trkpt>
      <trkpt lat="50.51389804109931" lon="1.762952031567693">
        <ele>90.5</ele>
        <time>2018-07-02T13:39:09Z</time>
      </trkpt>
      <trkpt lat="50.51155898720026" lon="1.763672959059477">
        <ele>88.099999999999994</ele>
        <time>2018-07-02T13:39:19Z</time>
      </trkpt>
      <trkpt lat="50.508757000789046" lon="1.764535959810019">
        <ele>78.480000000000004</ele>
        <time>2018-07-02T13:39:31Z</time>
      </trkpt>
      <trkpt lat="50.507599040865898" lon="1.764894034713507">
        <ele>72.239999999999995</ele>
        <time>2018-07-02T13:39:37Z</time>
      </trkpt>
      <trkpt lat="50.506362039595842" lon="1.765285972505808">
        <ele>70.790000000000006</ele>
        <time>2018-07-02T13:39:47Z</time>
      </trkpt>
      <trkpt lat="50.505277002230287" lon="1.765605993568897">
        <ele>70.790000000000006</ele>
        <time>2018-07-02T13:39:55Z</time>
      </trkpt>
      <trkpt lat="50.503473971039057" lon="1.766190966591239">
        <ele>70.790000000000006</ele>
        <time>2018-07-02T13:40:03Z</time>
      </trkpt>
      <trkpt lat="50.500143002718687" lon="1.767197968438268">
        <ele>73.200000000000003</ele>
        <time>2018-07-02T13:40:16Z</time>
      </trkpt>
      <trkpt lat="50.495901005342603" lon="1.768528008833528">
        <ele>59.740000000000002</ele>
        <time>2018-07-02T13:40:32Z</time>
      </trkpt>
      <trkpt lat="50.492279017344117" lon="1.769653027877212">
        <ele>64.549999999999997</ele>
        <time>2018-07-02T13:40:46Z</time>
      </trkpt>
      <trkpt lat="50.490853004157543" lon="1.769898030906916">
        <ele>60.700000000000003</ele>
        <time>2018-07-02T13:40:52Z</time>
      </trkpt>
      <trkpt lat="50.490629961714149" lon="1.769840028136969">
        <ele>59.259999999999998</ele>
        <time>2018-07-02T13:40:53Z</time>
      </trkpt>
      <trkpt lat="50.490405997261405" lon="1.769755035638809">
        <ele>57.340000000000003</ele>
        <time>2018-07-02T13:40:54Z</time>
      </trkpt>
      <trkpt lat="50.490183960646391" lon="1.769628971815109">
        <ele>55.890000000000001</ele>
        <time>2018-07-02T13:40:55Z</time>
      </trkpt>
      <trkpt lat="50.48996502533555" lon="1.769474996253848">
        <ele>53.969999999999999</ele>
        <time>2018-07-02T13:40:56Z</time>
      </trkpt>
      <trkpt lat="50.48809602856636" lon="1.767944963648915">
        <ele>40.509999999999998</ele>
        <time>2018-07-02T13:41:05Z</time>
      </trkpt>
      <trkpt lat="50.486080013215542" lon="1.765979994088411">
        <ele>30.420000000000002</ele>
        <time>2018-07-02T13:41:15Z</time>
      </trkpt>
      <trkpt lat="50.48519597388804" lon="1.765111964195967">
        <ele>26.57</ele>
        <time>2018-07-02T13:41:22Z</time>
      </trkpt>
      <trkpt lat="50.48422702588141" lon="1.764219962060452">
        <ele>22.73</ele>
        <time>2018-07-02T13:41:31Z</time>
      </trkpt>
      <trkpt lat="50.483285989612341" lon="1.763802040368319">
        <ele>13.119999999999999</ele>
        <time>2018-07-02T13:41:39Z</time>
      </trkpt>
      <trkpt lat="50.48220899887383" lon="1.76380799151957">
        <ele>5.91</ele>
        <time>2018-07-02T13:41:49Z</time>
      </trkpt>
      <trkpt lat="50.481768026947975" lon="1.763765998184681">
        <ele>3.98</ele>
        <time>2018-07-02T13:41:54Z</time>
      </trkpt>
      <trkpt lat="50.481578009203076" lon="1.763628032058477">
        <ele>2.06</ele>
        <time>2018-07-02T13:42:00Z</time>
      </trkpt>
      <trkpt lat="50.481542972847819" lon="1.763614034280181">
        <ele>2.06</ele>
        <time>2018-07-02T13:42:01Z</time>
      </trkpt>
      <trkpt lat="50.481488993391395" lon="1.76359198987484">
        <ele>2.06</ele>
        <time>2018-07-02T13:42:02Z</time>
      </trkpt>
      <trkpt lat="50.481412969529629" lon="1.763642029836774">
        <ele>1.58</ele>
        <time>2018-07-02T13:42:03Z</time>
      </trkpt>
      <trkpt lat="50.481370976194739" lon="1.763736996799707">
        <ele>1.1</ele>
        <time>2018-07-02T13:42:04Z</time>
      </trkpt>
      <trkpt lat="50.481363013386726" lon="1.763777984306216">
        <ele>1.1</ele>
        <time>2018-07-02T13:42:05Z</time>
      </trkpt>
      <trkpt lat="50.481343986466527" lon="1.763975964859128">
        <ele>0.62</ele>
        <time>2018-07-02T13:42:06Z</time>
      </trkpt>
      <trkpt lat="50.481284977868199" lon="1.764046959578991">
        <ele>0.14</ele>
        <time>2018-07-02T13:42:07Z</time>
      </trkpt>
      <trkpt lat="50.481213983148336" lon="1.764130024239421">
        <ele>0.14</ele>
        <time>2018-07-02T13:42:08Z</time>
      </trkpt>
      <trkpt lat="50.481137959286571" lon="1.764219962060452">
        <ele>-0.34</ele>
        <time>2018-07-02T13:42:09Z</time>
      </trkpt>
      <trkpt lat="50.480718025937676" lon="1.764702005311847">
        <ele>-0.82</ele>
        <time>2018-07-02T13:42:14Z</time>
      </trkpt>
      <trkpt lat="50.480541000142694" lon="1.764885988086462">
        <ele>-0.82</ele>
        <time>2018-07-02T13:42:20Z</time>
      </trkpt>
      <trkpt lat="50.480541000142694" lon="1.764885988086462">
        <ele>-0.82</ele>
        <time>2018-07-02T13:42:39Z</time>
      </trkpt>
      <trkpt lat="50.480541000142694" lon="1.764885988086462">
        <ele>-0.82</ele>
        <time>2018-07-02T13:42:58Z</time>
      </trkpt>
      <trkpt lat="50.480541000142694" lon="1.764885988086462">
        <ele>-0.82</ele>
        <time>2018-07-02T13:43:46Z</time>
      </trkpt>
      <trkpt lat="50.480541000142694" lon="1.764885988086462">
        <ele>-0.82</ele>
        <time>2018-07-02T13:44:37Z</time>
      </trkpt>
      <trkpt lat="50.480541000142694" lon="1.764885988086462">
        <ele>-0.82</ele>
        <time>2018-07-02T13:45:23Z</time>
      </trkpt>
      <trkpt lat="50.480541000142694" lon="1.764885988086462">
        <ele>-0.82</ele>
        <time>2018-07-02T13:46:13Z</time>
      </trkpt>
      <trkpt lat="50.480541000142694" lon="1.764885988086462">
        <ele>-0.34</ele>
        <time>2018-07-02T13:47:01Z</time>
      </trkpt>
      <trkpt lat="50.480541000142694" lon="1.764885988086462">
        <ele>-0.34</ele>
        <time>2018-07-02T13:47:57Z</time>
      </trkpt>
      <trkpt lat="50.480541000142694" lon="1.764885988086462">
        <ele>0.14</ele>
        <time>2018-07-02T13:48:50Z</time>
      </trkpt>
      <trkpt lat="50.480541000142694" lon="1.764885988086462">
        <ele>0.14</ele>
        <time>2018-07-02T13:49:40Z</time>
      </trkpt>
      <trkpt lat="50.480541000142694" lon="1.764885988086462">
        <ele>0.14</ele>
        <time>2018-07-02T13:50:25Z</time>
      </trkpt>
      <trkpt lat="50.480541000142694" lon="1.764885988086462">
        <ele>0.14</ele>
        <time>2018-07-02T13:51:14Z</time>
      </trkpt>
      <trkpt lat="50.480541000142694" lon="1.764885988086462">
        <ele>0.14</ele>
        <time>2018-07-02T13:51:53Z</time>
      </trkpt>
      <trkpt lat="50.480541000142694" lon="1.764885988086462">
        <ele>0.62</ele>
        <time>2018-07-02T13:52:48Z</time>
      </trkpt>
      <trkpt lat="50.480524990707636" lon="1.764905015006661">
        <ele>0.14</ele>
        <time>2018-07-02T13:53:39Z</time>
      </trkpt>
      <trkpt lat="50.480503030121326" lon="1.764928987249732">
        <ele>0.14</ele>
        <time>2018-07-02T13:53:40Z</time>
      </trkpt>
      <trkpt lat="50.480462964624166" lon="1.764973998069763">
        <ele>0.14</ele>
        <time>2018-07-02T13:53:41Z</time>
      </trkpt>
      <trkpt lat="50.480406973510981" lon="1.765037029981613">
        <ele>0.14</ele>
        <time>2018-07-02T13:53:42Z</time>
      </trkpt>
      <trkpt lat="50.48034000210464" lon="1.765110958367586">
        <ele>0.14</ele>
        <time>2018-07-02T13:53:43Z</time>
      </trkpt>
      <trkpt lat="50.479442970827222" lon="1.766076972708106">
        <ele>-0.82</ele>
        <time>2018-07-02T13:53:53Z</time>
      </trkpt>
      <trkpt lat="50.478903008624911" lon="1.76666496321559">
        <ele>-0.34</ele>
        <time>2018-07-02T13:54:01Z</time>
      </trkpt>
      <trkpt lat="50.478162970393896" lon="1.767489993944764">
        <ele>0.62</ele>
        <time>2018-07-02T13:54:12Z</time>
      </trkpt>
      <trkpt lat="50.478013018146157" lon="1.767653021961451">
        <ele>0.14</ele>
        <time>2018-07-02T13:54:14Z</time>
      </trkpt>
      <trkpt lat="50.477222017943859" lon="1.768519962206483">
        <ele>-1.79</ele>
        <time>2018-07-02T13:54:25Z</time>
      </trkpt>
      <trkpt lat="50.476425988599658" lon="1.769229993224144">
        <ele>-2.27</ele>
        <time>2018-07-02T13:54:32Z</time>
      </trkpt>
      <trkpt lat="50.475214971229434" lon="1.77016700617969">
        <ele>-1.79</ele>
        <time>2018-07-02T13:54:39Z</time>
      </trkpt>
      <trkpt lat="50.474402010440826" lon="1.770774023607373">
        <ele>-1.3</ele>
        <time>2018-07-02T13:54:46Z</time>
      </trkpt>
      <trkpt lat="50.473146988078952" lon="1.771710030734539">
        <ele>-0.34</ele>
        <time>2018-07-02T13:54:56Z</time>
      </trkpt>
      <trkpt lat="50.472149038687348" lon="1.772416038438678">
        <ele>0.14</ele>
        <time>2018-07-02T13:55:05Z</time>
      </trkpt>
      <trkpt lat="50.472062034532428" lon="1.772470017895103">
        <ele>0.14</ele>
        <time>2018-07-02T13:55:06Z</time>
      </trkpt>
      <trkpt lat="50.471948040649295" lon="1.772540006786585">
        <ele>0.14</ele>
        <time>2018-07-02T13:55:08Z</time>
      </trkpt>
      <trkpt lat="50.471771014854312" lon="1.772489966824651">
        <ele>0.14</ele>
        <time>2018-07-02T13:55:10Z</time>
      </trkpt>
      <trkpt lat="50.471771014854312" lon="1.772489966824651">
        <ele>0.14</ele>
        <time>2018-07-02T13:55:11Z</time>
      </trkpt>
      <trkpt lat="50.471711000427604" lon="1.772500025108457">
        <ele>0.62</ele>
        <time>2018-07-02T13:55:12Z</time>
      </trkpt>
      <trkpt lat="50.47165802679956" lon="1.77250798791647">
        <ele>0.62</ele>
        <time>2018-07-02T13:55:13Z</time>
      </trkpt>
      <trkpt lat="50.471607986837626" lon="1.772578982636333">
        <ele>0.62</ele>
        <time>2018-07-02T13:55:14Z</time>
      </trkpt>
      <trkpt lat="50.471569010987878" lon="1.772659029811621">
        <ele>0.62</ele>
        <time>2018-07-02T13:55:15Z</time>
      </trkpt>
      <trkpt lat="50.471557024866343" lon="1.772683002054691">
        <ele>0.62</ele>
        <time>2018-07-02T13:55:16Z</time>
      </trkpt>
      <trkpt lat="50.471441019326448" lon="1.772978967055678">
        <ele>0.62</ele>
        <time>2018-07-02T13:55:18Z</time>
      </trkpt>
      <trkpt lat="50.471358960494399" lon="1.773041998967528">
        <ele>0.62</ele>
        <time>2018-07-02T13:55:19Z</time>
      </trkpt>
      <trkpt lat="50.471262987703085" lon="1.773115005344153">
        <ele>1.1</ele>
        <time>2018-07-02T13:55:20Z</time>
      </trkpt>
      <trkpt lat="50.470238970592618" lon="1.773873986676335">
        <ele>3.5</ele>
        <time>2018-07-02T13:55:28Z</time>
      </trkpt>
      <trkpt lat="50.468516992405057" lon="1.774932034313679">
        <ele>3.98</ele>
        <time>2018-07-02T13:55:38Z</time>
      </trkpt>
      <trkpt lat="50.466566020622849" lon="1.77564499899745">
        <ele>3.98</ele>
        <time>2018-07-02T13:55:48Z</time>
      </trkpt>
      <trkpt lat="50.464544976130128" lon="1.775652961805463">
        <ele>7.35</ele>
        <time>2018-07-02T13:55:58Z</time>
      </trkpt>
      <trkpt lat="50.462812017649412" lon="1.775079974904656">
        <ele>14.56</ele>
        <time>2018-07-02T13:56:07Z</time>
      </trkpt>
      <trkpt lat="50.460761971771717" lon="1.773888990283012">
        <ele>23.210000000000001</ele>
        <time>2018-07-02T13:56:18Z</time>
      </trkpt>
      <trkpt lat="50.459592025727034" lon="1.772548975422978">
        <ele>27.050000000000001</ele>
        <time>2018-07-02T13:56:25Z</time>
      </trkpt>
      <trkpt lat="50.458314036950469" lon="1.770069021731615">
        <ele>27.530000000000001</ele>
        <time>2018-07-02T13:56:35Z</time>
      </trkpt>
      <trkpt lat="50.457023978233337" lon="1.767435008659959">
        <ele>22.25</ele>
        <time>2018-07-02T13:56:46Z</time>
      </trkpt>
      <trkpt lat="50.455724028870463" lon="1.764766965061426">
        <ele>17.440000000000001</ele>
        <time>2018-07-02T13:56:56Z</time>
      </trkpt>
      <trkpt lat="50.454674027860165" lon="1.762657994404435">
        <ele>20.809999999999999</ele>
        <time>2018-07-02T13:57:04Z</time>
      </trkpt>
      <trkpt lat="50.453700972720981" lon="1.760732000693679">
        <ele>26.09</ele>
        <time>2018-07-02T13:57:12Z</time>
      </trkpt>
      <trkpt lat="50.452801007777452" lon="1.75907900556922">
        <ele>32.82</ele>
        <time>2018-07-02T13:57:18Z</time>
      </trkpt>
      <trkpt lat="50.451000994071364" lon="1.755825988948345">
        <ele>45.799999999999997</ele>
        <time>2018-07-02T13:57:31Z</time>
      </trkpt>
      <trkpt lat="50.449010040611029" lon="1.752197965979576">
        <ele>49.649999999999999</ele>
        <time>2018-07-02T13:57:45Z</time>
      </trkpt>
      <trkpt lat="50.447126040235162" lon="1.748894993215799">
        <ele>49.159999999999997</ele>
        <time>2018-07-02T13:57:58Z</time>
      </trkpt>
      <trkpt lat="50.445303982123733" lon="1.746558034792543">
        <ele>48.200000000000003</ele>
        <time>2018-07-02T13:58:09Z</time>
      </trkpt>
      <trkpt lat="50.443120999261737" lon="1.744454009458423">
        <ele>47.719999999999999</ele>
        <time>2018-07-02T13:58:21Z</time>
      </trkpt>
      <trkpt lat="50.441043963655829" lon="1.742644021287561">
        <ele>50.609999999999999</ele>
        <time>2018-07-02T13:58:32Z</time>
      </trkpt>
      <trkpt lat="50.43745600618422" lon="1.739553026854992">
        <ele>55.890000000000001</ele>
        <time>2018-07-02T13:58:51Z</time>
      </trkpt>
      <trkpt lat="50.434631975367665" lon="1.737127974629402">
        <ele>61.18</ele>
        <time>2018-07-02T13:59:06Z</time>
      </trkpt>
      <trkpt lat="50.433646012097597" lon="1.73630403354764">
        <ele>63.579999999999998</ele>
        <time>2018-07-02T13:59:13Z</time>
      </trkpt>
      <trkpt lat="50.433549033477902" lon="1.736215017735958">
        <ele>64.069999999999993</ele>
        <time>2018-07-02T13:59:14Z</time>
      </trkpt>
      <trkpt lat="50.433511985465884" lon="1.735969008877873">
        <ele>64.069999999999993</ele>
        <time>2018-07-02T13:59:15Z</time>
      </trkpt>
      <trkpt lat="50.433411989361048" lon="1.735744038596749">
        <ele>63.579999999999998</ele>
        <time>2018-07-02T13:59:17Z</time>
      </trkpt>
      <trkpt lat="50.433362033218145" lon="1.735668014734983">
        <ele>63.579999999999998</ele>
        <time>2018-07-02T13:59:18Z</time>
      </trkpt>
      <trkpt lat="50.433259019628167" lon="1.73572501167655">
        <ele>63.579999999999998</ele>
        <time>2018-07-02T13:59:19Z</time>
      </trkpt>
      <trkpt lat="50.433176960796118" lon="1.735771028324962">
        <ele>63.579999999999998</ele>
        <time>2018-07-02T13:59:20Z</time>
      </trkpt>
      <trkpt lat="50.433056009933352" lon="1.735709002241492">
        <ele>63.579999999999998</ele>
        <time>2018-07-02T13:59:21Z</time>
      </trkpt>
      <trkpt lat="50.432963976636529" lon="1.735655022785068">
        <ele>64.069999999999993</ele>
        <time>2018-07-02T13:59:22Z</time>
      </trkpt>
      <trkpt lat="50.432855011895299" lon="1.735590985044837">
        <ele>63.579999999999998</ele>
        <time>2018-07-02T13:59:23Z</time>
      </trkpt>
      <trkpt lat="50.432735988870263" lon="1.735503980889916">
        <ele>63.579999999999998</ele>
        <time>2018-07-02T13:59:24Z</time>
      </trkpt>
      <trkpt lat="50.431351969018579" lon="1.734304027631879">
        <ele>60.700000000000003</ele>
        <time>2018-07-02T13:59:34Z</time>
      </trkpt>
      <trkpt lat="50.429698973894119" lon="1.732898969203234">
        <ele>59.740000000000002</ele>
        <time>2018-07-02T13:59:44Z</time>
      </trkpt>
      <trkpt lat="50.428572027012706" lon="1.731767999008298">
        <ele>60.219999999999999</ele>
        <time>2018-07-02T13:59:53Z</time>
      </trkpt>
      <trkpt lat="50.427974984049797" lon="1.730923019349575">
        <ele>59.259999999999998</ele>
        <time>2018-07-02T14:00:01Z</time>
      </trkpt>
      <trkpt lat="50.427936008200049" lon="1.730831991881132">
        <ele>58.780000000000001</ele>
        <time>2018-07-02T14:00:02Z</time>
      </trkpt>
      <trkpt lat="50.427909018471837" lon="1.730731995776296">
        <ele>58.780000000000001</ele>
        <time>2018-07-02T14:00:03Z</time>
      </trkpt>
      <trkpt lat="50.427889991551638" lon="1.730496967211366">
        <ele>58.299999999999997</ele>
        <time>2018-07-02T14:00:05Z</time>
      </trkpt>
      <trkpt lat="50.42783098295331" lon="1.730394037440419">
        <ele>58.299999999999997</ele>
        <time>2018-07-02T14:00:06Z</time>
      </trkpt>
      <trkpt lat="50.427794018760324" lon="1.730125984176993">
        <ele>57.82</ele>
        <time>2018-07-02T14:00:08Z</time>
      </trkpt>
      <trkpt lat="50.427786977961659" lon="1.729977959766984">
        <ele>57.340000000000003</ele>
        <time>2018-07-02T14:00:09Z</time>
      </trkpt>
      <trkpt lat="50.427797958254814" lon="1.729805041104555">
        <ele>57.340000000000003</ele>
        <time>2018-07-02T14:00:10Z</time>
      </trkpt>
      <trkpt lat="50.427951011806726" lon="1.728341979905963">
        <ele>53.969999999999999</ele>
        <time>2018-07-02T14:00:16Z</time>
      </trkpt>
      <trkpt lat="50.427941959351301" lon="1.728032017126679">
        <ele>53.490000000000002</ele>
        <time>2018-07-02T14:00:17Z</time>
      </trkpt>
      <trkpt lat="50.427924022078514" lon="1.72771199606359">
        <ele>52.530000000000001</ele>
        <time>2018-07-02T14:00:18Z</time>
      </trkpt>
      <trkpt lat="50.427467040717602" lon="1.724796015769243">
        <ele>48.200000000000003</ele>
        <time>2018-07-02T14:00:26Z</time>
      </trkpt>
      <trkpt lat="50.426592975854874" lon="1.721763024106622">
        <ele>45.32</ele>
        <time>2018-07-02T14:00:34Z</time>
      </trkpt>
      <trkpt lat="50.424964958801866" lon="1.718326024711132">
        <ele>41.950000000000003</ele>
        <time>2018-07-02T14:00:44Z</time>
      </trkpt>
      <trkpt lat="50.423112977296114" lon="1.714589037001133">
        <ele>39.549999999999997</ele>
        <time>2018-07-02T14:00:55Z</time>
      </trkpt>
      <trkpt lat="50.421852003782988" lon="1.712190974503756">
        <ele>40.030000000000001</ele>
        <time>2018-07-02T14:01:03Z</time>
      </trkpt>
      <trkpt lat="50.420156009495258" lon="1.709583029150963">
        <ele>42.439999999999998</ele>
        <time>2018-07-02T14:01:14Z</time>
      </trkpt>
      <trkpt lat="50.419369032606483" lon="1.707610012963414">
        <ele>43.880000000000003</ele>
        <time>2018-07-02T14:01:21Z</time>
      </trkpt>
      <trkpt lat="50.418490022420883" lon="1.703828014433384">
        <ele>49.649999999999999</ele>
        <time>2018-07-02T14:01:33Z</time>
      </trkpt>
      <trkpt lat="50.417316975072026" lon="1.699416032060981">
        <ele>39.07</ele>
        <time>2018-07-02T14:01:47Z</time>
      </trkpt>
      <trkpt lat="50.416066981852055" lon="1.694809002801776">
        <ele>31.859999999999999</ele>
        <time>2018-07-02T14:02:02Z</time>
      </trkpt>
      <trkpt lat="50.414711963385344" lon="1.689960993826389">
        <ele>39.07</ele>
        <time>2018-07-02T14:02:18Z</time>
      </trkpt>
      <trkpt lat="50.414481963962317" lon="1.688991039991379">
        <ele>39.07</ele>
        <time>2018-07-02T14:02:23Z</time>
      </trkpt>
      <trkpt lat="50.414464026689529" lon="1.688835974782705">
        <ele>39.07</ele>
        <time>2018-07-02T14:02:24Z</time>
      </trkpt>
      <trkpt lat="50.414478024467826" lon="1.688690967857838">
        <ele>39.07</ele>
        <time>2018-07-02T14:02:25Z</time>
      </trkpt>
      <trkpt lat="50.414507025852799" lon="1.688554007560015">
        <ele>39.07</ele>
        <time>2018-07-02T14:02:26Z</time>
      </trkpt>
      <trkpt lat="50.414486993104219" lon="1.688358960673213">
        <ele>39.07</ele>
        <time>2018-07-02T14:02:27Z</time>
      </trkpt>
      <trkpt lat="50.414394959807396" lon="1.688260976225138">
        <ele>39.07</ele>
        <time>2018-07-02T14:02:28Z</time>
      </trkpt>
      <trkpt lat="50.414328994229436" lon="1.688203979283571">
        <ele>39.549999999999997</ele>
        <time>2018-07-02T14:02:29Z</time>
      </trkpt>
      <trkpt lat="50.414261016994715" lon="1.688043968752027">
        <ele>39.07</ele>
        <time>2018-07-02T14:02:30Z</time>
      </trkpt>
      <trkpt lat="50.414198990911245" lon="1.687896028161049">
        <ele>38.590000000000003</ele>
        <time>2018-07-02T14:02:31Z</time>
      </trkpt>
      <trkpt lat="50.414125984534621" lon="1.68772503733635">
        <ele>38.109999999999999</ele>
        <time>2018-07-02T14:02:32Z</time>
      </trkpt>
      <trkpt lat="50.414047027006745" lon="1.687538959085941">
        <ele>37.630000000000003</ele>
        <time>2018-07-02T14:02:33Z</time>
      </trkpt>
      <trkpt lat="50.413955999538302" lon="1.687336033210158">
        <ele>37.630000000000003</ele>
        <time>2018-07-02T14:02:34Z</time>
      </trkpt>
      <trkpt lat="50.413424000144005" lon="1.685317000374198">
        <ele>31.859999999999999</ele>
        <time>2018-07-02T14:02:41Z</time>
      </trkpt>
      <trkpt lat="50.413037007674575" lon="1.682299012318254">
        <ele>31.379999999999999</ele>
        <time>2018-07-02T14:02:49Z</time>
      </trkpt>
      <trkpt lat="50.413065003231168" lon="1.679796008393168">
        <ele>36.670000000000002</ele>
        <time>2018-07-02T14:02:56Z</time>
      </trkpt>
      <trkpt lat="50.413547968491912" lon="1.675147991627455">
        <ele>43.399999999999999</ele>
        <time>2018-07-02T14:03:10Z</time>
      </trkpt>
      <trkpt lat="50.414210977032781" lon="1.669174963608384">
        <ele>48.200000000000003</ele>
        <time>2018-07-02T14:03:28Z</time>
      </trkpt>
      <trkpt lat="50.414285995066166" lon="1.667394982650876">
        <ele>48.68</ele>
        <time>2018-07-02T14:03:35Z</time>
      </trkpt>
      <trkpt lat="50.41429596953094" lon="1.667221980169416">
        <ele>48.68</ele>
        <time>2018-07-02T14:03:36Z</time>
      </trkpt>
      <trkpt lat="50.414308039471507" lon="1.667025005444884">
        <ele>49.159999999999997</ele>
        <time>2018-07-02T14:03:37Z</time>
      </trkpt>
      <trkpt lat="50.414414992555976" lon="1.66678000241518">
        <ele>49.159999999999997</ele>
        <time>2018-07-02T14:03:39Z</time>
      </trkpt>
      <trkpt lat="50.414414992555976" lon="1.666624015197158">
        <ele>49.159999999999997</ele>
        <time>2018-07-02T14:03:40Z</time>
      </trkpt>
      <trkpt lat="50.414378028362989" lon="1.666443971917033">
        <ele>49.159999999999997</ele>
        <time>2018-07-02T14:03:41Z</time>
      </trkpt>
      <trkpt lat="50.414308961480856" lon="1.666322015225887">
        <ele>49.649999999999999</ele>
        <time>2018-07-02T14:03:42Z</time>
      </trkpt>
      <trkpt lat="50.414228998124599" lon="1.666208021342754">
        <ele>49.649999999999999</ele>
        <time>2018-07-02T14:03:43Z</time>
      </trkpt>
      <trkpt lat="50.414167977869511" lon="1.666043987497687">
        <ele>49.159999999999997</ele>
        <time>2018-07-02T14:03:44Z</time>
      </trkpt>
      <trkpt lat="50.414119027554989" lon="1.665857993066311">
        <ele>49.159999999999997</ele>
        <time>2018-07-02T14:03:45Z</time>
      </trkpt>
      <trkpt lat="50.414065970107913" lon="1.665654983371496">
        <ele>49.159999999999997</ele>
        <time>2018-07-02T14:03:46Z</time>
      </trkpt>
      <trkpt lat="50.414007967337966" lon="1.665435964241624">
        <ele>48.68</ele>
        <time>2018-07-02T14:03:47Z</time>
      </trkpt>
      <trkpt lat="50.413451995700598" lon="1.663621030747891">
        <ele>46.759999999999998</ele>
        <time>2018-07-02T14:03:54Z</time>
      </trkpt>
      <trkpt lat="50.412373999133706" lon="1.661075027659535">
        <ele>42.439999999999998</ele>
        <time>2018-07-02T14:04:03Z</time>
      </trkpt>
      <trkpt lat="50.411326009780169" lon="1.658762963488698">
        <ele>39.549999999999997</ele>
        <time>2018-07-02T14:04:12Z</time>
      </trkpt>
      <trkpt lat="50.410207025706768" lon="1.656521977856755">
        <ele>30.899999999999999</ele>
        <time>2018-07-02T14:04:22Z</time>
      </trkpt>
      <trkpt lat="50.409384006634355" lon="1.655075009912252">
        <ele>25.129999999999999</ele>
        <time>2018-07-02T14:04:31Z</time>
      </trkpt>
      <trkpt lat="50.409261966124177" lon="1.654861019924283">
        <ele>24.170000000000002</ele>
        <time>2018-07-02T14:04:33Z</time>
      </trkpt>
      <trkpt lat="50.409205975010991" lon="1.654762029647827">
        <ele>23.690000000000001</ele>
        <time>2018-07-02T14:04:34Z</time>
      </trkpt>
      <trkpt lat="50.409064991399646" lon="1.654307981953025">
        <ele>22.25</ele>
        <time>2018-07-02T14:04:38Z</time>
      </trkpt>
      <trkpt lat="50.409087035804987" lon="1.654217960312963">
        <ele>22.25</ele>
        <time>2018-07-02T14:04:39Z</time>
      </trkpt>
      <trkpt lat="50.409094998613" lon="1.653970023617148">
        <ele>22.25</ele>
        <time>2018-07-02T14:04:41Z</time>
      </trkpt>
      <trkpt lat="50.409078989177942" lon="1.653858963400126">
        <ele>22.25</ele>
        <time>2018-07-02T14:04:42Z</time>
      </trkpt>
      <trkpt lat="50.409017968922853" lon="1.653729965910316">
        <ele>22.25</ele>
        <time>2018-07-02T14:04:43Z</time>
      </trkpt>
      <trkpt lat="50.408959966152906" lon="1.653646985068917">
        <ele>21.77</ele>
        <time>2018-07-02T14:04:44Z</time>
      </trkpt>
      <trkpt lat="50.408870028331876" lon="1.653567021712661">
        <ele>21.77</ele>
        <time>2018-07-02T14:04:45Z</time>
      </trkpt>
      <trkpt lat="50.408795010298491" lon="1.653528967872262">
        <ele>21.289999999999999</ele>
        <time>2018-07-02T14:04:46Z</time>
      </trkpt>
      <trkpt lat="50.408670958131552" lon="1.653540031984448">
        <ele>21.289999999999999</ele>
        <time>2018-07-02T14:04:47Z</time>
      </trkpt>
      <trkpt lat="50.408596023917198" lon="1.653570961207151">
        <ele>21.77</ele>
        <time>2018-07-02T14:04:48Z</time>
      </trkpt>
      <trkpt lat="50.408463003113866" lon="1.653697025030851">
        <ele>21.77</ele>
        <time>2018-07-02T14:04:49Z</time>
      </trkpt>
      <trkpt lat="50.408423021435738" lon="1.653808001428843">
        <ele>21.77</ele>
        <time>2018-07-02T14:04:50Z</time>
      </trkpt>
      <trkpt lat="50.408384967595339" lon="1.653914032503963">
        <ele>21.77</ele>
        <time>2018-07-02T14:04:51Z</time>
      </trkpt>
      <trkpt lat="50.408367030322552" lon="1.65408200584352">
        <ele>21.77</ele>
        <time>2018-07-02T14:04:52Z</time>
      </trkpt>
      <trkpt lat="50.408292012289166" lon="1.653987038880587">
        <ele>21.77</ele>
        <time>2018-07-02T14:04:53Z</time>
      </trkpt>
      <trkpt lat="50.408216994255781" lon="1.654045041650534">
        <ele>21.77</ele>
        <time>2018-07-02T14:04:54Z</time>
      </trkpt>
      <trkpt lat="50.40819201618433" lon="1.654064990580082">
        <ele>21.289999999999999</ele>
        <time>2018-07-02T14:04:55Z</time>
      </trkpt>
      <trkpt lat="50.408055977895856" lon="1.654337989166379">
        <ele>20.809999999999999</ele>
        <time>2018-07-02T14:04:56Z</time>
      </trkpt>
      <trkpt lat="50.407974002882838" lon="1.6542730294168">
        <ele>20.32</ele>
        <time>2018-07-02T14:04:57Z</time>
      </trkpt>
      <trkpt lat="50.407880963757634" lon="1.654201028868556">
        <ele>19.359999999999999</ele>
        <time>2018-07-02T14:04:58Z</time>
      </trkpt>
      <trkpt lat="50.40778499096632" lon="1.65412500500679">
        <ele>18.879999999999999</ele>
        <time>2018-07-02T14:04:59Z</time>
      </trkpt>
      <trkpt lat="50.407696980983019" lon="1.653923001140356">
        <ele>18.399999999999999</ele>
        <time>2018-07-02T14:05:00Z</time>
      </trkpt>
      <trkpt lat="50.407638978213072" lon="1.65376097895205">
        <ele>18.399999999999999</ele>
        <time>2018-07-02T14:05:01Z</time>
      </trkpt>
      <trkpt lat="50.407287022098899" lon="1.652839975431562">
        <ele>16.960000000000001</ele>
        <time>2018-07-02T14:05:07Z</time>
      </trkpt>
      <trkpt lat="50.407137991860509" lon="1.652766969054937">
        <ele>16.48</ele>
        <time>2018-07-02T14:05:08Z</time>
      </trkpt>
      <trkpt lat="50.407045958563685" lon="1.652779961004853">
        <ele>16</ele>
        <time>2018-07-02T14:05:09Z</time>
      </trkpt>
      <trkpt lat="50.406953003257513" lon="1.65279203094542">
        <ele>15.52</ele>
        <time>2018-07-02T14:05:10Z</time>
      </trkpt>
      <trkpt lat="50.406872034072876" lon="1.652803011238575">
        <ele>15.039999999999999</ele>
        <time>2018-07-02T14:05:11Z</time>
      </trkpt>
      <trkpt lat="50.406800033524632" lon="1.65281399153173">
        <ele>14.56</ele>
        <time>2018-07-02T14:05:12Z</time>
      </trkpt>
      <trkpt lat="50.406730966642499" lon="1.652816003188491">
        <ele>14.08</ele>
        <time>2018-07-02T14:05:13Z</time>
      </trkpt>
      <trkpt lat="50.406675981357694" lon="1.652807034552097">
        <ele>13.6</ele>
        <time>2018-07-02T14:05:14Z</time>
      </trkpt>
      <trkpt lat="50.406210031360388" lon="1.65272899903357">
        <ele>9.75</ele>
        <time>2018-07-02T14:05:25Z</time>
      </trkpt>
      <trkpt lat="50.405716001987457" lon="1.65257703512907">
        <ele>10.23</ele>
        <time>2018-07-02T14:05:37Z</time>
      </trkpt>
      <trkpt lat="50.405437974259257" lon="1.652458012104034">
        <ele>9.27</ele>
        <time>2018-07-02T14:05:41Z</time>
      </trkpt>
      <trkpt lat="50.405260026454926" lon="1.652379976585507">
        <ele>9.27</ele>
        <time>2018-07-02T14:05:44Z</time>
      </trkpt>
      <trkpt lat="50.405155001208186" lon="1.652334965765476">
        <ele>9.27</ele>
        <time>2018-07-02T14:05:46Z</time>
      </trkpt>
      <trkpt lat="50.405102027580142" lon="1.652310993522406">
        <ele>9.27</ele>
        <time>2018-07-02T14:05:47Z</time>
      </trkpt>
      <trkpt lat="50.404944028705359" lon="1.652243016287684">
        <ele>8.789999999999999</ele>
        <time>2018-07-02T14:05:50Z</time>
      </trkpt>
      <trkpt lat="50.404893988743424" lon="1.652220971882343">
        <ele>8.789999999999999</ele>
        <time>2018-07-02T14:05:51Z</time>
      </trkpt>
      <trkpt lat="50.404850989580154" lon="1.652202028781176">
        <ele>8.310000000000001</ele>
        <time>2018-07-02T14:05:52Z</time>
      </trkpt>
      <trkpt lat="50.404812013730407" lon="1.652185013517737">
        <ele>7.83</ele>
        <time>2018-07-02T14:05:53Z</time>
      </trkpt>
      <trkpt lat="50.404772032052279" lon="1.652167998254299">
        <ele>7.83</ele>
        <time>2018-07-02T14:05:54Z</time>
      </trkpt>
      <trkpt lat="50.404726015403867" lon="1.652147965505719">
        <ele>7.35</ele>
        <time>2018-07-02T14:05:55Z</time>
      </trkpt>
      <trkpt lat="50.404675975441933" lon="1.65212600491941">
        <ele>7.35</ele>
        <time>2018-07-02T14:05:56Z</time>
      </trkpt>
      <trkpt lat="50.404085973277688" lon="1.65193397551775">
        <ele>6.39</ele>
        <time>2018-07-02T14:06:07Z</time>
      </trkpt>
      <trkpt lat="50.403306959196925" lon="1.651855017989874">
        <ele>8.789999999999999</ele>
        <time>2018-07-02T14:06:19Z</time>
      </trkpt>
      <trkpt lat="50.402770014479756" lon="1.651873039081693">
        <ele>10.23</ele>
        <time>2018-07-02T14:06:29Z</time>
      </trkpt>
      <trkpt lat="50.402630036696792" lon="1.651904974132776">
        <ele>10.710000000000001</ele>
        <time>2018-07-02T14:06:38Z</time>
      </trkpt>
      <trkpt lat="50.402435995638371" lon="1.651949984952807">
        <ele>11.19</ele>
        <time>2018-07-02T14:06:47Z</time>
      </trkpt>
      <trkpt lat="50.402260981500149" lon="1.651989966630936">
        <ele>11.67</ele>
        <time>2018-07-02T14:07:04Z</time>
      </trkpt>
      <trkpt lat="50.402014972642064" lon="1.652046963572502">
        <ele>11.67</ele>
        <time>2018-07-02T14:07:12Z</time>
      </trkpt>
      <trkpt lat="50.401606019586325" lon="1.652141008526087">
        <ele>12.15</ele>
        <time>2018-07-02T14:07:24Z</time>
      </trkpt>
      <trkpt lat="50.401503005996346" lon="1.652164980769157">
        <ele>12.15</ele>
        <time>2018-07-02T14:07:28Z</time>
      </trkpt>
      <trkpt lat="50.401480039581656" lon="1.65217000991106">
        <ele>12.15</ele>
        <time>2018-07-02T14:07:29Z</time>
      </trkpt>
      <trkpt lat="50.401454977691174" lon="1.652102032676339">
        <ele>12.15</ele>
        <time>2018-07-02T14:07:30Z</time>
      </trkpt>
      <trkpt lat="50.401454977691174" lon="1.652026008814573">
        <ele>12.15</ele>
        <time>2018-07-02T14:07:31Z</time>
      </trkpt>
      <trkpt lat="50.401451038196683" lon="1.651970017701387">
        <ele>12.15</ele>
        <time>2018-07-02T14:07:32Z</time>
      </trkpt>
      <trkpt lat="50.40144600905478" lon="1.651885025203228">
        <ele>12.15</ele>
        <time>2018-07-02T14:07:33Z</time>
      </trkpt>
      <trkpt lat="50.401366967707872" lon="1.650665961205959">
        <ele>10.710000000000001</ele>
        <time>2018-07-02T14:07:43Z</time>
      </trkpt>
      <trkpt lat="50.401332015171647" lon="1.650120969861746">
        <ele>10.23</ele>
        <time>2018-07-02T14:07:50Z</time>
      </trkpt>
      <trkpt lat="50.401312988251448" lon="1.649835985153914">
        <ele>9.75</ele>
        <time>2018-07-02T14:07:57Z</time>
      </trkpt>
      <trkpt lat="50.401307959109545" lon="1.649768007919192">
        <ele>9.75</ele>
        <time>2018-07-02T14:07:58Z</time>
      </trkpt>
      <trkpt lat="50.401304019615054" lon="1.649708999320865">
        <ele>9.75</ele>
        <time>2018-07-02T14:08:00Z</time>
      </trkpt>
      <trkpt lat="50.401313994079828" lon="1.649529039859772">
        <ele>10.23</ele>
        <time>2018-07-02T14:08:01Z</time>
      </trkpt>
      <trkpt lat="50.401225984096527" lon="1.649611014872789">
        <ele>9.75</ele>
        <time>2018-07-02T14:08:02Z</time>
      </trkpt>
      <trkpt lat="50.401175022125244" lon="1.6495690215379">
        <ele>9.75</ele>
        <time>2018-07-02T14:08:03Z</time>
      </trkpt>
      <trkpt lat="50.401115007698536" lon="1.649518981575966">
        <ele>9.75</ele>
        <time>2018-07-02T14:08:04Z</time>
      </trkpt>
      <trkpt lat="50.401048958301544" lon="1.649438012391329">
        <ele>9.27</ele>
        <time>2018-07-02T14:08:05Z</time>
      </trkpt>
      <trkpt lat="50.400986010208726" lon="1.649387972429395">
        <ele>9.27</ele>
        <time>2018-07-02T14:08:06Z</time>
      </trkpt>
      <trkpt lat="50.400905041024089" lon="1.649344973266125">
        <ele>9.27</ele>
        <time>2018-07-02T14:08:07Z</time>
      </trkpt>
      <trkpt lat="50.400822982192039" lon="1.649300968274474">
        <ele>9.27</ele>
        <time>2018-07-02T14:08:08Z</time>
      </trkpt>
      <trkpt lat="50.400743018835783" lon="1.649258974939585">
        <ele>8.789999999999999</ele>
        <time>2018-07-02T14:08:09Z</time>
      </trkpt>
      <trkpt lat="50.400660960003734" lon="1.649214969947934">
        <ele>8.310000000000001</ele>
        <time>2018-07-02T14:08:10Z</time>
      </trkpt>
      <trkpt lat="50.399540970101953" lon="1.649019001051784">
        <ele>4.46</ele>
        <time>2018-07-02T14:08:22Z</time>
      </trkpt>
      <trkpt lat="50.398376975208521" lon="1.64903299883008">
        <ele>3.98</ele>
        <time>2018-07-02T14:08:34Z</time>
      </trkpt>
      <trkpt lat="50.39710502140224" lon="1.649389984086156">
        <ele>1.58</ele>
        <time>2018-07-02T14:08:46Z</time>
      </trkpt>
      <trkpt lat="50.395793002098799" lon="1.650030026212335">
        <ele>1.1</ele>
        <time>2018-07-02T14:08:58Z</time>
      </trkpt>
      <trkpt lat="50.394934024661779" lon="1.650331020355225">
        <ele>1.1</ele>
        <time>2018-07-02T14:09:07Z</time>
      </trkpt>
      <trkpt lat="50.394676029682159" lon="1.650400003418326">
        <ele>1.1</ele>
        <time>2018-07-02T14:09:15Z</time>
      </trkpt>
      <trkpt lat="50.394171020016074" lon="1.650536041706801">
        <ele>1.58</ele>
        <time>2018-07-02T14:09:20Z</time>
      </trkpt>
      <trkpt lat="50.39276797324419" lon="1.650911970064044">
        <ele>2.06</ele>
        <time>2018-07-02T14:09:28Z</time>
      </trkpt>
      <trkpt lat="50.390955973416567" lon="1.65109402500093">
        <ele>5.91</ele>
        <time>2018-07-02T14:09:37Z</time>
      </trkpt>
      <trkpt lat="50.388592025265098" lon="1.651441035792232">
        <ele>9.27</ele>
        <time>2018-07-02T14:09:48Z</time>
      </trkpt>
      <trkpt lat="50.387573959305882" lon="1.651651002466679">
        <ele>8.789999999999999</ele>
        <time>2018-07-02T14:09:53Z</time>
      </trkpt>
      <trkpt lat="50.38595600053668" lon="1.651360988616943">
        <ele>7.83</ele>
        <time>2018-07-02T14:10:01Z</time>
      </trkpt>
      <trkpt lat="50.384282972663641" lon="1.651560980826616">
        <ele>8.310000000000001</ele>
        <time>2018-07-02T14:10:10Z</time>
      </trkpt>
      <trkpt lat="50.383388036862016" lon="1.651706993579865">
        <ele>8.310000000000001</ele>
        <time>2018-07-02T14:10:17Z</time>
      </trkpt>
      <trkpt lat="50.382026983425021" lon="1.651946967467666">
        <ele>8.310000000000001</ele>
        <time>2018-07-02T14:10:30Z</time>
      </trkpt>
      <trkpt lat="50.381746022030711" lon="1.652069007977843">
        <ele>8.310000000000001</ele>
        <time>2018-07-02T14:10:33Z</time>
      </trkpt>
      <trkpt lat="50.380618991330266" lon="1.652588015422225">
        <ele>10.23</ele>
        <time>2018-07-02T14:10:44Z</time>
      </trkpt>
      <trkpt lat="50.38015203550458" lon="1.652644006535411">
        <ele>10.710000000000001</ele>
        <time>2018-07-02T14:10:51Z</time>
      </trkpt>
      <trkpt lat="50.380095960572362" lon="1.652650041505694">
        <ele>10.710000000000001</ele>
        <time>2018-07-02T14:10:57Z</time>
      </trkpt>
      <trkpt lat="50.380044998601079" lon="1.652659010142088">
        <ele>10.710000000000001</ele>
        <time>2018-07-02T14:10:58Z</time>
      </trkpt>
      <trkpt lat="50.379584999755025" lon="1.652745008468628">
        <ele>10.23</ele>
        <time>2018-07-02T14:11:06Z</time>
      </trkpt>
      <trkpt lat="50.379342008382082" lon="1.652822038158774">
        <ele>9.75</ele>
        <time>2018-07-02T14:11:12Z</time>
      </trkpt>
      <trkpt lat="50.379255004227161" lon="1.652853973209858">
        <ele>9.75</ele>
        <time>2018-07-02T14:11:13Z</time>
      </trkpt>
      <trkpt lat="50.378785030916333" lon="1.653065029531717">
        <ele>10.23</ele>
        <time>2018-07-02T14:11:18Z</time>
      </trkpt>
      <trkpt lat="50.378691991791129" lon="1.65313602425158">
        <ele>10.23</ele>
        <time>2018-07-02T14:11:19Z</time>
      </trkpt>
      <trkpt lat="50.378599036484957" lon="1.653207018971443">
        <ele>10.23</ele>
        <time>2018-07-02T14:11:20Z</time>
      </trkpt>
      <trkpt lat="50.378515971824527" lon="1.653270972892642">
        <ele>10.23</ele>
        <time>2018-07-02T14:11:21Z</time>
      </trkpt>
      <trkpt lat="50.378442965447903" lon="1.653410028666258">
        <ele>10.710000000000001</ele>
        <time>2018-07-02T14:11:22Z</time>
      </trkpt>
      <trkpt lat="50.378374988213181" lon="1.653540031984448">
        <ele>10.710000000000001</ele>
        <time>2018-07-02T14:11:23Z</time>
      </trkpt>
      <trkpt lat="50.37830701097846" lon="1.653670035302639">
        <ele>10.710000000000001</ele>
        <time>2018-07-02T14:11:24Z</time>
      </trkpt>
      <trkpt lat="50.378248002380133" lon="1.653806995600462">
        <ele>10.710000000000001</ele>
        <time>2018-07-02T14:11:25Z</time>
      </trkpt>
      <trkpt lat="50.377750033512712" lon="1.655420009046793">
        <ele>10.23</ele>
        <time>2018-07-02T14:11:35Z</time>
      </trkpt>
      <trkpt lat="50.377635033801198" lon="1.655750004574657">
        <ele>9.75</ele>
        <time>2018-07-02T14:11:37Z</time>
      </trkpt>
      <trkpt lat="50.377564961090684" lon="1.655900962650776">
        <ele>9.75</ele>
        <time>2018-07-02T14:11:38Z</time>
      </trkpt>
      <trkpt lat="50.377480974420905" lon="1.656034989282489">
        <ele>9.75</ele>
        <time>2018-07-02T14:11:39Z</time>
      </trkpt>
      <trkpt lat="50.376682011410594" lon="1.657182974740863">
        <ele>11.19</ele>
        <time>2018-07-02T14:11:48Z</time>
      </trkpt>
      <trkpt lat="50.375651037320495" lon="1.658803028985858">
        <ele>13.6</ele>
        <time>2018-07-02T14:12:00Z</time>
      </trkpt>
      <trkpt lat="50.375550035387278" lon="1.658943006768823">
        <ele>14.08</ele>
        <time>2018-07-02T14:12:01Z</time>
      </trkpt>
      <trkpt lat="50.375431012362242" lon="1.659069992601872">
        <ele>14.08</ele>
        <time>2018-07-02T14:12:02Z</time>
      </trkpt>
      <trkpt lat="50.375304026529193" lon="1.659206030890346">
        <ele>14.08</ele>
        <time>2018-07-02T14:12:03Z</time>
      </trkpt>
      <trkpt lat="50.375148039311171" lon="1.659296974539757">
        <ele>14.56</ele>
        <time>2018-07-02T14:12:04Z</time>
      </trkpt>
      <trkpt lat="50.374988028779626" lon="1.659372998401523">
        <ele>14.56</ele>
        <time>2018-07-02T14:12:05Z</time>
      </trkpt>
      <trkpt lat="50.37396602332592" lon="1.659846995025873">
        <ele>15.039999999999999</ele>
        <time>2018-07-02T14:12:13Z</time>
      </trkpt>
      <trkpt lat="50.373336039483547" lon="1.660152012482286">
        <ele>14.08</ele>
        <time>2018-07-02T14:12:21Z</time>
      </trkpt>
      <trkpt lat="50.372730027884245" lon="1.660439008846879">
        <ele>13.6</ele>
        <time>2018-07-02T14:12:30Z</time>
      </trkpt>
      <trkpt lat="50.372068025171757" lon="1.660660039633513">
        <ele>12.15</ele>
        <time>2018-07-02T14:12:36Z</time>
      </trkpt>
      <trkpt lat="50.371932992711663" lon="1.660646963864565">
        <ele>12.15</ele>
        <time>2018-07-02T14:12:37Z</time>
      </trkpt>
      <trkpt lat="50.371805001050234" lon="1.660603964701295">
        <ele>12.15</ele>
        <time>2018-07-02T14:12:38Z</time>
      </trkpt>
      <trkpt lat="50.371671980246902" lon="1.660559037700295">
        <ele>12.15</ele>
        <time>2018-07-02T14:12:39Z</time>
      </trkpt>
      <trkpt lat="50.37153803743422" lon="1.660515032708645">
        <ele>12.15</ele>
        <time>2018-07-02T14:12:40Z</time>
      </trkpt>
      <trkpt lat="50.371404010802507" lon="1.660446971654892">
        <ele>11.67</ele>
        <time>2018-07-02T14:12:41Z</time>
      </trkpt>
      <trkpt lat="50.371284987777472" lon="1.660317974165082">
        <ele>11.67</ele>
        <time>2018-07-02T14:12:42Z</time>
      </trkpt>
      <trkpt lat="50.371164958924055" lon="1.660188976675272">
        <ele>11.67</ele>
        <time>2018-07-02T14:12:43Z</time>
      </trkpt>
      <trkpt lat="50.371043002232909" lon="1.66005696170032">
        <ele>11.67</ele>
        <time>2018-07-02T14:12:44Z</time>
      </trkpt>
      <trkpt lat="50.369769958779216" lon="1.658799005672336">
        <ele>10.23</ele>
        <time>2018-07-02T14:12:54Z</time>
      </trkpt>
      <trkpt lat="50.368383005261421" lon="1.657506013289094">
        <ele>11.19</ele>
        <time>2018-07-02T14:13:04Z</time>
      </trkpt>
      <trkpt lat="50.366982975974679" lon="1.656333971768618">
        <ele>12.630000000000001</ele>
        <time>2018-07-02T14:13:12Z</time>
      </trkpt>
      <trkpt lat="50.364483995363116" lon="1.654335977509618">
        <ele>12.630000000000001</ele>
        <time>2018-07-02T14:13:25Z</time>
      </trkpt>
      <trkpt lat="50.363559974357486" lon="1.653095036745071">
        <ele>14.08</ele>
        <time>2018-07-02T14:13:31Z</time>
      </trkpt>
      <trkpt lat="50.363400969654322" lon="1.652977019548416">
        <ele>14.56</ele>
        <time>2018-07-02T14:13:32Z</time>
      </trkpt>
      <trkpt lat="50.363216986879706" lon="1.652841987088323">
        <ele>14.56</ele>
        <time>2018-07-02T14:13:33Z</time>
      </trkpt>
      <trkpt lat="50.363079020753503" lon="1.652811979874969">
        <ele>14.56</ele>
        <time>2018-07-02T14:13:34Z</time>
      </trkpt>
      <trkpt lat="50.362909035757184" lon="1.652775015681982">
        <ele>15.039999999999999</ele>
        <time>2018-07-02T14:13:35Z</time>
      </trkpt>
      <trkpt lat="50.361229972913861" lon="1.652252990752459">
        <ele>13.6</ele>
        <time>2018-07-02T14:13:45Z</time>
      </trkpt>
      <trkpt lat="50.359965981915593" lon="1.65174001827836">
        <ele>13.6</ele>
        <time>2018-07-02T14:13:50Z</time>
      </trkpt>
      <trkpt lat="50.358319021761417" lon="1.651071980595589">
        <ele>11.67</ele>
        <time>2018-07-02T14:13:57Z</time>
      </trkpt>
      <trkpt lat="50.354996016249061" lon="1.649721991270781">
        <ele>8.789999999999999</ele>
        <time>2018-07-02T14:14:13Z</time>
      </trkpt>
      <trkpt lat="50.352054974064231" lon="1.648527989163995">
        <ele>8.310000000000001</ele>
        <time>2018-07-02T14:14:27Z</time>
      </trkpt>
      <trkpt lat="50.350157981738448" lon="1.647804966196418">
        <ele>3.98</ele>
        <time>2018-07-02T14:14:36Z</time>
      </trkpt>
      <trkpt lat="50.348261995241046" lon="1.647234996780753">
        <ele>3.02</ele>
        <time>2018-07-02T14:14:45Z</time>
      </trkpt>
      <trkpt lat="50.345550030469894" lon="1.646151971071959">
        <ele>6.87</ele>
        <time>2018-07-02T14:14:58Z</time>
      </trkpt>
      <trkpt lat="50.343207037076354" lon="1.644422030076385">
        <ele>6.39</ele>
        <time>2018-07-02T14:15:10Z</time>
      </trkpt>
      <trkpt lat="50.341504001989961" lon="1.643866980448365">
        <ele>6.87</ele>
        <time>2018-07-02T14:15:18Z</time>
      </trkpt>
      <trkpt lat="50.339797027409077" lon="1.644087005406618">
        <ele>8.789999999999999</ele>
        <time>2018-07-02T14:15:26Z</time>
      </trkpt>
      <trkpt lat="50.337938005104661" lon="1.64465001784265">
        <ele>8.310000000000001</ele>
        <time>2018-07-02T14:15:36Z</time>
      </trkpt>
      <trkpt lat="50.33759300597012" lon="1.644637025892735">
        <ele>7.83</ele>
        <time>2018-07-02T14:15:38Z</time>
      </trkpt>
      <trkpt lat="50.337428972125053" lon="1.644611964002252">
        <ele>7.83</ele>
        <time>2018-07-02T14:15:39Z</time>
      </trkpt>
      <trkpt lat="50.335994996130466" lon="1.643934035673738">
        <ele>5.91</ele>
        <time>2018-07-02T14:15:48Z</time>
      </trkpt>
      <trkpt lat="50.334649030119181" lon="1.643721973523498">
        <ele>7.35</ele>
        <time>2018-07-02T14:15:56Z</time>
      </trkpt>
      <trkpt lat="50.332636032253504" lon="1.644036965444684">
        <ele>9.75</ele>
        <time>2018-07-02T14:16:08Z</time>
      </trkpt>
      <trkpt lat="50.331044979393482" lon="1.64370596408844">
        <ele>10.23</ele>
        <time>2018-07-02T14:16:16Z</time>
      </trkpt>
      <trkpt lat="50.329766990616918" lon="1.642781021073461">
        <ele>9.27</ele>
        <time>2018-07-02T14:16:23Z</time>
      </trkpt>
      <trkpt lat="50.328423958271742" lon="1.641593975946307">
        <ele>11.19</ele>
        <time>2018-07-02T14:16:31Z</time>
      </trkpt>
      <trkpt lat="50.32674397341907" lon="1.64106197655201">
        <ele>12.630000000000001</ele>
        <time>2018-07-02T14:16:40Z</time>
      </trkpt>
      <trkpt lat="50.325307985767722" lon="1.640678001567721">
        <ele>12.630000000000001</ele>
        <time>2018-07-02T14:16:46Z</time>
      </trkpt>
      <trkpt lat="50.323213012889028" lon="1.640211967751384">
        <ele>12.15</ele>
        <time>2018-07-02T14:16:56Z</time>
      </trkpt>
      <trkpt lat="50.320340031757951" lon="1.639803014695644">
        <ele>8.310000000000001</ele>
        <time>2018-07-02T14:17:10Z</time>
      </trkpt>
      <trkpt lat="50.318122012540698" lon="1.639520041644573">
        <ele>7.83</ele>
        <time>2018-07-02T14:17:23Z</time>
      </trkpt>
      <trkpt lat="50.316243963316083" lon="1.639307979494333">
        <ele>8.789999999999999</ele>
        <time>2018-07-02T14:17:34Z</time>
      </trkpt>
      <trkpt lat="50.314421989023685" lon="1.638769023120403">
        <ele>7.83</ele>
        <time>2018-07-02T14:17:45Z</time>
      </trkpt>
      <trkpt lat="50.31296999193728" lon="1.63826703093946">
        <ele>8.310000000000001</ele>
        <time>2018-07-02T14:17:55Z</time>
      </trkpt>
      <trkpt lat="50.311601981520653" lon="1.63814197294414">
        <ele>7.35</ele>
        <time>2018-07-02T14:18:05Z</time>
      </trkpt>
      <trkpt lat="50.310388030484319" lon="1.638152031227946">
        <ele>5.91</ele>
        <time>2018-07-02T14:18:13Z</time>
      </trkpt>
      <trkpt lat="50.310242017731071" lon="1.63807600736618">
        <ele>5.42</ele>
        <time>2018-07-02T14:18:14Z</time>
      </trkpt>
      <trkpt lat="50.310096004977822" lon="1.637998977676034">
        <ele>5.42</ele>
        <time>2018-07-02T14:18:15Z</time>
      </trkpt>
      <trkpt lat="50.309959966689348" lon="1.637895964086056">
        <ele>5.42</ele>
        <time>2018-07-02T14:18:16Z</time>
      </trkpt>
      <trkpt lat="50.309841027483344" lon="1.637746011838317">
        <ele>5.42</ele>
        <time>2018-07-02T14:18:17Z</time>
      </trkpt>
      <trkpt lat="50.309718986973166" lon="1.637592958286405">
        <ele>5.91</ele>
        <time>2018-07-02T14:18:18Z</time>
      </trkpt>
      <trkpt lat="50.309594012796879" lon="1.637434959411621">
        <ele>5.91</ele>
        <time>2018-07-02T14:18:19Z</time>
      </trkpt>
      <trkpt lat="50.309497034177184" lon="1.637253994122148">
        <ele>6.39</ele>
        <time>2018-07-02T14:18:20Z</time>
      </trkpt>
      <trkpt lat="50.309066036716104" lon="1.636281022801995">
        <ele>6.87</ele>
        <time>2018-07-02T14:18:26Z</time>
      </trkpt>
      <trkpt lat="50.309028988704085" lon="1.636146996170282">
        <ele>6.39</ele>
        <time>2018-07-02T14:18:27Z</time>
      </trkpt>
      <trkpt lat="50.308977020904422" lon="1.63588497787714">
        <ele>6.87</ele>
        <time>2018-07-02T14:18:29Z</time>
      </trkpt>
      <trkpt lat="50.308941984549165" lon="1.635778024792671">
        <ele>6.39</ele>
        <time>2018-07-02T14:18:30Z</time>
      </trkpt>
      <trkpt lat="50.308846011757851" lon="1.635729996487498">
        <ele>6.39</ele>
        <time>2018-07-02T14:18:31Z</time>
      </trkpt>
      <trkpt lat="50.308755990117788" lon="1.635718010365963">
        <ele>6.39</ele>
        <time>2018-07-02T14:18:32Z</time>
      </trkpt>
      <trkpt lat="50.30865297652781" lon="1.635697977617383">
        <ele>6.39</ele>
        <time>2018-07-02T14:18:33Z</time>
      </trkpt>
      <trkpt lat="50.308128017932177" lon="1.635737037286162">
        <ele>6.87</ele>
        <time>2018-07-02T14:18:37Z</time>
      </trkpt>
      <trkpt lat="50.307974964380264" lon="1.635778024792671">
        <ele>6.87</ele>
        <time>2018-07-02T14:18:38Z</time>
      </trkpt>
      <trkpt lat="50.306532019749284" lon="1.636391999199987">
        <ele>8.310000000000001</ele>
        <time>2018-07-02T14:18:46Z</time>
      </trkpt>
      <trkpt lat="50.305370958521962" lon="1.63743001408875">
        <ele>9.27</ele>
        <time>2018-07-02T14:18:52Z</time>
      </trkpt>
      <trkpt lat="50.304450960829854" lon="1.639060964807868">
        <ele>8.789999999999999</ele>
        <time>2018-07-02T14:18:58Z</time>
      </trkpt>
      <trkpt lat="50.303990039974451" lon="1.64052695967257">
        <ele>9.27</ele>
        <time>2018-07-02T14:19:04Z</time>
      </trkpt>
      <trkpt lat="50.303186969831586" lon="1.642796024680138">
        <ele>9.27</ele>
        <time>2018-07-02T14:19:13Z</time>
      </trkpt>
      <trkpt lat="50.302067985758185" lon="1.644524037837982">
        <ele>9.27</ele>
        <time>2018-07-02T14:19:20Z</time>
      </trkpt>
      <trkpt lat="50.300089018419385" lon="1.646939031779766">
        <ele>9.75</ele>
        <time>2018-07-02T14:19:31Z</time>
      </trkpt>
      <trkpt lat="50.298266960307956" lon="1.64866603910923">
        <ele>9.75</ele>
        <time>2018-07-02T14:19:41Z</time>
      </trkpt>
      <trkpt lat="50.295989010483027" lon="1.650045029819012">
        <ele>12.630000000000001</ele>
        <time>2018-07-02T14:19:52Z</time>
      </trkpt>
      <trkpt lat="50.295026013627648" lon="1.650532018393278">
        <ele>14.08</ele>
        <time>2018-07-02T14:19:58Z</time>
      </trkpt>
      <trkpt lat="50.29492300003767" lon="1.650552973151207">
        <ele>13.6</ele>
        <time>2018-07-02T14:19:59Z</time>
      </trkpt>
      <trkpt lat="50.294829038903117" lon="1.650561019778252">
        <ele>13.6</ele>
        <time>2018-07-02T14:20:00Z</time>
      </trkpt>
      <trkpt lat="50.294625023379922" lon="1.650491030886769">
        <ele>12.15</ele>
        <time>2018-07-02T14:20:02Z</time>
      </trkpt>
      <trkpt lat="50.29451597481966" lon="1.650575017556548">
        <ele>11.67</ele>
        <time>2018-07-02T14:20:03Z</time>
      </trkpt>
      <trkpt lat="50.294439028948545" lon="1.650690017268062">
        <ele>11.67</ele>
        <time>2018-07-02T14:20:04Z</time>
      </trkpt>
      <trkpt lat="50.294332997873425" lon="1.650751959532499">
        <ele>11.67</ele>
        <time>2018-07-02T14:20:05Z</time>
      </trkpt>
      <trkpt lat="50.294208023697138" lon="1.650824965909123">
        <ele>11.67</ele>
        <time>2018-07-02T14:20:06Z</time>
      </trkpt>
      <trkpt lat="50.29406201094389" lon="1.650839969515801">
        <ele>11.67</ele>
        <time>2018-07-02T14:20:07Z</time>
      </trkpt>
      <trkpt lat="50.292735993862152" lon="1.650973996147513">
        <ele>10.710000000000001</ele>
        <time>2018-07-02T14:20:14Z</time>
      </trkpt>
      <trkpt lat="50.291361026465893" lon="1.651171976700425">
        <ele>9.75</ele>
        <time>2018-07-02T14:20:21Z</time>
      </trkpt>
      <trkpt lat="50.288559040054679" lon="1.651833979412913">
        <ele>7.83</ele>
        <time>2018-07-02T14:20:35Z</time>
      </trkpt>
      <trkpt lat="50.285587990656495" lon="1.653056982904673">
        <ele>10.710000000000001</ele>
        <time>2018-07-02T14:20:50Z</time>
      </trkpt>
      <trkpt lat="50.284363981336355" lon="1.654198011383414">
        <ele>11.19</ele>
        <time>2018-07-02T14:20:57Z</time>
      </trkpt>
      <trkpt lat="50.282552987337112" lon="1.656830012798309">
        <ele>11.19</ele>
        <time>2018-07-02T14:21:09Z</time>
      </trkpt>
      <trkpt lat="50.281295031309128" lon="1.657923012971878">
        <ele>12.15</ele>
        <time>2018-07-02T14:21:16Z</time>
      </trkpt>
      <trkpt lat="50.278795966878533" lon="1.659374004229903">
        <ele>12.630000000000001</ele>
        <time>2018-07-02T14:21:29Z</time>
      </trkpt>
      <trkpt lat="50.277509009465575" lon="1.659600986167789">
        <ele>10.23</ele>
        <time>2018-07-02T14:21:36Z</time>
      </trkpt>
      <trkpt lat="50.276556992903352" lon="1.659528985619545">
        <ele>7.83</ele>
        <time>2018-07-02T14:21:43Z</time>
      </trkpt>
      <trkpt lat="50.276464037597179" lon="1.659481041133404">
        <ele>7.83</ele>
        <time>2018-07-02T14:21:44Z</time>
      </trkpt>
      <trkpt lat="50.276320958510041" lon="1.65927903726697">
        <ele>8.310000000000001</ele>
        <time>2018-07-02T14:21:46Z</time>
      </trkpt>
      <trkpt lat="50.276232026517391" lon="1.65927903726697">
        <ele>7.83</ele>
        <time>2018-07-02T14:21:47Z</time>
      </trkpt>
      <trkpt lat="50.276142004877329" lon="1.65927903726697">
        <ele>8.310000000000001</ele>
        <time>2018-07-02T14:21:48Z</time>
      </trkpt>
      <trkpt lat="50.276067992672324" lon="1.659383978694677">
        <ele>8.310000000000001</ele>
        <time>2018-07-02T14:21:49Z</time>
      </trkpt>
      <trkpt lat="50.276002027094364" lon="1.659478023648262">
        <ele>8.789999999999999</ele>
        <time>2018-07-02T14:21:50Z</time>
      </trkpt>
      <trkpt lat="50.27592902071774" lon="1.659555975347757">
        <ele>8.789999999999999</ele>
        <time>2018-07-02T14:21:51Z</time>
      </trkpt>
      <trkpt lat="50.275856014341116" lon="1.659628981724381">
        <ele>8.789999999999999</ele>
        <time>2018-07-02T14:21:52Z</time>
      </trkpt>
      <trkpt lat="50.275768004357815" lon="1.659663012251258">
        <ele>8.310000000000001</ele>
        <time>2018-07-02T14:21:53Z</time>
      </trkpt>
      <trkpt lat="50.275664990767837" lon="1.659659994766116">
        <ele>8.310000000000001</ele>
        <time>2018-07-02T14:21:54Z</time>
      </trkpt>
      <trkpt lat="50.275552002713084" lon="1.659654965624213">
        <ele>8.310000000000001</ele>
        <time>2018-07-02T14:21:55Z</time>
      </trkpt>
      <trkpt lat="50.275175990536809" lon="1.659618001431227">
        <ele>7.83</ele>
        <time>2018-07-02T14:21:58Z</time>
      </trkpt>
      <trkpt lat="50.27504900470376" lon="1.659541977569461">
        <ele>7.83</ele>
        <time>2018-07-02T14:21:59Z</time>
      </trkpt>
      <trkpt lat="50.274922018870711" lon="1.659452961757779">
        <ele>7.83</ele>
        <time>2018-07-02T14:22:00Z</time>
      </trkpt>
      <trkpt lat="50.273646041750908" lon="1.6583570279181">
        <ele>8.789999999999999</ele>
        <time>2018-07-02T14:22:09Z</time>
      </trkpt>
      <trkpt lat="50.27189296670258" lon="1.656510997563601">
        <ele>10.710000000000001</ele>
        <time>2018-07-02T14:22:20Z</time>
      </trkpt>
      <trkpt lat="50.270514981821179" lon="1.655398970469832">
        <ele>12.15</ele>
        <time>2018-07-02T14:22:28Z</time>
      </trkpt>
      <trkpt lat="50.268757967278361" lon="1.654804022982717">
        <ele>10.710000000000001</ele>
        <time>2018-07-02T14:22:37Z</time>
      </trkpt>
      <trkpt lat="50.267320973798633" lon="1.65506998077035">
        <ele>9.27</ele>
        <time>2018-07-02T14:22:44Z</time>
      </trkpt>
      <trkpt lat="50.265840981155634" lon="1.656127022579312">
        <ele>8.789999999999999</ele>
        <time>2018-07-02T14:22:52Z</time>
      </trkpt>
      <trkpt lat="50.264452015981078" lon="1.657980009913445">
        <ele>8.789999999999999</ele>
        <time>2018-07-02T14:23:01Z</time>
      </trkpt>
      <trkpt lat="50.263048969209194" lon="1.66069901548326">
        <ele>9.27</ele>
        <time>2018-07-02T14:23:12Z</time>
      </trkpt>
      <trkpt lat="50.262088989838958" lon="1.663519022986293">
        <ele>11.67</ele>
        <time>2018-07-02T14:23:22Z</time>
      </trkpt>
      <trkpt lat="50.261543998494744" lon="1.666007023304701">
        <ele>13.119999999999999</ele>
        <time>2018-07-02T14:23:31Z</time>
      </trkpt>
      <trkpt lat="50.261307964101434" lon="1.667074961587787">
        <ele>12.630000000000001</ele>
        <time>2018-07-02T14:23:37Z</time>
      </trkpt>
      <trkpt lat="50.261244010180235" lon="1.667203037068248">
        <ele>12.630000000000001</ele>
        <time>2018-07-02T14:23:38Z</time>
      </trkpt>
      <trkpt lat="50.261164968833327" lon="1.667281994596124">
        <ele>12.15</ele>
        <time>2018-07-02T14:23:39Z</time>
      </trkpt>
      <trkpt lat="50.26106002740562" lon="1.667322982102633">
        <ele>12.15</ele>
        <time>2018-07-02T14:23:40Z</time>
      </trkpt>
      <trkpt lat="50.260947039350867" lon="1.667366987094283">
        <ele>11.67</ele>
        <time>2018-07-02T14:23:41Z</time>
      </trkpt>
      <trkpt lat="50.260820975527167" lon="1.667416021227837">
        <ele>10.710000000000001</ele>
        <time>2018-07-02T14:23:42Z</time>
      </trkpt>
      <trkpt lat="50.260670017451048" lon="1.667419960722327">
        <ele>10.23</ele>
        <time>2018-07-02T14:23:43Z</time>
      </trkpt>
      <trkpt lat="50.259443996474147" lon="1.667041014879942">
        <ele>8.789999999999999</ele>
        <time>2018-07-02T14:23:50Z</time>
      </trkpt>
      <trkpt lat="50.257820002734661" lon="1.666044993326068">
        <ele>8.789999999999999</ele>
        <time>2018-07-02T14:23:58Z</time>
      </trkpt>
      <trkpt lat="50.256631029769778" lon="1.665260028094053">
        <ele>10.710000000000001</ele>
        <time>2018-07-02T14:24:05Z</time>
      </trkpt>
      <trkpt lat="50.255291014909744" lon="1.664045993238688">
        <ele>11.19</ele>
        <time>2018-07-02T14:24:14Z</time>
      </trkpt>
      <trkpt lat="50.254362970590591" lon="1.662271963432431">
        <ele>11.19</ele>
        <time>2018-07-02T14:24:22Z</time>
      </trkpt>
      <trkpt lat="50.252993032336235" lon="1.659205025061965">
        <ele>9.75</ele>
        <time>2018-07-02T14:24:35Z</time>
      </trkpt>
      <trkpt lat="50.251901960000396" lon="1.657655965536833">
        <ele>9.75</ele>
        <time>2018-07-02T14:24:43Z</time>
      </trkpt>
      <trkpt lat="50.250395983457565" lon="1.655977992340922">
        <ele>11.19</ele>
        <time>2018-07-02T14:24:53Z</time>
      </trkpt>
      <trkpt lat="50.249213967472315" lon="1.653739018365741">
        <ele>10.710000000000001</ele>
        <time>2018-07-02T14:25:03Z</time>
      </trkpt>
      <trkpt lat="50.247911000624299" lon="1.651753010228276">
        <ele>8.310000000000001</ele>
        <time>2018-07-02T14:25:13Z</time>
      </trkpt>
      <trkpt lat="50.246547013521194" lon="1.650924040004611">
        <ele>8.310000000000001</ele>
        <time>2018-07-02T14:25:21Z</time>
      </trkpt>
      <trkpt lat="50.243860026821494" lon="1.649759039282799">
        <ele>9.27</ele>
        <time>2018-07-02T14:25:36Z</time>
      </trkpt>
      <trkpt lat="50.241248980164528" lon="1.648264965042472">
        <ele>8.789999999999999</ele>
        <time>2018-07-02T14:25:51Z</time>
      </trkpt>
      <trkpt lat="50.238354960456491" lon="1.646384987980127">
        <ele>8.789999999999999</ele>
        <time>2018-07-02T14:26:08Z</time>
      </trkpt>
      <trkpt lat="50.236206008121371" lon="1.644781026989222">
        <ele>7.83</ele>
        <time>2018-07-02T14:26:21Z</time>
      </trkpt>
      <trkpt lat="50.234021013602614" lon="1.644160011783242">
        <ele>7.83</ele>
        <time>2018-07-02T14:26:33Z</time>
      </trkpt>
      <trkpt lat="50.231822021305561" lon="1.643291981890798">
        <ele>8.789999999999999</ele>
        <time>2018-07-02T14:26:45Z</time>
      </trkpt>
      <trkpt lat="50.230034999549389" lon="1.642145002260804">
        <ele>9.27</ele>
        <time>2018-07-02T14:26:55Z</time>
      </trkpt>
      <trkpt lat="50.228952979668975" lon="1.640819991007447">
        <ele>11.19</ele>
        <time>2018-07-02T14:27:02Z</time>
      </trkpt>
      <trkpt lat="50.227465024217963" lon="1.639370005577803">
        <ele>11.19</ele>
        <time>2018-07-02T14:27:11Z</time>
      </trkpt>
      <trkpt lat="50.22529000416398" lon="1.637338986620307">
        <ele>10.710000000000001</ele>
        <time>2018-07-02T14:27:24Z</time>
      </trkpt>
      <trkpt lat="50.224258024245501" lon="1.635830998420715">
        <ele>10.23</ele>
        <time>2018-07-02T14:27:32Z</time>
      </trkpt>
      <trkpt lat="50.223986031487584" lon="1.635210989043117">
        <ele>10.23</ele>
        <time>2018-07-02T14:27:37Z</time>
      </trkpt>
      <trkpt lat="50.223968010395765" lon="1.63515399210155">
        <ele>10.23</ele>
        <time>2018-07-02T14:27:38Z</time>
      </trkpt>
      <trkpt lat="50.223934985697269" lon="1.635052990168333">
        <ele>10.23</ele>
        <time>2018-07-02T14:27:39Z</time>
      </trkpt>
      <trkpt lat="50.223907995969057" lon="1.63485199213028">
        <ele>10.23</ele>
        <time>2018-07-02T14:27:42Z</time>
      </trkpt>
      <trkpt lat="50.223891986533999" lon="1.634731041267514">
        <ele>10.23</ele>
        <time>2018-07-02T14:27:43Z</time>
      </trkpt>
      <trkpt lat="50.223834989592433" lon="1.634650994092226">
        <ele>10.23</ele>
        <time>2018-07-02T14:27:44Z</time>
      </trkpt>
      <trkpt lat="50.223759971559048" lon="1.634577987715602">
        <ele>10.23</ele>
        <time>2018-07-02T14:27:45Z</time>
      </trkpt>
      <trkpt lat="50.223671961575747" lon="1.634564995765686">
        <ele>10.23</ele>
        <time>2018-07-02T14:27:46Z</time>
      </trkpt>
      <trkpt lat="50.223596021533012" lon="1.634599026292563">
        <ele>10.710000000000001</ele>
        <time>2018-07-02T14:27:47Z</time>
      </trkpt>
      <trkpt lat="50.223522009328008" lon="1.634673038497567">
        <ele>10.710000000000001</ele>
        <time>2018-07-02T14:27:48Z</time>
      </trkpt>
      <trkpt lat="50.22348303347826" lon="1.634773034602404">
        <ele>10.710000000000001</ele>
        <time>2018-07-02T14:27:49Z</time>
      </trkpt>
      <trkpt lat="50.223444979637861" lon="1.634912006556988">
        <ele>10.710000000000001</ele>
        <time>2018-07-02T14:27:50Z</time>
      </trkpt>
      <trkpt lat="50.223392006009817" lon="1.635062964633107">
        <ele>11.19</ele>
        <time>2018-07-02T14:27:51Z</time>
      </trkpt>
      <trkpt lat="50.222837962210178" lon="1.636327961459756">
        <ele>11.67</ele>
        <time>2018-07-02T14:27:58Z</time>
      </trkpt>
      <trkpt lat="50.221790978685021" lon="1.638433998450637">
        <ele>12.15</ele>
        <time>2018-07-02T14:28:07Z</time>
      </trkpt>
      <trkpt lat="50.219942014664412" lon="1.642149025574327">
        <ele>12.630000000000001</ele>
        <time>2018-07-02T14:28:21Z</time>
      </trkpt>
      <trkpt lat="50.218982035294175" lon="1.64469201117754">
        <ele>13.119999999999999</ele>
        <time>2018-07-02T14:28:31Z</time>
      </trkpt>
      <trkpt lat="50.217720977962017" lon="1.649386966601014">
        <ele>13.119999999999999</ele>
        <time>2018-07-02T14:28:48Z</time>
      </trkpt>
      <trkpt lat="50.216993009671569" lon="1.652113012969494">
        <ele>12.15</ele>
        <time>2018-07-02T14:28:59Z</time>
      </trkpt>
      <trkpt lat="50.216133026406169" lon="1.655339039862156">
        <ele>11.19</ele>
        <time>2018-07-02T14:29:14Z</time>
      </trkpt>
      <trkpt lat="50.215344959869981" lon="1.658298019319773">
        <ele>11.67</ele>
        <time>2018-07-02T14:29:26Z</time>
      </trkpt>
      <trkpt lat="50.21465202793479" lon="1.661276025697589">
        <ele>11.67</ele>
        <time>2018-07-02T14:29:36Z</time>
      </trkpt>
      <trkpt lat="50.213907966390252" lon="1.664010034874082">
        <ele>12.15</ele>
        <time>2018-07-02T14:29:44Z</time>
      </trkpt>
      <trkpt lat="50.212261006236076" lon="1.669091982766986">
        <ele>11.19</ele>
        <time>2018-07-02T14:30:01Z</time>
      </trkpt>
      <trkpt lat="50.210664002224803" lon="1.673974022269249">
        <ele>10.710000000000001</ele>
        <time>2018-07-02T14:30:18Z</time>
      </trkpt>
      <trkpt lat="50.209573013707995" lon="1.676983963698149">
        <ele>9.75</ele>
        <time>2018-07-02T14:30:29Z</time>
      </trkpt>
      <trkpt lat="50.208262000232935" lon="1.679257974028587">
        <ele>9.27</ele>
        <time>2018-07-02T14:30:39Z</time>
      </trkpt>
      <trkpt lat="50.206204997375607" lon="1.681724013760686">
        <ele>10.710000000000001</ele>
        <time>2018-07-02T14:30:52Z</time>
      </trkpt>
      <trkpt lat="50.203719008713961" lon="1.684335982427001">
        <ele>10.710000000000001</ele>
        <time>2018-07-02T14:31:07Z</time>
      </trkpt>
      <trkpt lat="50.200246972963214" lon="1.687454972416163">
        <ele>11.67</ele>
        <time>2018-07-02T14:31:27Z</time>
      </trkpt>
      <trkpt lat="50.19890503026545" lon="1.689309971407056">
        <ele>10.710000000000001</ele>
        <time>2018-07-02T14:31:36Z</time>
      </trkpt>
      <trkpt lat="50.197890987619758" lon="1.691623963415623">
        <ele>10.23</ele>
        <time>2018-07-02T14:31:45Z</time>
      </trkpt>
      <trkpt lat="50.196371013298631" lon="1.695253998041153">
        <ele>8.310000000000001</ele>
        <time>2018-07-02T14:31:59Z</time>
      </trkpt>
      <trkpt lat="50.194909041747451" lon="1.697370009496808">
        <ele>8.789999999999999</ele>
        <time>2018-07-02T14:32:09Z</time>
      </trkpt>
      <trkpt lat="50.193013977259398" lon="1.699088970199227">
        <ele>10.23</ele>
        <time>2018-07-02T14:32:20Z</time>
      </trkpt>
      <trkpt lat="50.191661976277828" lon="1.699614012613893">
        <ele>9.75</ele>
        <time>2018-07-02T14:32:27Z</time>
      </trkpt>
      <trkpt lat="50.18985802307725" lon="1.699490966275334">
        <ele>10.23</ele>
        <time>2018-07-02T14:32:36Z</time>
      </trkpt>
      <trkpt lat="50.187875032424927" lon="1.699273958802223">
        <ele>5.91</ele>
        <time>2018-07-02T14:32:46Z</time>
      </trkpt>
      <trkpt lat="50.185895981267095" lon="1.698853019624949">
        <ele>3.5</ele>
        <time>2018-07-02T14:32:56Z</time>
      </trkpt>
      <trkpt lat="50.184459993615746" lon="1.697731018066406">
        <ele>4.94</ele>
        <time>2018-07-02T14:33:04Z</time>
      </trkpt>
      <trkpt lat="50.182809010148048" lon="1.696100989356637">
        <ele>9.27</ele>
        <time>2018-07-02T14:33:14Z</time>
      </trkpt>
      <trkpt lat="50.181918013840914" lon="1.695028021931648">
        <ele>8.789999999999999</ele>
        <time>2018-07-02T14:33:22Z</time>
      </trkpt>
      <trkpt lat="50.181790022179484" lon="1.694938000291586">
        <ele>9.27</ele>
        <time>2018-07-02T14:33:23Z</time>
      </trkpt>
      <trkpt lat="50.181663036346436" lon="1.694848984479904">
        <ele>9.27</ele>
        <time>2018-07-02T14:33:24Z</time>
      </trkpt>
      <trkpt lat="50.181549964472651" lon="1.694705989211798">
        <ele>9.75</ele>
        <time>2018-07-02T14:33:25Z</time>
      </trkpt>
      <trkpt lat="50.181436976417899" lon="1.694551007822156">
        <ele>9.27</ele>
        <time>2018-07-02T14:33:26Z</time>
      </trkpt>
      <trkpt lat="50.181320970878005" lon="1.694372976198793">
        <ele>9.27</ele>
        <time>2018-07-02T14:33:27Z</time>
      </trkpt>
      <trkpt lat="50.180298965424299" lon="1.692641023546457">
        <ele>9.27</ele>
        <time>2018-07-02T14:33:35Z</time>
      </trkpt>
      <trkpt lat="50.178594002500176" lon="1.690486036241055">
        <ele>10.23</ele>
        <time>2018-07-02T14:33:46Z</time>
      </trkpt>
      <trkpt lat="50.176520990207791" lon="1.687880018725991">
        <ele>9.75</ele>
        <time>2018-07-02T14:33:59Z</time>
      </trkpt>
      <trkpt lat="50.175244007259607" lon="1.68581304140389">
        <ele>10.710000000000001</ele>
        <time>2018-07-02T14:34:08Z</time>
      </trkpt>
      <trkpt lat="50.175169995054603" lon="1.685526967048645">
        <ele>10.710000000000001</ele>
        <time>2018-07-02T14:34:09Z</time>
      </trkpt>
      <trkpt lat="50.175103023648262" lon="1.68523502536118">
        <ele>10.710000000000001</ele>
        <time>2018-07-02T14:34:10Z</time>
      </trkpt>
      <trkpt lat="50.175042003393173" lon="1.684937970712781">
        <ele>10.23</ele>
        <time>2018-07-02T14:34:11Z</time>
      </trkpt>
      <trkpt lat="50.174995986744761" lon="1.68463496491313">
        <ele>10.23</ele>
        <time>2018-07-02T14:34:12Z</time>
      </trkpt>
      <trkpt lat="50.174963967874646" lon="1.684325002133846">
        <ele>9.75</ele>
        <time>2018-07-02T14:34:13Z</time>
      </trkpt>
      <trkpt lat="50.1745830103755" lon="1.680634031072259">
        <ele>8.789999999999999</ele>
        <time>2018-07-02T14:34:25Z</time>
      </trkpt>
      <trkpt lat="50.174041036516428" lon="1.675404980778694">
        <ele>8.310000000000001</ele>
        <time>2018-07-02T14:34:42Z</time>
      </trkpt>
      <trkpt lat="50.173533009365201" lon="1.670497041195631">
        <ele>8.789999999999999</ele>
        <time>2018-07-02T14:34:58Z</time>
      </trkpt>
      <trkpt lat="50.17361800186336" lon="1.667396994307637">
        <ele>7.83</ele>
        <time>2018-07-02T14:35:08Z</time>
      </trkpt>
      <trkpt lat="50.173823023214936" lon="1.662731962278485">
        <ele>6.87</ele>
        <time>2018-07-02T14:35:23Z</time>
      </trkpt>
      <trkpt lat="50.173877002671361" lon="1.659825034439564">
        <ele>6.39</ele>
        <time>2018-07-02T14:35:33Z</time>
      </trkpt>
      <trkpt lat="50.17346603795886" lon="1.658369014039636">
        <ele>7.83</ele>
        <time>2018-07-02T14:35:40Z</time>
      </trkpt>
      <trkpt lat="50.172383012250066" lon="1.656121993437409">
        <ele>9.75</ele>
        <time>2018-07-02T14:35:52Z</time>
      </trkpt>
      <trkpt lat="50.172016974538565" lon="1.654308987781405">
        <ele>7.83</ele>
        <time>2018-07-02T14:35:59Z</time>
      </trkpt>
      <trkpt lat="50.172103978693485" lon="1.652530012652278">
        <ele>6.87</ele>
        <time>2018-07-02T14:36:06Z</time>
      </trkpt>
      <trkpt lat="50.172261977568269" lon="1.651274990290403">
        <ele>6.87</ele>
        <time>2018-07-02T14:36:12Z</time>
      </trkpt>
      <trkpt lat="50.17228402197361" lon="1.651105005294085">
        <ele>6.87</ele>
        <time>2018-07-02T14:36:13Z</time>
      </trkpt>
      <trkpt lat="50.172332972288132" lon="1.650954969227314">
        <ele>6.87</ele>
        <time>2018-07-02T14:36:14Z</time>
      </trkpt>
      <trkpt lat="50.172646036371589" lon="1.650152988731861">
        <ele>7.35</ele>
        <time>2018-07-02T14:36:22Z</time>
      </trkpt>
      <trkpt lat="50.172679983079433" lon="1.650106972083449">
        <ele>7.35</ele>
        <time>2018-07-02T14:36:23Z</time>
      </trkpt>
      <trkpt lat="50.172736980021" lon="1.650031032040715">
        <ele>7.35</ele>
        <time>2018-07-02T14:36:24Z</time>
      </trkpt>
      <trkpt lat="50.172819038853049" lon="1.649981997907162">
        <ele>7.83</ele>
        <time>2018-07-02T14:36:26Z</time>
      </trkpt>
      <trkpt lat="50.172862038016319" lon="1.649928018450737">
        <ele>7.83</ele>
        <time>2018-07-02T14:36:27Z</time>
      </trkpt>
      <trkpt lat="50.172900008037686" lon="1.649843025952578">
        <ele>7.83</ele>
        <time>2018-07-02T14:36:28Z</time>
      </trkpt>
      <trkpt lat="50.17295197583735" lon="1.649730037897825">
        <ele>8.310000000000001</ele>
        <time>2018-07-02T14:36:29Z</time>
      </trkpt>
      <trkpt lat="50.17295197583735" lon="1.649657031521201">
        <ele>8.310000000000001</ele>
        <time>2018-07-02T14:36:30Z</time>
      </trkpt>
      <trkpt lat="50.17295197583735" lon="1.649543037638068">
        <ele>8.310000000000001</ele>
        <time>2018-07-02T14:36:31Z</time>
      </trkpt>
      <trkpt lat="50.172920040786266" lon="1.649428037926555">
        <ele>8.789999999999999</ele>
        <time>2018-07-02T14:36:32Z</time>
      </trkpt>
      <trkpt lat="50.172877963632345" lon="1.649312032386661">
        <ele>8.789999999999999</ele>
        <time>2018-07-02T14:36:33Z</time>
      </trkpt>
      <trkpt lat="50.172847034409642" lon="1.64918496273458">
        <ele>8.789999999999999</ele>
        <time>2018-07-02T14:36:34Z</time>
      </trkpt>
      <trkpt lat="50.172819960862398" lon="1.64905596524477">
        <ele>8.789999999999999</ele>
        <time>2018-07-02T14:36:35Z</time>
      </trkpt>
      <trkpt lat="50.17265098169446" lon="1.647953996434808">
        <ele>11.19</ele>
        <time>2018-07-02T14:36:42Z</time>
      </trkpt>
      <trkpt lat="50.17265098169446" lon="1.647760961204767">
        <ele>11.67</ele>
        <time>2018-07-02T14:36:43Z</time>
      </trkpt>
      <trkpt lat="50.172828007489443" lon="1.645620977506042">
        <ele>20.32</ele>
        <time>2018-07-02T14:36:53Z</time>
      </trkpt>
      <trkpt lat="50.172961028292775" lon="1.642675995826721">
        <ele>28.5</ele>
        <time>2018-07-02T14:37:05Z</time>
      </trkpt>
      <trkpt lat="50.173006039112806" lon="1.6399020049721">
        <ele>31.859999999999999</ele>
        <time>2018-07-02T14:37:16Z</time>
      </trkpt>
      <trkpt lat="50.173033028841019" lon="1.637229016050696">
        <ele>31.379999999999999</ele>
        <time>2018-07-02T14:37:29Z</time>
      </trkpt>
      <trkpt lat="50.17303504049778" lon="1.636937996372581">
        <ele>31.379999999999999</ele>
        <time>2018-07-02T14:37:31Z</time>
      </trkpt>
      <trkpt lat="50.173036968335509" lon="1.636758036911488">
        <ele>31.379999999999999</ele>
        <time>2018-07-02T14:37:33Z</time>
      </trkpt>
      <trkpt lat="50.173036968335509" lon="1.636700034141541">
        <ele>31.379999999999999</ele>
        <time>2018-07-02T14:37:34Z</time>
      </trkpt>
      <trkpt lat="50.173165965825319" lon="1.636598026379943">
        <ele>31.379999999999999</ele>
        <time>2018-07-02T14:37:35Z</time>
      </trkpt>
      <trkpt lat="50.173202008008957" lon="1.636482020840049">
        <ele>30.899999999999999</ele>
        <time>2018-07-02T14:37:38Z</time>
      </trkpt>
      <trkpt lat="50.173225980252028" lon="1.636402979493141">
        <ele>31.379999999999999</ele>
        <time>2018-07-02T14:37:39Z</time>
      </trkpt>
      <trkpt lat="50.173251964151859" lon="1.636318992823362">
        <ele>31.379999999999999</ele>
        <time>2018-07-02T14:37:40Z</time>
      </trkpt>
      <trkpt lat="50.173244001343846" lon="1.63622603751719">
        <ele>31.379999999999999</ele>
        <time>2018-07-02T14:37:41Z</time>
      </trkpt>
      <trkpt lat="50.173235032707453" lon="1.636125035583973">
        <ele>31.379999999999999</ele>
        <time>2018-07-02T14:37:42Z</time>
      </trkpt>
      <trkpt lat="50.173199996352196" lon="1.636055968701839">
        <ele>31.379999999999999</ele>
        <time>2018-07-02T14:37:43Z</time>
      </trkpt>
      <trkpt lat="50.173156997188926" lon="1.636019004508853">
        <ele>31.379999999999999</ele>
        <time>2018-07-02T14:37:44Z</time>
      </trkpt>
      <trkpt lat="50.173115003854036" lon="1.635982040315867">
        <ele>31.379999999999999</ele>
        <time>2018-07-02T14:37:45Z</time>
      </trkpt>
      <trkpt lat="50.173057001084089" lon="1.635872991755605">
        <ele>31.379999999999999</ele>
        <time>2018-07-02T14:37:46Z</time>
      </trkpt>
      <trkpt lat="50.173054989427328" lon="1.635777018964291">
        <ele>31.379999999999999</ele>
        <time>2018-07-02T14:37:47Z</time>
      </trkpt>
      <trkpt lat="50.173050966113806" lon="1.635657995939255">
        <ele>31.379999999999999</ele>
        <time>2018-07-02T14:37:48Z</time>
      </trkpt>
      <trkpt lat="50.173047026619315" lon="1.635522041469812">
        <ele>31.379999999999999</ele>
        <time>2018-07-02T14:37:49Z</time>
      </trkpt>
      <trkpt lat="50.173043003305793" lon="1.635362030938268">
        <ele>31.379999999999999</ele>
        <time>2018-07-02T14:37:50Z</time>
      </trkpt>
      <trkpt lat="50.17303797416389" lon="1.635176036506891">
        <ele>31.379999999999999</ele>
        <time>2018-07-02T14:37:51Z</time>
      </trkpt>
      <trkpt lat="50.173068987205625" lon="1.633223975077272">
        <ele>31.859999999999999</ele>
        <time>2018-07-02T14:37:59Z</time>
      </trkpt>
      <trkpt lat="50.173108968883753" lon="1.629549013450742">
        <ele>33.780000000000001</ele>
        <time>2018-07-02T14:38:12Z</time>
      </trkpt>
      <trkpt lat="50.17323100939393" lon="1.626940984278917">
        <ele>34.259999999999998</ele>
        <time>2018-07-02T14:38:22Z</time>
      </trkpt>
      <trkpt lat="50.173580031841993" lon="1.623896006494761">
        <ele>31.379999999999999</ele>
        <time>2018-07-02T14:38:32Z</time>
      </trkpt>
      <trkpt lat="50.174180008471012" lon="1.620747009292245">
        <ele>25.609999999999999</ele>
        <time>2018-07-02T14:38:42Z</time>
      </trkpt>
      <trkpt lat="50.174918035045266" lon="1.618092963472009">
        <ele>23.690000000000001</ele>
        <time>2018-07-02T14:38:50Z</time>
      </trkpt>
      <trkpt lat="50.17542296089232" lon="1.616507023572922">
        <ele>23.210000000000001</ele>
        <time>2018-07-02T14:38:57Z</time>
      </trkpt>
      <trkpt lat="50.17600198276341" lon="1.614780016243458">
        <ele>22.25</ele>
        <time>2018-07-02T14:39:08Z</time>
      </trkpt>
      <trkpt lat="50.176371959969401" lon="1.613657008856535">
        <ele>20.809999999999999</ele>
        <time>2018-07-02T14:39:16Z</time>
      </trkpt>
      <trkpt lat="50.176491988822818" lon="1.613531028851867">
        <ele>20.809999999999999</ele>
        <time>2018-07-02T14:39:17Z</time>
      </trkpt>
      <trkpt lat="50.176578992977738" lon="1.61347302608192">
        <ele>20.809999999999999</ele>
        <time>2018-07-02T14:39:19Z</time>
      </trkpt>
      <trkpt lat="50.176635989919305" lon="1.613337993621826">
        <ele>20.809999999999999</ele>
        <time>2018-07-02T14:39:20Z</time>
      </trkpt>
      <trkpt lat="50.176643030717969" lon="1.613294994458556">
        <ele>20.809999999999999</ele>
        <time>2018-07-02T14:39:21Z</time>
      </trkpt>
      <trkpt lat="50.176596008241177" lon="1.613026019185782">
        <ele>20.32</ele>
        <time>2018-07-02T14:39:22Z</time>
      </trkpt>
      <trkpt lat="50.176635989919305" lon="1.612905990332365">
        <ele>20.32</ele>
        <time>2018-07-02T14:39:23Z</time>
      </trkpt>
      <trkpt lat="50.176682006567717" lon="1.612768024206162">
        <ele>20.32</ele>
        <time>2018-07-02T14:39:24Z</time>
      </trkpt>
      <trkpt lat="50.176726011559367" lon="1.612633997574449">
        <ele>20.32</ele>
        <time>2018-07-02T14:39:25Z</time>
      </trkpt>
      <trkpt lat="50.177268991246819" lon="1.610997011885047">
        <ele>18.879999999999999</ele>
        <time>2018-07-02T14:39:34Z</time>
      </trkpt>
      <trkpt lat="50.177872991189361" lon="1.609174031764269">
        <ele>18.879999999999999</ele>
        <time>2018-07-02T14:39:40Z</time>
      </trkpt>
      <trkpt lat="50.178615041077137" lon="1.606975961476564">
        <ele>19.84</ele>
        <time>2018-07-02T14:39:48Z</time>
      </trkpt>
      <trkpt lat="50.180211961269379" lon="1.602253010496497">
        <ele>19.359999999999999</ele>
        <time>2018-07-02T14:40:06Z</time>
      </trkpt>
      <trkpt lat="50.181654989719391" lon="1.597792999818921">
        <ele>17.440000000000001</ele>
        <time>2018-07-02T14:40:23Z</time>
      </trkpt>
      <trkpt lat="50.181827992200851" lon="1.59710300154984">
        <ele>17.440000000000001</ele>
        <time>2018-07-02T14:40:26Z</time>
      </trkpt>
      <trkpt lat="50.181900998577476" lon="1.596928993239999">
        <ele>16.960000000000001</ele>
        <time>2018-07-02T14:40:27Z</time>
      </trkpt>
      <trkpt lat="50.181965036317706" lon="1.596777029335499">
        <ele>17.440000000000001</ele>
        <time>2018-07-02T14:40:28Z</time>
      </trkpt>
      <trkpt lat="50.182019015774131" lon="1.596648031845689">
        <ele>16.960000000000001</ele>
        <time>2018-07-02T14:40:29Z</time>
      </trkpt>
      <trkpt lat="50.182064026594162" lon="1.596542000770569">
        <ele>16.960000000000001</ele>
        <time>2018-07-02T14:40:30Z</time>
      </trkpt>
      <trkpt lat="50.182307017967105" lon="1.596579970791936">
        <ele>16.960000000000001</ele>
        <time>2018-07-02T14:40:31Z</time>
      </trkpt>
      <trkpt lat="50.182307017967105" lon="1.596579970791936">
        <ele>16.960000000000001</ele>
        <time>2018-07-02T14:40:32Z</time>
      </trkpt>
      <trkpt lat="50.182388992980123" lon="1.596538983285427">
        <ele>17.440000000000001</ele>
        <time>2018-07-02T14:40:33Z</time>
      </trkpt>
      <trkpt lat="50.182456970214844" lon="1.596408979967237">
        <ele>17.440000000000001</ele>
        <time>2018-07-02T14:40:34Z</time>
      </trkpt>
      <trkpt lat="50.182499969378114" lon="1.596272019669414">
        <ele>17.440000000000001</ele>
        <time>2018-07-02T14:40:35Z</time>
      </trkpt>
      <trkpt lat="50.182499969378114" lon="1.596137993037701">
        <ele>17.440000000000001</ele>
        <time>2018-07-02T14:40:36Z</time>
      </trkpt>
      <trkpt lat="50.182480020448565" lon="1.596002038568258">
        <ele>17.440000000000001</ele>
        <time>2018-07-02T14:40:37Z</time>
      </trkpt>
      <trkpt lat="50.182426040992141" lon="1.595893995836377">
        <ele>17.440000000000001</ele>
        <time>2018-07-02T14:40:38Z</time>
      </trkpt>
      <trkpt lat="50.18236099742353" lon="1.595841022208333">
        <ele>17.440000000000001</ele>
        <time>2018-07-02T14:40:39Z</time>
      </trkpt>
      <trkpt lat="50.182281034067273" lon="1.595795005559921">
        <ele>17.440000000000001</ele>
        <time>2018-07-02T14:40:40Z</time>
      </trkpt>
      <trkpt lat="50.182200986891985" lon="1.595786036923528">
        <ele>17.440000000000001</ele>
        <time>2018-07-02T14:40:41Z</time>
      </trkpt>
      <trkpt lat="50.182113982737064" lon="1.595786036923528">
        <ele>17.440000000000001</ele>
        <time>2018-07-02T14:40:42Z</time>
      </trkpt>
      <trkpt lat="50.182027984410524" lon="1.595685034990311">
        <ele>17.440000000000001</ele>
        <time>2018-07-02T14:40:43Z</time>
      </trkpt>
      <trkpt lat="50.181967969983816" lon="1.595587972551584">
        <ele>17.440000000000001</ele>
        <time>2018-07-02T14:40:44Z</time>
      </trkpt>
      <trkpt lat="50.181920025497675" lon="1.595456041395664">
        <ele>17.440000000000001</ele>
        <time>2018-07-02T14:40:45Z</time>
      </trkpt>
      <trkpt lat="50.181899992749095" lon="1.595303993672133">
        <ele>17.920000000000002</ele>
        <time>2018-07-02T14:40:46Z</time>
      </trkpt>
      <trkpt lat="50.181899992749095" lon="1.595117999240756">
        <ele>17.440000000000001</ele>
        <time>2018-07-02T14:40:47Z</time>
      </trkpt>
      <trkpt lat="50.181899992749095" lon="1.594914989545941">
        <ele>17.440000000000001</ele>
        <time>2018-07-02T14:40:48Z</time>
      </trkpt>
      <trkpt lat="50.181904016062617" lon="1.594692030921578">
        <ele>17.440000000000001</ele>
        <time>2018-07-02T14:40:49Z</time>
      </trkpt>
      <trkpt lat="50.181798990815878" lon="1.592880031093955">
        <ele>15.039999999999999</ele>
        <time>2018-07-02T14:40:56Z</time>
      </trkpt>
      <trkpt lat="50.181077979505062" lon="1.589823989197612">
        <ele>10.23</ele>
        <time>2018-07-02T14:41:07Z</time>
      </trkpt>
      <trkpt lat="50.180268036201596" lon="1.588127994909883">
        <ele>6.39</ele>
        <time>2018-07-02T14:41:15Z</time>
      </trkpt>
      <trkpt lat="50.179241001605988" lon="1.586433006450534">
        <ele>7.35</ele>
        <time>2018-07-02T14:41:24Z</time>
      </trkpt>
      <trkpt lat="50.178266018629074" lon="1.583826988935471">
        <ele>8.310000000000001</ele>
        <time>2018-07-02T14:41:34Z</time>
      </trkpt>
      <trkpt lat="50.177384996786714" lon="1.581619028002024">
        <ele>8.789999999999999</ele>
        <time>2018-07-02T14:41:43Z</time>
      </trkpt>
      <trkpt lat="50.1768590323627" lon="1.580496020615101">
        <ele>8.789999999999999</ele>
        <time>2018-07-02T14:41:50Z</time>
      </trkpt>
      <trkpt lat="50.176636995747685" lon="1.580024035647512">
        <ele>9.75</ele>
        <time>2018-07-02T14:41:54Z</time>
      </trkpt>
      <trkpt lat="50.176578992977738" lon="1.579901995137334">
        <ele>9.75</ele>
        <time>2018-07-02T14:41:55Z</time>
      </trkpt>
      <trkpt lat="50.175950014963746" lon="1.578577989712358">
        <ele>11.19</ele>
        <time>2018-07-02T14:42:06Z</time>
      </trkpt>
      <trkpt lat="50.175322964787483" lon="1.577505022287369">
        <ele>12.15</ele>
        <time>2018-07-02T14:42:16Z</time>
      </trkpt>
      <trkpt lat="50.175252975896001" lon="1.577412988990545">
        <ele>12.15</ele>
        <time>2018-07-02T14:42:17Z</time>
      </trkpt>
      <trkpt lat="50.175182987004519" lon="1.577321039512754">
        <ele>12.15</ele>
        <time>2018-07-02T14:42:18Z</time>
      </trkpt>
      <trkpt lat="50.174212027341127" lon="1.576164001598954">
        <ele>13.6</ele>
        <time>2018-07-02T14:42:31Z</time>
      </trkpt>
      <trkpt lat="50.173310972750187" lon="1.575076030567288">
        <ele>17.920000000000002</ele>
        <time>2018-07-02T14:42:41Z</time>
      </trkpt>
      <trkpt lat="50.172902019694448" lon="1.574507988989353">
        <ele>19.359999999999999</ele>
        <time>2018-07-02T14:42:46Z</time>
      </trkpt>
      <trkpt lat="50.172825995832682" lon="1.574402041733265">
        <ele>18.879999999999999</ele>
        <time>2018-07-02T14:42:47Z</time>
      </trkpt>
      <trkpt lat="50.172750977799296" lon="1.574298022314906">
        <ele>18.879999999999999</ele>
        <time>2018-07-02T14:42:48Z</time>
      </trkpt>
      <trkpt lat="50.172676965594292" lon="1.574196014553309">
        <ele>18.399999999999999</ele>
        <time>2018-07-02T14:42:49Z</time>
      </trkpt>
      <trkpt lat="50.172587027773261" lon="1.57407003454864">
        <ele>17.920000000000002</ele>
        <time>2018-07-02T14:42:50Z</time>
      </trkpt>
      <trkpt lat="50.171826034784317" lon="1.572897993028164">
        <ele>19.359999999999999</ele>
        <time>2018-07-02T14:43:01Z</time>
      </trkpt>
      <trkpt lat="50.171755962073803" lon="1.572786010801792">
        <ele>18.879999999999999</ele>
        <time>2018-07-02T14:43:02Z</time>
      </trkpt>
      <trkpt lat="50.170995974913239" lon="1.571519002318382">
        <ele>14.56</ele>
        <time>2018-07-02T14:43:12Z</time>
      </trkpt>
      <trkpt lat="50.169957038015127" lon="1.570064993575215">
        <ele>16</ele>
        <time>2018-07-02T14:43:24Z</time>
      </trkpt>
      <trkpt lat="50.169579014182091" lon="1.569647993892431">
        <ele>16</ele>
        <time>2018-07-02T14:43:28Z</time>
      </trkpt>
      <trkpt lat="50.169495027512312" lon="1.569530982524157">
        <ele>16</ele>
        <time>2018-07-02T14:43:29Z</time>
      </trkpt>
      <trkpt lat="50.169413974508643" lon="1.569410031661391">
        <ele>15.52</ele>
        <time>2018-07-02T14:43:30Z</time>
      </trkpt>
      <trkpt lat="50.168583998456597" lon="1.568136988207698">
        <ele>18.399999999999999</ele>
        <time>2018-07-02T14:43:40Z</time>
      </trkpt>
      <trkpt lat="50.167741030454636" lon="1.5668969694525">
        <ele>16</ele>
        <time>2018-07-02T14:43:50Z</time>
      </trkpt>
      <trkpt lat="50.16650503501296" lon="1.565006012097001">
        <ele>14.08</ele>
        <time>2018-07-02T14:44:05Z</time>
      </trkpt>
      <trkpt lat="50.165200978517532" lon="1.562949009239674">
        <ele>14.08</ele>
        <time>2018-07-02T14:44:21Z</time>
      </trkpt>
      <trkpt lat="50.164234964177012" lon="1.561358962208033">
        <ele>14.56</ele>
        <time>2018-07-02T14:44:33Z</time>
      </trkpt>
      <trkpt lat="50.163199966773391" lon="1.559661040082574">
        <ele>13.119999999999999</ele>
        <time>2018-07-02T14:44:46Z</time>
      </trkpt>
      <trkpt lat="50.161894988268614" lon="1.557589033618569">
        <ele>10.710000000000001</ele>
        <time>2018-07-02T14:45:02Z</time>
      </trkpt>
      <trkpt lat="50.161181017756462" lon="1.55641196295619">
        <ele>9.75</ele>
        <time>2018-07-02T14:45:11Z</time>
      </trkpt>
      <trkpt lat="50.161084961146116" lon="1.55632495880127">
        <ele>9.75</ele>
        <time>2018-07-02T14:45:12Z</time>
      </trkpt>
      <trkpt lat="50.160980019718409" lon="1.556268967688084">
        <ele>9.75</ele>
        <time>2018-07-02T14:45:13Z</time>
      </trkpt>
      <trkpt lat="50.160867031663656" lon="1.556233009323478">
        <ele>9.75</ele>
        <time>2018-07-02T14:45:14Z</time>
      </trkpt>
      <trkpt lat="50.160753959789872" lon="1.55619696713984">
        <ele>9.75</ele>
        <time>2018-07-02T14:45:15Z</time>
      </trkpt>
      <trkpt lat="50.160638960078359" lon="1.556160002946854">
        <ele>9.75</ele>
        <time>2018-07-02T14:45:16Z</time>
      </trkpt>
      <trkpt lat="50.159272961318493" lon="1.555734034627676">
        <ele>9.27</ele>
        <time>2018-07-02T14:45:28Z</time>
      </trkpt>
      <trkpt lat="50.159159973263741" lon="1.555683994665742">
        <ele>9.75</ele>
        <time>2018-07-02T14:45:29Z</time>
      </trkpt>
      <trkpt lat="50.159077998250723" lon="1.55557100661099">
        <ele>10.23</ele>
        <time>2018-07-02T14:45:30Z</time>
      </trkpt>
      <trkpt lat="50.158993005752563" lon="1.555449971929193">
        <ele>10.23</ele>
        <time>2018-07-02T14:45:31Z</time>
      </trkpt>
      <trkpt lat="50.158909019082785" lon="1.555329021066427">
        <ele>10.23</ele>
        <time>2018-07-02T14:45:32Z</time>
      </trkpt>
      <trkpt lat="50.158232012763619" lon="1.554316990077496">
        <ele>9.27</ele>
        <time>2018-07-02T14:45:40Z</time>
      </trkpt>
      <trkpt lat="50.158159006386995" lon="1.554177012294531">
        <ele>8.789999999999999</ele>
        <time>2018-07-02T14:45:41Z</time>
      </trkpt>
      <trkpt lat="50.158081976696849" lon="1.554028987884522">
        <ele>9.27</ele>
        <time>2018-07-02T14:45:42Z</time>
      </trkpt>
      <trkpt lat="50.158006036654115" lon="1.553893033415079">
        <ele>9.75</ele>
        <time>2018-07-02T14:45:43Z</time>
      </trkpt>
      <trkpt lat="50.157939987257123" lon="1.553744003176689">
        <ele>10.23</ele>
        <time>2018-07-02T14:45:44Z</time>
      </trkpt>
      <trkpt lat="50.157879972830415" lon="1.553584998473525">
        <ele>10.710000000000001</ele>
        <time>2018-07-02T14:45:45Z</time>
      </trkpt>
      <trkpt lat="50.157369012013078" lon="1.551733016967773">
        <ele>10.23</ele>
        <time>2018-07-02T14:45:56Z</time>
      </trkpt>
      <trkpt lat="50.15726700425148" lon="1.551412995904684">
        <ele>9.27</ele>
        <time>2018-07-02T14:45:58Z</time>
      </trkpt>
      <trkpt lat="50.157188968732953" lon="1.551287015900016">
        <ele>9.27</ele>
        <time>2018-07-02T14:45:59Z</time>
      </trkpt>
      <trkpt lat="50.157101964578032" lon="1.551191965118051">
        <ele>8.789999999999999</ele>
        <time>2018-07-02T14:46:00Z</time>
      </trkpt>
      <trkpt lat="50.157003980129957" lon="1.551121976226568">
        <ele>8.789999999999999</ele>
        <time>2018-07-02T14:46:01Z</time>
      </trkpt>
      <trkpt lat="50.156891997903585" lon="1.551076965406537">
        <ele>8.789999999999999</ele>
        <time>2018-07-02T14:46:02Z</time>
      </trkpt>
      <trkpt lat="50.156782027333975" lon="1.551032960414887">
        <ele>9.27</ele>
        <time>2018-07-02T14:46:03Z</time>
      </trkpt>
      <trkpt lat="50.156220020726323" lon="1.550869010388851">
        <ele>10.23</ele>
        <time>2018-07-02T14:46:08Z</time>
      </trkpt>
      <trkpt lat="50.154824014753103" lon="1.550911003723741">
        <ele>11.67</ele>
        <time>2018-07-02T14:46:20Z</time>
      </trkpt>
      <trkpt lat="50.154719995334744" lon="1.550974035635591">
        <ele>11.67</ele>
        <time>2018-07-02T14:46:21Z</time>
      </trkpt>
      <trkpt lat="50.154614970088005" lon="1.551037989556789">
        <ele>12.15</ele>
        <time>2018-07-02T14:46:22Z</time>
      </trkpt>
      <trkpt lat="50.15419696457684" lon="1.551291039213538">
        <ele>12.630000000000001</ele>
        <time>2018-07-02T14:46:26Z</time>
      </trkpt>
      <trkpt lat="50.154076013714075" lon="1.551304031163454">
        <ele>12.630000000000001</ele>
        <time>2018-07-02T14:46:27Z</time>
      </trkpt>
      <trkpt lat="50.15395799651742" lon="1.551304031163454">
        <ele>12.630000000000001</ele>
        <time>2018-07-02T14:46:28Z</time>
      </trkpt>
      <trkpt lat="50.153842996805906" lon="1.551278969272971">
        <ele>13.119999999999999</ele>
        <time>2018-07-02T14:46:29Z</time>
      </trkpt>
      <trkpt lat="50.153734032064676" lon="1.551219038665295">
        <ele>13.6</ele>
        <time>2018-07-02T14:46:30Z</time>
      </trkpt>
      <trkpt lat="50.153629006817937" lon="1.551139997318387">
        <ele>13.6</ele>
        <time>2018-07-02T14:46:31Z</time>
      </trkpt>
      <trkpt lat="50.153525993227959" lon="1.551062967628241">
        <ele>13.6</ele>
        <time>2018-07-02T14:46:32Z</time>
      </trkpt>
      <trkpt lat="50.153427002951503" lon="1.550976969301701">
        <ele>14.08</ele>
        <time>2018-07-02T14:46:33Z</time>
      </trkpt>
      <trkpt lat="50.153338992968202" lon="1.550862975418568">
        <ele>14.08</ele>
        <time>2018-07-02T14:46:34Z</time>
      </trkpt>
      <trkpt lat="50.153248971328139" lon="1.550745964050293">
        <ele>14.56</ele>
        <time>2018-07-02T14:46:35Z</time>
      </trkpt>
      <trkpt lat="50.153172025457025" lon="1.550611015409231">
        <ele>14.56</ele>
        <time>2018-07-02T14:46:36Z</time>
      </trkpt>
      <trkpt lat="50.151986991986632" lon="1.548385033383966">
        <ele>16.48</ele>
        <time>2018-07-02T14:46:52Z</time>
      </trkpt>
      <trkpt lat="50.151622965931892" lon="1.547681959345937">
        <ele>16.960000000000001</ele>
        <time>2018-07-02T14:46:57Z</time>
      </trkpt>
      <trkpt lat="50.15155297704041" lon="1.547546004876494">
        <ele>16.48</ele>
        <time>2018-07-02T14:46:58Z</time>
      </trkpt>
      <trkpt lat="50.150191001594067" lon="1.544975023716688">
        <ele>16.48</ele>
        <time>2018-07-02T14:47:16Z</time>
      </trkpt>
      <trkpt lat="50.149312997236848" lon="1.543316999450326">
        <ele>16</ele>
        <time>2018-07-02T14:47:24Z</time>
      </trkpt>
      <trkpt lat="50.147738959640265" lon="1.540346033871174">
        <ele>16.48</ele>
        <time>2018-07-02T14:47:36Z</time>
      </trkpt>
      <trkpt lat="50.14534299261868" lon="1.535742022097111">
        <ele>17.920000000000002</ele>
        <time>2018-07-02T14:47:55Z</time>
      </trkpt>
      <trkpt lat="50.143683040514588" lon="1.531828008592129">
        <ele>17.440000000000001</ele>
        <time>2018-07-02T14:48:10Z</time>
      </trkpt>
      <trkpt lat="50.142294997349381" lon="1.528494022786617">
        <ele>15.52</ele>
        <time>2018-07-02T14:48:23Z</time>
      </trkpt>
      <trkpt lat="50.141799040138721" lon="1.527042025700212">
        <ele>15.039999999999999</ele>
        <time>2018-07-02T14:48:31Z</time>
      </trkpt>
      <trkpt lat="50.141232004389167" lon="1.525285011157394">
        <ele>15.039999999999999</ele>
        <time>2018-07-02T14:48:42Z</time>
      </trkpt>
      <trkpt lat="50.14059598557651" lon="1.523415008559823">
        <ele>15.52</ele>
        <time>2018-07-02T14:48:52Z</time>
      </trkpt>
      <trkpt lat="50.139754023402929" lon="1.521585993468761">
        <ele>16.960000000000001</ele>
        <time>2018-07-02T14:49:02Z</time>
      </trkpt>
      <trkpt lat="50.13902697712183" lon="1.519872983917594">
        <ele>14.56</ele>
        <time>2018-07-02T14:49:12Z</time>
      </trkpt>
      <trkpt lat="50.138309989124537" lon="1.518045980483294">
        <ele>14.08</ele>
        <time>2018-07-02T14:49:23Z</time>
      </trkpt>
      <trkpt lat="50.137375993654132" lon="1.515763001516461">
        <ele>14.08</ele>
        <time>2018-07-02T14:49:34Z</time>
      </trkpt>
      <trkpt lat="50.136203030124307" lon="1.513494020327926">
        <ele>15.52</ele>
        <time>2018-07-02T14:49:43Z</time>
      </trkpt>
      <trkpt lat="50.134841976687312" lon="1.510894959792495">
        <ele>16.48</ele>
        <time>2018-07-02T14:49:53Z</time>
      </trkpt>
      <trkpt lat="50.132969962432981" lon="1.507664993405342">
        <ele>17.920000000000002</ele>
        <time>2018-07-02T14:50:07Z</time>
      </trkpt>
      <trkpt lat="50.131602035835385" lon="1.504977000877261">
        <ele>19.84</ele>
        <time>2018-07-02T14:50:18Z</time>
      </trkpt>
      <trkpt lat="50.130271995440125" lon="1.501116966828704">
        <ele>16.960000000000001</ele>
        <time>2018-07-02T14:50:32Z</time>
      </trkpt>
      <trkpt lat="50.128782028332353" lon="1.497442005202174">
        <ele>16</ele>
        <time>2018-07-02T14:50:46Z</time>
      </trkpt>
      <trkpt lat="50.127261970192194" lon="1.49378003552556">
        <ele>17.440000000000001</ele>
        <time>2018-07-02T14:51:00Z</time>
      </trkpt>
      <trkpt lat="50.126196965575218" lon="1.49111500941217">
        <ele>18.399999999999999</ele>
        <time>2018-07-02T14:51:11Z</time>
      </trkpt>
      <trkpt lat="50.125517025589943" lon="1.489379033446312">
        <ele>17.920000000000002</ele>
        <time>2018-07-02T14:51:20Z</time>
      </trkpt>
      <trkpt lat="50.125119974836707" lon="1.488416958600283">
        <ele>16</ele>
        <time>2018-07-02T14:51:26Z</time>
      </trkpt>
      <trkpt lat="50.125030037015676" lon="1.488275974988937">
        <ele>16</ele>
        <time>2018-07-02T14:51:27Z</time>
      </trkpt>
      <trkpt lat="50.124935992062092" lon="1.488142032176256">
        <ele>16</ele>
        <time>2018-07-02T14:51:28Z</time>
      </trkpt>
      <trkpt lat="50.124820992350578" lon="1.488048993051052">
        <ele>15.52</ele>
        <time>2018-07-02T14:51:29Z</time>
      </trkpt>
      <trkpt lat="50.124704986810684" lon="1.487955031916499">
        <ele>15.52</ele>
        <time>2018-07-02T14:51:30Z</time>
      </trkpt>
      <trkpt lat="50.124589987099171" lon="1.487861992791295">
        <ele>15.52</ele>
        <time>2018-07-02T14:51:31Z</time>
      </trkpt>
      <trkpt lat="50.123597988858819" lon="1.487156990915537">
        <ele>14.56</ele>
        <time>2018-07-02T14:51:41Z</time>
      </trkpt>
      <trkpt lat="50.123362960293889" lon="1.487037967890501">
        <ele>14.56</ele>
        <time>2018-07-02T14:51:44Z</time>
      </trkpt>
      <trkpt lat="50.123310992494226" lon="1.487002009525895">
        <ele>14.56</ele>
        <time>2018-07-02T14:51:45Z</time>
      </trkpt>
      <trkpt lat="50.12323203496635" lon="1.48694803006947">
        <ele>15.039999999999999</ele>
        <time>2018-07-02T14:51:46Z</time>
      </trkpt>
      <trkpt lat="50.123141007497907" lon="1.48688499815762">
        <ele>15.52</ele>
        <time>2018-07-02T14:51:47Z</time>
      </trkpt>
      <trkpt lat="50.123035982251167" lon="1.486812997609377">
        <ele>16.48</ele>
        <time>2018-07-02T14:51:48Z</time>
      </trkpt>
      <trkpt lat="50.122920982539654" lon="1.486734040081501">
        <ele>17.440000000000001</ele>
        <time>2018-07-02T14:51:49Z</time>
      </trkpt>
      <trkpt lat="50.122799025848508" lon="1.48664896376431">
        <ele>17.920000000000002</ele>
        <time>2018-07-02T14:51:50Z</time>
      </trkpt>
      <trkpt lat="50.121571999043226" lon="1.485872967168689">
        <ele>22.73</ele>
        <time>2018-07-02T14:51:58Z</time>
      </trkpt>
      <trkpt lat="50.119681041687727" lon="1.484567988663912">
        <ele>28.98</ele>
        <time>2018-07-02T14:52:08Z</time>
      </trkpt>
      <trkpt lat="50.118092000484467" lon="1.482860008254647">
        <ele>33.299999999999997</ele>
        <time>2018-07-02T14:52:17Z</time>
      </trkpt>
      <trkpt lat="50.116200037300587" lon="1.480647018179297">
        <ele>40.990000000000002</ele>
        <time>2018-07-02T14:52:28Z</time>
      </trkpt>
      <trkpt lat="50.114347971975803" lon="1.478886986151338">
        <ele>46.759999999999998</ele>
        <time>2018-07-02T14:52:39Z</time>
      </trkpt>
      <trkpt lat="50.112409992143512" lon="1.478147031739354">
        <ele>51.090000000000003</ele>
        <time>2018-07-02T14:52:49Z</time>
      </trkpt>
      <trkpt lat="50.109099978581071" lon="1.477002985775471">
        <ele>62.140000000000001</ele>
        <time>2018-07-02T14:53:06Z</time>
      </trkpt>
      <trkpt lat="50.106804007664323" lon="1.475897999480367">
        <ele>67.909999999999997</ele>
        <time>2018-07-02T14:53:18Z</time>
      </trkpt>
      <trkpt lat="50.10473501868546" lon="1.473966976627708">
        <ele>72.719999999999999</ele>
        <time>2018-07-02T14:53:30Z</time>
      </trkpt>
      <trkpt lat="50.101628014817834" lon="1.47059703245759">
        <ele>82.329999999999998</ele>
        <time>2018-07-02T14:53:49Z</time>
      </trkpt>
      <trkpt lat="50.098495027050376" lon="1.467227004468441">
        <ele>87.140000000000001</ele>
        <time>2018-07-02T14:54:08Z</time>
      </trkpt>
      <trkpt lat="50.097028026357293" lon="1.465647015720606">
        <ele>89.540000000000006</ele>
        <time>2018-07-02T14:54:18Z</time>
      </trkpt>
      <trkpt lat="50.095938965678215" lon="1.464454019442201">
        <ele>91.459999999999994</ele>
        <time>2018-07-02T14:54:28Z</time>
      </trkpt>
      <trkpt lat="50.094944033771753" lon="1.46342103369534">
        <ele>93.390000000000001</ele>
        <time>2018-07-02T14:54:39Z</time>
      </trkpt>
      <trkpt lat="50.094824004918337" lon="1.463177036494017">
        <ele>93.390000000000001</ele>
        <time>2018-07-02T14:54:41Z</time>
      </trkpt>
      <trkpt lat="50.094750998541713" lon="1.463159015402198">
        <ele>93.390000000000001</ele>
        <time>2018-07-02T14:54:42Z</time>
      </trkpt>
      <trkpt lat="50.094528961926699" lon="1.46303596906364">
        <ele>93.870000000000005</ele>
        <time>2018-07-02T14:54:44Z</time>
      </trkpt>
      <trkpt lat="50.094438018277287" lon="1.462919963523746">
        <ele>93.870000000000005</ele>
        <time>2018-07-02T14:54:45Z</time>
      </trkpt>
      <trkpt lat="50.094344979152083" lon="1.462769005447626">
        <ele>93.870000000000005</ele>
        <time>2018-07-02T14:54:46Z</time>
      </trkpt>
      <trkpt lat="50.094245988875628" lon="1.462610000744462">
        <ele>93.870000000000005</ele>
        <time>2018-07-02T14:54:47Z</time>
      </trkpt>
      <trkpt lat="50.094145992770791" lon="1.462440015748143">
        <ele>93.870000000000005</ele>
        <time>2018-07-02T14:54:48Z</time>
      </trkpt>
      <trkpt lat="50.094052031636238" lon="1.462232982739806">
        <ele>94.349999999999994</ele>
        <time>2018-07-02T14:54:49Z</time>
      </trkpt>
      <trkpt lat="50.093954969197512" lon="1.462033996358514">
        <ele>94.349999999999994</ele>
        <time>2018-07-02T14:54:50Z</time>
      </trkpt>
      <trkpt lat="50.093118036165833" lon="1.460561966523528">
        <ele>93.390000000000001</ele>
        <time>2018-07-02T14:54:57Z</time>
      </trkpt>
      <trkpt lat="50.091588003560901" lon="1.458047982305288">
        <ele>92.420000000000002</ele>
        <time>2018-07-02T14:55:08Z</time>
      </trkpt>
      <trkpt lat="50.090197026729584" lon="1.455760980024934">
        <ele>91.459999999999994</ele>
        <time>2018-07-02T14:55:17Z</time>
      </trkpt>
      <trkpt lat="50.089024985209107" lon="1.453835992142558">
        <ele>92.420000000000002</ele>
        <time>2018-07-02T14:55:24Z</time>
      </trkpt>
      <trkpt lat="50.087166968733072" lon="1.450791014358401">
        <ele>92.900000000000006</ele>
        <time>2018-07-02T14:55:37Z</time>
      </trkpt>
      <trkpt lat="50.085109965875745" lon="1.447402965277433">
        <ele>96.269999999999996</ele>
        <time>2018-07-02T14:55:52Z</time>
      </trkpt>
      <trkpt lat="50.082615008577704" lon="1.443336987867951">
        <ele>100.11</ele>
        <time>2018-07-02T14:56:10Z</time>
      </trkpt>
      <trkpt lat="50.080129019916058" lon="1.439249971881509">
        <ele>102.52</ele>
        <time>2018-07-02T14:56:28Z</time>
      </trkpt>
      <trkpt lat="50.078517012298107" lon="1.436784015968442">
        <ele>98.670000000000002</ele>
        <time>2018-07-02T14:56:40Z</time>
      </trkpt>
      <trkpt lat="50.077330972999334" lon="1.43602604046464">
        <ele>98.670000000000002</ele>
        <time>2018-07-02T14:56:49Z</time>
      </trkpt>
      <trkpt lat="50.076513988897204" lon="1.435634018853307">
        <ele>99.150000000000006</ele>
        <time>2018-07-02T14:56:56Z</time>
      </trkpt>
      <trkpt lat="50.07641801610589" lon="1.435591019690037">
        <ele>99.629999999999995</ele>
        <time>2018-07-02T14:56:57Z</time>
      </trkpt>
      <trkpt lat="50.076322965323925" lon="1.435547014698386">
        <ele>99.150000000000006</ele>
        <time>2018-07-02T14:56:58Z</time>
      </trkpt>
      <trkpt lat="50.075616035610437" lon="1.435205033048987">
        <ele>100.11</ele>
        <time>2018-07-02T14:57:05Z</time>
      </trkpt>
      <trkpt lat="50.07551503367722" lon="1.435154993087053">
        <ele>100.11</ele>
        <time>2018-07-02T14:57:06Z</time>
      </trkpt>
      <trkpt lat="50.073992963880301" lon="1.434158971533179">
        <ele>102.04000000000001</ele>
        <time>2018-07-02T14:57:20Z</time>
      </trkpt>
      <trkpt lat="50.073876958340406" lon="1.434078002348542">
        <ele>102.04000000000001</ele>
        <time>2018-07-02T14:57:21Z</time>
      </trkpt>
      <trkpt lat="50.072735007852316" lon="1.433304017409682">
        <ele>104.92</ele>
        <time>2018-07-02T14:57:29Z</time>
      </trkpt>
      <trkpt lat="50.07089601829648" lon="1.432043965905905">
        <ele>104.44</ele>
        <time>2018-07-02T14:57:39Z</time>
      </trkpt>
      <trkpt lat="50.068641034886241" lon="1.430432964116335">
        <ele>102.04000000000001</ele>
        <time>2018-07-02T14:57:53Z</time>
      </trkpt>
      <trkpt lat="50.067616011947393" lon="1.429164027795196">
        <ele>97.230000000000004</ele>
        <time>2018-07-02T14:58:01Z</time>
      </trkpt>
      <trkpt lat="50.066704982891679" lon="1.427317997440696">
        <ele>87.620000000000005</ele>
        <time>2018-07-02T14:58:09Z</time>
      </trkpt>
      <trkpt lat="50.065756989642978" lon="1.424964023754001">
        <ele>75.120000000000005</ele>
        <time>2018-07-02T14:58:19Z</time>
      </trkpt>
      <trkpt lat="50.065653976052999" lon="1.424730001017451">
        <ele>73.680000000000007</ele>
        <time>2018-07-02T14:58:20Z</time>
      </trkpt>
      <trkpt lat="50.064462991431355" lon="1.422820016741753">
        <ele>62.140000000000001</ele>
        <time>2018-07-02T14:58:29Z</time>
      </trkpt>
      <trkpt lat="50.063263960182667" lon="1.421832041814923">
        <ele>53.009999999999998</ele>
        <time>2018-07-02T14:58:36Z</time>
      </trkpt>
      <trkpt lat="50.061951018869877" lon="1.42098999582231">
        <ele>44.359999999999999</ele>
        <time>2018-07-02T14:58:45Z</time>
      </trkpt>
      <trkpt lat="50.060865981504321" lon="1.420455984771252">
        <ele>40.030000000000001</ele>
        <time>2018-07-02T14:58:54Z</time>
      </trkpt>
      <trkpt lat="50.060644028708339" lon="1.420346014201641">
        <ele>40.030000000000001</ele>
        <time>2018-07-02T14:58:56Z</time>
      </trkpt>
      <trkpt lat="50.060545960441232" lon="1.420272001996636">
        <ele>39.549999999999997</ele>
        <time>2018-07-02T14:58:57Z</time>
      </trkpt>
      <trkpt lat="50.060460967943072" lon="1.420174017548561">
        <ele>39.549999999999997</ele>
        <time>2018-07-02T14:58:58Z</time>
      </trkpt>
      <trkpt lat="50.060405982658267" lon="1.420111991465092">
        <ele>39.07</ele>
        <time>2018-07-02T14:58:59Z</time>
      </trkpt>
      <trkpt lat="50.060336999595165" lon="1.419933037832379">
        <ele>38.590000000000003</ele>
        <time>2018-07-02T14:59:00Z</time>
      </trkpt>
      <trkpt lat="50.060278996825218" lon="1.41978501342237">
        <ele>37.630000000000003</ele>
        <time>2018-07-02T14:59:01Z</time>
      </trkpt>
      <trkpt lat="50.060238009318709" lon="1.419631037861109">
        <ele>37.149999999999999</ele>
        <time>2018-07-02T14:59:02Z</time>
      </trkpt>
      <trkpt lat="50.060202972963452" lon="1.419443031772971">
        <ele>36.670000000000002</ele>
        <time>2018-07-02T14:59:03Z</time>
      </trkpt>
      <trkpt lat="50.060179000720382" lon="1.419253014028072">
        <ele>35.710000000000001</ele>
        <time>2018-07-02T14:59:04Z</time>
      </trkpt>
      <trkpt lat="50.060158967971802" lon="1.419041035696864">
        <ele>35.229999999999997</ele>
        <time>2018-07-02T14:59:05Z</time>
      </trkpt>
      <trkpt lat="50.060138013213873" lon="1.418820004910231">
        <ele>34.740000000000002</ele>
        <time>2018-07-02T14:59:06Z</time>
      </trkpt>
      <trkpt lat="50.060117980465293" lon="1.41860299743712">
        <ele>34.259999999999998</ele>
        <time>2018-07-02T14:59:07Z</time>
      </trkpt>
      <trkpt lat="50.060112029314041" lon="1.418386995792389">
        <ele>33.780000000000001</ele>
        <time>2018-07-02T14:59:08Z</time>
      </trkpt>
      <trkpt lat="50.060377987101674" lon="1.416558986529708">
        <ele>33.299999999999997</ele>
        <time>2018-07-02T14:59:16Z</time>
      </trkpt>
      <trkpt lat="50.061149038374424" lon="1.413588020950556">
        <ele>27.530000000000001</ele>
        <time>2018-07-02T14:59:28Z</time>
      </trkpt>
      <trkpt lat="50.06120796315372" lon="1.412494014948607">
        <ele>23.690000000000001</ele>
        <time>2018-07-02T14:59:32Z</time>
      </trkpt>
      <trkpt lat="50.061145015060902" lon="1.411704020574689">
        <ele>20.32</ele>
        <time>2018-07-02T14:59:35Z</time>
      </trkpt>
      <trkpt lat="50.061108972877264" lon="1.411463962867856">
        <ele>19.359999999999999</ele>
        <time>2018-07-02T14:59:36Z</time>
      </trkpt>
      <trkpt lat="50.060919038951397" lon="1.410692995414138">
        <ele>16</ele>
        <time>2018-07-02T14:59:41Z</time>
      </trkpt>
      <trkpt lat="50.060816025361419" lon="1.410325029864907">
        <ele>12.15</ele>
        <time>2018-07-02T14:59:49Z</time>
      </trkpt>
      <trkpt lat="50.06068903952837" lon="1.410059994086623">
        <ele>10.710000000000001</ele>
        <time>2018-07-02T14:59:59Z</time>
      </trkpt>
      <trkpt lat="50.060449987649918" lon="1.409499999135733">
        <ele>8.789999999999999</ele>
        <time>2018-07-02T15:00:12Z</time>
      </trkpt>
      <trkpt lat="50.060429032891989" lon="1.40940603800118">
        <ele>8.789999999999999</ele>
        <time>2018-07-02T15:00:13Z</time>
      </trkpt>
      <trkpt lat="50.060434984043241" lon="1.409310987219214">
        <ele>8.789999999999999</ele>
        <time>2018-07-02T15:00:14Z</time>
      </trkpt>
      <trkpt lat="50.060388967394829" lon="1.408962970599532">
        <ele>7.83</ele>
        <time>2018-07-02T15:00:18Z</time>
      </trkpt>
      <trkpt lat="50.060385027900338" lon="1.408954001963139">
        <ele>7.83</ele>
        <time>2018-07-02T15:00:19Z</time>
      </trkpt>
      <trkpt lat="50.060402965173125" lon="1.408727020025253">
        <ele>7.83</ele>
        <time>2018-07-02T15:00:20Z</time>
      </trkpt>
      <trkpt lat="50.060431966558099" lon="1.408675974234939">
        <ele>7.35</ele>
        <time>2018-07-02T15:00:21Z</time>
      </trkpt>
      <trkpt lat="50.060468008741736" lon="1.408615037798882">
        <ele>7.35</ele>
        <time>2018-07-02T15:00:22Z</time>
      </trkpt>
      <trkpt lat="50.060504972934723" lon="1.408547982573509">
        <ele>7.35</ele>
        <time>2018-07-02T15:00:23Z</time>
      </trkpt>
      <trkpt lat="50.060703037306666" lon="1.408187979832292">
        <ele>6.39</ele>
        <time>2018-07-02T15:00:28Z</time>
      </trkpt>
      <trkpt lat="50.060991961508989" lon="1.407574005424976">
        <ele>6.39</ele>
        <time>2018-07-02T15:00:36Z</time>
      </trkpt>
      <trkpt lat="50.061169993132353" lon="1.407451964914799">
        <ele>6.87</ele>
        <time>2018-07-02T15:00:40Z</time>
      </trkpt>
      <trkpt lat="50.061196982860565" lon="1.407407037913799">
        <ele>7.35</ele>
        <time>2018-07-02T15:00:41Z</time>
      </trkpt>
      <trkpt lat="50.061215003952384" lon="1.407327996566892">
        <ele>7.35</ele>
        <time>2018-07-02T15:00:42Z</time>
      </trkpt>
      <trkpt lat="50.06120603531599" lon="1.407270999625325">
        <ele>7.35</ele>
        <time>2018-07-02T15:00:43Z</time>
      </trkpt>
      <trkpt lat="50.061200000345707" lon="1.407236969098449">
        <ele>7.35</ele>
        <time>2018-07-02T15:00:44Z</time>
      </trkpt>
      <trkpt lat="50.061159012839198" lon="1.40719598159194">
        <ele>7.83</ele>
        <time>2018-07-02T15:00:45Z</time>
      </trkpt>
      <trkpt lat="50.061135962605476" lon="1.40717301517725">
        <ele>7.83</ele>
        <time>2018-07-02T15:00:46Z</time>
      </trkpt>
      <trkpt lat="50.061087012290955" lon="1.407191958278418">
        <ele>7.83</ele>
        <time>2018-07-02T15:00:47Z</time>
      </trkpt>
      <trkpt lat="50.061048958450556" lon="1.407206961885095">
        <ele>7.83</ele>
        <time>2018-07-02T15:00:48Z</time>
      </trkpt>
      <trkpt lat="50.061025992035866" lon="1.407235963270068">
        <ele>7.83</ele>
        <time>2018-07-02T15:00:49Z</time>
      </trkpt>
      <trkpt lat="50.061016017571092" lon="1.407303018495441">
        <ele>7.83</ele>
        <time>2018-07-02T15:00:50Z</time>
      </trkpt>
      <trkpt lat="50.061006965115666" lon="1.407365966588259">
        <ele>7.83</ele>
        <time>2018-07-02T15:00:51Z</time>
      </trkpt>
      <trkpt lat="50.061006965115666" lon="1.407365966588259">
        <ele>7.83</ele>
        <time>2018-07-02T15:00:52Z</time>
      </trkpt>
      <trkpt lat="50.060994978994131" lon="1.407568976283073">
        <ele>7.83</ele>
        <time>2018-07-02T15:00:53Z</time>
      </trkpt>
      <trkpt lat="50.060961032286286" lon="1.407640976831317">
        <ele>7.35</ele>
        <time>2018-07-02T15:00:54Z</time>
      </trkpt>
      <trkpt lat="50.060921972617507" lon="1.407723035663366">
        <ele>7.35</ele>
        <time>2018-07-02T15:00:55Z</time>
      </trkpt>
      <trkpt lat="50.060880985110998" lon="1.407810961827636">
        <ele>7.35</ele>
        <time>2018-07-02T15:00:56Z</time>
      </trkpt>
      <trkpt lat="50.060833962634206" lon="1.407910035923123">
        <ele>6.87</ele>
        <time>2018-07-02T15:00:57Z</time>
      </trkpt>
      <trkpt lat="50.060536991804838" lon="1.408488973975182">
        <ele>5.42</ele>
        <time>2018-07-02T15:01:02Z</time>
      </trkpt>
      <trkpt lat="50.060421992093325" lon="1.408620988950133">
        <ele>5.42</ele>
        <time>2018-07-02T15:01:03Z</time>
      </trkpt>
      <trkpt lat="50.060329958796501" lon="1.408642027527094">
        <ele>4.94</ele>
        <time>2018-07-02T15:01:04Z</time>
      </trkpt>
      <trkpt lat="50.060234991833568" lon="1.408663988113403">
        <ele>4.94</ele>
        <time>2018-07-02T15:01:05Z</time>
      </trkpt>
      <trkpt lat="50.060144970193505" lon="1.408685026690364">
        <ele>4.94</ele>
        <time>2018-07-02T15:01:06Z</time>
      </trkpt>
      <trkpt lat="50.059749009087682" lon="1.408774964511395">
        <ele>4.94</ele>
        <time>2018-07-02T15:01:11Z</time>
      </trkpt>
      <trkpt lat="50.059668961912394" lon="1.408793991431594">
        <ele>5.42</ele>
        <time>2018-07-02T15:01:12Z</time>
      </trkpt>
      <trkpt lat="50.059018023312092" lon="1.408564997836947">
        <ele>7.35</ele>
        <time>2018-07-02T15:01:19Z</time>
      </trkpt>
      <trkpt lat="50.058916015550494" lon="1.40848302282393">
        <ele>7.83</ele>
        <time>2018-07-02T15:01:20Z</time>
      </trkpt>
      <trkpt lat="50.057794013991952" lon="1.407436039298773">
        <ele>11.19</ele>
        <time>2018-07-02T15:01:30Z</time>
      </trkpt>
      <trkpt lat="50.05682397633791" lon="1.406470024958253">
        <ele>12.15</ele>
        <time>2018-07-02T15:01:40Z</time>
      </trkpt>
      <trkpt lat="50.05560097284615" lon="1.405291026458144">
        <ele>11.67</ele>
        <time>2018-07-02T15:01:51Z</time>
      </trkpt>
      <trkpt lat="50.05504198372364" lon="1.40478702262044">
        <ele>11.19</ele>
        <time>2018-07-02T15:01:56Z</time>
      </trkpt>
      <trkpt lat="50.054922960698605" lon="1.404689038172364">
        <ele>11.67</ele>
        <time>2018-07-02T15:01:57Z</time>
      </trkpt>
      <trkpt lat="50.053712027147412" lon="1.403773985803127">
        <ele>14.56</ele>
        <time>2018-07-02T15:02:08Z</time>
      </trkpt>
      <trkpt lat="50.053318999707699" lon="1.403395961970091">
        <ele>14.56</ele>
        <time>2018-07-02T15:02:13Z</time>
      </trkpt>
      <trkpt lat="50.053281029686332" lon="1.403307029977441">
        <ele>14.56</ele>
        <time>2018-07-02T15:02:14Z</time>
      </trkpt>
      <trkpt lat="50.053250016644597" lon="1.403207033872604">
        <ele>14.56</ele>
        <time>2018-07-02T15:02:15Z</time>
      </trkpt>
      <trkpt lat="50.05321498028934" lon="1.403096979483962">
        <ele>14.56</ele>
        <time>2018-07-02T15:02:16Z</time>
      </trkpt>
      <trkpt lat="50.053177010267973" lon="1.402977034449577">
        <ele>14.56</ele>
        <time>2018-07-02T15:02:17Z</time>
      </trkpt>
      <trkpt lat="50.053153960034251" lon="1.402903022244573">
        <ele>14.56</ele>
        <time>2018-07-02T15:02:18Z</time>
      </trkpt>
      <trkpt lat="50.053110960870981" lon="1.402689032256603">
        <ele>14.08</ele>
        <time>2018-07-02T15:02:19Z</time>
      </trkpt>
      <trkpt lat="50.053079025819898" lon="1.402529021725059">
        <ele>14.08</ele>
        <time>2018-07-02T15:02:20Z</time>
      </trkpt>
      <trkpt lat="50.053004007786512" lon="1.40122395940125">
        <ele>10.23</ele>
        <time>2018-07-02T15:02:27Z</time>
      </trkpt>
      <trkpt lat="50.053039966151118" lon="1.401047017425299">
        <ele>9.75</ele>
        <time>2018-07-02T15:02:28Z</time>
      </trkpt>
      <trkpt lat="50.053076008334756" lon="1.400864962488413">
        <ele>9.27</ele>
        <time>2018-07-02T15:02:29Z</time>
      </trkpt>
      <trkpt lat="50.053124036639929" lon="1.400681985542178">
        <ele>9.27</ele>
        <time>2018-07-02T15:02:30Z</time>
      </trkpt>
      <trkpt lat="50.053178016096354" lon="1.400501020252705">
        <ele>9.27</ele>
        <time>2018-07-02T15:02:31Z</time>
      </trkpt>
      <trkpt lat="50.053230989724398" lon="1.40032097697258">
        <ele>8.789999999999999</ele>
        <time>2018-07-02T15:02:32Z</time>
      </trkpt>
      <trkpt lat="50.053269965574145" lon="1.400155015289784">
        <ele>9.27</ele>
        <time>2018-07-02T15:02:33Z</time>
      </trkpt>
      <trkpt lat="50.053294021636248" lon="1.399990981444717">
        <ele>9.75</ele>
        <time>2018-07-02T15:02:34Z</time>
      </trkpt>
      <trkpt lat="50.053309025242925" lon="1.399852009490132">
        <ele>9.27</ele>
        <time>2018-07-02T15:02:35Z</time>
      </trkpt>
      <trkpt lat="50.053320005536079" lon="1.399728963151574">
        <ele>9.27</ele>
        <time>2018-07-02T15:02:36Z</time>
      </trkpt>
      <trkpt lat="50.053328974172473" lon="1.399618992581964">
        <ele>9.27</ele>
        <time>2018-07-02T15:02:37Z</time>
      </trkpt>
      <trkpt lat="50.053338026627898" lon="1.399514973163605">
        <ele>9.27</ele>
        <time>2018-07-02T15:02:38Z</time>
      </trkpt>
      <trkpt lat="50.053346995264292" lon="1.399405002593994">
        <ele>9.75</ele>
        <time>2018-07-02T15:02:39Z</time>
      </trkpt>
      <trkpt lat="50.053369961678982" lon="1.399311041459441">
        <ele>9.75</ele>
        <time>2018-07-02T15:02:40Z</time>
      </trkpt>
      <trkpt lat="50.053396029397845" lon="1.399210039526224">
        <ele>10.23</ele>
        <time>2018-07-02T15:02:41Z</time>
      </trkpt>
      <trkpt lat="50.053421007469296" lon="1.399107025936246">
        <ele>10.23</ele>
        <time>2018-07-02T15:02:42Z</time>
      </trkpt>
      <trkpt lat="50.053427964448929" lon="1.399044999852777">
        <ele>10.23</ele>
        <time>2018-07-02T15:02:43Z</time>
      </trkpt>
      <trkpt lat="50.053400974720716" lon="1.398950032889843">
        <ele>10.23</ele>
        <time>2018-07-02T15:02:44Z</time>
      </trkpt>
      <trkpt lat="50.053372979164124" lon="1.398852970451117">
        <ele>10.23</ele>
        <time>2018-07-02T15:02:45Z</time>
      </trkpt>
      <trkpt lat="50.053346995264292" lon="1.398761020973325">
        <ele>10.23</ele>
        <time>2018-07-02T15:02:46Z</time>
      </trkpt>
      <trkpt lat="50.053334003314376" lon="1.398645015433431">
        <ele>10.23</ele>
        <time>2018-07-02T15:02:47Z</time>
      </trkpt>
      <trkpt lat="50.053323023021221" lon="1.398535966873169">
        <ele>10.23</ele>
        <time>2018-07-02T15:02:48Z</time>
      </trkpt>
      <trkpt lat="50.053310031071305" lon="1.398420967161655">
        <ele>10.23</ele>
        <time>2018-07-02T15:02:49Z</time>
      </trkpt>
      <trkpt lat="50.053297039121389" lon="1.398296998813748">
        <ele>10.23</ele>
        <time>2018-07-02T15:02:50Z</time>
      </trkpt>
      <trkpt lat="50.053283041343093" lon="1.398152997717261">
        <ele>9.75</ele>
        <time>2018-07-02T15:02:51Z</time>
      </trkpt>
      <trkpt lat="50.053541036322713" lon="1.396334040910006">
        <ele>8.789999999999999</ele>
        <time>2018-07-02T15:03:01Z</time>
      </trkpt>
      <trkpt lat="50.054122991859913" lon="1.394127001985908">
        <ele>5.91</ele>
        <time>2018-07-02T15:03:14Z</time>
      </trkpt>
      <trkpt lat="50.054648034274578" lon="1.39217502437532">
        <ele>3.5</ele>
        <time>2018-07-02T15:03:26Z</time>
      </trkpt>
      <trkpt lat="50.055240970104933" lon="1.390051972121">
        <ele>3.5</ele>
        <time>2018-07-02T15:03:39Z</time>
      </trkpt>
      <trkpt lat="50.055896015837789" lon="1.387893967330456">
        <ele>3.5</ele>
        <time>2018-07-02T15:03:53Z</time>
      </trkpt>
      <trkpt lat="50.05594496615231" lon="1.387760024517775">
        <ele>3.5</ele>
        <time>2018-07-02T15:03:54Z</time>
      </trkpt>
      <trkpt lat="50.056303963065147" lon="1.387182008475065">
        <ele>3.5</ele>
        <time>2018-07-02T15:04:00Z</time>
      </trkpt>
      <trkpt lat="50.056430026888847" lon="1.387030966579914">
        <ele>3.98</ele>
        <time>2018-07-02T15:04:02Z</time>
      </trkpt>
      <trkpt lat="50.05650102160871" lon="1.386959971860051">
        <ele>3.98</ele>
        <time>2018-07-02T15:04:03Z</time>
      </trkpt>
      <trkpt lat="50.05650102160871" lon="1.386854024603963">
        <ele>3.98</ele>
        <time>2018-07-02T15:04:04Z</time>
      </trkpt>
      <trkpt lat="50.056580984964967" lon="1.386622013524175">
        <ele>3.98</ele>
        <time>2018-07-02T15:04:06Z</time>
      </trkpt>
      <trkpt lat="50.056796986609697" lon="1.386123960837722">
        <ele>4.46</ele>
        <time>2018-07-02T15:04:11Z</time>
      </trkpt>
      <trkpt lat="50.056853983551264" lon="1.386022958904505">
        <ele>4.46</ele>
        <time>2018-07-02T15:04:12Z</time>
      </trkpt>
      <trkpt lat="50.056896982714534" lon="1.386057995259762">
        <ele>4.46</ele>
        <time>2018-07-02T15:04:13Z</time>
      </trkpt>
      <trkpt lat="50.056942999362946" lon="1.386094037443399">
        <ele>4.46</ele>
        <time>2018-07-02T15:04:14Z</time>
      </trkpt>
      <trkpt lat="50.056993961334229" lon="1.386132007464767">
        <ele>4.94</ele>
        <time>2018-07-02T15:04:15Z</time>
      </trkpt>
      <trkpt lat="50.057837013155222" lon="1.386728966608644">
        <ele>3.98</ele>
        <time>2018-07-02T15:04:27Z</time>
      </trkpt>
      <trkpt lat="50.058164997026324" lon="1.386957038193941">
        <ele>3.98</ele>
        <time>2018-07-02T15:04:32Z</time>
      </trkpt>
      <trkpt lat="50.058214031159878" lon="1.386990984901786">
        <ele>4.46</ele>
        <time>2018-07-02T15:04:33Z</time>
      </trkpt>
      <trkpt lat="50.058252001181245" lon="1.387017974629998">
        <ele>4.46</ele>
        <time>2018-07-02T15:04:34Z</time>
      </trkpt>
      <trkpt lat="50.058289971202612" lon="1.386914039030671">
        <ele>4.46</ele>
        <time>2018-07-02T15:04:35Z</time>
      </trkpt>
      <trkpt lat="50.058311009779572" lon="1.386836003512144">
        <ele>4.94</ele>
        <time>2018-07-02T15:04:36Z</time>
      </trkpt>
      <trkpt lat="50.058335987851024" lon="1.386743970215321">
        <ele>4.94</ele>
        <time>2018-07-02T15:04:37Z</time>
      </trkpt>
      <trkpt lat="50.058363983407617" lon="1.386641040444374">
        <ele>4.94</ele>
        <time>2018-07-02T15:04:38Z</time>
      </trkpt>
      <trkpt lat="50.058724991977215" lon="1.38530102558434">
        <ele>5.91</ele>
        <time>2018-07-02T15:04:49Z</time>
      </trkpt>
      <trkpt lat="50.059090023860335" lon="1.384178018197417">
        <ele>6.39</ele>
        <time>2018-07-02T15:05:00Z</time>
      </trkpt>
      <trkpt lat="50.059131011366844" lon="1.384114986285567">
        <ele>6.39</ele>
        <time>2018-07-02T15:05:01Z</time>
      </trkpt>
      <trkpt lat="50.059170993044972" lon="1.384054971858859">
        <ele>6.39</ele>
        <time>2018-07-02T15:05:02Z</time>
      </trkpt>
      <trkpt lat="50.059380037710071" lon="1.383741991594434">
        <ele>6.87</ele>
        <time>2018-07-02T15:05:10Z</time>
      </trkpt>
      <trkpt lat="50.059376014396548" lon="1.383740985766053">
        <ele>6.87</ele>
        <time>2018-07-02T15:05:13Z</time>
      </trkpt>
      <trkpt lat="50.059536024928093" lon="1.383686000481248">
        <ele>6.87</ele>
        <time>2018-07-02T15:05:14Z</time>
      </trkpt>
      <trkpt lat="50.059543987736106" lon="1.383606037124991">
        <ele>6.87</ele>
        <time>2018-07-02T15:05:15Z</time>
      </trkpt>
      <trkpt lat="50.059548011049628" lon="1.383568989112973">
        <ele>6.87</ele>
        <time>2018-07-02T15:05:16Z</time>
      </trkpt>
      <trkpt lat="50.059492019936442" lon="1.383404033258557">
        <ele>6.39</ele>
        <time>2018-07-02T15:05:17Z</time>
      </trkpt>
      <trkpt lat="50.059503000229597" lon="1.38330202549696">
        <ele>6.39</ele>
        <time>2018-07-02T15:05:18Z</time>
      </trkpt>
      <trkpt lat="50.059513980522752" lon="1.38319599442184">
        <ele>6.39</ele>
        <time>2018-07-02T15:05:19Z</time>
      </trkpt>
      <trkpt lat="50.059633003547788" lon="1.381554985418916">
        <ele>5.91</ele>
        <time>2018-07-02T15:05:32Z</time>
      </trkpt>
      <trkpt lat="50.059696035459638" lon="1.380015984177589">
        <ele>7.35</ele>
        <time>2018-07-02T15:05:44Z</time>
      </trkpt>
      <trkpt lat="50.059716990217566" lon="1.379638966172934">
        <ele>6.87</ele>
        <time>2018-07-02T15:05:53Z</time>
      </trkpt>
      <trkpt lat="50.059722019359469" lon="1.379560008645058">
        <ele>6.87</ele>
        <time>2018-07-02T15:05:54Z</time>
      </trkpt>
      <trkpt lat="50.059726964682341" lon="1.379468981176615">
        <ele>6.39</ele>
        <time>2018-07-02T15:05:55Z</time>
      </trkpt>
      <trkpt lat="50.059732999652624" lon="1.379367979243398">
        <ele>6.39</ele>
        <time>2018-07-02T15:05:56Z</time>
      </trkpt>
      <trkpt lat="50.059739034622908" lon="1.37926203198731">
        <ele>5.91</ele>
        <time>2018-07-02T15:05:57Z</time>
      </trkpt>
      <trkpt lat="50.059744985774159" lon="1.379161030054092">
        <ele>5.91</ele>
        <time>2018-07-02T15:05:58Z</time>
      </trkpt>
      <trkpt lat="50.059787984937429" lon="1.378472959622741">
        <ele>5.42</ele>
        <time>2018-07-02T15:06:06Z</time>
      </trkpt>
      <trkpt lat="50.059872977435589" lon="1.37724400497973">
        <ele>6.39</ele>
        <time>2018-07-02T15:06:19Z</time>
      </trkpt>
      <trkpt lat="50.059889992699027" lon="1.37698701582849">
        <ele>6.39</ele>
        <time>2018-07-02T15:06:22Z</time>
      </trkpt>
      <trkpt lat="50.05989502184093" lon="1.376915015280247">
        <ele>6.39</ele>
        <time>2018-07-02T15:06:23Z</time>
      </trkpt>
      <trkpt lat="50.059899967163801" lon="1.376852989196777">
        <ele>6.39</ele>
        <time>2018-07-02T15:06:24Z</time>
      </trkpt>
      <trkpt lat="50.059902984648943" lon="1.376798003911972">
        <ele>6.39</ele>
        <time>2018-07-02T15:06:25Z</time>
      </trkpt>
      <trkpt lat="50.059907007962465" lon="1.376747963950038">
        <ele>6.39</ele>
        <time>2018-07-02T15:06:26Z</time>
      </trkpt>
      <trkpt lat="50.059909019619226" lon="1.376713011413813">
        <ele>6.39</ele>
        <time>2018-07-02T15:06:27Z</time>
      </trkpt>
      <trkpt lat="50.059911031275988" lon="1.376683004200459">
        <ele>6.39</ele>
        <time>2018-07-02T15:06:28Z</time>
      </trkpt>
      <trkpt lat="50.059912959113717" lon="1.376658026129007">
        <ele>5.91</ele>
        <time>2018-07-02T15:06:29Z</time>
      </trkpt>
      <trkpt lat="50.059912959113717" lon="1.376658026129007">
        <ele>6.39</ele>
        <time>2018-07-02T15:06:42Z</time>
      </trkpt>
      <trkpt lat="50.059912959113717" lon="1.376658026129007">
        <ele>6.39</ele>
        <time>2018-07-02T15:07:28Z</time>
      </trkpt>
      <trkpt lat="50.059916982427239" lon="1.376589965075254">
        <ele>6.87</ele>
        <time>2018-07-02T15:08:04Z</time>
      </trkpt>
      <trkpt lat="50.059918994084001" lon="1.376554006710649">
        <ele>6.87</ele>
        <time>2018-07-02T15:08:05Z</time>
      </trkpt>
      <trkpt lat="50.059923017397523" lon="1.376489968970418">
        <ele>6.39</ele>
        <time>2018-07-02T15:08:06Z</time>
      </trkpt>
      <trkpt lat="50.059928968548775" lon="1.376397013664246">
        <ele>6.39</ele>
        <time>2018-07-02T15:08:07Z</time>
      </trkpt>
      <trkpt lat="50.059936009347439" lon="1.376286959275603">
        <ele>6.39</ele>
        <time>2018-07-02T15:08:08Z</time>
      </trkpt>
      <trkpt lat="50.05998102016747" lon="1.375786978751421">
        <ele>6.39</ele>
        <time>2018-07-02T15:08:12Z</time>
      </trkpt>
      <trkpt lat="50.060094008222222" lon="1.375171998515725">
        <ele>6.39</ele>
        <time>2018-07-02T15:08:17Z</time>
      </trkpt>
      <trkpt lat="50.060396008193493" lon="1.373881017789245">
        <ele>6.87</ele>
        <time>2018-07-02T15:08:29Z</time>
      </trkpt>
      <trkpt lat="50.060733966529369" lon="1.372571010142565">
        <ele>6.87</ele>
        <time>2018-07-02T15:08:40Z</time>
      </trkpt>
      <trkpt lat="50.060881990939379" lon="1.372139006853104">
        <ele>7.83</ele>
        <time>2018-07-02T15:08:44Z</time>
      </trkpt>
      <trkpt lat="50.060920966789126" lon="1.372068012133241">
        <ele>7.83</ele>
        <time>2018-07-02T15:08:45Z</time>
      </trkpt>
      <trkpt lat="50.06099103949964" lon="1.371986959129572">
        <ele>7.83</ele>
        <time>2018-07-02T15:08:46Z</time>
      </trkpt>
      <trkpt lat="50.061051975935698" lon="1.371915964409709">
        <ele>7.83</ele>
        <time>2018-07-02T15:08:47Z</time>
      </trkpt>
      <trkpt lat="50.061114002019167" lon="1.371843963861466">
        <ele>8.310000000000001</ele>
        <time>2018-07-02T15:08:48Z</time>
      </trkpt>
      <trkpt lat="50.061178961768746" lon="1.371768023818731">
        <ele>8.310000000000001</ele>
        <time>2018-07-02T15:08:49Z</time>
      </trkpt>
      <trkpt lat="50.061273006722331" lon="1.371641959995031">
        <ele>8.789999999999999</ele>
        <time>2018-07-02T15:08:51Z</time>
      </trkpt>
      <trkpt lat="50.061318017542362" lon="1.371569959446788">
        <ele>8.789999999999999</ele>
        <time>2018-07-02T15:08:52Z</time>
      </trkpt>
      <trkpt lat="50.061839958652854" lon="1.370832016691566">
        <ele>10.23</ele>
        <time>2018-07-02T15:09:03Z</time>
      </trkpt>
      <trkpt lat="50.062100971117616" lon="1.370522975921631">
        <ele>10.710000000000001</ele>
        <time>2018-07-02T15:09:11Z</time>
      </trkpt>
      <trkpt lat="50.062090996652842" lon="1.370486011728644">
        <ele>10.710000000000001</ele>
        <time>2018-07-02T15:09:12Z</time>
      </trkpt>
      <trkpt lat="50.062078004702926" lon="1.37043597176671">
        <ele>10.23</ele>
        <time>2018-07-02T15:09:13Z</time>
      </trkpt>
      <trkpt lat="50.062061995267868" lon="1.370379980653524">
        <ele>9.27</ele>
        <time>2018-07-02T15:09:14Z</time>
      </trkpt>
      <trkpt lat="50.062041962519288" lon="1.37030596844852">
        <ele>8.789999999999999</ele>
        <time>2018-07-02T15:09:15Z</time>
      </trkpt>
      <trkpt lat="50.062021007761359" lon="1.370228016749024">
        <ele>8.310000000000001</ele>
        <time>2018-07-02T15:09:16Z</time>
      </trkpt>
      <trkpt lat="50.06200298666954" lon="1.370161967352033">
        <ele>8.310000000000001</ele>
        <time>2018-07-02T15:09:17Z</time>
      </trkpt>
      <trkpt lat="50.061993012204766" lon="1.370122991502285">
        <ele>7.83</ele>
        <time>2018-07-02T15:09:18Z</time>
      </trkpt>
      <trkpt lat="50.061935009434819" lon="1.370084015652537">
        <ele>7.83</ele>
        <time>2018-07-02T15:09:19Z</time>
      </trkpt>
      <trkpt lat="50.061900978907943" lon="1.370113017037511">
        <ele>7.83</ele>
        <time>2018-07-02T15:09:20Z</time>
      </trkpt>
      <trkpt lat="50.061859991401434" lon="1.370148975402117">
        <ele>7.83</ele>
        <time>2018-07-02T15:09:21Z</time>
      </trkpt>
      <trkpt lat="50.061800982803106" lon="1.370201027020812">
        <ele>7.83</ele>
        <time>2018-07-02T15:09:22Z</time>
      </trkpt>
      <trkpt lat="50.061778016388416" lon="1.370209995657206">
        <ele>7.83</ele>
        <time>2018-07-02T15:09:23Z</time>
      </trkpt>
      <trkpt lat="50.06174398586154" lon="1.370223993435502">
        <ele>7.83</ele>
        <time>2018-07-02T15:09:24Z</time>
      </trkpt>
      <trkpt lat="50.061723031103611" lon="1.370232040062547">
        <ele>7.83</ele>
        <time>2018-07-02T15:09:25Z</time>
      </trkpt>
      <trkpt lat="50.06170098669827" lon="1.37024100869894">
        <ele>7.83</ele>
        <time>2018-07-02T15:09:26Z</time>
      </trkpt>
      <trkpt lat="50.061694029718637" lon="1.370244026184082">
        <ele>7.83</ele>
        <time>2018-07-02T15:09:27Z</time>
      </trkpt>
      <trkpt lat="50.061694029718637" lon="1.370244026184082">
        <ele>7.83</ele>
        <time>2018-07-02T15:09:28Z</time>
      </trkpt>
      <trkpt lat="50.061648013070226" lon="1.370289959013462">
        <ele>7.83</ele>
        <time>2018-07-02T15:09:29Z</time>
      </trkpt>
      <trkpt lat="50.061626974493265" lon="1.370309991762042">
        <ele>7.83</ele>
        <time>2018-07-02T15:09:30Z</time>
      </trkpt>
      <trkpt lat="50.061483979225159" lon="1.370443012565374">
        <ele>9.75</ele>
        <time>2018-07-02T15:09:36Z</time>
      </trkpt>
      <trkpt lat="50.061454977840185" lon="1.370468996465206">
        <ele>10.23</ele>
        <time>2018-07-02T15:09:37Z</time>
      </trkpt>
      <trkpt lat="50.061426982283592" lon="1.370492968708277">
        <ele>10.23</ele>
        <time>2018-07-02T15:09:38Z</time>
      </trkpt>
      <trkpt lat="50.061393035575747" lon="1.370522975921631">
        <ele>10.23</ele>
        <time>2018-07-02T15:09:39Z</time>
      </trkpt>
      <trkpt lat="50.061368979513645" lon="1.370547031983733">
        <ele>10.710000000000001</ele>
        <time>2018-07-02T15:09:40Z</time>
      </trkpt>
      <trkpt lat="50.061326986178756" lon="1.370589025318623">
        <ele>10.710000000000001</ele>
        <time>2018-07-02T15:09:41Z</time>
      </trkpt>
      <trkpt lat="50.061285998672247" lon="1.370630012825131">
        <ele>10.710000000000001</ele>
        <time>2018-07-02T15:09:42Z</time>
      </trkpt>
      <trkpt lat="50.061285998672247" lon="1.370630012825131">
        <ele>11.19</ele>
        <time>2018-07-02T15:09:43Z</time>
      </trkpt>
      <trkpt lat="50.061115007847548" lon="1.370840985327959">
        <ele>12.15</ele>
        <time>2018-07-02T15:09:49Z</time>
      </trkpt>
      <trkpt lat="50.061092963442206" lon="1.37086596339941">
        <ele>12.15</ele>
        <time>2018-07-02T15:09:50Z</time>
      </trkpt>
      <trkpt lat="50.061115007847548" lon="1.371136028319597">
        <ele>10.710000000000001</ele>
        <time>2018-07-02T15:09:55Z</time>
      </trkpt>
      <trkpt lat="50.06111903116107" lon="1.371193025261164">
        <ele>10.710000000000001</ele>
        <time>2018-07-02T15:09:56Z</time>
      </trkpt>
      <trkpt lat="50.061123976483941" lon="1.371256979182363">
        <ele>10.23</ele>
        <time>2018-07-02T15:09:57Z</time>
      </trkpt>
      <trkpt lat="50.061130011454225" lon="1.371324034407735">
        <ele>9.75</ele>
        <time>2018-07-02T15:09:58Z</time>
      </trkpt>
      <trkpt lat="50.061135040596128" lon="1.371387988328934">
        <ele>8.789999999999999</ele>
        <time>2018-07-02T15:09:59Z</time>
      </trkpt>
      <trkpt lat="50.061145015060902" lon="1.371436016634107">
        <ele>8.310000000000001</ele>
        <time>2018-07-02T15:10:00Z</time>
      </trkpt>
      <trkpt lat="50.061157001182437" lon="1.371483039110899">
        <ele>7.83</ele>
        <time>2018-07-02T15:10:01Z</time>
      </trkpt>
      <trkpt lat="50.061157001182437" lon="1.37157398276031">
        <ele>7.35</ele>
        <time>2018-07-02T15:10:02Z</time>
      </trkpt>
      <trkpt lat="50.061158007010818" lon="1.371580017730594">
        <ele>7.35</ele>
        <time>2018-07-02T15:10:03Z</time>
      </trkpt>
      <trkpt lat="50.061161024495959" lon="1.371608013287187">
        <ele>7.35</ele>
        <time>2018-07-02T15:10:04Z</time>
      </trkpt>
      <trkpt lat="50.06116496399045" lon="1.371642965823412">
        <ele>6.87</ele>
        <time>2018-07-02T15:10:09Z</time>
      </trkpt>
      <trkpt lat="50.061178961768746" lon="1.371768023818731">
        <ele>7.35</ele>
        <time>2018-07-02T15:10:10Z</time>
      </trkpt>
      <trkpt lat="50.06111903116107" lon="1.371837006881833">
        <ele>7.35</ele>
        <time>2018-07-02T15:10:12Z</time>
      </trkpt>
      <trkpt lat="50.061083994805813" lon="1.371877994388342">
        <ele>7.35</ele>
        <time>2018-07-02T15:10:13Z</time>
      </trkpt>
      <trkpt lat="50.060856007039547" lon="1.372185023501515">
        <ele>8.789999999999999</ele>
        <time>2018-07-02T15:10:20Z</time>
      </trkpt>
      <trkpt lat="50.060814013704658" lon="1.37226096354425">
        <ele>8.789999999999999</ele>
        <time>2018-07-02T15:10:21Z</time>
      </trkpt>
      <trkpt lat="50.0607980042696" lon="1.372322989627719">
        <ele>9.27</ele>
        <time>2018-07-02T15:10:22Z</time>
      </trkpt>
      <trkpt lat="50.060775959864259" lon="1.372407982125878">
        <ele>9.75</ele>
        <time>2018-07-02T15:10:23Z</time>
      </trkpt>
      <trkpt lat="50.060753999277949" lon="1.372491968795657">
        <ele>9.75</ele>
        <time>2018-07-02T15:10:24Z</time>
      </trkpt>
      <trkpt lat="50.060731032863259" lon="1.37258199043572">
        <ele>10.23</ele>
        <time>2018-07-02T15:10:25Z</time>
      </trkpt>
      <trkpt lat="50.060470020398498" lon="1.373596033081412">
        <ele>10.710000000000001</ele>
        <time>2018-07-02T15:10:38Z</time>
      </trkpt>
      <trkpt lat="50.060416040942073" lon="1.373804993927479">
        <ele>10.23</ele>
        <time>2018-07-02T15:10:41Z</time>
      </trkpt>
      <trkpt lat="50.060401037335396" lon="1.373861990869045">
        <ele>10.710000000000001</ele>
        <time>2018-07-02T15:10:42Z</time>
      </trkpt>
      <trkpt lat="50.060358038172126" lon="1.374028958380222">
        <ele>10.23</ele>
        <time>2018-07-02T15:10:46Z</time>
      </trkpt>
      <trkpt lat="50.060353009030223" lon="1.374048991128802">
        <ele>10.23</ele>
        <time>2018-07-02T15:10:47Z</time>
      </trkpt>
      <trkpt lat="50.060299029573798" lon="1.373962992802262">
        <ele>9.75</ele>
        <time>2018-07-02T15:10:49Z</time>
      </trkpt>
      <trkpt lat="50.060299029573798" lon="1.373925022780895">
        <ele>9.27</ele>
        <time>2018-07-02T15:10:50Z</time>
      </trkpt>
      <trkpt lat="50.060299029573798" lon="1.373885041102767">
        <ele>9.27</ele>
        <time>2018-07-02T15:10:51Z</time>
      </trkpt>
      <trkpt lat="50.060299029573798" lon="1.373840030282736">
        <ele>9.27</ele>
        <time>2018-07-02T15:10:52Z</time>
      </trkpt>
      <trkpt lat="50.06030498072505" lon="1.37378697283566">
        <ele>9.27</ele>
        <time>2018-07-02T15:10:53Z</time>
      </trkpt>
      <trkpt lat="50.060315039008856" lon="1.373728970065713">
        <ele>9.75</ele>
        <time>2018-07-02T15:10:54Z</time>
      </trkpt>
      <trkpt lat="50.06032501347363" lon="1.373665016144514">
        <ele>9.75</ele>
        <time>2018-07-02T15:10:55Z</time>
      </trkpt>
      <trkpt lat="50.060363989323378" lon="1.373426970094442">
        <ele>11.19</ele>
        <time>2018-07-02T15:10:58Z</time>
      </trkpt>
      <trkpt lat="50.060462979599833" lon="1.372803021222353">
        <ele>14.08</ele>
        <time>2018-07-02T15:11:06Z</time>
      </trkpt>
      <trkpt lat="50.060470020398498" lon="1.372761027887464">
        <ele>14.56</ele>
        <time>2018-07-02T15:11:07Z</time>
      </trkpt>
      <trkpt lat="50.060455016791821" lon="1.372742000967264">
        <ele>15.52</ele>
        <time>2018-07-02T15:11:08Z</time>
      </trkpt>
      <trkpt lat="50.060419980436563" lon="1.372715011239052">
        <ele>15.52</ele>
        <time>2018-07-02T15:11:09Z</time>
      </trkpt>
      <trkpt lat="50.060377987101674" lon="1.372680980712175">
        <ele>15.52</ele>
        <time>2018-07-02T15:11:10Z</time>
      </trkpt>
      <trkpt lat="50.060329036787152" lon="1.372642004862428">
        <ele>16</ele>
        <time>2018-07-02T15:11:11Z</time>
      </trkpt>
      <trkpt lat="50.060278996825218" lon="1.37260302901268">
        <ele>16</ele>
        <time>2018-07-02T15:11:12Z</time>
      </trkpt>
      <trkpt lat="50.060229040682316" lon="1.372563969343901">
        <ele>16</ele>
        <time>2018-07-02T15:11:13Z</time>
      </trkpt>
      <trkpt lat="50.060184029862285" lon="1.372528010979295">
        <ele>16</ele>
        <time>2018-07-02T15:11:14Z</time>
      </trkpt>
      <trkpt lat="50.059990994632244" lon="1.372375041246414">
        <ele>16.960000000000001</ele>
        <time>2018-07-02T15:11:18Z</time>
      </trkpt>
      <trkpt lat="50.059930980205536" lon="1.372334975749254">
        <ele>16.48</ele>
        <time>2018-07-02T15:11:19Z</time>
      </trkpt>
      <trkpt lat="50.059868032112718" lon="1.372303040698171">
        <ele>16.48</ele>
        <time>2018-07-02T15:11:20Z</time>
      </trkpt>
      <trkpt lat="50.059802988544106" lon="1.372271021828055">
        <ele>16.48</ele>
        <time>2018-07-02T15:11:21Z</time>
      </trkpt>
      <trkpt lat="50.059743979945779" lon="1.372241014614701">
        <ele>16.48</ele>
        <time>2018-07-02T15:11:22Z</time>
      </trkpt>
      <trkpt lat="50.059687988832593" lon="1.372213019058108">
        <ele>16.48</ele>
        <time>2018-07-02T15:11:23Z</time>
      </trkpt>
      <trkpt lat="50.059635015204549" lon="1.372186029329896">
        <ele>16.48</ele>
        <time>2018-07-02T15:11:24Z</time>
      </trkpt>
      <trkpt lat="50.059587992727757" lon="1.372162979096174">
        <ele>16.48</ele>
        <time>2018-07-02T15:11:25Z</time>
      </trkpt>
      <trkpt lat="50.059526972472668" lon="1.3720459677279">
        <ele>16.48</ele>
        <time>2018-07-02T15:11:26Z</time>
      </trkpt>
      <trkpt lat="50.059514986351132" lon="1.372036999091506">
        <ele>16.48</ele>
        <time>2018-07-02T15:11:27Z</time>
      </trkpt>
      <trkpt lat="50.059476010501385" lon="1.372001962736249">
        <ele>16.48</ele>
        <time>2018-07-02T15:11:28Z</time>
      </trkpt>
      <trkpt lat="50.059439968317747" lon="1.371971033513546">
        <ele>16.48</ele>
        <time>2018-07-02T15:11:29Z</time>
      </trkpt>
      <trkpt lat="50.059403004124761" lon="1.37193800881505">
        <ele>16.48</ele>
        <time>2018-07-02T15:11:30Z</time>
      </trkpt>
      <trkpt lat="50.059364028275013" lon="1.371904984116554">
        <ele>16.48</ele>
        <time>2018-07-02T15:11:31Z</time>
      </trkpt>
      <trkpt lat="50.059322034940124" lon="1.371867014095187">
        <ele>16.960000000000001</ele>
        <time>2018-07-02T15:11:32Z</time>
      </trkpt>
      <trkpt lat="50.059124976396561" lon="1.371718989685178">
        <ele>17.920000000000002</ele>
        <time>2018-07-02T15:11:35Z</time>
      </trkpt>
      <trkpt lat="50.059049958363175" lon="1.371683031320572">
        <ele>18.879999999999999</ele>
        <time>2018-07-02T15:11:36Z</time>
      </trkpt>
      <trkpt lat="50.058982986956835" lon="1.371650006622076">
        <ele>19.359999999999999</ele>
        <time>2018-07-02T15:11:37Z</time>
      </trkpt>
      <trkpt lat="50.058917021378875" lon="1.371618993580341">
        <ele>19.359999999999999</ele>
        <time>2018-07-02T15:11:38Z</time>
      </trkpt>
      <trkpt lat="50.058846026659012" lon="1.371584963053465">
        <ele>19.84</ele>
        <time>2018-07-02T15:11:39Z</time>
      </trkpt>
      <trkpt lat="50.058706970885396" lon="1.371518997475505">
        <ele>20.809999999999999</ele>
        <time>2018-07-02T15:11:41Z</time>
      </trkpt>
      <trkpt lat="50.058636981993914" lon="1.371481027454138">
        <ele>21.289999999999999</ele>
        <time>2018-07-02T15:11:42Z</time>
      </trkpt>
      <trkpt lat="50.058561963960528" lon="1.371440039947629">
        <ele>21.77</ele>
        <time>2018-07-02T15:11:43Z</time>
      </trkpt>
      <trkpt lat="50.058486023917794" lon="1.371397962793708">
        <ele>22.25</ele>
        <time>2018-07-02T15:11:44Z</time>
      </trkpt>
      <trkpt lat="50.058404970914125" lon="1.371353035792708">
        <ele>22.25</ele>
        <time>2018-07-02T15:11:45Z</time>
      </trkpt>
      <trkpt lat="50.057508023455739" lon="1.370877027511597">
        <ele>25.609999999999999</ele>
        <time>2018-07-02T15:11:55Z</time>
      </trkpt>
      <trkpt lat="50.05733703263104" lon="1.37084299698472">
        <ele>28.98</ele>
        <time>2018-07-02T15:11:57Z</time>
      </trkpt>
      <trkpt lat="50.057255979627371" lon="1.370831010863185">
        <ele>30.899999999999999</ele>
        <time>2018-07-02T15:11:58Z</time>
      </trkpt>
      <trkpt lat="50.05716897547245" lon="1.370824975892901">
        <ele>32.340000000000003</ele>
        <time>2018-07-02T15:11:59Z</time>
      </trkpt>
      <trkpt lat="50.057075014337897" lon="1.370830005034804">
        <ele>33.780000000000001</ele>
        <time>2018-07-02T15:12:00Z</time>
      </trkpt>
      <trkpt lat="50.056978035718203" lon="1.370834028348327">
        <ele>35.229999999999997</ele>
        <time>2018-07-02T15:12:01Z</time>
      </trkpt>
      <trkpt lat="50.056746024638414" lon="1.370845008641481">
        <ele>39.07</ele>
        <time>2018-07-02T15:12:04Z</time>
      </trkpt>
      <trkpt lat="50.056688021868467" lon="1.370848026126623">
        <ele>40.030000000000001</ele>
        <time>2018-07-02T15:12:05Z</time>
      </trkpt>
      <trkpt lat="50.056635970249772" lon="1.370850037783384">
        <ele>40.990000000000002</ele>
        <time>2018-07-02T15:12:06Z</time>
      </trkpt>
      <trkpt lat="50.056590959429741" lon="1.370852971449494">
        <ele>42.439999999999998</ele>
        <time>2018-07-02T15:12:07Z</time>
      </trkpt>
      <trkpt lat="50.056555001065135" lon="1.370853977277875">
        <ele>43.399999999999999</ele>
        <time>2018-07-02T15:12:08Z</time>
      </trkpt>
      <trkpt lat="50.056426003575325" lon="1.370861018076539">
        <ele>47.240000000000002</ele>
        <time>2018-07-02T15:12:17Z</time>
      </trkpt>
      <trkpt lat="50.055845975875854" lon="1.370910974219441">
        <ele>50.130000000000003</ele>
        <time>2018-07-02T15:12:24Z</time>
      </trkpt>
      <trkpt lat="50.054935030639172" lon="1.370999990031123">
        <ele>53.969999999999999</ele>
        <time>2018-07-02T15:12:34Z</time>
      </trkpt>
      <trkpt lat="50.054756999015808" lon="1.3710149936378">
        <ele>55.409999999999997</ele>
        <time>2018-07-02T15:12:36Z</time>
      </trkpt>
      <trkpt lat="50.054667983204126" lon="1.370993033051491">
        <ele>55.890000000000001</ele>
        <time>2018-07-02T15:12:37Z</time>
      </trkpt>
      <trkpt lat="50.054577961564064" lon="1.370969982817769">
        <ele>56.859999999999999</ele>
        <time>2018-07-02T15:12:38Z</time>
      </trkpt>
      <trkpt lat="50.05439699627459" lon="1.370908040553331">
        <ele>58.299999999999997</ele>
        <time>2018-07-02T15:12:40Z</time>
      </trkpt>
      <trkpt lat="50.05433103069663" lon="1.37084199115634">
        <ele>58.780000000000001</ele>
        <time>2018-07-02T15:12:41Z</time>
      </trkpt>
      <trkpt lat="50.054273027926683" lon="1.370783988386393">
        <ele>59.259999999999998</ele>
        <time>2018-07-02T15:12:42Z</time>
      </trkpt>
      <trkpt lat="50.054218964651227" lon="1.370730008929968">
        <ele>60.219999999999999</ele>
        <time>2018-07-02T15:12:43Z</time>
      </trkpt>
      <trkpt lat="50.054195998236537" lon="1.370641998946667">
        <ele>61.18</ele>
        <time>2018-07-02T15:12:44Z</time>
      </trkpt>
      <trkpt lat="50.054184012115002" lon="1.370544014498591">
        <ele>62.619999999999997</ele>
        <time>2018-07-02T15:12:45Z</time>
      </trkpt>
      <trkpt lat="50.054203039035201" lon="1.370473019778729">
        <ele>63.579999999999998</ele>
        <time>2018-07-02T15:12:46Z</time>
      </trkpt>
      <trkpt lat="50.054218964651227" lon="1.370410993695259">
        <ele>64.549999999999997</ele>
        <time>2018-07-02T15:12:47Z</time>
      </trkpt>
      <trkpt lat="50.054231034591794" lon="1.370364977046847">
        <ele>65.989999999999995</ele>
        <time>2018-07-02T15:12:48Z</time>
      </trkpt>
      <trkpt lat="50.054231034591794" lon="1.370364977046847">
        <ele>67.430000000000007</ele>
        <time>2018-07-02T15:12:56Z</time>
      </trkpt>
      <trkpt lat="50.054231034591794" lon="1.370364977046847">
        <ele>67.430000000000007</ele>
        <time>2018-07-02T15:13:00Z</time>
      </trkpt>
      <trkpt lat="50.054243020713329" lon="1.370321977883577">
        <ele>69.349999999999994</ele>
        <time>2018-07-02T15:13:01Z</time>
      </trkpt>
      <trkpt lat="50.054208990186453" lon="1.370246037840843">
        <ele>70.310000000000002</ele>
        <time>2018-07-02T15:13:02Z</time>
      </trkpt>
      <trkpt lat="50.054186023771763" lon="1.370255006477237">
        <ele>71.269999999999996</ele>
        <time>2018-07-02T15:13:03Z</time>
      </trkpt>
      <trkpt lat="50.054155010730028" lon="1.370266992598772">
        <ele>71.760000000000005</ele>
        <time>2018-07-02T15:13:04Z</time>
      </trkpt>
      <trkpt lat="50.054122991859913" lon="1.370278978720307">
        <ele>72.239999999999995</ele>
        <time>2018-07-02T15:13:05Z</time>
      </trkpt>
      <trkpt lat="50.054098013788462" lon="1.370288031175733">
        <ele>72.239999999999995</ele>
        <time>2018-07-02T15:13:06Z</time>
      </trkpt>
      <trkpt lat="50.053976979106665" lon="1.370300017297268">
        <ele>73.680000000000007</ele>
        <time>2018-07-02T15:13:11Z</time>
      </trkpt>
      <trkpt lat="50.053952001035213" lon="1.370243020355701">
        <ele>73.680000000000007</ele>
        <time>2018-07-02T15:13:12Z</time>
      </trkpt>
      <trkpt lat="50.053917970508337" lon="1.370165990665555">
        <ele>73.200000000000003</ele>
        <time>2018-07-02T15:13:13Z</time>
      </trkpt>
      <trkpt lat="50.053371973335743" lon="1.369507005438209">
        <ele>74.159999999999997</ele>
        <time>2018-07-02T15:13:21Z</time>
      </trkpt>
      <trkpt lat="50.053181033581495" lon="1.369320005178452">
        <ele>74.640000000000001</ele>
        <time>2018-07-02T15:13:23Z</time>
      </trkpt>
      <trkpt lat="50.053078019991517" lon="1.369219003245235">
        <ele>74.640000000000001</ele>
        <time>2018-07-02T15:13:24Z</time>
      </trkpt>
      <trkpt lat="50.05203296430409" lon="1.368029024451971">
        <ele>78</ele>
        <time>2018-07-02T15:13:34Z</time>
      </trkpt>
      <trkpt lat="50.051830960437655" lon="1.367789972573519">
        <ele>79.450000000000003</ele>
        <time>2018-07-02T15:13:36Z</time>
      </trkpt>
      <trkpt lat="50.051720989868045" lon="1.367689976468682">
        <ele>79.930000000000007</ele>
        <time>2018-07-02T15:13:37Z</time>
      </trkpt>
      <trkpt lat="50.051598027348518" lon="1.367615964263678">
        <ele>80.890000000000001</ele>
        <time>2018-07-02T15:13:38Z</time>
      </trkpt>
      <trkpt lat="50.051457965746522" lon="1.367540024220944">
        <ele>81.849999999999994</ele>
        <time>2018-07-02T15:13:39Z</time>
      </trkpt>
      <trkpt lat="50.051331985741854" lon="1.367499036714435">
        <ele>82.810000000000002</ele>
        <time>2018-07-02T15:13:40Z</time>
      </trkpt>
      <trkpt lat="50.049384031444788" lon="1.366875004023314">
        <ele>93.390000000000001</ele>
        <time>2018-07-02T15:13:53Z</time>
      </trkpt>
      <trkpt lat="50.048736026510596" lon="1.366679035127163">
        <ele>94.349999999999994</ele>
        <time>2018-07-02T15:13:59Z</time>
      </trkpt>
      <trkpt lat="50.047556022182107" lon="1.366301011294127">
        <ele>96.75</ele>
        <time>2018-07-02T15:14:15Z</time>
      </trkpt>
      <trkpt lat="50.047466000542045" lon="1.366272009909153">
        <ele>96.75</ele>
        <time>2018-07-02T15:14:16Z</time>
      </trkpt>
      <trkpt lat="50.047018993645906" lon="1.365976966917515">
        <ele>97.709999999999994</ele>
        <time>2018-07-02T15:14:21Z</time>
      </trkpt>
      <trkpt lat="50.046989992260933" lon="1.365946959704161">
        <ele>97.230000000000004</ele>
        <time>2018-07-02T15:14:22Z</time>
      </trkpt>
      <trkpt lat="50.046964008361101" lon="1.36592198163271">
        <ele>97.230000000000004</ele>
        <time>2018-07-02T15:14:23Z</time>
      </trkpt>
      <trkpt lat="50.046909023076296" lon="1.365866996347904">
        <ele>96.269999999999996</ele>
        <time>2018-07-02T15:14:25Z</time>
      </trkpt>
      <trkpt lat="50.046865018084645" lon="1.365831959992647">
        <ele>95.790000000000006</ele>
        <time>2018-07-02T15:14:26Z</time>
      </trkpt>
      <trkpt lat="50.046811960637569" lon="1.365791978314519">
        <ele>95.790000000000006</ele>
        <time>2018-07-02T15:14:27Z</time>
      </trkpt>
      <trkpt lat="50.046752030029893" lon="1.365745039656758">
        <ele>95.310000000000002</ele>
        <time>2018-07-02T15:14:28Z</time>
      </trkpt>
      <trkpt lat="50.046688998118043" lon="1.365697011351585">
        <ele>95.310000000000002</ele>
        <time>2018-07-02T15:14:29Z</time>
      </trkpt>
      <trkpt lat="50.045998999848962" lon="1.365165011957288">
        <ele>93.390000000000001</ele>
        <time>2018-07-02T15:14:36Z</time>
      </trkpt>
      <trkpt lat="50.044926032423973" lon="1.363999005407095">
        <ele>90.5</ele>
        <time>2018-07-02T15:14:47Z</time>
      </trkpt>
      <trkpt lat="50.044261012226343" lon="1.362934000790119">
        <ele>89.060000000000002</ele>
        <time>2018-07-02T15:14:55Z</time>
      </trkpt>
      <trkpt lat="50.044180965051055" lon="1.362794023007155">
        <ele>88.099999999999994</ele>
        <time>2018-07-02T15:14:56Z</time>
      </trkpt>
      <trkpt lat="50.043599009513855" lon="1.361692976206541">
        <ele>84.25</ele>
        <time>2018-07-02T15:15:03Z</time>
      </trkpt>
      <trkpt lat="50.042597958818078" lon="1.35964997112751">
        <ele>78.480000000000004</ele>
        <time>2018-07-02T15:15:15Z</time>
      </trkpt>
      <trkpt lat="50.041715009137988" lon="1.358352033421397">
        <ele>77.040000000000006</ele>
        <time>2018-07-02T15:15:25Z</time>
      </trkpt>
      <trkpt lat="50.04124796949327" lon="1.357486015185714">
        <ele>76.560000000000002</ele>
        <time>2018-07-02T15:15:32Z</time>
      </trkpt>
      <trkpt lat="50.041104974225163" lon="1.357099022716284">
        <ele>76.079999999999998</ele>
        <time>2018-07-02T15:15:35Z</time>
      </trkpt>
      <trkpt lat="50.041038002818823" lon="1.356878997758031">
        <ele>76.079999999999998</ele>
        <time>2018-07-02T15:15:39Z</time>
      </trkpt>
      <trkpt lat="50.041016964241862" lon="1.35681202635169">
        <ele>75.599999999999994</ele>
        <time>2018-07-02T15:15:40Z</time>
      </trkpt>
      <trkpt lat="50.04098997451365" lon="1.356724016368389">
        <ele>75.599999999999994</ele>
        <time>2018-07-02T15:15:41Z</time>
      </trkpt>
      <trkpt lat="50.040667019784451" lon="1.355826985090971">
        <ele>72.719999999999999</ele>
        <time>2018-07-02T15:15:47Z</time>
      </trkpt>
      <trkpt lat="50.039900997653604" lon="1.353895040228963">
        <ele>70.310000000000002</ele>
        <time>2018-07-02T15:15:56Z</time>
      </trkpt>
      <trkpt lat="50.039000026881695" lon="1.351853040978313">
        <ele>66.469999999999999</ele>
        <time>2018-07-02T15:16:04Z</time>
      </trkpt>
      <trkpt lat="50.038155969232321" lon="1.350596006959677">
        <ele>61.659999999999997</ele>
        <time>2018-07-02T15:16:10Z</time>
      </trkpt>
      <trkpt lat="50.038054967299104" lon="1.350371958687902">
        <ele>60.700000000000003</ele>
        <time>2018-07-02T15:16:11Z</time>
      </trkpt>
      <trkpt lat="50.03797902725637" lon="1.350136008113623">
        <ele>60.219999999999999</ele>
        <time>2018-07-02T15:16:12Z</time>
      </trkpt>
      <trkpt lat="50.037904009222984" lon="1.349900979548693">
        <ele>59.259999999999998</ele>
        <time>2018-07-02T15:16:13Z</time>
      </trkpt>
      <trkpt lat="50.037862015888095" lon="1.349640972912312">
        <ele>58.299999999999997</ele>
        <time>2018-07-02T15:16:14Z</time>
      </trkpt>
      <trkpt lat="50.037822034209967" lon="1.349371997639537">
        <ele>57.340000000000003</ele>
        <time>2018-07-02T15:16:15Z</time>
      </trkpt>
      <trkpt lat="50.037790015339851" lon="1.349096987396479">
        <ele>56.859999999999999</ele>
        <time>2018-07-02T15:16:16Z</time>
      </trkpt>
      <trkpt lat="50.037790015339851" lon="1.348815020173788">
        <ele>55.890000000000001</ele>
        <time>2018-07-02T15:16:17Z</time>
      </trkpt>
      <trkpt lat="50.037790015339851" lon="1.348535986617208">
        <ele>54.450000000000003</ele>
        <time>2018-07-02T15:16:18Z</time>
      </trkpt>
      <trkpt lat="50.037792026996613" lon="1.348263993859291">
        <ele>53.490000000000002</ele>
        <time>2018-07-02T15:16:19Z</time>
      </trkpt>
      <trkpt lat="50.037849023938179" lon="1.348014967516065">
        <ele>52.049999999999997</ele>
        <time>2018-07-02T15:16:20Z</time>
      </trkpt>
      <trkpt lat="50.037907026708126" lon="1.347762001678348">
        <ele>51.57</ele>
        <time>2018-07-02T15:16:21Z</time>
      </trkpt>
      <trkpt lat="50.037967041134834" lon="1.347504006698728">
        <ele>51.090000000000003</ele>
        <time>2018-07-02T15:16:22Z</time>
      </trkpt>
      <trkpt lat="50.038307011127472" lon="1.345893004909158">
        <ele>48.200000000000003</ele>
        <time>2018-07-02T15:16:28Z</time>
      </trkpt>
      <trkpt lat="50.038483031094074" lon="1.34420002810657">
        <ele>46.280000000000001</ele>
        <time>2018-07-02T15:16:36Z</time>
      </trkpt>
      <trkpt lat="50.038786958903074" lon="1.342407977208495">
        <ele>43.880000000000003</ele>
        <time>2018-07-02T15:16:48Z</time>
      </trkpt>
      <trkpt lat="50.038826018571854" lon="1.34218099527061">
        <ele>43.880000000000003</ele>
        <time>2018-07-02T15:16:50Z</time>
      </trkpt>
      <trkpt lat="50.038841022178531" lon="1.342091979458928">
        <ele>43.399999999999999</ele>
        <time>2018-07-02T15:16:51Z</time>
      </trkpt>
      <trkpt lat="50.038852002471685" lon="1.34202903136611">
        <ele>43.399999999999999</ele>
        <time>2018-07-02T15:16:52Z</time>
      </trkpt>
      <trkpt lat="50.038786036893725" lon="1.34194403886795">
        <ele>42.920000000000002</ele>
        <time>2018-07-02T15:16:53Z</time>
      </trkpt>
      <trkpt lat="50.03869098611176" lon="1.341919982805848">
        <ele>42.920000000000002</ele>
        <time>2018-07-02T15:16:54Z</time>
      </trkpt>
      <trkpt lat="50.038640024140477" lon="1.341886958107352">
        <ele>42.439999999999998</ele>
        <time>2018-07-02T15:16:55Z</time>
      </trkpt>
      <trkpt lat="50.038558971136808" lon="1.341833984479308">
        <ele>42.439999999999998</ele>
        <time>2018-07-02T15:16:56Z</time>
      </trkpt>
      <trkpt lat="50.038471966981888" lon="1.341776987537742">
        <ele>41.950000000000003</ele>
        <time>2018-07-02T15:16:57Z</time>
      </trkpt>
      <trkpt lat="50.03789302892983" lon="1.341403992846608">
        <ele>42.439999999999998</ele>
        <time>2018-07-02T15:17:03Z</time>
      </trkpt>
      <trkpt lat="50.037783980369568" lon="1.341380020603538">
        <ele>42.920000000000002</ele>
        <time>2018-07-02T15:17:04Z</time>
      </trkpt>
      <trkpt lat="50.037677027285099" lon="1.341361999511719">
        <ele>42.920000000000002</ele>
        <time>2018-07-02T15:17:05Z</time>
      </trkpt>
      <trkpt lat="50.037568984553218" lon="1.341375997290015">
        <ele>43.399999999999999</ele>
        <time>2018-07-02T15:17:06Z</time>
      </trkpt>
      <trkpt lat="50.037460019811988" lon="1.341410027816892">
        <ele>43.399999999999999</ele>
        <time>2018-07-02T15:17:07Z</time>
      </trkpt>
      <trkpt lat="50.037362035363913" lon="1.341475993394852">
        <ele>43.399999999999999</ele>
        <time>2018-07-02T15:17:08Z</time>
      </trkpt>
      <trkpt lat="50.037262039259076" lon="1.341541958972812">
        <ele>42.920000000000002</ele>
        <time>2018-07-02T15:17:09Z</time>
      </trkpt>
      <trkpt lat="50.037077972665429" lon="1.34166500531137">
        <ele>42.439999999999998</ele>
        <time>2018-07-02T15:17:11Z</time>
      </trkpt>
      <trkpt lat="50.036977976560593" lon="1.341731976717711">
        <ele>42.439999999999998</ele>
        <time>2018-07-02T15:17:12Z</time>
      </trkpt>
      <trkpt lat="50.036298036575317" lon="1.342240003868938">
        <ele>43.399999999999999</ele>
        <time>2018-07-02T15:17:17Z</time>
      </trkpt>
      <trkpt lat="50.035380972549319" lon="1.343004014343023">
        <ele>49.159999999999997</ele>
        <time>2018-07-02T15:17:23Z</time>
      </trkpt>
      <trkpt lat="50.035262033343315" lon="1.343172993510962">
        <ele>50.609999999999999</ele>
        <time>2018-07-02T15:17:24Z</time>
      </trkpt>
      <trkpt lat="50.035147033631802" lon="1.343366028741002">
        <ele>51.57</ele>
        <time>2018-07-02T15:17:25Z</time>
      </trkpt>
      <trkpt lat="50.035029016435146" lon="1.343563003465533">
        <ele>52.530000000000001</ele>
        <time>2018-07-02T15:17:26Z</time>
      </trkpt>
      <trkpt lat="50.034912005066872" lon="1.343758972361684">
        <ele>53.490000000000002</ele>
        <time>2018-07-02T15:17:27Z</time>
      </trkpt>
      <trkpt lat="50.033795032650232" lon="1.345455972477794">
        <ele>59.740000000000002</ele>
        <time>2018-07-02T15:17:35Z</time>
      </trkpt>
      <trkpt lat="50.031566033139825" lon="1.348434984683991">
        <ele>65.030000000000001</ele>
        <time>2018-07-02T15:17:48Z</time>
      </trkpt>
      <trkpt lat="50.03054603934288" lon="1.349737029522657">
        <ele>65.510000000000005</ele>
        <time>2018-07-02T15:17:55Z</time>
      </trkpt>
      <trkpt lat="50.02979502081871" lon="1.350663984194398">
        <ele>65.989999999999995</ele>
        <time>2018-07-02T15:18:03Z</time>
      </trkpt>
      <trkpt lat="50.029669040814042" lon="1.350804967805743">
        <ele>65.510000000000005</ele>
        <time>2018-07-02T15:18:05Z</time>
      </trkpt>
      <trkpt lat="50.029621012508869" lon="1.350858025252819">
        <ele>65.030000000000001</ele>
        <time>2018-07-02T15:18:06Z</time>
      </trkpt>
      <trkpt lat="50.029593016952276" lon="1.350889038294554">
        <ele>65.030000000000001</ele>
        <time>2018-07-02T15:18:07Z</time>
      </trkpt>
      <trkpt lat="50.029593016952276" lon="1.350889038294554">
        <ele>65.030000000000001</ele>
        <time>2018-07-02T15:18:08Z</time>
      </trkpt>
      <trkpt lat="50.02945002168417" lon="1.350928014144301">
        <ele>64.549999999999997</ele>
        <time>2018-07-02T15:18:09Z</time>
      </trkpt>
      <trkpt lat="50.029426971450448" lon="1.350867999717593">
        <ele>64.549999999999997</ele>
        <time>2018-07-02T15:18:10Z</time>
      </trkpt>
      <trkpt lat="50.029397970065475" lon="1.350788036361337">
        <ele>64.549999999999997</ele>
        <time>2018-07-02T15:18:11Z</time>
      </trkpt>
      <trkpt lat="50.029362011700869" lon="1.35068703442812">
        <ele>64.549999999999997</ele>
        <time>2018-07-02T15:18:12Z</time>
      </trkpt>
      <trkpt lat="50.029306020587683" lon="1.350585026666522">
        <ele>64.069999999999993</ele>
        <time>2018-07-02T15:18:13Z</time>
      </trkpt>
      <trkpt lat="50.028620967641473" lon="1.349611971527338">
        <ele>64.549999999999997</ele>
        <time>2018-07-02T15:18:20Z</time>
      </trkpt>
      <trkpt lat="50.027448004111648" lon="1.348813008517027">
        <ele>62.140000000000001</ele>
        <time>2018-07-02T15:18:27Z</time>
      </trkpt>
      <trkpt lat="50.025731977075338" lon="1.347754960879684">
        <ele>57.340000000000003</ele>
        <time>2018-07-02T15:18:36Z</time>
      </trkpt>
      <trkpt lat="50.0255629979074" lon="1.347605008631945">
        <ele>56.859999999999999</ele>
        <time>2018-07-02T15:18:37Z</time>
      </trkpt>
      <trkpt lat="50.02541002817452" lon="1.347415996715426">
        <ele>55.890000000000001</ele>
        <time>2018-07-02T15:18:38Z</time>
      </trkpt>
      <trkpt lat="50.025264015421271" lon="1.347213992848992">
        <ele>54.93</ele>
        <time>2018-07-02T15:18:39Z</time>
      </trkpt>
      <trkpt lat="50.025138035416603" lon="1.346977958455682">
        <ele>54.450000000000003</ele>
        <time>2018-07-02T15:18:40Z</time>
      </trkpt>
      <trkpt lat="50.025014989078045" lon="1.346733039245009">
        <ele>53.490000000000002</ele>
        <time>2018-07-02T15:18:41Z</time>
      </trkpt>
      <trkpt lat="50.024180989712477" lon="1.345355976372957">
        <ele>48.68</ele>
        <time>2018-07-02T15:18:48Z</time>
      </trkpt>
      <trkpt lat="50.023732976987958" lon="1.344849038869143">
        <ele>45.32</ele>
        <time>2018-07-02T15:18:53Z</time>
      </trkpt>
      <trkpt lat="50.02369299530983" lon="1.34475901722908">
        <ele>44.840000000000003</ele>
        <time>2018-07-02T15:18:54Z</time>
      </trkpt>
      <trkpt lat="50.023653013631701" lon="1.344667989760637">
        <ele>44.359999999999999</ele>
        <time>2018-07-02T15:18:55Z</time>
      </trkpt>
      <trkpt lat="50.02358503639698" lon="1.344516025856137">
        <ele>43.880000000000003</ele>
        <time>2018-07-02T15:18:56Z</time>
      </trkpt>
      <trkpt lat="50.023609008640051" lon="1.34437495842576">
        <ele>43.399999999999999</ele>
        <time>2018-07-02T15:18:57Z</time>
      </trkpt>
      <trkpt lat="50.023640021681786" lon="1.344184018671513">
        <ele>42.920000000000002</ele>
        <time>2018-07-02T15:18:58Z</time>
      </trkpt>
      <trkpt lat="50.023676985874772" lon="1.343962987884879">
        <ele>42.920000000000002</ele>
        <time>2018-07-02T15:18:59Z</time>
      </trkpt>
      <trkpt lat="50.023816041648388" lon="1.342495987191796">
        <ele>41.469999999999999</ele>
        <time>2018-07-02T15:19:04Z</time>
      </trkpt>
      <trkpt lat="50.023963982239366" lon="1.338718011975288">
        <ele>36.189999999999998</ele>
        <time>2018-07-02T15:19:14Z</time>
      </trkpt>
      <trkpt lat="50.0240140222013" lon="1.334802992641926">
        <ele>31.859999999999999</ele>
        <time>2018-07-02T15:19:24Z</time>
      </trkpt>
      <trkpt lat="50.023975968360901" lon="1.331797996535897">
        <ele>28.98</ele>
        <time>2018-07-02T15:19:33Z</time>
      </trkpt>
      <trkpt lat="50.023745968937874" lon="1.329461960121989">
        <ele>27.530000000000001</ele>
        <time>2018-07-02T15:19:41Z</time>
      </trkpt>
      <trkpt lat="50.023077009245753" lon="1.327515011653304">
        <ele>24.649999999999999</ele>
        <time>2018-07-02T15:19:49Z</time>
      </trkpt>
      <trkpt lat="50.022303024306893" lon="1.325719021260738">
        <ele>22.25</ele>
        <time>2018-07-02T15:19:59Z</time>
      </trkpt>
      <trkpt lat="50.021921982988715" lon="1.324625015258789">
        <ele>22.25</ele>
        <time>2018-07-02T15:20:06Z</time>
      </trkpt>
      <trkpt lat="50.021852999925613" lon="1.324494006112218">
        <ele>22.25</ele>
        <time>2018-07-02T15:20:07Z</time>
      </trkpt>
      <trkpt lat="50.021788040176034" lon="1.32436802610755">
        <ele>22.25</ele>
        <time>2018-07-02T15:20:08Z</time>
      </trkpt>
      <trkpt lat="50.021727019920945" lon="1.324250008910894">
        <ele>22.25</ele>
        <time>2018-07-02T15:20:09Z</time>
      </trkpt>
      <trkpt lat="50.021668011322618" lon="1.324136015027762">
        <ele>22.25</ele>
        <time>2018-07-02T15:20:10Z</time>
      </trkpt>
      <trkpt lat="50.021615037694573" lon="1.324025960639119">
        <ele>22.25</ele>
        <time>2018-07-02T15:20:11Z</time>
      </trkpt>
      <trkpt lat="50.021564997732639" lon="1.323906015604734">
        <ele>22.73</ele>
        <time>2018-07-02T15:20:12Z</time>
      </trkpt>
      <trkpt lat="50.02148000523448" lon="1.323796967044473">
        <ele>22.73</ele>
        <time>2018-07-02T15:20:13Z</time>
      </trkpt>
      <trkpt lat="50.02139400690794" lon="1.323771988973022">
        <ele>22.73</ele>
        <time>2018-07-02T15:20:14Z</time>
      </trkpt>
      <trkpt lat="50.021310020238161" lon="1.323821023106575">
        <ele>23.210000000000001</ele>
        <time>2018-07-02T15:20:15Z</time>
      </trkpt>
      <trkpt lat="50.021211029961705" lon="1.323869973421097">
        <ele>23.690000000000001</ele>
        <time>2018-07-02T15:20:16Z</time>
      </trkpt>
      <trkpt lat="50.021110028028488" lon="1.323856981471181">
        <ele>24.170000000000002</ele>
        <time>2018-07-02T15:20:17Z</time>
      </trkpt>
      <trkpt lat="50.020998967811465" lon="1.323814988136292">
        <ele>24.170000000000002</ele>
        <time>2018-07-02T15:20:18Z</time>
      </trkpt>
      <trkpt lat="50.020882962271571" lon="1.323756985366345">
        <ele>24.649999999999999</ele>
        <time>2018-07-02T15:20:19Z</time>
      </trkpt>
      <trkpt lat="50.020730998367071" lon="1.323680961504579">
        <ele>25.129999999999999</ele>
        <time>2018-07-02T15:20:20Z</time>
      </trkpt>
      <trkpt lat="50.020636031404138" lon="1.323605021461844">
        <ele>24.649999999999999</ele>
        <time>2018-07-02T15:20:21Z</time>
      </trkpt>
      <trkpt lat="50.020514996722341" lon="1.323507959023118">
        <ele>24.649999999999999</ele>
        <time>2018-07-02T15:20:22Z</time>
      </trkpt>
      <trkpt lat="50.020389016717672" lon="1.323407040908933">
        <ele>25.129999999999999</ele>
        <time>2018-07-02T15:20:23Z</time>
      </trkpt>
      <trkpt lat="50.020252978429198" lon="1.32331701926887">
        <ele>25.129999999999999</ele>
        <time>2018-07-02T15:20:24Z</time>
      </trkpt>
      <trkpt lat="50.019939998164773" lon="1.323226997628808">
        <ele>26.09</ele>
        <time>2018-07-02T15:20:26Z</time>
      </trkpt>
      <trkpt lat="50.019775964319706" lon="1.323220962658525">
        <ele>26.57</ele>
        <time>2018-07-02T15:20:27Z</time>
      </trkpt>
      <trkpt lat="50.018219025805593" lon="1.323133958503604">
        <ele>33.299999999999997</ele>
        <time>2018-07-02T15:20:35Z</time>
      </trkpt>
      <trkpt lat="50.016189012676477" lon="1.322983000427485">
        <ele>44.359999999999999</ele>
        <time>2018-07-02T15:20:44Z</time>
      </trkpt>
      <trkpt lat="50.014490000903606" lon="1.322944024577737">
        <ele>45.32</ele>
        <time>2018-07-02T15:20:53Z</time>
      </trkpt>
      <trkpt lat="50.012483960017562" lon="1.322806980460882">
        <ele>37.149999999999999</ele>
        <time>2018-07-02T15:21:03Z</time>
      </trkpt>
      <trkpt lat="50.011313008144498" lon="1.322310017421842">
        <ele>28.02</ele>
        <time>2018-07-02T15:21:09Z</time>
      </trkpt>
      <trkpt lat="50.011131959035993" lon="1.322190994396806">
        <ele>26.09</ele>
        <time>2018-07-02T15:21:10Z</time>
      </trkpt>
      <trkpt lat="50.010979995131493" lon="1.322018997743726">
        <ele>24.170000000000002</ele>
        <time>2018-07-02T15:21:11Z</time>
      </trkpt>
      <trkpt lat="50.010829959064722" lon="1.321849012747407">
        <ele>22.73</ele>
        <time>2018-07-02T15:21:12Z</time>
      </trkpt>
      <trkpt lat="50.010698027908802" lon="1.321651032194495">
        <ele>20.809999999999999</ele>
        <time>2018-07-02T15:21:13Z</time>
      </trkpt>
      <trkpt lat="50.010582022368908" lon="1.321470988914371">
        <ele>19.359999999999999</ele>
        <time>2018-07-02T15:21:14Z</time>
      </trkpt>
      <trkpt lat="50.010474985465407" lon="1.321234032511711">
        <ele>18.399999999999999</ele>
        <time>2018-07-02T15:21:15Z</time>
      </trkpt>
      <trkpt lat="50.010374989360571" lon="1.321013001725078">
        <ele>16.48</ele>
        <time>2018-07-02T15:21:16Z</time>
      </trkpt>
      <trkpt lat="50.010274993255734" lon="1.320783002302051">
        <ele>15.52</ele>
        <time>2018-07-02T15:21:17Z</time>
      </trkpt>
      <trkpt lat="50.010203998535872" lon="1.320527018979192">
        <ele>14.08</ele>
        <time>2018-07-02T15:21:18Z</time>
      </trkpt>
      <trkpt lat="50.010133003816009" lon="1.320268018171191">
        <ele>13.119999999999999</ele>
        <time>2018-07-02T15:21:19Z</time>
      </trkpt>
      <trkpt lat="50.010091010481119" lon="1.319996025413275">
        <ele>12.15</ele>
        <time>2018-07-02T15:21:20Z</time>
      </trkpt>
      <trkpt lat="50.010065026581287" lon="1.319723026826978">
        <ele>11.19</ele>
        <time>2018-07-02T15:21:21Z</time>
      </trkpt>
      <trkpt lat="50.010038958862424" lon="1.319457991048694">
        <ele>10.23</ele>
        <time>2018-07-02T15:21:22Z</time>
      </trkpt>
      <trkpt lat="50.010027978569269" lon="1.319204019382596">
        <ele>9.75</ele>
        <time>2018-07-02T15:21:23Z</time>
      </trkpt>
      <trkpt lat="50.010038958862424" lon="1.318964967504144">
        <ele>9.27</ele>
        <time>2018-07-02T15:21:24Z</time>
      </trkpt>
      <trkpt lat="50.010095033794641" lon="1.31852500140667">
        <ele>9.75</ele>
        <time>2018-07-02T15:21:26Z</time>
      </trkpt>
      <trkpt lat="50.010530976578593" lon="1.316360961645842">
        <ele>11.19</ele>
        <time>2018-07-02T15:21:36Z</time>
      </trkpt>
      <trkpt lat="50.011288030073047" lon="1.314583998173475">
        <ele>15.039999999999999</ele>
        <time>2018-07-02T15:21:44Z</time>
      </trkpt>
      <trkpt lat="50.011998983100057" lon="1.312778033316135">
        <ele>19.84</ele>
        <time>2018-07-02T15:21:51Z</time>
      </trkpt>
      <trkpt lat="50.012309029698372" lon="1.31051198579371">
        <ele>23.690000000000001</ele>
        <time>2018-07-02T15:21:58Z</time>
      </trkpt>
      <trkpt lat="50.012297965586185" lon="1.310161035507917">
        <ele>23.690000000000001</ele>
        <time>2018-07-02T15:21:59Z</time>
      </trkpt>
      <trkpt lat="50.01200401224196" lon="1.307750986889005">
        <ele>24.170000000000002</ele>
        <time>2018-07-02T15:22:06Z</time>
      </trkpt>
      <trkpt lat="50.011793961748481" lon="1.305378992110491">
        <ele>21.77</ele>
        <time>2018-07-02T15:22:14Z</time>
      </trkpt>
      <trkpt lat="50.011805025860667" lon="1.302587985992432">
        <ele>21.289999999999999</ele>
        <time>2018-07-02T15:22:23Z</time>
      </trkpt>
      <trkpt lat="50.011394983157516" lon="1.300691999495029">
        <ele>29.460000000000001</ele>
        <time>2018-07-02T15:22:30Z</time>
      </trkpt>
      <trkpt lat="50.010462999343872" lon="1.298819985240698">
        <ele>37.149999999999999</ele>
        <time>2018-07-02T15:22:38Z</time>
      </trkpt>
      <trkpt lat="50.008859038352966" lon="1.296888962388039">
        <ele>44.840000000000003</ele>
        <time>2018-07-02T15:22:48Z</time>
      </trkpt>
      <trkpt lat="50.007393965497613" lon="1.295094983652234">
        <ele>51.090000000000003</ele>
        <time>2018-07-02T15:22:57Z</time>
      </trkpt>
      <trkpt lat="50.006132991984487" lon="1.293188016861677">
        <ele>57.82</ele>
        <time>2018-07-02T15:23:05Z</time>
      </trkpt>
      <trkpt lat="50.004775039851665" lon="1.291972976177931">
        <ele>64.069999999999993</ele>
        <time>2018-07-02T15:23:12Z</time>
      </trkpt>
      <trkpt lat="50.002270024269819" lon="1.290020998567343">
        <ele>72.239999999999995</ele>
        <time>2018-07-02T15:23:25Z</time>
      </trkpt>
      <trkpt lat="50.001240978017449" lon="1.288428017869592">
        <ele>76.079999999999998</ele>
        <time>2018-07-02T15:23:32Z</time>
      </trkpt>
      <trkpt lat="50.000633960589767" lon="1.286436980590224">
        <ele>80.409999999999997</ele>
        <time>2018-07-02T15:23:39Z</time>
      </trkpt>
      <trkpt lat="50.000195000320673" lon="1.284905020147562">
        <ele>82.810000000000002</ele>
        <time>2018-07-02T15:23:46Z</time>
      </trkpt>
      <trkpt lat="49.999278020113707" lon="1.283081034198403">
        <ele>83.769999999999996</ele>
        <time>2018-07-02T15:23:55Z</time>
      </trkpt>
      <trkpt lat="49.999155979603529" lon="1.282870983704925">
        <ele>83.769999999999996</ele>
        <time>2018-07-02T15:23:56Z</time>
      </trkpt>
      <trkpt lat="49.997906992211938" lon="1.281208014115691">
        <ele>82.810000000000002</ele>
        <time>2018-07-02T15:24:05Z</time>
      </trkpt>
      <trkpt lat="49.996104966849089" lon="1.278934003785253">
        <ele>85.209999999999994</ele>
        <time>2018-07-02T15:24:16Z</time>
      </trkpt>
      <trkpt lat="49.993652002885938" lon="1.27583596855402">
        <ele>89.540000000000006</ele>
        <time>2018-07-02T15:24:28Z</time>
      </trkpt>
      <trkpt lat="49.990345006808639" lon="1.271659014746547">
        <ele>93.870000000000005</ele>
        <time>2018-07-02T15:24:43Z</time>
      </trkpt>
      <trkpt lat="49.988975990563631" lon="1.269935024902225">
        <ele>94.349999999999994</ele>
        <time>2018-07-02T15:24:50Z</time>
      </trkpt>
      <trkpt lat="49.986797031015158" lon="1.267201015725732">
        <ele>95.790000000000006</ele>
        <time>2018-07-02T15:25:02Z</time>
      </trkpt>
      <trkpt lat="49.984381031244993" lon="1.264165006577969">
        <ele>100.11</ele>
        <time>2018-07-02T15:25:17Z</time>
      </trkpt>
      <trkpt lat="49.983152998611331" lon="1.262618964537978">
        <ele>102.04000000000001</ele>
        <time>2018-07-02T15:25:27Z</time>
      </trkpt>
      <trkpt lat="49.982081037014723" lon="1.261270986869931">
        <ele>103.95999999999999</ele>
        <time>2018-07-02T15:25:39Z</time>
      </trkpt>
      <trkpt lat="49.981031036004424" lon="1.259955028072">
        <ele>106.36</ele>
        <time>2018-07-02T15:25:51Z</time>
      </trkpt>
      <trkpt lat="49.979947004467249" lon="1.258604032918811">
        <ele>110.20999999999999</ele>
        <time>2018-07-02T15:26:03Z</time>
      </trkpt>
      <trkpt lat="49.978936985135078" lon="1.257326966151595">
        <ele>108.77</ele>
        <time>2018-07-02T15:26:14Z</time>
      </trkpt>
      <trkpt lat="49.978137016296387" lon="1.256341002881527">
        <ele>110.69</ele>
        <time>2018-07-02T15:26:24Z</time>
      </trkpt>
      <trkpt lat="49.976832959800959" lon="1.254727989435196">
        <ele>110.20999999999999</ele>
        <time>2018-07-02T15:26:37Z</time>
      </trkpt>
      <trkpt lat="49.97569402679801" lon="1.25329895876348">
        <ele>112.61</ele>
        <time>2018-07-02T15:26:48Z</time>
      </trkpt>
      <trkpt lat="49.974520979449153" lon="1.25183598138392">
        <ele>114.53</ele>
        <time>2018-07-02T15:26:58Z</time>
      </trkpt>
      <trkpt lat="49.973283978179097" lon="1.250272002071142">
        <ele>116.45999999999999</ele>
        <time>2018-07-02T15:27:05Z</time>
      </trkpt>
      <trkpt lat="49.970676032826304" lon="1.247003981843591">
        <ele>120.3</ele>
        <time>2018-07-02T15:27:20Z</time>
      </trkpt>
      <trkpt lat="49.967398038133979" lon="1.242911014705896">
        <ele>126.06999999999999</ele>
        <time>2018-07-02T15:27:38Z</time>
      </trkpt>
      <trkpt lat="49.965676981955767" lon="1.240760972723365">
        <ele>125.59</ele>
        <time>2018-07-02T15:27:49Z</time>
      </trkpt>
      <trkpt lat="49.964324980974197" lon="1.23909498564899">
        <ele>125.11</ele>
        <time>2018-07-02T15:28:00Z</time>
      </trkpt>
      <trkpt lat="49.963460974395275" lon="1.23799997381866">
        <ele>124.63</ele>
        <time>2018-07-02T15:28:07Z</time>
      </trkpt>
      <trkpt lat="49.963392997160554" lon="1.237796964123845">
        <ele>124.63</ele>
        <time>2018-07-02T15:28:08Z</time>
      </trkpt>
      <trkpt lat="49.963326025754213" lon="1.237623039633036">
        <ele>124.15000000000001</ele>
        <time>2018-07-02T15:28:09Z</time>
      </trkpt>
      <trkpt lat="49.962998041883111" lon="1.236915020272136">
        <ele>123.19</ele>
        <time>2018-07-02T15:28:14Z</time>
      </trkpt>
      <trkpt lat="49.96295596472919" lon="1.236840002238751">
        <ele>123.19</ele>
        <time>2018-07-02T15:28:15Z</time>
      </trkpt>
      <trkpt lat="49.962929980829358" lon="1.236794991418719">
        <ele>123.19</ele>
        <time>2018-07-02T15:28:16Z</time>
      </trkpt>
      <trkpt lat="49.962917994707823" lon="1.23677303083241">
        <ele>123.19</ele>
        <time>2018-07-02T15:28:17Z</time>
      </trkpt>
      <trkpt lat="49.962917994707823" lon="1.23677303083241">
        <ele>123.19</ele>
        <time>2018-07-02T15:28:30Z</time>
      </trkpt>
      <trkpt lat="49.962917994707823" lon="1.23677303083241">
        <ele>123.19</ele>
        <time>2018-07-02T15:28:46Z</time>
      </trkpt>
      <trkpt lat="49.962903996929526" lon="1.236747968941927">
        <ele>123.67</ele>
        <time>2018-07-02T15:28:47Z</time>
      </trkpt>
      <trkpt lat="49.962505018338561" lon="1.23632300645113">
        <ele>125.59</ele>
        <time>2018-07-02T15:28:54Z</time>
      </trkpt>
      <trkpt lat="49.961559036746621" lon="1.235554972663522">
        <ele>126.55</ele>
        <time>2018-07-02T15:29:03Z</time>
      </trkpt>
      <trkpt lat="49.960309965535998" lon="1.234050001949072">
        <ele>125.59</ele>
        <time>2018-07-02T15:29:12Z</time>
      </trkpt>
      <trkpt lat="49.958809018135071" lon="1.232181005179882">
        <ele>122.70999999999999</ele>
        <time>2018-07-02T15:29:23Z</time>
      </trkpt>
      <trkpt lat="49.957335982471704" lon="1.230360958725214">
        <ele>119.34</ele>
        <time>2018-07-02T15:29:35Z</time>
      </trkpt>
      <trkpt lat="49.956352030858397" lon="1.229101996868849">
        <ele>118.38</ele>
        <time>2018-07-02T15:29:44Z</time>
      </trkpt>
      <trkpt lat="49.955618027597666" lon="1.228215023875237">
        <ele>117.90000000000001</ele>
        <time>2018-07-02T15:29:54Z</time>
      </trkpt>
      <trkpt lat="49.95558500289917" lon="1.228174958378077">
        <ele>117.90000000000001</ele>
        <time>2018-07-02T15:29:55Z</time>
      </trkpt>
      <trkpt lat="49.955477965995669" lon="1.228044033050537">
        <ele>117.90000000000001</ele>
        <time>2018-07-02T15:30:04Z</time>
      </trkpt>
      <trkpt lat="49.955448964610696" lon="1.227978989481926">
        <ele>117.42</ele>
        <time>2018-07-02T15:30:10Z</time>
      </trkpt>
      <trkpt lat="49.955436978489161" lon="1.227953005582094">
        <ele>117.42</ele>
        <time>2018-07-02T15:30:11Z</time>
      </trkpt>
      <trkpt lat="49.955421974882483" lon="1.227920986711979">
        <ele>117.42</ele>
        <time>2018-07-02T15:30:13Z</time>
      </trkpt>
      <trkpt lat="49.955359026789665" lon="1.227753013372421">
        <ele>117.90000000000001</ele>
        <time>2018-07-02T15:30:16Z</time>
      </trkpt>
      <trkpt lat="49.955337988212705" lon="1.227659974247217">
        <ele>117.90000000000001</ele>
        <time>2018-07-02T15:30:17Z</time>
      </trkpt>
      <trkpt lat="49.955266993492842" lon="1.227602977305651">
        <ele>117.90000000000001</ele>
        <time>2018-07-02T15:30:18Z</time>
      </trkpt>
      <trkpt lat="49.95522097684443" lon="1.227593002840877">
        <ele>117.90000000000001</ele>
        <time>2018-07-02T15:30:19Z</time>
      </trkpt>
      <trkpt lat="49.955071024596691" lon="1.227572970092297">
        <ele>117.90000000000001</ele>
        <time>2018-07-02T15:30:20Z</time>
      </trkpt>
      <trkpt lat="49.954992989078164" lon="1.227474985644221">
        <ele>117.90000000000001</ele>
        <time>2018-07-02T15:30:21Z</time>
      </trkpt>
      <trkpt lat="49.954907996580005" lon="1.227369038388133">
        <ele>118.38</ele>
        <time>2018-07-02T15:30:22Z</time>
      </trkpt>
      <trkpt lat="49.954111967235804" lon="1.2260099966079">
        <ele>118.86</ele>
        <time>2018-07-02T15:30:31Z</time>
      </trkpt>
      <trkpt lat="49.953611986711621" lon="1.224791016429663">
        <ele>117.90000000000001</ele>
        <time>2018-07-02T15:30:40Z</time>
      </trkpt>
      <trkpt lat="49.952917965129018" lon="1.223056968301535">
        <ele>115.01000000000001</ele>
        <time>2018-07-02T15:30:52Z</time>
      </trkpt>
      <trkpt lat="49.95221002958715" lon="1.221237005665898">
        <ele>111.65000000000001</ele>
        <time>2018-07-02T15:31:03Z</time>
      </trkpt>
      <trkpt lat="49.951319033280015" lon="1.218957966193557">
        <ele>110.69</ele>
        <time>2018-07-02T15:31:14Z</time>
      </trkpt>
      <trkpt lat="49.950014976784587" lon="1.215693969279528">
        <ele>108.77</ele>
        <time>2018-07-02T15:31:28Z</time>
      </trkpt>
      <trkpt lat="49.94894796051085" lon="1.21301100589335">
        <ele>107.81</ele>
        <time>2018-07-02T15:31:39Z</time>
      </trkpt>
      <trkpt lat="49.947913968935609" lon="1.210399959236383">
        <ele>106.36</ele>
        <time>2018-07-02T15:31:49Z</time>
      </trkpt>
      <trkpt lat="49.94707896374166" lon="1.208289982751012">
        <ele>106.36</ele>
        <time>2018-07-02T15:31:55Z</time>
      </trkpt>
      <trkpt lat="49.945918992161751" lon="1.205380959436297">
        <ele>106.84</ele>
        <time>2018-07-02T15:32:04Z</time>
      </trkpt>
      <trkpt lat="49.944603033363819" lon="1.202046973630786">
        <ele>107.31999999999999</ele>
        <time>2018-07-02T15:32:15Z</time>
      </trkpt>
      <trkpt lat="49.943115999922156" lon="1.198268998414278">
        <ele>104.92</ele>
        <time>2018-07-02T15:32:29Z</time>
      </trkpt>
      <trkpt lat="49.942002967000008" lon="1.195406997576356">
        <ele>103</ele>
        <time>2018-07-02T15:32:41Z</time>
      </trkpt>
      <trkpt lat="49.941656962037086" lon="1.193895991891623">
        <ele>102.52</ele>
        <time>2018-07-02T15:32:49Z</time>
      </trkpt>
      <trkpt lat="49.941271981224418" lon="1.192047027871013">
        <ele>103</ele>
        <time>2018-07-02T15:33:01Z</time>
      </trkpt>
      <trkpt lat="49.94106100872159" lon="1.191022004932165">
        <ele>103.48</ele>
        <time>2018-07-02T15:33:07Z</time>
      </trkpt>
      <trkpt lat="49.941023960709572" lon="1.190853025764227">
        <ele>103</ele>
        <time>2018-07-02T15:33:08Z</time>
      </trkpt>
      <trkpt lat="49.940592963248491" lon="1.18871396407485">
        <ele>101.08</ele>
        <time>2018-07-02T15:33:21Z</time>
      </trkpt>
      <trkpt lat="49.940275037661195" lon="1.187111008912325">
        <ele>99.150000000000006</ele>
        <time>2018-07-02T15:33:32Z</time>
      </trkpt>
      <trkpt lat="49.939916040748358" lon="1.185207981616259">
        <ele>98.670000000000002</ele>
        <time>2018-07-02T15:33:45Z</time>
      </trkpt>
      <trkpt lat="49.939866000786424" lon="1.184891983866692">
        <ele>98.189999999999998</ele>
        <time>2018-07-02T15:33:48Z</time>
      </trkpt>
      <trkpt lat="49.939847979694605" lon="1.184778995811939">
        <ele>97.709999999999994</ele>
        <time>2018-07-02T15:33:54Z</time>
      </trkpt>
      <trkpt lat="49.939797017723322" lon="1.184417987242341">
        <ele>97.709999999999994</ele>
        <time>2018-07-02T15:34:03Z</time>
      </trkpt>
      <trkpt lat="49.9399000313133" lon="1.184269962832332">
        <ele>97.709999999999994</ele>
        <time>2018-07-02T15:34:04Z</time>
      </trkpt>
      <trkpt lat="49.939903970807791" lon="1.184246996417642">
        <ele>98.189999999999998</ele>
        <time>2018-07-02T15:34:05Z</time>
      </trkpt>
      <trkpt lat="49.939893996343017" lon="1.184079023078084">
        <ele>98.189999999999998</ele>
        <time>2018-07-02T15:34:06Z</time>
      </trkpt>
      <trkpt lat="49.939858037978411" lon="1.183998975902796">
        <ele>98.189999999999998</ele>
        <time>2018-07-02T15:34:07Z</time>
      </trkpt>
      <trkpt lat="49.93983599357307" lon="1.183949019759893">
        <ele>98.670000000000002</ele>
        <time>2018-07-02T15:34:08Z</time>
      </trkpt>
      <trkpt lat="49.939689980819821" lon="1.183893028646708">
        <ele>98.670000000000002</ele>
        <time>2018-07-02T15:34:09Z</time>
      </trkpt>
      <trkpt lat="49.939653016626835" lon="1.183771993964911">
        <ele>98.670000000000002</ele>
        <time>2018-07-02T15:34:10Z</time>
      </trkpt>
      <trkpt lat="49.939610017463565" lon="1.183632016181946">
        <ele>98.670000000000002</ele>
        <time>2018-07-02T15:34:11Z</time>
      </trkpt>
      <trkpt lat="49.939252026379108" lon="1.181996958330274">
        <ele>97.230000000000004</ele>
        <time>2018-07-02T15:34:20Z</time>
      </trkpt>
      <trkpt lat="49.938743999227881" lon="1.179492026567459">
        <ele>95.310000000000002</ele>
        <time>2018-07-02T15:34:31Z</time>
      </trkpt>
      <trkpt lat="49.938326999545097" lon="1.177400993183255">
        <ele>94.349999999999994</ele>
        <time>2018-07-02T15:34:40Z</time>
      </trkpt>
      <trkpt lat="49.937657034024596" lon="1.174001041799784">
        <ele>93.870000000000005</ele>
        <time>2018-07-02T15:34:53Z</time>
      </trkpt>
      <trkpt lat="49.936704011633992" lon="1.169232996180654">
        <ele>90.019999999999996</ele>
        <time>2018-07-02T15:35:10Z</time>
      </trkpt>
      <trkpt lat="49.935756018385291" lon="1.164499986916781">
        <ele>88.579999999999998</ele>
        <time>2018-07-02T15:35:26Z</time>
      </trkpt>
      <trkpt lat="49.935216978192329" lon="1.16183496080339">
        <ele>89.060000000000002</ele>
        <time>2018-07-02T15:35:34Z</time>
      </trkpt>
      <trkpt lat="49.934129007160664" lon="1.156373983249068">
        <ele>89.060000000000002</ele>
        <time>2018-07-02T15:35:48Z</time>
      </trkpt>
      <trkpt lat="49.932951014488935" lon="1.150470022112131">
        <ele>85.689999999999998</ele>
        <time>2018-07-02T15:36:04Z</time>
      </trkpt>
      <trkpt lat="49.932394037023187" lon="1.147665018215776">
        <ele>81.370000000000005</ele>
        <time>2018-07-02T15:36:12Z</time>
      </trkpt>
      <trkpt lat="49.93199204094708" lon="1.145492009818554">
        <ele>81.849999999999994</ele>
        <time>2018-07-02T15:36:19Z</time>
      </trkpt>
      <trkpt lat="49.931431040167809" lon="1.142688011750579">
        <ele>81.370000000000005</ele>
        <time>2018-07-02T15:36:30Z</time>
      </trkpt>
      <trkpt lat="49.93137395940721" lon="1.142272017896175">
        <ele>80.409999999999997</ele>
        <time>2018-07-02T15:36:35Z</time>
      </trkpt>
      <trkpt lat="49.931360967457294" lon="1.141970017924905">
        <ele>79.930000000000007</ele>
        <time>2018-07-02T15:36:39Z</time>
      </trkpt>
      <trkpt lat="49.931359961628914" lon="1.141879996284843">
        <ele>79.930000000000007</ele>
        <time>2018-07-02T15:36:40Z</time>
      </trkpt>
      <trkpt lat="49.931359961628914" lon="1.141805984079838">
        <ele>79.930000000000007</ele>
        <time>2018-07-02T15:36:41Z</time>
      </trkpt>
      <trkpt lat="49.931330038234591" lon="1.141726020723581">
        <ele>79.930000000000007</ele>
        <time>2018-07-02T15:36:42Z</time>
      </trkpt>
      <trkpt lat="49.931296007707715" lon="1.141633987426758">
        <ele>79.930000000000007</ele>
        <time>2018-07-02T15:36:43Z</time>
      </trkpt>
      <trkpt lat="49.931271029636264" lon="1.141559975221753">
        <ele>79.930000000000007</ele>
        <time>2018-07-02T15:36:44Z</time>
      </trkpt>
      <trkpt lat="49.931207997724414" lon="1.141370963305235">
        <ele>80.409999999999997</ele>
        <time>2018-07-02T15:36:46Z</time>
      </trkpt>
      <trkpt lat="49.930896023288369" lon="1.139933969825506">
        <ele>81.370000000000005</ele>
        <time>2018-07-02T15:36:57Z</time>
      </trkpt>
      <trkpt lat="49.930456979200244" lon="1.137958019971848">
        <ele>80.890000000000001</ele>
        <time>2018-07-02T15:37:08Z</time>
      </trkpt>
      <trkpt lat="49.929815009236336" lon="1.134768035262823">
        <ele>80.409999999999997</ele>
        <time>2018-07-02T15:37:26Z</time>
      </trkpt>
      <trkpt lat="49.929363979026675" lon="1.132488995790482">
        <ele>79.930000000000007</ele>
        <time>2018-07-02T15:37:39Z</time>
      </trkpt>
      <trkpt lat="49.928712034597993" lon="1.129234973341227">
        <ele>78.480000000000004</ele>
        <time>2018-07-02T15:37:57Z</time>
      </trkpt>
      <trkpt lat="49.928210964426398" lon="1.126746973022819">
        <ele>76.079999999999998</ele>
        <time>2018-07-02T15:38:11Z</time>
      </trkpt>
      <trkpt lat="49.927837969735265" lon="1.124784015119076">
        <ele>74.159999999999997</ele>
        <time>2018-07-02T15:38:23Z</time>
      </trkpt>
      <trkpt lat="49.92763202637434" lon="1.123215006664395">
        <ele>74.159999999999997</ele>
        <time>2018-07-02T15:38:31Z</time>
      </trkpt>
      <trkpt lat="49.92759196087718" lon="1.123038986697793">
        <ele>74.640000000000001</ele>
        <time>2018-07-02T15:38:32Z</time>
      </trkpt>
      <trkpt lat="49.927556002512574" lon="1.122875958681107">
        <ele>75.120000000000005</ele>
        <time>2018-07-02T15:38:33Z</time>
      </trkpt>
      <trkpt lat="49.927476039156318" lon="1.12251503393054">
        <ele>76.560000000000002</ele>
        <time>2018-07-02T15:38:38Z</time>
      </trkpt>
      <trkpt lat="49.927486013621092" lon="1.12240900285542">
        <ele>76.560000000000002</ele>
        <time>2018-07-02T15:38:39Z</time>
      </trkpt>
      <trkpt lat="49.927495988085866" lon="1.122297020629048">
        <ele>77.040000000000006</ele>
        <time>2018-07-02T15:38:40Z</time>
      </trkpt>
      <trkpt lat="49.927529012784362" lon="1.122183026745915">
        <ele>77.040000000000006</ele>
        <time>2018-07-02T15:38:41Z</time>
      </trkpt>
      <trkpt lat="49.927558014169335" lon="1.122030979022384">
        <ele>77.040000000000006</ele>
        <time>2018-07-02T15:38:42Z</time>
      </trkpt>
      <trkpt lat="49.92754896171391" lon="1.121897036209703">
        <ele>77.519999999999996</ele>
        <time>2018-07-02T15:38:43Z</time>
      </trkpt>
      <trkpt lat="49.927539993077517" lon="1.12176401540637">
        <ele>77.519999999999996</ele>
        <time>2018-07-02T15:38:44Z</time>
      </trkpt>
      <trkpt lat="49.927476961165667" lon="1.121650021523237">
        <ele>77.519999999999996</ele>
        <time>2018-07-02T15:38:45Z</time>
      </trkpt>
      <trkpt lat="49.927410995587707" lon="1.121558994054794">
        <ele>77.519999999999996</ele>
        <time>2018-07-02T15:38:46Z</time>
      </trkpt>
      <trkpt lat="49.927321979776025" lon="1.121509037911892">
        <ele>77.519999999999996</ele>
        <time>2018-07-02T15:38:47Z</time>
      </trkpt>
      <trkpt lat="49.927240004763007" lon="1.121464027091861">
        <ele>77.519999999999996</ele>
        <time>2018-07-02T15:38:48Z</time>
      </trkpt>
      <trkpt lat="49.927141014486551" lon="1.121336035430431">
        <ele>77.519999999999996</ele>
        <time>2018-07-02T15:38:49Z</time>
      </trkpt>
      <trkpt lat="49.927068008109927" lon="1.12120402045548">
        <ele>77.519999999999996</ele>
        <time>2018-07-02T15:38:50Z</time>
      </trkpt>
      <trkpt lat="49.927014028653502" lon="1.12103596329689">
        <ele>78</ele>
        <time>2018-07-02T15:38:51Z</time>
      </trkpt>
      <trkpt lat="49.926412040367723" lon="1.11948799341917">
        <ele>78.969999999999999</ele>
        <time>2018-07-02T15:38:58Z</time>
      </trkpt>
      <trkpt lat="49.925363967195153" lon="1.116905026137829">
        <ele>79.450000000000003</ele>
        <time>2018-07-02T15:39:07Z</time>
      </trkpt>
      <trkpt lat="49.924827022477984" lon="1.114509981125593">
        <ele>80.890000000000001</ele>
        <time>2018-07-02T15:39:15Z</time>
      </trkpt>
      <trkpt lat="49.924231991171837" lon="1.112708039581776">
        <ele>80.409999999999997</ele>
        <time>2018-07-02T15:39:22Z</time>
      </trkpt>
      <trkpt lat="49.9237210303545" lon="1.111998008564115">
        <ele>78.969999999999999</ele>
        <time>2018-07-02T15:39:27Z</time>
      </trkpt>
      <trkpt lat="49.923634026199579" lon="1.111919973045588">
        <ele>78.969999999999999</ele>
        <time>2018-07-02T15:39:28Z</time>
      </trkpt>
      <trkpt lat="49.923436967656016" lon="1.111718975007534">
        <ele>78.969999999999999</ele>
        <time>2018-07-02T15:39:31Z</time>
      </trkpt>
      <trkpt lat="49.923390028998256" lon="1.111654015257955">
        <ele>78.969999999999999</ele>
        <time>2018-07-02T15:39:32Z</time>
      </trkpt>
      <trkpt lat="49.923377959057689" lon="1.111533986404538">
        <ele>79.450000000000003</ele>
        <time>2018-07-02T15:39:33Z</time>
      </trkpt>
      <trkpt lat="49.923354992642999" lon="1.111414963379502">
        <ele>79.450000000000003</ele>
        <time>2018-07-02T15:39:34Z</time>
      </trkpt>
      <trkpt lat="49.923305036500096" lon="1.111303986981511">
        <ele>79.450000000000003</ele>
        <time>2018-07-02T15:39:35Z</time>
      </trkpt>
      <trkpt lat="49.923235969617963" lon="1.111200973391533">
        <ele>79.450000000000003</ele>
        <time>2018-07-02T15:39:36Z</time>
      </trkpt>
      <trkpt lat="49.923146031796932" lon="1.111137019470334">
        <ele>79.930000000000007</ele>
        <time>2018-07-02T15:39:37Z</time>
      </trkpt>
      <trkpt lat="49.923047041520476" lon="1.11112997867167">
        <ele>79.930000000000007</ele>
        <time>2018-07-02T15:39:38Z</time>
      </trkpt>
      <trkpt lat="49.922940004616976" lon="1.111131990328431">
        <ele>79.930000000000007</ele>
        <time>2018-07-02T15:39:39Z</time>
      </trkpt>
      <trkpt lat="49.922853000462055" lon="1.111098965629935">
        <ele>79.930000000000007</ele>
        <time>2018-07-02T15:39:40Z</time>
      </trkpt>
      <trkpt lat="49.922759961336851" lon="1.111022019758821">
        <ele>79.930000000000007</ele>
        <time>2018-07-02T15:39:41Z</time>
      </trkpt>
      <trkpt lat="49.922684021294117" lon="1.110909031704068">
        <ele>80.409999999999997</ele>
        <time>2018-07-02T15:39:42Z</time>
      </trkpt>
      <trkpt lat="49.922599028795958" lon="1.110783973708749">
        <ele>80.409999999999997</ele>
        <time>2018-07-02T15:39:43Z</time>
      </trkpt>
      <trkpt lat="49.921767041087151" lon="1.109673036262393">
        <ele>79.450000000000003</ele>
        <time>2018-07-02T15:39:50Z</time>
      </trkpt>
      <trkpt lat="49.92009099572897" lon="1.107356026768684">
        <ele>78</ele>
        <time>2018-07-02T15:40:02Z</time>
      </trkpt>
      <trkpt lat="49.918560963124037" lon="1.104868026450276">
        <ele>71.269999999999996</ele>
        <time>2018-07-02T15:40:14Z</time>
      </trkpt>
      <trkpt lat="49.917327985167503" lon="1.10313598997891">
        <ele>63.579999999999998</ele>
        <time>2018-07-02T15:40:23Z</time>
      </trkpt>
      <trkpt lat="49.91716998629272" lon="1.102996012195945">
        <ele>62.619999999999997</ele>
        <time>2018-07-02T15:40:24Z</time>
      </trkpt>
      <trkpt lat="49.916994972154498" lon="1.102903978899121">
        <ele>61.659999999999997</ele>
        <time>2018-07-02T15:40:25Z</time>
      </trkpt>
      <trkpt lat="49.916819036006927" lon="1.10281202942133">
        <ele>60.700000000000003</ele>
        <time>2018-07-02T15:40:26Z</time>
      </trkpt>
      <trkpt lat="49.916643016040325" lon="1.102757966145873">
        <ele>59.740000000000002</ele>
        <time>2018-07-02T15:40:27Z</time>
      </trkpt>
      <trkpt lat="49.916468001902103" lon="1.102730976417661">
        <ele>58.780000000000001</ele>
        <time>2018-07-02T15:40:28Z</time>
      </trkpt>
      <trkpt lat="49.916287958621979" lon="1.102730976417661">
        <ele>58.299999999999997</ele>
        <time>2018-07-02T15:40:29Z</time>
      </trkpt>
      <trkpt lat="49.916102970018983" lon="1.102730976417661">
        <ele>57.340000000000003</ele>
        <time>2018-07-02T15:40:30Z</time>
      </trkpt>
      <trkpt lat="49.915925022214651" lon="1.10276903025806">
        <ele>56.369999999999997</ele>
        <time>2018-07-02T15:40:31Z</time>
      </trkpt>
      <trkpt lat="49.915743973106146" lon="1.102828960865736">
        <ele>55.409999999999997</ele>
        <time>2018-07-02T15:40:32Z</time>
      </trkpt>
      <trkpt lat="49.915560996159911" lon="1.102902973070741">
        <ele>54.450000000000003</ele>
        <time>2018-07-02T15:40:33Z</time>
      </trkpt>
      <trkpt lat="49.914436982944608" lon="1.103944005444646">
        <ele>47.240000000000002</ele>
        <time>2018-07-02T15:40:40Z</time>
      </trkpt>
      <trkpt lat="49.912407975643873" lon="1.105953985825181">
        <ele>32.82</ele>
        <time>2018-07-02T15:40:53Z</time>
      </trkpt>
      <trkpt lat="49.912267997860909" lon="1.106137968599796">
        <ele>31.379999999999999</ele>
        <time>2018-07-02T15:40:54Z</time>
      </trkpt>
      <trkpt lat="49.912128020077944" lon="1.106327986344695">
        <ele>30.420000000000002</ele>
        <time>2018-07-02T15:40:55Z</time>
      </trkpt>
      <trkpt lat="49.911993993446231" lon="1.106522027403116">
        <ele>29.460000000000001</ele>
        <time>2018-07-02T15:40:56Z</time>
      </trkpt>
      <trkpt lat="49.910835027694702" lon="1.108348025009036">
        <ele>18.879999999999999</ele>
        <time>2018-07-02T15:41:05Z</time>
      </trkpt>
      <trkpt lat="49.910687003284693" lon="1.108510969206691">
        <ele>18.399999999999999</ele>
        <time>2018-07-02T15:41:06Z</time>
      </trkpt>
      <trkpt lat="49.910521041601896" lon="1.108626974746585">
        <ele>17.440000000000001</ele>
        <time>2018-07-02T15:41:07Z</time>
      </trkpt>
      <trkpt lat="49.910348961129785" lon="1.108719008043408">
        <ele>16.48</ele>
        <time>2018-07-02T15:41:08Z</time>
      </trkpt>
      <trkpt lat="49.910170007497072" lon="1.108779022470117">
        <ele>15.52</ele>
        <time>2018-07-02T15:41:09Z</time>
      </trkpt>
      <trkpt lat="49.909988958388567" lon="1.108831996098161">
        <ele>14.56</ele>
        <time>2018-07-02T15:41:10Z</time>
      </trkpt>
      <trkpt lat="49.909805981442332" lon="1.108863009139895">
        <ele>13.6</ele>
        <time>2018-07-02T15:41:11Z</time>
      </trkpt>
      <trkpt lat="49.909644965082407" lon="1.108889998868108">
        <ele>13.119999999999999</ele>
        <time>2018-07-02T15:41:12Z</time>
      </trkpt>
      <trkpt lat="49.909441033378243" lon="1.108840964734554">
        <ele>12.15</ele>
        <time>2018-07-02T15:41:13Z</time>
      </trkpt>
      <trkpt lat="49.909255038946867" lon="1.108796037733555">
        <ele>11.19</ele>
        <time>2018-07-02T15:41:14Z</time>
      </trkpt>
      <trkpt lat="49.909073989838362" lon="1.108737029135227">
        <ele>10.710000000000001</ele>
        <time>2018-07-02T15:41:15Z</time>
      </trkpt>
      <trkpt lat="49.908904004842043" lon="1.108620017766953">
        <ele>10.23</ele>
        <time>2018-07-02T15:41:16Z</time>
      </trkpt>
      <trkpt lat="49.908748017624021" lon="1.10848699696362">
        <ele>9.27</ele>
        <time>2018-07-02T15:41:17Z</time>
      </trkpt>
      <trkpt lat="49.907945031300187" lon="1.107699014246464">
        <ele>4.94</ele>
        <time>2018-07-02T15:41:23Z</time>
      </trkpt>
      <trkpt lat="49.907644959166646" lon="1.107372036203742">
        <ele>3.02</ele>
        <time>2018-07-02T15:41:28Z</time>
      </trkpt>
      <trkpt lat="49.907599026337266" lon="1.107244966551662">
        <ele>2.06</ele>
        <time>2018-07-02T15:41:30Z</time>
      </trkpt>
      <trkpt lat="49.907584022730589" lon="1.107166009023786">
        <ele>1.58</ele>
        <time>2018-07-02T15:41:31Z</time>
      </trkpt>
      <trkpt lat="49.907562984153628" lon="1.107066012918949">
        <ele>1.58</ele>
        <time>2018-07-02T15:41:32Z</time>
      </trkpt>
      <trkpt lat="49.907562984153628" lon="1.1068129632622">
        <ele>1.1</ele>
        <time>2018-07-02T15:41:34Z</time>
      </trkpt>
      <trkpt lat="49.907549992203712" lon="1.106677008792758">
        <ele>1.58</ele>
        <time>2018-07-02T15:41:35Z</time>
      </trkpt>
      <trkpt lat="49.907512022182345" lon="1.106543987989426">
        <ele>1.58</ele>
        <time>2018-07-02T15:41:36Z</time>
      </trkpt>
      <trkpt lat="49.907472962513566" lon="1.106412978842855">
        <ele>2.06</ele>
        <time>2018-07-02T15:41:37Z</time>
      </trkpt>
      <trkpt lat="49.907400961965322" lon="1.106323963031173">
        <ele>2.06</ele>
        <time>2018-07-02T15:41:38Z</time>
      </trkpt>
      <trkpt lat="49.907316975295544" lon="1.106239976361394">
        <ele>2.06</ele>
        <time>2018-07-02T15:41:39Z</time>
      </trkpt>
      <trkpt lat="49.907233994454145" lon="1.106203012168407">
        <ele>2.06</ele>
        <time>2018-07-02T15:41:40Z</time>
      </trkpt>
      <trkpt lat="49.907153025269508" lon="1.106173004955053">
        <ele>1.58</ele>
        <time>2018-07-02T15:41:41Z</time>
      </trkpt>
      <trkpt lat="49.907055962830782" lon="1.105958009138703">
        <ele>1.1</ele>
        <time>2018-07-02T15:41:42Z</time>
      </trkpt>
      <trkpt lat="49.907054034993052" lon="1.105803027749062">
        <ele>1.1</ele>
        <time>2018-07-02T15:41:43Z</time>
      </trkpt>
      <trkpt lat="49.907067026942968" lon="1.105649974197149">
        <ele>0.62</ele>
        <time>2018-07-02T15:41:44Z</time>
      </trkpt>
      <trkpt lat="49.907082030549645" lon="1.105475965887308">
        <ele>1.1</ele>
        <time>2018-07-02T15:41:45Z</time>
      </trkpt>
      <trkpt lat="49.90728504024446" lon="1.103633958846331">
        <ele>5.91</ele>
        <time>2018-07-02T15:41:53Z</time>
      </trkpt>
      <trkpt lat="49.907766999676824" lon="1.101618027314544">
        <ele>7.83</ele>
        <time>2018-07-02T15:42:02Z</time>
      </trkpt>
      <trkpt lat="49.907860038802028" lon="1.101409988477826">
        <ele>7.83</ele>
        <time>2018-07-02T15:42:03Z</time>
      </trkpt>
      <trkpt lat="49.907978978008032" lon="1.101231034845114">
        <ele>7.35</ele>
        <time>2018-07-02T15:42:04Z</time>
      </trkpt>
      <trkpt lat="49.908101018518209" lon="1.10105199739337">
        <ele>7.35</ele>
        <time>2018-07-02T15:42:05Z</time>
      </trkpt>
      <trkpt lat="49.908236972987652" lon="1.10085804015398">
        <ele>6.87</ele>
        <time>2018-07-02T15:42:06Z</time>
      </trkpt>
      <trkpt lat="49.908404024317861" lon="1.100725019350648">
        <ele>6.39</ele>
        <time>2018-07-02T15:42:07Z</time>
      </trkpt>
      <trkpt lat="49.908576020970941" lon="1.100585963577032">
        <ele>6.39</ele>
        <time>2018-07-02T15:42:08Z</time>
      </trkpt>
      <trkpt lat="49.908752040937543" lon="1.100444979965687">
        <ele>6.39</ele>
        <time>2018-07-02T15:42:09Z</time>
      </trkpt>
      <trkpt lat="49.910458009690046" lon="1.099052997305989">
        <ele>5.91</ele>
        <time>2018-07-02T15:42:18Z</time>
      </trkpt>
      <trkpt lat="49.911720994859934" lon="1.097421040758491">
        <ele>6.87</ele>
        <time>2018-07-02T15:42:26Z</time>
      </trkpt>
      <trkpt lat="49.91302203387022" lon="1.09553100541234">
        <ele>7.35</ele>
        <time>2018-07-02T15:42:37Z</time>
      </trkpt>
      <trkpt lat="49.913738016039133" lon="1.09393903054297">
        <ele>6.87</ele>
        <time>2018-07-02T15:42:47Z</time>
      </trkpt>
      <trkpt lat="49.913865001872182" lon="1.093633007258177">
        <ele>6.87</ele>
        <time>2018-07-02T15:42:52Z</time>
      </trkpt>
      <trkpt lat="49.913874976336956" lon="1.093608029186726">
        <ele>6.87</ele>
        <time>2018-07-02T15:43:03Z</time>
      </trkpt>
      <trkpt lat="49.913917975500226" lon="1.093506021425128">
        <ele>6.87</ele>
        <time>2018-07-02T15:43:05Z</time>
      </trkpt>
      <trkpt lat="49.914064994081855" lon="1.093204021453857">
        <ele>6.87</ele>
        <time>2018-07-02T15:43:13Z</time>
      </trkpt>
      <trkpt lat="49.914138000458479" lon="1.09316797927022">
        <ele>6.87</ele>
        <time>2018-07-02T15:43:17Z</time>
      </trkpt>
      <trkpt lat="49.914305973798037" lon="1.093111988157034">
        <ele>6.87</ele>
        <time>2018-07-02T15:43:19Z</time>
      </trkpt>
      <trkpt lat="49.914381997659802" lon="1.093020960688591">
        <ele>6.87</ele>
        <time>2018-07-02T15:43:20Z</time>
      </trkpt>
      <trkpt lat="49.914428014308214" lon="1.092878971248865">
        <ele>6.87</ele>
        <time>2018-07-02T15:43:21Z</time>
      </trkpt>
      <trkpt lat="49.914562040939927" lon="1.092599015682936">
        <ele>6.39</ele>
        <time>2018-07-02T15:43:23Z</time>
      </trkpt>
      <trkpt lat="49.914646027609706" lon="1.09248099848628">
        <ele>6.39</ele>
        <time>2018-07-02T15:43:24Z</time>
      </trkpt>
      <trkpt lat="49.915713965892792" lon="1.090836971998215">
        <ele>6.39</ele>
        <time>2018-07-02T15:43:37Z</time>
      </trkpt>
    </trkseg>
  </trk>

  <trk>
    <name>Track vom: 2018-07-02 17:43</name>
    <extensions>
      <gpxx:TrackExtension>
        <gpxx:DisplayColor>DarkGray</gpxx:DisplayColor>
      </gpxx:TrackExtension>
    </extensions>
    <trkseg>
      <trkpt lat="49.915790995582938" lon="1.090700011700392">
        <ele>6.39</ele>
        <time>2018-07-02T15:43:38Z</time>
      </trkpt>
      <trkpt lat="49.917025985196233" lon="1.088928999379277">
        <ele>4.94</ele>
        <time>2018-07-02T15:43:52Z</time>
      </trkpt>
      <trkpt lat="49.917822014540434" lon="1.087813032791019">
        <ele>5.42</ele>
        <time>2018-07-02T15:44:03Z</time>
      </trkpt>
      <trkpt lat="49.918300034478307" lon="1.087141977623105">
        <ele>6.39</ele>
        <time>2018-07-02T15:44:11Z</time>
      </trkpt>
      <trkpt lat="49.919105032458901" lon="1.086047971621156">
        <ele>8.310000000000001</ele>
        <time>2018-07-02T15:44:21Z</time>
      </trkpt>
      <trkpt lat="49.920390984043479" lon="1.084317024797201">
        <ele>9.27</ele>
        <time>2018-07-02T15:44:37Z</time>
      </trkpt>
      <trkpt lat="49.920533979311585" lon="1.084127007052302">
        <ele>9.27</ele>
        <time>2018-07-02T15:44:39Z</time>
      </trkpt>
      <trkpt lat="49.920614026486874" lon="1.084056012332439">
        <ele>9.27</ele>
        <time>2018-07-02T15:44:40Z</time>
      </trkpt>
      <trkpt lat="49.920694995671511" lon="1.084007984027267">
        <ele>9.27</ele>
        <time>2018-07-02T15:44:41Z</time>
      </trkpt>
      <trkpt lat="49.920834973454475" lon="1.083922991529107">
        <ele>8.789999999999999</ele>
        <time>2018-07-02T15:44:43Z</time>
      </trkpt>
      <trkpt lat="49.920901022851467" lon="1.083888961002231">
        <ele>7.83</ele>
        <time>2018-07-02T15:44:44Z</time>
      </trkpt>
      <trkpt lat="49.920978974550962" lon="1.083871023729444">
        <ele>7.35</ele>
        <time>2018-07-02T15:44:45Z</time>
      </trkpt>
      <trkpt lat="49.921062039211392" lon="1.083851996809244">
        <ele>6.87</ele>
        <time>2018-07-02T15:44:46Z</time>
      </trkpt>
      <trkpt lat="49.921149965375662" lon="1.083830958232284">
        <ele>6.39</ele>
        <time>2018-07-02T15:44:47Z</time>
      </trkpt>
      <trkpt lat="49.921869970858097" lon="1.083620991557837">
        <ele>5.42</ele>
        <time>2018-07-02T15:44:56Z</time>
      </trkpt>
      <trkpt lat="49.921928979456425" lon="1.083577992394567">
        <ele>4.94</ele>
        <time>2018-07-02T15:44:57Z</time>
      </trkpt>
      <trkpt lat="49.921974996104836" lon="1.083523007109761">
        <ele>4.94</ele>
        <time>2018-07-02T15:44:58Z</time>
      </trkpt>
      <trkpt lat="49.922027969732881" lon="1.083453018218279">
        <ele>4.46</ele>
        <time>2018-07-02T15:44:59Z</time>
      </trkpt>
      <trkpt lat="49.922084966674447" lon="1.083378000184894">
        <ele>4.46</ele>
        <time>2018-07-02T15:45:00Z</time>
      </trkpt>
      <trkpt lat="49.922469025477767" lon="1.082870978862047">
        <ele>4.94</ele>
        <time>2018-07-02T15:45:08Z</time>
      </trkpt>
      <trkpt lat="49.922485034912825" lon="1.082825968042016">
        <ele>4.94</ele>
        <time>2018-07-02T15:45:09Z</time>
      </trkpt>
      <trkpt lat="49.922502972185612" lon="1.082753967493773">
        <ele>4.94</ele>
        <time>2018-07-02T15:45:10Z</time>
      </trkpt>
      <trkpt lat="49.922518981620669" lon="1.082690013572574">
        <ele>5.42</ele>
        <time>2018-07-02T15:45:11Z</time>
      </trkpt>
      <trkpt lat="49.922504983842373" lon="1.082633016631007">
        <ele>5.42</ele>
        <time>2018-07-02T15:45:12Z</time>
      </trkpt>
      <trkpt lat="49.922485034912825" lon="1.0825539752841">
        <ele>5.42</ele>
        <time>2018-07-02T15:45:13Z</time>
      </trkpt>
      <trkpt lat="49.922463996335864" lon="1.08246898278594">
        <ele>5.42</ele>
        <time>2018-07-02T15:45:14Z</time>
      </trkpt>
      <trkpt lat="49.922442035749555" lon="1.082380972802639">
        <ele>4.94</ele>
        <time>2018-07-02T15:45:15Z</time>
      </trkpt>
      <trkpt lat="49.922419991344213" lon="1.082293968647718">
        <ele>4.46</ele>
        <time>2018-07-02T15:45:16Z</time>
      </trkpt>
      <trkpt lat="49.922412028536201" lon="1.082261027768254">
        <ele>4.46</ele>
        <time>2018-07-02T15:45:17Z</time>
      </trkpt>
      <trkpt lat="49.922431977465749" lon="1.08216798864305">
        <ele>3.98</ele>
        <time>2018-07-02T15:45:18Z</time>
      </trkpt>
      <trkpt lat="49.922449998557568" lon="1.082085007801652">
        <ele>3.98</ele>
        <time>2018-07-02T15:45:19Z</time>
      </trkpt>
      <trkpt lat="49.922467013821006" lon="1.082002026960254">
        <ele>3.5</ele>
        <time>2018-07-02T15:45:20Z</time>
      </trkpt>
      <trkpt lat="49.922482017427683" lon="1.081956010311842">
        <ele>3.02</ele>
        <time>2018-07-02T15:45:21Z</time>
      </trkpt>
      <trkpt lat="49.922537002712488" lon="1.081905970349908">
        <ele>3.02</ele>
        <time>2018-07-02T15:45:22Z</time>
      </trkpt>
      <trkpt lat="49.922597017139196" lon="1.081850985065103">
        <ele>2.54</ele>
        <time>2018-07-02T15:45:23Z</time>
      </trkpt>
      <trkpt lat="49.922654014080763" lon="1.081798011437058">
        <ele>2.54</ele>
        <time>2018-07-02T15:45:24Z</time>
      </trkpt>
      <trkpt lat="49.922719979658723" lon="1.081744031980634">
        <ele>3.02</ele>
        <time>2018-07-02T15:45:25Z</time>
      </trkpt>
      <trkpt lat="49.923264971002936" lon="1.081589972600341">
        <ele>4.94</ele>
        <time>2018-07-02T15:45:35Z</time>
      </trkpt>
      <trkpt lat="49.923656992614269" lon="1.081467010080814">
        <ele>5.91</ele>
        <time>2018-07-02T15:45:44Z</time>
      </trkpt>
      <trkpt lat="49.924316983669996" lon="1.081043975427747">
        <ele>6.87</ele>
        <time>2018-07-02T15:45:54Z</time>
      </trkpt>
      <trkpt lat="49.92436702363193" lon="1.081013968214393">
        <ele>6.87</ele>
        <time>2018-07-02T15:45:55Z</time>
      </trkpt>
      <trkpt lat="49.924405999481678" lon="1.080991001799703">
        <ele>6.87</ele>
        <time>2018-07-02T15:45:56Z</time>
      </trkpt>
      <trkpt lat="49.924433995038271" lon="1.080974992364645">
        <ele>6.87</ele>
        <time>2018-07-02T15:45:57Z</time>
      </trkpt>
      <trkpt lat="49.924433995038271" lon="1.080974992364645">
        <ele>6.87</ele>
        <time>2018-07-02T15:46:07Z</time>
      </trkpt>
      <trkpt lat="49.924520999193192" lon="1.080924030393362">
        <ele>7.35</ele>
        <time>2018-07-02T15:46:14Z</time>
      </trkpt>
      <trkpt lat="49.925104966387153" lon="1.080574002116919">
        <ele>9.27</ele>
        <time>2018-07-02T15:46:24Z</time>
      </trkpt>
      <trkpt lat="49.925510985776782" lon="1.080332016572356">
        <ele>9.27</ele>
        <time>2018-07-02T15:46:29Z</time>
      </trkpt>
      <trkpt lat="49.925830001011491" lon="1.080132024362683">
        <ele>10.23</ele>
        <time>2018-07-02T15:46:35Z</time>
      </trkpt>
      <trkpt lat="49.925870988518" lon="1.0801069624722">
        <ele>10.23</ele>
        <time>2018-07-02T15:46:36Z</time>
      </trkpt>
      <trkpt lat="49.925908958539367" lon="1.08008299022913">
        <ele>10.23</ele>
        <time>2018-07-02T15:46:37Z</time>
      </trkpt>
      <trkpt lat="49.926167037338018" lon="1.079921973869205">
        <ele>10.23</ele>
        <time>2018-07-02T15:46:46Z</time>
      </trkpt>
      <trkpt lat="49.926287988200784" lon="1.079907976090908">
        <ele>10.23</ele>
        <time>2018-07-02T15:46:51Z</time>
      </trkpt>
      <trkpt lat="49.926312966272235" lon="1.079905964434147">
        <ele>10.23</ele>
        <time>2018-07-02T15:46:52Z</time>
      </trkpt>
      <trkpt lat="49.92647398263216" lon="1.080013001337647">
        <ele>10.23</ele>
        <time>2018-07-02T15:46:57Z</time>
      </trkpt>
      <trkpt lat="49.926507007330656" lon="1.079989029094577">
        <ele>10.23</ele>
        <time>2018-07-02T15:46:58Z</time>
      </trkpt>
      <trkpt lat="49.926510024815798" lon="1.079986011609435">
        <ele>10.23</ele>
        <time>2018-07-02T15:46:59Z</time>
      </trkpt>
      <trkpt lat="49.926658971235156" lon="1.079689962789416">
        <ele>7.83</ele>
        <time>2018-07-02T15:47:09Z</time>
      </trkpt>
      <trkpt lat="49.926745975390077" lon="1.079620979726315">
        <ele>8.310000000000001</ele>
        <time>2018-07-02T15:47:20Z</time>
      </trkpt>
      <trkpt lat="49.927007993683219" lon="1.079477984458208">
        <ele>8.310000000000001</ele>
        <time>2018-07-02T15:47:26Z</time>
      </trkpt>
      <trkpt lat="49.92705199867487" lon="1.079450994729996">
        <ele>8.310000000000001</ele>
        <time>2018-07-02T15:47:27Z</time>
      </trkpt>
      <trkpt lat="49.927205974236131" lon="1.079344963654876">
        <ele>7.83</ele>
        <time>2018-07-02T15:47:33Z</time>
      </trkpt>
      <trkpt lat="49.927279986441135" lon="1.079401960596442">
        <ele>8.310000000000001</ele>
        <time>2018-07-02T15:47:41Z</time>
      </trkpt>
      <trkpt lat="49.92731099948287" lon="1.079473039135337">
        <ele>8.789999999999999</ele>
        <time>2018-07-02T15:47:45Z</time>
      </trkpt>
      <trkpt lat="49.927330026403069" lon="1.079500028863549">
        <ele>8.789999999999999</ele>
        <time>2018-07-02T15:47:46Z</time>
      </trkpt>
      <trkpt lat="49.92735399864614" lon="1.079542022198439">
        <ele>9.27</ele>
        <time>2018-07-02T15:47:47Z</time>
      </trkpt>
      <trkpt lat="49.927378976717591" lon="1.079586027190089">
        <ele>9.27</ele>
        <time>2018-07-02T15:47:48Z</time>
      </trkpt>
      <trkpt lat="49.927405966445804" lon="1.07963397167623">
        <ele>9.27</ele>
        <time>2018-07-02T15:47:49Z</time>
      </trkpt>
      <trkpt lat="49.927649041637778" lon="1.080064969137311">
        <ele>8.310000000000001</ele>
        <time>2018-07-02T15:47:55Z</time>
      </trkpt>
      <trkpt lat="49.928186992183328" lon="1.08102897182107">
        <ele>7.83</ele>
        <time>2018-07-02T15:48:07Z</time>
      </trkpt>
      <trkpt lat="49.928521011024714" lon="1.081705978140235">
        <ele>4.94</ele>
        <time>2018-07-02T15:48:15Z</time>
      </trkpt>
      <trkpt lat="49.928799038752913" lon="1.082347026094794">
        <ele>3.02</ele>
        <time>2018-07-02T15:48:25Z</time>
      </trkpt>
      <trkpt lat="49.928809013217688" lon="1.082369992509484">
        <ele>3.5</ele>
        <time>2018-07-02T15:48:26Z</time>
      </trkpt>
      <trkpt lat="49.92881597019732" lon="1.082386001944542">
        <ele>3.98</ele>
        <time>2018-07-02T15:48:41Z</time>
      </trkpt>
      <trkpt lat="49.92881597019732" lon="1.082386001944542">
        <ele>3.98</ele>
        <time>2018-07-02T15:49:18Z</time>
      </trkpt>
    </trkseg>
  </trk>

  <trk>
    <name>Track vom: 2018-07-02 17:56</name>
    <extensions>
      <gpxx:TrackExtension>
        <gpxx:DisplayColor>DarkGray</gpxx:DisplayColor>
      </gpxx:TrackExtension>
    </extensions>
    <trkseg>
      <trkpt lat="49.928828962147236" lon="1.082481974735856">
        <ele>6.87</ele>
        <time>2018-07-02T15:56:09Z</time>
      </trkpt>
      <trkpt lat="49.928818987682462" lon="1.08244601637125">
        <ele>9.27</ele>
        <time>2018-07-02T15:56:54Z</time>
      </trkpt>
      <trkpt lat="49.928817981854081" lon="1.082433024421334">
        <ele>8.789999999999999</ele>
        <time>2018-07-02T15:57:32Z</time>
      </trkpt>
      <trkpt lat="49.928817981854081" lon="1.082433024421334">
        <ele>8.789999999999999</ele>
        <time>2018-07-02T15:57:35Z</time>
      </trkpt>
      <trkpt lat="49.928844971582294" lon="1.082452973350883">
        <ele>8.789999999999999</ele>
        <time>2018-07-02T15:57:37Z</time>
      </trkpt>
      <trkpt lat="49.928978998214006" lon="1.082804007455707">
        <ele>8.789999999999999</ele>
        <time>2018-07-02T15:57:43Z</time>
      </trkpt>
      <trkpt lat="49.929000958800316" lon="1.082867039367557">
        <ele>8.310000000000001</ele>
        <time>2018-07-02T15:57:44Z</time>
      </trkpt>
      <trkpt lat="49.929019985720515" lon="1.082945996895433">
        <ele>8.310000000000001</ele>
        <time>2018-07-02T15:57:45Z</time>
      </trkpt>
      <trkpt lat="49.929041024297476" lon="1.083037024363875">
        <ele>8.310000000000001</ele>
        <time>2018-07-02T15:57:46Z</time>
      </trkpt>
      <trkpt lat="49.929062984883785" lon="1.083126962184906">
        <ele>8.310000000000001</ele>
        <time>2018-07-02T15:57:47Z</time>
      </trkpt>
      <trkpt lat="49.929134985432029" lon="1.08347699046135">
        <ele>8.310000000000001</ele>
        <time>2018-07-02T15:57:51Z</time>
      </trkpt>
      <trkpt lat="49.929152000695467" lon="1.083571035414934">
        <ele>8.310000000000001</ele>
        <time>2018-07-02T15:57:52Z</time>
      </trkpt>
      <trkpt lat="49.929169015958905" lon="1.083667008206248">
        <ele>8.310000000000001</ele>
        <time>2018-07-02T15:57:53Z</time>
      </trkpt>
      <trkpt lat="49.929185025393963" lon="1.083760969340801">
        <ele>8.310000000000001</ele>
        <time>2018-07-02T15:57:54Z</time>
      </trkpt>
      <trkpt lat="49.92922299541533" lon="1.083851996809244">
        <ele>8.310000000000001</ele>
        <time>2018-07-02T15:57:55Z</time>
      </trkpt>
      <trkpt lat="49.929268006235361" lon="1.083917962387204">
        <ele>8.310000000000001</ele>
        <time>2018-07-02T15:57:56Z</time>
      </trkpt>
      <trkpt lat="49.929311005398631" lon="1.083983005955815">
        <ele>8.310000000000001</ele>
        <time>2018-07-02T15:57:57Z</time>
      </trkpt>
      <trkpt lat="49.929485013708472" lon="1.084228008985519">
        <ele>7.83</ele>
        <time>2018-07-02T15:58:02Z</time>
      </trkpt>
      <trkpt lat="49.929506974294782" lon="1.084256004542112">
        <ele>7.83</ele>
        <time>2018-07-02T15:58:03Z</time>
      </trkpt>
      <trkpt lat="49.929576963186264" lon="1.084273019805551">
        <ele>7.83</ele>
        <time>2018-07-02T15:58:04Z</time>
      </trkpt>
      <trkpt lat="49.929590038955212" lon="1.084242006763816">
        <ele>7.83</ele>
        <time>2018-07-02T15:58:05Z</time>
      </trkpt>
      <trkpt lat="49.929604036733508" lon="1.084205964580178">
        <ele>8.310000000000001</ele>
        <time>2018-07-02T15:58:06Z</time>
      </trkpt>
      <trkpt lat="49.929622979834676" lon="1.084159025922418">
        <ele>7.83</ele>
        <time>2018-07-02T15:58:07Z</time>
      </trkpt>
      <trkpt lat="49.929648963734508" lon="1.084096999838948">
        <ele>7.83</ele>
        <time>2018-07-02T15:58:08Z</time>
      </trkpt>
      <trkpt lat="49.929678970947862" lon="1.084022987633944">
        <ele>7.35</ele>
        <time>2018-07-02T15:58:09Z</time>
      </trkpt>
      <trkpt lat="49.929750971496105" lon="1.083847973495722">
        <ele>6.87</ele>
        <time>2018-07-02T15:58:11Z</time>
      </trkpt>
      <trkpt lat="49.929788019508123" lon="1.083752000704408">
        <ele>6.87</ele>
        <time>2018-07-02T15:58:12Z</time>
      </trkpt>
      <trkpt lat="49.93016998283565" lon="1.082901991903782">
        <ele>7.83</ele>
        <time>2018-07-02T15:58:22Z</time>
      </trkpt>
      <trkpt lat="49.930209964513779" lon="1.082822028547525">
        <ele>7.83</ele>
        <time>2018-07-02T15:58:23Z</time>
      </trkpt>
      <trkpt lat="49.930249024182558" lon="1.082741981372237">
        <ele>7.83</ele>
        <time>2018-07-02T15:58:24Z</time>
      </trkpt>
      <trkpt lat="49.930324964225292" lon="1.082582976669073">
        <ele>7.35</ele>
        <time>2018-07-02T15:58:26Z</time>
      </trkpt>
      <trkpt lat="49.930523028597236" lon="1.082175029441714">
        <ele>8.789999999999999</ele>
        <time>2018-07-02T15:58:35Z</time>
      </trkpt>
      <trkpt lat="49.930523028597236" lon="1.082175029441714">
        <ele>8.789999999999999</ele>
        <time>2018-07-02T15:58:36Z</time>
      </trkpt>
      <trkpt lat="49.930557981133461" lon="1.082012001425028">
        <ele>8.789999999999999</ele>
        <time>2018-07-02T15:58:37Z</time>
      </trkpt>
      <trkpt lat="49.930524034425616" lon="1.081961961463094">
        <ele>9.27</ele>
        <time>2018-07-02T15:58:38Z</time>
      </trkpt>
      <trkpt lat="49.930485980585217" lon="1.081904964521527">
        <ele>9.27</ele>
        <time>2018-07-02T15:58:39Z</time>
      </trkpt>
      <trkpt lat="49.930440969765186" lon="1.081837993115187">
        <ele>9.75</ele>
        <time>2018-07-02T15:58:40Z</time>
      </trkpt>
      <trkpt lat="49.930393025279045" lon="1.081764986738563">
        <ele>9.75</ele>
        <time>2018-07-02T15:58:41Z</time>
      </trkpt>
      <trkpt lat="49.929763963446021" lon="1.080741975456476">
        <ele>8.789999999999999</ele>
        <time>2018-07-02T15:58:53Z</time>
      </trkpt>
      <trkpt lat="49.929164992645383" lon="1.07963103801012">
        <ele>10.23</ele>
        <time>2018-07-02T15:59:04Z</time>
      </trkpt>
      <trkpt lat="49.928602986037731" lon="1.078623030334711">
        <ele>9.75</ele>
        <time>2018-07-02T15:59:15Z</time>
      </trkpt>
      <trkpt lat="49.9285579752177" lon="1.078538959845901">
        <ele>9.75</ele>
        <time>2018-07-02T15:59:16Z</time>
      </trkpt>
      <trkpt lat="49.928512964397669" lon="1.078457990661264">
        <ele>9.27</ele>
        <time>2018-07-02T15:59:17Z</time>
      </trkpt>
      <trkpt lat="49.927942994982004" lon="1.077191988006234">
        <ele>8.310000000000001</ele>
        <time>2018-07-02T15:59:29Z</time>
      </trkpt>
      <trkpt lat="49.927287027239799" lon="1.075673019513488">
        <ele>8.789999999999999</ele>
        <time>2018-07-02T15:59:42Z</time>
      </trkpt>
      <trkpt lat="49.92694697342813" lon="1.074881013482809">
        <ele>8.789999999999999</ele>
        <time>2018-07-02T15:59:50Z</time>
      </trkpt>
      <trkpt lat="49.926915038377047" lon="1.074804989621043">
        <ele>8.789999999999999</ele>
        <time>2018-07-02T15:59:51Z</time>
      </trkpt>
      <trkpt lat="49.926886036992073" lon="1.074737012386322">
        <ele>8.789999999999999</ele>
        <time>2018-07-02T15:59:52Z</time>
      </trkpt>
      <trkpt lat="49.926829962059855" lon="1.074601979926229">
        <ele>8.789999999999999</ele>
        <time>2018-07-02T15:59:54Z</time>
      </trkpt>
      <trkpt lat="49.926788974553347" lon="1.074470970779657">
        <ele>8.310000000000001</ele>
        <time>2018-07-02T15:59:56Z</time>
      </trkpt>
      <trkpt lat="49.926765002310276" lon="1.074458984658122">
        <ele>8.310000000000001</ele>
        <time>2018-07-02T15:59:57Z</time>
      </trkpt>
      <trkpt lat="49.926745975390077" lon="1.074450016021729">
        <ele>8.310000000000001</ele>
        <time>2018-07-02T15:59:58Z</time>
      </trkpt>
      <trkpt lat="49.926716974005103" lon="1.074488991871476">
        <ele>8.789999999999999</ele>
        <time>2018-07-02T16:00:00Z</time>
      </trkpt>
      <trkpt lat="49.926682021468878" lon="1.07453903183341">
        <ele>8.789999999999999</ele>
        <time>2018-07-02T16:00:01Z</time>
      </trkpt>
      <trkpt lat="49.926682021468878" lon="1.074579013511539">
        <ele>9.27</ele>
        <time>2018-07-02T16:00:02Z</time>
      </trkpt>
      <trkpt lat="49.92672803811729" lon="1.074678003787994">
        <ele>9.27</ele>
        <time>2018-07-02T16:00:03Z</time>
      </trkpt>
      <trkpt lat="49.926763996481895" lon="1.074762996286154">
        <ele>9.75</ele>
        <time>2018-07-02T16:00:04Z</time>
      </trkpt>
      <trkpt lat="49.927194993942976" lon="1.075766980648041">
        <ele>7.83</ele>
        <time>2018-07-02T16:00:13Z</time>
      </trkpt>
      <trkpt lat="49.92724402807653" lon="1.075878040865064">
        <ele>7.83</ele>
        <time>2018-07-02T16:00:14Z</time>
      </trkpt>
      <trkpt lat="49.92776102386415" lon="1.077033989131451">
        <ele>10.23</ele>
        <time>2018-07-02T16:00:25Z</time>
      </trkpt>
      <trkpt lat="49.928169976919889" lon="1.077981982380152">
        <ele>7.35</ele>
        <time>2018-07-02T16:00:35Z</time>
      </trkpt>
      <trkpt lat="49.928267961367965" lon="1.078223967924714">
        <ele>6.39</ele>
        <time>2018-07-02T16:00:38Z</time>
      </trkpt>
      <trkpt lat="49.928312972187996" lon="1.078334022313356">
        <ele>5.42</ele>
        <time>2018-07-02T16:00:40Z</time>
      </trkpt>
      <trkpt lat="49.928886964917183" lon="1.079383017495275">
        <ele>6.87</ele>
        <time>2018-07-02T16:00:50Z</time>
      </trkpt>
      <trkpt lat="49.929388035088778" lon="1.080282982438803">
        <ele>9.27</ele>
        <time>2018-07-02T16:00:59Z</time>
      </trkpt>
      <trkpt lat="49.929773015901446" lon="1.080991001799703">
        <ele>10.710000000000001</ele>
        <time>2018-07-02T16:01:08Z</time>
      </trkpt>
      <trkpt lat="49.930088007822633" lon="1.081515038385987">
        <ele>12.15</ele>
        <time>2018-07-02T16:01:18Z</time>
      </trkpt>
      <trkpt lat="49.930494027212262" lon="1.082127001136541">
        <ele>10.23</ele>
        <time>2018-07-02T16:01:27Z</time>
      </trkpt>
      <trkpt lat="49.930592011660337" lon="1.082105040550232">
        <ele>10.23</ele>
        <time>2018-07-02T16:01:30Z</time>
      </trkpt>
      <trkpt lat="49.930609026923776" lon="1.082089031115174">
        <ele>9.75</ele>
        <time>2018-07-02T16:01:31Z</time>
      </trkpt>
      <trkpt lat="49.930630987510085" lon="1.08193002641201">
        <ele>9.75</ele>
        <time>2018-07-02T16:01:32Z</time>
      </trkpt>
      <trkpt lat="49.930646996945143" lon="1.081819972023368">
        <ele>9.27</ele>
        <time>2018-07-02T16:01:33Z</time>
      </trkpt>
      <trkpt lat="49.930681027472019" lon="1.081581003963947">
        <ele>8.310000000000001</ele>
        <time>2018-07-02T16:01:35Z</time>
      </trkpt>
      <trkpt lat="49.930695025250316" lon="1.081487964838743">
        <ele>8.310000000000001</ele>
        <time>2018-07-02T16:01:36Z</time>
      </trkpt>
      <trkpt lat="49.930829973891377" lon="1.08128503896296">
        <ele>8.310000000000001</ele>
        <time>2018-07-02T16:01:38Z</time>
      </trkpt>
      <trkpt lat="49.93102703243494" lon="1.081111030653119">
        <ele>5.42</ele>
        <time>2018-07-02T16:01:46Z</time>
      </trkpt>
      <trkpt lat="49.931086963042617" lon="1.081083035096526">
        <ele>5.42</ele>
        <time>2018-07-02T16:01:48Z</time>
      </trkpt>
      <trkpt lat="49.931183019652963" lon="1.081037018448114">
        <ele>4.94</ele>
        <time>2018-07-02T16:01:50Z</time>
      </trkpt>
      <trkpt lat="49.931229036301374" lon="1.081015979871154">
        <ele>4.94</ele>
        <time>2018-07-02T16:01:51Z</time>
      </trkpt>
      <trkpt lat="49.931261977180839" lon="1.080999970436096">
        <ele>4.94</ele>
        <time>2018-07-02T16:01:52Z</time>
      </trkpt>
      <trkpt lat="49.931269017979503" lon="1.080984966829419">
        <ele>4.94</ele>
        <time>2018-07-02T16:01:53Z</time>
      </trkpt>
      <trkpt lat="49.9312449619174" lon="1.08094003982842">
        <ele>4.46</ele>
        <time>2018-07-02T16:01:54Z</time>
      </trkpt>
      <trkpt lat="49.931215960532427" lon="1.080883964896202">
        <ele>4.46</ele>
        <time>2018-07-02T16:01:55Z</time>
      </trkpt>
      <trkpt lat="49.931186959147453" lon="1.080829985439777">
        <ele>4.46</ele>
        <time>2018-07-02T16:01:56Z</time>
      </trkpt>
      <trkpt lat="49.93115602992475" lon="1.08077198266983">
        <ele>4.46</ele>
        <time>2018-07-02T16:01:57Z</time>
      </trkpt>
      <trkpt lat="49.931121999397874" lon="1.080707022920251">
        <ele>4.46</ele>
        <time>2018-07-02T16:01:58Z</time>
      </trkpt>
      <trkpt lat="49.931088974699378" lon="1.08064298518002">
        <ele>4.46</ele>
        <time>2018-07-02T16:01:59Z</time>
      </trkpt>
      <trkpt lat="49.931013034656644" lon="1.080498984083533">
        <ele>4.46</ele>
        <time>2018-07-02T16:02:01Z</time>
      </trkpt>
      <trkpt lat="49.93077096529305" lon="1.080042002722621">
        <ele>4.46</ele>
        <time>2018-07-02T16:02:10Z</time>
      </trkpt>
      <trkpt lat="49.930689996108413" lon="1.079886015504599">
        <ele>5.91</ele>
        <time>2018-07-02T16:02:19Z</time>
      </trkpt>
      <trkpt lat="49.9306630063802" lon="1.079835975542665">
        <ele>6.39</ele>
        <time>2018-07-02T16:02:31Z</time>
      </trkpt>
      <trkpt lat="49.930652026087046" lon="1.079815020784736">
        <ele>6.39</ele>
        <time>2018-07-02T16:02:46Z</time>
      </trkpt>
      <trkpt lat="49.930475000292063" lon="1.079478990286589">
        <ele>6.87</ele>
        <time>2018-07-02T16:02:52Z</time>
      </trkpt>
      <trkpt lat="49.930348014459014" lon="1.079238010570407">
        <ele>8.310000000000001</ele>
        <time>2018-07-02T16:03:02Z</time>
      </trkpt>
      <trkpt lat="49.930332005023956" lon="1.079209009185433">
        <ele>8.310000000000001</ele>
        <time>2018-07-02T16:03:10Z</time>
      </trkpt>
      <trkpt lat="49.930332005023956" lon="1.079209009185433">
        <ele>8.310000000000001</ele>
        <time>2018-07-02T16:03:11Z</time>
      </trkpt>
      <trkpt lat="49.930332005023956" lon="1.079209009185433">
        <ele>8.310000000000001</ele>
        <time>2018-07-02T16:03:30Z</time>
      </trkpt>
      <trkpt lat="49.930332005023956" lon="1.079209009185433">
        <ele>8.310000000000001</ele>
        <time>2018-07-02T16:04:18Z</time>
      </trkpt>
      <trkpt lat="49.930266961455345" lon="1.079084035009146">
        <ele>8.310000000000001</ele>
        <time>2018-07-02T16:05:01Z</time>
      </trkpt>
      <trkpt lat="49.930243995040655" lon="1.079042041674256">
        <ele>7.83</ele>
        <time>2018-07-02T16:05:02Z</time>
      </trkpt>
      <trkpt lat="49.93021197617054" lon="1.078981021419168">
        <ele>7.83</ele>
        <time>2018-07-02T16:05:03Z</time>
      </trkpt>
      <trkpt lat="49.929709983989596" lon="1.078029004856944">
        <ele>8.310000000000001</ele>
        <time>2018-07-02T16:05:13Z</time>
      </trkpt>
      <trkpt lat="49.929215032607317" lon="1.076928963884711">
        <ele>7.83</ele>
        <time>2018-07-02T16:05:24Z</time>
      </trkpt>
      <trkpt lat="49.929144037887454" lon="1.076767025515437">
        <ele>7.83</ele>
        <time>2018-07-02T16:05:26Z</time>
      </trkpt>
      <trkpt lat="49.928722009062767" lon="1.075793970376253">
        <ele>8.310000000000001</ele>
        <time>2018-07-02T16:05:37Z</time>
      </trkpt>
      <trkpt lat="49.928302997723222" lon="1.074837008491159">
        <ele>7.35</ele>
        <time>2018-07-02T16:05:48Z</time>
      </trkpt>
      <trkpt lat="49.92789002135396" lon="1.074117003008723">
        <ele>6.87</ele>
        <time>2018-07-02T16:05:58Z</time>
      </trkpt>
      <trkpt lat="49.927835036069155" lon="1.074076015502214">
        <ele>6.39</ele>
        <time>2018-07-02T16:05:59Z</time>
      </trkpt>
      <trkpt lat="49.927780972793698" lon="1.074035027995706">
        <ele>6.39</ele>
        <time>2018-07-02T16:06:00Z</time>
      </trkpt>
      <trkpt lat="49.927734034135938" lon="1.073998985812068">
        <ele>6.39</ele>
        <time>2018-07-02T16:06:01Z</time>
      </trkpt>
      <trkpt lat="49.927665973082185" lon="1.07398297637701">
        <ele>5.91</ele>
        <time>2018-07-02T16:06:02Z</time>
      </trkpt>
      <trkpt lat="49.927605958655477" lon="1.073967972770333">
        <ele>5.91</ele>
        <time>2018-07-02T16:06:03Z</time>
      </trkpt>
      <trkpt lat="49.9275460280478" lon="1.073961015790701">
        <ele>5.91</ele>
        <time>2018-07-02T16:06:04Z</time>
      </trkpt>
      <trkpt lat="49.927486013621092" lon="1.073977025225759">
        <ele>5.91</ele>
        <time>2018-07-02T16:06:05Z</time>
      </trkpt>
      <trkpt lat="49.927427005022764" lon="1.073993034660816">
        <ele>5.42</ele>
        <time>2018-07-02T16:06:06Z</time>
      </trkpt>
      <trkpt lat="49.927369002252817" lon="1.074008038267493">
        <ele>5.42</ele>
        <time>2018-07-02T16:06:07Z</time>
      </trkpt>
      <trkpt lat="49.927177978679538" lon="1.074041984975338">
        <ele>5.91</ele>
        <time>2018-07-02T16:06:10Z</time>
      </trkpt>
      <trkpt lat="49.927116958424449" lon="1.074041984975338">
        <ele>6.39</ele>
        <time>2018-07-02T16:06:11Z</time>
      </trkpt>
      <trkpt lat="49.926995001733303" lon="1.074041984975338">
        <ele>6.39</ele>
        <time>2018-07-02T16:06:13Z</time>
      </trkpt>
      <trkpt lat="49.926749998703599" lon="1.073936959728599">
        <ele>6.87</ele>
        <time>2018-07-02T16:06:17Z</time>
      </trkpt>
      <trkpt lat="49.926617983728647" lon="1.073870994150639">
        <ele>5.91</ele>
        <time>2018-07-02T16:06:24Z</time>
      </trkpt>
      <trkpt lat="49.926617983728647" lon="1.073870994150639">
        <ele>5.91</ele>
        <time>2018-07-02T16:06:30Z</time>
      </trkpt>
      <trkpt lat="49.926598034799099" lon="1.073850961402059">
        <ele>6.39</ele>
        <time>2018-07-02T16:06:31Z</time>
      </trkpt>
      <trkpt lat="49.926543971523643" lon="1.073796981945634">
        <ele>6.39</ele>
        <time>2018-07-02T16:06:44Z</time>
      </trkpt>
      <trkpt lat="49.926459984853864" lon="1.073671001940966">
        <ele>7.35</ele>
        <time>2018-07-02T16:07:20Z</time>
      </trkpt>
      <trkpt lat="49.926423020660877" lon="1.073578968644142">
        <ele>7.35</ele>
        <time>2018-07-02T16:07:21Z</time>
      </trkpt>
      <trkpt lat="49.925845004618168" lon="1.07204700820148">
        <ele>8.789999999999999</ele>
        <time>2018-07-02T16:07:33Z</time>
      </trkpt>
      <trkpt lat="49.925703015178442" lon="1.071584997698665">
        <ele>8.789999999999999</ele>
        <time>2018-07-02T16:07:37Z</time>
      </trkpt>
      <trkpt lat="49.92561299353838" lon="1.071293978020549">
        <ele>10.23</ele>
        <time>2018-07-02T16:07:42Z</time>
      </trkpt>
      <trkpt lat="49.92559002712369" lon="1.071221977472305">
        <ele>10.710000000000001</ele>
        <time>2018-07-02T16:07:43Z</time>
      </trkpt>
      <trkpt lat="49.925568988546729" lon="1.071154000237584">
        <ele>10.710000000000001</ele>
        <time>2018-07-02T16:07:44Z</time>
      </trkpt>
      <trkpt lat="49.92555096745491" lon="1.071094991639257">
        <ele>11.19</ele>
        <time>2018-07-02T16:07:45Z</time>
      </trkpt>
      <trkpt lat="49.925533030182123" lon="1.071035983040929">
        <ele>11.19</ele>
        <time>2018-07-02T16:07:46Z</time>
      </trkpt>
      <trkpt lat="49.925515009090304" lon="1.070977980270982">
        <ele>11.19</ele>
        <time>2018-07-02T16:07:47Z</time>
      </trkpt>
      <trkpt lat="49.925498999655247" lon="1.070926012471318">
        <ele>11.19</ele>
        <time>2018-07-02T16:07:48Z</time>
      </trkpt>
      <trkpt lat="49.925479972735047" lon="1.070867003872991">
        <ele>11.19</ele>
        <time>2018-07-02T16:07:49Z</time>
      </trkpt>
      <trkpt lat="49.925444014370441" lon="1.070896005257964">
        <ele>11.19</ele>
        <time>2018-07-02T16:07:50Z</time>
      </trkpt>
      <trkpt lat="49.925376959145069" lon="1.070949984714389">
        <ele>11.19</ele>
        <time>2018-07-02T16:07:51Z</time>
      </trkpt>
      <trkpt lat="49.925298001617193" lon="1.071022991091013">
        <ele>11.19</ele>
        <time>2018-07-02T16:07:52Z</time>
      </trkpt>
      <trkpt lat="49.925209991633892" lon="1.071104966104031">
        <ele>10.710000000000001</ele>
        <time>2018-07-02T16:07:53Z</time>
      </trkpt>
      <trkpt lat="49.92511996999383" lon="1.071189036592841">
        <ele>10.23</ele>
        <time>2018-07-02T16:07:54Z</time>
      </trkpt>
      <trkpt lat="49.925035983324051" lon="1.071268999949098">
        <ele>10.23</ele>
        <time>2018-07-02T16:07:55Z</time>
      </trkpt>
      <trkpt lat="49.924953002482653" lon="1.071343012154102">
        <ele>10.23</ele>
        <time>2018-07-02T16:07:56Z</time>
      </trkpt>
      <trkpt lat="49.924642033874989" lon="1.071621039882302">
        <ele>11.67</ele>
        <time>2018-07-02T16:08:00Z</time>
      </trkpt>
      <trkpt lat="49.924576990306377" lon="1.071678036823869">
        <ele>12.15</ele>
        <time>2018-07-02T16:08:01Z</time>
      </trkpt>
      <trkpt lat="49.92451898753643" lon="1.071731010451913">
        <ele>12.15</ele>
        <time>2018-07-02T16:08:02Z</time>
      </trkpt>
      <trkpt lat="49.924402981996536" lon="1.07183201238513">
        <ele>13.119999999999999</ele>
        <time>2018-07-02T16:08:05Z</time>
      </trkpt>
      <trkpt lat="49.924370963126421" lon="1.071857996284962">
        <ele>13.119999999999999</ele>
        <time>2018-07-02T16:08:06Z</time>
      </trkpt>
      <trkpt lat="49.924341039732099" lon="1.071881968528032">
        <ele>13.6</ele>
        <time>2018-07-02T16:08:07Z</time>
      </trkpt>
      <trkpt lat="49.924224028363824" lon="1.071977019309998">
        <ele>14.56</ele>
        <time>2018-07-02T16:08:12Z</time>
      </trkpt>
      <trkpt lat="49.924200978130102" lon="1.071995962411165">
        <ele>15.039999999999999</ele>
        <time>2018-07-02T16:08:13Z</time>
      </trkpt>
      <trkpt lat="49.924168959259987" lon="1.072022030130029">
        <ele>15.039999999999999</ele>
        <time>2018-07-02T16:08:14Z</time>
      </trkpt>
      <trkpt lat="49.924126965925097" lon="1.072055976837874">
        <ele>15.039999999999999</ele>
        <time>2018-07-02T16:08:15Z</time>
      </trkpt>
      <trkpt lat="49.924076003953815" lon="1.072095036506653">
        <ele>15.039999999999999</ele>
        <time>2018-07-02T16:08:16Z</time>
      </trkpt>
      <trkpt lat="49.9240249581635" lon="1.072127977386117">
        <ele>15.039999999999999</ele>
        <time>2018-07-02T16:08:17Z</time>
      </trkpt>
      <trkpt lat="49.923976007848978" lon="1.072157984599471">
        <ele>15.039999999999999</ele>
        <time>2018-07-02T16:08:18Z</time>
      </trkpt>
      <trkpt lat="49.923929991200566" lon="1.072186985984445">
        <ele>15.039999999999999</ele>
        <time>2018-07-02T16:08:19Z</time>
      </trkpt>
      <trkpt lat="49.923890009522438" lon="1.072211964055896">
        <ele>15.039999999999999</ele>
        <time>2018-07-02T16:08:20Z</time>
      </trkpt>
      <trkpt lat="49.9238539673388" lon="1.072235014289618">
        <ele>15.039999999999999</ele>
        <time>2018-07-02T16:08:21Z</time>
      </trkpt>
      <trkpt lat="49.923822032287717" lon="1.072254963219166">
        <ele>14.56</ele>
        <time>2018-07-02T16:08:22Z</time>
      </trkpt>
      <trkpt lat="49.923791019245982" lon="1.072273990139365">
        <ele>14.08</ele>
        <time>2018-07-02T16:08:23Z</time>
      </trkpt>
      <trkpt lat="49.92376696318388" lon="1.072288993746042">
        <ele>13.119999999999999</ele>
        <time>2018-07-02T16:08:24Z</time>
      </trkpt>
      <trkpt lat="49.92376696318388" lon="1.072288993746042">
        <ele>12.630000000000001</ele>
        <time>2018-07-02T16:08:25Z</time>
      </trkpt>
      <trkpt lat="49.92376696318388" lon="1.072288993746042">
        <ele>12.15</ele>
        <time>2018-07-02T16:08:42Z</time>
      </trkpt>
      <trkpt lat="49.923668978735805" lon="1.072350014001131">
        <ele>11.67</ele>
        <time>2018-07-02T16:09:22Z</time>
      </trkpt>
      <trkpt lat="49.923527995124459" lon="1.072472976520658">
        <ele>10.710000000000001</ele>
        <time>2018-07-02T16:09:25Z</time>
      </trkpt>
      <trkpt lat="49.92348600178957" lon="1.072533996775746">
        <ele>11.19</ele>
        <time>2018-07-02T16:09:26Z</time>
      </trkpt>
      <trkpt lat="49.923437973484397" lon="1.072602979838848">
        <ele>10.710000000000001</ele>
        <time>2018-07-02T16:09:27Z</time>
      </trkpt>
      <trkpt lat="49.923388017341495" lon="1.072674980387092">
        <ele>10.710000000000001</ele>
        <time>2018-07-02T16:09:28Z</time>
      </trkpt>
      <trkpt lat="49.923329008743167" lon="1.072723008692265">
        <ele>10.23</ele>
        <time>2018-07-02T16:09:29Z</time>
      </trkpt>
      <trkpt lat="49.923262959346175" lon="1.07277799397707">
        <ele>9.75</ele>
        <time>2018-07-02T16:09:30Z</time>
      </trkpt>
      <trkpt lat="49.922905974090099" lon="1.073098015040159">
        <ele>9.75</ele>
        <time>2018-07-02T16:09:36Z</time>
      </trkpt>
      <trkpt lat="49.922813018783927" lon="1.073116958141327">
        <ele>9.75</ele>
        <time>2018-07-02T16:09:37Z</time>
      </trkpt>
      <trkpt lat="49.922726014629006" lon="1.073136990889907">
        <ele>8.789999999999999</ele>
        <time>2018-07-02T16:09:38Z</time>
      </trkpt>
      <trkpt lat="49.922649990767241" lon="1.073154006153345">
        <ele>8.310000000000001</ele>
        <time>2018-07-02T16:09:39Z</time>
      </trkpt>
      <trkpt lat="49.922574972733855" lon="1.073172027245164">
        <ele>8.310000000000001</ele>
        <time>2018-07-02T16:09:40Z</time>
      </trkpt>
      <trkpt lat="49.921776009723544" lon="1.073369001969695">
        <ele>10.23</ele>
        <time>2018-07-02T16:09:47Z</time>
      </trkpt>
      <trkpt lat="49.920524004846811" lon="1.073612999171019">
        <ele>19.359999999999999</ele>
        <time>2018-07-02T16:09:57Z</time>
      </trkpt>
      <trkpt lat="49.919409966096282" lon="1.073855990543962">
        <ele>31.859999999999999</ele>
        <time>2018-07-02T16:10:07Z</time>
      </trkpt>
      <trkpt lat="49.919321034103632" lon="1.073875017464161">
        <ele>32.82</ele>
        <time>2018-07-02T16:10:08Z</time>
      </trkpt>
      <trkpt lat="49.91923201829195" lon="1.07389303855598">
        <ele>33.780000000000001</ele>
        <time>2018-07-02T16:10:09Z</time>
      </trkpt>
      <trkpt lat="49.918792974203825" lon="1.073983982205391">
        <ele>38.590000000000003</ele>
        <time>2018-07-02T16:10:14Z</time>
      </trkpt>
      <trkpt lat="49.918698007240891" lon="1.07400300912559">
        <ele>39.07</ele>
        <time>2018-07-02T16:10:15Z</time>
      </trkpt>
      <trkpt lat="49.917734004557133" lon="1.074193026870489">
        <ele>44.359999999999999</ele>
        <time>2018-07-02T16:10:23Z</time>
      </trkpt>
      <trkpt lat="49.916644021868706" lon="1.074426965788007">
        <ele>50.130000000000003</ele>
        <time>2018-07-02T16:10:32Z</time>
      </trkpt>
      <trkpt lat="49.915574993938208" lon="1.074645984917879">
        <ele>53.009999999999998</ele>
        <time>2018-07-02T16:10:42Z</time>
      </trkpt>
      <trkpt lat="49.915204010903835" lon="1.0747139621526">
        <ele>53.009999999999998</ele>
        <time>2018-07-02T16:10:46Z</time>
      </trkpt>
      <trkpt lat="49.915110971778631" lon="1.074730977416039">
        <ele>53.009999999999998</ele>
        <time>2018-07-02T16:10:47Z</time>
      </trkpt>
      <trkpt lat="49.914050996303558" lon="1.074949996545911">
        <ele>52.530000000000001</ele>
        <time>2018-07-02T16:10:58Z</time>
      </trkpt>
      <trkpt lat="49.913155976682901" lon="1.075159963220358">
        <ele>52.049999999999997</ele>
        <time>2018-07-02T16:11:08Z</time>
      </trkpt>
      <trkpt lat="49.912460027262568" lon="1.075311005115509">
        <ele>50.130000000000003</ele>
        <time>2018-07-02T16:11:16Z</time>
      </trkpt>
      <trkpt lat="49.912406969815493" lon="1.075322991237044">
        <ele>49.649999999999999</ele>
        <time>2018-07-02T16:11:17Z</time>
      </trkpt>
      <trkpt lat="49.912296999245882" lon="1.075346041470766">
        <ele>47.719999999999999</ele>
        <time>2018-07-02T16:11:25Z</time>
      </trkpt>
      <trkpt lat="49.912100024521351" lon="1.075388034805656">
        <ele>47.719999999999999</ele>
        <time>2018-07-02T16:11:36Z</time>
      </trkpt>
      <trkpt lat="49.911943031474948" lon="1.075416030362248">
        <ele>47.719999999999999</ele>
        <time>2018-07-02T16:11:45Z</time>
      </trkpt>
      <trkpt lat="49.911788972094655" lon="1.075443020090461">
        <ele>48.68</ele>
        <time>2018-07-02T16:12:02Z</time>
      </trkpt>
      <trkpt lat="49.911564001813531" lon="1.075483001768589">
        <ele>49.159999999999997</ele>
        <time>2018-07-02T16:12:15Z</time>
      </trkpt>
      <trkpt lat="49.911372978240252" lon="1.075404966250062">
        <ele>48.68</ele>
        <time>2018-07-02T16:12:22Z</time>
      </trkpt>
      <trkpt lat="49.911317992955446" lon="1.075201034545898">
        <ele>48.68</ele>
        <time>2018-07-02T16:12:24Z</time>
      </trkpt>
      <trkpt lat="49.911268958821893" lon="1.07516398653388">
        <ele>48.68</ele>
        <time>2018-07-02T16:12:25Z</time>
      </trkpt>
      <trkpt lat="49.911212967708707" lon="1.075121993198991">
        <ele>49.159999999999997</ele>
        <time>2018-07-02T16:12:26Z</time>
      </trkpt>
      <trkpt lat="49.911144990473986" lon="1.075072037056088">
        <ele>49.159999999999997</ele>
        <time>2018-07-02T16:12:27Z</time>
      </trkpt>
      <trkpt lat="49.911073995754123" lon="1.075058039277792">
        <ele>49.159999999999997</ele>
        <time>2018-07-02T16:12:28Z</time>
      </trkpt>
      <trkpt lat="49.911011969670653" lon="1.075037000700831">
        <ele>49.159999999999997</ele>
        <time>2018-07-02T16:12:29Z</time>
      </trkpt>
      <trkpt lat="49.910910967737436" lon="1.074986038729549">
        <ele>49.159999999999997</ele>
        <time>2018-07-02T16:12:30Z</time>
      </trkpt>
      <trkpt lat="49.91087500937283" lon="1.074945973232389">
        <ele>49.649999999999999</ele>
        <time>2018-07-02T16:12:31Z</time>
      </trkpt>
      <trkpt lat="49.910241002216935" lon="1.074166959151626">
        <ele>53.490000000000002</ele>
        <time>2018-07-02T16:12:40Z</time>
      </trkpt>
      <trkpt lat="49.909482020884752" lon="1.073254002258182">
        <ele>57.82</ele>
        <time>2018-07-02T16:12:50Z</time>
      </trkpt>
      <trkpt lat="49.909150013700128" lon="1.072855023667216">
        <ele>61.659999999999997</ele>
        <time>2018-07-02T16:13:00Z</time>
      </trkpt>
      <trkpt lat="49.909017998725176" lon="1.072696018964052">
        <ele>64.069999999999993</ele>
        <time>2018-07-02T16:13:08Z</time>
      </trkpt>
      <trkpt lat="49.908971982076764" lon="1.072640027850866">
        <ele>64.549999999999997</ele>
        <time>2018-07-02T16:13:09Z</time>
      </trkpt>
      <trkpt lat="49.908361025154591" lon="1.071816002950072">
        <ele>67.909999999999997</ele>
        <time>2018-07-02T16:13:18Z</time>
      </trkpt>
      <trkpt lat="49.908109987154603" lon="1.07123002409935">
        <ele>70.310000000000002</ele>
        <time>2018-07-02T16:13:22Z</time>
      </trkpt>
      <trkpt lat="49.908057013526559" lon="1.07108099386096">
        <ele>70.790000000000006</ele>
        <time>2018-07-02T16:13:23Z</time>
      </trkpt>
      <trkpt lat="49.908013008534908" lon="1.070875972509384">
        <ele>71.760000000000005</ele>
        <time>2018-07-02T16:13:24Z</time>
      </trkpt>
      <trkpt lat="49.907935978844762" lon="1.070514963939786">
        <ele>72.719999999999999</ele>
        <time>2018-07-02T16:13:26Z</time>
      </trkpt>
      <trkpt lat="49.907679995521903" lon="1.06796401552856">
        <ele>78.480000000000004</ele>
        <time>2018-07-02T16:13:40Z</time>
      </trkpt>
      <trkpt lat="49.907628027722239" lon="1.067029014229775">
        <ele>80.409999999999997</ele>
        <time>2018-07-02T16:13:47Z</time>
      </trkpt>
      <trkpt lat="49.907696004956961" lon="1.065882034599781">
        <ele>81.849999999999994</ele>
        <time>2018-07-02T16:13:56Z</time>
      </trkpt>
      <trkpt lat="49.907944025471807" lon="1.064809989184141">
        <ele>79.930000000000007</ele>
        <time>2018-07-02T16:14:04Z</time>
      </trkpt>
      <trkpt lat="49.907976966351271" lon="1.064686020836234">
        <ele>79.450000000000003</ele>
        <time>2018-07-02T16:14:10Z</time>
      </trkpt>
      <trkpt lat="49.907976966351271" lon="1.064686020836234">
        <ele>79.450000000000003</ele>
        <time>2018-07-02T16:14:26Z</time>
      </trkpt>
      <trkpt lat="49.908092971891165" lon="1.064256029203534">
        <ele>78.969999999999999</ele>
        <time>2018-07-02T16:14:35Z</time>
      </trkpt>
      <trkpt lat="49.908528998494148" lon="1.063150959089398">
        <ele>76.560000000000002</ele>
        <time>2018-07-02T16:14:43Z</time>
      </trkpt>
      <trkpt lat="49.909317987039685" lon="1.061555966734886">
        <ele>66.950000000000003</ele>
        <time>2018-07-02T16:14:54Z</time>
      </trkpt>
      <trkpt lat="49.909599032253027" lon="1.060849959030747">
        <ele>63.100000000000001</ele>
        <time>2018-07-02T16:14:58Z</time>
      </trkpt>
      <trkpt lat="49.909635996446013" lon="1.060636974871159">
        <ele>62.140000000000001</ele>
        <time>2018-07-02T16:14:59Z</time>
      </trkpt>
      <trkpt lat="49.909644965082407" lon="1.060418961569667">
        <ele>61.18</ele>
        <time>2018-07-02T16:15:00Z</time>
      </trkpt>
      <trkpt lat="49.909635996446013" lon="1.060203965753317">
        <ele>60.219999999999999</ele>
        <time>2018-07-02T16:15:01Z</time>
      </trkpt>
      <trkpt lat="49.909589979797602" lon="1.059997016564012">
        <ele>59.259999999999998</ele>
        <time>2018-07-02T16:15:02Z</time>
      </trkpt>
      <trkpt lat="49.909543041139841" lon="1.059786966070533">
        <ele>58.299999999999997</ele>
        <time>2018-07-02T16:15:03Z</time>
      </trkpt>
      <trkpt lat="49.909496018663049" lon="1.059574987739325">
        <ele>57.340000000000003</ele>
        <time>2018-07-02T16:15:04Z</time>
      </trkpt>
      <trkpt lat="49.908868968486786" lon="1.057492000982165">
        <ele>48.200000000000003</ele>
        <time>2018-07-02T16:15:14Z</time>
      </trkpt>
      <trkpt lat="49.908777019008994" lon="1.057309024035931">
        <ele>47.240000000000002</ele>
        <time>2018-07-02T16:15:15Z</time>
      </trkpt>
      <trkpt lat="49.908678028732538" lon="1.057140966877341">
        <ele>46.280000000000001</ele>
        <time>2018-07-02T16:15:16Z</time>
      </trkpt>
      <trkpt lat="49.908577026799321" lon="1.056969976052642">
        <ele>45.32</ele>
        <time>2018-07-02T16:15:17Z</time>
      </trkpt>
      <trkpt lat="49.908437971025705" lon="1.056860005483031">
        <ele>44.359999999999999</ele>
        <time>2018-07-02T16:15:18Z</time>
      </trkpt>
      <trkpt lat="49.908298999071121" lon="1.056752968579531">
        <ele>43.399999999999999</ele>
        <time>2018-07-02T16:15:19Z</time>
      </trkpt>
      <trkpt lat="49.908159021288157" lon="1.0566630307585">
        <ele>42.920000000000002</ele>
        <time>2018-07-02T16:15:20Z</time>
      </trkpt>
      <trkpt lat="49.908009991049767" lon="1.056602010503411">
        <ele>41.950000000000003</ele>
        <time>2018-07-02T16:15:21Z</time>
      </trkpt>
      <trkpt lat="49.907860038802028" lon="1.056539984419942">
        <ele>40.990000000000002</ele>
        <time>2018-07-02T16:15:22Z</time>
      </trkpt>
      <trkpt lat="49.907705979421735" lon="1.05653596110642">
        <ele>40.030000000000001</ele>
        <time>2018-07-02T16:15:23Z</time>
      </trkpt>
      <trkpt lat="49.907557033002377" lon="1.056539984419942">
        <ele>39.07</ele>
        <time>2018-07-02T16:15:24Z</time>
      </trkpt>
      <trkpt lat="49.907412026077509" lon="1.056544007733464">
        <ele>38.109999999999999</ele>
        <time>2018-07-02T16:15:25Z</time>
      </trkpt>
      <trkpt lat="49.906009985134006" lon="1.056609973311424">
        <ele>28.02</ele>
        <time>2018-07-02T16:15:35Z</time>
      </trkpt>
      <trkpt lat="49.905286962166429" lon="1.056593963876367">
        <ele>22.73</ele>
        <time>2018-07-02T16:15:41Z</time>
      </trkpt>
      <trkpt lat="49.905166011303663" lon="1.056541996076703">
        <ele>21.77</ele>
        <time>2018-07-02T16:15:42Z</time>
      </trkpt>
      <trkpt lat="49.905055034905672" lon="1.056452980265021">
        <ele>20.32</ele>
        <time>2018-07-02T16:15:43Z</time>
      </trkpt>
      <trkpt lat="49.904951015487313" lon="1.05636396445334">
        <ele>19.359999999999999</ele>
        <time>2018-07-02T16:15:44Z</time>
      </trkpt>
      <trkpt lat="49.904855964705348" lon="1.056250976398587">
        <ele>18.879999999999999</ele>
        <time>2018-07-02T16:15:45Z</time>
      </trkpt>
      <trkpt lat="49.904757980257273" lon="1.056134970858693">
        <ele>17.920000000000002</ele>
        <time>2018-07-02T16:15:46Z</time>
      </trkpt>
      <trkpt lat="49.903713008388877" lon="1.054736031219363">
        <ele>8.789999999999999</ele>
        <time>2018-07-02T16:15:58Z</time>
      </trkpt>
      <trkpt lat="49.90258296020329" lon="1.053218990564346">
        <ele>1.1</ele>
        <time>2018-07-02T16:16:12Z</time>
      </trkpt>
      <trkpt lat="49.901909977197647" lon="1.052326988428831">
        <ele>4.46</ele>
        <time>2018-07-02T16:16:22Z</time>
      </trkpt>
      <trkpt lat="49.901234982535243" lon="1.051407996565104">
        <ele>7.83</ele>
        <time>2018-07-02T16:16:29Z</time>
      </trkpt>
      <trkpt lat="49.900977993384004" lon="1.05112100020051">
        <ele>9.27</ele>
        <time>2018-07-02T16:16:32Z</time>
      </trkpt>
      <trkpt lat="49.900894006714225" lon="1.05105503462255">
        <ele>9.75</ele>
        <time>2018-07-02T16:16:33Z</time>
      </trkpt>
      <trkpt lat="49.900801973417401" lon="1.051022009924054">
        <ele>10.23</ele>
        <time>2018-07-02T16:16:34Z</time>
      </trkpt>
      <trkpt lat="49.900712035596371" lon="1.050988985225558">
        <ele>10.710000000000001</ele>
        <time>2018-07-02T16:16:35Z</time>
      </trkpt>
      <trkpt lat="49.900616984814405" lon="1.050972975790501">
        <ele>11.19</ele>
        <time>2018-07-02T16:16:36Z</time>
      </trkpt>
      <trkpt lat="49.900521012023091" lon="1.05096903629601">
        <ele>11.67</ele>
        <time>2018-07-02T16:16:37Z</time>
      </trkpt>
      <trkpt lat="49.899218967184424" lon="1.050924025475979">
        <ele>17.440000000000001</ele>
        <time>2018-07-02T16:16:48Z</time>
      </trkpt>
      <trkpt lat="49.898570040240884" lon="1.050983034074307">
        <ele>20.809999999999999</ele>
        <time>2018-07-02T16:16:52Z</time>
      </trkpt>
      <trkpt lat="49.898397959768772" lon="1.051038019359112">
        <ele>22.25</ele>
        <time>2018-07-02T16:16:53Z</time>
      </trkpt>
      <trkpt lat="49.897313006222248" lon="1.051514027640224">
        <ele>29.460000000000001</ele>
        <time>2018-07-02T16:17:00Z</time>
      </trkpt>
      <trkpt lat="49.895924963057041" lon="1.052137976512313">
        <ele>39.07</ele>
        <time>2018-07-02T16:17:10Z</time>
      </trkpt>
      <trkpt lat="49.895599996671081" lon="1.052280971780419">
        <ele>40.990000000000002</ele>
        <time>2018-07-02T16:17:12Z</time>
      </trkpt>
      <trkpt lat="49.895396986976266" lon="1.052369987592101">
        <ele>42.439999999999998</ele>
        <time>2018-07-02T16:17:13Z</time>
      </trkpt>
      <trkpt lat="49.895239993929863" lon="1.052363030612469">
        <ele>43.399999999999999</ele>
        <time>2018-07-02T16:17:14Z</time>
      </trkpt>
      <trkpt lat="49.89506003446877" lon="1.052354983985424">
        <ele>44.359999999999999</ele>
        <time>2018-07-02T16:17:15Z</time>
      </trkpt>
      <trkpt lat="49.894858030602336" lon="1.052318019792438">
        <ele>45.32</ele>
        <time>2018-07-02T16:17:16Z</time>
      </trkpt>
      <trkpt lat="49.894683016464114" lon="1.052237972617149">
        <ele>46.280000000000001</ele>
        <time>2018-07-02T16:17:17Z</time>
      </trkpt>
      <trkpt lat="49.894508002325892" lon="1.052157003432512">
        <ele>47.240000000000002</ele>
        <time>2018-07-02T16:17:18Z</time>
      </trkpt>
      <trkpt lat="49.894314967095852" lon="1.051986012607813">
        <ele>48.200000000000003</ele>
        <time>2018-07-02T16:17:19Z</time>
      </trkpt>
      <trkpt lat="49.894172977656126" lon="1.051797000691295">
        <ele>49.649999999999999</ele>
        <time>2018-07-02T16:17:20Z</time>
      </trkpt>
      <trkpt lat="49.894036017358303" lon="1.051569012925029">
        <ele>51.090000000000003</ele>
        <time>2018-07-02T16:17:21Z</time>
      </trkpt>
      <trkpt lat="49.893927974626422" lon="1.051330966874957">
        <ele>52.530000000000001</ele>
        <time>2018-07-02T16:17:22Z</time>
      </trkpt>
      <trkpt lat="49.893821021541953" lon="1.051097027957439">
        <ele>53.969999999999999</ele>
        <time>2018-07-02T16:17:23Z</time>
      </trkpt>
      <trkpt lat="49.893717002123594" lon="1.050868034362793">
        <ele>55.409999999999997</ele>
        <time>2018-07-02T16:17:24Z</time>
      </trkpt>
      <trkpt lat="49.893634021282196" lon="1.050610961392522">
        <ele>56.859999999999999</ele>
        <time>2018-07-02T16:17:25Z</time>
      </trkpt>
      <trkpt lat="49.893583981320262" lon="1.05034701526165">
        <ele>58.780000000000001</ele>
        <time>2018-07-02T16:17:26Z</time>
      </trkpt>
      <trkpt lat="49.893551962450147" lon="1.050069993361831">
        <ele>59.740000000000002</ele>
        <time>2018-07-02T16:17:27Z</time>
      </trkpt>
      <trkpt lat="49.893525978550315" lon="1.04978702031076">
        <ele>61.659999999999997</ele>
        <time>2018-07-02T16:17:28Z</time>
      </trkpt>
      <trkpt lat="49.893120964989066" lon="1.045677959918976">
        <ele>76.079999999999998</ele>
        <time>2018-07-02T16:17:42Z</time>
      </trkpt>
      <trkpt lat="49.892685022205114" lon="1.041593961417675">
        <ele>84.730000000000004</ele>
        <time>2018-07-02T16:17:56Z</time>
      </trkpt>
      <trkpt lat="49.892410011962056" lon="1.039859997108579">
        <ele>84.25</ele>
        <time>2018-07-02T16:18:04Z</time>
      </trkpt>
      <trkpt lat="49.891920005902648" lon="1.037008976563811">
        <ele>79.930000000000007</ele>
        <time>2018-07-02T16:18:16Z</time>
      </trkpt>
      <trkpt lat="49.891368979588151" lon="1.033817986026406">
        <ele>75.120000000000005</ele>
        <time>2018-07-02T16:18:29Z</time>
      </trkpt>
      <trkpt lat="49.891106961295009" lon="1.03219298645854">
        <ele>73.200000000000003</ele>
        <time>2018-07-02T16:18:38Z</time>
      </trkpt>
      <trkpt lat="49.891083994880319" lon="1.031982013955712">
        <ele>72.719999999999999</ele>
        <time>2018-07-02T16:18:40Z</time>
      </trkpt>
      <trkpt lat="49.891083994880319" lon="1.031882017850876">
        <ele>72.239999999999995</ele>
        <time>2018-07-02T16:18:41Z</time>
      </trkpt>
      <trkpt lat="49.891083994880319" lon="1.03178302757442">
        <ele>72.239999999999995</ele>
        <time>2018-07-02T16:18:42Z</time>
      </trkpt>
      <trkpt lat="49.891089024022222" lon="1.031671967357397">
        <ele>71.760000000000005</ele>
        <time>2018-07-02T16:18:43Z</time>
      </trkpt>
      <trkpt lat="49.891100004315376" lon="1.031563002616167">
        <ele>71.760000000000005</ele>
        <time>2018-07-02T16:18:44Z</time>
      </trkpt>
      <trkpt lat="49.891060022637248" lon="1.031445991247892">
        <ele>71.760000000000005</ele>
        <time>2018-07-02T16:18:45Z</time>
      </trkpt>
      <trkpt lat="49.891004031524062" lon="1.031322022899985">
        <ele>71.269999999999996</ele>
        <time>2018-07-02T16:18:46Z</time>
      </trkpt>
      <trkpt lat="49.890966983512044" lon="1.031165029853582">
        <ele>71.269999999999996</ele>
        <time>2018-07-02T16:18:47Z</time>
      </trkpt>
      <trkpt lat="49.890922978520393" lon="1.030983980745077">
        <ele>71.269999999999996</ele>
        <time>2018-07-02T16:18:48Z</time>
      </trkpt>
      <trkpt lat="49.890606980770826" lon="1.029435005038977">
        <ele>70.310000000000002</ele>
        <time>2018-07-02T16:18:54Z</time>
      </trkpt>
      <trkpt lat="49.890128038823605" lon="1.026693033054471">
        <ele>67.909999999999997</ele>
        <time>2018-07-02T16:19:02Z</time>
      </trkpt>
      <trkpt lat="49.889575000852346" lon="1.023462982848287">
        <ele>64.549999999999997</ele>
        <time>2018-07-02T16:19:12Z</time>
      </trkpt>
      <trkpt lat="49.888704959303141" lon="1.018436020240188">
        <ele>64.069999999999993</ele>
        <time>2018-07-02T16:19:28Z</time>
      </trkpt>
      <trkpt lat="49.888210007920861" lon="1.015577036887407">
        <ele>60.219999999999999</ele>
        <time>2018-07-02T16:19:35Z</time>
      </trkpt>
      <trkpt lat="49.88734700717032" lon="1.010579997673631">
        <ele>62.140000000000001</ele>
        <time>2018-07-02T16:19:48Z</time>
      </trkpt>
      <trkpt lat="49.886218970641494" lon="1.004017973318696">
        <ele>59.259999999999998</ele>
        <time>2018-07-02T16:20:05Z</time>
      </trkpt>
      <trkpt lat="49.885552022606134" lon="1.000138996168971">
        <ele>58.299999999999997</ele>
        <time>2018-07-02T16:20:15Z</time>
      </trkpt>
      <trkpt lat="49.88475096412003" lon="0.99553800188005">
        <ele>59.740000000000002</ele>
        <time>2018-07-02T16:20:26Z</time>
      </trkpt>
      <trkpt lat="49.88397697918117" lon="0.99111202172935">
        <ele>57.82</ele>
        <time>2018-07-02T16:20:37Z</time>
      </trkpt>
      <trkpt lat="49.882999984547496" lon="0.985395982861519">
        <ele>59.740000000000002</ele>
        <time>2018-07-02T16:20:51Z</time>
      </trkpt>
      <trkpt lat="49.881838001310825" lon="0.978719964623451">
        <ele>63.579999999999998</ele>
        <time>2018-07-02T16:21:06Z</time>
      </trkpt>
      <trkpt lat="49.881328968331218" lon="0.975789986550808">
        <ele>64.069999999999993</ele>
        <time>2018-07-02T16:21:14Z</time>
      </trkpt>
      <trkpt lat="49.881044989451766" lon="0.974151995033026">
        <ele>63.100000000000001</ele>
        <time>2018-07-02T16:21:21Z</time>
      </trkpt>
      <trkpt lat="49.880769979208708" lon="0.972545016556978">
        <ele>61.659999999999997</ele>
        <time>2018-07-02T16:21:29Z</time>
      </trkpt>
      <trkpt lat="49.880358008667827" lon="0.97012298181653">
        <ele>58.299999999999997</ele>
        <time>2018-07-02T16:21:37Z</time>
      </trkpt>
      <trkpt lat="49.879856016486883" lon="0.967185962945223">
        <ele>51.57</ele>
        <time>2018-07-02T16:21:47Z</time>
      </trkpt>
      <trkpt lat="49.879219997674227" lon="0.963603034615517">
        <ele>39.07</ele>
        <time>2018-07-02T16:21:59Z</time>
      </trkpt>
      <trkpt lat="49.87894699908793" lon="0.962079036980867">
        <ele>35.229999999999997</ele>
        <time>2018-07-02T16:22:05Z</time>
      </trkpt>
      <trkpt lat="49.878880027681589" lon="0.961868986487389">
        <ele>35.229999999999997</ele>
        <time>2018-07-02T16:22:06Z</time>
      </trkpt>
      <trkpt lat="49.87879503518343" lon="0.961689027026296">
        <ele>34.740000000000002</ele>
        <time>2018-07-02T16:22:07Z</time>
      </trkpt>
      <trkpt lat="49.878681963309646" lon="0.961556006222963">
        <ele>34.740000000000002</ele>
        <time>2018-07-02T16:22:08Z</time>
      </trkpt>
      <trkpt lat="49.878566963598132" lon="0.961438994854689">
        <ele>34.259999999999998</ele>
        <time>2018-07-02T16:22:09Z</time>
      </trkpt>
      <trkpt lat="49.87843100912869" lon="0.961369005963206">
        <ele>34.259999999999998</ele>
        <time>2018-07-02T16:22:10Z</time>
      </trkpt>
      <trkpt lat="49.878288013860583" lon="0.961295999586582">
        <ele>33.780000000000001</ele>
        <time>2018-07-02T16:22:11Z</time>
      </trkpt>
      <trkpt lat="49.876827970147133" lon="0.960590997710824">
        <ele>27.050000000000001</ele>
        <time>2018-07-02T16:22:20Z</time>
      </trkpt>
      <trkpt lat="49.876668965443969" lon="0.960565013810992">
        <ele>25.609999999999999</ele>
        <time>2018-07-02T16:22:21Z</time>
      </trkpt>
      <trkpt lat="49.876511972397566" lon="0.960555961355567">
        <ele>24.649999999999999</ele>
        <time>2018-07-02T16:22:22Z</time>
      </trkpt>
      <trkpt lat="49.875074978917837" lon="0.960810016840696">
        <ele>13.6</ele>
        <time>2018-07-02T16:22:32Z</time>
      </trkpt>
      <trkpt lat="49.874286996200681" lon="0.960916969925165">
        <ele>7.83</ele>
        <time>2018-07-02T16:22:39Z</time>
      </trkpt>
      <trkpt lat="49.874207032844424" lon="0.960909007117152">
        <ele>7.35</ele>
        <time>2018-07-02T16:22:40Z</time>
      </trkpt>
      <trkpt lat="49.874131008982658" lon="0.960900960490108">
        <ele>6.39</ele>
        <time>2018-07-02T16:22:41Z</time>
      </trkpt>
      <trkpt lat="49.87405096180737" lon="0.960869025439024">
        <ele>4.94</ele>
        <time>2018-07-02T16:22:42Z</time>
      </trkpt>
      <trkpt lat="49.873978039249778" lon="0.960816973820329">
        <ele>3.98</ele>
        <time>2018-07-02T16:22:43Z</time>
      </trkpt>
      <trkpt lat="49.873906960710883" lon="0.960738016292453">
        <ele>3.5</ele>
        <time>2018-07-02T16:22:44Z</time>
      </trkpt>
      <trkpt lat="49.87383202649653" lon="0.960616981610656">
        <ele>2.54</ele>
        <time>2018-07-02T16:22:45Z</time>
      </trkpt>
      <trkpt lat="49.873796990141273" lon="0.960520002990961">
        <ele>2.06</ele>
        <time>2018-07-02T16:22:46Z</time>
      </trkpt>
      <trkpt lat="49.873760025948286" lon="0.960417995229363">
        <ele>1.58</ele>
        <time>2018-07-02T16:22:47Z</time>
      </trkpt>
      <trkpt lat="49.873750973492861" lon="0.960300983861089">
        <ele>1.1</ele>
        <time>2018-07-02T16:22:48Z</time>
      </trkpt>
      <trkpt lat="49.873754996806383" lon="0.960236024111509">
        <ele>0.14</ele>
        <time>2018-07-02T16:22:49Z</time>
      </trkpt>
      <trkpt lat="49.873758014291525" lon="0.960191013291478">
        <ele>0.14</ele>
        <time>2018-07-02T16:22:50Z</time>
      </trkpt>
      <trkpt lat="49.873760025948286" lon="0.960157988592982">
        <ele>-0.34</ele>
        <time>2018-07-02T16:22:51Z</time>
      </trkpt>
      <trkpt lat="49.873762959614396" lon="0.960112977772951">
        <ele>-0.34</ele>
        <time>2018-07-02T16:22:52Z</time>
      </trkpt>
      <trkpt lat="49.87383202649653" lon="0.959972999989986">
        <ele>-1.3</ele>
        <time>2018-07-02T16:22:54Z</time>
      </trkpt>
      <trkpt lat="49.873848035931587" lon="0.959906028583646">
        <ele>-1.3</ele>
        <time>2018-07-02T16:22:55Z</time>
      </trkpt>
      <trkpt lat="49.873867984861135" lon="0.959683991968632">
        <ele>-1.79</ele>
        <time>2018-07-02T16:22:57Z</time>
      </trkpt>
      <trkpt lat="49.874073006212711" lon="0.958929033949971">
        <ele>-1.3</ele>
        <time>2018-07-02T16:23:07Z</time>
      </trkpt>
      <trkpt lat="49.874366037547588" lon="0.957883978262544">
        <ele>-0.82</ele>
        <time>2018-07-02T16:23:16Z</time>
      </trkpt>
      <trkpt lat="49.874397972598672" lon="0.957560017704964">
        <ele>-0.82</ele>
        <time>2018-07-02T16:23:18Z</time>
      </trkpt>
      <trkpt lat="49.874404007568955" lon="0.957388021051884">
        <ele>-0.82</ele>
        <time>2018-07-02T16:23:19Z</time>
      </trkpt>
      <trkpt lat="49.874410964548588" lon="0.957204960286617">
        <ele>-0.82</ele>
        <time>2018-07-02T16:23:20Z</time>
      </trkpt>
      <trkpt lat="49.874256988987327" lon="0.956625016406178">
        <ele>-0.82</ele>
        <time>2018-07-02T16:23:24Z</time>
      </trkpt>
      <trkpt lat="49.874222036451101" lon="0.956488978117704">
        <ele>-0.82</ele>
        <time>2018-07-02T16:23:25Z</time>
      </trkpt>
      <trkpt lat="49.873820962384343" lon="0.954972021281719">
        <ele>2.54</ele>
        <time>2018-07-02T16:23:37Z</time>
      </trkpt>
      <trkpt lat="49.8737489618361" lon="0.954702040180564">
        <ele>3.5</ele>
        <time>2018-07-02T16:23:40Z</time>
      </trkpt>
      <trkpt lat="49.873728007078171" lon="0.954622998833656">
        <ele>3.5</ele>
        <time>2018-07-02T16:23:41Z</time>
      </trkpt>
      <trkpt lat="49.873724989593029" lon="0.95460900105536">
        <ele>3.5</ele>
        <time>2018-07-02T16:23:42Z</time>
      </trkpt>
      <trkpt lat="49.873759020119905" lon="0.954369027167559">
        <ele>3.98</ele>
        <time>2018-07-02T16:23:43Z</time>
      </trkpt>
      <trkpt lat="49.87370696850121" lon="0.954326028004289">
        <ele>4.46</ele>
        <time>2018-07-02T16:23:44Z</time>
      </trkpt>
      <trkpt lat="49.873651983216405" lon="0.95424497500062">
        <ele>4.46</ele>
        <time>2018-07-02T16:23:45Z</time>
      </trkpt>
      <trkpt lat="49.873630022630095" lon="0.954127963632345">
        <ele>4.94</ele>
        <time>2018-07-02T16:23:46Z</time>
      </trkpt>
      <trkpt lat="49.873605966567993" lon="0.953997960314155">
        <ele>5.42</ele>
        <time>2018-07-02T16:23:47Z</time>
      </trkpt>
      <trkpt lat="49.873613007366657" lon="0.953849013894796">
        <ele>5.91</ele>
        <time>2018-07-02T16:23:48Z</time>
      </trkpt>
      <trkpt lat="49.873638991266489" lon="0.953708030283451">
        <ele>6.87</ele>
        <time>2018-07-02T16:23:49Z</time>
      </trkpt>
      <trkpt lat="49.87368400208652" lon="0.953565035015345">
        <ele>7.35</ele>
        <time>2018-07-02T16:23:50Z</time>
      </trkpt>
      <trkpt lat="49.873729012906551" lon="0.953424973413348">
        <ele>8.310000000000001</ele>
        <time>2018-07-02T16:23:51Z</time>
      </trkpt>
      <trkpt lat="49.87378902733326" lon="0.95323596149683">
        <ele>9.27</ele>
        <time>2018-07-02T16:23:52Z</time>
      </trkpt>
      <trkpt lat="49.873840995132923" lon="0.953157003968954">
        <ele>10.23</ele>
        <time>2018-07-02T16:23:53Z</time>
      </trkpt>
      <trkpt lat="49.87391802482307" lon="0.953043010085821">
        <ele>10.710000000000001</ele>
        <time>2018-07-02T16:23:54Z</time>
      </trkpt>
      <trkpt lat="49.874017015099525" lon="0.952949970960617">
        <ele>11.67</ele>
        <time>2018-07-02T16:23:55Z</time>
      </trkpt>
      <trkpt lat="49.874118017032743" lon="0.952855003997684">
        <ele>12.630000000000001</ele>
        <time>2018-07-02T16:23:56Z</time>
      </trkpt>
      <trkpt lat="49.875287041068077" lon="0.951611967757344">
        <ele>23.210000000000001</ele>
        <time>2018-07-02T16:24:06Z</time>
      </trkpt>
      <trkpt lat="49.875663975253701" lon="0.951050966978073">
        <ele>26.57</ele>
        <time>2018-07-02T16:24:09Z</time>
      </trkpt>
      <trkpt lat="49.875779980793595" lon="0.950815016403794">
        <ele>28.02</ele>
        <time>2018-07-02T16:24:10Z</time>
      </trkpt>
      <trkpt lat="49.875877965241671" lon="0.950547968968749">
        <ele>29.460000000000001</ele>
        <time>2018-07-02T16:24:11Z</time>
      </trkpt>
      <trkpt lat="49.875948037952185" lon="0.950256027281284">
        <ele>30.420000000000002</ele>
        <time>2018-07-02T16:24:12Z</time>
      </trkpt>
      <trkpt lat="49.876015009358525" lon="0.949952015653253">
        <ele>31.859999999999999</ele>
        <time>2018-07-02T16:24:13Z</time>
      </trkpt>
      <trkpt lat="49.876082986593246" lon="0.949639035388827">
        <ele>33.299999999999997</ele>
        <time>2018-07-02T16:24:14Z</time>
      </trkpt>
      <trkpt lat="49.876130009070039" lon="0.949300993233919">
        <ele>34.740000000000002</ele>
        <time>2018-07-02T16:24:15Z</time>
      </trkpt>
      <trkpt lat="49.876135038211942" lon="0.948947025462985">
        <ele>36.189999999999998</ele>
        <time>2018-07-02T16:24:16Z</time>
      </trkpt>
      <trkpt lat="49.87606898881495" lon="0.945714963600039">
        <ele>47.719999999999999</ele>
        <time>2018-07-02T16:24:25Z</time>
      </trkpt>
      <trkpt lat="49.875649977475405" lon="0.943123027682304">
        <ele>50.130000000000003</ele>
        <time>2018-07-02T16:24:32Z</time>
      </trkpt>
      <trkpt lat="49.874654039740562" lon="0.93746499158442">
        <ele>53.969999999999999</ele>
        <time>2018-07-02T16:24:45Z</time>
      </trkpt>
      <trkpt lat="49.873235989362001" lon="0.929281990975142">
        <ele>51.090000000000003</ele>
        <time>2018-07-02T16:25:04Z</time>
      </trkpt>
      <trkpt lat="49.872669959440827" lon="0.926053030416369">
        <ele>47.719999999999999</ele>
        <time>2018-07-02T16:25:13Z</time>
      </trkpt>
      <trkpt lat="49.872301993891597" lon="0.923980018123984">
        <ele>46.759999999999998</ele>
        <time>2018-07-02T16:25:21Z</time>
      </trkpt>
      <trkpt lat="49.871926987543702" lon="0.921769039705396">
        <ele>45.799999999999997</ele>
        <time>2018-07-02T16:25:29Z</time>
      </trkpt>
      <trkpt lat="49.871444022282958" lon="0.919016003608704">
        <ele>42.920000000000002</ele>
        <time>2018-07-02T16:25:36Z</time>
      </trkpt>
      <trkpt lat="49.87026602961123" lon="0.912246024236083">
        <ele>42.439999999999998</ele>
        <time>2018-07-02T16:25:52Z</time>
      </trkpt>
      <trkpt lat="49.869957994669676" lon="0.91047702357173">
        <ele>43.399999999999999</ele>
        <time>2018-07-02T16:25:58Z</time>
      </trkpt>
      <trkpt lat="49.869508976116776" lon="0.907899001613259">
        <ele>43.880000000000003</ele>
        <time>2018-07-02T16:26:06Z</time>
      </trkpt>
      <trkpt lat="49.86869802698493" lon="0.903243022039533">
        <ele>40.990000000000002</ele>
        <time>2018-07-02T16:26:17Z</time>
      </trkpt>
      <trkpt lat="49.86775103956461" lon="0.89724401012063">
        <ele>43.399999999999999</ele>
        <time>2018-07-02T16:26:31Z</time>
      </trkpt>
      <trkpt lat="49.86751701682806" lon="0.895075025036931">
        <ele>40.509999999999998</ele>
        <time>2018-07-02T16:26:37Z</time>
      </trkpt>
      <trkpt lat="49.867333034053445" lon="0.893310969695449">
        <ele>38.109999999999999</ele>
        <time>2018-07-02T16:26:45Z</time>
      </trkpt>
      <trkpt lat="49.867118960246444" lon="0.891595026478171">
        <ele>34.740000000000002</ele>
        <time>2018-07-02T16:26:54Z</time>
      </trkpt>
      <trkpt lat="49.867048971354961" lon="0.891453959047794">
        <ele>34.259999999999998</ele>
        <time>2018-07-02T16:26:55Z</time>
      </trkpt>
      <trkpt lat="49.866987029090524" lon="0.891329990699887">
        <ele>34.259999999999998</ele>
        <time>2018-07-02T16:26:56Z</time>
      </trkpt>
      <trkpt lat="49.86687102355063" lon="0.891229994595051">
        <ele>33.780000000000001</ele>
        <time>2018-07-02T16:26:57Z</time>
      </trkpt>
      <trkpt lat="49.866759963333607" lon="0.891134021803737">
        <ele>33.780000000000001</ele>
        <time>2018-07-02T16:26:58Z</time>
      </trkpt>
      <trkpt lat="49.866648986935616" lon="0.891038971021771">
        <ele>33.299999999999997</ele>
        <time>2018-07-02T16:26:59Z</time>
      </trkpt>
      <trkpt lat="49.865638967603445" lon="0.890179993584752">
        <ele>26.09</ele>
        <time>2018-07-02T16:27:09Z</time>
      </trkpt>
      <trkpt lat="49.865191038697958" lon="0.889747990295291">
        <ele>22.25</ele>
        <time>2018-07-02T16:27:14Z</time>
      </trkpt>
      <trkpt lat="49.86513203009963" lon="0.889646988362074">
        <ele>21.77</ele>
        <time>2018-07-02T16:27:15Z</time>
      </trkpt>
      <trkpt lat="49.865079978480935" lon="0.889524025842547">
        <ele>20.809999999999999</ele>
        <time>2018-07-02T16:27:16Z</time>
      </trkpt>
      <trkpt lat="49.865031028166413" lon="0.889407014474273">
        <ele>20.32</ele>
        <time>2018-07-02T16:27:17Z</time>
      </trkpt>
      <trkpt lat="49.864990962669253" lon="0.889279022812843">
        <ele>19.359999999999999</ele>
        <time>2018-07-02T16:27:18Z</time>
      </trkpt>
      <trkpt lat="49.864990962669253" lon="0.889140972867608">
        <ele>18.399999999999999</ele>
        <time>2018-07-02T16:27:19Z</time>
      </trkpt>
      <trkpt lat="49.864990962669253" lon="0.889000995084643">
        <ele>17.920000000000002</ele>
        <time>2018-07-02T16:27:20Z</time>
      </trkpt>
      <trkpt lat="49.865012001246214" lon="0.887624016031623">
        <ele>11.67</ele>
        <time>2018-07-02T16:27:30Z</time>
      </trkpt>
      <trkpt lat="49.865028010681272" lon="0.887484960258007">
        <ele>11.19</ele>
        <time>2018-07-02T16:27:31Z</time>
      </trkpt>
      <trkpt lat="49.865062963217497" lon="0.887351017445326">
        <ele>11.19</ele>
        <time>2018-07-02T16:27:32Z</time>
      </trkpt>
      <trkpt lat="49.86511099152267" lon="0.887228976935148">
        <ele>10.710000000000001</ele>
        <time>2018-07-02T16:27:33Z</time>
      </trkpt>
      <trkpt lat="49.865160025656223" lon="0.887106014415622">
        <ele>10.710000000000001</ele>
        <time>2018-07-02T16:27:34Z</time>
      </trkpt>
      <trkpt lat="49.865207970142365" lon="0.886983973905444">
        <ele>11.19</ele>
        <time>2018-07-02T16:27:35Z</time>
      </trkpt>
      <trkpt lat="49.865763019770384" lon="0.885612023994327">
        <ele>16.48</ele>
        <time>2018-07-02T16:27:48Z</time>
      </trkpt>
      <trkpt lat="49.865803001448512" lon="0.885508004575968">
        <ele>16.960000000000001</ele>
        <time>2018-07-02T16:27:49Z</time>
      </trkpt>
      <trkpt lat="49.865846000611782" lon="0.885398034006357">
        <ele>16.960000000000001</ele>
        <time>2018-07-02T16:27:50Z</time>
      </trkpt>
      <trkpt lat="49.86614003777504" lon="0.88441601023078">
        <ele>21.289999999999999</ele>
        <time>2018-07-02T16:27:57Z</time>
      </trkpt>
      <trkpt lat="49.866155963391066" lon="0.884262034669518">
        <ele>22.25</ele>
        <time>2018-07-02T16:27:58Z</time>
      </trkpt>
      <trkpt lat="49.866126962006092" lon="0.883759036660194">
        <ele>24.170000000000002</ele>
        <time>2018-07-02T16:28:01Z</time>
      </trkpt>
      <trkpt lat="49.86592898145318" lon="0.882027000188828">
        <ele>28.98</ele>
        <time>2018-07-02T16:28:09Z</time>
      </trkpt>
      <trkpt lat="49.865634022280574" lon="0.87934697046876">
        <ele>36.189999999999998</ele>
        <time>2018-07-02T16:28:18Z</time>
      </trkpt>
      <trkpt lat="49.865363035351038" lon="0.875408984720707">
        <ele>47.240000000000002</ele>
        <time>2018-07-02T16:28:29Z</time>
      </trkpt>
      <trkpt lat="49.865416008979082" lon="0.869327997788787">
        <ele>56.859999999999999</ele>
        <time>2018-07-02T16:28:44Z</time>
      </trkpt>
      <trkpt lat="49.865474011749029" lon="0.863689994439483">
        <ele>49.649999999999999</ele>
        <time>2018-07-02T16:28:57Z</time>
      </trkpt>
      <trkpt lat="49.865505024790764" lon="0.860594976693392">
        <ele>46.280000000000001</ele>
        <time>2018-07-02T16:29:05Z</time>
      </trkpt>
      <trkpt lat="49.86554098315537" lon="0.8568299934268">
        <ele>47.240000000000002</ele>
        <time>2018-07-02T16:29:15Z</time>
      </trkpt>
      <trkpt lat="49.865576019510627" lon="0.854132026433945">
        <ele>46.759999999999998</ele>
        <time>2018-07-02T16:29:24Z</time>
      </trkpt>
      <trkpt lat="49.865599991753697" lon="0.850982023403049">
        <ele>43.880000000000003</ele>
        <time>2018-07-02T16:29:36Z</time>
      </trkpt>
      <trkpt lat="49.865610972046852" lon="0.850481959059834">
        <ele>43.399999999999999</ele>
        <time>2018-07-02T16:29:38Z</time>
      </trkpt>
      <trkpt lat="49.865616001188755" lon="0.850250031799078">
        <ele>42.920000000000002</ele>
        <time>2018-07-02T16:29:39Z</time>
      </trkpt>
      <trkpt lat="49.865655982866883" lon="0.847600009292364">
        <ele>42.920000000000002</ele>
        <time>2018-07-02T16:29:51Z</time>
      </trkpt>
      <trkpt lat="49.865706022828817" lon="0.844599036499858">
        <ele>47.719999999999999</ele>
        <time>2018-07-02T16:30:04Z</time>
      </trkpt>
      <trkpt lat="49.865741981193423" lon="0.841671992093325">
        <ele>52.530000000000001</ele>
        <time>2018-07-02T16:30:14Z</time>
      </trkpt>
      <trkpt lat="49.865797972306609" lon="0.838658027350903">
        <ele>54.93</ele>
        <time>2018-07-02T16:30:23Z</time>
      </trkpt>
      <trkpt lat="49.865893023088574" lon="0.83347599953413">
        <ele>52.530000000000001</ele>
        <time>2018-07-02T16:30:35Z</time>
      </trkpt>
      <trkpt lat="49.866024032235146" lon="0.825778981670737">
        <ele>53.490000000000002</ele>
        <time>2018-07-02T16:30:53Z</time>
      </trkpt>
      <trkpt lat="49.866127967834473" lon="0.820194035768509">
        <ele>59.740000000000002</ele>
        <time>2018-07-02T16:31:07Z</time>
      </trkpt>
      <trkpt lat="49.866214971989393" lon="0.816318998113275">
        <ele>56.859999999999999</ele>
        <time>2018-07-02T16:31:18Z</time>
      </trkpt>
      <trkpt lat="49.866610011085868" lon="0.814092010259628">
        <ele>50.130000000000003</ele>
        <time>2018-07-02T16:31:25Z</time>
      </trkpt>
      <trkpt lat="49.867167994379997" lon="0.812324015423656">
        <ele>43.399999999999999</ele>
        <time>2018-07-02T16:31:32Z</time>
      </trkpt>
      <trkpt lat="49.867825973778963" lon="0.810301965102553">
        <ele>34.740000000000002</ele>
        <time>2018-07-02T16:31:42Z</time>
      </trkpt>
      <trkpt lat="49.868369037285447" lon="0.808605970814824">
        <ele>28.5</ele>
        <time>2018-07-02T16:31:53Z</time>
      </trkpt>
      <trkpt lat="49.868547990918159" lon="0.808049999177456">
        <ele>26.09</ele>
        <time>2018-07-02T16:31:57Z</time>
      </trkpt>
      <trkpt lat="49.868940012529492" lon="0.806873012334108">
        <ele>21.77</ele>
        <time>2018-07-02T16:32:05Z</time>
      </trkpt>
      <trkpt lat="49.868997009471059" lon="0.806748038157821">
        <ele>21.289999999999999</ele>
        <time>2018-07-02T16:32:06Z</time>
      </trkpt>
      <trkpt lat="49.869864033535123" lon="0.8049669675529">
        <ele>15.52</ele>
        <time>2018-07-02T16:32:19Z</time>
      </trkpt>
      <trkpt lat="49.870399972423911" lon="0.803637010976672">
        <ele>13.119999999999999</ele>
        <time>2018-07-02T16:32:29Z</time>
      </trkpt>
      <trkpt lat="49.870628966018558" lon="0.802754983305931">
        <ele>11.67</ele>
        <time>2018-07-02T16:32:37Z</time>
      </trkpt>
      <trkpt lat="49.870650004595518" lon="0.802651969715953">
        <ele>11.19</ele>
        <time>2018-07-02T16:32:38Z</time>
      </trkpt>
      <trkpt lat="49.870678000152111" lon="0.802445020526648">
        <ele>10.710000000000001</ele>
        <time>2018-07-02T16:32:40Z</time>
      </trkpt>
      <trkpt lat="49.870672971010208" lon="0.802203034982085">
        <ele>10.23</ele>
        <time>2018-07-02T16:32:43Z</time>
      </trkpt>
      <trkpt lat="49.870660984888673" lon="0.802124999463558">
        <ele>10.23</ele>
        <time>2018-07-02T16:32:44Z</time>
      </trkpt>
      <trkpt lat="49.870650004595518" lon="0.802043024450541">
        <ele>10.23</ele>
        <time>2018-07-02T16:32:45Z</time>
      </trkpt>
      <trkpt lat="49.870637012645602" lon="0.80195602029562">
        <ele>9.75</ele>
        <time>2018-07-02T16:32:46Z</time>
      </trkpt>
      <trkpt lat="49.870625026524067" lon="0.801873039454222">
        <ele>9.75</ele>
        <time>2018-07-02T16:32:47Z</time>
      </trkpt>
      <trkpt lat="49.870613040402532" lon="0.801788968965411">
        <ele>9.75</ele>
        <time>2018-07-02T16:32:48Z</time>
      </trkpt>
      <trkpt lat="49.870588984340429" lon="0.801725015044212">
        <ele>9.27</ele>
        <time>2018-07-02T16:32:49Z</time>
      </trkpt>
      <trkpt lat="49.870555959641933" lon="0.801640022546053">
        <ele>9.27</ele>
        <time>2018-07-02T16:32:50Z</time>
      </trkpt>
      <trkpt lat="49.870251026004553" lon="0.801014984026551">
        <ele>10.710000000000001</ele>
        <time>2018-07-02T16:32:57Z</time>
      </trkpt>
      <trkpt lat="49.869553986936808" lon="0.800053998827934">
        <ele>13.6</ele>
        <time>2018-07-02T16:33:08Z</time>
      </trkpt>
      <trkpt lat="49.868901036679745" lon="0.799153028056026">
        <ele>16.48</ele>
        <time>2018-07-02T16:33:16Z</time>
      </trkpt>
      <trkpt lat="49.868558971211314" lon="0.798667967319489">
        <ele>16.48</ele>
        <time>2018-07-02T16:33:20Z</time>
      </trkpt>
      <trkpt lat="49.86846299842" lon="0.798533018678427">
        <ele>17.440000000000001</ele>
        <time>2018-07-02T16:33:21Z</time>
      </trkpt>
      <trkpt lat="49.867190038785338" lon="0.79677801579237">
        <ele>20.809999999999999</ele>
        <time>2018-07-02T16:33:34Z</time>
      </trkpt>
      <trkpt lat="49.86569101922214" lon="0.794730987399817">
        <ele>24.170000000000002</ele>
        <time>2018-07-02T16:33:48Z</time>
      </trkpt>
      <trkpt lat="49.864395009353757" lon="0.792924016714096">
        <ele>26.09</ele>
        <time>2018-07-02T16:33:58Z</time>
      </trkpt>
      <trkpt lat="49.86296103335917" lon="0.790896015241742">
        <ele>29.940000000000001</ele>
        <time>2018-07-02T16:34:07Z</time>
      </trkpt>
      <trkpt lat="49.862858019769192" lon="0.790632991120219">
        <ele>30.420000000000002</ele>
        <time>2018-07-02T16:34:08Z</time>
      </trkpt>
      <trkpt lat="49.862764980643988" lon="0.790365021675825">
        <ele>30.899999999999999</ele>
        <time>2018-07-02T16:34:09Z</time>
      </trkpt>
      <trkpt lat="49.862722987309098" lon="0.790061010047793">
        <ele>30.899999999999999</ele>
        <time>2018-07-02T16:34:10Z</time>
      </trkpt>
      <trkpt lat="49.86268300563097" lon="0.789750041440129">
        <ele>31.379999999999999</ele>
        <time>2018-07-02T16:34:11Z</time>
      </trkpt>
      <trkpt lat="49.862660961225629" lon="0.789428008720279">
        <ele>31.859999999999999</ele>
        <time>2018-07-02T16:34:12Z</time>
      </trkpt>
      <trkpt lat="49.862693985924125" lon="0.789106981828809">
        <ele>31.859999999999999</ele>
        <time>2018-07-02T16:34:13Z</time>
      </trkpt>
      <trkpt lat="49.862740002572536" lon="0.788780003786087">
        <ele>32.340000000000003</ele>
        <time>2018-07-02T16:34:14Z</time>
      </trkpt>
      <trkpt lat="49.862807979807258" lon="0.788450008258224">
        <ele>33.299999999999997</ele>
        <time>2018-07-02T16:34:15Z</time>
      </trkpt>
      <trkpt lat="49.863378033041954" lon="0.785533022135496">
        <ele>40.990000000000002</ele>
        <time>2018-07-02T16:34:23Z</time>
      </trkpt>
      <trkpt lat="49.863894023001194" lon="0.781484981998801">
        <ele>54.450000000000003</ele>
        <time>2018-07-02T16:34:33Z</time>
      </trkpt>
      <trkpt lat="49.864109018817544" lon="0.776523984968662">
        <ele>64.549999999999997</ele>
        <time>2018-07-02T16:34:45Z</time>
      </trkpt>
      <trkpt lat="49.864046992734075" lon="0.772266983985901">
        <ele>66.950000000000003</ele>
        <time>2018-07-02T16:34:56Z</time>
      </trkpt>
      <trkpt lat="49.863975998014212" lon="0.768312988802791">
        <ele>70.310000000000002</ele>
        <time>2018-07-02T16:35:08Z</time>
      </trkpt>
      <trkpt lat="49.863882036879659" lon="0.762834995985031">
        <ele>73.200000000000003</ele>
        <time>2018-07-02T16:35:23Z</time>
      </trkpt>
      <trkpt lat="49.863783968612552" lon="0.757037987932563">
        <ele>73.680000000000007</ele>
        <time>2018-07-02T16:35:39Z</time>
      </trkpt>
      <trkpt lat="49.863724038004875" lon="0.753448018804193">
        <ele>75.120000000000005</ele>
        <time>2018-07-02T16:35:49Z</time>
      </trkpt>
      <trkpt lat="49.863651031628251" lon="0.748964035883546">
        <ele>74.159999999999997</ele>
        <time>2018-07-02T16:36:04Z</time>
      </trkpt>
      <trkpt lat="49.863555980846286" lon="0.743559971451759">
        <ele>77.040000000000006</ele>
        <time>2018-07-02T16:36:21Z</time>
      </trkpt>
      <trkpt lat="49.863467970862985" lon="0.738539965823293">
        <ele>71.269999999999996</ele>
        <time>2018-07-02T16:36:36Z</time>
      </trkpt>
      <trkpt lat="49.863411979749799" lon="0.737164998427033">
        <ele>69.829999999999998</ele>
        <time>2018-07-02T16:36:42Z</time>
      </trkpt>
      <trkpt lat="49.86335095949471" lon="0.736818993464112">
        <ele>69.349999999999994</ele>
        <time>2018-07-02T16:36:44Z</time>
      </trkpt>
      <trkpt lat="49.863313995301723" lon="0.736653031781316">
        <ele>69.349999999999994</ele>
        <time>2018-07-02T16:36:45Z</time>
      </trkpt>
      <trkpt lat="49.863121965900064" lon="0.735805034637451">
        <ele>69.829999999999998</ele>
        <time>2018-07-02T16:36:51Z</time>
      </trkpt>
      <trkpt lat="49.86311299726367" lon="0.735662039369345">
        <ele>69.829999999999998</ele>
        <time>2018-07-02T16:36:52Z</time>
      </trkpt>
      <trkpt lat="49.863146021962166" lon="0.735483001917601">
        <ele>69.829999999999998</ele>
        <time>2018-07-02T16:36:53Z</time>
      </trkpt>
      <trkpt lat="49.863103022798896" lon="0.73528996668756">
        <ele>69.829999999999998</ele>
        <time>2018-07-02T16:36:55Z</time>
      </trkpt>
      <trkpt lat="49.863034961745143" lon="0.735214026644826">
        <ele>69.829999999999998</ele>
        <time>2018-07-02T16:36:56Z</time>
      </trkpt>
      <trkpt lat="49.862976036965847" lon="0.735147977247834">
        <ele>69.829999999999998</ele>
        <time>2018-07-02T16:36:57Z</time>
      </trkpt>
      <trkpt lat="49.862919962033629" lon="0.735097015276551">
        <ele>69.829999999999998</ele>
        <time>2018-07-02T16:36:58Z</time>
      </trkpt>
      <trkpt lat="49.862836981192231" lon="0.735097015276551">
        <ele>69.829999999999998</ele>
        <time>2018-07-02T16:36:59Z</time>
      </trkpt>
      <trkpt lat="49.862735979259014" lon="0.735043035820127">
        <ele>69.349999999999994</ele>
        <time>2018-07-02T16:37:00Z</time>
      </trkpt>
      <trkpt lat="49.862658027559519" lon="0.734949996694922">
        <ele>69.349999999999994</ele>
        <time>2018-07-02T16:37:01Z</time>
      </trkpt>
      <trkpt lat="49.862568005919456" lon="0.734842959791422">
        <ele>69.829999999999998</ele>
        <time>2018-07-02T16:37:02Z</time>
      </trkpt>
      <trkpt lat="49.862467003986239" lon="0.734722008928657">
        <ele>69.829999999999998</ele>
        <time>2018-07-02T16:37:03Z</time>
      </trkpt>
      <trkpt lat="49.862358961254358" lon="0.734594017267227">
        <ele>69.829999999999998</ele>
        <time>2018-07-02T16:37:04Z</time>
      </trkpt>
      <trkpt lat="49.861389007419348" lon="0.733422981575131">
        <ele>70.310000000000002</ele>
        <time>2018-07-02T16:37:11Z</time>
      </trkpt>
      <trkpt lat="49.860100038349628" lon="0.732214981690049">
        <ele>68.870000000000005</ele>
        <time>2018-07-02T16:37:18Z</time>
      </trkpt>
      <trkpt lat="49.858561037108302" lon="0.731911975890398">
        <ele>65.030000000000001</ele>
        <time>2018-07-02T16:37:25Z</time>
      </trkpt>
      <trkpt lat="49.856974007561803" lon="0.731536969542503">
        <ele>57.340000000000003</ele>
        <time>2018-07-02T16:37:32Z</time>
      </trkpt>
      <trkpt lat="49.856749959290028" lon="0.731405038386583">
        <ele>55.890000000000001</ele>
        <time>2018-07-02T16:37:33Z</time>
      </trkpt>
      <trkpt lat="49.856534041464329" lon="0.731234969571233">
        <ele>54.450000000000003</ele>
        <time>2018-07-02T16:37:34Z</time>
      </trkpt>
      <trkpt lat="49.85507600940764" lon="0.729622039943933">
        <ele>40.990000000000002</ele>
        <time>2018-07-02T16:37:41Z</time>
      </trkpt>
      <trkpt lat="49.853560980409384" lon="0.728319995105267">
        <ele>26.57</ele>
        <time>2018-07-02T16:37:48Z</time>
      </trkpt>
      <trkpt lat="49.851582013070583" lon="0.727265970781446">
        <ele>26.09</ele>
        <time>2018-07-02T16:37:57Z</time>
      </trkpt>
      <trkpt lat="49.850841974839568" lon="0.72643700055778">
        <ele>35.229999999999997</ele>
        <time>2018-07-02T16:38:03Z</time>
      </trkpt>
      <trkpt lat="49.850570987910032" lon="0.726068029180169">
        <ele>39.549999999999997</ele>
        <time>2018-07-02T16:38:07Z</time>
      </trkpt>
      <trkpt lat="49.850532012060285" lon="0.725974990054965">
        <ele>40.030000000000001</ele>
        <time>2018-07-02T16:38:08Z</time>
      </trkpt>
      <trkpt lat="49.850493958219886" lon="0.725884968414903">
        <ele>40.990000000000002</ele>
        <time>2018-07-02T16:38:09Z</time>
      </trkpt>
      <trkpt lat="49.850442996248603" lon="0.725763011723757">
        <ele>41.469999999999999</ele>
        <time>2018-07-02T16:38:10Z</time>
      </trkpt>
      <trkpt lat="49.850465040653944" lon="0.725675001740456">
        <ele>41.950000000000003</ele>
        <time>2018-07-02T16:38:11Z</time>
      </trkpt>
      <trkpt lat="49.850491024553776" lon="0.725569976493716">
        <ele>42.439999999999998</ele>
        <time>2018-07-02T16:38:12Z</time>
      </trkpt>
      <trkpt lat="49.850495969876647" lon="0.725446008145809">
        <ele>43.399999999999999</ele>
        <time>2018-07-02T16:38:13Z</time>
      </trkpt>
      <trkpt lat="49.850471997633576" lon="0.725326985120773">
        <ele>43.880000000000003</ele>
        <time>2018-07-02T16:38:14Z</time>
      </trkpt>
      <trkpt lat="49.850420029833913" lon="0.725220032036304">
        <ele>44.359999999999999</ele>
        <time>2018-07-02T16:38:15Z</time>
      </trkpt>
      <trkpt lat="49.850339982658625" lon="0.725118024274707">
        <ele>44.359999999999999</ele>
        <time>2018-07-02T16:38:16Z</time>
      </trkpt>
      <trkpt lat="49.850249961018562" lon="0.725108971819282">
        <ele>44.840000000000003</ele>
        <time>2018-07-02T16:38:17Z</time>
      </trkpt>
      <trkpt lat="49.850120041519403" lon="0.725095979869366">
        <ele>45.32</ele>
        <time>2018-07-02T16:38:18Z</time>
      </trkpt>
      <trkpt lat="49.850035971030593" lon="0.724964970722795">
        <ele>45.32</ele>
        <time>2018-07-02T16:38:19Z</time>
      </trkpt>
      <trkpt lat="49.849928012117743" lon="0.724796997383237">
        <ele>45.799999999999997</ele>
        <time>2018-07-02T16:38:20Z</time>
      </trkpt>
      <trkpt lat="49.849832039326429" lon="0.724635981023312">
        <ele>46.280000000000001</ele>
        <time>2018-07-02T16:38:21Z</time>
      </trkpt>
      <trkpt lat="49.849719973281026" lon="0.724446969106793">
        <ele>47.240000000000002</ele>
        <time>2018-07-02T16:38:22Z</time>
      </trkpt>
      <trkpt lat="49.84873996116221" lon="0.722437994554639">
        <ele>53.969999999999999</ele>
        <time>2018-07-02T16:38:30Z</time>
      </trkpt>
      <trkpt lat="49.847374968230724" lon="0.718709975481033">
        <ele>55.890000000000001</ele>
        <time>2018-07-02T16:38:42Z</time>
      </trkpt>
      <trkpt lat="49.847003985196352" lon="0.716386009007692">
        <ele>46.759999999999998</ele>
        <time>2018-07-02T16:38:49Z</time>
      </trkpt>
      <trkpt lat="49.847047990188003" lon="0.715364003553987">
        <ele>42.439999999999998</ele>
        <time>2018-07-02T16:38:52Z</time>
      </trkpt>
      <trkpt lat="49.847480999305844" lon="0.713356034830213">
        <ele>31.379999999999999</ele>
        <time>2018-07-02T16:38:58Z</time>
      </trkpt>
      <trkpt lat="49.848496969789267" lon="0.711492989212275">
        <ele>23.210000000000001</ele>
        <time>2018-07-02T16:39:05Z</time>
      </trkpt>
      <trkpt lat="49.848679024726152" lon="0.711294002830982">
        <ele>23.210000000000001</ele>
        <time>2018-07-02T16:39:06Z</time>
      </trkpt>
      <trkpt lat="49.850536035373807" lon="0.709926998242736">
        <ele>28.98</ele>
        <time>2018-07-02T16:39:15Z</time>
      </trkpt>
      <trkpt lat="49.851923994719982" lon="0.708487993106246">
        <ele>33.780000000000001</ele>
        <time>2018-07-02T16:39:22Z</time>
      </trkpt>
      <trkpt lat="49.852700997143984" lon="0.706551019102335">
        <ele>38.590000000000003</ele>
        <time>2018-07-02T16:39:28Z</time>
      </trkpt>
      <trkpt lat="49.852965027093887" lon="0.70484303869307">
        <ele>40.509999999999998</ele>
        <time>2018-07-02T16:39:33Z</time>
      </trkpt>
      <trkpt lat="49.853177005425096" lon="0.701047964394093">
        <ele>34.259999999999998</ele>
        <time>2018-07-02T16:39:43Z</time>
      </trkpt>
      <trkpt lat="49.853758960962296" lon="0.698108011856675">
        <ele>37.630000000000003</ele>
        <time>2018-07-02T16:39:51Z</time>
      </trkpt>
      <trkpt lat="49.854619028046727" lon="0.693840030580759">
        <ele>53.969999999999999</ele>
        <time>2018-07-02T16:40:03Z</time>
      </trkpt>
      <trkpt lat="49.854662027209997" lon="0.691345995292068">
        <ele>61.18</ele>
        <time>2018-07-02T16:40:10Z</time>
      </trkpt>
      <trkpt lat="49.854590026661754" lon="0.690735038369894">
        <ele>62.140000000000001</ele>
        <time>2018-07-02T16:40:12Z</time>
      </trkpt>
      <trkpt lat="49.854521965608001" lon="0.690473020076752">
        <ele>62.619999999999997</ele>
        <time>2018-07-02T16:40:13Z</time>
      </trkpt>
      <trkpt lat="49.854241004213691" lon="0.689178016036749">
        <ele>64.069999999999993</ele>
        <time>2018-07-02T16:40:19Z</time>
      </trkpt>
      <trkpt lat="49.854241004213691" lon="0.689000990241766">
        <ele>64.069999999999993</ele>
        <time>2018-07-02T16:40:20Z</time>
      </trkpt>
      <trkpt lat="49.854241004213691" lon="0.688853971660137">
        <ele>64.549999999999997</ele>
        <time>2018-07-02T16:40:21Z</time>
      </trkpt>
      <trkpt lat="49.854264976456761" lon="0.688739977777004">
        <ele>64.549999999999997</ele>
        <time>2018-07-02T16:40:22Z</time>
      </trkpt>
      <trkpt lat="49.85430202446878" lon="0.688632018864155">
        <ele>64.549999999999997</ele>
        <time>2018-07-02T16:40:23Z</time>
      </trkpt>
      <trkpt lat="49.854348041117191" lon="0.688554989174008">
        <ele>65.030000000000001</ele>
        <time>2018-07-02T16:40:24Z</time>
      </trkpt>
      <trkpt lat="49.854378970339894" lon="0.688402019441128">
        <ele>64.549999999999997</ele>
        <time>2018-07-02T16:40:25Z</time>
      </trkpt>
      <trkpt lat="49.854402020573616" lon="0.688288025557995">
        <ele>65.030000000000001</ele>
        <time>2018-07-02T16:40:26Z</time>
      </trkpt>
      <trkpt lat="49.854404032230377" lon="0.688175959512591">
        <ele>65.030000000000001</ele>
        <time>2018-07-02T16:40:27Z</time>
      </trkpt>
      <trkpt lat="49.854391040280461" lon="0.688083004206419">
        <ele>65.030000000000001</ele>
        <time>2018-07-02T16:40:28Z</time>
      </trkpt>
      <trkpt lat="49.854337982833385" lon="0.688000023365021">
        <ele>65.030000000000001</ele>
        <time>2018-07-02T16:40:29Z</time>
      </trkpt>
      <trkpt lat="49.854289032518864" lon="0.687922993674874">
        <ele>65.030000000000001</ele>
        <time>2018-07-02T16:40:30Z</time>
      </trkpt>
      <trkpt lat="49.854229018092155" lon="0.687845963984728">
        <ele>65.030000000000001</ele>
        <time>2018-07-02T16:40:31Z</time>
      </trkpt>
      <trkpt lat="49.854141008108854" lon="0.687838001176715">
        <ele>65.030000000000001</ele>
        <time>2018-07-02T16:40:32Z</time>
      </trkpt>
      <trkpt lat="49.854041012004018" lon="0.687829032540321">
        <ele>65.030000000000001</ele>
        <time>2018-07-02T16:40:33Z</time>
      </trkpt>
      <trkpt lat="49.853929029777646" lon="0.687732975929976">
        <ele>64.549999999999997</ele>
        <time>2018-07-02T16:40:34Z</time>
      </trkpt>
      <trkpt lat="49.853835990652442" lon="0.687619987875223">
        <ele>64.549999999999997</ele>
        <time>2018-07-02T16:40:35Z</time>
      </trkpt>
      <trkpt lat="49.85374697484076" lon="0.687471041455865">
        <ele>64.069999999999993</ele>
        <time>2018-07-02T16:40:36Z</time>
      </trkpt>
      <trkpt lat="49.853663993999362" lon="0.687299966812134">
        <ele>64.549999999999997</ele>
        <time>2018-07-02T16:40:37Z</time>
      </trkpt>
      <trkpt lat="49.853592999279499" lon="0.687103997915983">
        <ele>64.549999999999997</ele>
        <time>2018-07-02T16:40:38Z</time>
      </trkpt>
      <trkpt lat="49.852889003232121" lon="0.685599027201533">
        <ele>65.510000000000005</ele>
        <time>2018-07-02T16:40:45Z</time>
      </trkpt>
      <trkpt lat="49.851394006982446" lon="0.683355024084449">
        <ele>65.989999999999995</ele>
        <time>2018-07-02T16:40:57Z</time>
      </trkpt>
      <trkpt lat="49.850358003750443" lon="0.682797040790319">
        <ele>64.069999999999993</ele>
        <time>2018-07-02T16:41:04Z</time>
      </trkpt>
      <trkpt lat="49.848798969760537" lon="0.682245008647442">
        <ele>56.369999999999997</ele>
        <time>2018-07-02T16:41:13Z</time>
      </trkpt>
      <trkpt lat="49.847125019878149" lon="0.681650983169675">
        <ele>52.530000000000001</ele>
        <time>2018-07-02T16:41:24Z</time>
      </trkpt>
      <trkpt lat="49.845104981213808" lon="0.680938018485904">
        <ele>60.700000000000003</ele>
        <time>2018-07-02T16:41:37Z</time>
      </trkpt>
      <trkpt lat="49.843211006373167" lon="0.680280961096287">
        <ele>66.950000000000003</ele>
        <time>2018-07-02T16:41:46Z</time>
      </trkpt>
      <trkpt lat="49.840809004381299" lon="0.679417960345745">
        <ele>67.430000000000007</ele>
        <time>2018-07-02T16:41:55Z</time>
      </trkpt>
      <trkpt lat="49.837897969409823" lon="0.678371982648969">
        <ele>65.510000000000005</ele>
        <time>2018-07-02T16:42:06Z</time>
      </trkpt>
      <trkpt lat="49.834530958905816" lon="0.67719298414886">
        <ele>68.870000000000005</ele>
        <time>2018-07-02T16:42:19Z</time>
      </trkpt>
      <trkpt lat="49.829782024025917" lon="0.675505958497524">
        <ele>71.269999999999996</ele>
        <time>2018-07-02T16:42:36Z</time>
      </trkpt>
      <trkpt lat="49.827947979792953" lon="0.674860971048474">
        <ele>70.790000000000006</ele>
        <time>2018-07-02T16:42:44Z</time>
      </trkpt>
      <trkpt lat="49.825804978609085" lon="0.674102995544672">
        <ele>72.239999999999995</ele>
        <time>2018-07-02T16:42:56Z</time>
      </trkpt>
      <trkpt lat="49.823019001632929" lon="0.673116026446223">
        <ele>75.120000000000005</ele>
        <time>2018-07-02T16:43:12Z</time>
      </trkpt>
      <trkpt lat="49.820384988561273" lon="0.672198962420225">
        <ele>78.969999999999999</ele>
        <time>2018-07-02T16:43:27Z</time>
      </trkpt>
      <trkpt lat="49.817569004371762" lon="0.671203024685383">
        <ele>81.849999999999994</ele>
        <time>2018-07-02T16:43:43Z</time>
      </trkpt>
      <trkpt lat="49.813702013343573" lon="0.669873990118504">
        <ele>84.25</ele>
        <time>2018-07-02T16:44:05Z</time>
      </trkpt>
      <trkpt lat="49.810184966772795" lon="0.668633971363306">
        <ele>85.209999999999994</ele>
        <time>2018-07-02T16:44:25Z</time>
      </trkpt>
      <trkpt lat="49.807824036106467" lon="0.667827967554331">
        <ele>80.409999999999997</ele>
        <time>2018-07-02T16:44:38Z</time>
      </trkpt>
      <trkpt lat="49.80572503991425" lon="0.667084995657206">
        <ele>79.930000000000007</ele>
        <time>2018-07-02T16:44:47Z</time>
      </trkpt>
      <trkpt lat="49.801908005028963" lon="0.66574296914041">
        <ele>84.25</ele>
        <time>2018-07-02T16:45:03Z</time>
      </trkpt>
      <trkpt lat="49.79971001856029" lon="0.664976025000215">
        <ele>86.180000000000007</ele>
        <time>2018-07-02T16:45:14Z</time>
      </trkpt>
      <trkpt lat="49.796258015558124" lon="0.663772970438004">
        <ele>94.349999999999994</ele>
        <time>2018-07-02T16:45:32Z</time>
      </trkpt>
      <trkpt lat="49.794586999341846" lon="0.662731016054749">
        <ele>95.790000000000006</ele>
        <time>2018-07-02T16:45:41Z</time>
      </trkpt>
      <trkpt lat="49.793366007506847" lon="0.661300979554653">
        <ele>95.310000000000002</ele>
        <time>2018-07-02T16:45:48Z</time>
      </trkpt>
      <trkpt lat="49.79171996936202" lon="0.659041972830892">
        <ele>96.269999999999996</ele>
        <time>2018-07-02T16:45:57Z</time>
      </trkpt>
      <trkpt lat="49.790171999484301" lon="0.656934008002281">
        <ele>97.709999999999994</ele>
        <time>2018-07-02T16:46:07Z</time>
      </trkpt>
      <trkpt lat="49.789747036993504" lon="0.656412988901138">
        <ele>98.189999999999998</ele>
        <time>2018-07-02T16:46:10Z</time>
      </trkpt>
      <trkpt lat="49.789601024240255" lon="0.656283991411328">
        <ele>98.189999999999998</ele>
        <time>2018-07-02T16:46:11Z</time>
      </trkpt>
      <trkpt lat="49.78946004062891" lon="0.656182989478111">
        <ele>98.189999999999998</ele>
        <time>2018-07-02T16:46:12Z</time>
      </trkpt>
      <trkpt lat="49.789308998733759" lon="0.656132027506828">
        <ele>98.189999999999998</ele>
        <time>2018-07-02T16:46:13Z</time>
      </trkpt>
      <trkpt lat="49.78916198015213" lon="0.656092967838049">
        <ele>98.189999999999998</ele>
        <time>2018-07-02T16:46:14Z</time>
      </trkpt>
      <trkpt lat="49.789011022076011" lon="0.656119035556912">
        <ele>98.189999999999998</ele>
        <time>2018-07-02T16:46:15Z</time>
      </trkpt>
      <trkpt lat="49.788856040686369" lon="0.656146025285125">
        <ele>98.189999999999998</ele>
        <time>2018-07-02T16:46:16Z</time>
      </trkpt>
      <trkpt lat="49.78868798352778" lon="0.656176032498479">
        <ele>98.189999999999998</ele>
        <time>2018-07-02T16:46:17Z</time>
      </trkpt>
      <trkpt lat="49.788541970774531" lon="0.656236968934536">
        <ele>98.189999999999998</ele>
        <time>2018-07-02T16:46:18Z</time>
      </trkpt>
      <trkpt lat="49.786550011485815" lon="0.657002991065383">
        <ele>94.349999999999994</ele>
        <time>2018-07-02T16:46:30Z</time>
      </trkpt>
      <trkpt lat="49.786392012611032" lon="0.656989999115467">
        <ele>93.870000000000005</ele>
        <time>2018-07-02T16:46:31Z</time>
      </trkpt>
      <trkpt lat="49.786233007907867" lon="0.656949011608958">
        <ele>93.390000000000001</ele>
        <time>2018-07-02T16:46:32Z</time>
      </trkpt>
      <trkpt lat="49.786066962406039" lon="0.656906012445688">
        <ele>92.900000000000006</ele>
        <time>2018-07-02T16:46:33Z</time>
      </trkpt>
      <trkpt lat="49.785903012380004" lon="0.656820014119148">
        <ele>92.420000000000002</ele>
        <time>2018-07-02T16:46:34Z</time>
      </trkpt>
      <trkpt lat="49.78574501350522" lon="0.656695039942861">
        <ele>91.459999999999994</ele>
        <time>2018-07-02T16:46:35Z</time>
      </trkpt>
      <trkpt lat="49.785586008802056" lon="0.656569981947541">
        <ele>90.980000000000004</ele>
        <time>2018-07-02T16:46:36Z</time>
      </trkpt>
      <trkpt lat="49.78544301353395" lon="0.656398991122842">
        <ele>90.019999999999996</ele>
        <time>2018-07-02T16:46:37Z</time>
      </trkpt>
      <trkpt lat="49.785316027700901" lon="0.656200004741549">
        <ele>89.060000000000002</ele>
        <time>2018-07-02T16:46:38Z</time>
      </trkpt>
      <trkpt lat="49.785199016332626" lon="0.655982997268438">
        <ele>88.099999999999994</ele>
        <time>2018-07-02T16:46:39Z</time>
      </trkpt>
      <trkpt lat="49.785080999135971" lon="0.655760960653424">
        <ele>87.140000000000001</ele>
        <time>2018-07-02T16:46:40Z</time>
      </trkpt>
      <trkpt lat="49.784973040223122" lon="0.65551302395761">
        <ele>86.180000000000007</ele>
        <time>2018-07-02T16:46:41Z</time>
      </trkpt>
      <trkpt lat="49.784343978390098" lon="0.65411601215601">
        <ele>80.890000000000001</ele>
        <time>2018-07-02T16:46:47Z</time>
      </trkpt>
      <trkpt lat="49.784230990335345" lon="0.653928006067872">
        <ele>79.930000000000007</ele>
        <time>2018-07-02T16:46:48Z</time>
      </trkpt>
      <trkpt lat="49.784096963703632" lon="0.653778975829482">
        <ele>78.969999999999999</ele>
        <time>2018-07-02T16:46:49Z</time>
      </trkpt>
      <trkpt lat="49.783348040655255" lon="0.652918992564082">
        <ele>76.079999999999998</ele>
        <time>2018-07-02T16:46:55Z</time>
      </trkpt>
      <trkpt lat="49.783246032893658" lon="0.652766022831202">
        <ele>76.079999999999998</ele>
        <time>2018-07-02T16:46:56Z</time>
      </trkpt>
      <trkpt lat="49.783175960183144" lon="0.652576005086303">
        <ele>75.599999999999994</ele>
        <time>2018-07-02T16:46:57Z</time>
      </trkpt>
      <trkpt lat="49.783119969069958" lon="0.652372995391488">
        <ele>75.120000000000005</ele>
        <time>2018-07-02T16:46:58Z</time>
      </trkpt>
      <trkpt lat="49.783115023747087" lon="0.652149030938745">
        <ele>74.640000000000001</ele>
        <time>2018-07-02T16:46:59Z</time>
      </trkpt>
      <trkpt lat="49.783122986555099" lon="0.651924982666969">
        <ele>74.159999999999997</ele>
        <time>2018-07-02T16:47:00Z</time>
      </trkpt>
      <trkpt lat="49.783134972676635" lon="0.651693977415562">
        <ele>73.680000000000007</ele>
        <time>2018-07-02T16:47:01Z</time>
      </trkpt>
      <trkpt lat="49.783198004588485" lon="0.651468001306057">
        <ele>73.200000000000003</ele>
        <time>2018-07-02T16:47:02Z</time>
      </trkpt>
      <trkpt lat="49.783264975994825" lon="0.651228027418256">
        <ele>72.239999999999995</ele>
        <time>2018-07-02T16:47:03Z</time>
      </trkpt>
      <trkpt lat="49.783429009839892" lon="0.650758976116776">
        <ele>70.790000000000006</ele>
        <time>2018-07-02T16:47:05Z</time>
      </trkpt>
      <trkpt lat="49.783535962924361" lon="0.650531994178891">
        <ele>70.310000000000002</ele>
        <time>2018-07-02T16:47:06Z</time>
      </trkpt>
      <trkpt lat="49.783646017313004" lon="0.650297971442342">
        <ele>68.870000000000005</ele>
        <time>2018-07-02T16:47:07Z</time>
      </trkpt>
      <trkpt lat="49.784582024440169" lon="0.648849997669458">
        <ele>62.140000000000001</ele>
        <time>2018-07-02T16:47:14Z</time>
      </trkpt>
      <trkpt lat="49.784728959202766" lon="0.648728040978312">
        <ele>60.700000000000003</ele>
        <time>2018-07-02T16:47:15Z</time>
      </trkpt>
      <trkpt lat="49.784874971956015" lon="0.648606000468135">
        <ele>59.740000000000002</ele>
        <time>2018-07-02T16:47:16Z</time>
      </trkpt>
      <trkpt lat="49.785042023286223" lon="0.648532994091511">
        <ele>58.780000000000001</ele>
        <time>2018-07-02T16:47:17Z</time>
      </trkpt>
      <trkpt lat="49.785213014110923" lon="0.648494018241763">
        <ele>57.82</ele>
        <time>2018-07-02T16:47:18Z</time>
      </trkpt>
      <trkpt lat="49.785395991057158" lon="0.648451019078493">
        <ele>56.859999999999999</ele>
        <time>2018-07-02T16:47:19Z</time>
      </trkpt>
      <trkpt lat="49.785585002973676" lon="0.648408019915223">
        <ele>55.890000000000001</ele>
        <time>2018-07-02T16:47:20Z</time>
      </trkpt>
      <trkpt lat="49.786123037338257" lon="0.64825102686882">
        <ele>53.009999999999998</ele>
        <time>2018-07-02T16:47:23Z</time>
      </trkpt>
      <trkpt lat="49.78628296405077" lon="0.64814398996532">
        <ele>52.049999999999997</ele>
        <time>2018-07-02T16:47:24Z</time>
      </trkpt>
      <trkpt lat="49.786445992067456" lon="0.64803603105247">
        <ele>51.090000000000003</ele>
        <time>2018-07-02T16:47:25Z</time>
      </trkpt>
      <trkpt lat="49.786597033962607" lon="0.647878032177687">
        <ele>50.130000000000003</ele>
        <time>2018-07-02T16:47:26Z</time>
      </trkpt>
      <trkpt lat="49.786743968725204" lon="0.64769396558404">
        <ele>49.649999999999999</ele>
        <time>2018-07-02T16:47:27Z</time>
      </trkpt>
      <trkpt lat="49.786894004791975" lon="0.647506965324283">
        <ele>48.68</ele>
        <time>2018-07-02T16:47:28Z</time>
      </trkpt>
      <trkpt lat="49.787044962868094" lon="0.647318037226796">
        <ele>48.200000000000003</ele>
        <time>2018-07-02T16:47:29Z</time>
      </trkpt>
      <trkpt lat="49.787189969792962" lon="0.647136988118291">
        <ele>47.240000000000002</ele>
        <time>2018-07-02T16:47:30Z</time>
      </trkpt>
      <trkpt lat="49.787316033616662" lon="0.646951999515295">
        <ele>46.280000000000001</ele>
        <time>2018-07-02T16:47:31Z</time>
      </trkpt>
      <trkpt lat="49.787430027499795" lon="0.646740021184087">
        <ele>45.799999999999997</ele>
        <time>2018-07-02T16:47:32Z</time>
      </trkpt>
      <trkpt lat="49.787542009726167" lon="0.646530976518989">
        <ele>44.840000000000003</ele>
        <time>2018-07-02T16:47:33Z</time>
      </trkpt>
      <trkpt lat="49.787624990567565" lon="0.646299971267581">
        <ele>44.359999999999999</ele>
        <time>2018-07-02T16:47:34Z</time>
      </trkpt>
      <trkpt lat="49.78767897002399" lon="0.646068966016173">
        <ele>43.880000000000003</ele>
        <time>2018-07-02T16:47:35Z</time>
      </trkpt>
      <trkpt lat="49.78767897002399" lon="0.64577903598547">
        <ele>43.399999999999999</ele>
        <time>2018-07-02T16:47:36Z</time>
      </trkpt>
      <trkpt lat="49.787665978074074" lon="0.645512994378805">
        <ele>42.920000000000002</ele>
        <time>2018-07-02T16:47:37Z</time>
      </trkpt>
      <trkpt lat="49.787621973082423" lon="0.645233960822225">
        <ele>42.439999999999998</ele>
        <time>2018-07-02T16:47:38Z</time>
      </trkpt>
      <trkpt lat="49.787577968090773" lon="0.644951993599534">
        <ele>41.469999999999999</ele>
        <time>2018-07-02T16:47:39Z</time>
      </trkpt>
      <trkpt lat="49.787532035261393" lon="0.64466399140656">
        <ele>40.990000000000002</ele>
        <time>2018-07-02T16:47:40Z</time>
      </trkpt>
      <trkpt lat="49.78737898170948" lon="0.643533021211624">
        <ele>38.109999999999999</ele>
        <time>2018-07-02T16:47:44Z</time>
      </trkpt>
      <trkpt lat="49.787357021123171" lon="0.643252981826663">
        <ele>37.149999999999999</ele>
        <time>2018-07-02T16:47:45Z</time>
      </trkpt>
      <trkpt lat="49.787357021123171" lon="0.642994986847043">
        <ele>36.670000000000002</ele>
        <time>2018-07-02T16:47:46Z</time>
      </trkpt>
      <trkpt lat="49.787370013073087" lon="0.641874996945262">
        <ele>33.299999999999997</ele>
        <time>2018-07-02T16:47:52Z</time>
      </trkpt>
      <trkpt lat="49.78739800862968" lon="0.6403240095824">
        <ele>28.98</ele>
        <time>2018-07-02T16:48:02Z</time>
      </trkpt>
      <trkpt lat="49.787447964772582" lon="0.639780024066567">
        <ele>25.609999999999999</ele>
        <time>2018-07-02T16:48:06Z</time>
      </trkpt>
      <trkpt lat="49.787459028884768" lon="0.63967902213335">
        <ele>24.649999999999999</ele>
        <time>2018-07-02T16:48:07Z</time>
      </trkpt>
      <trkpt lat="49.787473026663065" lon="0.639601992443204">
        <ele>24.170000000000002</ele>
        <time>2018-07-02T16:48:08Z</time>
      </trkpt>
      <trkpt lat="49.787487024441361" lon="0.639548012986779">
        <ele>23.690000000000001</ele>
        <time>2018-07-02T16:48:09Z</time>
      </trkpt>
      <trkpt lat="49.787500016391277" lon="0.639500990509987">
        <ele>22.73</ele>
        <time>2018-07-02T16:48:10Z</time>
      </trkpt>
      <trkpt lat="49.787509990856051" lon="0.639460003003478">
        <ele>22.25</ele>
        <time>2018-07-02T16:48:11Z</time>
      </trkpt>
      <trkpt lat="49.787518959492445" lon="0.639426978304982">
        <ele>21.77</ele>
        <time>2018-07-02T16:48:12Z</time>
      </trkpt>
      <trkpt lat="49.787535974755883" lon="0.639364030212164">
        <ele>20.32</ele>
        <time>2018-07-02T16:48:23Z</time>
      </trkpt>
      <trkpt lat="49.787568999454379" lon="0.639247018843889">
        <ele>19.84</ele>
        <time>2018-07-02T16:48:54Z</time>
      </trkpt>
      <trkpt lat="49.787641000002623" lon="0.639008972793818">
        <ele>19.359999999999999</ele>
        <time>2018-07-02T16:48:57Z</time>
      </trkpt>
      <trkpt lat="49.787694979459047" lon="0.638879975304008">
        <ele>18.879999999999999</ele>
        <time>2018-07-02T16:48:58Z</time>
      </trkpt>
      <trkpt lat="49.787821965292096" lon="0.638876035809517">
        <ele>18.399999999999999</ele>
        <time>2018-07-02T16:49:00Z</time>
      </trkpt>
      <trkpt lat="49.78825899772346" lon="0.63881903886795">
        <ele>15.52</ele>
        <time>2018-07-02T16:49:08Z</time>
      </trkpt>
      <trkpt lat="49.788260003551841" lon="0.6387560069561">
        <ele>15.039999999999999</ele>
        <time>2018-07-02T16:49:09Z</time>
      </trkpt>
      <trkpt lat="49.788261009380221" lon="0.63866900280118">
        <ele>14.56</ele>
        <time>2018-07-02T16:49:10Z</time>
      </trkpt>
      <trkpt lat="49.788274001330137" lon="0.637612966820598">
        <ele>12.15</ele>
        <time>2018-07-02T16:49:19Z</time>
      </trkpt>
      <trkpt lat="49.788280036300421" lon="0.636773016303778">
        <ele>13.119999999999999</ele>
        <time>2018-07-02T16:49:28Z</time>
      </trkpt>
      <trkpt lat="49.788280036300421" lon="0.636436985805631">
        <ele>13.119999999999999</ele>
        <time>2018-07-02T16:49:31Z</time>
      </trkpt>
      <trkpt lat="49.788237037137151" lon="0.63609098084271">
        <ele>13.6</ele>
        <time>2018-07-02T16:49:34Z</time>
      </trkpt>
      <trkpt lat="49.788224967196584" lon="0.636008000001311">
        <ele>13.119999999999999</ele>
        <time>2018-07-02T16:49:35Z</time>
      </trkpt>
      <trkpt lat="49.787981975823641" lon="0.63450001180172">
        <ele>13.119999999999999</ele>
        <time>2018-07-02T16:49:48Z</time>
      </trkpt>
      <trkpt lat="49.787974013015628" lon="0.634450977668166">
        <ele>12.630000000000001</ele>
        <time>2018-07-02T16:49:49Z</time>
      </trkpt>
      <trkpt lat="49.787968983873725" lon="0.634422982111573">
        <ele>12.630000000000001</ele>
        <time>2018-07-02T16:49:50Z</time>
      </trkpt>
      <trkpt lat="49.787952974438667" lon="0.634324997663498">
        <ele>13.119999999999999</ele>
        <time>2018-07-02T16:49:57Z</time>
      </trkpt>
      <trkpt lat="49.78787099942565" lon="0.633872039616108">
        <ele>14.08</ele>
        <time>2018-07-02T16:50:02Z</time>
      </trkpt>
      <trkpt lat="49.787674024701118" lon="0.632903007790446">
        <ele>14.08</ele>
        <time>2018-07-02T16:50:11Z</time>
      </trkpt>
      <trkpt lat="49.787654997780919" lon="0.632839975878596">
        <ele>14.08</ele>
        <time>2018-07-02T16:50:12Z</time>
      </trkpt>
      <trkpt lat="49.787643011659384" lon="0.632784990593791">
        <ele>14.08</ele>
        <time>2018-07-02T16:50:13Z</time>
      </trkpt>
      <trkpt lat="49.78763303719461" lon="0.63274098560214">
        <ele>14.08</ele>
        <time>2018-07-02T16:50:20Z</time>
      </trkpt>
      <trkpt lat="49.787615016102791" lon="0.632658004760742">
        <ele>14.56</ele>
        <time>2018-07-02T16:50:28Z</time>
      </trkpt>
      <trkpt lat="49.78757000528276" lon="0.632646018639207">
        <ele>14.56</ele>
        <time>2018-07-02T16:50:29Z</time>
      </trkpt>
      <trkpt lat="49.787500016391277" lon="0.632626991719007">
        <ele>14.56</ele>
        <time>2018-07-02T16:50:30Z</time>
      </trkpt>
      <trkpt lat="49.787118975073099" lon="0.63252498395741">
        <ele>13.6</ele>
        <time>2018-07-02T16:50:35Z</time>
      </trkpt>
      <trkpt lat="49.787056026980281" lon="0.632507968693972">
        <ele>13.6</ele>
        <time>2018-07-02T16:50:36Z</time>
      </trkpt>
      <trkpt lat="49.787004981189966" lon="0.632536970078945">
        <ele>13.6</ele>
        <time>2018-07-02T16:50:37Z</time>
      </trkpt>
      <trkpt lat="49.786915965378284" lon="0.632586004212499">
        <ele>13.6</ele>
        <time>2018-07-02T16:50:39Z</time>
      </trkpt>
      <trkpt lat="49.786876989528537" lon="0.632606958970428">
        <ele>14.08</ele>
        <time>2018-07-02T16:50:40Z</time>
      </trkpt>
      <trkpt lat="49.786809012293816" lon="0.632646018639207">
        <ele>15.039999999999999</ele>
        <time>2018-07-02T16:50:44Z</time>
      </trkpt>
      <trkpt lat="49.786809012293816" lon="0.632646018639207">
        <ele>15.52</ele>
        <time>2018-07-02T16:51:00Z</time>
      </trkpt>
      <trkpt lat="49.78667096234858" lon="0.632721958681941">
        <ele>16.960000000000001</ele>
        <time>2018-07-02T16:51:16Z</time>
      </trkpt>
      <trkpt lat="49.786542970687151" lon="0.632797982543707">
        <ele>16.960000000000001</ele>
        <time>2018-07-02T16:51:17Z</time>
      </trkpt>
      <trkpt lat="49.78649603202939" lon="0.63274098560214">
        <ele>17.440000000000001</ele>
        <time>2018-07-02T16:51:18Z</time>
      </trkpt>
      <trkpt lat="49.786435011774302" lon="0.632668985053897">
        <ele>17.920000000000002</ele>
        <time>2018-07-02T16:51:19Z</time>
      </trkpt>
      <trkpt lat="49.7863660287112" lon="0.632586004212499">
        <ele>17.920000000000002</ele>
        <time>2018-07-02T16:51:20Z</time>
      </trkpt>
      <trkpt lat="49.786288999021053" lon="0.632493970915675">
        <ele>18.399999999999999</ele>
        <time>2018-07-02T16:51:21Z</time>
      </trkpt>
      <trkpt lat="49.786126976832747" lon="0.632301019504666">
        <ele>19.359999999999999</ele>
        <time>2018-07-02T16:51:23Z</time>
      </trkpt>
      <trkpt lat="49.785985993221402" lon="0.632075965404511">
        <ele>20.32</ele>
        <time>2018-07-02T16:51:25Z</time>
      </trkpt>
      <trkpt lat="49.785922961309552" lon="0.631941016763449">
        <ele>21.289999999999999</ele>
        <time>2018-07-02T16:51:26Z</time>
      </trkpt>
      <trkpt lat="49.785860013216734" lon="0.631810007616878">
        <ele>21.77</ele>
        <time>2018-07-02T16:51:27Z</time>
      </trkpt>
      <trkpt lat="49.785823971033096" lon="0.631641028448939">
        <ele>22.73</ele>
        <time>2018-07-02T16:51:28Z</time>
      </trkpt>
      <trkpt lat="49.785790024325252" lon="0.63147297129035">
        <ele>23.690000000000001</ele>
        <time>2018-07-02T16:51:29Z</time>
      </trkpt>
      <trkpt lat="49.785760017111897" lon="0.63129804097116">
        <ele>24.649999999999999</ele>
        <time>2018-07-02T16:51:30Z</time>
      </trkpt>
      <trkpt lat="49.785736966878176" lon="0.631122021004558">
        <ele>25.129999999999999</ele>
        <time>2018-07-02T16:51:31Z</time>
      </trkpt>
      <trkpt lat="49.785493975505233" lon="0.628755977377295">
        <ele>37.630000000000003</ele>
        <time>2018-07-02T16:51:43Z</time>
      </trkpt>
      <trkpt lat="49.785521971061826" lon="0.626945989206433">
        <ele>45.32</ele>
        <time>2018-07-02T16:51:50Z</time>
      </trkpt>
      <trkpt lat="49.785790024325252" lon="0.624086000025272">
        <ele>55.890000000000001</ele>
        <time>2018-07-02T16:51:58Z</time>
      </trkpt>
      <trkpt lat="49.785897983238101" lon="0.622944971546531">
        <ele>60.219999999999999</ele>
        <time>2018-07-02T16:52:01Z</time>
      </trkpt>
      <trkpt lat="49.785891026258469" lon="0.622564014047384">
        <ele>61.659999999999997</ele>
        <time>2018-07-02T16:52:02Z</time>
      </trkpt>
      <trkpt lat="49.785840986296535" lon="0.62218900769949">
        <ele>62.619999999999997</ele>
        <time>2018-07-02T16:52:03Z</time>
      </trkpt>
      <trkpt lat="49.785790024325252" lon="0.621806960552931">
        <ele>64.069999999999993</ele>
        <time>2018-07-02T16:52:04Z</time>
      </trkpt>
      <trkpt lat="49.785733027383685" lon="0.62141896225512">
        <ele>65.510000000000005</ele>
        <time>2018-07-02T16:52:05Z</time>
      </trkpt>
      <trkpt lat="49.785175966098905" lon="0.618480015546083">
        <ele>75.599999999999994</ele>
        <time>2018-07-02T16:52:13Z</time>
      </trkpt>
      <trkpt lat="49.784617982804775" lon="0.615243008360267">
        <ele>86.659999999999997</ele>
        <time>2018-07-02T16:52:22Z</time>
      </trkpt>
      <trkpt lat="49.784324029460549" lon="0.611349027603865">
        <ele>99.629999999999995</ele>
        <time>2018-07-02T16:52:32Z</time>
      </trkpt>
      <trkpt lat="49.784316988661885" lon="0.608105985447764">
        <ele>107.81</ele>
        <time>2018-07-02T16:52:41Z</time>
      </trkpt>
      <trkpt lat="49.784331992268562" lon="0.603572968393564">
        <ele>111.65000000000001</ele>
        <time>2018-07-02T16:52:53Z</time>
      </trkpt>
      <trkpt lat="49.784182040020823" lon="0.598969040438533">
        <ele>108.77</ele>
        <time>2018-07-02T16:53:05Z</time>
      </trkpt>
      <trkpt lat="49.783695973455906" lon="0.596777005121112">
        <ele>105.40000000000001</ele>
        <time>2018-07-02T16:53:12Z</time>
      </trkpt>
      <trkpt lat="49.7832300234586" lon="0.594862997531891">
        <ele>102.52</ele>
        <time>2018-07-02T16:53:19Z</time>
      </trkpt>
      <trkpt lat="49.783040005713701" lon="0.59406696818769">
        <ele>102.52</ele>
        <time>2018-07-02T16:53:23Z</time>
      </trkpt>
      <trkpt lat="49.783012010157108" lon="0.593904023990035">
        <ele>103</ele>
        <time>2018-07-02T16:53:24Z</time>
      </trkpt>
      <trkpt lat="49.783008992671967" lon="0.593749964609742">
        <ele>103</ele>
        <time>2018-07-02T16:53:25Z</time>
      </trkpt>
      <trkpt lat="49.783022990450263" lon="0.593484006822109">
        <ele>103.95999999999999</ele>
        <time>2018-07-02T16:53:27Z</time>
      </trkpt>
      <trkpt lat="49.782980997115374" lon="0.593359032645822">
        <ele>103.95999999999999</ele>
        <time>2018-07-02T16:53:28Z</time>
      </trkpt>
      <trkpt lat="49.782917965203524" lon="0.593272028490901">
        <ele>103.95999999999999</ele>
        <time>2018-07-02T16:53:29Z</time>
      </trkpt>
      <trkpt lat="49.782849987968802" lon="0.593159040436149">
        <ele>103.95999999999999</ele>
        <time>2018-07-02T16:53:30Z</time>
      </trkpt>
      <trkpt lat="49.782784022390842" lon="0.593011016026139">
        <ele>104.44</ele>
        <time>2018-07-02T16:53:31Z</time>
      </trkpt>
      <trkpt lat="49.782729959115386" lon="0.592836001887918">
        <ele>104.44</ele>
        <time>2018-07-02T16:53:32Z</time>
      </trkpt>
      <trkpt lat="49.782683020457625" lon="0.592628968879581">
        <ele>104.92</ele>
        <time>2018-07-02T16:53:33Z</time>
      </trkpt>
      <trkpt lat="49.782330980524421" lon="0.590777993202209">
        <ele>105.40000000000001</ele>
        <time>2018-07-02T16:53:40Z</time>
      </trkpt>
      <trkpt lat="49.78213400579989" lon="0.587709965184331">
        <ele>104.44</ele>
        <time>2018-07-02T16:53:49Z</time>
      </trkpt>
      <trkpt lat="49.781886991113424" lon="0.583034958690405">
        <ele>103</ele>
        <time>2018-07-02T16:54:01Z</time>
      </trkpt>
      <trkpt lat="49.781539980322123" lon="0.57644703425467">
        <ele>100.59999999999999</ele>
        <time>2018-07-02T16:54:17Z</time>
      </trkpt>
      <trkpt lat="49.781172014772892" lon="0.569537999108434">
        <ele>103.95999999999999</ele>
        <time>2018-07-02T16:54:33Z</time>
      </trkpt>
      <trkpt lat="49.780765995383263" lon="0.561941983178258">
        <ele>108.77</ele>
        <time>2018-07-02T16:54:50Z</time>
      </trkpt>
      <trkpt lat="49.780384032055736" lon="0.554745029658079">
        <ele>87.620000000000005</ele>
        <time>2018-07-02T16:55:06Z</time>
      </trkpt>
      <trkpt lat="49.779991004616022" lon="0.547543969005346">
        <ele>96.75</ele>
        <time>2018-07-02T16:55:22Z</time>
      </trkpt>
      <trkpt lat="49.779864018782973" lon="0.545054962858558">
        <ele>96.75</ele>
        <time>2018-07-02T16:55:29Z</time>
      </trkpt>
      <trkpt lat="49.779751030728221" lon="0.542786987498403">
        <ele>98.670000000000002</ele>
        <time>2018-07-02T16:55:38Z</time>
      </trkpt>
      <trkpt lat="49.779652040451765" lon="0.541166011244059">
        <ele>98.670000000000002</ele>
        <time>2018-07-02T16:55:47Z</time>
      </trkpt>
      <trkpt lat="49.77957702241838" lon="0.539667997509241">
        <ele>101.56</ele>
        <time>2018-07-02T16:55:55Z</time>
      </trkpt>
      <trkpt lat="49.779485994949937" lon="0.53732399828732">
        <ele>103</ele>
        <time>2018-07-02T16:56:03Z</time>
      </trkpt>
      <trkpt lat="49.779366971924901" lon="0.534302992746234">
        <ele>101.08</ele>
        <time>2018-07-02T16:56:12Z</time>
      </trkpt>
      <trkpt lat="49.779294971376657" lon="0.532426033169031">
        <ele>100.11</ele>
        <time>2018-07-02T16:56:20Z</time>
      </trkpt>
      <trkpt lat="49.779177037999034" lon="0.529966028407216">
        <ele>101.08</ele>
        <time>2018-07-02T16:56:34Z</time>
      </trkpt>
      <trkpt lat="49.779038988053799" lon="0.526274973526597">
        <ele>101.56</ele>
        <time>2018-07-02T16:56:55Z</time>
      </trkpt>
      <trkpt lat="49.778914013877511" lon="0.522568998858333">
        <ele>97.709999999999994</ele>
        <time>2018-07-02T16:57:16Z</time>
      </trkpt>
      <trkpt lat="49.778794990852475" lon="0.52067200653255">
        <ele>96.75</ele>
        <time>2018-07-02T16:57:25Z</time>
      </trkpt>
      <trkpt lat="49.778688959777355" lon="0.518180988729">
        <ele>96.75</ele>
        <time>2018-07-02T16:57:33Z</time>
      </trkpt>
      <trkpt lat="49.778528027236462" lon="0.514385998249054">
        <ele>100.59999999999999</ele>
        <time>2018-07-02T16:57:43Z</time>
      </trkpt>
      <trkpt lat="49.778209012001753" lon="0.507948026061058">
        <ele>100.11</ele>
        <time>2018-07-02T16:57:58Z</time>
      </trkpt>
      <trkpt lat="49.778042966499925" lon="0.504792993888259">
        <ele>102.04000000000001</ele>
        <time>2018-07-02T16:58:06Z</time>
      </trkpt>
      <trkpt lat="49.777892008423805" lon="0.501953037455678">
        <ele>105.40000000000001</ele>
        <time>2018-07-02T16:58:16Z</time>
      </trkpt>
      <trkpt lat="49.777782959863544" lon="0.499468976631761">
        <ele>105.40000000000001</ele>
        <time>2018-07-02T16:58:24Z</time>
      </trkpt>
      <trkpt lat="49.777618004009128" lon="0.496100960299373">
        <ele>103.48</ele>
        <time>2018-07-02T16:58:32Z</time>
      </trkpt>
      <trkpt lat="49.777397979050875" lon="0.491985026746988">
        <ele>105.40000000000001</ele>
        <time>2018-07-02T16:58:42Z</time>
      </trkpt>
      <trkpt lat="49.777294965460896" lon="0.48969198949635">
        <ele>105.40000000000001</ele>
        <time>2018-07-02T16:58:50Z</time>
      </trkpt>
      <trkpt lat="49.777101008221507" lon="0.486104032024741">
        <ele>103</ele>
        <time>2018-07-02T16:59:02Z</time>
      </trkpt>
      <trkpt lat="49.776930017396808" lon="0.482394034042954">
        <ele>105.40000000000001</ele>
        <time>2018-07-02T16:59:11Z</time>
      </trkpt>
      <trkpt lat="49.776704041287303" lon="0.477725984528661">
        <ele>105.40000000000001</ele>
        <time>2018-07-02T16:59:23Z</time>
      </trkpt>
      <trkpt lat="49.776511006057262" lon="0.473895035684109">
        <ele>104.92</ele>
        <time>2018-07-02T16:59:34Z</time>
      </trkpt>
      <trkpt lat="49.776297016069293" lon="0.470065008848906">
        <ele>100.11</ele>
        <time>2018-07-02T16:59:47Z</time>
      </trkpt>
      <trkpt lat="49.776099035516381" lon="0.466966973617673">
        <ele>102.52</ele>
        <time>2018-07-02T16:59:56Z</time>
      </trkpt>
      <trkpt lat="49.775896025821567" lon="0.463421009480953">
        <ele>108.77</ele>
        <time>2018-07-02T17:00:06Z</time>
      </trkpt>
      <trkpt lat="49.77566703222692" lon="0.460105966776609">
        <ele>111.65000000000001</ele>
        <time>2018-07-02T17:00:16Z</time>
      </trkpt>
      <trkpt lat="49.7754539642483" lon="0.456439973786473">
        <ele>111.17</ele>
        <time>2018-07-02T17:00:25Z</time>
      </trkpt>
      <trkpt lat="49.775053979828954" lon="0.450253961607814">
        <ele>114.53</ele>
        <time>2018-07-02T17:00:39Z</time>
      </trkpt>
      <trkpt lat="49.774835966527462" lon="0.446833977475762">
        <ele>115.01000000000001</ele>
        <time>2018-07-02T17:00:48Z</time>
      </trkpt>
      <trkpt lat="49.774707974866033" lon="0.444361986592412">
        <ele>113.09</ele>
        <time>2018-07-02T17:00:57Z</time>
      </trkpt>
      <trkpt lat="49.774396000429988" lon="0.441734008491039">
        <ele>111.17</ele>
        <time>2018-07-02T17:01:06Z</time>
      </trkpt>
      <trkpt lat="49.77353903464973" lon="0.438594985753298">
        <ele>112.61</ele>
        <time>2018-07-02T17:01:17Z</time>
      </trkpt>
      <trkpt lat="49.772478975355625" lon="0.435079028829932">
        <ele>116.45999999999999</ele>
        <time>2018-07-02T17:01:30Z</time>
      </trkpt>
      <trkpt lat="49.771555960178375" lon="0.432021981105208">
        <ele>115.01000000000001</ele>
        <time>2018-07-02T17:01:40Z</time>
      </trkpt>
      <trkpt lat="49.770503025501966" lon="0.428583975881338">
        <ele>112.13</ele>
        <time>2018-07-02T17:01:49Z</time>
      </trkpt>
      <trkpt lat="49.769591996446252" lon="0.425563976168633">
        <ele>108.77</ele>
        <time>2018-07-02T17:01:58Z</time>
      </trkpt>
      <trkpt lat="49.768805019557476" lon="0.422990983352065">
        <ele>104.44</ele>
        <time>2018-07-02T17:02:08Z</time>
      </trkpt>
      <trkpt lat="49.768325993791223" lon="0.421438990160823">
        <ele>103.48</ele>
        <time>2018-07-02T17:02:16Z</time>
      </trkpt>
      <trkpt lat="49.767714031040668" lon="0.419363966211677">
        <ele>103.48</ele>
        <time>2018-07-02T17:02:26Z</time>
      </trkpt>
      <trkpt lat="49.766972986981273" lon="0.4164719581604">
        <ele>106.36</ele>
        <time>2018-07-02T17:02:39Z</time>
      </trkpt>
      <trkpt lat="49.76707398891449" lon="0.414723996073008">
        <ele>108.29000000000001</ele>
        <time>2018-07-02T17:02:45Z</time>
      </trkpt>
      <trkpt lat="49.767729034647346" lon="0.41058300063014">
        <ele>114.53</ele>
        <time>2018-07-02T17:02:59Z</time>
      </trkpt>
      <trkpt lat="49.768244018778205" lon="0.407394021749496">
        <ele>107.81</ele>
        <time>2018-07-02T17:03:11Z</time>
      </trkpt>
      <trkpt lat="49.768316019326448" lon="0.406725984066725">
        <ele>106.36</ele>
        <time>2018-07-02T17:03:14Z</time>
      </trkpt>
      <trkpt lat="49.768303027376533" lon="0.406511994078755">
        <ele>105.88</ele>
        <time>2018-07-02T17:03:15Z</time>
      </trkpt>
      <trkpt lat="49.768290035426617" lon="0.406301021575928">
        <ele>105.40000000000001</ele>
        <time>2018-07-02T17:03:16Z</time>
      </trkpt>
      <trkpt lat="49.768246030434966" lon="0.406105974689126">
        <ele>104.44</ele>
        <time>2018-07-02T17:03:17Z</time>
      </trkpt>
      <trkpt lat="49.768160032108426" lon="0.405943030491471">
        <ele>103.95999999999999</ele>
        <time>2018-07-02T17:03:18Z</time>
      </trkpt>
      <trkpt lat="49.768067998811603" lon="0.405784025788307">
        <ele>103.48</ele>
        <time>2018-07-02T17:03:19Z</time>
      </trkpt>
      <trkpt lat="49.767948975786567" lon="0.405647987499833">
        <ele>103</ele>
        <time>2018-07-02T17:03:20Z</time>
      </trkpt>
      <trkpt lat="49.767811009660363" lon="0.405547991394997">
        <ele>102.52</ele>
        <time>2018-07-02T17:03:21Z</time>
      </trkpt>
      <trkpt lat="49.767661979421973" lon="0.405444977805018">
        <ele>102.52</ele>
        <time>2018-07-02T17:03:22Z</time>
      </trkpt>
      <trkpt lat="49.766458002850413" lon="0.404689013957977">
        <ele>96.269999999999996</ele>
        <time>2018-07-02T17:03:30Z</time>
      </trkpt>
      <trkpt lat="49.76630100980401" lon="0.404649032279849">
        <ele>95.310000000000002</ele>
        <time>2018-07-02T17:03:31Z</time>
      </trkpt>
      <trkpt lat="49.766140999272466" lon="0.404651965945959">
        <ele>94.829999999999998</ele>
        <time>2018-07-02T17:03:32Z</time>
      </trkpt>
      <trkpt lat="49.76597897708416" lon="0.404679961502552">
        <ele>93.870000000000005</ele>
        <time>2018-07-02T17:03:33Z</time>
      </trkpt>
      <trkpt lat="49.765791976824403" lon="0.404712986201048">
        <ele>93.390000000000001</ele>
        <time>2018-07-02T17:03:34Z</time>
      </trkpt>
      <trkpt lat="49.765661973506212" lon="0.40475900284946">
        <ele>92.420000000000002</ele>
        <time>2018-07-02T17:03:35Z</time>
      </trkpt>
      <trkpt lat="49.765102984383702" lon="0.404956983402371">
        <ele>90.980000000000004</ele>
        <time>2018-07-02T17:03:39Z</time>
      </trkpt>
      <trkpt lat="49.76496702991426" lon="0.40495103225112">
        <ele>90.5</ele>
        <time>2018-07-02T17:03:40Z</time>
      </trkpt>
      <trkpt lat="49.764850018545985" lon="0.404866961762309">
        <ele>90.5</ele>
        <time>2018-07-02T17:03:41Z</time>
      </trkpt>
      <trkpt lat="49.764763014391065" lon="0.404798984527588">
        <ele>90.019999999999996</ele>
        <time>2018-07-02T17:03:42Z</time>
      </trkpt>
      <trkpt lat="49.764695037156343" lon="0.40463000535965">
        <ele>89.540000000000006</ele>
        <time>2018-07-02T17:03:43Z</time>
      </trkpt>
      <trkpt lat="49.764634016901255" lon="0.404477035626769">
        <ele>89.540000000000006</ele>
        <time>2018-07-02T17:03:44Z</time>
      </trkpt>
      <trkpt lat="49.764619013294578" lon="0.404316019266844">
        <ele>89.060000000000002</ele>
        <time>2018-07-02T17:03:45Z</time>
      </trkpt>
      <trkpt lat="49.764601998031139" lon="0.404131030663848">
        <ele>88.579999999999998</ele>
        <time>2018-07-02T17:03:46Z</time>
      </trkpt>
      <trkpt lat="49.764584982767701" lon="0.403937995433807">
        <ele>88.099999999999994</ele>
        <time>2018-07-02T17:03:47Z</time>
      </trkpt>
      <trkpt lat="49.76456000469625" lon="0.403730040416121">
        <ele>87.620000000000005</ele>
        <time>2018-07-02T17:03:48Z</time>
      </trkpt>
      <trkpt lat="49.764508036896586" lon="0.403523007407784">
        <ele>86.659999999999997</ele>
        <time>2018-07-02T17:03:49Z</time>
      </trkpt>
      <trkpt lat="49.76445103995502" lon="0.403312034904957">
        <ele>86.180000000000007</ele>
        <time>2018-07-02T17:03:50Z</time>
      </trkpt>
      <trkpt lat="49.764366969466209" lon="0.403107013553381">
        <ele>85.209999999999994</ele>
        <time>2018-07-02T17:03:51Z</time>
      </trkpt>
      <trkpt lat="49.764284994453192" lon="0.402905009686947">
        <ele>83.769999999999996</ele>
        <time>2018-07-02T17:03:52Z</time>
      </trkpt>
      <trkpt lat="49.764202013611794" lon="0.402712980285287">
        <ele>82.810000000000002</ele>
        <time>2018-07-02T17:03:53Z</time>
      </trkpt>
      <trkpt lat="49.764031022787094" lon="0.402369992807508">
        <ele>80.409999999999997</ele>
        <time>2018-07-02T17:03:55Z</time>
      </trkpt>
      <trkpt lat="49.763931026682258" lon="0.402190033346415">
        <ele>79.450000000000003</ele>
        <time>2018-07-02T17:03:56Z</time>
      </trkpt>
      <trkpt lat="49.763577980920672" lon="0.40194503031671">
        <ele>76.560000000000002</ele>
        <time>2018-07-02T17:03:59Z</time>
      </trkpt>
      <trkpt lat="49.763456024229527" lon="0.401887027546763">
        <ele>76.079999999999998</ele>
        <time>2018-07-02T17:04:00Z</time>
      </trkpt>
      <trkpt lat="49.76309803314507" lon="0.401654010638595">
        <ele>74.159999999999997</ele>
        <time>2018-07-02T17:04:03Z</time>
      </trkpt>
      <trkpt lat="49.762893011793494" lon="0.4014309681952">
        <ele>72.239999999999995</ele>
        <time>2018-07-02T17:04:05Z</time>
      </trkpt>
      <trkpt lat="49.762793015688658" lon="0.401311023160815">
        <ele>71.269999999999996</ele>
        <time>2018-07-02T17:04:06Z</time>
      </trkpt>
      <trkpt lat="49.762720009312034" lon="0.401130979880691">
        <ele>70.790000000000006</ele>
        <time>2018-07-02T17:04:07Z</time>
      </trkpt>
      <trkpt lat="49.762665024027228" lon="0.400955965742469">
        <ele>69.829999999999998</ele>
        <time>2018-07-02T17:04:08Z</time>
      </trkpt>
      <trkpt lat="49.76262697018683" lon="0.400757985189557">
        <ele>68.870000000000005</ele>
        <time>2018-07-02T17:04:09Z</time>
      </trkpt>
      <trkpt lat="49.762606015428901" lon="0.400552041828632">
        <ele>68.390000000000001</ele>
        <time>2018-07-02T17:04:10Z</time>
      </trkpt>
      <trkpt lat="49.762534014880657" lon="0.399851985275745">
        <ele>66.469999999999999</ele>
        <time>2018-07-02T17:04:13Z</time>
      </trkpt>
      <trkpt lat="49.762385990470648" lon="0.398236960172653">
        <ele>60.219999999999999</ele>
        <time>2018-07-02T17:04:19Z</time>
      </trkpt>
      <trkpt lat="49.762407029047608" lon="0.39799396879971">
        <ele>59.259999999999998</ele>
        <time>2018-07-02T17:04:20Z</time>
      </trkpt>
      <trkpt lat="49.762436030432582" lon="0.397760029882193">
        <ele>58.299999999999997</ele>
        <time>2018-07-02T17:04:21Z</time>
      </trkpt>
      <trkpt lat="49.762495961040258" lon="0.397536987438798">
        <ele>57.82</ele>
        <time>2018-07-02T17:04:22Z</time>
      </trkpt>
      <trkpt lat="49.762559998780489" lon="0.397307993844152">
        <ele>57.340000000000003</ele>
        <time>2018-07-02T17:04:23Z</time>
      </trkpt>
      <trkpt lat="49.762637028470635" lon="0.397075982764363">
        <ele>56.859999999999999</ele>
        <time>2018-07-02T17:04:24Z</time>
      </trkpt>
      <trkpt lat="49.762999964877963" lon="0.395987005904317">
        <ele>54.93</ele>
        <time>2018-07-02T17:04:29Z</time>
      </trkpt>
      <trkpt lat="49.763031983748078" lon="0.395782990381122">
        <ele>54.450000000000003</ele>
        <time>2018-07-02T17:04:30Z</time>
      </trkpt>
      <trkpt lat="49.763042964041233" lon="0.395601019263268">
        <ele>53.969999999999999</ele>
        <time>2018-07-02T17:04:31Z</time>
      </trkpt>
      <trkpt lat="49.762995019555092" lon="0.395422987639904">
        <ele>53.969999999999999</ele>
        <time>2018-07-02T17:04:32Z</time>
      </trkpt>
      <trkpt lat="49.762929975986481" lon="0.395259959623218">
        <ele>53.490000000000002</ele>
        <time>2018-07-02T17:04:33Z</time>
      </trkpt>
      <trkpt lat="49.762816987931728" lon="0.395154012367129">
        <ele>53.009999999999998</ele>
        <time>2018-07-02T17:04:34Z</time>
      </trkpt>
      <trkpt lat="49.762702994048595" lon="0.395100032910705">
        <ele>52.530000000000001</ele>
        <time>2018-07-02T17:04:35Z</time>
      </trkpt>
      <trkpt lat="49.762638034299016" lon="0.395100032910705">
        <ele>52.049999999999997</ele>
        <time>2018-07-02T17:04:36Z</time>
      </trkpt>
      <trkpt lat="49.762483974918723" lon="0.395219977945089">
        <ele>51.57</ele>
        <time>2018-07-02T17:04:37Z</time>
      </trkpt>
      <trkpt lat="49.762349026277661" lon="0.395307987928391">
        <ele>51.57</ele>
        <time>2018-07-02T17:04:38Z</time>
      </trkpt>
      <trkpt lat="49.762220028787851" lon="0.395385017618537">
        <ele>51.090000000000003</ele>
        <time>2018-07-02T17:04:39Z</time>
      </trkpt>
      <trkpt lat="49.761975025758147" lon="0.395532958209515">
        <ele>50.130000000000003</ele>
        <time>2018-07-02T17:04:41Z</time>
      </trkpt>
      <trkpt lat="49.761848039925098" lon="0.395572017878294">
        <ele>49.649999999999999</ele>
        <time>2018-07-02T17:04:42Z</time>
      </trkpt>
      <trkpt lat="49.761710995808244" lon="0.395572017878294">
        <ele>49.159999999999997</ele>
        <time>2018-07-02T17:04:43Z</time>
      </trkpt>
      <trkpt lat="49.761566994711757" lon="0.395537987351418">
        <ele>48.68</ele>
        <time>2018-07-02T17:04:44Z</time>
      </trkpt>
      <trkpt lat="49.761437997221947" lon="0.39541401900351">
        <ele>47.719999999999999</ele>
        <time>2018-07-02T17:04:45Z</time>
      </trkpt>
      <trkpt lat="49.761312017217278" lon="0.395259037613869">
        <ele>47.240000000000002</ele>
        <time>2018-07-02T17:04:46Z</time>
      </trkpt>
      <trkpt lat="49.761180002242327" lon="0.395087040960789">
        <ele>46.759999999999998</ele>
        <time>2018-07-02T17:04:47Z</time>
      </trkpt>
      <trkpt lat="49.761063996702433" lon="0.394888976588845">
        <ele>45.799999999999997</ele>
        <time>2018-07-02T17:04:48Z</time>
      </trkpt>
      <trkpt lat="49.760942962020636" lon="0.394684039056301">
        <ele>45.32</ele>
        <time>2018-07-02T17:04:49Z</time>
      </trkpt>
      <trkpt lat="49.759858008474112" lon="0.393283003941178">
        <ele>39.07</ele>
        <time>2018-07-02T17:04:57Z</time>
      </trkpt>
      <trkpt lat="49.759613005444407" lon="0.39298502728343">
        <ele>37.630000000000003</ele>
        <time>2018-07-02T17:04:59Z</time>
      </trkpt>
      <trkpt lat="49.75951099768281" lon="0.392809007316828">
        <ele>36.670000000000002</ele>
        <time>2018-07-02T17:05:00Z</time>
      </trkpt>
      <trkpt lat="49.75942600518465" lon="0.392627958208323">
        <ele>35.710000000000001</ele>
        <time>2018-07-02T17:05:01Z</time>
      </trkpt>
      <trkpt lat="49.759365990757942" lon="0.39240600541234">
        <ele>34.740000000000002</ele>
        <time>2018-07-02T17:05:02Z</time>
      </trkpt>
      <trkpt lat="49.75931997410953" lon="0.392179023474455">
        <ele>33.780000000000001</ele>
        <time>2018-07-02T17:05:03Z</time>
      </trkpt>
      <trkpt lat="49.759312011301517" lon="0.391917005181313">
        <ele>33.299999999999997</ele>
        <time>2018-07-02T17:05:04Z</time>
      </trkpt>
      <trkpt lat="49.759312011301517" lon="0.39165398105979">
        <ele>32.340000000000003</ele>
        <time>2018-07-02T17:05:05Z</time>
      </trkpt>
      <trkpt lat="49.759380994364619" lon="0.390517981722951">
        <ele>29.940000000000001</ele>
        <time>2018-07-02T17:05:09Z</time>
      </trkpt>
      <trkpt lat="49.759740997105837" lon="0.388533985242248">
        <ele>26.09</ele>
        <time>2018-07-02T17:05:17Z</time>
      </trkpt>
      <trkpt lat="49.760257992893457" lon="0.386933963745832">
        <ele>21.77</ele>
        <time>2018-07-02T17:05:26Z</time>
      </trkpt>
      <trkpt lat="49.760853024199605" lon="0.385364033281803">
        <ele>18.399999999999999</ele>
        <time>2018-07-02T17:05:36Z</time>
      </trkpt>
      <trkpt lat="49.761412013322115" lon="0.383909018710256">
        <ele>15.039999999999999</ele>
        <time>2018-07-02T17:05:48Z</time>
      </trkpt>
      <trkpt lat="49.761601025238633" lon="0.383409038186073">
        <ele>14.08</ele>
        <time>2018-07-02T17:05:52Z</time>
      </trkpt>
      <trkpt lat="49.761979971081018" lon="0.382382003590465">
        <ele>11.19</ele>
        <time>2018-07-02T17:06:00Z</time>
      </trkpt>
      <trkpt lat="49.762079967185855" lon="0.38194396533072">
        <ele>10.23</ele>
        <time>2018-07-02T17:06:03Z</time>
      </trkpt>
      <trkpt lat="49.762141993269324" lon="0.381016004830599">
        <ele>8.789999999999999</ele>
        <time>2018-07-02T17:06:09Z</time>
      </trkpt>
      <trkpt lat="49.762149034067988" lon="0.380864040926099">
        <ele>8.789999999999999</ele>
        <time>2018-07-02T17:06:10Z</time>
      </trkpt>
      <trkpt lat="49.762156996876001" lon="0.380708975717425">
        <ele>8.310000000000001</ele>
        <time>2018-07-02T17:06:11Z</time>
      </trkpt>
      <trkpt lat="49.762208964675665" lon="0.379109960049391">
        <ele>6.87</ele>
        <time>2018-07-02T17:06:22Z</time>
      </trkpt>
      <trkpt lat="49.762268979102373" lon="0.377368032932281">
        <ele>6.39</ele>
        <time>2018-07-02T17:06:33Z</time>
      </trkpt>
      <trkpt lat="49.762225979939103" lon="0.376722039654851">
        <ele>6.39</ele>
        <time>2018-07-02T17:06:37Z</time>
      </trkpt>
      <trkpt lat="49.762181974947453" lon="0.375106008723378">
        <ele>5.42</ele>
        <time>2018-07-02T17:06:48Z</time>
      </trkpt>
      <trkpt lat="49.762148028239608" lon="0.374783976003528">
        <ele>6.39</ele>
        <time>2018-07-02T17:06:51Z</time>
      </trkpt>
      <trkpt lat="49.762115003541112" lon="0.374677022919059">
        <ele>6.87</ele>
        <time>2018-07-02T17:06:52Z</time>
      </trkpt>
      <trkpt lat="49.762079967185855" lon="0.374565040692687">
        <ele>6.87</ele>
        <time>2018-07-02T17:06:53Z</time>
      </trkpt>
      <trkpt lat="49.762026993557811" lon="0.374505026265979">
        <ele>6.87</ele>
        <time>2018-07-02T17:06:54Z</time>
      </trkpt>
      <trkpt lat="49.761955998837948" lon="0.374422967433929">
        <ele>6.87</ele>
        <time>2018-07-02T17:06:55Z</time>
      </trkpt>
      <trkpt lat="49.761887015774846" lon="0.374350966885686">
        <ele>6.87</ele>
        <time>2018-07-02T17:06:56Z</time>
      </trkpt>
      <trkpt lat="49.761811997741461" lon="0.374309979379177">
        <ele>6.87</ele>
        <time>2018-07-02T17:06:57Z</time>
      </trkpt>
      <trkpt lat="49.760928964242339" lon="0.373847968876362">
        <ele>4.46</ele>
        <time>2018-07-02T17:07:09Z</time>
      </trkpt>
      <trkpt lat="49.75992196239531" lon="0.373276993632317">
        <ele>3.02</ele>
        <time>2018-07-02T17:07:22Z</time>
      </trkpt>
      <trkpt lat="49.759662039577961" lon="0.373142967000604">
        <ele>2.54</ele>
        <time>2018-07-02T17:07:26Z</time>
      </trkpt>
      <trkpt lat="49.759566988795996" lon="0.373084964230657">
        <ele>2.54</ele>
        <time>2018-07-02T17:07:28Z</time>
      </trkpt>
      <trkpt lat="49.759484007954597" lon="0.373013969510794">
        <ele>2.06</ele>
        <time>2018-07-02T17:07:31Z</time>
      </trkpt>
      <trkpt lat="49.759417958557606" lon="0.372954038903117">
        <ele>2.06</ele>
        <time>2018-07-02T17:07:33Z</time>
      </trkpt>
      <trkpt lat="49.759376971051097" lon="0.372926965355873">
        <ele>1.58</ele>
        <time>2018-07-02T17:07:34Z</time>
      </trkpt>
      <trkpt lat="49.759328020736575" lon="0.37291900254786">
        <ele>1.58</ele>
        <time>2018-07-02T17:07:35Z</time>
      </trkpt>
      <trkpt lat="49.759290972724557" lon="0.372954960912466">
        <ele>1.58</ele>
        <time>2018-07-02T17:07:36Z</time>
      </trkpt>
      <trkpt lat="49.759265994653106" lon="0.373017992824316">
        <ele>1.58</ele>
        <time>2018-07-02T17:07:37Z</time>
      </trkpt>
      <trkpt lat="49.759247973561287" lon="0.373063003644347">
        <ele>1.1</ele>
        <time>2018-07-02T17:07:38Z</time>
      </trkpt>
      <trkpt lat="49.759222995489836" lon="0.373161993920803">
        <ele>1.1</ele>
        <time>2018-07-02T17:07:39Z</time>
      </trkpt>
      <trkpt lat="49.75914797745645" lon="0.373460976406932">
        <ele>0.62</ele>
        <time>2018-07-02T17:07:44Z</time>
      </trkpt>
      <trkpt lat="49.759072959423065" lon="0.373544963076711">
        <ele>0.62</ele>
        <time>2018-07-02T17:07:45Z</time>
      </trkpt>
      <trkpt lat="49.759048987179995" lon="0.373529037460685">
        <ele>1.1</ele>
        <time>2018-07-02T17:07:46Z</time>
      </trkpt>
      <trkpt lat="49.759020991623402" lon="0.373509004712105">
        <ele>1.1</ele>
        <time>2018-07-02T17:07:47Z</time>
      </trkpt>
      <trkpt lat="49.758985033258796" lon="0.373483020812273">
        <ele>1.1</ele>
        <time>2018-07-02T17:07:48Z</time>
      </trkpt>
      <trkpt lat="49.758940022438765" lon="0.373451001942158">
        <ele>1.1</ele>
        <time>2018-07-02T17:07:49Z</time>
      </trkpt>
      <trkpt lat="49.758887970820069" lon="0.37341495975852">
        <ele>1.1</ele>
        <time>2018-07-02T17:07:50Z</time>
      </trkpt>
      <trkpt lat="49.758837008848786" lon="0.373377995565534">
        <ele>1.1</ele>
        <time>2018-07-02T17:07:51Z</time>
      </trkpt>
      <trkpt lat="49.758785041049123" lon="0.373342037200928">
        <ele>1.1</ele>
        <time>2018-07-02T17:07:52Z</time>
      </trkpt>
      <trkpt lat="49.758740030229092" lon="0.373310018330812">
        <ele>1.1</ele>
        <time>2018-07-02T17:07:53Z</time>
      </trkpt>
      <trkpt lat="49.758699964731932" lon="0.373281016945839">
        <ele>1.58</ele>
        <time>2018-07-02T17:07:54Z</time>
      </trkpt>
      <trkpt lat="49.758657971397042" lon="0.373251009732485">
        <ele>2.06</ele>
        <time>2018-07-02T17:07:55Z</time>
      </trkpt>
      <trkpt lat="49.758465019986033" lon="0.37315403111279">
        <ele>3.5</ele>
        <time>2018-07-02T17:07:59Z</time>
      </trkpt>
      <trkpt lat="49.758420009166002" lon="0.37313399836421">
        <ele>3.98</ele>
        <time>2018-07-02T17:08:00Z</time>
      </trkpt>
      <trkpt lat="49.758384972810745" lon="0.373120000585914">
        <ele>4.46</ele>
        <time>2018-07-02T17:08:01Z</time>
      </trkpt>
      <trkpt lat="49.758355971425772" lon="0.373107008635998">
        <ele>4.46</ele>
        <time>2018-07-02T17:08:02Z</time>
      </trkpt>
      <trkpt lat="49.758304003626108" lon="0.373084964230657">
        <ele>4.94</ele>
        <time>2018-07-02T17:08:03Z</time>
      </trkpt>
      <trkpt lat="49.758290005847812" lon="0.373078007251024">
        <ele>5.42</ele>
        <time>2018-07-02T17:08:04Z</time>
      </trkpt>
      <trkpt lat="49.758248012512922" lon="0.373056968674064">
        <ele>5.42</ele>
        <time>2018-07-02T17:08:05Z</time>
      </trkpt>
      <trkpt lat="49.758207025006413" lon="0.373036013916135">
        <ele>5.91</ele>
        <time>2018-07-02T17:08:06Z</time>
      </trkpt>
      <trkpt lat="49.758143993094563" lon="0.3730050008744">
        <ele>5.91</ele>
        <time>2018-07-02T17:08:08Z</time>
      </trkpt>
      <trkpt lat="49.758112980052829" lon="0.372988991439343">
        <ele>5.91</ele>
        <time>2018-07-02T17:08:09Z</time>
      </trkpt>
      <trkpt lat="49.758046008646488" lon="0.372955966740847">
        <ele>5.91</ele>
        <time>2018-07-02T17:08:10Z</time>
      </trkpt>
      <trkpt lat="49.758034022524953" lon="0.372973987832665">
        <ele>5.42</ele>
        <time>2018-07-02T17:08:11Z</time>
      </trkpt>
      <trkpt lat="49.757998986169696" lon="0.3730240277946">
        <ele>5.42</ele>
        <time>2018-07-02T17:08:12Z</time>
      </trkpt>
      <trkpt lat="49.757962021976709" lon="0.373077001422644">
        <ele>5.42</ele>
        <time>2018-07-02T17:08:13Z</time>
      </trkpt>
      <trkpt lat="49.757882980629802" lon="0.373192001134157">
        <ele>4.94</ele>
        <time>2018-07-02T17:08:15Z</time>
      </trkpt>
      <trkpt lat="49.757842998951674" lon="0.373251009732485">
        <ele>4.94</ele>
        <time>2018-07-02T17:08:16Z</time>
      </trkpt>
      <trkpt lat="49.757769992575049" lon="0.373357040807605">
        <ele>4.94</ele>
        <time>2018-07-02T17:08:18Z</time>
      </trkpt>
      <trkpt lat="49.757739985361695" lon="0.373400039970875">
        <ele>4.46</ele>
        <time>2018-07-02T17:08:19Z</time>
      </trkpt>
      <trkpt lat="49.757716013118625" lon="0.3734349925071">
        <ele>4.46</ele>
        <time>2018-07-02T17:08:20Z</time>
      </trkpt>
      <trkpt lat="49.757706960663199" lon="0.373447984457016">
        <ele>3.98</ele>
        <time>2018-07-02T17:08:21Z</time>
      </trkpt>
      <trkpt lat="49.757647030055523" lon="0.373403979465365">
        <ele>3.98</ele>
        <time>2018-07-02T17:08:22Z</time>
      </trkpt>
      <trkpt lat="49.757652981206775" lon="0.373373972252011">
        <ele>3.5</ele>
        <time>2018-07-02T17:08:23Z</time>
      </trkpt>
      <trkpt lat="49.757659016177058" lon="0.373340025544167">
        <ele>3.02</ele>
        <time>2018-07-02T17:08:24Z</time>
      </trkpt>
      <trkpt lat="49.757665973156691" lon="0.373295014724135">
        <ele>3.02</ele>
        <time>2018-07-02T17:08:25Z</time>
      </trkpt>
      <trkpt lat="49.757675025612116" lon="0.373245980590582">
        <ele>3.02</ele>
        <time>2018-07-02T17:08:26Z</time>
      </trkpt>
      <trkpt lat="49.757749959826469" lon="0.37281297147274">
        <ele>3.02</ele>
        <time>2018-07-02T17:08:35Z</time>
      </trkpt>
      <trkpt lat="49.757794970646501" lon="0.372555982321501">
        <ele>3.98</ele>
        <time>2018-07-02T17:08:42Z</time>
      </trkpt>
      <trkpt lat="49.757819026708603" lon="0.372417010366917">
        <ele>3.98</ele>
        <time>2018-07-02T17:08:47Z</time>
      </trkpt>
      <trkpt lat="49.757821960374713" lon="0.372398989275098">
        <ele>3.98</ele>
        <time>2018-07-02T17:08:48Z</time>
      </trkpt>
    </trkseg>
  </trk>

</gpx>